<?xml version="1.0" encoding="UTF-8" standalone="no" ?>
<gpx xmlns="http://www.topografix.com/GPX/1/1" xmlns:xsi="http://www.w3.org/2001/XMLSchema-instance" xsi:schemaLocation="http://www.topografix.com/GPX/1/1 http://www.topografix.com/GPX/1/1/gpx.xsd" version="1.1" creator="VisuGPX - https://www.visugpx.com">
  <metadata>
    <name>Petit tour à la Bivouak</name>
  </metadata>
  <trk>
    <name><![CDATA[Petit tour à la Bivouak_1]]></name>
    <trkseg>
      <trkpt lat="44.37968" lon="5.16959">
        <ele>265</ele>
        <time>2021-11-13T13:56:27.988Z</time>
      </trkpt>
      <trkpt lat="44.37968" lon="5.16959">
        <ele>265</ele>
        <time>2021-11-13T13:56:28.989Z</time>
      </trkpt>
      <trkpt lat="44.37968" lon="5.16959">
        <ele>265</ele>
        <time>2021-11-13T13:56:29.989Z</time>
      </trkpt>
      <trkpt lat="44.37968" lon="5.16959">
        <ele>265</ele>
        <time>2021-11-13T13:56:30.990Z</time>
      </trkpt>
      <trkpt lat="44.37968" lon="5.16959">
        <ele>265</ele>
        <time>2021-11-13T13:56:31.990Z</time>
      </trkpt>
      <trkpt lat="44.37968" lon="5.16958">
        <ele>265</ele>
        <time>2021-11-13T13:56:32.989Z</time>
      </trkpt>
      <trkpt lat="44.37968" lon="5.16956">
        <ele>265</ele>
        <time>2021-11-13T13:56:33.990Z</time>
      </trkpt>
      <trkpt lat="44.37969" lon="5.16955">
        <ele>266</ele>
        <time>2021-11-13T13:56:34.990Z</time>
      </trkpt>
      <trkpt lat="44.37969" lon="5.16953">
        <ele>266</ele>
        <time>2021-11-13T13:56:35.990Z</time>
      </trkpt>
      <trkpt lat="44.3797" lon="5.16952">
        <ele>266</ele>
        <time>2021-11-13T13:56:36.990Z</time>
      </trkpt>
      <trkpt lat="44.3797" lon="5.16951">
        <ele>266</ele>
        <time>2021-11-13T13:56:37.990Z</time>
      </trkpt>
      <trkpt lat="44.37971" lon="5.16949">
        <ele>267</ele>
        <time>2021-11-13T13:56:38.989Z</time>
      </trkpt>
      <trkpt lat="44.37971" lon="5.16947">
        <ele>267</ele>
        <time>2021-11-13T13:56:39.990Z</time>
      </trkpt>
      <trkpt lat="44.37971" lon="5.16945">
        <ele>268</ele>
        <time>2021-11-13T13:56:40.990Z</time>
      </trkpt>
      <trkpt lat="44.37971" lon="5.16943">
        <ele>269</ele>
        <time>2021-11-13T13:56:41.990Z</time>
      </trkpt>
      <trkpt lat="44.37971" lon="5.16942">
        <ele>269</ele>
        <time>2021-11-13T13:56:42.989Z</time>
      </trkpt>
      <trkpt lat="44.3797" lon="5.16941">
        <ele>270</ele>
        <time>2021-11-13T13:56:43.989Z</time>
      </trkpt>
      <trkpt lat="44.3797" lon="5.1694">
        <ele>271</ele>
        <time>2021-11-13T13:56:44.990Z</time>
      </trkpt>
      <trkpt lat="44.3797" lon="5.16939">
        <ele>271</ele>
        <time>2021-11-13T13:56:45.990Z</time>
      </trkpt>
      <trkpt lat="44.3797" lon="5.16939">
        <ele>272</ele>
        <time>2021-11-13T13:56:46.990Z</time>
      </trkpt>
      <trkpt lat="44.37971" lon="5.16938">
        <ele>273</ele>
        <time>2021-11-13T13:56:47.990Z</time>
      </trkpt>
      <trkpt lat="44.37971" lon="5.16937">
        <ele>274</ele>
        <time>2021-11-13T13:56:48.990Z</time>
      </trkpt>
      <trkpt lat="44.37971" lon="5.16936">
        <ele>275</ele>
        <time>2021-11-13T13:56:49.989Z</time>
      </trkpt>
      <trkpt lat="44.3797" lon="5.16936">
        <ele>276</ele>
        <time>2021-11-13T13:56:50.990Z</time>
      </trkpt>
      <trkpt lat="44.37971" lon="5.16936">
        <ele>277</ele>
        <time>2021-11-13T13:56:51.990Z</time>
      </trkpt>
      <trkpt lat="44.37971" lon="5.16936">
        <ele>278</ele>
        <time>2021-11-13T13:56:52.990Z</time>
      </trkpt>
      <trkpt lat="44.37972" lon="5.16935">
        <ele>280</ele>
        <time>2021-11-13T13:56:53.990Z</time>
      </trkpt>
      <trkpt lat="44.37972" lon="5.16934">
        <ele>282</ele>
        <time>2021-11-13T13:56:54.989Z</time>
      </trkpt>
      <trkpt lat="44.37973" lon="5.16933">
        <ele>283</ele>
        <time>2021-11-13T13:56:55.990Z</time>
      </trkpt>
      <trkpt lat="44.37973" lon="5.16933">
        <ele>285</ele>
        <time>2021-11-13T13:56:56.990Z</time>
      </trkpt>
      <trkpt lat="44.37973" lon="5.16932">
        <ele>286</ele>
        <time>2021-11-13T13:56:57.989Z</time>
      </trkpt>
      <trkpt lat="44.37974" lon="5.1693">
        <ele>287</ele>
        <time>2021-11-13T13:56:58.990Z</time>
      </trkpt>
      <trkpt lat="44.37974" lon="5.16929">
        <ele>289</ele>
        <time>2021-11-13T13:56:59.990Z</time>
      </trkpt>
      <trkpt lat="44.37974" lon="5.16929">
        <ele>290</ele>
        <time>2021-11-13T13:57:00.990Z</time>
      </trkpt>
      <trkpt lat="44.37974" lon="5.16929">
        <ele>291</ele>
        <time>2021-11-13T13:57:01.990Z</time>
      </trkpt>
      <trkpt lat="44.37974" lon="5.16929">
        <ele>292</ele>
        <time>2021-11-13T13:57:02.990Z</time>
      </trkpt>
      <trkpt lat="44.37974" lon="5.16929">
        <ele>294</ele>
        <time>2021-11-13T13:57:03.990Z</time>
      </trkpt>
      <trkpt lat="44.37974" lon="5.16928">
        <ele>295</ele>
        <time>2021-11-13T13:57:04.989Z</time>
      </trkpt>
      <trkpt lat="44.37974" lon="5.16928">
        <ele>296</ele>
        <time>2021-11-13T13:57:05.990Z</time>
      </trkpt>
      <trkpt lat="44.37974" lon="5.16928">
        <ele>298</ele>
        <time>2021-11-13T13:57:06.990Z</time>
      </trkpt>
      <trkpt lat="44.37974" lon="5.16928">
        <ele>299</ele>
        <time>2021-11-13T13:57:07.989Z</time>
      </trkpt>
      <trkpt lat="44.37974" lon="5.16928">
        <ele>301</ele>
        <time>2021-11-13T13:57:08.990Z</time>
      </trkpt>
      <trkpt lat="44.37974" lon="5.16928">
        <ele>303</ele>
        <time>2021-11-13T13:57:09.990Z</time>
      </trkpt>
      <trkpt lat="44.37974" lon="5.16927">
        <ele>305</ele>
        <time>2021-11-13T13:57:10.990Z</time>
      </trkpt>
      <trkpt lat="44.37974" lon="5.16927">
        <ele>307</ele>
        <time>2021-11-13T13:57:11.989Z</time>
      </trkpt>
      <trkpt lat="44.37974" lon="5.16927">
        <ele>309</ele>
        <time>2021-11-13T13:57:12.990Z</time>
      </trkpt>
      <trkpt lat="44.37974" lon="5.16927">
        <ele>310</ele>
        <time>2021-11-13T13:57:13.990Z</time>
      </trkpt>
      <trkpt lat="44.37974" lon="5.16927">
        <ele>312</ele>
        <time>2021-11-13T13:57:14.990Z</time>
      </trkpt>
      <trkpt lat="44.37974" lon="5.16927">
        <ele>313</ele>
        <time>2021-11-13T13:57:15.990Z</time>
      </trkpt>
      <trkpt lat="44.37974" lon="5.16927">
        <ele>314</ele>
        <time>2021-11-13T13:57:16.990Z</time>
      </trkpt>
      <trkpt lat="44.37974" lon="5.16927">
        <ele>315</ele>
        <time>2021-11-13T13:57:17.990Z</time>
      </trkpt>
      <trkpt lat="44.37974" lon="5.16927">
        <ele>316</ele>
        <time>2021-11-13T13:57:18.990Z</time>
      </trkpt>
      <trkpt lat="44.37974" lon="5.16927">
        <ele>317</ele>
        <time>2021-11-13T13:57:19.990Z</time>
      </trkpt>
      <trkpt lat="44.37972" lon="5.16929">
        <ele>318</ele>
        <time>2021-11-13T13:57:20.990Z</time>
      </trkpt>
      <trkpt lat="44.3797" lon="5.16931">
        <ele>318</ele>
        <time>2021-11-13T13:57:21.989Z</time>
      </trkpt>
      <trkpt lat="44.37968" lon="5.16933">
        <ele>319</ele>
        <time>2021-11-13T13:57:22.990Z</time>
      </trkpt>
      <trkpt lat="44.37966" lon="5.16935">
        <ele>319</ele>
        <time>2021-11-13T13:57:23.990Z</time>
      </trkpt>
      <trkpt lat="44.37963" lon="5.16937">
        <ele>320</ele>
        <time>2021-11-13T13:57:24.989Z</time>
      </trkpt>
      <trkpt lat="44.3796" lon="5.16938">
        <ele>320</ele>
        <time>2021-11-13T13:57:25.990Z</time>
      </trkpt>
      <trkpt lat="44.37957" lon="5.1694">
        <ele>321</ele>
        <time>2021-11-13T13:57:26.990Z</time>
      </trkpt>
      <trkpt lat="44.37953" lon="5.16941">
        <ele>321</ele>
        <time>2021-11-13T13:57:27.989Z</time>
      </trkpt>
      <trkpt lat="44.3795" lon="5.16943">
        <ele>322</ele>
        <time>2021-11-13T13:57:28.990Z</time>
      </trkpt>
      <trkpt lat="44.37946" lon="5.16945">
        <ele>322</ele>
        <time>2021-11-13T13:57:29.989Z</time>
      </trkpt>
      <trkpt lat="44.37942" lon="5.16947">
        <ele>321</ele>
        <time>2021-11-13T13:57:30.990Z</time>
      </trkpt>
      <trkpt lat="44.37938" lon="5.16949">
        <ele>321</ele>
        <time>2021-11-13T13:57:31.989Z</time>
      </trkpt>
      <trkpt lat="44.37934" lon="5.1695">
        <ele>321</ele>
        <time>2021-11-13T13:57:32.989Z</time>
      </trkpt>
      <trkpt lat="44.37929" lon="5.16951">
        <ele>321</ele>
        <time>2021-11-13T13:57:33.990Z</time>
      </trkpt>
      <trkpt lat="44.37925" lon="5.16952">
        <ele>321</ele>
        <time>2021-11-13T13:57:34.990Z</time>
      </trkpt>
      <trkpt lat="44.3792" lon="5.16954">
        <ele>321</ele>
        <time>2021-11-13T13:57:35.990Z</time>
      </trkpt>
      <trkpt lat="44.37916" lon="5.16956">
        <ele>321</ele>
        <time>2021-11-13T13:57:36.990Z</time>
      </trkpt>
      <trkpt lat="44.37912" lon="5.16957">
        <ele>321</ele>
        <time>2021-11-13T13:57:37.990Z</time>
      </trkpt>
      <trkpt lat="44.37907" lon="5.16958">
        <ele>321</ele>
        <time>2021-11-13T13:57:38.990Z</time>
      </trkpt>
      <trkpt lat="44.37904" lon="5.16959">
        <ele>321</ele>
        <time>2021-11-13T13:57:39.990Z</time>
      </trkpt>
      <trkpt lat="44.37899" lon="5.16961">
        <ele>321</ele>
        <time>2021-11-13T13:57:40.989Z</time>
      </trkpt>
      <trkpt lat="44.37893" lon="5.16962">
        <ele>321</ele>
        <time>2021-11-13T13:57:41.990Z</time>
      </trkpt>
      <trkpt lat="44.37888" lon="5.16964">
        <ele>321</ele>
        <time>2021-11-13T13:57:42.989Z</time>
      </trkpt>
      <trkpt lat="44.37884" lon="5.16965">
        <ele>320</ele>
        <time>2021-11-13T13:57:43.989Z</time>
      </trkpt>
      <trkpt lat="44.37878" lon="5.16966">
        <ele>320</ele>
        <time>2021-11-13T13:57:44.989Z</time>
      </trkpt>
      <trkpt lat="44.37873" lon="5.16968">
        <ele>320</ele>
        <time>2021-11-13T13:57:45.990Z</time>
      </trkpt>
      <trkpt lat="44.37868" lon="5.16971">
        <ele>319</ele>
        <time>2021-11-13T13:57:46.990Z</time>
      </trkpt>
      <trkpt lat="44.37864" lon="5.16974">
        <ele>319</ele>
        <time>2021-11-13T13:57:47.990Z</time>
      </trkpt>
      <trkpt lat="44.37859" lon="5.16977">
        <ele>319</ele>
        <time>2021-11-13T13:57:48.989Z</time>
      </trkpt>
      <trkpt lat="44.37854" lon="5.1698">
        <ele>319</ele>
        <time>2021-11-13T13:57:49.990Z</time>
      </trkpt>
      <trkpt lat="44.37851" lon="5.16982">
        <ele>319</ele>
        <time>2021-11-13T13:57:50.990Z</time>
      </trkpt>
      <trkpt lat="44.37847" lon="5.16986">
        <ele>319</ele>
        <time>2021-11-13T13:57:51.990Z</time>
      </trkpt>
      <trkpt lat="44.37842" lon="5.1699">
        <ele>319</ele>
        <time>2021-11-13T13:57:52.990Z</time>
      </trkpt>
      <trkpt lat="44.37838" lon="5.16994">
        <ele>319</ele>
        <time>2021-11-13T13:57:53.990Z</time>
      </trkpt>
      <trkpt lat="44.37833" lon="5.16999">
        <ele>319</ele>
        <time>2021-11-13T13:57:54.990Z</time>
      </trkpt>
      <trkpt lat="44.37828" lon="5.17003">
        <ele>319</ele>
        <time>2021-11-13T13:57:55.989Z</time>
      </trkpt>
      <trkpt lat="44.37823" lon="5.17007">
        <ele>318</ele>
        <time>2021-11-13T13:57:56.989Z</time>
      </trkpt>
      <trkpt lat="44.37818" lon="5.1701">
        <ele>318</ele>
        <time>2021-11-13T13:57:57.990Z</time>
      </trkpt>
      <trkpt lat="44.37814" lon="5.17013">
        <ele>317</ele>
        <time>2021-11-13T13:57:58.990Z</time>
      </trkpt>
      <trkpt lat="44.3781" lon="5.17015">
        <ele>316</ele>
        <time>2021-11-13T13:57:59.990Z</time>
      </trkpt>
      <trkpt lat="44.37805" lon="5.17018">
        <ele>315</ele>
        <time>2021-11-13T13:58:00.989Z</time>
      </trkpt>
      <trkpt lat="44.378" lon="5.1702">
        <ele>315</ele>
        <time>2021-11-13T13:58:01.990Z</time>
      </trkpt>
      <trkpt lat="44.37795" lon="5.1702">
        <ele>314</ele>
        <time>2021-11-13T13:58:02.989Z</time>
      </trkpt>
      <trkpt lat="44.37789" lon="5.1702">
        <ele>313</ele>
        <time>2021-11-13T13:58:03.990Z</time>
      </trkpt>
      <trkpt lat="44.37784" lon="5.17018">
        <ele>313</ele>
        <time>2021-11-13T13:58:04.990Z</time>
      </trkpt>
      <trkpt lat="44.37779" lon="5.17016">
        <ele>312</ele>
        <time>2021-11-13T13:58:05.990Z</time>
      </trkpt>
      <trkpt lat="44.37774" lon="5.17014">
        <ele>311</ele>
        <time>2021-11-13T13:58:06.990Z</time>
      </trkpt>
      <trkpt lat="44.3777" lon="5.17012">
        <ele>310</ele>
        <time>2021-11-13T13:58:07.989Z</time>
      </trkpt>
      <trkpt lat="44.37766" lon="5.17011">
        <ele>310</ele>
        <time>2021-11-13T13:58:08.990Z</time>
      </trkpt>
      <trkpt lat="44.37763" lon="5.17009">
        <ele>310</ele>
        <time>2021-11-13T13:58:09.990Z</time>
      </trkpt>
      <trkpt lat="44.3776" lon="5.17009">
        <ele>309</ele>
        <time>2021-11-13T13:58:10.990Z</time>
      </trkpt>
      <trkpt lat="44.37756" lon="5.17009">
        <ele>309</ele>
        <time>2021-11-13T13:58:11.989Z</time>
      </trkpt>
      <trkpt lat="44.37753" lon="5.17011">
        <ele>308</ele>
        <time>2021-11-13T13:58:12.989Z</time>
      </trkpt>
      <trkpt lat="44.37751" lon="5.17014">
        <ele>308</ele>
        <time>2021-11-13T13:58:13.990Z</time>
      </trkpt>
      <trkpt lat="44.37749" lon="5.17017">
        <ele>307</ele>
        <time>2021-11-13T13:58:14.989Z</time>
      </trkpt>
      <trkpt lat="44.37747" lon="5.17021">
        <ele>307</ele>
        <time>2021-11-13T13:58:15.990Z</time>
      </trkpt>
      <trkpt lat="44.37745" lon="5.17024">
        <ele>307</ele>
        <time>2021-11-13T13:58:16.990Z</time>
      </trkpt>
      <trkpt lat="44.37743" lon="5.17028">
        <ele>306</ele>
        <time>2021-11-13T13:58:17.990Z</time>
      </trkpt>
      <trkpt lat="44.3774" lon="5.17031">
        <ele>306</ele>
        <time>2021-11-13T13:58:18.989Z</time>
      </trkpt>
      <trkpt lat="44.37736" lon="5.17035">
        <ele>305</ele>
        <time>2021-11-13T13:58:19.989Z</time>
      </trkpt>
      <trkpt lat="44.37734" lon="5.17039">
        <ele>305</ele>
        <time>2021-11-13T13:58:20.990Z</time>
      </trkpt>
      <trkpt lat="44.37731" lon="5.17044">
        <ele>304</ele>
        <time>2021-11-13T13:58:21.989Z</time>
      </trkpt>
      <trkpt lat="44.37729" lon="5.17047">
        <ele>304</ele>
        <time>2021-11-13T13:58:22.989Z</time>
      </trkpt>
      <trkpt lat="44.37725" lon="5.17051">
        <ele>303</ele>
        <time>2021-11-13T13:58:23.990Z</time>
      </trkpt>
      <trkpt lat="44.37722" lon="5.17053">
        <ele>303</ele>
        <time>2021-11-13T13:58:24.989Z</time>
      </trkpt>
      <trkpt lat="44.37717" lon="5.17053">
        <ele>303</ele>
        <time>2021-11-13T13:58:25.990Z</time>
      </trkpt>
      <trkpt lat="44.37714" lon="5.17052">
        <ele>303</ele>
        <time>2021-11-13T13:58:26.989Z</time>
      </trkpt>
      <trkpt lat="44.37711" lon="5.17051">
        <ele>303</ele>
        <time>2021-11-13T13:58:27.990Z</time>
      </trkpt>
      <trkpt lat="44.37708" lon="5.17049">
        <ele>303</ele>
        <time>2021-11-13T13:58:28.989Z</time>
      </trkpt>
      <trkpt lat="44.37705" lon="5.17047">
        <ele>303</ele>
        <time>2021-11-13T13:58:29.989Z</time>
      </trkpt>
      <trkpt lat="44.37703" lon="5.17046">
        <ele>303</ele>
        <time>2021-11-13T13:58:30.989Z</time>
      </trkpt>
      <trkpt lat="44.37702" lon="5.17046">
        <ele>303</ele>
        <time>2021-11-13T13:58:31.990Z</time>
      </trkpt>
      <trkpt lat="44.37702" lon="5.17046">
        <ele>303</ele>
        <time>2021-11-13T13:58:32.990Z</time>
      </trkpt>
      <trkpt lat="44.37702" lon="5.17046">
        <ele>303</ele>
        <time>2021-11-13T13:58:33.990Z</time>
      </trkpt>
      <trkpt lat="44.37703" lon="5.17046">
        <ele>304</ele>
        <time>2021-11-13T13:58:34.991Z</time>
      </trkpt>
      <trkpt lat="44.37703" lon="5.17046">
        <ele>303</ele>
        <time>2021-11-13T13:58:35.991Z</time>
      </trkpt>
      <trkpt lat="44.37704" lon="5.17046">
        <ele>303</ele>
        <time>2021-11-13T13:58:36.991Z</time>
      </trkpt>
      <trkpt lat="44.37703" lon="5.17045">
        <ele>301</ele>
        <time>2021-11-13T13:58:37.992Z</time>
      </trkpt>
      <trkpt lat="44.37701" lon="5.17045">
        <ele>301</ele>
        <time>2021-11-13T13:58:38.991Z</time>
      </trkpt>
      <trkpt lat="44.37699" lon="5.17046">
        <ele>301</ele>
        <time>2021-11-13T13:58:39.992Z</time>
      </trkpt>
      <trkpt lat="44.37698" lon="5.17047">
        <ele>302</ele>
        <time>2021-11-13T13:58:40.991Z</time>
      </trkpt>
      <trkpt lat="44.37696" lon="5.17048">
        <ele>302</ele>
        <time>2021-11-13T13:58:41.991Z</time>
      </trkpt>
      <trkpt lat="44.37695" lon="5.17049">
        <ele>302</ele>
        <time>2021-11-13T13:58:42.992Z</time>
      </trkpt>
      <trkpt lat="44.37694" lon="5.1705">
        <ele>302</ele>
        <time>2021-11-13T13:58:43.991Z</time>
      </trkpt>
      <trkpt lat="44.37692" lon="5.1705">
        <ele>301</ele>
        <time>2021-11-13T13:58:44.992Z</time>
      </trkpt>
      <trkpt lat="44.3769" lon="5.17052">
        <ele>301</ele>
        <time>2021-11-13T13:58:45.992Z</time>
      </trkpt>
      <trkpt lat="44.37689" lon="5.17052">
        <ele>301</ele>
        <time>2021-11-13T13:58:46.992Z</time>
      </trkpt>
      <trkpt lat="44.37687" lon="5.17053">
        <ele>301</ele>
        <time>2021-11-13T13:58:47.991Z</time>
      </trkpt>
      <trkpt lat="44.37685" lon="5.17055">
        <ele>301</ele>
        <time>2021-11-13T13:58:48.991Z</time>
      </trkpt>
      <trkpt lat="44.37684" lon="5.17056">
        <ele>301</ele>
        <time>2021-11-13T13:58:49.991Z</time>
      </trkpt>
      <trkpt lat="44.37681" lon="5.17058">
        <ele>301</ele>
        <time>2021-11-13T13:58:50.991Z</time>
      </trkpt>
      <trkpt lat="44.37679" lon="5.17059">
        <ele>300</ele>
        <time>2021-11-13T13:58:51.992Z</time>
      </trkpt>
      <trkpt lat="44.37677" lon="5.1706">
        <ele>300</ele>
        <time>2021-11-13T13:58:52.991Z</time>
      </trkpt>
      <trkpt lat="44.37673" lon="5.17062">
        <ele>300</ele>
        <time>2021-11-13T13:58:53.991Z</time>
      </trkpt>
      <trkpt lat="44.37671" lon="5.17064">
        <ele>300</ele>
        <time>2021-11-13T13:58:54.991Z</time>
      </trkpt>
      <trkpt lat="44.37667" lon="5.17066">
        <ele>300</ele>
        <time>2021-11-13T13:58:55.991Z</time>
      </trkpt>
      <trkpt lat="44.37663" lon="5.17069">
        <ele>301</ele>
        <time>2021-11-13T13:58:56.991Z</time>
      </trkpt>
      <trkpt lat="44.37659" lon="5.17071">
        <ele>301</ele>
        <time>2021-11-13T13:58:57.991Z</time>
      </trkpt>
      <trkpt lat="44.37654" lon="5.17074">
        <ele>301</ele>
        <time>2021-11-13T13:58:58.992Z</time>
      </trkpt>
      <trkpt lat="44.37651" lon="5.17076">
        <ele>301</ele>
        <time>2021-11-13T13:58:59.991Z</time>
      </trkpt>
      <trkpt lat="44.37645" lon="5.1708">
        <ele>301</ele>
        <time>2021-11-13T13:59:00.992Z</time>
      </trkpt>
      <trkpt lat="44.3764" lon="5.17083">
        <ele>301</ele>
        <time>2021-11-13T13:59:01.991Z</time>
      </trkpt>
      <trkpt lat="44.37635" lon="5.17087">
        <ele>301</ele>
        <time>2021-11-13T13:59:02.991Z</time>
      </trkpt>
      <trkpt lat="44.3763" lon="5.17091">
        <ele>301</ele>
        <time>2021-11-13T13:59:03.991Z</time>
      </trkpt>
      <trkpt lat="44.37624" lon="5.17095">
        <ele>301</ele>
        <time>2021-11-13T13:59:04.992Z</time>
      </trkpt>
      <trkpt lat="44.37619" lon="5.17097">
        <ele>301</ele>
        <time>2021-11-13T13:59:05.991Z</time>
      </trkpt>
      <trkpt lat="44.37614" lon="5.17098">
        <ele>301</ele>
        <time>2021-11-13T13:59:06.991Z</time>
      </trkpt>
      <trkpt lat="44.3761" lon="5.17096">
        <ele>301</ele>
        <time>2021-11-13T13:59:07.992Z</time>
      </trkpt>
      <trkpt lat="44.37607" lon="5.17092">
        <ele>301</ele>
        <time>2021-11-13T13:59:08.991Z</time>
      </trkpt>
      <trkpt lat="44.37605" lon="5.17087">
        <ele>301</ele>
        <time>2021-11-13T13:59:09.991Z</time>
      </trkpt>
      <trkpt lat="44.37603" lon="5.17082">
        <ele>301</ele>
        <time>2021-11-13T13:59:10.991Z</time>
      </trkpt>
      <trkpt lat="44.37601" lon="5.17077">
        <ele>301</ele>
        <time>2021-11-13T13:59:11.992Z</time>
      </trkpt>
      <trkpt lat="44.37599" lon="5.17072">
        <ele>300</ele>
        <time>2021-11-13T13:59:12.992Z</time>
      </trkpt>
      <trkpt lat="44.37597" lon="5.17067">
        <ele>301</ele>
        <time>2021-11-13T13:59:13.991Z</time>
      </trkpt>
      <trkpt lat="44.37595" lon="5.17062">
        <ele>301</ele>
        <time>2021-11-13T13:59:14.991Z</time>
      </trkpt>
      <trkpt lat="44.37593" lon="5.17058">
        <ele>301</ele>
        <time>2021-11-13T13:59:15.991Z</time>
      </trkpt>
      <trkpt lat="44.37592" lon="5.17055">
        <ele>300</ele>
        <time>2021-11-13T13:59:16.992Z</time>
      </trkpt>
      <trkpt lat="44.37591" lon="5.17052">
        <ele>300</ele>
        <time>2021-11-13T13:59:17.991Z</time>
      </trkpt>
      <trkpt lat="44.37589" lon="5.17048">
        <ele>300</ele>
        <time>2021-11-13T13:59:18.991Z</time>
      </trkpt>
      <trkpt lat="44.37588" lon="5.17043">
        <ele>299</ele>
        <time>2021-11-13T13:59:19.992Z</time>
      </trkpt>
      <trkpt lat="44.37586" lon="5.17039">
        <ele>299</ele>
        <time>2021-11-13T13:59:20.991Z</time>
      </trkpt>
      <trkpt lat="44.37582" lon="5.17036">
        <ele>298</ele>
        <time>2021-11-13T13:59:21.991Z</time>
      </trkpt>
      <trkpt lat="44.37578" lon="5.17034">
        <ele>297</ele>
        <time>2021-11-13T13:59:22.991Z</time>
      </trkpt>
      <trkpt lat="44.37574" lon="5.17034">
        <ele>297</ele>
        <time>2021-11-13T13:59:23.991Z</time>
      </trkpt>
      <trkpt lat="44.3757" lon="5.17036">
        <ele>296</ele>
        <time>2021-11-13T13:59:24.991Z</time>
      </trkpt>
      <trkpt lat="44.37566" lon="5.17039">
        <ele>295</ele>
        <time>2021-11-13T13:59:25.991Z</time>
      </trkpt>
      <trkpt lat="44.37562" lon="5.17043">
        <ele>294</ele>
        <time>2021-11-13T13:59:26.991Z</time>
      </trkpt>
      <trkpt lat="44.37558" lon="5.17048">
        <ele>293</ele>
        <time>2021-11-13T13:59:27.991Z</time>
      </trkpt>
      <trkpt lat="44.37555" lon="5.17053">
        <ele>292</ele>
        <time>2021-11-13T13:59:28.991Z</time>
      </trkpt>
      <trkpt lat="44.37552" lon="5.17059">
        <ele>292</ele>
        <time>2021-11-13T13:59:29.991Z</time>
      </trkpt>
      <trkpt lat="44.37549" lon="5.17066">
        <ele>291</ele>
        <time>2021-11-13T13:59:30.991Z</time>
      </trkpt>
      <trkpt lat="44.37547" lon="5.17072">
        <ele>291</ele>
        <time>2021-11-13T13:59:31.991Z</time>
      </trkpt>
      <trkpt lat="44.37544" lon="5.17079">
        <ele>291</ele>
        <time>2021-11-13T13:59:32.992Z</time>
      </trkpt>
      <trkpt lat="44.37542" lon="5.17085">
        <ele>291</ele>
        <time>2021-11-13T13:59:33.991Z</time>
      </trkpt>
      <trkpt lat="44.37539" lon="5.17091">
        <ele>290</ele>
        <time>2021-11-13T13:59:34.992Z</time>
      </trkpt>
      <trkpt lat="44.37536" lon="5.17098">
        <ele>290</ele>
        <time>2021-11-13T13:59:35.991Z</time>
      </trkpt>
      <trkpt lat="44.37533" lon="5.17104">
        <ele>290</ele>
        <time>2021-11-13T13:59:36.992Z</time>
      </trkpt>
      <trkpt lat="44.3753" lon="5.1711">
        <ele>289</ele>
        <time>2021-11-13T13:59:37.991Z</time>
      </trkpt>
      <trkpt lat="44.37526" lon="5.17116">
        <ele>289</ele>
        <time>2021-11-13T13:59:38.991Z</time>
      </trkpt>
      <trkpt lat="44.37522" lon="5.17123">
        <ele>289</ele>
        <time>2021-11-13T13:59:39.991Z</time>
      </trkpt>
      <trkpt lat="44.37519" lon="5.17128">
        <ele>289</ele>
        <time>2021-11-13T13:59:40.992Z</time>
      </trkpt>
      <trkpt lat="44.37515" lon="5.17134">
        <ele>289</ele>
        <time>2021-11-13T13:59:41.991Z</time>
      </trkpt>
      <trkpt lat="44.37511" lon="5.17138">
        <ele>289</ele>
        <time>2021-11-13T13:59:42.991Z</time>
      </trkpt>
      <trkpt lat="44.37508" lon="5.17143">
        <ele>289</ele>
        <time>2021-11-13T13:59:43.991Z</time>
      </trkpt>
      <trkpt lat="44.37504" lon="5.17149">
        <ele>289</ele>
        <time>2021-11-13T13:59:44.992Z</time>
      </trkpt>
      <trkpt lat="44.37499" lon="5.17153">
        <ele>289</ele>
        <time>2021-11-13T13:59:45.991Z</time>
      </trkpt>
      <trkpt lat="44.37494" lon="5.17156">
        <ele>289</ele>
        <time>2021-11-13T13:59:46.991Z</time>
      </trkpt>
      <trkpt lat="44.37489" lon="5.17157">
        <ele>289</ele>
        <time>2021-11-13T13:59:47.991Z</time>
      </trkpt>
      <trkpt lat="44.37484" lon="5.17154">
        <ele>289</ele>
        <time>2021-11-13T13:59:48.992Z</time>
      </trkpt>
      <trkpt lat="44.37479" lon="5.1715">
        <ele>289</ele>
        <time>2021-11-13T13:59:49.991Z</time>
      </trkpt>
      <trkpt lat="44.37474" lon="5.17144">
        <ele>289</ele>
        <time>2021-11-13T13:59:50.992Z</time>
      </trkpt>
      <trkpt lat="44.37471" lon="5.17137">
        <ele>289</ele>
        <time>2021-11-13T13:59:51.992Z</time>
      </trkpt>
      <trkpt lat="44.37467" lon="5.17128">
        <ele>289</ele>
        <time>2021-11-13T13:59:52.991Z</time>
      </trkpt>
      <trkpt lat="44.37465" lon="5.1712">
        <ele>289</ele>
        <time>2021-11-13T13:59:53.991Z</time>
      </trkpt>
      <trkpt lat="44.37463" lon="5.17112">
        <ele>290</ele>
        <time>2021-11-13T13:59:54.991Z</time>
      </trkpt>
      <trkpt lat="44.37461" lon="5.17105">
        <ele>290</ele>
        <time>2021-11-13T13:59:55.991Z</time>
      </trkpt>
      <trkpt lat="44.37459" lon="5.17098">
        <ele>290</ele>
        <time>2021-11-13T13:59:56.991Z</time>
      </trkpt>
      <trkpt lat="44.37457" lon="5.17092">
        <ele>290</ele>
        <time>2021-11-13T13:59:57.992Z</time>
      </trkpt>
      <trkpt lat="44.37455" lon="5.17086">
        <ele>290</ele>
        <time>2021-11-13T13:59:58.992Z</time>
      </trkpt>
      <trkpt lat="44.37454" lon="5.17082">
        <ele>290</ele>
        <time>2021-11-13T13:59:59.991Z</time>
      </trkpt>
      <trkpt lat="44.37451" lon="5.17076">
        <ele>290</ele>
        <time>2021-11-13T14:00:00.992Z</time>
      </trkpt>
      <trkpt lat="44.37449" lon="5.17071">
        <ele>290</ele>
        <time>2021-11-13T14:00:01.992Z</time>
      </trkpt>
      <trkpt lat="44.37446" lon="5.17066">
        <ele>290</ele>
        <time>2021-11-13T14:00:02.991Z</time>
      </trkpt>
      <trkpt lat="44.37443" lon="5.17063">
        <ele>290</ele>
        <time>2021-11-13T14:00:03.991Z</time>
      </trkpt>
      <trkpt lat="44.3744" lon="5.1706">
        <ele>290</ele>
        <time>2021-11-13T14:00:04.991Z</time>
      </trkpt>
      <trkpt lat="44.37437" lon="5.17058">
        <ele>289</ele>
        <time>2021-11-13T14:00:05.992Z</time>
      </trkpt>
      <trkpt lat="44.37433" lon="5.17057">
        <ele>289</ele>
        <time>2021-11-13T14:00:06.992Z</time>
      </trkpt>
      <trkpt lat="44.37429" lon="5.17056">
        <ele>288</ele>
        <time>2021-11-13T14:00:07.991Z</time>
      </trkpt>
      <trkpt lat="44.37426" lon="5.17055">
        <ele>288</ele>
        <time>2021-11-13T14:00:08.992Z</time>
      </trkpt>
      <trkpt lat="44.37422" lon="5.17055">
        <ele>288</ele>
        <time>2021-11-13T14:00:09.992Z</time>
      </trkpt>
      <trkpt lat="44.37418" lon="5.17054">
        <ele>288</ele>
        <time>2021-11-13T14:00:10.992Z</time>
      </trkpt>
      <trkpt lat="44.37414" lon="5.17054">
        <ele>288</ele>
        <time>2021-11-13T14:00:11.991Z</time>
      </trkpt>
      <trkpt lat="44.37411" lon="5.17054">
        <ele>288</ele>
        <time>2021-11-13T14:00:12.991Z</time>
      </trkpt>
      <trkpt lat="44.37408" lon="5.17054">
        <ele>288</ele>
        <time>2021-11-13T14:00:13.991Z</time>
      </trkpt>
      <trkpt lat="44.37405" lon="5.17054">
        <ele>288</ele>
        <time>2021-11-13T14:00:14.991Z</time>
      </trkpt>
      <trkpt lat="44.37402" lon="5.17054">
        <ele>287</ele>
        <time>2021-11-13T14:00:15.992Z</time>
      </trkpt>
      <trkpt lat="44.37398" lon="5.17054">
        <ele>287</ele>
        <time>2021-11-13T14:00:16.991Z</time>
      </trkpt>
      <trkpt lat="44.37395" lon="5.17055">
        <ele>287</ele>
        <time>2021-11-13T14:00:17.992Z</time>
      </trkpt>
      <trkpt lat="44.37392" lon="5.17055">
        <ele>287</ele>
        <time>2021-11-13T14:00:18.992Z</time>
      </trkpt>
      <trkpt lat="44.37389" lon="5.17055">
        <ele>287</ele>
        <time>2021-11-13T14:00:19.992Z</time>
      </trkpt>
      <trkpt lat="44.37386" lon="5.17055">
        <ele>287</ele>
        <time>2021-11-13T14:00:20.992Z</time>
      </trkpt>
      <trkpt lat="44.37383" lon="5.17055">
        <ele>287</ele>
        <time>2021-11-13T14:00:21.992Z</time>
      </trkpt>
      <trkpt lat="44.3738" lon="5.17055">
        <ele>287</ele>
        <time>2021-11-13T14:00:22.991Z</time>
      </trkpt>
      <trkpt lat="44.37376" lon="5.17055">
        <ele>287</ele>
        <time>2021-11-13T14:00:23.992Z</time>
      </trkpt>
      <trkpt lat="44.37373" lon="5.17055">
        <ele>287</ele>
        <time>2021-11-13T14:00:24.991Z</time>
      </trkpt>
      <trkpt lat="44.3737" lon="5.17056">
        <ele>287</ele>
        <time>2021-11-13T14:00:25.991Z</time>
      </trkpt>
      <trkpt lat="44.37367" lon="5.17059">
        <ele>287</ele>
        <time>2021-11-13T14:00:26.992Z</time>
      </trkpt>
      <trkpt lat="44.37365" lon="5.17063">
        <ele>287</ele>
        <time>2021-11-13T14:00:27.992Z</time>
      </trkpt>
      <trkpt lat="44.37363" lon="5.17067">
        <ele>287</ele>
        <time>2021-11-13T14:00:28.992Z</time>
      </trkpt>
      <trkpt lat="44.37362" lon="5.17072">
        <ele>287</ele>
        <time>2021-11-13T14:00:29.992Z</time>
      </trkpt>
      <trkpt lat="44.37362" lon="5.17078">
        <ele>287</ele>
        <time>2021-11-13T14:00:30.992Z</time>
      </trkpt>
      <trkpt lat="44.37363" lon="5.17083">
        <ele>287</ele>
        <time>2021-11-13T14:00:31.991Z</time>
      </trkpt>
      <trkpt lat="44.37363" lon="5.17089">
        <ele>287</ele>
        <time>2021-11-13T14:00:32.991Z</time>
      </trkpt>
      <trkpt lat="44.37364" lon="5.17096">
        <ele>287</ele>
        <time>2021-11-13T14:00:33.991Z</time>
      </trkpt>
      <trkpt lat="44.37365" lon="5.17102">
        <ele>286</ele>
        <time>2021-11-13T14:00:34.991Z</time>
      </trkpt>
      <trkpt lat="44.37366" lon="5.17108">
        <ele>286</ele>
        <time>2021-11-13T14:00:35.992Z</time>
      </trkpt>
      <trkpt lat="44.37366" lon="5.17114">
        <ele>286</ele>
        <time>2021-11-13T14:00:36.991Z</time>
      </trkpt>
      <trkpt lat="44.37367" lon="5.17121">
        <ele>286</ele>
        <time>2021-11-13T14:00:37.991Z</time>
      </trkpt>
      <trkpt lat="44.37366" lon="5.17127">
        <ele>286</ele>
        <time>2021-11-13T14:00:38.991Z</time>
      </trkpt>
      <trkpt lat="44.37366" lon="5.17133">
        <ele>286</ele>
        <time>2021-11-13T14:00:39.991Z</time>
      </trkpt>
      <trkpt lat="44.37366" lon="5.17139">
        <ele>285</ele>
        <time>2021-11-13T14:00:40.991Z</time>
      </trkpt>
      <trkpt lat="44.37367" lon="5.17145">
        <ele>286</ele>
        <time>2021-11-13T14:00:41.991Z</time>
      </trkpt>
      <trkpt lat="44.37367" lon="5.17152">
        <ele>286</ele>
        <time>2021-11-13T14:00:42.991Z</time>
      </trkpt>
      <trkpt lat="44.37368" lon="5.17158">
        <ele>286</ele>
        <time>2021-11-13T14:00:43.991Z</time>
      </trkpt>
      <trkpt lat="44.37369" lon="5.17164">
        <ele>286</ele>
        <time>2021-11-13T14:00:44.991Z</time>
      </trkpt>
      <trkpt lat="44.3737" lon="5.17169">
        <ele>286</ele>
        <time>2021-11-13T14:00:45.992Z</time>
      </trkpt>
      <trkpt lat="44.37372" lon="5.17175">
        <ele>287</ele>
        <time>2021-11-13T14:00:46.991Z</time>
      </trkpt>
      <trkpt lat="44.37373" lon="5.1718">
        <ele>287</ele>
        <time>2021-11-13T14:00:47.992Z</time>
      </trkpt>
      <trkpt lat="44.37374" lon="5.17185">
        <ele>287</ele>
        <time>2021-11-13T14:00:48.991Z</time>
      </trkpt>
      <trkpt lat="44.37375" lon="5.1719">
        <ele>286</ele>
        <time>2021-11-13T14:00:49.992Z</time>
      </trkpt>
      <trkpt lat="44.37375" lon="5.17195">
        <ele>286</ele>
        <time>2021-11-13T14:00:50.992Z</time>
      </trkpt>
      <trkpt lat="44.37376" lon="5.172">
        <ele>286</ele>
        <time>2021-11-13T14:00:51.991Z</time>
      </trkpt>
      <trkpt lat="44.37378" lon="5.17205">
        <ele>286</ele>
        <time>2021-11-13T14:00:52.991Z</time>
      </trkpt>
      <trkpt lat="44.37378" lon="5.1721">
        <ele>287</ele>
        <time>2021-11-13T14:00:53.992Z</time>
      </trkpt>
      <trkpt lat="44.37379" lon="5.17215">
        <ele>287</ele>
        <time>2021-11-13T14:00:54.991Z</time>
      </trkpt>
      <trkpt lat="44.3738" lon="5.17221">
        <ele>287</ele>
        <time>2021-11-13T14:00:55.992Z</time>
      </trkpt>
      <trkpt lat="44.37381" lon="5.17225">
        <ele>288</ele>
        <time>2021-11-13T14:00:56.992Z</time>
      </trkpt>
      <trkpt lat="44.37381" lon="5.17229">
        <ele>288</ele>
        <time>2021-11-13T14:00:57.991Z</time>
      </trkpt>
      <trkpt lat="44.37382" lon="5.17233">
        <ele>289</ele>
        <time>2021-11-13T14:00:58.992Z</time>
      </trkpt>
      <trkpt lat="44.37382" lon="5.17236">
        <ele>289</ele>
        <time>2021-11-13T14:00:59.991Z</time>
      </trkpt>
      <trkpt lat="44.37382" lon="5.17239">
        <ele>289</ele>
        <time>2021-11-13T14:01:00.991Z</time>
      </trkpt>
      <trkpt lat="44.37382" lon="5.17241">
        <ele>289</ele>
        <time>2021-11-13T14:01:01.991Z</time>
      </trkpt>
      <trkpt lat="44.37383" lon="5.17241">
        <ele>289</ele>
        <time>2021-11-13T14:01:02.991Z</time>
      </trkpt>
      <trkpt lat="44.37383" lon="5.17242">
        <ele>289</ele>
        <time>2021-11-13T14:01:03.991Z</time>
      </trkpt>
      <trkpt lat="44.37383" lon="5.17242">
        <ele>288</ele>
        <time>2021-11-13T14:01:04.992Z</time>
      </trkpt>
      <trkpt lat="44.37383" lon="5.17242">
        <ele>288</ele>
        <time>2021-11-13T14:01:05.991Z</time>
      </trkpt>
      <trkpt lat="44.37384" lon="5.17257">
        <ele>290</ele>
        <time>2021-11-13T14:01:06.992Z</time>
      </trkpt>
      <trkpt lat="44.37383" lon="5.17263">
        <ele>290</ele>
        <time>2021-11-13T14:01:07.991Z</time>
      </trkpt>
      <trkpt lat="44.37383" lon="5.17269">
        <ele>289</ele>
        <time>2021-11-13T14:01:08.991Z</time>
      </trkpt>
      <trkpt lat="44.37383" lon="5.17274">
        <ele>289</ele>
        <time>2021-11-13T14:01:09.991Z</time>
      </trkpt>
      <trkpt lat="44.37383" lon="5.17281">
        <ele>290</ele>
        <time>2021-11-13T14:01:10.991Z</time>
      </trkpt>
      <trkpt lat="44.37383" lon="5.17287">
        <ele>289</ele>
        <time>2021-11-13T14:01:11.991Z</time>
      </trkpt>
      <trkpt lat="44.37382" lon="5.17293">
        <ele>289</ele>
        <time>2021-11-13T14:01:12.991Z</time>
      </trkpt>
      <trkpt lat="44.37382" lon="5.17297">
        <ele>289</ele>
        <time>2021-11-13T14:01:13.992Z</time>
      </trkpt>
      <trkpt lat="44.37382" lon="5.17301">
        <ele>288</ele>
        <time>2021-11-13T14:01:14.992Z</time>
      </trkpt>
      <trkpt lat="44.37382" lon="5.17306">
        <ele>288</ele>
        <time>2021-11-13T14:01:15.991Z</time>
      </trkpt>
      <trkpt lat="44.37383" lon="5.17311">
        <ele>288</ele>
        <time>2021-11-13T14:01:16.991Z</time>
      </trkpt>
      <trkpt lat="44.37384" lon="5.17316">
        <ele>288</ele>
        <time>2021-11-13T14:01:17.991Z</time>
      </trkpt>
      <trkpt lat="44.37385" lon="5.17321">
        <ele>288</ele>
        <time>2021-11-13T14:01:18.992Z</time>
      </trkpt>
      <trkpt lat="44.37386" lon="5.17324">
        <ele>288</ele>
        <time>2021-11-13T14:01:19.991Z</time>
      </trkpt>
      <trkpt lat="44.37388" lon="5.1733">
        <ele>288</ele>
        <time>2021-11-13T14:01:20.991Z</time>
      </trkpt>
      <trkpt lat="44.37389" lon="5.17334">
        <ele>288</ele>
        <time>2021-11-13T14:01:21.991Z</time>
      </trkpt>
      <trkpt lat="44.3739" lon="5.17338">
        <ele>287</ele>
        <time>2021-11-13T14:01:22.991Z</time>
      </trkpt>
      <trkpt lat="44.37391" lon="5.17343">
        <ele>287</ele>
        <time>2021-11-13T14:01:23.991Z</time>
      </trkpt>
      <trkpt lat="44.37393" lon="5.17346">
        <ele>287</ele>
        <time>2021-11-13T14:01:24.992Z</time>
      </trkpt>
      <trkpt lat="44.37395" lon="5.17351">
        <ele>287</ele>
        <time>2021-11-13T14:01:25.992Z</time>
      </trkpt>
      <trkpt lat="44.37397" lon="5.17356">
        <ele>287</ele>
        <time>2021-11-13T14:01:26.991Z</time>
      </trkpt>
      <trkpt lat="44.37399" lon="5.17359">
        <ele>288</ele>
        <time>2021-11-13T14:01:27.991Z</time>
      </trkpt>
      <trkpt lat="44.374" lon="5.17362">
        <ele>288</ele>
        <time>2021-11-13T14:01:28.992Z</time>
      </trkpt>
      <trkpt lat="44.37401" lon="5.17365">
        <ele>288</ele>
        <time>2021-11-13T14:01:29.992Z</time>
      </trkpt>
      <trkpt lat="44.37403" lon="5.17369">
        <ele>289</ele>
        <time>2021-11-13T14:01:30.992Z</time>
      </trkpt>
      <trkpt lat="44.37405" lon="5.17373">
        <ele>289</ele>
        <time>2021-11-13T14:01:31.991Z</time>
      </trkpt>
      <trkpt lat="44.37408" lon="5.17376">
        <ele>290</ele>
        <time>2021-11-13T14:01:32.992Z</time>
      </trkpt>
      <trkpt lat="44.37409" lon="5.17378">
        <ele>290</ele>
        <time>2021-11-13T14:01:33.992Z</time>
      </trkpt>
      <trkpt lat="44.37411" lon="5.17381">
        <ele>290</ele>
        <time>2021-11-13T14:01:34.992Z</time>
      </trkpt>
      <trkpt lat="44.37413" lon="5.17385">
        <ele>291</ele>
        <time>2021-11-13T14:01:35.991Z</time>
      </trkpt>
      <trkpt lat="44.37414" lon="5.17388">
        <ele>291</ele>
        <time>2021-11-13T14:01:36.992Z</time>
      </trkpt>
      <trkpt lat="44.37416" lon="5.17391">
        <ele>291</ele>
        <time>2021-11-13T14:01:37.991Z</time>
      </trkpt>
      <trkpt lat="44.37417" lon="5.17393">
        <ele>292</ele>
        <time>2021-11-13T14:01:38.992Z</time>
      </trkpt>
      <trkpt lat="44.37419" lon="5.17396">
        <ele>292</ele>
        <time>2021-11-13T14:01:39.992Z</time>
      </trkpt>
      <trkpt lat="44.3742" lon="5.17399">
        <ele>292</ele>
        <time>2021-11-13T14:01:40.992Z</time>
      </trkpt>
      <trkpt lat="44.37422" lon="5.17402">
        <ele>292</ele>
        <time>2021-11-13T14:01:41.992Z</time>
      </trkpt>
      <trkpt lat="44.37423" lon="5.17404">
        <ele>292</ele>
        <time>2021-11-13T14:01:42.992Z</time>
      </trkpt>
      <trkpt lat="44.37425" lon="5.17406">
        <ele>293</ele>
        <time>2021-11-13T14:01:43.991Z</time>
      </trkpt>
      <trkpt lat="44.37427" lon="5.1741">
        <ele>293</ele>
        <time>2021-11-13T14:01:44.992Z</time>
      </trkpt>
      <trkpt lat="44.3743" lon="5.17413">
        <ele>293</ele>
        <time>2021-11-13T14:01:45.992Z</time>
      </trkpt>
      <trkpt lat="44.37433" lon="5.17416">
        <ele>293</ele>
        <time>2021-11-13T14:01:46.992Z</time>
      </trkpt>
      <trkpt lat="44.37436" lon="5.17419">
        <ele>293</ele>
        <time>2021-11-13T14:01:47.992Z</time>
      </trkpt>
      <trkpt lat="44.3744" lon="5.17423">
        <ele>293</ele>
        <time>2021-11-13T14:01:48.991Z</time>
      </trkpt>
      <trkpt lat="44.37445" lon="5.17426">
        <ele>293</ele>
        <time>2021-11-13T14:01:49.991Z</time>
      </trkpt>
      <trkpt lat="44.37449" lon="5.17429">
        <ele>293</ele>
        <time>2021-11-13T14:01:50.992Z</time>
      </trkpt>
      <trkpt lat="44.37454" lon="5.17431">
        <ele>293</ele>
        <time>2021-11-13T14:01:51.991Z</time>
      </trkpt>
      <trkpt lat="44.37457" lon="5.17431">
        <ele>293</ele>
        <time>2021-11-13T14:01:52.991Z</time>
      </trkpt>
      <trkpt lat="44.37464" lon="5.1743">
        <ele>293</ele>
        <time>2021-11-13T14:01:53.992Z</time>
      </trkpt>
      <trkpt lat="44.37471" lon="5.1743">
        <ele>294</ele>
        <time>2021-11-13T14:01:54.992Z</time>
      </trkpt>
      <trkpt lat="44.37478" lon="5.17429">
        <ele>294</ele>
        <time>2021-11-13T14:01:55.992Z</time>
      </trkpt>
      <trkpt lat="44.37484" lon="5.17429">
        <ele>293</ele>
        <time>2021-11-13T14:01:56.992Z</time>
      </trkpt>
      <trkpt lat="44.37491" lon="5.17427">
        <ele>293</ele>
        <time>2021-11-13T14:01:57.992Z</time>
      </trkpt>
      <trkpt lat="44.37499" lon="5.17426">
        <ele>293</ele>
        <time>2021-11-13T14:01:58.991Z</time>
      </trkpt>
      <trkpt lat="44.37506" lon="5.17425">
        <ele>292</ele>
        <time>2021-11-13T14:01:59.991Z</time>
      </trkpt>
      <trkpt lat="44.37511" lon="5.17426">
        <ele>292</ele>
        <time>2021-11-13T14:02:00.991Z</time>
      </trkpt>
      <trkpt lat="44.37516" lon="5.17426">
        <ele>291</ele>
        <time>2021-11-13T14:02:01.992Z</time>
      </trkpt>
      <trkpt lat="44.3752" lon="5.17427">
        <ele>290</ele>
        <time>2021-11-13T14:02:02.992Z</time>
      </trkpt>
      <trkpt lat="44.37525" lon="5.17427">
        <ele>290</ele>
        <time>2021-11-13T14:02:03.992Z</time>
      </trkpt>
      <trkpt lat="44.37531" lon="5.17427">
        <ele>290</ele>
        <time>2021-11-13T14:02:04.992Z</time>
      </trkpt>
      <trkpt lat="44.37535" lon="5.17427">
        <ele>290</ele>
        <time>2021-11-13T14:02:05.991Z</time>
      </trkpt>
      <trkpt lat="44.37539" lon="5.17427">
        <ele>289</ele>
        <time>2021-11-13T14:02:06.991Z</time>
      </trkpt>
      <trkpt lat="44.37543" lon="5.17427">
        <ele>289</ele>
        <time>2021-11-13T14:02:07.992Z</time>
      </trkpt>
      <trkpt lat="44.37549" lon="5.17427">
        <ele>289</ele>
        <time>2021-11-13T14:02:08.991Z</time>
      </trkpt>
      <trkpt lat="44.37553" lon="5.17427">
        <ele>288</ele>
        <time>2021-11-13T14:02:09.992Z</time>
      </trkpt>
      <trkpt lat="44.37558" lon="5.17428">
        <ele>288</ele>
        <time>2021-11-13T14:02:10.992Z</time>
      </trkpt>
      <trkpt lat="44.37562" lon="5.17428">
        <ele>287</ele>
        <time>2021-11-13T14:02:11.992Z</time>
      </trkpt>
      <trkpt lat="44.37566" lon="5.17428">
        <ele>287</ele>
        <time>2021-11-13T14:02:12.991Z</time>
      </trkpt>
      <trkpt lat="44.37572" lon="5.17429">
        <ele>287</ele>
        <time>2021-11-13T14:02:13.992Z</time>
      </trkpt>
      <trkpt lat="44.37575" lon="5.17429">
        <ele>286</ele>
        <time>2021-11-13T14:02:14.991Z</time>
      </trkpt>
      <trkpt lat="44.37581" lon="5.1743">
        <ele>286</ele>
        <time>2021-11-13T14:02:15.992Z</time>
      </trkpt>
      <trkpt lat="44.37585" lon="5.1743">
        <ele>286</ele>
        <time>2021-11-13T14:02:16.992Z</time>
      </trkpt>
      <trkpt lat="44.37589" lon="5.1743">
        <ele>285</ele>
        <time>2021-11-13T14:02:17.992Z</time>
      </trkpt>
      <trkpt lat="44.37594" lon="5.1743">
        <ele>285</ele>
        <time>2021-11-13T14:02:18.992Z</time>
      </trkpt>
      <trkpt lat="44.376" lon="5.1743">
        <ele>284</ele>
        <time>2021-11-13T14:02:19.992Z</time>
      </trkpt>
      <trkpt lat="44.37604" lon="5.1743">
        <ele>284</ele>
        <time>2021-11-13T14:02:20.991Z</time>
      </trkpt>
      <trkpt lat="44.37609" lon="5.17429">
        <ele>283</ele>
        <time>2021-11-13T14:02:21.992Z</time>
      </trkpt>
      <trkpt lat="44.37614" lon="5.17428">
        <ele>283</ele>
        <time>2021-11-13T14:02:22.992Z</time>
      </trkpt>
      <trkpt lat="44.37619" lon="5.17427">
        <ele>283</ele>
        <time>2021-11-13T14:02:23.991Z</time>
      </trkpt>
      <trkpt lat="44.37624" lon="5.17425">
        <ele>283</ele>
        <time>2021-11-13T14:02:24.992Z</time>
      </trkpt>
      <trkpt lat="44.37629" lon="5.17422">
        <ele>283</ele>
        <time>2021-11-13T14:02:25.992Z</time>
      </trkpt>
      <trkpt lat="44.37632" lon="5.1742">
        <ele>283</ele>
        <time>2021-11-13T14:02:26.992Z</time>
      </trkpt>
      <trkpt lat="44.37638" lon="5.17417">
        <ele>282</ele>
        <time>2021-11-13T14:02:27.992Z</time>
      </trkpt>
      <trkpt lat="44.37642" lon="5.17414">
        <ele>282</ele>
        <time>2021-11-13T14:02:28.991Z</time>
      </trkpt>
      <trkpt lat="44.37646" lon="5.17411">
        <ele>282</ele>
        <time>2021-11-13T14:02:29.992Z</time>
      </trkpt>
      <trkpt lat="44.37649" lon="5.17408">
        <ele>281</ele>
        <time>2021-11-13T14:02:30.992Z</time>
      </trkpt>
      <trkpt lat="44.37653" lon="5.17403">
        <ele>281</ele>
        <time>2021-11-13T14:02:31.992Z</time>
      </trkpt>
      <trkpt lat="44.37657" lon="5.174">
        <ele>281</ele>
        <time>2021-11-13T14:02:32.991Z</time>
      </trkpt>
      <trkpt lat="44.3766" lon="5.17396">
        <ele>281</ele>
        <time>2021-11-13T14:02:33.992Z</time>
      </trkpt>
      <trkpt lat="44.37663" lon="5.17393">
        <ele>281</ele>
        <time>2021-11-13T14:02:34.992Z</time>
      </trkpt>
      <trkpt lat="44.37666" lon="5.17389">
        <ele>281</ele>
        <time>2021-11-13T14:02:35.992Z</time>
      </trkpt>
      <trkpt lat="44.3767" lon="5.17384">
        <ele>280</ele>
        <time>2021-11-13T14:02:36.992Z</time>
      </trkpt>
      <trkpt lat="44.37673" lon="5.17381">
        <ele>280</ele>
        <time>2021-11-13T14:02:37.992Z</time>
      </trkpt>
      <trkpt lat="44.37677" lon="5.17378">
        <ele>280</ele>
        <time>2021-11-13T14:02:38.992Z</time>
      </trkpt>
      <trkpt lat="44.3768" lon="5.17375">
        <ele>280</ele>
        <time>2021-11-13T14:02:39.991Z</time>
      </trkpt>
      <trkpt lat="44.37684" lon="5.17372">
        <ele>280</ele>
        <time>2021-11-13T14:02:40.991Z</time>
      </trkpt>
      <trkpt lat="44.37687" lon="5.17369">
        <ele>280</ele>
        <time>2021-11-13T14:02:41.991Z</time>
      </trkpt>
      <trkpt lat="44.37692" lon="5.17365">
        <ele>280</ele>
        <time>2021-11-13T14:02:42.992Z</time>
      </trkpt>
      <trkpt lat="44.37695" lon="5.17362">
        <ele>281</ele>
        <time>2021-11-13T14:02:43.991Z</time>
      </trkpt>
      <trkpt lat="44.37698" lon="5.1736">
        <ele>281</ele>
        <time>2021-11-13T14:02:44.991Z</time>
      </trkpt>
      <trkpt lat="44.37703" lon="5.17357">
        <ele>281</ele>
        <time>2021-11-13T14:02:45.991Z</time>
      </trkpt>
      <trkpt lat="44.37706" lon="5.17354">
        <ele>281</ele>
        <time>2021-11-13T14:02:46.992Z</time>
      </trkpt>
      <trkpt lat="44.37709" lon="5.17352">
        <ele>281</ele>
        <time>2021-11-13T14:02:47.992Z</time>
      </trkpt>
      <trkpt lat="44.37713" lon="5.17349">
        <ele>281</ele>
        <time>2021-11-13T14:02:48.991Z</time>
      </trkpt>
      <trkpt lat="44.37717" lon="5.17346">
        <ele>282</ele>
        <time>2021-11-13T14:02:49.992Z</time>
      </trkpt>
      <trkpt lat="44.3772" lon="5.17343">
        <ele>282</ele>
        <time>2021-11-13T14:02:50.991Z</time>
      </trkpt>
      <trkpt lat="44.37724" lon="5.1734">
        <ele>282</ele>
        <time>2021-11-13T14:02:51.991Z</time>
      </trkpt>
      <trkpt lat="44.37728" lon="5.17338">
        <ele>282</ele>
        <time>2021-11-13T14:02:52.992Z</time>
      </trkpt>
      <trkpt lat="44.37731" lon="5.17335">
        <ele>282</ele>
        <time>2021-11-13T14:02:53.991Z</time>
      </trkpt>
      <trkpt lat="44.37735" lon="5.17333">
        <ele>282</ele>
        <time>2021-11-13T14:02:54.992Z</time>
      </trkpt>
      <trkpt lat="44.37739" lon="5.1733">
        <ele>282</ele>
        <time>2021-11-13T14:02:55.992Z</time>
      </trkpt>
      <trkpt lat="44.37742" lon="5.17328">
        <ele>282</ele>
        <time>2021-11-13T14:02:56.992Z</time>
      </trkpt>
      <trkpt lat="44.37746" lon="5.17326">
        <ele>282</ele>
        <time>2021-11-13T14:02:57.991Z</time>
      </trkpt>
      <trkpt lat="44.37749" lon="5.17323">
        <ele>282</ele>
        <time>2021-11-13T14:02:58.991Z</time>
      </trkpt>
      <trkpt lat="44.37752" lon="5.17321">
        <ele>282</ele>
        <time>2021-11-13T14:02:59.991Z</time>
      </trkpt>
      <trkpt lat="44.37756" lon="5.17319">
        <ele>282</ele>
        <time>2021-11-13T14:03:00.991Z</time>
      </trkpt>
      <trkpt lat="44.37759" lon="5.17318">
        <ele>282</ele>
        <time>2021-11-13T14:03:01.992Z</time>
      </trkpt>
      <trkpt lat="44.37762" lon="5.17316">
        <ele>282</ele>
        <time>2021-11-13T14:03:02.992Z</time>
      </trkpt>
      <trkpt lat="44.37765" lon="5.17314">
        <ele>281</ele>
        <time>2021-11-13T14:03:03.992Z</time>
      </trkpt>
      <trkpt lat="44.37769" lon="5.17313">
        <ele>281</ele>
        <time>2021-11-13T14:03:04.991Z</time>
      </trkpt>
      <trkpt lat="44.37772" lon="5.17311">
        <ele>281</ele>
        <time>2021-11-13T14:03:05.991Z</time>
      </trkpt>
      <trkpt lat="44.37776" lon="5.17309">
        <ele>281</ele>
        <time>2021-11-13T14:03:06.991Z</time>
      </trkpt>
      <trkpt lat="44.37779" lon="5.17308">
        <ele>281</ele>
        <time>2021-11-13T14:03:07.992Z</time>
      </trkpt>
      <trkpt lat="44.37784" lon="5.17306">
        <ele>281</ele>
        <time>2021-11-13T14:03:08.991Z</time>
      </trkpt>
      <trkpt lat="44.37787" lon="5.17305">
        <ele>282</ele>
        <time>2021-11-13T14:03:09.991Z</time>
      </trkpt>
      <trkpt lat="44.37791" lon="5.17304">
        <ele>282</ele>
        <time>2021-11-13T14:03:10.992Z</time>
      </trkpt>
      <trkpt lat="44.37795" lon="5.17304">
        <ele>281</ele>
        <time>2021-11-13T14:03:11.992Z</time>
      </trkpt>
      <trkpt lat="44.37799" lon="5.17303">
        <ele>282</ele>
        <time>2021-11-13T14:03:12.991Z</time>
      </trkpt>
      <trkpt lat="44.37803" lon="5.17303">
        <ele>283</ele>
        <time>2021-11-13T14:03:13.992Z</time>
      </trkpt>
      <trkpt lat="44.37807" lon="5.17303">
        <ele>283</ele>
        <time>2021-11-13T14:03:14.991Z</time>
      </trkpt>
      <trkpt lat="44.37812" lon="5.17303">
        <ele>283</ele>
        <time>2021-11-13T14:03:15.992Z</time>
      </trkpt>
      <trkpt lat="44.37815" lon="5.17303">
        <ele>283</ele>
        <time>2021-11-13T14:03:16.992Z</time>
      </trkpt>
      <trkpt lat="44.3782" lon="5.17303">
        <ele>283</ele>
        <time>2021-11-13T14:03:17.992Z</time>
      </trkpt>
      <trkpt lat="44.37824" lon="5.17303">
        <ele>283</ele>
        <time>2021-11-13T14:03:18.991Z</time>
      </trkpt>
      <trkpt lat="44.37828" lon="5.17303">
        <ele>283</ele>
        <time>2021-11-13T14:03:19.991Z</time>
      </trkpt>
      <trkpt lat="44.37832" lon="5.17303">
        <ele>284</ele>
        <time>2021-11-13T14:03:20.992Z</time>
      </trkpt>
      <trkpt lat="44.37836" lon="5.17303">
        <ele>284</ele>
        <time>2021-11-13T14:03:21.992Z</time>
      </trkpt>
      <trkpt lat="44.3784" lon="5.17303">
        <ele>283</ele>
        <time>2021-11-13T14:03:22.991Z</time>
      </trkpt>
      <trkpt lat="44.37845" lon="5.17303">
        <ele>283</ele>
        <time>2021-11-13T14:03:23.991Z</time>
      </trkpt>
      <trkpt lat="44.37849" lon="5.17303">
        <ele>283</ele>
        <time>2021-11-13T14:03:24.991Z</time>
      </trkpt>
      <trkpt lat="44.37854" lon="5.17303">
        <ele>283</ele>
        <time>2021-11-13T14:03:25.991Z</time>
      </trkpt>
      <trkpt lat="44.37858" lon="5.17303">
        <ele>283</ele>
        <time>2021-11-13T14:03:26.991Z</time>
      </trkpt>
      <trkpt lat="44.37862" lon="5.17303">
        <ele>283</ele>
        <time>2021-11-13T14:03:27.991Z</time>
      </trkpt>
      <trkpt lat="44.37867" lon="5.17302">
        <ele>283</ele>
        <time>2021-11-13T14:03:28.992Z</time>
      </trkpt>
      <trkpt lat="44.37872" lon="5.17302">
        <ele>283</ele>
        <time>2021-11-13T14:03:29.992Z</time>
      </trkpt>
      <trkpt lat="44.37876" lon="5.17302">
        <ele>282</ele>
        <time>2021-11-13T14:03:30.991Z</time>
      </trkpt>
      <trkpt lat="44.3788" lon="5.17302">
        <ele>282</ele>
        <time>2021-11-13T14:03:31.992Z</time>
      </trkpt>
      <trkpt lat="44.37886" lon="5.17303">
        <ele>283</ele>
        <time>2021-11-13T14:03:32.992Z</time>
      </trkpt>
      <trkpt lat="44.3789" lon="5.17304">
        <ele>283</ele>
        <time>2021-11-13T14:03:33.992Z</time>
      </trkpt>
      <trkpt lat="44.37894" lon="5.17305">
        <ele>283</ele>
        <time>2021-11-13T14:03:34.992Z</time>
      </trkpt>
      <trkpt lat="44.37899" lon="5.17307">
        <ele>283</ele>
        <time>2021-11-13T14:03:35.991Z</time>
      </trkpt>
      <trkpt lat="44.37903" lon="5.17309">
        <ele>283</ele>
        <time>2021-11-13T14:03:36.991Z</time>
      </trkpt>
      <trkpt lat="44.37908" lon="5.17311">
        <ele>284</ele>
        <time>2021-11-13T14:03:37.991Z</time>
      </trkpt>
      <trkpt lat="44.37911" lon="5.17313">
        <ele>284</ele>
        <time>2021-11-13T14:03:38.992Z</time>
      </trkpt>
      <trkpt lat="44.37915" lon="5.17315">
        <ele>284</ele>
        <time>2021-11-13T14:03:39.992Z</time>
      </trkpt>
      <trkpt lat="44.37919" lon="5.17317">
        <ele>284</ele>
        <time>2021-11-13T14:03:40.992Z</time>
      </trkpt>
      <trkpt lat="44.37924" lon="5.17318">
        <ele>285</ele>
        <time>2021-11-13T14:03:41.992Z</time>
      </trkpt>
      <trkpt lat="44.37928" lon="5.1732">
        <ele>285</ele>
        <time>2021-11-13T14:03:42.991Z</time>
      </trkpt>
      <trkpt lat="44.37932" lon="5.17322">
        <ele>285</ele>
        <time>2021-11-13T14:03:43.992Z</time>
      </trkpt>
      <trkpt lat="44.37936" lon="5.17324">
        <ele>285</ele>
        <time>2021-11-13T14:03:44.992Z</time>
      </trkpt>
      <trkpt lat="44.37941" lon="5.17325">
        <ele>285</ele>
        <time>2021-11-13T14:03:45.992Z</time>
      </trkpt>
      <trkpt lat="44.37945" lon="5.17327">
        <ele>285</ele>
        <time>2021-11-13T14:03:46.991Z</time>
      </trkpt>
      <trkpt lat="44.37949" lon="5.17328">
        <ele>285</ele>
        <time>2021-11-13T14:03:47.992Z</time>
      </trkpt>
      <trkpt lat="44.37953" lon="5.17329">
        <ele>285</ele>
        <time>2021-11-13T14:03:48.991Z</time>
      </trkpt>
      <trkpt lat="44.37957" lon="5.1733">
        <ele>285</ele>
        <time>2021-11-13T14:03:49.991Z</time>
      </trkpt>
      <trkpt lat="44.37962" lon="5.1733">
        <ele>285</ele>
        <time>2021-11-13T14:03:50.992Z</time>
      </trkpt>
      <trkpt lat="44.37966" lon="5.17331">
        <ele>285</ele>
        <time>2021-11-13T14:03:51.991Z</time>
      </trkpt>
      <trkpt lat="44.3797" lon="5.17332">
        <ele>285</ele>
        <time>2021-11-13T14:03:52.992Z</time>
      </trkpt>
      <trkpt lat="44.37975" lon="5.17332">
        <ele>286</ele>
        <time>2021-11-13T14:03:53.991Z</time>
      </trkpt>
      <trkpt lat="44.37979" lon="5.17333">
        <ele>286</ele>
        <time>2021-11-13T14:03:54.992Z</time>
      </trkpt>
      <trkpt lat="44.37983" lon="5.17333">
        <ele>286</ele>
        <time>2021-11-13T14:03:55.992Z</time>
      </trkpt>
      <trkpt lat="44.37986" lon="5.17332">
        <ele>287</ele>
        <time>2021-11-13T14:03:56.991Z</time>
      </trkpt>
      <trkpt lat="44.3799" lon="5.17332">
        <ele>287</ele>
        <time>2021-11-13T14:03:57.992Z</time>
      </trkpt>
      <trkpt lat="44.37994" lon="5.17331">
        <ele>287</ele>
        <time>2021-11-13T14:03:58.992Z</time>
      </trkpt>
      <trkpt lat="44.37998" lon="5.1733">
        <ele>287</ele>
        <time>2021-11-13T14:03:59.992Z</time>
      </trkpt>
      <trkpt lat="44.38002" lon="5.17329">
        <ele>287</ele>
        <time>2021-11-13T14:04:00.992Z</time>
      </trkpt>
      <trkpt lat="44.38007" lon="5.17328">
        <ele>287</ele>
        <time>2021-11-13T14:04:01.992Z</time>
      </trkpt>
      <trkpt lat="44.38011" lon="5.17326">
        <ele>287</ele>
        <time>2021-11-13T14:04:02.992Z</time>
      </trkpt>
      <trkpt lat="44.38015" lon="5.17325">
        <ele>288</ele>
        <time>2021-11-13T14:04:03.991Z</time>
      </trkpt>
      <trkpt lat="44.38019" lon="5.17324">
        <ele>288</ele>
        <time>2021-11-13T14:04:04.992Z</time>
      </trkpt>
      <trkpt lat="44.38023" lon="5.17322">
        <ele>288</ele>
        <time>2021-11-13T14:04:05.991Z</time>
      </trkpt>
      <trkpt lat="44.38027" lon="5.17321">
        <ele>288</ele>
        <time>2021-11-13T14:04:06.991Z</time>
      </trkpt>
      <trkpt lat="44.38031" lon="5.17319">
        <ele>288</ele>
        <time>2021-11-13T14:04:07.992Z</time>
      </trkpt>
      <trkpt lat="44.38036" lon="5.17318">
        <ele>288</ele>
        <time>2021-11-13T14:04:08.991Z</time>
      </trkpt>
      <trkpt lat="44.3804" lon="5.17316">
        <ele>288</ele>
        <time>2021-11-13T14:04:09.992Z</time>
      </trkpt>
      <trkpt lat="44.38044" lon="5.17314">
        <ele>288</ele>
        <time>2021-11-13T14:04:10.992Z</time>
      </trkpt>
      <trkpt lat="44.38048" lon="5.17311">
        <ele>288</ele>
        <time>2021-11-13T14:04:11.991Z</time>
      </trkpt>
      <trkpt lat="44.38052" lon="5.17309">
        <ele>288</ele>
        <time>2021-11-13T14:04:12.991Z</time>
      </trkpt>
      <trkpt lat="44.38056" lon="5.17307">
        <ele>288</ele>
        <time>2021-11-13T14:04:13.992Z</time>
      </trkpt>
      <trkpt lat="44.3806" lon="5.17305">
        <ele>289</ele>
        <time>2021-11-13T14:04:14.992Z</time>
      </trkpt>
      <trkpt lat="44.38064" lon="5.17303">
        <ele>289</ele>
        <time>2021-11-13T14:04:15.992Z</time>
      </trkpt>
      <trkpt lat="44.38068" lon="5.17301">
        <ele>290</ele>
        <time>2021-11-13T14:04:16.992Z</time>
      </trkpt>
      <trkpt lat="44.38072" lon="5.173">
        <ele>291</ele>
        <time>2021-11-13T14:04:17.991Z</time>
      </trkpt>
      <trkpt lat="44.38076" lon="5.17298">
        <ele>291</ele>
        <time>2021-11-13T14:04:18.992Z</time>
      </trkpt>
      <trkpt lat="44.3808" lon="5.17296">
        <ele>291</ele>
        <time>2021-11-13T14:04:19.991Z</time>
      </trkpt>
      <trkpt lat="44.38083" lon="5.17295">
        <ele>291</ele>
        <time>2021-11-13T14:04:20.991Z</time>
      </trkpt>
      <trkpt lat="44.38087" lon="5.17293">
        <ele>291</ele>
        <time>2021-11-13T14:04:21.991Z</time>
      </trkpt>
      <trkpt lat="44.38091" lon="5.17292">
        <ele>291</ele>
        <time>2021-11-13T14:04:22.992Z</time>
      </trkpt>
      <trkpt lat="44.38094" lon="5.1729">
        <ele>291</ele>
        <time>2021-11-13T14:04:23.991Z</time>
      </trkpt>
      <trkpt lat="44.38098" lon="5.17288">
        <ele>290</ele>
        <time>2021-11-13T14:04:24.992Z</time>
      </trkpt>
      <trkpt lat="44.38102" lon="5.17287">
        <ele>290</ele>
        <time>2021-11-13T14:04:25.992Z</time>
      </trkpt>
      <trkpt lat="44.38106" lon="5.17285">
        <ele>291</ele>
        <time>2021-11-13T14:04:26.991Z</time>
      </trkpt>
      <trkpt lat="44.38111" lon="5.17284">
        <ele>290</ele>
        <time>2021-11-13T14:04:27.991Z</time>
      </trkpt>
      <trkpt lat="44.38115" lon="5.17283">
        <ele>290</ele>
        <time>2021-11-13T14:04:28.992Z</time>
      </trkpt>
      <trkpt lat="44.3812" lon="5.17281">
        <ele>291</ele>
        <time>2021-11-13T14:04:29.991Z</time>
      </trkpt>
      <trkpt lat="44.38124" lon="5.1728">
        <ele>291</ele>
        <time>2021-11-13T14:04:30.991Z</time>
      </trkpt>
      <trkpt lat="44.38128" lon="5.17279">
        <ele>291</ele>
        <time>2021-11-13T14:04:31.992Z</time>
      </trkpt>
      <trkpt lat="44.38131" lon="5.17277">
        <ele>291</ele>
        <time>2021-11-13T14:04:32.992Z</time>
      </trkpt>
      <trkpt lat="44.38135" lon="5.17276">
        <ele>290</ele>
        <time>2021-11-13T14:04:33.992Z</time>
      </trkpt>
      <trkpt lat="44.38138" lon="5.17275">
        <ele>290</ele>
        <time>2021-11-13T14:04:34.992Z</time>
      </trkpt>
      <trkpt lat="44.38142" lon="5.17274">
        <ele>290</ele>
        <time>2021-11-13T14:04:35.991Z</time>
      </trkpt>
      <trkpt lat="44.38145" lon="5.17274">
        <ele>290</ele>
        <time>2021-11-13T14:04:36.991Z</time>
      </trkpt>
      <trkpt lat="44.38149" lon="5.17275">
        <ele>290</ele>
        <time>2021-11-13T14:04:37.992Z</time>
      </trkpt>
      <trkpt lat="44.38152" lon="5.17276">
        <ele>290</ele>
        <time>2021-11-13T14:04:38.991Z</time>
      </trkpt>
      <trkpt lat="44.38156" lon="5.17277">
        <ele>290</ele>
        <time>2021-11-13T14:04:39.991Z</time>
      </trkpt>
      <trkpt lat="44.3816" lon="5.17278">
        <ele>290</ele>
        <time>2021-11-13T14:04:40.992Z</time>
      </trkpt>
      <trkpt lat="44.38165" lon="5.17278">
        <ele>290</ele>
        <time>2021-11-13T14:04:41.991Z</time>
      </trkpt>
      <trkpt lat="44.38169" lon="5.17279">
        <ele>290</ele>
        <time>2021-11-13T14:04:42.992Z</time>
      </trkpt>
      <trkpt lat="44.38173" lon="5.1728">
        <ele>290</ele>
        <time>2021-11-13T14:04:43.991Z</time>
      </trkpt>
      <trkpt lat="44.38176" lon="5.17281">
        <ele>290</ele>
        <time>2021-11-13T14:04:44.992Z</time>
      </trkpt>
      <trkpt lat="44.3818" lon="5.17282">
        <ele>290</ele>
        <time>2021-11-13T14:04:45.991Z</time>
      </trkpt>
      <trkpt lat="44.38183" lon="5.17284">
        <ele>290</ele>
        <time>2021-11-13T14:04:46.992Z</time>
      </trkpt>
      <trkpt lat="44.38186" lon="5.17286">
        <ele>290</ele>
        <time>2021-11-13T14:04:47.992Z</time>
      </trkpt>
      <trkpt lat="44.3819" lon="5.17288">
        <ele>291</ele>
        <time>2021-11-13T14:04:48.991Z</time>
      </trkpt>
      <trkpt lat="44.38193" lon="5.1729">
        <ele>292</ele>
        <time>2021-11-13T14:04:49.992Z</time>
      </trkpt>
      <trkpt lat="44.38197" lon="5.17293">
        <ele>292</ele>
        <time>2021-11-13T14:04:50.991Z</time>
      </trkpt>
      <trkpt lat="44.382" lon="5.17296">
        <ele>292</ele>
        <time>2021-11-13T14:04:51.991Z</time>
      </trkpt>
      <trkpt lat="44.38204" lon="5.17299">
        <ele>292</ele>
        <time>2021-11-13T14:04:52.992Z</time>
      </trkpt>
      <trkpt lat="44.38206" lon="5.17302">
        <ele>291</ele>
        <time>2021-11-13T14:04:53.992Z</time>
      </trkpt>
      <trkpt lat="44.38209" lon="5.17305">
        <ele>291</ele>
        <time>2021-11-13T14:04:54.991Z</time>
      </trkpt>
      <trkpt lat="44.38213" lon="5.17307">
        <ele>291</ele>
        <time>2021-11-13T14:04:55.991Z</time>
      </trkpt>
      <trkpt lat="44.38216" lon="5.1731">
        <ele>291</ele>
        <time>2021-11-13T14:04:56.992Z</time>
      </trkpt>
      <trkpt lat="44.38219" lon="5.17312">
        <ele>291</ele>
        <time>2021-11-13T14:04:57.991Z</time>
      </trkpt>
      <trkpt lat="44.38221" lon="5.17314">
        <ele>291</ele>
        <time>2021-11-13T14:04:58.991Z</time>
      </trkpt>
      <trkpt lat="44.38224" lon="5.17316">
        <ele>291</ele>
        <time>2021-11-13T14:04:59.992Z</time>
      </trkpt>
      <trkpt lat="44.38227" lon="5.17318">
        <ele>291</ele>
        <time>2021-11-13T14:05:00.992Z</time>
      </trkpt>
      <trkpt lat="44.3823" lon="5.17319">
        <ele>291</ele>
        <time>2021-11-13T14:05:01.992Z</time>
      </trkpt>
      <trkpt lat="44.38233" lon="5.17321">
        <ele>291</ele>
        <time>2021-11-13T14:05:02.992Z</time>
      </trkpt>
      <trkpt lat="44.38236" lon="5.17322">
        <ele>291</ele>
        <time>2021-11-13T14:05:03.992Z</time>
      </trkpt>
      <trkpt lat="44.38239" lon="5.17324">
        <ele>291</ele>
        <time>2021-11-13T14:05:04.991Z</time>
      </trkpt>
      <trkpt lat="44.38242" lon="5.17326">
        <ele>291</ele>
        <time>2021-11-13T14:05:05.991Z</time>
      </trkpt>
      <trkpt lat="44.38245" lon="5.17328">
        <ele>291</ele>
        <time>2021-11-13T14:05:06.991Z</time>
      </trkpt>
      <trkpt lat="44.38247" lon="5.1733">
        <ele>291</ele>
        <time>2021-11-13T14:05:07.991Z</time>
      </trkpt>
      <trkpt lat="44.3825" lon="5.17332">
        <ele>292</ele>
        <time>2021-11-13T14:05:08.992Z</time>
      </trkpt>
      <trkpt lat="44.38253" lon="5.17334">
        <ele>292</ele>
        <time>2021-11-13T14:05:09.992Z</time>
      </trkpt>
      <trkpt lat="44.38255" lon="5.17336">
        <ele>292</ele>
        <time>2021-11-13T14:05:10.992Z</time>
      </trkpt>
      <trkpt lat="44.38258" lon="5.17338">
        <ele>293</ele>
        <time>2021-11-13T14:05:11.991Z</time>
      </trkpt>
      <trkpt lat="44.3826" lon="5.1734">
        <ele>293</ele>
        <time>2021-11-13T14:05:12.991Z</time>
      </trkpt>
      <trkpt lat="44.38262" lon="5.17342">
        <ele>293</ele>
        <time>2021-11-13T14:05:13.991Z</time>
      </trkpt>
      <trkpt lat="44.38264" lon="5.17343">
        <ele>293</ele>
        <time>2021-11-13T14:05:14.991Z</time>
      </trkpt>
      <trkpt lat="44.38266" lon="5.17345">
        <ele>294</ele>
        <time>2021-11-13T14:05:15.991Z</time>
      </trkpt>
      <trkpt lat="44.38268" lon="5.17346">
        <ele>294</ele>
        <time>2021-11-13T14:05:16.991Z</time>
      </trkpt>
      <trkpt lat="44.3827" lon="5.17348">
        <ele>294</ele>
        <time>2021-11-13T14:05:17.991Z</time>
      </trkpt>
      <trkpt lat="44.38273" lon="5.17351">
        <ele>294</ele>
        <time>2021-11-13T14:05:18.992Z</time>
      </trkpt>
      <trkpt lat="44.38275" lon="5.17354">
        <ele>294</ele>
        <time>2021-11-13T14:05:19.992Z</time>
      </trkpt>
      <trkpt lat="44.38276" lon="5.17357">
        <ele>294</ele>
        <time>2021-11-13T14:05:20.992Z</time>
      </trkpt>
      <trkpt lat="44.38278" lon="5.1736">
        <ele>294</ele>
        <time>2021-11-13T14:05:21.992Z</time>
      </trkpt>
      <trkpt lat="44.38279" lon="5.17364">
        <ele>295</ele>
        <time>2021-11-13T14:05:22.991Z</time>
      </trkpt>
      <trkpt lat="44.38281" lon="5.17367">
        <ele>294</ele>
        <time>2021-11-13T14:05:23.991Z</time>
      </trkpt>
      <trkpt lat="44.38282" lon="5.17371">
        <ele>294</ele>
        <time>2021-11-13T14:05:24.991Z</time>
      </trkpt>
      <trkpt lat="44.38283" lon="5.17374">
        <ele>294</ele>
        <time>2021-11-13T14:05:25.991Z</time>
      </trkpt>
      <trkpt lat="44.38284" lon="5.17378">
        <ele>294</ele>
        <time>2021-11-13T14:05:26.991Z</time>
      </trkpt>
      <trkpt lat="44.38285" lon="5.17381">
        <ele>295</ele>
        <time>2021-11-13T14:05:27.991Z</time>
      </trkpt>
      <trkpt lat="44.38286" lon="5.17385">
        <ele>295</ele>
        <time>2021-11-13T14:05:28.992Z</time>
      </trkpt>
      <trkpt lat="44.38287" lon="5.17388">
        <ele>296</ele>
        <time>2021-11-13T14:05:29.991Z</time>
      </trkpt>
      <trkpt lat="44.38289" lon="5.17391">
        <ele>296</ele>
        <time>2021-11-13T14:05:30.992Z</time>
      </trkpt>
      <trkpt lat="44.3829" lon="5.17395">
        <ele>297</ele>
        <time>2021-11-13T14:05:31.991Z</time>
      </trkpt>
      <trkpt lat="44.38291" lon="5.17398">
        <ele>297</ele>
        <time>2021-11-13T14:05:32.992Z</time>
      </trkpt>
      <trkpt lat="44.38292" lon="5.17401">
        <ele>298</ele>
        <time>2021-11-13T14:05:33.992Z</time>
      </trkpt>
      <trkpt lat="44.38292" lon="5.17405">
        <ele>299</ele>
        <time>2021-11-13T14:05:34.991Z</time>
      </trkpt>
      <trkpt lat="44.38293" lon="5.17408">
        <ele>299</ele>
        <time>2021-11-13T14:05:35.991Z</time>
      </trkpt>
      <trkpt lat="44.38294" lon="5.17411">
        <ele>300</ele>
        <time>2021-11-13T14:05:36.991Z</time>
      </trkpt>
      <trkpt lat="44.38295" lon="5.17414">
        <ele>300</ele>
        <time>2021-11-13T14:05:37.991Z</time>
      </trkpt>
      <trkpt lat="44.38296" lon="5.17418">
        <ele>299</ele>
        <time>2021-11-13T14:05:38.991Z</time>
      </trkpt>
      <trkpt lat="44.38297" lon="5.17422">
        <ele>299</ele>
        <time>2021-11-13T14:05:39.991Z</time>
      </trkpt>
      <trkpt lat="44.38297" lon="5.17425">
        <ele>299</ele>
        <time>2021-11-13T14:05:40.992Z</time>
      </trkpt>
      <trkpt lat="44.38298" lon="5.17429">
        <ele>300</ele>
        <time>2021-11-13T14:05:41.991Z</time>
      </trkpt>
      <trkpt lat="44.38298" lon="5.17433">
        <ele>300</ele>
        <time>2021-11-13T14:05:42.991Z</time>
      </trkpt>
      <trkpt lat="44.38298" lon="5.17436">
        <ele>300</ele>
        <time>2021-11-13T14:05:43.991Z</time>
      </trkpt>
      <trkpt lat="44.38297" lon="5.1744">
        <ele>301</ele>
        <time>2021-11-13T14:05:44.992Z</time>
      </trkpt>
      <trkpt lat="44.38297" lon="5.17444">
        <ele>301</ele>
        <time>2021-11-13T14:05:45.992Z</time>
      </trkpt>
      <trkpt lat="44.38296" lon="5.17447">
        <ele>301</ele>
        <time>2021-11-13T14:05:46.992Z</time>
      </trkpt>
      <trkpt lat="44.38295" lon="5.17451">
        <ele>301</ele>
        <time>2021-11-13T14:05:47.991Z</time>
      </trkpt>
      <trkpt lat="44.38294" lon="5.17455">
        <ele>301</ele>
        <time>2021-11-13T14:05:48.991Z</time>
      </trkpt>
      <trkpt lat="44.38293" lon="5.17459">
        <ele>302</ele>
        <time>2021-11-13T14:05:49.991Z</time>
      </trkpt>
      <trkpt lat="44.38291" lon="5.17462">
        <ele>303</ele>
        <time>2021-11-13T14:05:50.992Z</time>
      </trkpt>
      <trkpt lat="44.3829" lon="5.17465">
        <ele>303</ele>
        <time>2021-11-13T14:05:51.991Z</time>
      </trkpt>
      <trkpt lat="44.38288" lon="5.17468">
        <ele>303</ele>
        <time>2021-11-13T14:05:52.991Z</time>
      </trkpt>
      <trkpt lat="44.38286" lon="5.17471">
        <ele>303</ele>
        <time>2021-11-13T14:05:53.992Z</time>
      </trkpt>
      <trkpt lat="44.38285" lon="5.17474">
        <ele>303</ele>
        <time>2021-11-13T14:05:54.991Z</time>
      </trkpt>
      <trkpt lat="44.38283" lon="5.17477">
        <ele>303</ele>
        <time>2021-11-13T14:05:55.992Z</time>
      </trkpt>
      <trkpt lat="44.38282" lon="5.1748">
        <ele>303</ele>
        <time>2021-11-13T14:05:56.992Z</time>
      </trkpt>
      <trkpt lat="44.3828" lon="5.17483">
        <ele>304</ele>
        <time>2021-11-13T14:05:57.991Z</time>
      </trkpt>
      <trkpt lat="44.38279" lon="5.17486">
        <ele>304</ele>
        <time>2021-11-13T14:05:58.991Z</time>
      </trkpt>
      <trkpt lat="44.38277" lon="5.17488">
        <ele>304</ele>
        <time>2021-11-13T14:05:59.991Z</time>
      </trkpt>
      <trkpt lat="44.38276" lon="5.17491">
        <ele>304</ele>
        <time>2021-11-13T14:06:00.991Z</time>
      </trkpt>
      <trkpt lat="44.38275" lon="5.17494">
        <ele>305</ele>
        <time>2021-11-13T14:06:01.992Z</time>
      </trkpt>
      <trkpt lat="44.38274" lon="5.17497">
        <ele>305</ele>
        <time>2021-11-13T14:06:02.991Z</time>
      </trkpt>
      <trkpt lat="44.38272" lon="5.175">
        <ele>305</ele>
        <time>2021-11-13T14:06:03.991Z</time>
      </trkpt>
      <trkpt lat="44.38271" lon="5.17503">
        <ele>305</ele>
        <time>2021-11-13T14:06:04.991Z</time>
      </trkpt>
      <trkpt lat="44.3827" lon="5.17506">
        <ele>305</ele>
        <time>2021-11-13T14:06:05.992Z</time>
      </trkpt>
      <trkpt lat="44.38268" lon="5.17509">
        <ele>305</ele>
        <time>2021-11-13T14:06:06.992Z</time>
      </trkpt>
      <trkpt lat="44.38267" lon="5.17512">
        <ele>305</ele>
        <time>2021-11-13T14:06:07.991Z</time>
      </trkpt>
      <trkpt lat="44.38266" lon="5.17516">
        <ele>304</ele>
        <time>2021-11-13T14:06:08.991Z</time>
      </trkpt>
      <trkpt lat="44.38265" lon="5.17519">
        <ele>304</ele>
        <time>2021-11-13T14:06:09.991Z</time>
      </trkpt>
      <trkpt lat="44.38263" lon="5.17522">
        <ele>305</ele>
        <time>2021-11-13T14:06:10.992Z</time>
      </trkpt>
      <trkpt lat="44.38262" lon="5.17526">
        <ele>305</ele>
        <time>2021-11-13T14:06:11.991Z</time>
      </trkpt>
      <trkpt lat="44.38261" lon="5.17529">
        <ele>305</ele>
        <time>2021-11-13T14:06:12.991Z</time>
      </trkpt>
      <trkpt lat="44.3826" lon="5.17532">
        <ele>305</ele>
        <time>2021-11-13T14:06:13.991Z</time>
      </trkpt>
      <trkpt lat="44.38259" lon="5.17536">
        <ele>304</ele>
        <time>2021-11-13T14:06:14.992Z</time>
      </trkpt>
      <trkpt lat="44.38258" lon="5.17539">
        <ele>304</ele>
        <time>2021-11-13T14:06:15.992Z</time>
      </trkpt>
      <trkpt lat="44.38257" lon="5.17543">
        <ele>304</ele>
        <time>2021-11-13T14:06:16.991Z</time>
      </trkpt>
      <trkpt lat="44.38256" lon="5.17546">
        <ele>304</ele>
        <time>2021-11-13T14:06:17.992Z</time>
      </trkpt>
      <trkpt lat="44.38255" lon="5.1755">
        <ele>304</ele>
        <time>2021-11-13T14:06:18.991Z</time>
      </trkpt>
      <trkpt lat="44.38254" lon="5.17554">
        <ele>304</ele>
        <time>2021-11-13T14:06:19.991Z</time>
      </trkpt>
      <trkpt lat="44.38254" lon="5.17557">
        <ele>303</ele>
        <time>2021-11-13T14:06:20.991Z</time>
      </trkpt>
      <trkpt lat="44.38253" lon="5.17562">
        <ele>303</ele>
        <time>2021-11-13T14:06:21.991Z</time>
      </trkpt>
      <trkpt lat="44.38254" lon="5.17566">
        <ele>303</ele>
        <time>2021-11-13T14:06:22.991Z</time>
      </trkpt>
      <trkpt lat="44.38254" lon="5.1757">
        <ele>303</ele>
        <time>2021-11-13T14:06:23.991Z</time>
      </trkpt>
      <trkpt lat="44.38254" lon="5.17574">
        <ele>302</ele>
        <time>2021-11-13T14:06:24.992Z</time>
      </trkpt>
      <trkpt lat="44.38254" lon="5.1758">
        <ele>302</ele>
        <time>2021-11-13T14:06:25.992Z</time>
      </trkpt>
      <trkpt lat="44.38255" lon="5.17585">
        <ele>301</ele>
        <time>2021-11-13T14:06:26.991Z</time>
      </trkpt>
      <trkpt lat="44.38256" lon="5.17591">
        <ele>300</ele>
        <time>2021-11-13T14:06:27.991Z</time>
      </trkpt>
      <trkpt lat="44.38257" lon="5.17598">
        <ele>300</ele>
        <time>2021-11-13T14:06:28.991Z</time>
      </trkpt>
      <trkpt lat="44.38258" lon="5.17606">
        <ele>300</ele>
        <time>2021-11-13T14:06:29.991Z</time>
      </trkpt>
      <trkpt lat="44.3826" lon="5.17614">
        <ele>300</ele>
        <time>2021-11-13T14:06:30.991Z</time>
      </trkpt>
      <trkpt lat="44.3826" lon="5.17623">
        <ele>300</ele>
        <time>2021-11-13T14:06:31.991Z</time>
      </trkpt>
      <trkpt lat="44.3826" lon="5.17633">
        <ele>300</ele>
        <time>2021-11-13T14:06:32.991Z</time>
      </trkpt>
      <trkpt lat="44.38259" lon="5.17642">
        <ele>300</ele>
        <time>2021-11-13T14:06:33.991Z</time>
      </trkpt>
      <trkpt lat="44.38257" lon="5.17651">
        <ele>299</ele>
        <time>2021-11-13T14:06:34.991Z</time>
      </trkpt>
      <trkpt lat="44.38254" lon="5.17659">
        <ele>300</ele>
        <time>2021-11-13T14:06:35.992Z</time>
      </trkpt>
      <trkpt lat="44.38251" lon="5.17667">
        <ele>300</ele>
        <time>2021-11-13T14:06:36.991Z</time>
      </trkpt>
      <trkpt lat="44.38248" lon="5.17675">
        <ele>300</ele>
        <time>2021-11-13T14:06:37.992Z</time>
      </trkpt>
      <trkpt lat="44.38245" lon="5.1768">
        <ele>300</ele>
        <time>2021-11-13T14:06:38.992Z</time>
      </trkpt>
      <trkpt lat="44.3824" lon="5.17689">
        <ele>300</ele>
        <time>2021-11-13T14:06:39.991Z</time>
      </trkpt>
      <trkpt lat="44.38236" lon="5.17695">
        <ele>300</ele>
        <time>2021-11-13T14:06:40.991Z</time>
      </trkpt>
      <trkpt lat="44.38233" lon="5.17702">
        <ele>300</ele>
        <time>2021-11-13T14:06:41.991Z</time>
      </trkpt>
      <trkpt lat="44.38229" lon="5.17709">
        <ele>301</ele>
        <time>2021-11-13T14:06:42.992Z</time>
      </trkpt>
      <trkpt lat="44.38224" lon="5.17716">
        <ele>300</ele>
        <time>2021-11-13T14:06:43.992Z</time>
      </trkpt>
      <trkpt lat="44.3822" lon="5.17724">
        <ele>300</ele>
        <time>2021-11-13T14:06:44.992Z</time>
      </trkpt>
      <trkpt lat="44.38215" lon="5.17733">
        <ele>300</ele>
        <time>2021-11-13T14:06:45.991Z</time>
      </trkpt>
      <trkpt lat="44.38209" lon="5.17743">
        <ele>299</ele>
        <time>2021-11-13T14:06:46.992Z</time>
      </trkpt>
      <trkpt lat="44.38203" lon="5.17752">
        <ele>299</ele>
        <time>2021-11-13T14:06:47.991Z</time>
      </trkpt>
      <trkpt lat="44.38196" lon="5.17762">
        <ele>298</ele>
        <time>2021-11-13T14:06:48.992Z</time>
      </trkpt>
      <trkpt lat="44.3819" lon="5.17772">
        <ele>297</ele>
        <time>2021-11-13T14:06:49.991Z</time>
      </trkpt>
      <trkpt lat="44.38183" lon="5.17781">
        <ele>296</ele>
        <time>2021-11-13T14:06:50.991Z</time>
      </trkpt>
      <trkpt lat="44.38176" lon="5.17791">
        <ele>296</ele>
        <time>2021-11-13T14:06:51.991Z</time>
      </trkpt>
      <trkpt lat="44.3817" lon="5.17801">
        <ele>295</ele>
        <time>2021-11-13T14:06:52.992Z</time>
      </trkpt>
      <trkpt lat="44.38164" lon="5.1781">
        <ele>295</ele>
        <time>2021-11-13T14:06:53.992Z</time>
      </trkpt>
      <trkpt lat="44.38159" lon="5.1782">
        <ele>295</ele>
        <time>2021-11-13T14:06:54.992Z</time>
      </trkpt>
      <trkpt lat="44.38155" lon="5.17829">
        <ele>295</ele>
        <time>2021-11-13T14:06:55.991Z</time>
      </trkpt>
      <trkpt lat="44.38152" lon="5.17837">
        <ele>294</ele>
        <time>2021-11-13T14:06:56.992Z</time>
      </trkpt>
      <trkpt lat="44.38148" lon="5.17848">
        <ele>294</ele>
        <time>2021-11-13T14:06:57.992Z</time>
      </trkpt>
      <trkpt lat="44.38145" lon="5.17857">
        <ele>293</ele>
        <time>2021-11-13T14:06:58.991Z</time>
      </trkpt>
      <trkpt lat="44.38141" lon="5.17865">
        <ele>293</ele>
        <time>2021-11-13T14:06:59.992Z</time>
      </trkpt>
      <trkpt lat="44.38138" lon="5.17873">
        <ele>293</ele>
        <time>2021-11-13T14:07:00.991Z</time>
      </trkpt>
      <trkpt lat="44.38135" lon="5.1788">
        <ele>292</ele>
        <time>2021-11-13T14:07:01.991Z</time>
      </trkpt>
      <trkpt lat="44.38131" lon="5.17887">
        <ele>292</ele>
        <time>2021-11-13T14:07:02.992Z</time>
      </trkpt>
      <trkpt lat="44.38126" lon="5.17893">
        <ele>293</ele>
        <time>2021-11-13T14:07:03.991Z</time>
      </trkpt>
      <trkpt lat="44.38121" lon="5.17899">
        <ele>293</ele>
        <time>2021-11-13T14:07:04.992Z</time>
      </trkpt>
      <trkpt lat="44.38117" lon="5.17904">
        <ele>293</ele>
        <time>2021-11-13T14:07:05.991Z</time>
      </trkpt>
      <trkpt lat="44.38112" lon="5.17909">
        <ele>293</ele>
        <time>2021-11-13T14:07:06.991Z</time>
      </trkpt>
      <trkpt lat="44.38107" lon="5.17914">
        <ele>293</ele>
        <time>2021-11-13T14:07:07.992Z</time>
      </trkpt>
      <trkpt lat="44.38103" lon="5.17918">
        <ele>294</ele>
        <time>2021-11-13T14:07:08.992Z</time>
      </trkpt>
      <trkpt lat="44.38099" lon="5.17921">
        <ele>294</ele>
        <time>2021-11-13T14:07:09.991Z</time>
      </trkpt>
      <trkpt lat="44.38095" lon="5.17924">
        <ele>294</ele>
        <time>2021-11-13T14:07:10.992Z</time>
      </trkpt>
      <trkpt lat="44.38091" lon="5.17927">
        <ele>294</ele>
        <time>2021-11-13T14:07:11.992Z</time>
      </trkpt>
      <trkpt lat="44.38087" lon="5.17929">
        <ele>294</ele>
        <time>2021-11-13T14:07:12.992Z</time>
      </trkpt>
      <trkpt lat="44.38084" lon="5.17931">
        <ele>294</ele>
        <time>2021-11-13T14:07:13.992Z</time>
      </trkpt>
      <trkpt lat="44.3808" lon="5.17933">
        <ele>294</ele>
        <time>2021-11-13T14:07:14.992Z</time>
      </trkpt>
      <trkpt lat="44.38076" lon="5.17936">
        <ele>294</ele>
        <time>2021-11-13T14:07:15.991Z</time>
      </trkpt>
      <trkpt lat="44.38073" lon="5.17938">
        <ele>294</ele>
        <time>2021-11-13T14:07:16.991Z</time>
      </trkpt>
      <trkpt lat="44.38069" lon="5.1794">
        <ele>295</ele>
        <time>2021-11-13T14:07:17.991Z</time>
      </trkpt>
      <trkpt lat="44.38066" lon="5.17943">
        <ele>295</ele>
        <time>2021-11-13T14:07:18.992Z</time>
      </trkpt>
      <trkpt lat="44.38063" lon="5.17945">
        <ele>295</ele>
        <time>2021-11-13T14:07:19.992Z</time>
      </trkpt>
      <trkpt lat="44.38061" lon="5.17946">
        <ele>295</ele>
        <time>2021-11-13T14:07:20.991Z</time>
      </trkpt>
      <trkpt lat="44.38058" lon="5.17948">
        <ele>295</ele>
        <time>2021-11-13T14:07:21.991Z</time>
      </trkpt>
      <trkpt lat="44.38055" lon="5.1795">
        <ele>295</ele>
        <time>2021-11-13T14:07:22.991Z</time>
      </trkpt>
      <trkpt lat="44.38053" lon="5.17951">
        <ele>296</ele>
        <time>2021-11-13T14:07:23.991Z</time>
      </trkpt>
      <trkpt lat="44.38049" lon="5.17954">
        <ele>296</ele>
        <time>2021-11-13T14:07:24.992Z</time>
      </trkpt>
      <trkpt lat="44.38046" lon="5.17957">
        <ele>296</ele>
        <time>2021-11-13T14:07:25.991Z</time>
      </trkpt>
      <trkpt lat="44.38043" lon="5.17959">
        <ele>296</ele>
        <time>2021-11-13T14:07:26.991Z</time>
      </trkpt>
      <trkpt lat="44.38039" lon="5.17962">
        <ele>296</ele>
        <time>2021-11-13T14:07:27.991Z</time>
      </trkpt>
      <trkpt lat="44.38036" lon="5.17964">
        <ele>296</ele>
        <time>2021-11-13T14:07:28.992Z</time>
      </trkpt>
      <trkpt lat="44.3803" lon="5.17968">
        <ele>295</ele>
        <time>2021-11-13T14:07:29.992Z</time>
      </trkpt>
      <trkpt lat="44.38026" lon="5.17971">
        <ele>295</ele>
        <time>2021-11-13T14:07:30.991Z</time>
      </trkpt>
      <trkpt lat="44.38021" lon="5.17975">
        <ele>295</ele>
        <time>2021-11-13T14:07:31.991Z</time>
      </trkpt>
      <trkpt lat="44.38017" lon="5.17979">
        <ele>295</ele>
        <time>2021-11-13T14:07:32.992Z</time>
      </trkpt>
      <trkpt lat="44.38012" lon="5.17983">
        <ele>296</ele>
        <time>2021-11-13T14:07:33.991Z</time>
      </trkpt>
      <trkpt lat="44.38006" lon="5.17988">
        <ele>295</ele>
        <time>2021-11-13T14:07:34.991Z</time>
      </trkpt>
      <trkpt lat="44.38001" lon="5.17991">
        <ele>295</ele>
        <time>2021-11-13T14:07:35.991Z</time>
      </trkpt>
      <trkpt lat="44.37995" lon="5.17994">
        <ele>295</ele>
        <time>2021-11-13T14:07:36.991Z</time>
      </trkpt>
      <trkpt lat="44.37991" lon="5.17996">
        <ele>295</ele>
        <time>2021-11-13T14:07:37.991Z</time>
      </trkpt>
      <trkpt lat="44.37986" lon="5.17998">
        <ele>295</ele>
        <time>2021-11-13T14:07:38.991Z</time>
      </trkpt>
      <trkpt lat="44.3798" lon="5.17999">
        <ele>296</ele>
        <time>2021-11-13T14:07:39.992Z</time>
      </trkpt>
      <trkpt lat="44.37974" lon="5.17998">
        <ele>296</ele>
        <time>2021-11-13T14:07:40.991Z</time>
      </trkpt>
      <trkpt lat="44.3797" lon="5.17997">
        <ele>296</ele>
        <time>2021-11-13T14:07:41.991Z</time>
      </trkpt>
      <trkpt lat="44.37966" lon="5.17994">
        <ele>295</ele>
        <time>2021-11-13T14:07:42.991Z</time>
      </trkpt>
      <trkpt lat="44.37961" lon="5.17991">
        <ele>295</ele>
        <time>2021-11-13T14:07:43.992Z</time>
      </trkpt>
      <trkpt lat="44.37957" lon="5.17987">
        <ele>295</ele>
        <time>2021-11-13T14:07:44.992Z</time>
      </trkpt>
      <trkpt lat="44.37952" lon="5.17983">
        <ele>295</ele>
        <time>2021-11-13T14:07:45.991Z</time>
      </trkpt>
      <trkpt lat="44.37949" lon="5.1798">
        <ele>295</ele>
        <time>2021-11-13T14:07:46.991Z</time>
      </trkpt>
      <trkpt lat="44.37945" lon="5.17977">
        <ele>295</ele>
        <time>2021-11-13T14:07:47.991Z</time>
      </trkpt>
      <trkpt lat="44.37939" lon="5.17973">
        <ele>295</ele>
        <time>2021-11-13T14:07:48.991Z</time>
      </trkpt>
      <trkpt lat="44.37935" lon="5.17971">
        <ele>295</ele>
        <time>2021-11-13T14:07:49.992Z</time>
      </trkpt>
      <trkpt lat="44.3793" lon="5.17968">
        <ele>295</ele>
        <time>2021-11-13T14:07:50.991Z</time>
      </trkpt>
      <trkpt lat="44.37926" lon="5.17966">
        <ele>295</ele>
        <time>2021-11-13T14:07:51.991Z</time>
      </trkpt>
      <trkpt lat="44.3792" lon="5.17963">
        <ele>295</ele>
        <time>2021-11-13T14:07:52.991Z</time>
      </trkpt>
      <trkpt lat="44.37915" lon="5.17961">
        <ele>295</ele>
        <time>2021-11-13T14:07:53.992Z</time>
      </trkpt>
      <trkpt lat="44.3791" lon="5.17959">
        <ele>295</ele>
        <time>2021-11-13T14:07:54.992Z</time>
      </trkpt>
      <trkpt lat="44.37906" lon="5.17958">
        <ele>296</ele>
        <time>2021-11-13T14:07:55.991Z</time>
      </trkpt>
      <trkpt lat="44.37902" lon="5.17956">
        <ele>296</ele>
        <time>2021-11-13T14:07:56.991Z</time>
      </trkpt>
      <trkpt lat="44.37896" lon="5.17955">
        <ele>296</ele>
        <time>2021-11-13T14:07:57.992Z</time>
      </trkpt>
      <trkpt lat="44.37891" lon="5.17953">
        <ele>296</ele>
        <time>2021-11-13T14:07:58.992Z</time>
      </trkpt>
      <trkpt lat="44.37886" lon="5.17953">
        <ele>296</ele>
        <time>2021-11-13T14:07:59.992Z</time>
      </trkpt>
      <trkpt lat="44.37881" lon="5.17952">
        <ele>296</ele>
        <time>2021-11-13T14:08:00.991Z</time>
      </trkpt>
      <trkpt lat="44.37876" lon="5.17952">
        <ele>296</ele>
        <time>2021-11-13T14:08:01.992Z</time>
      </trkpt>
      <trkpt lat="44.37871" lon="5.17952">
        <ele>296</ele>
        <time>2021-11-13T14:08:02.991Z</time>
      </trkpt>
      <trkpt lat="44.37866" lon="5.17952">
        <ele>296</ele>
        <time>2021-11-13T14:08:03.991Z</time>
      </trkpt>
      <trkpt lat="44.37862" lon="5.17952">
        <ele>296</ele>
        <time>2021-11-13T14:08:04.992Z</time>
      </trkpt>
      <trkpt lat="44.37857" lon="5.17953">
        <ele>296</ele>
        <time>2021-11-13T14:08:05.991Z</time>
      </trkpt>
      <trkpt lat="44.37853" lon="5.17954">
        <ele>295</ele>
        <time>2021-11-13T14:08:06.991Z</time>
      </trkpt>
      <trkpt lat="44.37848" lon="5.17956">
        <ele>295</ele>
        <time>2021-11-13T14:08:07.992Z</time>
      </trkpt>
      <trkpt lat="44.37844" lon="5.17958">
        <ele>296</ele>
        <time>2021-11-13T14:08:08.992Z</time>
      </trkpt>
      <trkpt lat="44.37839" lon="5.17959">
        <ele>295</ele>
        <time>2021-11-13T14:08:09.992Z</time>
      </trkpt>
      <trkpt lat="44.37835" lon="5.17961">
        <ele>295</ele>
        <time>2021-11-13T14:08:10.992Z</time>
      </trkpt>
      <trkpt lat="44.37831" lon="5.17964">
        <ele>295</ele>
        <time>2021-11-13T14:08:11.991Z</time>
      </trkpt>
      <trkpt lat="44.37827" lon="5.17967">
        <ele>296</ele>
        <time>2021-11-13T14:08:12.991Z</time>
      </trkpt>
      <trkpt lat="44.37824" lon="5.1797">
        <ele>296</ele>
        <time>2021-11-13T14:08:13.992Z</time>
      </trkpt>
      <trkpt lat="44.37821" lon="5.17973">
        <ele>297</ele>
        <time>2021-11-13T14:08:14.992Z</time>
      </trkpt>
      <trkpt lat="44.37818" lon="5.17976">
        <ele>297</ele>
        <time>2021-11-13T14:08:15.991Z</time>
      </trkpt>
      <trkpt lat="44.37815" lon="5.17979">
        <ele>298</ele>
        <time>2021-11-13T14:08:16.992Z</time>
      </trkpt>
      <trkpt lat="44.37815" lon="5.17979">
        <ele>298</ele>
        <time>2021-11-13T14:08:17.992Z</time>
      </trkpt>
      <trkpt lat="44.3781" lon="5.17985">
        <ele>298</ele>
        <time>2021-11-13T14:08:18.992Z</time>
      </trkpt>
      <trkpt lat="44.37808" lon="5.17989">
        <ele>298</ele>
        <time>2021-11-13T14:08:19.991Z</time>
      </trkpt>
      <trkpt lat="44.37806" lon="5.17992">
        <ele>298</ele>
        <time>2021-11-13T14:08:20.991Z</time>
      </trkpt>
      <trkpt lat="44.37804" lon="5.17996">
        <ele>298</ele>
        <time>2021-11-13T14:08:21.991Z</time>
      </trkpt>
      <trkpt lat="44.37801" lon="5.17999">
        <ele>298</ele>
        <time>2021-11-13T14:08:22.991Z</time>
      </trkpt>
      <trkpt lat="44.378" lon="5.18003">
        <ele>298</ele>
        <time>2021-11-13T14:08:23.991Z</time>
      </trkpt>
      <trkpt lat="44.37798" lon="5.18007">
        <ele>298</ele>
        <time>2021-11-13T14:08:24.992Z</time>
      </trkpt>
      <trkpt lat="44.37795" lon="5.18012">
        <ele>298</ele>
        <time>2021-11-13T14:08:25.991Z</time>
      </trkpt>
      <trkpt lat="44.37794" lon="5.18014">
        <ele>298</ele>
        <time>2021-11-13T14:08:26.992Z</time>
      </trkpt>
      <trkpt lat="44.37793" lon="5.18018">
        <ele>297</ele>
        <time>2021-11-13T14:08:27.991Z</time>
      </trkpt>
      <trkpt lat="44.37791" lon="5.18022">
        <ele>298</ele>
        <time>2021-11-13T14:08:28.991Z</time>
      </trkpt>
      <trkpt lat="44.3779" lon="5.18026">
        <ele>298</ele>
        <time>2021-11-13T14:08:29.992Z</time>
      </trkpt>
      <trkpt lat="44.37788" lon="5.1803">
        <ele>297</ele>
        <time>2021-11-13T14:08:30.992Z</time>
      </trkpt>
      <trkpt lat="44.37787" lon="5.18034">
        <ele>297</ele>
        <time>2021-11-13T14:08:31.992Z</time>
      </trkpt>
      <trkpt lat="44.37785" lon="5.18038">
        <ele>296</ele>
        <time>2021-11-13T14:08:32.992Z</time>
      </trkpt>
      <trkpt lat="44.37784" lon="5.18041">
        <ele>295</ele>
        <time>2021-11-13T14:08:33.992Z</time>
      </trkpt>
      <trkpt lat="44.37782" lon="5.18046">
        <ele>295</ele>
        <time>2021-11-13T14:08:34.991Z</time>
      </trkpt>
      <trkpt lat="44.37781" lon="5.1805">
        <ele>295</ele>
        <time>2021-11-13T14:08:35.991Z</time>
      </trkpt>
      <trkpt lat="44.3778" lon="5.18054">
        <ele>295</ele>
        <time>2021-11-13T14:08:36.992Z</time>
      </trkpt>
      <trkpt lat="44.37778" lon="5.1806">
        <ele>295</ele>
        <time>2021-11-13T14:08:37.992Z</time>
      </trkpt>
      <trkpt lat="44.37777" lon="5.18065">
        <ele>295</ele>
        <time>2021-11-13T14:08:38.992Z</time>
      </trkpt>
      <trkpt lat="44.37776" lon="5.18071">
        <ele>296</ele>
        <time>2021-11-13T14:08:39.992Z</time>
      </trkpt>
      <trkpt lat="44.37775" lon="5.18075">
        <ele>296</ele>
        <time>2021-11-13T14:08:40.991Z</time>
      </trkpt>
      <trkpt lat="44.37773" lon="5.18081">
        <ele>296</ele>
        <time>2021-11-13T14:08:41.991Z</time>
      </trkpt>
      <trkpt lat="44.37773" lon="5.18086">
        <ele>296</ele>
        <time>2021-11-13T14:08:42.991Z</time>
      </trkpt>
      <trkpt lat="44.37772" lon="5.18092">
        <ele>296</ele>
        <time>2021-11-13T14:08:43.991Z</time>
      </trkpt>
      <trkpt lat="44.37771" lon="5.18097">
        <ele>296</ele>
        <time>2021-11-13T14:08:44.992Z</time>
      </trkpt>
      <trkpt lat="44.37771" lon="5.18102">
        <ele>295</ele>
        <time>2021-11-13T14:08:45.991Z</time>
      </trkpt>
      <trkpt lat="44.3777" lon="5.18108">
        <ele>295</ele>
        <time>2021-11-13T14:08:46.991Z</time>
      </trkpt>
      <trkpt lat="44.37769" lon="5.18114">
        <ele>295</ele>
        <time>2021-11-13T14:08:47.991Z</time>
      </trkpt>
      <trkpt lat="44.37769" lon="5.18118">
        <ele>294</ele>
        <time>2021-11-13T14:08:48.992Z</time>
      </trkpt>
      <trkpt lat="44.37768" lon="5.18122">
        <ele>294</ele>
        <time>2021-11-13T14:08:49.992Z</time>
      </trkpt>
      <trkpt lat="44.37767" lon="5.18128">
        <ele>294</ele>
        <time>2021-11-13T14:08:50.991Z</time>
      </trkpt>
      <trkpt lat="44.37767" lon="5.18133">
        <ele>293</ele>
        <time>2021-11-13T14:08:51.992Z</time>
      </trkpt>
      <trkpt lat="44.37766" lon="5.18138">
        <ele>293</ele>
        <time>2021-11-13T14:08:52.992Z</time>
      </trkpt>
      <trkpt lat="44.37766" lon="5.18142">
        <ele>293</ele>
        <time>2021-11-13T14:08:53.992Z</time>
      </trkpt>
      <trkpt lat="44.37766" lon="5.18148">
        <ele>292</ele>
        <time>2021-11-13T14:08:54.991Z</time>
      </trkpt>
      <trkpt lat="44.37766" lon="5.18154">
        <ele>292</ele>
        <time>2021-11-13T14:08:55.992Z</time>
      </trkpt>
      <trkpt lat="44.37766" lon="5.18159">
        <ele>292</ele>
        <time>2021-11-13T14:08:56.991Z</time>
      </trkpt>
      <trkpt lat="44.37765" lon="5.18163">
        <ele>292</ele>
        <time>2021-11-13T14:08:57.991Z</time>
      </trkpt>
      <trkpt lat="44.37765" lon="5.18169">
        <ele>292</ele>
        <time>2021-11-13T14:08:58.992Z</time>
      </trkpt>
      <trkpt lat="44.37764" lon="5.18176">
        <ele>292</ele>
        <time>2021-11-13T14:08:59.991Z</time>
      </trkpt>
      <trkpt lat="44.37764" lon="5.18182">
        <ele>292</ele>
        <time>2021-11-13T14:09:00.991Z</time>
      </trkpt>
      <trkpt lat="44.37763" lon="5.18188">
        <ele>292</ele>
        <time>2021-11-13T14:09:01.991Z</time>
      </trkpt>
      <trkpt lat="44.37763" lon="5.18192">
        <ele>293</ele>
        <time>2021-11-13T14:09:02.991Z</time>
      </trkpt>
      <trkpt lat="44.37762" lon="5.18198">
        <ele>293</ele>
        <time>2021-11-13T14:09:03.991Z</time>
      </trkpt>
      <trkpt lat="44.37762" lon="5.18204">
        <ele>293</ele>
        <time>2021-11-13T14:09:04.992Z</time>
      </trkpt>
      <trkpt lat="44.37761" lon="5.18211">
        <ele>294</ele>
        <time>2021-11-13T14:09:05.991Z</time>
      </trkpt>
      <trkpt lat="44.3776" lon="5.18217">
        <ele>294</ele>
        <time>2021-11-13T14:09:06.991Z</time>
      </trkpt>
      <trkpt lat="44.3776" lon="5.18221">
        <ele>295</ele>
        <time>2021-11-13T14:09:07.992Z</time>
      </trkpt>
      <trkpt lat="44.3776" lon="5.18228">
        <ele>295</ele>
        <time>2021-11-13T14:09:08.992Z</time>
      </trkpt>
      <trkpt lat="44.37759" lon="5.18234">
        <ele>295</ele>
        <time>2021-11-13T14:09:09.991Z</time>
      </trkpt>
      <trkpt lat="44.37758" lon="5.1824">
        <ele>295</ele>
        <time>2021-11-13T14:09:10.992Z</time>
      </trkpt>
      <trkpt lat="44.37757" lon="5.18244">
        <ele>295</ele>
        <time>2021-11-13T14:09:11.991Z</time>
      </trkpt>
      <trkpt lat="44.37756" lon="5.18251">
        <ele>295</ele>
        <time>2021-11-13T14:09:12.992Z</time>
      </trkpt>
      <trkpt lat="44.37755" lon="5.18257">
        <ele>296</ele>
        <time>2021-11-13T14:09:13.991Z</time>
      </trkpt>
      <trkpt lat="44.37754" lon="5.18261">
        <ele>296</ele>
        <time>2021-11-13T14:09:14.992Z</time>
      </trkpt>
      <trkpt lat="44.37753" lon="5.18267">
        <ele>296</ele>
        <time>2021-11-13T14:09:15.992Z</time>
      </trkpt>
      <trkpt lat="44.37752" lon="5.18272">
        <ele>297</ele>
        <time>2021-11-13T14:09:16.991Z</time>
      </trkpt>
      <trkpt lat="44.37751" lon="5.18278">
        <ele>297</ele>
        <time>2021-11-13T14:09:17.992Z</time>
      </trkpt>
      <trkpt lat="44.3775" lon="5.18283">
        <ele>297</ele>
        <time>2021-11-13T14:09:18.991Z</time>
      </trkpt>
      <trkpt lat="44.3775" lon="5.18288">
        <ele>298</ele>
        <time>2021-11-13T14:09:19.991Z</time>
      </trkpt>
      <trkpt lat="44.3775" lon="5.18292">
        <ele>298</ele>
        <time>2021-11-13T14:09:20.992Z</time>
      </trkpt>
      <trkpt lat="44.37751" lon="5.18296">
        <ele>298</ele>
        <time>2021-11-13T14:09:21.991Z</time>
      </trkpt>
      <trkpt lat="44.37751" lon="5.18299">
        <ele>298</ele>
        <time>2021-11-13T14:09:22.992Z</time>
      </trkpt>
      <trkpt lat="44.37752" lon="5.18302">
        <ele>298</ele>
        <time>2021-11-13T14:09:23.992Z</time>
      </trkpt>
      <trkpt lat="44.37753" lon="5.18304">
        <ele>298</ele>
        <time>2021-11-13T14:09:24.992Z</time>
      </trkpt>
      <trkpt lat="44.37753" lon="5.18307">
        <ele>299</ele>
        <time>2021-11-13T14:09:25.991Z</time>
      </trkpt>
      <trkpt lat="44.37753" lon="5.18311">
        <ele>299</ele>
        <time>2021-11-13T14:09:26.991Z</time>
      </trkpt>
      <trkpt lat="44.37754" lon="5.18313">
        <ele>299</ele>
        <time>2021-11-13T14:09:27.991Z</time>
      </trkpt>
      <trkpt lat="44.37754" lon="5.18316">
        <ele>299</ele>
        <time>2021-11-13T14:09:28.992Z</time>
      </trkpt>
      <trkpt lat="44.37754" lon="5.18319">
        <ele>299</ele>
        <time>2021-11-13T14:09:29.991Z</time>
      </trkpt>
      <trkpt lat="44.37754" lon="5.18322">
        <ele>299</ele>
        <time>2021-11-13T14:09:30.991Z</time>
      </trkpt>
      <trkpt lat="44.37755" lon="5.18325">
        <ele>299</ele>
        <time>2021-11-13T14:09:31.992Z</time>
      </trkpt>
      <trkpt lat="44.37755" lon="5.18327">
        <ele>298</ele>
        <time>2021-11-13T14:09:32.991Z</time>
      </trkpt>
      <trkpt lat="44.37755" lon="5.18329">
        <ele>298</ele>
        <time>2021-11-13T14:09:33.991Z</time>
      </trkpt>
      <trkpt lat="44.37756" lon="5.18332">
        <ele>298</ele>
        <time>2021-11-13T14:09:34.992Z</time>
      </trkpt>
      <trkpt lat="44.37756" lon="5.18334">
        <ele>297</ele>
        <time>2021-11-13T14:09:35.992Z</time>
      </trkpt>
      <trkpt lat="44.37757" lon="5.18337">
        <ele>297</ele>
        <time>2021-11-13T14:09:36.992Z</time>
      </trkpt>
      <trkpt lat="44.37757" lon="5.1834">
        <ele>297</ele>
        <time>2021-11-13T14:09:37.991Z</time>
      </trkpt>
      <trkpt lat="44.37758" lon="5.18342">
        <ele>297</ele>
        <time>2021-11-13T14:09:38.992Z</time>
      </trkpt>
      <trkpt lat="44.37758" lon="5.18347">
        <ele>297</ele>
        <time>2021-11-13T14:09:39.992Z</time>
      </trkpt>
      <trkpt lat="44.37758" lon="5.1835">
        <ele>297</ele>
        <time>2021-11-13T14:09:40.992Z</time>
      </trkpt>
      <trkpt lat="44.37757" lon="5.18354">
        <ele>297</ele>
        <time>2021-11-13T14:09:41.991Z</time>
      </trkpt>
      <trkpt lat="44.37757" lon="5.18356">
        <ele>297</ele>
        <time>2021-11-13T14:09:42.992Z</time>
      </trkpt>
      <trkpt lat="44.37756" lon="5.1836">
        <ele>297</ele>
        <time>2021-11-13T14:09:43.991Z</time>
      </trkpt>
      <trkpt lat="44.37756" lon="5.18364">
        <ele>297</ele>
        <time>2021-11-13T14:09:44.992Z</time>
      </trkpt>
      <trkpt lat="44.37756" lon="5.18368">
        <ele>297</ele>
        <time>2021-11-13T14:09:45.991Z</time>
      </trkpt>
      <trkpt lat="44.37755" lon="5.18372">
        <ele>297</ele>
        <time>2021-11-13T14:09:46.992Z</time>
      </trkpt>
      <trkpt lat="44.37755" lon="5.18376">
        <ele>297</ele>
        <time>2021-11-13T14:09:47.992Z</time>
      </trkpt>
      <trkpt lat="44.37755" lon="5.18381">
        <ele>297</ele>
        <time>2021-11-13T14:09:48.991Z</time>
      </trkpt>
      <trkpt lat="44.37755" lon="5.18386">
        <ele>297</ele>
        <time>2021-11-13T14:09:49.991Z</time>
      </trkpt>
      <trkpt lat="44.37756" lon="5.1839">
        <ele>297</ele>
        <time>2021-11-13T14:09:50.992Z</time>
      </trkpt>
      <trkpt lat="44.37756" lon="5.18394">
        <ele>297</ele>
        <time>2021-11-13T14:09:51.992Z</time>
      </trkpt>
      <trkpt lat="44.37756" lon="5.18398">
        <ele>297</ele>
        <time>2021-11-13T14:09:52.992Z</time>
      </trkpt>
      <trkpt lat="44.37756" lon="5.18403">
        <ele>297</ele>
        <time>2021-11-13T14:09:53.991Z</time>
      </trkpt>
      <trkpt lat="44.37757" lon="5.18408">
        <ele>297</ele>
        <time>2021-11-13T14:09:54.992Z</time>
      </trkpt>
      <trkpt lat="44.37757" lon="5.18411">
        <ele>297</ele>
        <time>2021-11-13T14:09:55.992Z</time>
      </trkpt>
      <trkpt lat="44.37758" lon="5.18416">
        <ele>298</ele>
        <time>2021-11-13T14:09:56.991Z</time>
      </trkpt>
      <trkpt lat="44.37758" lon="5.18421">
        <ele>298</ele>
        <time>2021-11-13T14:09:57.992Z</time>
      </trkpt>
      <trkpt lat="44.37759" lon="5.18425">
        <ele>298</ele>
        <time>2021-11-13T14:09:58.992Z</time>
      </trkpt>
      <trkpt lat="44.37759" lon="5.18429">
        <ele>299</ele>
        <time>2021-11-13T14:09:59.992Z</time>
      </trkpt>
      <trkpt lat="44.3776" lon="5.18433">
        <ele>299</ele>
        <time>2021-11-13T14:10:00.991Z</time>
      </trkpt>
      <trkpt lat="44.3776" lon="5.18437">
        <ele>299</ele>
        <time>2021-11-13T14:10:01.992Z</time>
      </trkpt>
      <trkpt lat="44.3776" lon="5.18441">
        <ele>299</ele>
        <time>2021-11-13T14:10:02.992Z</time>
      </trkpt>
      <trkpt lat="44.37761" lon="5.18445">
        <ele>298</ele>
        <time>2021-11-13T14:10:03.991Z</time>
      </trkpt>
      <trkpt lat="44.37761" lon="5.18449">
        <ele>298</ele>
        <time>2021-11-13T14:10:04.992Z</time>
      </trkpt>
      <trkpt lat="44.37762" lon="5.18453">
        <ele>298</ele>
        <time>2021-11-13T14:10:05.991Z</time>
      </trkpt>
      <trkpt lat="44.37762" lon="5.18459">
        <ele>298</ele>
        <time>2021-11-13T14:10:06.991Z</time>
      </trkpt>
      <trkpt lat="44.37763" lon="5.18464">
        <ele>298</ele>
        <time>2021-11-13T14:10:07.992Z</time>
      </trkpt>
      <trkpt lat="44.37763" lon="5.18468">
        <ele>298</ele>
        <time>2021-11-13T14:10:08.991Z</time>
      </trkpt>
      <trkpt lat="44.37764" lon="5.18472">
        <ele>298</ele>
        <time>2021-11-13T14:10:09.992Z</time>
      </trkpt>
      <trkpt lat="44.37764" lon="5.18477">
        <ele>299</ele>
        <time>2021-11-13T14:10:10.992Z</time>
      </trkpt>
      <trkpt lat="44.37765" lon="5.18482">
        <ele>299</ele>
        <time>2021-11-13T14:10:11.991Z</time>
      </trkpt>
      <trkpt lat="44.37766" lon="5.18487">
        <ele>299</ele>
        <time>2021-11-13T14:10:12.992Z</time>
      </trkpt>
      <trkpt lat="44.37767" lon="5.18491">
        <ele>299</ele>
        <time>2021-11-13T14:10:13.992Z</time>
      </trkpt>
      <trkpt lat="44.37767" lon="5.18495">
        <ele>299</ele>
        <time>2021-11-13T14:10:14.991Z</time>
      </trkpt>
      <trkpt lat="44.37769" lon="5.18501">
        <ele>300</ele>
        <time>2021-11-13T14:10:15.992Z</time>
      </trkpt>
      <trkpt lat="44.3777" lon="5.18505">
        <ele>300</ele>
        <time>2021-11-13T14:10:16.992Z</time>
      </trkpt>
      <trkpt lat="44.37771" lon="5.1851">
        <ele>300</ele>
        <time>2021-11-13T14:10:17.991Z</time>
      </trkpt>
      <trkpt lat="44.37771" lon="5.18514">
        <ele>299</ele>
        <time>2021-11-13T14:10:18.992Z</time>
      </trkpt>
      <trkpt lat="44.37773" lon="5.18519">
        <ele>299</ele>
        <time>2021-11-13T14:10:19.991Z</time>
      </trkpt>
      <trkpt lat="44.37774" lon="5.18524">
        <ele>299</ele>
        <time>2021-11-13T14:10:20.991Z</time>
      </trkpt>
      <trkpt lat="44.37775" lon="5.18529">
        <ele>299</ele>
        <time>2021-11-13T14:10:21.991Z</time>
      </trkpt>
      <trkpt lat="44.37776" lon="5.18534">
        <ele>300</ele>
        <time>2021-11-13T14:10:22.992Z</time>
      </trkpt>
      <trkpt lat="44.37777" lon="5.1854">
        <ele>300</ele>
        <time>2021-11-13T14:10:23.992Z</time>
      </trkpt>
      <trkpt lat="44.37778" lon="5.18545">
        <ele>300</ele>
        <time>2021-11-13T14:10:24.992Z</time>
      </trkpt>
      <trkpt lat="44.37779" lon="5.18549">
        <ele>300</ele>
        <time>2021-11-13T14:10:25.991Z</time>
      </trkpt>
      <trkpt lat="44.3778" lon="5.18553">
        <ele>300</ele>
        <time>2021-11-13T14:10:26.991Z</time>
      </trkpt>
      <trkpt lat="44.37781" lon="5.18559">
        <ele>299</ele>
        <time>2021-11-13T14:10:27.992Z</time>
      </trkpt>
      <trkpt lat="44.37782" lon="5.18564">
        <ele>299</ele>
        <time>2021-11-13T14:10:28.992Z</time>
      </trkpt>
      <trkpt lat="44.37783" lon="5.18568">
        <ele>299</ele>
        <time>2021-11-13T14:10:29.992Z</time>
      </trkpt>
      <trkpt lat="44.37784" lon="5.18573">
        <ele>299</ele>
        <time>2021-11-13T14:10:30.992Z</time>
      </trkpt>
      <trkpt lat="44.37785" lon="5.18578">
        <ele>299</ele>
        <time>2021-11-13T14:10:31.992Z</time>
      </trkpt>
      <trkpt lat="44.37786" lon="5.18584">
        <ele>299</ele>
        <time>2021-11-13T14:10:32.992Z</time>
      </trkpt>
      <trkpt lat="44.37787" lon="5.18589">
        <ele>299</ele>
        <time>2021-11-13T14:10:33.992Z</time>
      </trkpt>
      <trkpt lat="44.37788" lon="5.18593">
        <ele>298</ele>
        <time>2021-11-13T14:10:34.992Z</time>
      </trkpt>
      <trkpt lat="44.37789" lon="5.18598">
        <ele>298</ele>
        <time>2021-11-13T14:10:35.992Z</time>
      </trkpt>
      <trkpt lat="44.3779" lon="5.18603">
        <ele>299</ele>
        <time>2021-11-13T14:10:36.992Z</time>
      </trkpt>
      <trkpt lat="44.37792" lon="5.18609">
        <ele>299</ele>
        <time>2021-11-13T14:10:37.992Z</time>
      </trkpt>
      <trkpt lat="44.37793" lon="5.18614">
        <ele>299</ele>
        <time>2021-11-13T14:10:38.992Z</time>
      </trkpt>
      <trkpt lat="44.37794" lon="5.18618">
        <ele>300</ele>
        <time>2021-11-13T14:10:39.991Z</time>
      </trkpt>
      <trkpt lat="44.37795" lon="5.18622">
        <ele>300</ele>
        <time>2021-11-13T14:10:40.992Z</time>
      </trkpt>
      <trkpt lat="44.37796" lon="5.18628">
        <ele>300</ele>
        <time>2021-11-13T14:10:41.992Z</time>
      </trkpt>
      <trkpt lat="44.37797" lon="5.18632">
        <ele>300</ele>
        <time>2021-11-13T14:10:42.992Z</time>
      </trkpt>
      <trkpt lat="44.37798" lon="5.18636">
        <ele>300</ele>
        <time>2021-11-13T14:10:43.991Z</time>
      </trkpt>
      <trkpt lat="44.37799" lon="5.1864">
        <ele>300</ele>
        <time>2021-11-13T14:10:44.992Z</time>
      </trkpt>
      <trkpt lat="44.378" lon="5.18644">
        <ele>301</ele>
        <time>2021-11-13T14:10:45.992Z</time>
      </trkpt>
      <trkpt lat="44.37801" lon="5.1865">
        <ele>301</ele>
        <time>2021-11-13T14:10:46.991Z</time>
      </trkpt>
      <trkpt lat="44.37802" lon="5.18654">
        <ele>302</ele>
        <time>2021-11-13T14:10:47.992Z</time>
      </trkpt>
      <trkpt lat="44.37803" lon="5.18659">
        <ele>302</ele>
        <time>2021-11-13T14:10:48.992Z</time>
      </trkpt>
      <trkpt lat="44.37804" lon="5.18662">
        <ele>302</ele>
        <time>2021-11-13T14:10:49.992Z</time>
      </trkpt>
      <trkpt lat="44.37804" lon="5.18667">
        <ele>302</ele>
        <time>2021-11-13T14:10:50.991Z</time>
      </trkpt>
      <trkpt lat="44.37805" lon="5.18671">
        <ele>302</ele>
        <time>2021-11-13T14:10:51.992Z</time>
      </trkpt>
      <trkpt lat="44.37807" lon="5.18676">
        <ele>302</ele>
        <time>2021-11-13T14:10:52.991Z</time>
      </trkpt>
      <trkpt lat="44.37808" lon="5.1868">
        <ele>301</ele>
        <time>2021-11-13T14:10:53.992Z</time>
      </trkpt>
      <trkpt lat="44.37809" lon="5.18684">
        <ele>302</ele>
        <time>2021-11-13T14:10:54.992Z</time>
      </trkpt>
      <trkpt lat="44.37809" lon="5.18689">
        <ele>302</ele>
        <time>2021-11-13T14:10:55.991Z</time>
      </trkpt>
      <trkpt lat="44.37808" lon="5.18693">
        <ele>302</ele>
        <time>2021-11-13T14:10:56.992Z</time>
      </trkpt>
      <trkpt lat="44.37808" lon="5.18696">
        <ele>301</ele>
        <time>2021-11-13T14:10:57.992Z</time>
      </trkpt>
      <trkpt lat="44.37807" lon="5.187">
        <ele>301</ele>
        <time>2021-11-13T14:10:58.992Z</time>
      </trkpt>
      <trkpt lat="44.37805" lon="5.18705">
        <ele>301</ele>
        <time>2021-11-13T14:10:59.992Z</time>
      </trkpt>
      <trkpt lat="44.37804" lon="5.18709">
        <ele>301</ele>
        <time>2021-11-13T14:11:00.991Z</time>
      </trkpt>
      <trkpt lat="44.37802" lon="5.18713">
        <ele>301</ele>
        <time>2021-11-13T14:11:01.992Z</time>
      </trkpt>
      <trkpt lat="44.378" lon="5.18716">
        <ele>301</ele>
        <time>2021-11-13T14:11:02.991Z</time>
      </trkpt>
      <trkpt lat="44.37797" lon="5.1872">
        <ele>301</ele>
        <time>2021-11-13T14:11:03.991Z</time>
      </trkpt>
      <trkpt lat="44.37795" lon="5.18724">
        <ele>301</ele>
        <time>2021-11-13T14:11:04.992Z</time>
      </trkpt>
      <trkpt lat="44.37793" lon="5.18727">
        <ele>301</ele>
        <time>2021-11-13T14:11:05.991Z</time>
      </trkpt>
      <trkpt lat="44.37791" lon="5.1873">
        <ele>301</ele>
        <time>2021-11-13T14:11:06.991Z</time>
      </trkpt>
      <trkpt lat="44.37789" lon="5.18733">
        <ele>301</ele>
        <time>2021-11-13T14:11:07.991Z</time>
      </trkpt>
      <trkpt lat="44.37786" lon="5.18736">
        <ele>301</ele>
        <time>2021-11-13T14:11:08.991Z</time>
      </trkpt>
      <trkpt lat="44.37783" lon="5.1874">
        <ele>301</ele>
        <time>2021-11-13T14:11:09.992Z</time>
      </trkpt>
      <trkpt lat="44.37781" lon="5.18743">
        <ele>302</ele>
        <time>2021-11-13T14:11:10.991Z</time>
      </trkpt>
      <trkpt lat="44.37779" lon="5.18746">
        <ele>302</ele>
        <time>2021-11-13T14:11:11.992Z</time>
      </trkpt>
      <trkpt lat="44.37776" lon="5.18749">
        <ele>302</ele>
        <time>2021-11-13T14:11:12.992Z</time>
      </trkpt>
      <trkpt lat="44.37774" lon="5.18753">
        <ele>302</ele>
        <time>2021-11-13T14:11:13.992Z</time>
      </trkpt>
      <trkpt lat="44.37773" lon="5.18757">
        <ele>301</ele>
        <time>2021-11-13T14:11:14.992Z</time>
      </trkpt>
      <trkpt lat="44.37772" lon="5.18761">
        <ele>301</ele>
        <time>2021-11-13T14:11:15.991Z</time>
      </trkpt>
      <trkpt lat="44.37772" lon="5.18764">
        <ele>301</ele>
        <time>2021-11-13T14:11:16.991Z</time>
      </trkpt>
      <trkpt lat="44.37772" lon="5.18768">
        <ele>301</ele>
        <time>2021-11-13T14:11:17.992Z</time>
      </trkpt>
      <trkpt lat="44.37773" lon="5.18772">
        <ele>301</ele>
        <time>2021-11-13T14:11:18.991Z</time>
      </trkpt>
      <trkpt lat="44.37774" lon="5.18775">
        <ele>301</ele>
        <time>2021-11-13T14:11:19.992Z</time>
      </trkpt>
      <trkpt lat="44.37775" lon="5.18778">
        <ele>301</ele>
        <time>2021-11-13T14:11:20.991Z</time>
      </trkpt>
      <trkpt lat="44.37777" lon="5.18781">
        <ele>301</ele>
        <time>2021-11-13T14:11:21.992Z</time>
      </trkpt>
      <trkpt lat="44.37779" lon="5.18785">
        <ele>300</ele>
        <time>2021-11-13T14:11:22.992Z</time>
      </trkpt>
      <trkpt lat="44.3778" lon="5.18788">
        <ele>300</ele>
        <time>2021-11-13T14:11:23.992Z</time>
      </trkpt>
      <trkpt lat="44.37782" lon="5.18791">
        <ele>300</ele>
        <time>2021-11-13T14:11:24.991Z</time>
      </trkpt>
      <trkpt lat="44.37784" lon="5.18794">
        <ele>300</ele>
        <time>2021-11-13T14:11:25.992Z</time>
      </trkpt>
      <trkpt lat="44.37786" lon="5.18797">
        <ele>300</ele>
        <time>2021-11-13T14:11:26.991Z</time>
      </trkpt>
      <trkpt lat="44.37787" lon="5.188">
        <ele>300</ele>
        <time>2021-11-13T14:11:27.991Z</time>
      </trkpt>
      <trkpt lat="44.37788" lon="5.18802">
        <ele>300</ele>
        <time>2021-11-13T14:11:28.991Z</time>
      </trkpt>
      <trkpt lat="44.37788" lon="5.18802">
        <ele>300</ele>
        <time>2021-11-13T14:11:29.992Z</time>
      </trkpt>
      <trkpt lat="44.37788" lon="5.18803">
        <ele>300</ele>
        <time>2021-11-13T14:11:30.991Z</time>
      </trkpt>
      <trkpt lat="44.37789" lon="5.18803">
        <ele>300</ele>
        <time>2021-11-13T14:11:31.991Z</time>
      </trkpt>
      <trkpt lat="44.37793" lon="5.18807">
        <ele>299</ele>
        <time>2021-11-13T14:11:32.991Z</time>
      </trkpt>
      <trkpt lat="44.37795" lon="5.18811">
        <ele>299</ele>
        <time>2021-11-13T14:11:33.992Z</time>
      </trkpt>
      <trkpt lat="44.37797" lon="5.18815">
        <ele>299</ele>
        <time>2021-11-13T14:11:34.991Z</time>
      </trkpt>
      <trkpt lat="44.37799" lon="5.1882">
        <ele>299</ele>
        <time>2021-11-13T14:11:35.992Z</time>
      </trkpt>
      <trkpt lat="44.378" lon="5.18826">
        <ele>300</ele>
        <time>2021-11-13T14:11:36.992Z</time>
      </trkpt>
      <trkpt lat="44.37802" lon="5.1883">
        <ele>300</ele>
        <time>2021-11-13T14:11:37.991Z</time>
      </trkpt>
      <trkpt lat="44.37804" lon="5.18836">
        <ele>300</ele>
        <time>2021-11-13T14:11:38.992Z</time>
      </trkpt>
      <trkpt lat="44.37806" lon="5.18842">
        <ele>299</ele>
        <time>2021-11-13T14:11:39.992Z</time>
      </trkpt>
      <trkpt lat="44.37808" lon="5.18848">
        <ele>299</ele>
        <time>2021-11-13T14:11:40.991Z</time>
      </trkpt>
      <trkpt lat="44.3781" lon="5.18853">
        <ele>299</ele>
        <time>2021-11-13T14:11:41.991Z</time>
      </trkpt>
      <trkpt lat="44.37812" lon="5.18858">
        <ele>299</ele>
        <time>2021-11-13T14:11:42.992Z</time>
      </trkpt>
      <trkpt lat="44.37814" lon="5.18864">
        <ele>298</ele>
        <time>2021-11-13T14:11:43.992Z</time>
      </trkpt>
      <trkpt lat="44.37816" lon="5.18869">
        <ele>298</ele>
        <time>2021-11-13T14:11:44.992Z</time>
      </trkpt>
      <trkpt lat="44.37817" lon="5.18875">
        <ele>299</ele>
        <time>2021-11-13T14:11:45.992Z</time>
      </trkpt>
      <trkpt lat="44.37818" lon="5.18879">
        <ele>299</ele>
        <time>2021-11-13T14:11:46.991Z</time>
      </trkpt>
      <trkpt lat="44.3782" lon="5.18884">
        <ele>299</ele>
        <time>2021-11-13T14:11:47.991Z</time>
      </trkpt>
      <trkpt lat="44.37821" lon="5.18891">
        <ele>299</ele>
        <time>2021-11-13T14:11:48.991Z</time>
      </trkpt>
      <trkpt lat="44.37823" lon="5.18896">
        <ele>299</ele>
        <time>2021-11-13T14:11:49.992Z</time>
      </trkpt>
      <trkpt lat="44.37823" lon="5.18901">
        <ele>299</ele>
        <time>2021-11-13T14:11:50.992Z</time>
      </trkpt>
      <trkpt lat="44.37824" lon="5.18907">
        <ele>299</ele>
        <time>2021-11-13T14:11:51.991Z</time>
      </trkpt>
      <trkpt lat="44.37826" lon="5.18914">
        <ele>299</ele>
        <time>2021-11-13T14:11:52.992Z</time>
      </trkpt>
      <trkpt lat="44.37827" lon="5.18919">
        <ele>299</ele>
        <time>2021-11-13T14:11:53.992Z</time>
      </trkpt>
      <trkpt lat="44.37827" lon="5.18925">
        <ele>298</ele>
        <time>2021-11-13T14:11:54.992Z</time>
      </trkpt>
      <trkpt lat="44.37828" lon="5.18929">
        <ele>298</ele>
        <time>2021-11-13T14:11:55.992Z</time>
      </trkpt>
      <trkpt lat="44.37829" lon="5.18936">
        <ele>299</ele>
        <time>2021-11-13T14:11:56.992Z</time>
      </trkpt>
      <trkpt lat="44.3783" lon="5.18941">
        <ele>299</ele>
        <time>2021-11-13T14:11:57.992Z</time>
      </trkpt>
      <trkpt lat="44.3783" lon="5.18946">
        <ele>299</ele>
        <time>2021-11-13T14:11:58.992Z</time>
      </trkpt>
      <trkpt lat="44.37831" lon="5.18951">
        <ele>299</ele>
        <time>2021-11-13T14:11:59.991Z</time>
      </trkpt>
      <trkpt lat="44.37831" lon="5.18955">
        <ele>299</ele>
        <time>2021-11-13T14:12:00.991Z</time>
      </trkpt>
      <trkpt lat="44.37831" lon="5.18961">
        <ele>299</ele>
        <time>2021-11-13T14:12:01.992Z</time>
      </trkpt>
      <trkpt lat="44.37832" lon="5.18967">
        <ele>299</ele>
        <time>2021-11-13T14:12:02.992Z</time>
      </trkpt>
      <trkpt lat="44.37832" lon="5.18972">
        <ele>299</ele>
        <time>2021-11-13T14:12:03.992Z</time>
      </trkpt>
      <trkpt lat="44.37832" lon="5.18978">
        <ele>299</ele>
        <time>2021-11-13T14:12:04.991Z</time>
      </trkpt>
      <trkpt lat="44.37832" lon="5.18983">
        <ele>298</ele>
        <time>2021-11-13T14:12:05.992Z</time>
      </trkpt>
      <trkpt lat="44.37831" lon="5.18991">
        <ele>298</ele>
        <time>2021-11-13T14:12:06.991Z</time>
      </trkpt>
      <trkpt lat="44.3783" lon="5.18997">
        <ele>298</ele>
        <time>2021-11-13T14:12:07.992Z</time>
      </trkpt>
      <trkpt lat="44.37828" lon="5.19003">
        <ele>297</ele>
        <time>2021-11-13T14:12:08.991Z</time>
      </trkpt>
      <trkpt lat="44.37828" lon="5.19009">
        <ele>297</ele>
        <time>2021-11-13T14:12:09.991Z</time>
      </trkpt>
      <trkpt lat="44.37828" lon="5.19015">
        <ele>296</ele>
        <time>2021-11-13T14:12:10.991Z</time>
      </trkpt>
      <trkpt lat="44.37829" lon="5.19021">
        <ele>296</ele>
        <time>2021-11-13T14:12:11.992Z</time>
      </trkpt>
      <trkpt lat="44.3783" lon="5.19026">
        <ele>296</ele>
        <time>2021-11-13T14:12:12.992Z</time>
      </trkpt>
      <trkpt lat="44.37832" lon="5.19029">
        <ele>296</ele>
        <time>2021-11-13T14:12:13.992Z</time>
      </trkpt>
      <trkpt lat="44.37834" lon="5.19032">
        <ele>296</ele>
        <time>2021-11-13T14:12:14.992Z</time>
      </trkpt>
      <trkpt lat="44.37836" lon="5.19034">
        <ele>297</ele>
        <time>2021-11-13T14:12:15.992Z</time>
      </trkpt>
      <trkpt lat="44.37838" lon="5.19037">
        <ele>297</ele>
        <time>2021-11-13T14:12:16.992Z</time>
      </trkpt>
      <trkpt lat="44.3784" lon="5.19039">
        <ele>297</ele>
        <time>2021-11-13T14:12:17.991Z</time>
      </trkpt>
      <trkpt lat="44.37842" lon="5.19041">
        <ele>298</ele>
        <time>2021-11-13T14:12:18.992Z</time>
      </trkpt>
      <trkpt lat="44.37844" lon="5.19044">
        <ele>298</ele>
        <time>2021-11-13T14:12:19.992Z</time>
      </trkpt>
      <trkpt lat="44.37846" lon="5.19047">
        <ele>299</ele>
        <time>2021-11-13T14:12:20.992Z</time>
      </trkpt>
      <trkpt lat="44.37847" lon="5.1905">
        <ele>299</ele>
        <time>2021-11-13T14:12:21.992Z</time>
      </trkpt>
      <trkpt lat="44.37847" lon="5.19053">
        <ele>299</ele>
        <time>2021-11-13T14:12:22.992Z</time>
      </trkpt>
      <trkpt lat="44.37846" lon="5.19056">
        <ele>300</ele>
        <time>2021-11-13T14:12:23.992Z</time>
      </trkpt>
      <trkpt lat="44.37845" lon="5.19059">
        <ele>300</ele>
        <time>2021-11-13T14:12:24.992Z</time>
      </trkpt>
      <trkpt lat="44.37842" lon="5.19061">
        <ele>300</ele>
        <time>2021-11-13T14:12:25.992Z</time>
      </trkpt>
      <trkpt lat="44.3784" lon="5.19063">
        <ele>300</ele>
        <time>2021-11-13T14:12:26.992Z</time>
      </trkpt>
      <trkpt lat="44.37839" lon="5.19066">
        <ele>301</ele>
        <time>2021-11-13T14:12:27.992Z</time>
      </trkpt>
      <trkpt lat="44.37838" lon="5.19069">
        <ele>301</ele>
        <time>2021-11-13T14:12:28.991Z</time>
      </trkpt>
      <trkpt lat="44.37837" lon="5.19074">
        <ele>301</ele>
        <time>2021-11-13T14:12:29.992Z</time>
      </trkpt>
      <trkpt lat="44.37838" lon="5.19078">
        <ele>301</ele>
        <time>2021-11-13T14:12:30.992Z</time>
      </trkpt>
      <trkpt lat="44.37839" lon="5.19083">
        <ele>301</ele>
        <time>2021-11-13T14:12:31.992Z</time>
      </trkpt>
      <trkpt lat="44.3784" lon="5.1909">
        <ele>302</ele>
        <time>2021-11-13T14:12:32.992Z</time>
      </trkpt>
      <trkpt lat="44.37841" lon="5.19099">
        <ele>302</ele>
        <time>2021-11-13T14:12:33.992Z</time>
      </trkpt>
      <trkpt lat="44.37841" lon="5.19105">
        <ele>302</ele>
        <time>2021-11-13T14:12:34.991Z</time>
      </trkpt>
      <trkpt lat="44.37842" lon="5.19113">
        <ele>302</ele>
        <time>2021-11-13T14:12:35.991Z</time>
      </trkpt>
      <trkpt lat="44.37843" lon="5.19118">
        <ele>302</ele>
        <time>2021-11-13T14:12:36.992Z</time>
      </trkpt>
      <trkpt lat="44.37844" lon="5.19123">
        <ele>303</ele>
        <time>2021-11-13T14:12:37.991Z</time>
      </trkpt>
      <trkpt lat="44.37845" lon="5.19128">
        <ele>303</ele>
        <time>2021-11-13T14:12:38.992Z</time>
      </trkpt>
      <trkpt lat="44.37845" lon="5.19132">
        <ele>303</ele>
        <time>2021-11-13T14:12:39.992Z</time>
      </trkpt>
      <trkpt lat="44.37845" lon="5.19137">
        <ele>303</ele>
        <time>2021-11-13T14:12:40.992Z</time>
      </trkpt>
      <trkpt lat="44.37845" lon="5.1914">
        <ele>303</ele>
        <time>2021-11-13T14:12:41.992Z</time>
      </trkpt>
      <trkpt lat="44.37846" lon="5.19144">
        <ele>303</ele>
        <time>2021-11-13T14:12:42.992Z</time>
      </trkpt>
      <trkpt lat="44.37846" lon="5.19147">
        <ele>303</ele>
        <time>2021-11-13T14:12:43.992Z</time>
      </trkpt>
      <trkpt lat="44.37846" lon="5.19151">
        <ele>303</ele>
        <time>2021-11-13T14:12:44.991Z</time>
      </trkpt>
      <trkpt lat="44.37845" lon="5.19155">
        <ele>303</ele>
        <time>2021-11-13T14:12:45.992Z</time>
      </trkpt>
      <trkpt lat="44.37845" lon="5.19158">
        <ele>304</ele>
        <time>2021-11-13T14:12:46.992Z</time>
      </trkpt>
      <trkpt lat="44.37845" lon="5.19161">
        <ele>304</ele>
        <time>2021-11-13T14:12:47.992Z</time>
      </trkpt>
      <trkpt lat="44.37844" lon="5.19164">
        <ele>304</ele>
        <time>2021-11-13T14:12:48.992Z</time>
      </trkpt>
      <trkpt lat="44.37843" lon="5.19167">
        <ele>304</ele>
        <time>2021-11-13T14:12:49.991Z</time>
      </trkpt>
      <trkpt lat="44.37842" lon="5.1917">
        <ele>304</ele>
        <time>2021-11-13T14:12:50.992Z</time>
      </trkpt>
      <trkpt lat="44.37841" lon="5.19173">
        <ele>304</ele>
        <time>2021-11-13T14:12:51.991Z</time>
      </trkpt>
      <trkpt lat="44.37841" lon="5.19177">
        <ele>304</ele>
        <time>2021-11-13T14:12:52.992Z</time>
      </trkpt>
      <trkpt lat="44.3784" lon="5.1918">
        <ele>304</ele>
        <time>2021-11-13T14:12:53.991Z</time>
      </trkpt>
      <trkpt lat="44.37839" lon="5.19184">
        <ele>305</ele>
        <time>2021-11-13T14:12:54.992Z</time>
      </trkpt>
      <trkpt lat="44.37838" lon="5.19187">
        <ele>305</ele>
        <time>2021-11-13T14:12:55.992Z</time>
      </trkpt>
      <trkpt lat="44.37837" lon="5.1919">
        <ele>305</ele>
        <time>2021-11-13T14:12:56.992Z</time>
      </trkpt>
      <trkpt lat="44.37836" lon="5.19193">
        <ele>305</ele>
        <time>2021-11-13T14:12:57.992Z</time>
      </trkpt>
      <trkpt lat="44.37835" lon="5.19196">
        <ele>305</ele>
        <time>2021-11-13T14:12:58.992Z</time>
      </trkpt>
      <trkpt lat="44.37834" lon="5.192">
        <ele>304</ele>
        <time>2021-11-13T14:12:59.991Z</time>
      </trkpt>
      <trkpt lat="44.37833" lon="5.19203">
        <ele>304</ele>
        <time>2021-11-13T14:13:00.992Z</time>
      </trkpt>
      <trkpt lat="44.37832" lon="5.19207">
        <ele>304</ele>
        <time>2021-11-13T14:13:01.992Z</time>
      </trkpt>
      <trkpt lat="44.3783" lon="5.1921">
        <ele>304</ele>
        <time>2021-11-13T14:13:02.992Z</time>
      </trkpt>
      <trkpt lat="44.37829" lon="5.19214">
        <ele>304</ele>
        <time>2021-11-13T14:13:03.992Z</time>
      </trkpt>
      <trkpt lat="44.37828" lon="5.19218">
        <ele>305</ele>
        <time>2021-11-13T14:13:04.992Z</time>
      </trkpt>
      <trkpt lat="44.37828" lon="5.19222">
        <ele>305</ele>
        <time>2021-11-13T14:13:05.991Z</time>
      </trkpt>
      <trkpt lat="44.37827" lon="5.19226">
        <ele>305</ele>
        <time>2021-11-13T14:13:06.992Z</time>
      </trkpt>
      <trkpt lat="44.37826" lon="5.1923">
        <ele>305</ele>
        <time>2021-11-13T14:13:07.992Z</time>
      </trkpt>
      <trkpt lat="44.37825" lon="5.19234">
        <ele>305</ele>
        <time>2021-11-13T14:13:08.992Z</time>
      </trkpt>
      <trkpt lat="44.37825" lon="5.19238">
        <ele>305</ele>
        <time>2021-11-13T14:13:09.991Z</time>
      </trkpt>
      <trkpt lat="44.37824" lon="5.19242">
        <ele>306</ele>
        <time>2021-11-13T14:13:10.991Z</time>
      </trkpt>
      <trkpt lat="44.37824" lon="5.19246">
        <ele>306</ele>
        <time>2021-11-13T14:13:11.992Z</time>
      </trkpt>
      <trkpt lat="44.37823" lon="5.19249">
        <ele>306</ele>
        <time>2021-11-13T14:13:12.992Z</time>
      </trkpt>
      <trkpt lat="44.37823" lon="5.19252">
        <ele>306</ele>
        <time>2021-11-13T14:13:13.992Z</time>
      </trkpt>
      <trkpt lat="44.37822" lon="5.19255">
        <ele>307</ele>
        <time>2021-11-13T14:13:14.992Z</time>
      </trkpt>
      <trkpt lat="44.37822" lon="5.19258">
        <ele>307</ele>
        <time>2021-11-13T14:13:15.992Z</time>
      </trkpt>
      <trkpt lat="44.37822" lon="5.19262">
        <ele>307</ele>
        <time>2021-11-13T14:13:16.991Z</time>
      </trkpt>
      <trkpt lat="44.37822" lon="5.19266">
        <ele>307</ele>
        <time>2021-11-13T14:13:17.992Z</time>
      </trkpt>
      <trkpt lat="44.37822" lon="5.19269">
        <ele>307</ele>
        <time>2021-11-13T14:13:18.992Z</time>
      </trkpt>
      <trkpt lat="44.37822" lon="5.19274">
        <ele>307</ele>
        <time>2021-11-13T14:13:19.992Z</time>
      </trkpt>
      <trkpt lat="44.37822" lon="5.19278">
        <ele>307</ele>
        <time>2021-11-13T14:13:20.991Z</time>
      </trkpt>
      <trkpt lat="44.37822" lon="5.19283">
        <ele>307</ele>
        <time>2021-11-13T14:13:21.991Z</time>
      </trkpt>
      <trkpt lat="44.37822" lon="5.19287">
        <ele>307</ele>
        <time>2021-11-13T14:13:22.992Z</time>
      </trkpt>
      <trkpt lat="44.37822" lon="5.19291">
        <ele>307</ele>
        <time>2021-11-13T14:13:23.991Z</time>
      </trkpt>
      <trkpt lat="44.37821" lon="5.19296">
        <ele>307</ele>
        <time>2021-11-13T14:13:24.992Z</time>
      </trkpt>
      <trkpt lat="44.37821" lon="5.193">
        <ele>306</ele>
        <time>2021-11-13T14:13:25.992Z</time>
      </trkpt>
      <trkpt lat="44.37821" lon="5.19305">
        <ele>306</ele>
        <time>2021-11-13T14:13:26.992Z</time>
      </trkpt>
      <trkpt lat="44.3782" lon="5.1931">
        <ele>306</ele>
        <time>2021-11-13T14:13:27.991Z</time>
      </trkpt>
      <trkpt lat="44.3782" lon="5.19314">
        <ele>307</ele>
        <time>2021-11-13T14:13:28.992Z</time>
      </trkpt>
      <trkpt lat="44.3782" lon="5.19319">
        <ele>307</ele>
        <time>2021-11-13T14:13:29.992Z</time>
      </trkpt>
      <trkpt lat="44.37819" lon="5.19323">
        <ele>307</ele>
        <time>2021-11-13T14:13:30.992Z</time>
      </trkpt>
      <trkpt lat="44.37819" lon="5.19328">
        <ele>307</ele>
        <time>2021-11-13T14:13:31.992Z</time>
      </trkpt>
      <trkpt lat="44.37818" lon="5.19332">
        <ele>307</ele>
        <time>2021-11-13T14:13:32.992Z</time>
      </trkpt>
      <trkpt lat="44.37818" lon="5.19337">
        <ele>307</ele>
        <time>2021-11-13T14:13:33.992Z</time>
      </trkpt>
      <trkpt lat="44.37818" lon="5.19341">
        <ele>308</ele>
        <time>2021-11-13T14:13:34.992Z</time>
      </trkpt>
      <trkpt lat="44.37818" lon="5.19345">
        <ele>308</ele>
        <time>2021-11-13T14:13:35.991Z</time>
      </trkpt>
      <trkpt lat="44.37817" lon="5.1935">
        <ele>308</ele>
        <time>2021-11-13T14:13:36.992Z</time>
      </trkpt>
      <trkpt lat="44.37817" lon="5.19354">
        <ele>308</ele>
        <time>2021-11-13T14:13:37.991Z</time>
      </trkpt>
      <trkpt lat="44.37817" lon="5.19359">
        <ele>309</ele>
        <time>2021-11-13T14:13:38.992Z</time>
      </trkpt>
      <trkpt lat="44.37817" lon="5.19363">
        <ele>309</ele>
        <time>2021-11-13T14:13:39.992Z</time>
      </trkpt>
      <trkpt lat="44.37816" lon="5.19368">
        <ele>309</ele>
        <time>2021-11-13T14:13:40.991Z</time>
      </trkpt>
      <trkpt lat="44.37816" lon="5.19372">
        <ele>309</ele>
        <time>2021-11-13T14:13:41.991Z</time>
      </trkpt>
      <trkpt lat="44.37815" lon="5.19377">
        <ele>309</ele>
        <time>2021-11-13T14:13:42.992Z</time>
      </trkpt>
      <trkpt lat="44.37815" lon="5.19381">
        <ele>309</ele>
        <time>2021-11-13T14:13:43.992Z</time>
      </trkpt>
      <trkpt lat="44.37814" lon="5.19386">
        <ele>309</ele>
        <time>2021-11-13T14:13:44.992Z</time>
      </trkpt>
      <trkpt lat="44.37814" lon="5.1939">
        <ele>309</ele>
        <time>2021-11-13T14:13:45.991Z</time>
      </trkpt>
      <trkpt lat="44.37814" lon="5.19395">
        <ele>308</ele>
        <time>2021-11-13T14:13:46.992Z</time>
      </trkpt>
      <trkpt lat="44.37814" lon="5.194">
        <ele>308</ele>
        <time>2021-11-13T14:13:47.991Z</time>
      </trkpt>
      <trkpt lat="44.37813" lon="5.19404">
        <ele>308</ele>
        <time>2021-11-13T14:13:48.991Z</time>
      </trkpt>
      <trkpt lat="44.37813" lon="5.19409">
        <ele>308</ele>
        <time>2021-11-13T14:13:49.991Z</time>
      </trkpt>
      <trkpt lat="44.37813" lon="5.19414">
        <ele>308</ele>
        <time>2021-11-13T14:13:50.991Z</time>
      </trkpt>
      <trkpt lat="44.37814" lon="5.19419">
        <ele>308</ele>
        <time>2021-11-13T14:13:51.992Z</time>
      </trkpt>
      <trkpt lat="44.37814" lon="5.19424">
        <ele>308</ele>
        <time>2021-11-13T14:13:52.991Z</time>
      </trkpt>
      <trkpt lat="44.37814" lon="5.19427">
        <ele>308</ele>
        <time>2021-11-13T14:13:53.992Z</time>
      </trkpt>
      <trkpt lat="44.37815" lon="5.19432">
        <ele>308</ele>
        <time>2021-11-13T14:13:54.991Z</time>
      </trkpt>
      <trkpt lat="44.37816" lon="5.19437">
        <ele>308</ele>
        <time>2021-11-13T14:13:55.991Z</time>
      </trkpt>
      <trkpt lat="44.37817" lon="5.19442">
        <ele>308</ele>
        <time>2021-11-13T14:13:56.991Z</time>
      </trkpt>
      <trkpt lat="44.37817" lon="5.19446">
        <ele>308</ele>
        <time>2021-11-13T14:13:57.991Z</time>
      </trkpt>
      <trkpt lat="44.37818" lon="5.19451">
        <ele>307</ele>
        <time>2021-11-13T14:13:58.992Z</time>
      </trkpt>
      <trkpt lat="44.37819" lon="5.19456">
        <ele>307</ele>
        <time>2021-11-13T14:13:59.992Z</time>
      </trkpt>
      <trkpt lat="44.3782" lon="5.19461">
        <ele>307</ele>
        <time>2021-11-13T14:14:00.991Z</time>
      </trkpt>
      <trkpt lat="44.37821" lon="5.19466">
        <ele>307</ele>
        <time>2021-11-13T14:14:01.991Z</time>
      </trkpt>
      <trkpt lat="44.37822" lon="5.19471">
        <ele>307</ele>
        <time>2021-11-13T14:14:02.992Z</time>
      </trkpt>
      <trkpt lat="44.37824" lon="5.19476">
        <ele>307</ele>
        <time>2021-11-13T14:14:03.992Z</time>
      </trkpt>
      <trkpt lat="44.37825" lon="5.1948">
        <ele>307</ele>
        <time>2021-11-13T14:14:04.992Z</time>
      </trkpt>
      <trkpt lat="44.37826" lon="5.19485">
        <ele>307</ele>
        <time>2021-11-13T14:14:05.992Z</time>
      </trkpt>
      <trkpt lat="44.37828" lon="5.19489">
        <ele>307</ele>
        <time>2021-11-13T14:14:06.991Z</time>
      </trkpt>
      <trkpt lat="44.37829" lon="5.19493">
        <ele>308</ele>
        <time>2021-11-13T14:14:07.992Z</time>
      </trkpt>
      <trkpt lat="44.3783" lon="5.19498">
        <ele>307</ele>
        <time>2021-11-13T14:14:08.991Z</time>
      </trkpt>
      <trkpt lat="44.37831" lon="5.19502">
        <ele>307</ele>
        <time>2021-11-13T14:14:09.992Z</time>
      </trkpt>
      <trkpt lat="44.37831" lon="5.19506">
        <ele>307</ele>
        <time>2021-11-13T14:14:10.992Z</time>
      </trkpt>
      <trkpt lat="44.37832" lon="5.19511">
        <ele>307</ele>
        <time>2021-11-13T14:14:11.992Z</time>
      </trkpt>
      <trkpt lat="44.37833" lon="5.19515">
        <ele>307</ele>
        <time>2021-11-13T14:14:12.992Z</time>
      </trkpt>
      <trkpt lat="44.37834" lon="5.1952">
        <ele>307</ele>
        <time>2021-11-13T14:14:13.992Z</time>
      </trkpt>
      <trkpt lat="44.37835" lon="5.19525">
        <ele>307</ele>
        <time>2021-11-13T14:14:14.992Z</time>
      </trkpt>
      <trkpt lat="44.37835" lon="5.1953">
        <ele>307</ele>
        <time>2021-11-13T14:14:15.991Z</time>
      </trkpt>
      <trkpt lat="44.37836" lon="5.19535">
        <ele>307</ele>
        <time>2021-11-13T14:14:16.991Z</time>
      </trkpt>
      <trkpt lat="44.37837" lon="5.1954">
        <ele>307</ele>
        <time>2021-11-13T14:14:17.991Z</time>
      </trkpt>
      <trkpt lat="44.37838" lon="5.19545">
        <ele>307</ele>
        <time>2021-11-13T14:14:18.992Z</time>
      </trkpt>
      <trkpt lat="44.37839" lon="5.1955">
        <ele>307</ele>
        <time>2021-11-13T14:14:19.991Z</time>
      </trkpt>
      <trkpt lat="44.37839" lon="5.19556">
        <ele>307</ele>
        <time>2021-11-13T14:14:20.992Z</time>
      </trkpt>
      <trkpt lat="44.3784" lon="5.19561">
        <ele>307</ele>
        <time>2021-11-13T14:14:21.991Z</time>
      </trkpt>
      <trkpt lat="44.3784" lon="5.19566">
        <ele>307</ele>
        <time>2021-11-13T14:14:22.992Z</time>
      </trkpt>
      <trkpt lat="44.37841" lon="5.19572">
        <ele>307</ele>
        <time>2021-11-13T14:14:23.992Z</time>
      </trkpt>
      <trkpt lat="44.37841" lon="5.19577">
        <ele>306</ele>
        <time>2021-11-13T14:14:24.992Z</time>
      </trkpt>
      <trkpt lat="44.37841" lon="5.19582">
        <ele>306</ele>
        <time>2021-11-13T14:14:25.992Z</time>
      </trkpt>
      <trkpt lat="44.37842" lon="5.19587">
        <ele>307</ele>
        <time>2021-11-13T14:14:26.992Z</time>
      </trkpt>
      <trkpt lat="44.37842" lon="5.19592">
        <ele>307</ele>
        <time>2021-11-13T14:14:27.991Z</time>
      </trkpt>
      <trkpt lat="44.37844" lon="5.19596">
        <ele>308</ele>
        <time>2021-11-13T14:14:28.992Z</time>
      </trkpt>
      <trkpt lat="44.37845" lon="5.19601">
        <ele>308</ele>
        <time>2021-11-13T14:14:29.992Z</time>
      </trkpt>
      <trkpt lat="44.37846" lon="5.19606">
        <ele>309</ele>
        <time>2021-11-13T14:14:30.991Z</time>
      </trkpt>
      <trkpt lat="44.37848" lon="5.1961">
        <ele>309</ele>
        <time>2021-11-13T14:14:31.992Z</time>
      </trkpt>
      <trkpt lat="44.37849" lon="5.19615">
        <ele>309</ele>
        <time>2021-11-13T14:14:32.992Z</time>
      </trkpt>
      <trkpt lat="44.37851" lon="5.19619">
        <ele>309</ele>
        <time>2021-11-13T14:14:33.992Z</time>
      </trkpt>
      <trkpt lat="44.37853" lon="5.19622">
        <ele>309</ele>
        <time>2021-11-13T14:14:34.992Z</time>
      </trkpt>
      <trkpt lat="44.37855" lon="5.19626">
        <ele>308</ele>
        <time>2021-11-13T14:14:35.992Z</time>
      </trkpt>
      <trkpt lat="44.37856" lon="5.1963">
        <ele>308</ele>
        <time>2021-11-13T14:14:36.991Z</time>
      </trkpt>
      <trkpt lat="44.37858" lon="5.19634">
        <ele>308</ele>
        <time>2021-11-13T14:14:37.992Z</time>
      </trkpt>
      <trkpt lat="44.3786" lon="5.19639">
        <ele>308</ele>
        <time>2021-11-13T14:14:38.992Z</time>
      </trkpt>
      <trkpt lat="44.37862" lon="5.19643">
        <ele>308</ele>
        <time>2021-11-13T14:14:39.991Z</time>
      </trkpt>
      <trkpt lat="44.37864" lon="5.19648">
        <ele>308</ele>
        <time>2021-11-13T14:14:40.992Z</time>
      </trkpt>
      <trkpt lat="44.37866" lon="5.19652">
        <ele>308</ele>
        <time>2021-11-13T14:14:41.991Z</time>
      </trkpt>
      <trkpt lat="44.37868" lon="5.19657">
        <ele>308</ele>
        <time>2021-11-13T14:14:42.992Z</time>
      </trkpt>
      <trkpt lat="44.3787" lon="5.19661">
        <ele>309</ele>
        <time>2021-11-13T14:14:43.992Z</time>
      </trkpt>
      <trkpt lat="44.37873" lon="5.19665">
        <ele>309</ele>
        <time>2021-11-13T14:14:44.992Z</time>
      </trkpt>
      <trkpt lat="44.37875" lon="5.19669">
        <ele>309</ele>
        <time>2021-11-13T14:14:45.992Z</time>
      </trkpt>
      <trkpt lat="44.37878" lon="5.19673">
        <ele>309</ele>
        <time>2021-11-13T14:14:46.992Z</time>
      </trkpt>
      <trkpt lat="44.3788" lon="5.19678">
        <ele>310</ele>
        <time>2021-11-13T14:14:47.992Z</time>
      </trkpt>
      <trkpt lat="44.37882" lon="5.19682">
        <ele>310</ele>
        <time>2021-11-13T14:14:48.992Z</time>
      </trkpt>
      <trkpt lat="44.37884" lon="5.19686">
        <ele>310</ele>
        <time>2021-11-13T14:14:49.992Z</time>
      </trkpt>
      <trkpt lat="44.37886" lon="5.1969">
        <ele>310</ele>
        <time>2021-11-13T14:14:50.991Z</time>
      </trkpt>
      <trkpt lat="44.37888" lon="5.19694">
        <ele>311</ele>
        <time>2021-11-13T14:14:51.992Z</time>
      </trkpt>
      <trkpt lat="44.37891" lon="5.19698">
        <ele>311</ele>
        <time>2021-11-13T14:14:52.991Z</time>
      </trkpt>
      <trkpt lat="44.37893" lon="5.19702">
        <ele>311</ele>
        <time>2021-11-13T14:14:53.991Z</time>
      </trkpt>
      <trkpt lat="44.37896" lon="5.19706">
        <ele>311</ele>
        <time>2021-11-13T14:14:54.992Z</time>
      </trkpt>
      <trkpt lat="44.37898" lon="5.19709">
        <ele>311</ele>
        <time>2021-11-13T14:14:55.992Z</time>
      </trkpt>
      <trkpt lat="44.37901" lon="5.19713">
        <ele>311</ele>
        <time>2021-11-13T14:14:56.991Z</time>
      </trkpt>
      <trkpt lat="44.37903" lon="5.19717">
        <ele>311</ele>
        <time>2021-11-13T14:14:57.991Z</time>
      </trkpt>
      <trkpt lat="44.37905" lon="5.19721">
        <ele>311</ele>
        <time>2021-11-13T14:14:58.991Z</time>
      </trkpt>
      <trkpt lat="44.37907" lon="5.19724">
        <ele>311</ele>
        <time>2021-11-13T14:14:59.992Z</time>
      </trkpt>
      <trkpt lat="44.3791" lon="5.19728">
        <ele>311</ele>
        <time>2021-11-13T14:15:00.992Z</time>
      </trkpt>
      <trkpt lat="44.37913" lon="5.19732">
        <ele>311</ele>
        <time>2021-11-13T14:15:01.992Z</time>
      </trkpt>
      <trkpt lat="44.37916" lon="5.19735">
        <ele>312</ele>
        <time>2021-11-13T14:15:02.991Z</time>
      </trkpt>
      <trkpt lat="44.37918" lon="5.19738">
        <ele>312</ele>
        <time>2021-11-13T14:15:03.991Z</time>
      </trkpt>
      <trkpt lat="44.37921" lon="5.19741">
        <ele>312</ele>
        <time>2021-11-13T14:15:04.992Z</time>
      </trkpt>
      <trkpt lat="44.37923" lon="5.19744">
        <ele>312</ele>
        <time>2021-11-13T14:15:05.992Z</time>
      </trkpt>
      <trkpt lat="44.37926" lon="5.19747">
        <ele>312</ele>
        <time>2021-11-13T14:15:06.991Z</time>
      </trkpt>
      <trkpt lat="44.37928" lon="5.1975">
        <ele>313</ele>
        <time>2021-11-13T14:15:07.992Z</time>
      </trkpt>
      <trkpt lat="44.3793" lon="5.19753">
        <ele>313</ele>
        <time>2021-11-13T14:15:08.991Z</time>
      </trkpt>
      <trkpt lat="44.37933" lon="5.19756">
        <ele>313</ele>
        <time>2021-11-13T14:15:09.991Z</time>
      </trkpt>
      <trkpt lat="44.37935" lon="5.19759">
        <ele>314</ele>
        <time>2021-11-13T14:15:10.992Z</time>
      </trkpt>
      <trkpt lat="44.37937" lon="5.19762">
        <ele>314</ele>
        <time>2021-11-13T14:15:11.992Z</time>
      </trkpt>
      <trkpt lat="44.3794" lon="5.19765">
        <ele>314</ele>
        <time>2021-11-13T14:15:12.991Z</time>
      </trkpt>
      <trkpt lat="44.37942" lon="5.19769">
        <ele>314</ele>
        <time>2021-11-13T14:15:13.992Z</time>
      </trkpt>
      <trkpt lat="44.37945" lon="5.19772">
        <ele>314</ele>
        <time>2021-11-13T14:15:14.992Z</time>
      </trkpt>
      <trkpt lat="44.37948" lon="5.19776">
        <ele>313</ele>
        <time>2021-11-13T14:15:15.992Z</time>
      </trkpt>
      <trkpt lat="44.37951" lon="5.19779">
        <ele>313</ele>
        <time>2021-11-13T14:15:16.992Z</time>
      </trkpt>
      <trkpt lat="44.37954" lon="5.19782">
        <ele>313</ele>
        <time>2021-11-13T14:15:17.992Z</time>
      </trkpt>
      <trkpt lat="44.37957" lon="5.19786">
        <ele>313</ele>
        <time>2021-11-13T14:15:18.992Z</time>
      </trkpt>
      <trkpt lat="44.37959" lon="5.19789">
        <ele>313</ele>
        <time>2021-11-13T14:15:19.992Z</time>
      </trkpt>
      <trkpt lat="44.37962" lon="5.19793">
        <ele>313</ele>
        <time>2021-11-13T14:15:20.992Z</time>
      </trkpt>
      <trkpt lat="44.37965" lon="5.19797">
        <ele>313</ele>
        <time>2021-11-13T14:15:21.991Z</time>
      </trkpt>
      <trkpt lat="44.37967" lon="5.19801">
        <ele>313</ele>
        <time>2021-11-13T14:15:22.992Z</time>
      </trkpt>
      <trkpt lat="44.3797" lon="5.19805">
        <ele>313</ele>
        <time>2021-11-13T14:15:23.991Z</time>
      </trkpt>
      <trkpt lat="44.37973" lon="5.19809">
        <ele>313</ele>
        <time>2021-11-13T14:15:24.991Z</time>
      </trkpt>
      <trkpt lat="44.37975" lon="5.19812">
        <ele>312</ele>
        <time>2021-11-13T14:15:25.992Z</time>
      </trkpt>
      <trkpt lat="44.37978" lon="5.19816">
        <ele>312</ele>
        <time>2021-11-13T14:15:26.992Z</time>
      </trkpt>
      <trkpt lat="44.3798" lon="5.19819">
        <ele>312</ele>
        <time>2021-11-13T14:15:27.991Z</time>
      </trkpt>
      <trkpt lat="44.37983" lon="5.19823">
        <ele>312</ele>
        <time>2021-11-13T14:15:28.992Z</time>
      </trkpt>
      <trkpt lat="44.37985" lon="5.19828">
        <ele>312</ele>
        <time>2021-11-13T14:15:29.992Z</time>
      </trkpt>
      <trkpt lat="44.37987" lon="5.19832">
        <ele>312</ele>
        <time>2021-11-13T14:15:30.992Z</time>
      </trkpt>
      <trkpt lat="44.3799" lon="5.19836">
        <ele>312</ele>
        <time>2021-11-13T14:15:31.992Z</time>
      </trkpt>
      <trkpt lat="44.37992" lon="5.1984">
        <ele>312</ele>
        <time>2021-11-13T14:15:32.992Z</time>
      </trkpt>
      <trkpt lat="44.37994" lon="5.19845">
        <ele>312</ele>
        <time>2021-11-13T14:15:33.991Z</time>
      </trkpt>
      <trkpt lat="44.37996" lon="5.1985">
        <ele>312</ele>
        <time>2021-11-13T14:15:34.992Z</time>
      </trkpt>
      <trkpt lat="44.37997" lon="5.19855">
        <ele>312</ele>
        <time>2021-11-13T14:15:35.991Z</time>
      </trkpt>
      <trkpt lat="44.37999" lon="5.19861">
        <ele>312</ele>
        <time>2021-11-13T14:15:36.992Z</time>
      </trkpt>
      <trkpt lat="44.38" lon="5.19868">
        <ele>312</ele>
        <time>2021-11-13T14:15:37.991Z</time>
      </trkpt>
      <trkpt lat="44.38001" lon="5.19874">
        <ele>312</ele>
        <time>2021-11-13T14:15:38.992Z</time>
      </trkpt>
      <trkpt lat="44.38002" lon="5.19881">
        <ele>313</ele>
        <time>2021-11-13T14:15:39.992Z</time>
      </trkpt>
      <trkpt lat="44.38004" lon="5.19888">
        <ele>313</ele>
        <time>2021-11-13T14:15:40.991Z</time>
      </trkpt>
      <trkpt lat="44.38005" lon="5.19895">
        <ele>313</ele>
        <time>2021-11-13T14:15:41.992Z</time>
      </trkpt>
      <trkpt lat="44.38007" lon="5.19901">
        <ele>314</ele>
        <time>2021-11-13T14:15:42.992Z</time>
      </trkpt>
      <trkpt lat="44.38009" lon="5.19905">
        <ele>314</ele>
        <time>2021-11-13T14:15:43.992Z</time>
      </trkpt>
      <trkpt lat="44.38013" lon="5.1991">
        <ele>314</ele>
        <time>2021-11-13T14:15:44.991Z</time>
      </trkpt>
      <trkpt lat="44.38017" lon="5.19913">
        <ele>314</ele>
        <time>2021-11-13T14:15:45.992Z</time>
      </trkpt>
      <trkpt lat="44.38021" lon="5.19915">
        <ele>314</ele>
        <time>2021-11-13T14:15:46.991Z</time>
      </trkpt>
      <trkpt lat="44.38027" lon="5.19917">
        <ele>314</ele>
        <time>2021-11-13T14:15:47.992Z</time>
      </trkpt>
      <trkpt lat="44.38031" lon="5.19917">
        <ele>313</ele>
        <time>2021-11-13T14:15:48.992Z</time>
      </trkpt>
      <trkpt lat="44.38036" lon="5.19917">
        <ele>313</ele>
        <time>2021-11-13T14:15:49.992Z</time>
      </trkpt>
      <trkpt lat="44.38041" lon="5.19917">
        <ele>312</ele>
        <time>2021-11-13T14:15:50.992Z</time>
      </trkpt>
      <trkpt lat="44.38046" lon="5.19916">
        <ele>312</ele>
        <time>2021-11-13T14:15:51.991Z</time>
      </trkpt>
      <trkpt lat="44.38049" lon="5.19916">
        <ele>312</ele>
        <time>2021-11-13T14:15:52.992Z</time>
      </trkpt>
      <trkpt lat="44.38055" lon="5.19915">
        <ele>311</ele>
        <time>2021-11-13T14:15:53.991Z</time>
      </trkpt>
      <trkpt lat="44.38061" lon="5.19915">
        <ele>311</ele>
        <time>2021-11-13T14:15:54.992Z</time>
      </trkpt>
      <trkpt lat="44.38066" lon="5.19915">
        <ele>312</ele>
        <time>2021-11-13T14:15:55.992Z</time>
      </trkpt>
      <trkpt lat="44.3807" lon="5.19915">
        <ele>312</ele>
        <time>2021-11-13T14:15:56.992Z</time>
      </trkpt>
      <trkpt lat="44.38075" lon="5.19914">
        <ele>313</ele>
        <time>2021-11-13T14:15:57.992Z</time>
      </trkpt>
      <trkpt lat="44.3808" lon="5.19913">
        <ele>313</ele>
        <time>2021-11-13T14:15:58.992Z</time>
      </trkpt>
      <trkpt lat="44.38085" lon="5.19913">
        <ele>313</ele>
        <time>2021-11-13T14:15:59.992Z</time>
      </trkpt>
      <trkpt lat="44.38089" lon="5.19913">
        <ele>313</ele>
        <time>2021-11-13T14:16:00.991Z</time>
      </trkpt>
      <trkpt lat="44.38094" lon="5.19914">
        <ele>313</ele>
        <time>2021-11-13T14:16:01.992Z</time>
      </trkpt>
      <trkpt lat="44.38099" lon="5.19916">
        <ele>313</ele>
        <time>2021-11-13T14:16:02.992Z</time>
      </trkpt>
      <trkpt lat="44.38104" lon="5.19917">
        <ele>313</ele>
        <time>2021-11-13T14:16:03.992Z</time>
      </trkpt>
      <trkpt lat="44.38108" lon="5.19919">
        <ele>312</ele>
        <time>2021-11-13T14:16:04.992Z</time>
      </trkpt>
      <trkpt lat="44.38112" lon="5.1992">
        <ele>312</ele>
        <time>2021-11-13T14:16:05.992Z</time>
      </trkpt>
      <trkpt lat="44.38116" lon="5.19922">
        <ele>312</ele>
        <time>2021-11-13T14:16:06.991Z</time>
      </trkpt>
      <trkpt lat="44.38121" lon="5.19923">
        <ele>312</ele>
        <time>2021-11-13T14:16:07.992Z</time>
      </trkpt>
      <trkpt lat="44.38124" lon="5.19925">
        <ele>313</ele>
        <time>2021-11-13T14:16:08.991Z</time>
      </trkpt>
      <trkpt lat="44.38128" lon="5.19927">
        <ele>312</ele>
        <time>2021-11-13T14:16:09.991Z</time>
      </trkpt>
      <trkpt lat="44.38132" lon="5.1993">
        <ele>312</ele>
        <time>2021-11-13T14:16:10.992Z</time>
      </trkpt>
      <trkpt lat="44.38136" lon="5.19933">
        <ele>311</ele>
        <time>2021-11-13T14:16:11.992Z</time>
      </trkpt>
      <trkpt lat="44.38139" lon="5.19936">
        <ele>311</ele>
        <time>2021-11-13T14:16:12.992Z</time>
      </trkpt>
      <trkpt lat="44.38143" lon="5.19939">
        <ele>311</ele>
        <time>2021-11-13T14:16:13.991Z</time>
      </trkpt>
      <trkpt lat="44.38146" lon="5.19943">
        <ele>311</ele>
        <time>2021-11-13T14:16:14.992Z</time>
      </trkpt>
      <trkpt lat="44.38149" lon="5.19948">
        <ele>311</ele>
        <time>2021-11-13T14:16:15.992Z</time>
      </trkpt>
      <trkpt lat="44.38151" lon="5.19953">
        <ele>311</ele>
        <time>2021-11-13T14:16:16.992Z</time>
      </trkpt>
      <trkpt lat="44.38153" lon="5.19958">
        <ele>311</ele>
        <time>2021-11-13T14:16:17.992Z</time>
      </trkpt>
      <trkpt lat="44.38155" lon="5.19964">
        <ele>311</ele>
        <time>2021-11-13T14:16:18.992Z</time>
      </trkpt>
      <trkpt lat="44.38157" lon="5.1997">
        <ele>311</ele>
        <time>2021-11-13T14:16:19.991Z</time>
      </trkpt>
      <trkpt lat="44.38159" lon="5.19977">
        <ele>311</ele>
        <time>2021-11-13T14:16:20.992Z</time>
      </trkpt>
      <trkpt lat="44.38161" lon="5.19983">
        <ele>311</ele>
        <time>2021-11-13T14:16:21.992Z</time>
      </trkpt>
      <trkpt lat="44.38163" lon="5.1999">
        <ele>311</ele>
        <time>2021-11-13T14:16:22.991Z</time>
      </trkpt>
      <trkpt lat="44.38164" lon="5.19995">
        <ele>311</ele>
        <time>2021-11-13T14:16:23.991Z</time>
      </trkpt>
      <trkpt lat="44.38165" lon="5.20001">
        <ele>310</ele>
        <time>2021-11-13T14:16:24.991Z</time>
      </trkpt>
      <trkpt lat="44.38167" lon="5.20008">
        <ele>310</ele>
        <time>2021-11-13T14:16:25.992Z</time>
      </trkpt>
      <trkpt lat="44.38168" lon="5.20014">
        <ele>310</ele>
        <time>2021-11-13T14:16:26.992Z</time>
      </trkpt>
      <trkpt lat="44.3817" lon="5.20019">
        <ele>310</ele>
        <time>2021-11-13T14:16:27.992Z</time>
      </trkpt>
      <trkpt lat="44.38171" lon="5.20024">
        <ele>309</ele>
        <time>2021-11-13T14:16:28.991Z</time>
      </trkpt>
      <trkpt lat="44.38172" lon="5.20029">
        <ele>310</ele>
        <time>2021-11-13T14:16:29.992Z</time>
      </trkpt>
      <trkpt lat="44.38174" lon="5.20035">
        <ele>310</ele>
        <time>2021-11-13T14:16:30.992Z</time>
      </trkpt>
      <trkpt lat="44.38175" lon="5.2004">
        <ele>311</ele>
        <time>2021-11-13T14:16:31.991Z</time>
      </trkpt>
      <trkpt lat="44.38176" lon="5.20046">
        <ele>311</ele>
        <time>2021-11-13T14:16:32.991Z</time>
      </trkpt>
      <trkpt lat="44.38178" lon="5.20052">
        <ele>311</ele>
        <time>2021-11-13T14:16:33.992Z</time>
      </trkpt>
      <trkpt lat="44.3818" lon="5.20057">
        <ele>311</ele>
        <time>2021-11-13T14:16:34.992Z</time>
      </trkpt>
      <trkpt lat="44.38182" lon="5.20063">
        <ele>312</ele>
        <time>2021-11-13T14:16:35.992Z</time>
      </trkpt>
      <trkpt lat="44.38184" lon="5.20068">
        <ele>312</ele>
        <time>2021-11-13T14:16:36.991Z</time>
      </trkpt>
      <trkpt lat="44.38186" lon="5.20074">
        <ele>312</ele>
        <time>2021-11-13T14:16:37.992Z</time>
      </trkpt>
      <trkpt lat="44.38187" lon="5.20079">
        <ele>313</ele>
        <time>2021-11-13T14:16:38.992Z</time>
      </trkpt>
      <trkpt lat="44.38189" lon="5.20085">
        <ele>312</ele>
        <time>2021-11-13T14:16:39.992Z</time>
      </trkpt>
      <trkpt lat="44.38191" lon="5.2009">
        <ele>312</ele>
        <time>2021-11-13T14:16:40.992Z</time>
      </trkpt>
      <trkpt lat="44.38193" lon="5.20096">
        <ele>312</ele>
        <time>2021-11-13T14:16:41.991Z</time>
      </trkpt>
      <trkpt lat="44.38195" lon="5.20101">
        <ele>312</ele>
        <time>2021-11-13T14:16:42.992Z</time>
      </trkpt>
      <trkpt lat="44.38197" lon="5.20106">
        <ele>312</ele>
        <time>2021-11-13T14:16:43.992Z</time>
      </trkpt>
      <trkpt lat="44.38199" lon="5.20111">
        <ele>312</ele>
        <time>2021-11-13T14:16:44.991Z</time>
      </trkpt>
      <trkpt lat="44.38202" lon="5.20115">
        <ele>312</ele>
        <time>2021-11-13T14:16:45.991Z</time>
      </trkpt>
      <trkpt lat="44.38206" lon="5.2012">
        <ele>312</ele>
        <time>2021-11-13T14:16:46.992Z</time>
      </trkpt>
      <trkpt lat="44.3821" lon="5.20125">
        <ele>312</ele>
        <time>2021-11-13T14:16:47.992Z</time>
      </trkpt>
      <trkpt lat="44.38214" lon="5.2013">
        <ele>313</ele>
        <time>2021-11-13T14:16:48.992Z</time>
      </trkpt>
      <trkpt lat="44.3822" lon="5.20136">
        <ele>313</ele>
        <time>2021-11-13T14:16:49.992Z</time>
      </trkpt>
      <trkpt lat="44.38224" lon="5.20141">
        <ele>313</ele>
        <time>2021-11-13T14:16:50.992Z</time>
      </trkpt>
      <trkpt lat="44.3823" lon="5.20149">
        <ele>313</ele>
        <time>2021-11-13T14:16:51.991Z</time>
      </trkpt>
      <trkpt lat="44.38235" lon="5.20156">
        <ele>313</ele>
        <time>2021-11-13T14:16:52.992Z</time>
      </trkpt>
      <trkpt lat="44.38239" lon="5.20165">
        <ele>313</ele>
        <time>2021-11-13T14:16:53.991Z</time>
      </trkpt>
      <trkpt lat="44.38242" lon="5.20173">
        <ele>312</ele>
        <time>2021-11-13T14:16:54.992Z</time>
      </trkpt>
      <trkpt lat="44.38245" lon="5.20184">
        <ele>312</ele>
        <time>2021-11-13T14:16:55.992Z</time>
      </trkpt>
      <trkpt lat="44.38247" lon="5.20194">
        <ele>311</ele>
        <time>2021-11-13T14:16:56.991Z</time>
      </trkpt>
      <trkpt lat="44.38248" lon="5.20203">
        <ele>311</ele>
        <time>2021-11-13T14:16:57.991Z</time>
      </trkpt>
      <trkpt lat="44.38249" lon="5.20211">
        <ele>311</ele>
        <time>2021-11-13T14:16:58.992Z</time>
      </trkpt>
      <trkpt lat="44.3825" lon="5.20218">
        <ele>311</ele>
        <time>2021-11-13T14:16:59.991Z</time>
      </trkpt>
      <trkpt lat="44.38251" lon="5.20228">
        <ele>310</ele>
        <time>2021-11-13T14:17:00.992Z</time>
      </trkpt>
      <trkpt lat="44.38251" lon="5.20235">
        <ele>310</ele>
        <time>2021-11-13T14:17:01.991Z</time>
      </trkpt>
      <trkpt lat="44.38252" lon="5.20241">
        <ele>310</ele>
        <time>2021-11-13T14:17:02.992Z</time>
      </trkpt>
      <trkpt lat="44.38253" lon="5.20245">
        <ele>311</ele>
        <time>2021-11-13T14:17:03.991Z</time>
      </trkpt>
      <trkpt lat="44.38254" lon="5.20252">
        <ele>311</ele>
        <time>2021-11-13T14:17:04.991Z</time>
      </trkpt>
      <trkpt lat="44.38255" lon="5.2026">
        <ele>311</ele>
        <time>2021-11-13T14:17:05.992Z</time>
      </trkpt>
      <trkpt lat="44.38255" lon="5.20266">
        <ele>311</ele>
        <time>2021-11-13T14:17:06.992Z</time>
      </trkpt>
      <trkpt lat="44.38256" lon="5.20273">
        <ele>311</ele>
        <time>2021-11-13T14:17:07.992Z</time>
      </trkpt>
      <trkpt lat="44.38256" lon="5.20278">
        <ele>311</ele>
        <time>2021-11-13T14:17:08.992Z</time>
      </trkpt>
      <trkpt lat="44.38257" lon="5.20287">
        <ele>310</ele>
        <time>2021-11-13T14:17:09.991Z</time>
      </trkpt>
      <trkpt lat="44.38257" lon="5.20294">
        <ele>311</ele>
        <time>2021-11-13T14:17:10.991Z</time>
      </trkpt>
      <trkpt lat="44.38258" lon="5.20302">
        <ele>311</ele>
        <time>2021-11-13T14:17:11.992Z</time>
      </trkpt>
      <trkpt lat="44.38258" lon="5.20308">
        <ele>311</ele>
        <time>2021-11-13T14:17:12.991Z</time>
      </trkpt>
      <trkpt lat="44.38258" lon="5.20315">
        <ele>311</ele>
        <time>2021-11-13T14:17:13.992Z</time>
      </trkpt>
      <trkpt lat="44.38259" lon="5.20324">
        <ele>311</ele>
        <time>2021-11-13T14:17:14.992Z</time>
      </trkpt>
      <trkpt lat="44.3826" lon="5.20331">
        <ele>312</ele>
        <time>2021-11-13T14:17:15.992Z</time>
      </trkpt>
      <trkpt lat="44.3826" lon="5.20339">
        <ele>312</ele>
        <time>2021-11-13T14:17:16.992Z</time>
      </trkpt>
      <trkpt lat="44.38261" lon="5.20345">
        <ele>313</ele>
        <time>2021-11-13T14:17:17.991Z</time>
      </trkpt>
      <trkpt lat="44.38261" lon="5.20354">
        <ele>313</ele>
        <time>2021-11-13T14:17:18.992Z</time>
      </trkpt>
      <trkpt lat="44.38261" lon="5.20361">
        <ele>313</ele>
        <time>2021-11-13T14:17:19.992Z</time>
      </trkpt>
      <trkpt lat="44.38261" lon="5.20369">
        <ele>313</ele>
        <time>2021-11-13T14:17:20.992Z</time>
      </trkpt>
      <trkpt lat="44.38261" lon="5.20375">
        <ele>312</ele>
        <time>2021-11-13T14:17:21.992Z</time>
      </trkpt>
      <trkpt lat="44.38261" lon="5.20383">
        <ele>312</ele>
        <time>2021-11-13T14:17:22.992Z</time>
      </trkpt>
      <trkpt lat="44.3826" lon="5.20392">
        <ele>312</ele>
        <time>2021-11-13T14:17:23.992Z</time>
      </trkpt>
      <trkpt lat="44.3826" lon="5.204">
        <ele>312</ele>
        <time>2021-11-13T14:17:24.992Z</time>
      </trkpt>
      <trkpt lat="44.38259" lon="5.20408">
        <ele>312</ele>
        <time>2021-11-13T14:17:25.992Z</time>
      </trkpt>
      <trkpt lat="44.38258" lon="5.20414">
        <ele>312</ele>
        <time>2021-11-13T14:17:26.992Z</time>
      </trkpt>
      <trkpt lat="44.38258" lon="5.20418">
        <ele>312</ele>
        <time>2021-11-13T14:17:27.992Z</time>
      </trkpt>
      <trkpt lat="44.38259" lon="5.2042">
        <ele>312</ele>
        <time>2021-11-13T14:17:28.992Z</time>
      </trkpt>
      <trkpt lat="44.38259" lon="5.20422">
        <ele>311</ele>
        <time>2021-11-13T14:17:29.992Z</time>
      </trkpt>
      <trkpt lat="44.3826" lon="5.20423">
        <ele>311</ele>
        <time>2021-11-13T14:17:30.992Z</time>
      </trkpt>
      <trkpt lat="44.38262" lon="5.20423">
        <ele>311</ele>
        <time>2021-11-13T14:17:31.991Z</time>
      </trkpt>
      <trkpt lat="44.38264" lon="5.20423">
        <ele>311</ele>
        <time>2021-11-13T14:17:32.992Z</time>
      </trkpt>
      <trkpt lat="44.38266" lon="5.20421">
        <ele>311</ele>
        <time>2021-11-13T14:17:33.992Z</time>
      </trkpt>
      <trkpt lat="44.3827" lon="5.20419">
        <ele>311</ele>
        <time>2021-11-13T14:17:34.992Z</time>
      </trkpt>
      <trkpt lat="44.38273" lon="5.20416">
        <ele>311</ele>
        <time>2021-11-13T14:17:35.992Z</time>
      </trkpt>
      <trkpt lat="44.38278" lon="5.20411">
        <ele>311</ele>
        <time>2021-11-13T14:17:36.992Z</time>
      </trkpt>
      <trkpt lat="44.38283" lon="5.20406">
        <ele>310</ele>
        <time>2021-11-13T14:17:37.992Z</time>
      </trkpt>
      <trkpt lat="44.38287" lon="5.20401">
        <ele>310</ele>
        <time>2021-11-13T14:17:38.992Z</time>
      </trkpt>
      <trkpt lat="44.38291" lon="5.20397">
        <ele>309</ele>
        <time>2021-11-13T14:17:39.992Z</time>
      </trkpt>
      <trkpt lat="44.38296" lon="5.20392">
        <ele>309</ele>
        <time>2021-11-13T14:17:40.992Z</time>
      </trkpt>
      <trkpt lat="44.38301" lon="5.20386">
        <ele>309</ele>
        <time>2021-11-13T14:17:41.992Z</time>
      </trkpt>
      <trkpt lat="44.38305" lon="5.20382">
        <ele>309</ele>
        <time>2021-11-13T14:17:42.992Z</time>
      </trkpt>
      <trkpt lat="44.38308" lon="5.20379">
        <ele>308</ele>
        <time>2021-11-13T14:17:43.992Z</time>
      </trkpt>
      <trkpt lat="44.38312" lon="5.20377">
        <ele>308</ele>
        <time>2021-11-13T14:17:44.992Z</time>
      </trkpt>
      <trkpt lat="44.38317" lon="5.20377">
        <ele>308</ele>
        <time>2021-11-13T14:17:45.992Z</time>
      </trkpt>
      <trkpt lat="44.38321" lon="5.20378">
        <ele>307</ele>
        <time>2021-11-13T14:17:46.992Z</time>
      </trkpt>
      <trkpt lat="44.38325" lon="5.2038">
        <ele>307</ele>
        <time>2021-11-13T14:17:47.992Z</time>
      </trkpt>
      <trkpt lat="44.38328" lon="5.20383">
        <ele>307</ele>
        <time>2021-11-13T14:17:48.992Z</time>
      </trkpt>
      <trkpt lat="44.38333" lon="5.20388">
        <ele>306</ele>
        <time>2021-11-13T14:17:49.992Z</time>
      </trkpt>
      <trkpt lat="44.38338" lon="5.20394">
        <ele>306</ele>
        <time>2021-11-13T14:17:50.992Z</time>
      </trkpt>
      <trkpt lat="44.38343" lon="5.20398">
        <ele>305</ele>
        <time>2021-11-13T14:17:51.992Z</time>
      </trkpt>
      <trkpt lat="44.38347" lon="5.20401">
        <ele>305</ele>
        <time>2021-11-13T14:17:52.991Z</time>
      </trkpt>
      <trkpt lat="44.38353" lon="5.20407">
        <ele>305</ele>
        <time>2021-11-13T14:17:53.992Z</time>
      </trkpt>
      <trkpt lat="44.38358" lon="5.20411">
        <ele>304</ele>
        <time>2021-11-13T14:17:54.991Z</time>
      </trkpt>
      <trkpt lat="44.38362" lon="5.20414">
        <ele>304</ele>
        <time>2021-11-13T14:17:55.991Z</time>
      </trkpt>
      <trkpt lat="44.38368" lon="5.20418">
        <ele>303</ele>
        <time>2021-11-13T14:17:56.991Z</time>
      </trkpt>
      <trkpt lat="44.38372" lon="5.20421">
        <ele>303</ele>
        <time>2021-11-13T14:17:57.992Z</time>
      </trkpt>
      <trkpt lat="44.38376" lon="5.20424">
        <ele>302</ele>
        <time>2021-11-13T14:17:58.992Z</time>
      </trkpt>
      <trkpt lat="44.38381" lon="5.20428">
        <ele>302</ele>
        <time>2021-11-13T14:17:59.992Z</time>
      </trkpt>
      <trkpt lat="44.38386" lon="5.20431">
        <ele>302</ele>
        <time>2021-11-13T14:18:00.991Z</time>
      </trkpt>
      <trkpt lat="44.38389" lon="5.20433">
        <ele>302</ele>
        <time>2021-11-13T14:18:01.992Z</time>
      </trkpt>
      <trkpt lat="44.38392" lon="5.20435">
        <ele>301</ele>
        <time>2021-11-13T14:18:02.992Z</time>
      </trkpt>
      <trkpt lat="44.38395" lon="5.20438">
        <ele>301</ele>
        <time>2021-11-13T14:18:03.992Z</time>
      </trkpt>
      <trkpt lat="44.38398" lon="5.2044">
        <ele>301</ele>
        <time>2021-11-13T14:18:04.991Z</time>
      </trkpt>
      <trkpt lat="44.38401" lon="5.20443">
        <ele>301</ele>
        <time>2021-11-13T14:18:05.992Z</time>
      </trkpt>
      <trkpt lat="44.38403" lon="5.20445">
        <ele>301</ele>
        <time>2021-11-13T14:18:06.991Z</time>
      </trkpt>
      <trkpt lat="44.38406" lon="5.20448">
        <ele>301</ele>
        <time>2021-11-13T14:18:07.992Z</time>
      </trkpt>
      <trkpt lat="44.38409" lon="5.20451">
        <ele>301</ele>
        <time>2021-11-13T14:18:08.992Z</time>
      </trkpt>
      <trkpt lat="44.38412" lon="5.20454">
        <ele>302</ele>
        <time>2021-11-13T14:18:09.992Z</time>
      </trkpt>
      <trkpt lat="44.38415" lon="5.20457">
        <ele>302</ele>
        <time>2021-11-13T14:18:10.992Z</time>
      </trkpt>
      <trkpt lat="44.38417" lon="5.20459">
        <ele>302</ele>
        <time>2021-11-13T14:18:11.992Z</time>
      </trkpt>
      <trkpt lat="44.3842" lon="5.20462">
        <ele>302</ele>
        <time>2021-11-13T14:18:12.992Z</time>
      </trkpt>
      <trkpt lat="44.38423" lon="5.20465">
        <ele>302</ele>
        <time>2021-11-13T14:18:13.991Z</time>
      </trkpt>
      <trkpt lat="44.38426" lon="5.20467">
        <ele>302</ele>
        <time>2021-11-13T14:18:14.991Z</time>
      </trkpt>
      <trkpt lat="44.38428" lon="5.20469">
        <ele>302</ele>
        <time>2021-11-13T14:18:15.992Z</time>
      </trkpt>
      <trkpt lat="44.38431" lon="5.20471">
        <ele>302</ele>
        <time>2021-11-13T14:18:16.992Z</time>
      </trkpt>
      <trkpt lat="44.38434" lon="5.20473">
        <ele>302</ele>
        <time>2021-11-13T14:18:17.992Z</time>
      </trkpt>
      <trkpt lat="44.38438" lon="5.20476">
        <ele>302</ele>
        <time>2021-11-13T14:18:18.991Z</time>
      </trkpt>
      <trkpt lat="44.38441" lon="5.20478">
        <ele>301</ele>
        <time>2021-11-13T14:18:19.992Z</time>
      </trkpt>
      <trkpt lat="44.38443" lon="5.20479">
        <ele>301</ele>
        <time>2021-11-13T14:18:20.992Z</time>
      </trkpt>
      <trkpt lat="44.38447" lon="5.20481">
        <ele>301</ele>
        <time>2021-11-13T14:18:21.991Z</time>
      </trkpt>
      <trkpt lat="44.38451" lon="5.20483">
        <ele>301</ele>
        <time>2021-11-13T14:18:22.992Z</time>
      </trkpt>
      <trkpt lat="44.38455" lon="5.20485">
        <ele>302</ele>
        <time>2021-11-13T14:18:23.992Z</time>
      </trkpt>
      <trkpt lat="44.38458" lon="5.20487">
        <ele>303</ele>
        <time>2021-11-13T14:18:24.991Z</time>
      </trkpt>
      <trkpt lat="44.38461" lon="5.20489">
        <ele>303</ele>
        <time>2021-11-13T14:18:25.992Z</time>
      </trkpt>
      <trkpt lat="44.38465" lon="5.20492">
        <ele>304</ele>
        <time>2021-11-13T14:18:26.992Z</time>
      </trkpt>
      <trkpt lat="44.38469" lon="5.20494">
        <ele>304</ele>
        <time>2021-11-13T14:18:27.991Z</time>
      </trkpt>
      <trkpt lat="44.38473" lon="5.20496">
        <ele>304</ele>
        <time>2021-11-13T14:18:28.991Z</time>
      </trkpt>
      <trkpt lat="44.38476" lon="5.20498">
        <ele>305</ele>
        <time>2021-11-13T14:18:29.992Z</time>
      </trkpt>
      <trkpt lat="44.3848" lon="5.205">
        <ele>305</ele>
        <time>2021-11-13T14:18:30.992Z</time>
      </trkpt>
      <trkpt lat="44.38484" lon="5.205">
        <ele>306</ele>
        <time>2021-11-13T14:18:31.991Z</time>
      </trkpt>
      <trkpt lat="44.38488" lon="5.205">
        <ele>306</ele>
        <time>2021-11-13T14:18:32.991Z</time>
      </trkpt>
      <trkpt lat="44.3849" lon="5.205">
        <ele>307</ele>
        <time>2021-11-13T14:18:33.992Z</time>
      </trkpt>
      <trkpt lat="44.38493" lon="5.20499">
        <ele>307</ele>
        <time>2021-11-13T14:18:34.992Z</time>
      </trkpt>
      <trkpt lat="44.38497" lon="5.20497">
        <ele>307</ele>
        <time>2021-11-13T14:18:35.992Z</time>
      </trkpt>
      <trkpt lat="44.385" lon="5.20494">
        <ele>306</ele>
        <time>2021-11-13T14:18:36.991Z</time>
      </trkpt>
      <trkpt lat="44.38503" lon="5.20492">
        <ele>306</ele>
        <time>2021-11-13T14:18:37.992Z</time>
      </trkpt>
      <trkpt lat="44.38506" lon="5.2049">
        <ele>306</ele>
        <time>2021-11-13T14:18:38.991Z</time>
      </trkpt>
      <trkpt lat="44.38511" lon="5.20488">
        <ele>306</ele>
        <time>2021-11-13T14:18:39.992Z</time>
      </trkpt>
      <trkpt lat="44.38516" lon="5.20487">
        <ele>305</ele>
        <time>2021-11-13T14:18:40.992Z</time>
      </trkpt>
      <trkpt lat="44.3852" lon="5.20487">
        <ele>305</ele>
        <time>2021-11-13T14:18:41.992Z</time>
      </trkpt>
      <trkpt lat="44.38525" lon="5.20488">
        <ele>305</ele>
        <time>2021-11-13T14:18:42.992Z</time>
      </trkpt>
      <trkpt lat="44.38528" lon="5.20489">
        <ele>305</ele>
        <time>2021-11-13T14:18:43.992Z</time>
      </trkpt>
      <trkpt lat="44.38533" lon="5.20491">
        <ele>305</ele>
        <time>2021-11-13T14:18:44.992Z</time>
      </trkpt>
      <trkpt lat="44.38537" lon="5.20493">
        <ele>305</ele>
        <time>2021-11-13T14:18:45.992Z</time>
      </trkpt>
      <trkpt lat="44.38541" lon="5.20495">
        <ele>305</ele>
        <time>2021-11-13T14:18:46.992Z</time>
      </trkpt>
      <trkpt lat="44.38544" lon="5.20497">
        <ele>305</ele>
        <time>2021-11-13T14:18:47.992Z</time>
      </trkpt>
      <trkpt lat="44.38549" lon="5.205">
        <ele>305</ele>
        <time>2021-11-13T14:18:48.992Z</time>
      </trkpt>
      <trkpt lat="44.38553" lon="5.20503">
        <ele>305</ele>
        <time>2021-11-13T14:18:49.991Z</time>
      </trkpt>
      <trkpt lat="44.38557" lon="5.20505">
        <ele>305</ele>
        <time>2021-11-13T14:18:50.992Z</time>
      </trkpt>
      <trkpt lat="44.38561" lon="5.20508">
        <ele>305</ele>
        <time>2021-11-13T14:18:51.992Z</time>
      </trkpt>
      <trkpt lat="44.38564" lon="5.2051">
        <ele>304</ele>
        <time>2021-11-13T14:18:52.992Z</time>
      </trkpt>
      <trkpt lat="44.38568" lon="5.20513">
        <ele>304</ele>
        <time>2021-11-13T14:18:53.992Z</time>
      </trkpt>
      <trkpt lat="44.38572" lon="5.20516">
        <ele>304</ele>
        <time>2021-11-13T14:18:54.992Z</time>
      </trkpt>
      <trkpt lat="44.38576" lon="5.20519">
        <ele>303</ele>
        <time>2021-11-13T14:18:55.992Z</time>
      </trkpt>
      <trkpt lat="44.38579" lon="5.20521">
        <ele>303</ele>
        <time>2021-11-13T14:18:56.992Z</time>
      </trkpt>
      <trkpt lat="44.38582" lon="5.20524">
        <ele>302</ele>
        <time>2021-11-13T14:18:57.992Z</time>
      </trkpt>
      <trkpt lat="44.38586" lon="5.20526">
        <ele>302</ele>
        <time>2021-11-13T14:18:58.992Z</time>
      </trkpt>
      <trkpt lat="44.38589" lon="5.20529">
        <ele>301</ele>
        <time>2021-11-13T14:18:59.992Z</time>
      </trkpt>
      <trkpt lat="44.38593" lon="5.20533">
        <ele>301</ele>
        <time>2021-11-13T14:19:00.992Z</time>
      </trkpt>
      <trkpt lat="44.38597" lon="5.20535">
        <ele>300</ele>
        <time>2021-11-13T14:19:01.992Z</time>
      </trkpt>
      <trkpt lat="44.38599" lon="5.20537">
        <ele>300</ele>
        <time>2021-11-13T14:19:02.992Z</time>
      </trkpt>
      <trkpt lat="44.38604" lon="5.2054">
        <ele>300</ele>
        <time>2021-11-13T14:19:03.992Z</time>
      </trkpt>
      <trkpt lat="44.38607" lon="5.20542">
        <ele>300</ele>
        <time>2021-11-13T14:19:04.992Z</time>
      </trkpt>
      <trkpt lat="44.3861" lon="5.20545">
        <ele>300</ele>
        <time>2021-11-13T14:19:05.992Z</time>
      </trkpt>
      <trkpt lat="44.38613" lon="5.20547">
        <ele>301</ele>
        <time>2021-11-13T14:19:06.992Z</time>
      </trkpt>
      <trkpt lat="44.38616" lon="5.20549">
        <ele>301</ele>
        <time>2021-11-13T14:19:07.992Z</time>
      </trkpt>
      <trkpt lat="44.3862" lon="5.20552">
        <ele>301</ele>
        <time>2021-11-13T14:19:08.992Z</time>
      </trkpt>
      <trkpt lat="44.38623" lon="5.20555">
        <ele>301</ele>
        <time>2021-11-13T14:19:09.992Z</time>
      </trkpt>
      <trkpt lat="44.38625" lon="5.20557">
        <ele>302</ele>
        <time>2021-11-13T14:19:10.992Z</time>
      </trkpt>
      <trkpt lat="44.38629" lon="5.2056">
        <ele>302</ele>
        <time>2021-11-13T14:19:11.992Z</time>
      </trkpt>
      <trkpt lat="44.38633" lon="5.20563">
        <ele>302</ele>
        <time>2021-11-13T14:19:12.992Z</time>
      </trkpt>
      <trkpt lat="44.38636" lon="5.20565">
        <ele>302</ele>
        <time>2021-11-13T14:19:13.991Z</time>
      </trkpt>
      <trkpt lat="44.38639" lon="5.20568">
        <ele>303</ele>
        <time>2021-11-13T14:19:14.992Z</time>
      </trkpt>
      <trkpt lat="44.38643" lon="5.20571">
        <ele>303</ele>
        <time>2021-11-13T14:19:15.992Z</time>
      </trkpt>
      <trkpt lat="44.38647" lon="5.20574">
        <ele>303</ele>
        <time>2021-11-13T14:19:16.992Z</time>
      </trkpt>
      <trkpt lat="44.3865" lon="5.20576">
        <ele>304</ele>
        <time>2021-11-13T14:19:17.992Z</time>
      </trkpt>
      <trkpt lat="44.38654" lon="5.20579">
        <ele>305</ele>
        <time>2021-11-13T14:19:18.992Z</time>
      </trkpt>
      <trkpt lat="44.38657" lon="5.20581">
        <ele>305</ele>
        <time>2021-11-13T14:19:19.991Z</time>
      </trkpt>
      <trkpt lat="44.3866" lon="5.20584">
        <ele>305</ele>
        <time>2021-11-13T14:19:20.992Z</time>
      </trkpt>
      <trkpt lat="44.38664" lon="5.20586">
        <ele>305</ele>
        <time>2021-11-13T14:19:21.992Z</time>
      </trkpt>
      <trkpt lat="44.38668" lon="5.20588">
        <ele>305</ele>
        <time>2021-11-13T14:19:22.992Z</time>
      </trkpt>
      <trkpt lat="44.38671" lon="5.2059">
        <ele>306</ele>
        <time>2021-11-13T14:19:23.992Z</time>
      </trkpt>
      <trkpt lat="44.38674" lon="5.20592">
        <ele>306</ele>
        <time>2021-11-13T14:19:24.992Z</time>
      </trkpt>
      <trkpt lat="44.38678" lon="5.20595">
        <ele>307</ele>
        <time>2021-11-13T14:19:25.992Z</time>
      </trkpt>
      <trkpt lat="44.38682" lon="5.20598">
        <ele>308</ele>
        <time>2021-11-13T14:19:26.992Z</time>
      </trkpt>
      <trkpt lat="44.38685" lon="5.206">
        <ele>308</ele>
        <time>2021-11-13T14:19:27.992Z</time>
      </trkpt>
      <trkpt lat="44.38688" lon="5.20602">
        <ele>308</ele>
        <time>2021-11-13T14:19:28.991Z</time>
      </trkpt>
      <trkpt lat="44.38691" lon="5.20605">
        <ele>308</ele>
        <time>2021-11-13T14:19:29.992Z</time>
      </trkpt>
      <trkpt lat="44.38695" lon="5.20607">
        <ele>308</ele>
        <time>2021-11-13T14:19:30.992Z</time>
      </trkpt>
      <trkpt lat="44.38698" lon="5.2061">
        <ele>308</ele>
        <time>2021-11-13T14:19:31.992Z</time>
      </trkpt>
      <trkpt lat="44.38701" lon="5.20612">
        <ele>309</ele>
        <time>2021-11-13T14:19:32.992Z</time>
      </trkpt>
      <trkpt lat="44.38704" lon="5.20614">
        <ele>309</ele>
        <time>2021-11-13T14:19:33.992Z</time>
      </trkpt>
      <trkpt lat="44.38707" lon="5.20618">
        <ele>309</ele>
        <time>2021-11-13T14:19:34.992Z</time>
      </trkpt>
      <trkpt lat="44.38711" lon="5.2062">
        <ele>310</ele>
        <time>2021-11-13T14:19:35.992Z</time>
      </trkpt>
      <trkpt lat="44.38714" lon="5.20623">
        <ele>309</ele>
        <time>2021-11-13T14:19:36.992Z</time>
      </trkpt>
      <trkpt lat="44.38716" lon="5.20625">
        <ele>309</ele>
        <time>2021-11-13T14:19:37.992Z</time>
      </trkpt>
      <trkpt lat="44.3872" lon="5.20628">
        <ele>308</ele>
        <time>2021-11-13T14:19:38.992Z</time>
      </trkpt>
      <trkpt lat="44.38723" lon="5.20632">
        <ele>308</ele>
        <time>2021-11-13T14:19:39.991Z</time>
      </trkpt>
      <trkpt lat="44.38725" lon="5.20636">
        <ele>308</ele>
        <time>2021-11-13T14:19:40.991Z</time>
      </trkpt>
      <trkpt lat="44.38726" lon="5.20639">
        <ele>308</ele>
        <time>2021-11-13T14:19:41.992Z</time>
      </trkpt>
      <trkpt lat="44.38728" lon="5.20644">
        <ele>307</ele>
        <time>2021-11-13T14:19:42.992Z</time>
      </trkpt>
      <trkpt lat="44.3873" lon="5.20649">
        <ele>307</ele>
        <time>2021-11-13T14:19:43.992Z</time>
      </trkpt>
      <trkpt lat="44.38732" lon="5.20654">
        <ele>306</ele>
        <time>2021-11-13T14:19:44.991Z</time>
      </trkpt>
      <trkpt lat="44.38733" lon="5.20659">
        <ele>305</ele>
        <time>2021-11-13T14:19:45.992Z</time>
      </trkpt>
      <trkpt lat="44.38735" lon="5.20663">
        <ele>305</ele>
        <time>2021-11-13T14:19:46.992Z</time>
      </trkpt>
      <trkpt lat="44.38737" lon="5.20668">
        <ele>305</ele>
        <time>2021-11-13T14:19:47.992Z</time>
      </trkpt>
      <trkpt lat="44.38738" lon="5.20674">
        <ele>305</ele>
        <time>2021-11-13T14:19:48.992Z</time>
      </trkpt>
      <trkpt lat="44.3874" lon="5.20678">
        <ele>304</ele>
        <time>2021-11-13T14:19:49.992Z</time>
      </trkpt>
      <trkpt lat="44.38742" lon="5.20683">
        <ele>304</ele>
        <time>2021-11-13T14:19:50.991Z</time>
      </trkpt>
      <trkpt lat="44.38743" lon="5.20688">
        <ele>304</ele>
        <time>2021-11-13T14:19:51.992Z</time>
      </trkpt>
      <trkpt lat="44.38745" lon="5.20692">
        <ele>304</ele>
        <time>2021-11-13T14:19:52.991Z</time>
      </trkpt>
      <trkpt lat="44.38747" lon="5.20697">
        <ele>304</ele>
        <time>2021-11-13T14:19:53.992Z</time>
      </trkpt>
      <trkpt lat="44.38748" lon="5.20701">
        <ele>304</ele>
        <time>2021-11-13T14:19:54.992Z</time>
      </trkpt>
      <trkpt lat="44.3875" lon="5.20706">
        <ele>304</ele>
        <time>2021-11-13T14:19:55.991Z</time>
      </trkpt>
      <trkpt lat="44.38752" lon="5.2071">
        <ele>304</ele>
        <time>2021-11-13T14:19:56.992Z</time>
      </trkpt>
      <trkpt lat="44.38754" lon="5.20714">
        <ele>304</ele>
        <time>2021-11-13T14:19:57.992Z</time>
      </trkpt>
      <trkpt lat="44.38756" lon="5.20719">
        <ele>304</ele>
        <time>2021-11-13T14:19:58.992Z</time>
      </trkpt>
      <trkpt lat="44.38758" lon="5.20724">
        <ele>304</ele>
        <time>2021-11-13T14:19:59.992Z</time>
      </trkpt>
      <trkpt lat="44.3876" lon="5.20728">
        <ele>304</ele>
        <time>2021-11-13T14:20:00.992Z</time>
      </trkpt>
      <trkpt lat="44.38762" lon="5.20733">
        <ele>304</ele>
        <time>2021-11-13T14:20:01.992Z</time>
      </trkpt>
      <trkpt lat="44.38764" lon="5.20737">
        <ele>304</ele>
        <time>2021-11-13T14:20:02.992Z</time>
      </trkpt>
      <trkpt lat="44.38766" lon="5.20742">
        <ele>304</ele>
        <time>2021-11-13T14:20:03.991Z</time>
      </trkpt>
      <trkpt lat="44.38768" lon="5.20746">
        <ele>304</ele>
        <time>2021-11-13T14:20:04.991Z</time>
      </trkpt>
      <trkpt lat="44.3877" lon="5.20751">
        <ele>304</ele>
        <time>2021-11-13T14:20:05.991Z</time>
      </trkpt>
      <trkpt lat="44.38772" lon="5.20755">
        <ele>305</ele>
        <time>2021-11-13T14:20:06.992Z</time>
      </trkpt>
      <trkpt lat="44.38773" lon="5.2076">
        <ele>305</ele>
        <time>2021-11-13T14:20:07.992Z</time>
      </trkpt>
      <trkpt lat="44.38775" lon="5.20764">
        <ele>305</ele>
        <time>2021-11-13T14:20:08.992Z</time>
      </trkpt>
      <trkpt lat="44.38777" lon="5.20769">
        <ele>305</ele>
        <time>2021-11-13T14:20:09.991Z</time>
      </trkpt>
      <trkpt lat="44.38778" lon="5.20773">
        <ele>305</ele>
        <time>2021-11-13T14:20:10.992Z</time>
      </trkpt>
      <trkpt lat="44.3878" lon="5.20778">
        <ele>306</ele>
        <time>2021-11-13T14:20:11.992Z</time>
      </trkpt>
      <trkpt lat="44.38782" lon="5.20782">
        <ele>306</ele>
        <time>2021-11-13T14:20:12.992Z</time>
      </trkpt>
      <trkpt lat="44.38783" lon="5.20787">
        <ele>306</ele>
        <time>2021-11-13T14:20:13.992Z</time>
      </trkpt>
      <trkpt lat="44.38785" lon="5.20791">
        <ele>306</ele>
        <time>2021-11-13T14:20:14.992Z</time>
      </trkpt>
      <trkpt lat="44.38787" lon="5.20796">
        <ele>307</ele>
        <time>2021-11-13T14:20:15.991Z</time>
      </trkpt>
      <trkpt lat="44.3879" lon="5.20801">
        <ele>307</ele>
        <time>2021-11-13T14:20:16.992Z</time>
      </trkpt>
      <trkpt lat="44.38792" lon="5.20805">
        <ele>308</ele>
        <time>2021-11-13T14:20:17.992Z</time>
      </trkpt>
      <trkpt lat="44.38794" lon="5.2081">
        <ele>308</ele>
        <time>2021-11-13T14:20:18.991Z</time>
      </trkpt>
      <trkpt lat="44.38796" lon="5.20815">
        <ele>307</ele>
        <time>2021-11-13T14:20:19.991Z</time>
      </trkpt>
      <trkpt lat="44.38798" lon="5.2082">
        <ele>307</ele>
        <time>2021-11-13T14:20:20.992Z</time>
      </trkpt>
      <trkpt lat="44.38799" lon="5.20825">
        <ele>306</ele>
        <time>2021-11-13T14:20:21.992Z</time>
      </trkpt>
      <trkpt lat="44.38801" lon="5.20829">
        <ele>306</ele>
        <time>2021-11-13T14:20:22.992Z</time>
      </trkpt>
      <trkpt lat="44.38803" lon="5.20834">
        <ele>306</ele>
        <time>2021-11-13T14:20:23.992Z</time>
      </trkpt>
      <trkpt lat="44.38805" lon="5.20839">
        <ele>306</ele>
        <time>2021-11-13T14:20:24.992Z</time>
      </trkpt>
      <trkpt lat="44.38807" lon="5.20844">
        <ele>306</ele>
        <time>2021-11-13T14:20:25.991Z</time>
      </trkpt>
      <trkpt lat="44.38809" lon="5.20849">
        <ele>306</ele>
        <time>2021-11-13T14:20:26.992Z</time>
      </trkpt>
      <trkpt lat="44.38811" lon="5.20854">
        <ele>306</ele>
        <time>2021-11-13T14:20:27.992Z</time>
      </trkpt>
      <trkpt lat="44.38812" lon="5.20858">
        <ele>307</ele>
        <time>2021-11-13T14:20:28.992Z</time>
      </trkpt>
      <trkpt lat="44.38815" lon="5.20862">
        <ele>307</ele>
        <time>2021-11-13T14:20:29.991Z</time>
      </trkpt>
      <trkpt lat="44.38817" lon="5.20867">
        <ele>307</ele>
        <time>2021-11-13T14:20:30.992Z</time>
      </trkpt>
      <trkpt lat="44.38819" lon="5.20871">
        <ele>307</ele>
        <time>2021-11-13T14:20:31.992Z</time>
      </trkpt>
      <trkpt lat="44.3882" lon="5.20875">
        <ele>306</ele>
        <time>2021-11-13T14:20:32.992Z</time>
      </trkpt>
      <trkpt lat="44.38821" lon="5.20879">
        <ele>306</ele>
        <time>2021-11-13T14:20:33.992Z</time>
      </trkpt>
      <trkpt lat="44.38822" lon="5.20883">
        <ele>306</ele>
        <time>2021-11-13T14:20:34.991Z</time>
      </trkpt>
      <trkpt lat="44.38823" lon="5.20887">
        <ele>306</ele>
        <time>2021-11-13T14:20:35.991Z</time>
      </trkpt>
      <trkpt lat="44.38824" lon="5.20891">
        <ele>307</ele>
        <time>2021-11-13T14:20:36.991Z</time>
      </trkpt>
      <trkpt lat="44.38824" lon="5.20895">
        <ele>307</ele>
        <time>2021-11-13T14:20:37.991Z</time>
      </trkpt>
      <trkpt lat="44.38824" lon="5.20899">
        <ele>307</ele>
        <time>2021-11-13T14:20:38.992Z</time>
      </trkpt>
      <trkpt lat="44.38825" lon="5.20903">
        <ele>307</ele>
        <time>2021-11-13T14:20:39.992Z</time>
      </trkpt>
      <trkpt lat="44.38825" lon="5.20907">
        <ele>307</ele>
        <time>2021-11-13T14:20:40.992Z</time>
      </trkpt>
      <trkpt lat="44.38825" lon="5.20912">
        <ele>308</ele>
        <time>2021-11-13T14:20:41.992Z</time>
      </trkpt>
      <trkpt lat="44.38826" lon="5.20916">
        <ele>308</ele>
        <time>2021-11-13T14:20:42.992Z</time>
      </trkpt>
      <trkpt lat="44.38826" lon="5.20921">
        <ele>308</ele>
        <time>2021-11-13T14:20:43.992Z</time>
      </trkpt>
      <trkpt lat="44.38826" lon="5.20925">
        <ele>308</ele>
        <time>2021-11-13T14:20:44.992Z</time>
      </trkpt>
      <trkpt lat="44.38826" lon="5.2093">
        <ele>308</ele>
        <time>2021-11-13T14:20:45.992Z</time>
      </trkpt>
      <trkpt lat="44.38826" lon="5.20934">
        <ele>309</ele>
        <time>2021-11-13T14:20:46.992Z</time>
      </trkpt>
      <trkpt lat="44.38826" lon="5.20939">
        <ele>309</ele>
        <time>2021-11-13T14:20:47.992Z</time>
      </trkpt>
      <trkpt lat="44.38826" lon="5.20943">
        <ele>309</ele>
        <time>2021-11-13T14:20:48.992Z</time>
      </trkpt>
      <trkpt lat="44.38827" lon="5.20947">
        <ele>309</ele>
        <time>2021-11-13T14:20:49.992Z</time>
      </trkpt>
      <trkpt lat="44.38827" lon="5.20952">
        <ele>310</ele>
        <time>2021-11-13T14:20:50.991Z</time>
      </trkpt>
      <trkpt lat="44.38827" lon="5.20956">
        <ele>310</ele>
        <time>2021-11-13T14:20:51.991Z</time>
      </trkpt>
      <trkpt lat="44.38827" lon="5.20961">
        <ele>310</ele>
        <time>2021-11-13T14:20:52.992Z</time>
      </trkpt>
      <trkpt lat="44.38828" lon="5.20965">
        <ele>310</ele>
        <time>2021-11-13T14:20:53.992Z</time>
      </trkpt>
      <trkpt lat="44.38828" lon="5.2097">
        <ele>310</ele>
        <time>2021-11-13T14:20:54.992Z</time>
      </trkpt>
      <trkpt lat="44.38828" lon="5.20974">
        <ele>311</ele>
        <time>2021-11-13T14:20:55.992Z</time>
      </trkpt>
      <trkpt lat="44.38828" lon="5.20979">
        <ele>312</ele>
        <time>2021-11-13T14:20:56.992Z</time>
      </trkpt>
      <trkpt lat="44.38828" lon="5.20983">
        <ele>312</ele>
        <time>2021-11-13T14:20:57.992Z</time>
      </trkpt>
      <trkpt lat="44.38828" lon="5.20988">
        <ele>313</ele>
        <time>2021-11-13T14:20:58.992Z</time>
      </trkpt>
      <trkpt lat="44.38828" lon="5.20993">
        <ele>313</ele>
        <time>2021-11-13T14:20:59.991Z</time>
      </trkpt>
      <trkpt lat="44.38827" lon="5.20997">
        <ele>314</ele>
        <time>2021-11-13T14:21:00.992Z</time>
      </trkpt>
      <trkpt lat="44.38827" lon="5.21001">
        <ele>314</ele>
        <time>2021-11-13T14:21:01.991Z</time>
      </trkpt>
      <trkpt lat="44.38827" lon="5.21007">
        <ele>313</ele>
        <time>2021-11-13T14:21:02.992Z</time>
      </trkpt>
      <trkpt lat="44.38826" lon="5.21011">
        <ele>313</ele>
        <time>2021-11-13T14:21:03.991Z</time>
      </trkpt>
      <trkpt lat="44.38826" lon="5.21015">
        <ele>313</ele>
        <time>2021-11-13T14:21:04.992Z</time>
      </trkpt>
      <trkpt lat="44.38825" lon="5.21019">
        <ele>312</ele>
        <time>2021-11-13T14:21:05.992Z</time>
      </trkpt>
      <trkpt lat="44.38824" lon="5.21024">
        <ele>312</ele>
        <time>2021-11-13T14:21:06.992Z</time>
      </trkpt>
      <trkpt lat="44.38823" lon="5.21027">
        <ele>312</ele>
        <time>2021-11-13T14:21:07.992Z</time>
      </trkpt>
      <trkpt lat="44.38821" lon="5.21032">
        <ele>312</ele>
        <time>2021-11-13T14:21:08.992Z</time>
      </trkpt>
      <trkpt lat="44.3882" lon="5.21035">
        <ele>312</ele>
        <time>2021-11-13T14:21:09.992Z</time>
      </trkpt>
      <trkpt lat="44.38819" lon="5.2104">
        <ele>311</ele>
        <time>2021-11-13T14:21:10.991Z</time>
      </trkpt>
      <trkpt lat="44.38818" lon="5.21045">
        <ele>311</ele>
        <time>2021-11-13T14:21:11.991Z</time>
      </trkpt>
      <trkpt lat="44.38816" lon="5.21049">
        <ele>311</ele>
        <time>2021-11-13T14:21:12.992Z</time>
      </trkpt>
      <trkpt lat="44.38815" lon="5.21053">
        <ele>311</ele>
        <time>2021-11-13T14:21:13.991Z</time>
      </trkpt>
      <trkpt lat="44.38814" lon="5.21057">
        <ele>311</ele>
        <time>2021-11-13T14:21:14.992Z</time>
      </trkpt>
      <trkpt lat="44.38813" lon="5.21062">
        <ele>311</ele>
        <time>2021-11-13T14:21:15.992Z</time>
      </trkpt>
      <trkpt lat="44.38812" lon="5.21067">
        <ele>311</ele>
        <time>2021-11-13T14:21:16.991Z</time>
      </trkpt>
      <trkpt lat="44.38811" lon="5.21071">
        <ele>311</ele>
        <time>2021-11-13T14:21:17.992Z</time>
      </trkpt>
      <trkpt lat="44.38811" lon="5.21075">
        <ele>311</ele>
        <time>2021-11-13T14:21:18.992Z</time>
      </trkpt>
      <trkpt lat="44.3881" lon="5.21079">
        <ele>311</ele>
        <time>2021-11-13T14:21:19.992Z</time>
      </trkpt>
      <trkpt lat="44.3881" lon="5.21085">
        <ele>311</ele>
        <time>2021-11-13T14:21:20.992Z</time>
      </trkpt>
      <trkpt lat="44.38809" lon="5.21089">
        <ele>312</ele>
        <time>2021-11-13T14:21:21.992Z</time>
      </trkpt>
      <trkpt lat="44.38809" lon="5.21093">
        <ele>312</ele>
        <time>2021-11-13T14:21:22.992Z</time>
      </trkpt>
      <trkpt lat="44.38809" lon="5.21097">
        <ele>312</ele>
        <time>2021-11-13T14:21:23.992Z</time>
      </trkpt>
      <trkpt lat="44.38808" lon="5.21102">
        <ele>312</ele>
        <time>2021-11-13T14:21:24.992Z</time>
      </trkpt>
      <trkpt lat="44.38808" lon="5.21105">
        <ele>312</ele>
        <time>2021-11-13T14:21:25.992Z</time>
      </trkpt>
      <trkpt lat="44.38808" lon="5.21111">
        <ele>313</ele>
        <time>2021-11-13T14:21:26.991Z</time>
      </trkpt>
      <trkpt lat="44.38808" lon="5.21115">
        <ele>313</ele>
        <time>2021-11-13T14:21:27.991Z</time>
      </trkpt>
      <trkpt lat="44.38807" lon="5.21119">
        <ele>313</ele>
        <time>2021-11-13T14:21:28.992Z</time>
      </trkpt>
      <trkpt lat="44.38807" lon="5.21124">
        <ele>314</ele>
        <time>2021-11-13T14:21:29.992Z</time>
      </trkpt>
      <trkpt lat="44.38807" lon="5.21128">
        <ele>314</ele>
        <time>2021-11-13T14:21:30.992Z</time>
      </trkpt>
      <trkpt lat="44.38807" lon="5.21134">
        <ele>314</ele>
        <time>2021-11-13T14:21:31.992Z</time>
      </trkpt>
      <trkpt lat="44.38806" lon="5.21137">
        <ele>314</ele>
        <time>2021-11-13T14:21:32.992Z</time>
      </trkpt>
      <trkpt lat="44.38806" lon="5.21143">
        <ele>313</ele>
        <time>2021-11-13T14:21:33.992Z</time>
      </trkpt>
      <trkpt lat="44.38806" lon="5.21147">
        <ele>313</ele>
        <time>2021-11-13T14:21:34.991Z</time>
      </trkpt>
      <trkpt lat="44.38806" lon="5.21151">
        <ele>313</ele>
        <time>2021-11-13T14:21:35.992Z</time>
      </trkpt>
      <trkpt lat="44.38805" lon="5.21155">
        <ele>313</ele>
        <time>2021-11-13T14:21:36.991Z</time>
      </trkpt>
      <trkpt lat="44.38805" lon="5.21159">
        <ele>313</ele>
        <time>2021-11-13T14:21:37.992Z</time>
      </trkpt>
      <trkpt lat="44.38804" lon="5.21165">
        <ele>313</ele>
        <time>2021-11-13T14:21:38.991Z</time>
      </trkpt>
      <trkpt lat="44.38804" lon="5.2117">
        <ele>313</ele>
        <time>2021-11-13T14:21:39.991Z</time>
      </trkpt>
      <trkpt lat="44.38803" lon="5.21173">
        <ele>313</ele>
        <time>2021-11-13T14:21:40.991Z</time>
      </trkpt>
      <trkpt lat="44.38803" lon="5.21178">
        <ele>312</ele>
        <time>2021-11-13T14:21:41.992Z</time>
      </trkpt>
      <trkpt lat="44.38802" lon="5.21183">
        <ele>312</ele>
        <time>2021-11-13T14:21:42.992Z</time>
      </trkpt>
      <trkpt lat="44.38801" lon="5.21187">
        <ele>312</ele>
        <time>2021-11-13T14:21:43.992Z</time>
      </trkpt>
      <trkpt lat="44.388" lon="5.21192">
        <ele>312</ele>
        <time>2021-11-13T14:21:44.992Z</time>
      </trkpt>
      <trkpt lat="44.388" lon="5.21196">
        <ele>312</ele>
        <time>2021-11-13T14:21:45.992Z</time>
      </trkpt>
      <trkpt lat="44.38799" lon="5.21201">
        <ele>311</ele>
        <time>2021-11-13T14:21:46.992Z</time>
      </trkpt>
      <trkpt lat="44.38797" lon="5.21206">
        <ele>311</ele>
        <time>2021-11-13T14:21:47.992Z</time>
      </trkpt>
      <trkpt lat="44.38796" lon="5.21211">
        <ele>311</ele>
        <time>2021-11-13T14:21:48.991Z</time>
      </trkpt>
      <trkpt lat="44.38795" lon="5.21215">
        <ele>311</ele>
        <time>2021-11-13T14:21:49.992Z</time>
      </trkpt>
      <trkpt lat="44.38794" lon="5.2122">
        <ele>311</ele>
        <time>2021-11-13T14:21:50.992Z</time>
      </trkpt>
      <trkpt lat="44.38793" lon="5.21225">
        <ele>311</ele>
        <time>2021-11-13T14:21:51.992Z</time>
      </trkpt>
      <trkpt lat="44.38791" lon="5.21231">
        <ele>312</ele>
        <time>2021-11-13T14:21:52.991Z</time>
      </trkpt>
      <trkpt lat="44.3879" lon="5.21236">
        <ele>312</ele>
        <time>2021-11-13T14:21:53.992Z</time>
      </trkpt>
      <trkpt lat="44.38789" lon="5.2124">
        <ele>313</ele>
        <time>2021-11-13T14:21:54.992Z</time>
      </trkpt>
      <trkpt lat="44.38787" lon="5.21246">
        <ele>313</ele>
        <time>2021-11-13T14:21:55.992Z</time>
      </trkpt>
      <trkpt lat="44.38786" lon="5.21251">
        <ele>313</ele>
        <time>2021-11-13T14:21:56.992Z</time>
      </trkpt>
      <trkpt lat="44.38785" lon="5.21256">
        <ele>313</ele>
        <time>2021-11-13T14:21:57.992Z</time>
      </trkpt>
      <trkpt lat="44.38783" lon="5.2126">
        <ele>313</ele>
        <time>2021-11-13T14:21:58.992Z</time>
      </trkpt>
      <trkpt lat="44.38782" lon="5.21265">
        <ele>313</ele>
        <time>2021-11-13T14:21:59.992Z</time>
      </trkpt>
      <trkpt lat="44.3878" lon="5.21271">
        <ele>313</ele>
        <time>2021-11-13T14:22:00.992Z</time>
      </trkpt>
      <trkpt lat="44.38779" lon="5.21276">
        <ele>313</ele>
        <time>2021-11-13T14:22:01.991Z</time>
      </trkpt>
      <trkpt lat="44.38778" lon="5.21281">
        <ele>313</ele>
        <time>2021-11-13T14:22:02.992Z</time>
      </trkpt>
      <trkpt lat="44.38776" lon="5.21285">
        <ele>314</ele>
        <time>2021-11-13T14:22:03.991Z</time>
      </trkpt>
      <trkpt lat="44.38775" lon="5.2129">
        <ele>314</ele>
        <time>2021-11-13T14:22:04.992Z</time>
      </trkpt>
      <trkpt lat="44.38773" lon="5.21295">
        <ele>314</ele>
        <time>2021-11-13T14:22:05.991Z</time>
      </trkpt>
      <trkpt lat="44.38772" lon="5.213">
        <ele>314</ele>
        <time>2021-11-13T14:22:06.992Z</time>
      </trkpt>
      <trkpt lat="44.3877" lon="5.21304">
        <ele>314</ele>
        <time>2021-11-13T14:22:07.992Z</time>
      </trkpt>
      <trkpt lat="44.38768" lon="5.21309">
        <ele>314</ele>
        <time>2021-11-13T14:22:08.992Z</time>
      </trkpt>
      <trkpt lat="44.38766" lon="5.21316">
        <ele>314</ele>
        <time>2021-11-13T14:22:09.992Z</time>
      </trkpt>
      <trkpt lat="44.38765" lon="5.21321">
        <ele>313</ele>
        <time>2021-11-13T14:22:10.992Z</time>
      </trkpt>
      <trkpt lat="44.38763" lon="5.21325">
        <ele>313</ele>
        <time>2021-11-13T14:22:11.992Z</time>
      </trkpt>
      <trkpt lat="44.38762" lon="5.2133">
        <ele>313</ele>
        <time>2021-11-13T14:22:12.992Z</time>
      </trkpt>
      <trkpt lat="44.3876" lon="5.21335">
        <ele>313</ele>
        <time>2021-11-13T14:22:13.992Z</time>
      </trkpt>
      <trkpt lat="44.38758" lon="5.21341">
        <ele>313</ele>
        <time>2021-11-13T14:22:14.992Z</time>
      </trkpt>
      <trkpt lat="44.38756" lon="5.21346">
        <ele>313</ele>
        <time>2021-11-13T14:22:15.992Z</time>
      </trkpt>
      <trkpt lat="44.38754" lon="5.2135">
        <ele>313</ele>
        <time>2021-11-13T14:22:16.992Z</time>
      </trkpt>
      <trkpt lat="44.38753" lon="5.21356">
        <ele>313</ele>
        <time>2021-11-13T14:22:17.991Z</time>
      </trkpt>
      <trkpt lat="44.38751" lon="5.21362">
        <ele>313</ele>
        <time>2021-11-13T14:22:18.991Z</time>
      </trkpt>
      <trkpt lat="44.38749" lon="5.21368">
        <ele>313</ele>
        <time>2021-11-13T14:22:19.991Z</time>
      </trkpt>
      <trkpt lat="44.38747" lon="5.21373">
        <ele>313</ele>
        <time>2021-11-13T14:22:20.992Z</time>
      </trkpt>
      <trkpt lat="44.38746" lon="5.21378">
        <ele>313</ele>
        <time>2021-11-13T14:22:21.992Z</time>
      </trkpt>
      <trkpt lat="44.38744" lon="5.21385">
        <ele>313</ele>
        <time>2021-11-13T14:22:22.992Z</time>
      </trkpt>
      <trkpt lat="44.38742" lon="5.21389">
        <ele>313</ele>
        <time>2021-11-13T14:22:23.992Z</time>
      </trkpt>
      <trkpt lat="44.3874" lon="5.21396">
        <ele>313</ele>
        <time>2021-11-13T14:22:24.992Z</time>
      </trkpt>
      <trkpt lat="44.38739" lon="5.214">
        <ele>312</ele>
        <time>2021-11-13T14:22:25.992Z</time>
      </trkpt>
      <trkpt lat="44.38737" lon="5.21406">
        <ele>312</ele>
        <time>2021-11-13T14:22:26.992Z</time>
      </trkpt>
      <trkpt lat="44.38735" lon="5.21413">
        <ele>312</ele>
        <time>2021-11-13T14:22:27.992Z</time>
      </trkpt>
      <trkpt lat="44.38733" lon="5.21418">
        <ele>313</ele>
        <time>2021-11-13T14:22:28.991Z</time>
      </trkpt>
      <trkpt lat="44.38732" lon="5.21423">
        <ele>313</ele>
        <time>2021-11-13T14:22:29.992Z</time>
      </trkpt>
      <trkpt lat="44.3873" lon="5.21429">
        <ele>313</ele>
        <time>2021-11-13T14:22:30.991Z</time>
      </trkpt>
      <trkpt lat="44.38728" lon="5.21436">
        <ele>313</ele>
        <time>2021-11-13T14:22:31.992Z</time>
      </trkpt>
      <trkpt lat="44.38726" lon="5.21441">
        <ele>314</ele>
        <time>2021-11-13T14:22:32.992Z</time>
      </trkpt>
      <trkpt lat="44.38724" lon="5.21447">
        <ele>314</ele>
        <time>2021-11-13T14:22:33.992Z</time>
      </trkpt>
      <trkpt lat="44.38722" lon="5.21451">
        <ele>314</ele>
        <time>2021-11-13T14:22:34.992Z</time>
      </trkpt>
      <trkpt lat="44.3872" lon="5.21458">
        <ele>314</ele>
        <time>2021-11-13T14:22:35.991Z</time>
      </trkpt>
      <trkpt lat="44.38718" lon="5.21463">
        <ele>314</ele>
        <time>2021-11-13T14:22:36.992Z</time>
      </trkpt>
      <trkpt lat="44.38716" lon="5.21468">
        <ele>313</ele>
        <time>2021-11-13T14:22:37.992Z</time>
      </trkpt>
      <trkpt lat="44.38714" lon="5.21473">
        <ele>313</ele>
        <time>2021-11-13T14:22:38.992Z</time>
      </trkpt>
      <trkpt lat="44.38712" lon="5.21478">
        <ele>313</ele>
        <time>2021-11-13T14:22:39.992Z</time>
      </trkpt>
      <trkpt lat="44.3871" lon="5.21484">
        <ele>313</ele>
        <time>2021-11-13T14:22:40.992Z</time>
      </trkpt>
      <trkpt lat="44.38708" lon="5.2149">
        <ele>313</ele>
        <time>2021-11-13T14:22:41.991Z</time>
      </trkpt>
      <trkpt lat="44.38707" lon="5.21496">
        <ele>314</ele>
        <time>2021-11-13T14:22:42.992Z</time>
      </trkpt>
      <trkpt lat="44.38705" lon="5.215">
        <ele>314</ele>
        <time>2021-11-13T14:22:43.991Z</time>
      </trkpt>
      <trkpt lat="44.38703" lon="5.21506">
        <ele>315</ele>
        <time>2021-11-13T14:22:44.991Z</time>
      </trkpt>
      <trkpt lat="44.38702" lon="5.2151">
        <ele>315</ele>
        <time>2021-11-13T14:22:45.992Z</time>
      </trkpt>
      <trkpt lat="44.387" lon="5.21517">
        <ele>315</ele>
        <time>2021-11-13T14:22:46.991Z</time>
      </trkpt>
      <trkpt lat="44.38698" lon="5.21521">
        <ele>315</ele>
        <time>2021-11-13T14:22:47.992Z</time>
      </trkpt>
      <trkpt lat="44.38696" lon="5.21527">
        <ele>315</ele>
        <time>2021-11-13T14:22:48.991Z</time>
      </trkpt>
      <trkpt lat="44.38694" lon="5.21533">
        <ele>315</ele>
        <time>2021-11-13T14:22:49.992Z</time>
      </trkpt>
      <trkpt lat="44.38692" lon="5.21539">
        <ele>315</ele>
        <time>2021-11-13T14:22:50.992Z</time>
      </trkpt>
      <trkpt lat="44.3869" lon="5.21544">
        <ele>314</ele>
        <time>2021-11-13T14:22:51.991Z</time>
      </trkpt>
      <trkpt lat="44.38688" lon="5.21548">
        <ele>314</ele>
        <time>2021-11-13T14:22:52.991Z</time>
      </trkpt>
      <trkpt lat="44.38686" lon="5.21554">
        <ele>314</ele>
        <time>2021-11-13T14:22:53.992Z</time>
      </trkpt>
      <trkpt lat="44.38683" lon="5.2156">
        <ele>314</ele>
        <time>2021-11-13T14:22:54.991Z</time>
      </trkpt>
      <trkpt lat="44.38682" lon="5.21564">
        <ele>315</ele>
        <time>2021-11-13T14:22:55.991Z</time>
      </trkpt>
      <trkpt lat="44.3868" lon="5.2157">
        <ele>315</ele>
        <time>2021-11-13T14:22:56.992Z</time>
      </trkpt>
      <trkpt lat="44.38678" lon="5.21575">
        <ele>315</ele>
        <time>2021-11-13T14:22:57.991Z</time>
      </trkpt>
      <trkpt lat="44.38675" lon="5.21581">
        <ele>315</ele>
        <time>2021-11-13T14:22:58.992Z</time>
      </trkpt>
      <trkpt lat="44.38674" lon="5.21586">
        <ele>316</ele>
        <time>2021-11-13T14:22:59.991Z</time>
      </trkpt>
      <trkpt lat="44.38672" lon="5.21591">
        <ele>316</ele>
        <time>2021-11-13T14:23:00.991Z</time>
      </trkpt>
      <trkpt lat="44.3867" lon="5.21596">
        <ele>316</ele>
        <time>2021-11-13T14:23:01.992Z</time>
      </trkpt>
      <trkpt lat="44.38668" lon="5.21602">
        <ele>316</ele>
        <time>2021-11-13T14:23:02.992Z</time>
      </trkpt>
      <trkpt lat="44.38666" lon="5.21607">
        <ele>317</ele>
        <time>2021-11-13T14:23:03.991Z</time>
      </trkpt>
      <trkpt lat="44.38664" lon="5.21613">
        <ele>317</ele>
        <time>2021-11-13T14:23:04.992Z</time>
      </trkpt>
      <trkpt lat="44.38662" lon="5.21617">
        <ele>317</ele>
        <time>2021-11-13T14:23:05.992Z</time>
      </trkpt>
      <trkpt lat="44.3866" lon="5.21622">
        <ele>317</ele>
        <time>2021-11-13T14:23:06.992Z</time>
      </trkpt>
      <trkpt lat="44.38657" lon="5.21627">
        <ele>317</ele>
        <time>2021-11-13T14:23:07.992Z</time>
      </trkpt>
      <trkpt lat="44.38655" lon="5.21632">
        <ele>318</ele>
        <time>2021-11-13T14:23:08.991Z</time>
      </trkpt>
      <trkpt lat="44.38653" lon="5.21635">
        <ele>318</ele>
        <time>2021-11-13T14:23:09.992Z</time>
      </trkpt>
      <trkpt lat="44.3865" lon="5.21639">
        <ele>319</ele>
        <time>2021-11-13T14:23:10.991Z</time>
      </trkpt>
      <trkpt lat="44.38647" lon="5.21641">
        <ele>319</ele>
        <time>2021-11-13T14:23:11.991Z</time>
      </trkpt>
      <trkpt lat="44.38643" lon="5.21641">
        <ele>319</ele>
        <time>2021-11-13T14:23:12.992Z</time>
      </trkpt>
      <trkpt lat="44.3864" lon="5.21641">
        <ele>319</ele>
        <time>2021-11-13T14:23:13.991Z</time>
      </trkpt>
      <trkpt lat="44.38638" lon="5.21641">
        <ele>319</ele>
        <time>2021-11-13T14:23:14.992Z</time>
      </trkpt>
      <trkpt lat="44.38634" lon="5.21641">
        <ele>320</ele>
        <time>2021-11-13T14:23:15.992Z</time>
      </trkpt>
      <trkpt lat="44.38632" lon="5.2164">
        <ele>320</ele>
        <time>2021-11-13T14:23:16.992Z</time>
      </trkpt>
      <trkpt lat="44.38629" lon="5.2164">
        <ele>320</ele>
        <time>2021-11-13T14:23:17.992Z</time>
      </trkpt>
      <trkpt lat="44.38627" lon="5.21641">
        <ele>320</ele>
        <time>2021-11-13T14:23:18.991Z</time>
      </trkpt>
      <trkpt lat="44.38624" lon="5.21642">
        <ele>320</ele>
        <time>2021-11-13T14:23:19.992Z</time>
      </trkpt>
      <trkpt lat="44.38622" lon="5.21643">
        <ele>321</ele>
        <time>2021-11-13T14:23:20.992Z</time>
      </trkpt>
      <trkpt lat="44.3862" lon="5.21645">
        <ele>322</ele>
        <time>2021-11-13T14:23:21.991Z</time>
      </trkpt>
      <trkpt lat="44.38618" lon="5.21647">
        <ele>322</ele>
        <time>2021-11-13T14:23:22.991Z</time>
      </trkpt>
      <trkpt lat="44.38616" lon="5.21648">
        <ele>322</ele>
        <time>2021-11-13T14:23:23.992Z</time>
      </trkpt>
      <trkpt lat="44.38614" lon="5.21651">
        <ele>322</ele>
        <time>2021-11-13T14:23:24.992Z</time>
      </trkpt>
      <trkpt lat="44.38613" lon="5.21653">
        <ele>321</ele>
        <time>2021-11-13T14:23:25.992Z</time>
      </trkpt>
      <trkpt lat="44.38611" lon="5.21656">
        <ele>321</ele>
        <time>2021-11-13T14:23:26.992Z</time>
      </trkpt>
      <trkpt lat="44.38609" lon="5.21658">
        <ele>321</ele>
        <time>2021-11-13T14:23:27.992Z</time>
      </trkpt>
      <trkpt lat="44.38608" lon="5.2166">
        <ele>320</ele>
        <time>2021-11-13T14:23:28.991Z</time>
      </trkpt>
      <trkpt lat="44.38606" lon="5.21663">
        <ele>319</ele>
        <time>2021-11-13T14:23:29.992Z</time>
      </trkpt>
      <trkpt lat="44.38604" lon="5.21666">
        <ele>319</ele>
        <time>2021-11-13T14:23:30.992Z</time>
      </trkpt>
      <trkpt lat="44.38603" lon="5.21669">
        <ele>319</ele>
        <time>2021-11-13T14:23:31.992Z</time>
      </trkpt>
      <trkpt lat="44.38602" lon="5.21671">
        <ele>319</ele>
        <time>2021-11-13T14:23:32.992Z</time>
      </trkpt>
      <trkpt lat="44.386" lon="5.21674">
        <ele>318</ele>
        <time>2021-11-13T14:23:33.992Z</time>
      </trkpt>
      <trkpt lat="44.38598" lon="5.21677">
        <ele>318</ele>
        <time>2021-11-13T14:23:34.992Z</time>
      </trkpt>
      <trkpt lat="44.38597" lon="5.2168">
        <ele>319</ele>
        <time>2021-11-13T14:23:35.991Z</time>
      </trkpt>
      <trkpt lat="44.38596" lon="5.21682">
        <ele>319</ele>
        <time>2021-11-13T14:23:36.992Z</time>
      </trkpt>
      <trkpt lat="44.38593" lon="5.21684">
        <ele>320</ele>
        <time>2021-11-13T14:23:37.992Z</time>
      </trkpt>
      <trkpt lat="44.38591" lon="5.21685">
        <ele>320</ele>
        <time>2021-11-13T14:23:38.992Z</time>
      </trkpt>
      <trkpt lat="44.38589" lon="5.21686">
        <ele>321</ele>
        <time>2021-11-13T14:23:39.992Z</time>
      </trkpt>
      <trkpt lat="44.38587" lon="5.21687">
        <ele>321</ele>
        <time>2021-11-13T14:23:40.992Z</time>
      </trkpt>
      <trkpt lat="44.38585" lon="5.21689">
        <ele>322</ele>
        <time>2021-11-13T14:23:41.991Z</time>
      </trkpt>
      <trkpt lat="44.38582" lon="5.21691">
        <ele>322</ele>
        <time>2021-11-13T14:23:42.992Z</time>
      </trkpt>
      <trkpt lat="44.3858" lon="5.21693">
        <ele>323</ele>
        <time>2021-11-13T14:23:43.992Z</time>
      </trkpt>
      <trkpt lat="44.38577" lon="5.21696">
        <ele>324</ele>
        <time>2021-11-13T14:23:44.992Z</time>
      </trkpt>
      <trkpt lat="44.38574" lon="5.21698">
        <ele>325</ele>
        <time>2021-11-13T14:23:45.992Z</time>
      </trkpt>
      <trkpt lat="44.38571" lon="5.21701">
        <ele>326</ele>
        <time>2021-11-13T14:23:46.992Z</time>
      </trkpt>
      <trkpt lat="44.38567" lon="5.21703">
        <ele>326</ele>
        <time>2021-11-13T14:23:47.992Z</time>
      </trkpt>
      <trkpt lat="44.38564" lon="5.21705">
        <ele>327</ele>
        <time>2021-11-13T14:23:48.991Z</time>
      </trkpt>
      <trkpt lat="44.38561" lon="5.21707">
        <ele>326</ele>
        <time>2021-11-13T14:23:49.991Z</time>
      </trkpt>
      <trkpt lat="44.38557" lon="5.2171">
        <ele>327</ele>
        <time>2021-11-13T14:23:50.992Z</time>
      </trkpt>
      <trkpt lat="44.38554" lon="5.21712">
        <ele>327</ele>
        <time>2021-11-13T14:23:51.991Z</time>
      </trkpt>
      <trkpt lat="44.3855" lon="5.21716">
        <ele>327</ele>
        <time>2021-11-13T14:23:52.991Z</time>
      </trkpt>
      <trkpt lat="44.38547" lon="5.21719">
        <ele>326</ele>
        <time>2021-11-13T14:23:53.992Z</time>
      </trkpt>
      <trkpt lat="44.38545" lon="5.21722">
        <ele>326</ele>
        <time>2021-11-13T14:23:54.992Z</time>
      </trkpt>
      <trkpt lat="44.38541" lon="5.21726">
        <ele>325</ele>
        <time>2021-11-13T14:23:55.992Z</time>
      </trkpt>
      <trkpt lat="44.38539" lon="5.2173">
        <ele>325</ele>
        <time>2021-11-13T14:23:56.992Z</time>
      </trkpt>
      <trkpt lat="44.38536" lon="5.21733">
        <ele>325</ele>
        <time>2021-11-13T14:23:57.991Z</time>
      </trkpt>
      <trkpt lat="44.38533" lon="5.21736">
        <ele>324</ele>
        <time>2021-11-13T14:23:58.991Z</time>
      </trkpt>
      <trkpt lat="44.38531" lon="5.21739">
        <ele>324</ele>
        <time>2021-11-13T14:23:59.992Z</time>
      </trkpt>
      <trkpt lat="44.38529" lon="5.21743">
        <ele>324</ele>
        <time>2021-11-13T14:24:00.992Z</time>
      </trkpt>
      <trkpt lat="44.38526" lon="5.21748">
        <ele>324</ele>
        <time>2021-11-13T14:24:01.992Z</time>
      </trkpt>
      <trkpt lat="44.38524" lon="5.21752">
        <ele>323</ele>
        <time>2021-11-13T14:24:02.992Z</time>
      </trkpt>
      <trkpt lat="44.38522" lon="5.21755">
        <ele>323</ele>
        <time>2021-11-13T14:24:03.991Z</time>
      </trkpt>
      <trkpt lat="44.38518" lon="5.2176">
        <ele>323</ele>
        <time>2021-11-13T14:24:04.992Z</time>
      </trkpt>
      <trkpt lat="44.38515" lon="5.21763">
        <ele>322</ele>
        <time>2021-11-13T14:24:05.992Z</time>
      </trkpt>
      <trkpt lat="44.38512" lon="5.21766">
        <ele>322</ele>
        <time>2021-11-13T14:24:06.992Z</time>
      </trkpt>
      <trkpt lat="44.38508" lon="5.21769">
        <ele>322</ele>
        <time>2021-11-13T14:24:07.991Z</time>
      </trkpt>
      <trkpt lat="44.38505" lon="5.21773">
        <ele>322</ele>
        <time>2021-11-13T14:24:08.991Z</time>
      </trkpt>
      <trkpt lat="44.38501" lon="5.21776">
        <ele>322</ele>
        <time>2021-11-13T14:24:09.991Z</time>
      </trkpt>
      <trkpt lat="44.38496" lon="5.2178">
        <ele>322</ele>
        <time>2021-11-13T14:24:10.992Z</time>
      </trkpt>
      <trkpt lat="44.38493" lon="5.21784">
        <ele>322</ele>
        <time>2021-11-13T14:24:11.992Z</time>
      </trkpt>
      <trkpt lat="44.3849" lon="5.21786">
        <ele>322</ele>
        <time>2021-11-13T14:24:12.992Z</time>
      </trkpt>
      <trkpt lat="44.38485" lon="5.2179">
        <ele>322</ele>
        <time>2021-11-13T14:24:13.992Z</time>
      </trkpt>
      <trkpt lat="44.38482" lon="5.21794">
        <ele>322</ele>
        <time>2021-11-13T14:24:14.992Z</time>
      </trkpt>
      <trkpt lat="44.38478" lon="5.21797">
        <ele>322</ele>
        <time>2021-11-13T14:24:15.991Z</time>
      </trkpt>
      <trkpt lat="44.38476" lon="5.218">
        <ele>322</ele>
        <time>2021-11-13T14:24:16.992Z</time>
      </trkpt>
      <trkpt lat="44.38472" lon="5.21804">
        <ele>322</ele>
        <time>2021-11-13T14:24:17.991Z</time>
      </trkpt>
      <trkpt lat="44.38468" lon="5.21808">
        <ele>323</ele>
        <time>2021-11-13T14:24:18.992Z</time>
      </trkpt>
      <trkpt lat="44.38464" lon="5.21812">
        <ele>322</ele>
        <time>2021-11-13T14:24:19.991Z</time>
      </trkpt>
      <trkpt lat="44.38461" lon="5.21815">
        <ele>322</ele>
        <time>2021-11-13T14:24:20.992Z</time>
      </trkpt>
      <trkpt lat="44.38457" lon="5.21819">
        <ele>321</ele>
        <time>2021-11-13T14:24:21.992Z</time>
      </trkpt>
      <trkpt lat="44.38453" lon="5.21823">
        <ele>321</ele>
        <time>2021-11-13T14:24:22.992Z</time>
      </trkpt>
      <trkpt lat="44.38449" lon="5.21827">
        <ele>321</ele>
        <time>2021-11-13T14:24:23.992Z</time>
      </trkpt>
      <trkpt lat="44.38445" lon="5.21831">
        <ele>321</ele>
        <time>2021-11-13T14:24:24.992Z</time>
      </trkpt>
      <trkpt lat="44.38442" lon="5.21836">
        <ele>321</ele>
        <time>2021-11-13T14:24:25.992Z</time>
      </trkpt>
      <trkpt lat="44.38438" lon="5.2184">
        <ele>320</ele>
        <time>2021-11-13T14:24:26.992Z</time>
      </trkpt>
      <trkpt lat="44.38435" lon="5.21845">
        <ele>320</ele>
        <time>2021-11-13T14:24:27.992Z</time>
      </trkpt>
      <trkpt lat="44.38431" lon="5.21851">
        <ele>319</ele>
        <time>2021-11-13T14:24:28.991Z</time>
      </trkpt>
      <trkpt lat="44.38428" lon="5.21856">
        <ele>319</ele>
        <time>2021-11-13T14:24:29.991Z</time>
      </trkpt>
      <trkpt lat="44.38426" lon="5.21861">
        <ele>319</ele>
        <time>2021-11-13T14:24:30.992Z</time>
      </trkpt>
      <trkpt lat="44.38423" lon="5.21867">
        <ele>319</ele>
        <time>2021-11-13T14:24:31.991Z</time>
      </trkpt>
      <trkpt lat="44.38421" lon="5.21873">
        <ele>319</ele>
        <time>2021-11-13T14:24:32.992Z</time>
      </trkpt>
      <trkpt lat="44.38419" lon="5.21878">
        <ele>319</ele>
        <time>2021-11-13T14:24:33.992Z</time>
      </trkpt>
      <trkpt lat="44.38417" lon="5.21883">
        <ele>319</ele>
        <time>2021-11-13T14:24:34.991Z</time>
      </trkpt>
      <trkpt lat="44.38415" lon="5.21889">
        <ele>320</ele>
        <time>2021-11-13T14:24:35.991Z</time>
      </trkpt>
      <trkpt lat="44.38413" lon="5.21895">
        <ele>320</ele>
        <time>2021-11-13T14:24:36.991Z</time>
      </trkpt>
      <trkpt lat="44.3841" lon="5.21902">
        <ele>320</ele>
        <time>2021-11-13T14:24:37.992Z</time>
      </trkpt>
      <trkpt lat="44.38409" lon="5.21907">
        <ele>320</ele>
        <time>2021-11-13T14:24:38.991Z</time>
      </trkpt>
      <trkpt lat="44.38407" lon="5.21913">
        <ele>320</ele>
        <time>2021-11-13T14:24:39.991Z</time>
      </trkpt>
      <trkpt lat="44.38405" lon="5.2192">
        <ele>320</ele>
        <time>2021-11-13T14:24:40.992Z</time>
      </trkpt>
      <trkpt lat="44.38403" lon="5.21926">
        <ele>320</ele>
        <time>2021-11-13T14:24:41.992Z</time>
      </trkpt>
      <trkpt lat="44.38402" lon="5.21931">
        <ele>320</ele>
        <time>2021-11-13T14:24:42.992Z</time>
      </trkpt>
      <trkpt lat="44.38401" lon="5.21938">
        <ele>320</ele>
        <time>2021-11-13T14:24:43.991Z</time>
      </trkpt>
      <trkpt lat="44.38399" lon="5.21945">
        <ele>320</ele>
        <time>2021-11-13T14:24:44.992Z</time>
      </trkpt>
      <trkpt lat="44.38398" lon="5.2195">
        <ele>321</ele>
        <time>2021-11-13T14:24:45.992Z</time>
      </trkpt>
      <trkpt lat="44.38397" lon="5.21958">
        <ele>321</ele>
        <time>2021-11-13T14:24:46.992Z</time>
      </trkpt>
      <trkpt lat="44.38397" lon="5.21963">
        <ele>322</ele>
        <time>2021-11-13T14:24:47.991Z</time>
      </trkpt>
      <trkpt lat="44.38396" lon="5.2197">
        <ele>322</ele>
        <time>2021-11-13T14:24:48.991Z</time>
      </trkpt>
      <trkpt lat="44.38395" lon="5.21977">
        <ele>323</ele>
        <time>2021-11-13T14:24:49.992Z</time>
      </trkpt>
      <trkpt lat="44.38394" lon="5.21983">
        <ele>324</ele>
        <time>2021-11-13T14:24:50.992Z</time>
      </trkpt>
      <trkpt lat="44.38394" lon="5.21989">
        <ele>324</ele>
        <time>2021-11-13T14:24:51.991Z</time>
      </trkpt>
      <trkpt lat="44.38393" lon="5.21994">
        <ele>324</ele>
        <time>2021-11-13T14:24:52.991Z</time>
      </trkpt>
      <trkpt lat="44.38392" lon="5.22001">
        <ele>324</ele>
        <time>2021-11-13T14:24:53.992Z</time>
      </trkpt>
      <trkpt lat="44.38391" lon="5.22006">
        <ele>324</ele>
        <time>2021-11-13T14:24:54.992Z</time>
      </trkpt>
      <trkpt lat="44.3839" lon="5.22013">
        <ele>324</ele>
        <time>2021-11-13T14:24:55.992Z</time>
      </trkpt>
      <trkpt lat="44.38389" lon="5.22018">
        <ele>324</ele>
        <time>2021-11-13T14:24:56.992Z</time>
      </trkpt>
      <trkpt lat="44.38388" lon="5.22024">
        <ele>324</ele>
        <time>2021-11-13T14:24:57.992Z</time>
      </trkpt>
      <trkpt lat="44.38386" lon="5.22031">
        <ele>324</ele>
        <time>2021-11-13T14:24:58.992Z</time>
      </trkpt>
      <trkpt lat="44.38384" lon="5.22037">
        <ele>324</ele>
        <time>2021-11-13T14:24:59.991Z</time>
      </trkpt>
      <trkpt lat="44.38383" lon="5.22043">
        <ele>323</ele>
        <time>2021-11-13T14:25:00.992Z</time>
      </trkpt>
      <trkpt lat="44.38382" lon="5.22048">
        <ele>323</ele>
        <time>2021-11-13T14:25:01.992Z</time>
      </trkpt>
      <trkpt lat="44.38379" lon="5.22054">
        <ele>322</ele>
        <time>2021-11-13T14:25:02.991Z</time>
      </trkpt>
      <trkpt lat="44.38378" lon="5.22059">
        <ele>322</ele>
        <time>2021-11-13T14:25:03.992Z</time>
      </trkpt>
      <trkpt lat="44.38376" lon="5.22064">
        <ele>322</ele>
        <time>2021-11-13T14:25:04.992Z</time>
      </trkpt>
      <trkpt lat="44.38374" lon="5.2207">
        <ele>323</ele>
        <time>2021-11-13T14:25:05.992Z</time>
      </trkpt>
      <trkpt lat="44.38372" lon="5.22075">
        <ele>323</ele>
        <time>2021-11-13T14:25:06.992Z</time>
      </trkpt>
      <trkpt lat="44.38369" lon="5.22082">
        <ele>324</ele>
        <time>2021-11-13T14:25:07.992Z</time>
      </trkpt>
      <trkpt lat="44.38367" lon="5.22087">
        <ele>324</ele>
        <time>2021-11-13T14:25:08.992Z</time>
      </trkpt>
      <trkpt lat="44.38365" lon="5.22091">
        <ele>325</ele>
        <time>2021-11-13T14:25:09.992Z</time>
      </trkpt>
      <trkpt lat="44.38363" lon="5.22097">
        <ele>325</ele>
        <time>2021-11-13T14:25:10.992Z</time>
      </trkpt>
      <trkpt lat="44.3836" lon="5.22103">
        <ele>326</ele>
        <time>2021-11-13T14:25:11.992Z</time>
      </trkpt>
      <trkpt lat="44.38358" lon="5.22106">
        <ele>326</ele>
        <time>2021-11-13T14:25:12.992Z</time>
      </trkpt>
      <trkpt lat="44.38354" lon="5.22111">
        <ele>326</ele>
        <time>2021-11-13T14:25:13.992Z</time>
      </trkpt>
      <trkpt lat="44.38351" lon="5.22113">
        <ele>326</ele>
        <time>2021-11-13T14:25:14.992Z</time>
      </trkpt>
      <trkpt lat="44.38347" lon="5.22116">
        <ele>327</ele>
        <time>2021-11-13T14:25:15.992Z</time>
      </trkpt>
      <trkpt lat="44.38343" lon="5.22118">
        <ele>327</ele>
        <time>2021-11-13T14:25:16.992Z</time>
      </trkpt>
      <trkpt lat="44.38339" lon="5.22118">
        <ele>328</ele>
        <time>2021-11-13T14:25:17.992Z</time>
      </trkpt>
      <trkpt lat="44.38336" lon="5.22118">
        <ele>328</ele>
        <time>2021-11-13T14:25:18.991Z</time>
      </trkpt>
      <trkpt lat="44.38332" lon="5.22117">
        <ele>328</ele>
        <time>2021-11-13T14:25:19.992Z</time>
      </trkpt>
      <trkpt lat="44.38328" lon="5.22116">
        <ele>328</ele>
        <time>2021-11-13T14:25:20.992Z</time>
      </trkpt>
      <trkpt lat="44.38324" lon="5.22114">
        <ele>328</ele>
        <time>2021-11-13T14:25:21.991Z</time>
      </trkpt>
      <trkpt lat="44.38321" lon="5.22113">
        <ele>329</ele>
        <time>2021-11-13T14:25:22.992Z</time>
      </trkpt>
      <trkpt lat="44.38319" lon="5.22111">
        <ele>329</ele>
        <time>2021-11-13T14:25:23.991Z</time>
      </trkpt>
      <trkpt lat="44.38317" lon="5.22109">
        <ele>329</ele>
        <time>2021-11-13T14:25:24.991Z</time>
      </trkpt>
      <trkpt lat="44.38315" lon="5.22108">
        <ele>329</ele>
        <time>2021-11-13T14:25:25.991Z</time>
      </trkpt>
      <trkpt lat="44.38315" lon="5.22107">
        <ele>330</ele>
        <time>2021-11-13T14:25:26.991Z</time>
      </trkpt>
      <trkpt lat="44.38315" lon="5.22106">
        <ele>330</ele>
        <time>2021-11-13T14:25:27.992Z</time>
      </trkpt>
      <trkpt lat="44.38315" lon="5.22105">
        <ele>331</ele>
        <time>2021-11-13T14:25:28.991Z</time>
      </trkpt>
      <trkpt lat="44.38318" lon="5.22111">
        <ele>331</ele>
        <time>2021-11-13T14:25:29.992Z</time>
      </trkpt>
      <trkpt lat="44.3832" lon="5.22116">
        <ele>331</ele>
        <time>2021-11-13T14:25:30.992Z</time>
      </trkpt>
      <trkpt lat="44.38321" lon="5.22121">
        <ele>330</ele>
        <time>2021-11-13T14:25:31.991Z</time>
      </trkpt>
      <trkpt lat="44.38323" lon="5.22127">
        <ele>329</ele>
        <time>2021-11-13T14:25:32.991Z</time>
      </trkpt>
      <trkpt lat="44.38325" lon="5.22135">
        <ele>329</ele>
        <time>2021-11-13T14:25:33.992Z</time>
      </trkpt>
      <trkpt lat="44.38326" lon="5.22141">
        <ele>328</ele>
        <time>2021-11-13T14:25:34.992Z</time>
      </trkpt>
      <trkpt lat="44.38327" lon="5.22147">
        <ele>328</ele>
        <time>2021-11-13T14:25:35.992Z</time>
      </trkpt>
      <trkpt lat="44.38329" lon="5.22154">
        <ele>327</ele>
        <time>2021-11-13T14:25:36.991Z</time>
      </trkpt>
      <trkpt lat="44.38331" lon="5.22161">
        <ele>326</ele>
        <time>2021-11-13T14:25:37.992Z</time>
      </trkpt>
      <trkpt lat="44.38333" lon="5.22166">
        <ele>326</ele>
        <time>2021-11-13T14:25:38.991Z</time>
      </trkpt>
      <trkpt lat="44.38335" lon="5.22171">
        <ele>326</ele>
        <time>2021-11-13T14:25:39.992Z</time>
      </trkpt>
      <trkpt lat="44.38336" lon="5.22175">
        <ele>325</ele>
        <time>2021-11-13T14:25:40.992Z</time>
      </trkpt>
      <trkpt lat="44.38339" lon="5.22178">
        <ele>325</ele>
        <time>2021-11-13T14:25:41.992Z</time>
      </trkpt>
      <trkpt lat="44.38343" lon="5.22183">
        <ele>325</ele>
        <time>2021-11-13T14:25:42.992Z</time>
      </trkpt>
      <trkpt lat="44.38345" lon="5.22186">
        <ele>325</ele>
        <time>2021-11-13T14:25:43.992Z</time>
      </trkpt>
      <trkpt lat="44.38349" lon="5.22189">
        <ele>325</ele>
        <time>2021-11-13T14:25:44.992Z</time>
      </trkpt>
      <trkpt lat="44.38352" lon="5.22192">
        <ele>324</ele>
        <time>2021-11-13T14:25:45.992Z</time>
      </trkpt>
      <trkpt lat="44.38356" lon="5.22195">
        <ele>324</ele>
        <time>2021-11-13T14:25:46.992Z</time>
      </trkpt>
      <trkpt lat="44.3836" lon="5.22198">
        <ele>324</ele>
        <time>2021-11-13T14:25:47.992Z</time>
      </trkpt>
      <trkpt lat="44.38363" lon="5.22201">
        <ele>324</ele>
        <time>2021-11-13T14:25:48.991Z</time>
      </trkpt>
      <trkpt lat="44.38366" lon="5.22203">
        <ele>323</ele>
        <time>2021-11-13T14:25:49.991Z</time>
      </trkpt>
      <trkpt lat="44.3837" lon="5.22206">
        <ele>323</ele>
        <time>2021-11-13T14:25:50.992Z</time>
      </trkpt>
      <trkpt lat="44.38372" lon="5.22208">
        <ele>323</ele>
        <time>2021-11-13T14:25:51.992Z</time>
      </trkpt>
      <trkpt lat="44.38376" lon="5.22211">
        <ele>322</ele>
        <time>2021-11-13T14:25:52.992Z</time>
      </trkpt>
      <trkpt lat="44.38378" lon="5.22213">
        <ele>322</ele>
        <time>2021-11-13T14:25:53.992Z</time>
      </trkpt>
      <trkpt lat="44.38382" lon="5.22216">
        <ele>321</ele>
        <time>2021-11-13T14:25:54.992Z</time>
      </trkpt>
      <trkpt lat="44.38385" lon="5.22218">
        <ele>320</ele>
        <time>2021-11-13T14:25:55.991Z</time>
      </trkpt>
      <trkpt lat="44.3839" lon="5.22221">
        <ele>320</ele>
        <time>2021-11-13T14:25:56.991Z</time>
      </trkpt>
      <trkpt lat="44.38393" lon="5.22223">
        <ele>319</ele>
        <time>2021-11-13T14:25:57.992Z</time>
      </trkpt>
      <trkpt lat="44.38397" lon="5.22224">
        <ele>319</ele>
        <time>2021-11-13T14:25:58.992Z</time>
      </trkpt>
      <trkpt lat="44.38401" lon="5.22225">
        <ele>319</ele>
        <time>2021-11-13T14:25:59.992Z</time>
      </trkpt>
      <trkpt lat="44.38405" lon="5.22227">
        <ele>319</ele>
        <time>2021-11-13T14:26:00.992Z</time>
      </trkpt>
      <trkpt lat="44.38409" lon="5.22228">
        <ele>319</ele>
        <time>2021-11-13T14:26:01.992Z</time>
      </trkpt>
      <trkpt lat="44.38413" lon="5.22229">
        <ele>320</ele>
        <time>2021-11-13T14:26:02.991Z</time>
      </trkpt>
      <trkpt lat="44.38418" lon="5.22229">
        <ele>320</ele>
        <time>2021-11-13T14:26:03.992Z</time>
      </trkpt>
      <trkpt lat="44.38422" lon="5.22228">
        <ele>321</ele>
        <time>2021-11-13T14:26:04.992Z</time>
      </trkpt>
      <trkpt lat="44.38426" lon="5.22225">
        <ele>322</ele>
        <time>2021-11-13T14:26:05.991Z</time>
      </trkpt>
      <trkpt lat="44.3843" lon="5.22223">
        <ele>322</ele>
        <time>2021-11-13T14:26:06.992Z</time>
      </trkpt>
      <trkpt lat="44.38435" lon="5.22222">
        <ele>322</ele>
        <time>2021-11-13T14:26:07.992Z</time>
      </trkpt>
      <trkpt lat="44.38439" lon="5.22221">
        <ele>322</ele>
        <time>2021-11-13T14:26:08.992Z</time>
      </trkpt>
      <trkpt lat="44.38444" lon="5.2222">
        <ele>321</ele>
        <time>2021-11-13T14:26:09.992Z</time>
      </trkpt>
      <trkpt lat="44.38448" lon="5.22219">
        <ele>321</ele>
        <time>2021-11-13T14:26:10.992Z</time>
      </trkpt>
      <trkpt lat="44.38452" lon="5.22218">
        <ele>321</ele>
        <time>2021-11-13T14:26:11.992Z</time>
      </trkpt>
      <trkpt lat="44.38456" lon="5.22218">
        <ele>321</ele>
        <time>2021-11-13T14:26:12.992Z</time>
      </trkpt>
      <trkpt lat="44.3846" lon="5.22218">
        <ele>321</ele>
        <time>2021-11-13T14:26:13.992Z</time>
      </trkpt>
      <trkpt lat="44.38464" lon="5.22218">
        <ele>321</ele>
        <time>2021-11-13T14:26:14.992Z</time>
      </trkpt>
      <trkpt lat="44.38468" lon="5.22217">
        <ele>321</ele>
        <time>2021-11-13T14:26:15.991Z</time>
      </trkpt>
      <trkpt lat="44.38472" lon="5.22217">
        <ele>320</ele>
        <time>2021-11-13T14:26:16.992Z</time>
      </trkpt>
      <trkpt lat="44.38476" lon="5.22217">
        <ele>320</ele>
        <time>2021-11-13T14:26:17.992Z</time>
      </trkpt>
      <trkpt lat="44.38479" lon="5.22217">
        <ele>320</ele>
        <time>2021-11-13T14:26:18.992Z</time>
      </trkpt>
      <trkpt lat="44.38483" lon="5.22217">
        <ele>320</ele>
        <time>2021-11-13T14:26:19.991Z</time>
      </trkpt>
      <trkpt lat="44.38486" lon="5.22217">
        <ele>320</ele>
        <time>2021-11-13T14:26:20.992Z</time>
      </trkpt>
      <trkpt lat="44.38488" lon="5.22218">
        <ele>320</ele>
        <time>2021-11-13T14:26:21.992Z</time>
      </trkpt>
      <trkpt lat="44.3849" lon="5.22218">
        <ele>320</ele>
        <time>2021-11-13T14:26:22.992Z</time>
      </trkpt>
      <trkpt lat="44.38492" lon="5.22219">
        <ele>320</ele>
        <time>2021-11-13T14:26:23.991Z</time>
      </trkpt>
      <trkpt lat="44.38492" lon="5.22219">
        <ele>320</ele>
        <time>2021-11-13T14:26:24.991Z</time>
      </trkpt>
      <trkpt lat="44.38492" lon="5.2222">
        <ele>320</ele>
        <time>2021-11-13T14:26:25.992Z</time>
      </trkpt>
      <trkpt lat="44.38492" lon="5.2222">
        <ele>321</ele>
        <time>2021-11-13T14:26:26.991Z</time>
      </trkpt>
      <trkpt lat="44.38492" lon="5.2222">
        <ele>322</ele>
        <time>2021-11-13T14:26:27.992Z</time>
      </trkpt>
      <trkpt lat="44.38493" lon="5.2222">
        <ele>324</ele>
        <time>2021-11-13T14:26:28.992Z</time>
      </trkpt>
      <trkpt lat="44.38487" lon="5.2222">
        <ele>320</ele>
        <time>2021-11-13T14:26:29.993Z</time>
      </trkpt>
      <trkpt lat="44.38484" lon="5.2222">
        <ele>320</ele>
        <time>2021-11-13T14:26:30.992Z</time>
      </trkpt>
      <trkpt lat="44.38482" lon="5.22219">
        <ele>320</ele>
        <time>2021-11-13T14:26:31.992Z</time>
      </trkpt>
      <trkpt lat="44.38479" lon="5.22219">
        <ele>320</ele>
        <time>2021-11-13T14:26:32.992Z</time>
      </trkpt>
      <trkpt lat="44.38476" lon="5.22219">
        <ele>321</ele>
        <time>2021-11-13T14:26:33.993Z</time>
      </trkpt>
      <trkpt lat="44.38473" lon="5.22219">
        <ele>321</ele>
        <time>2021-11-13T14:26:34.993Z</time>
      </trkpt>
      <trkpt lat="44.3847" lon="5.22218">
        <ele>321</ele>
        <time>2021-11-13T14:26:35.993Z</time>
      </trkpt>
      <trkpt lat="44.38466" lon="5.22218">
        <ele>322</ele>
        <time>2021-11-13T14:26:36.993Z</time>
      </trkpt>
      <trkpt lat="44.38462" lon="5.22217">
        <ele>322</ele>
        <time>2021-11-13T14:26:37.992Z</time>
      </trkpt>
      <trkpt lat="44.38459" lon="5.22218">
        <ele>322</ele>
        <time>2021-11-13T14:26:38.993Z</time>
      </trkpt>
      <trkpt lat="44.38456" lon="5.22218">
        <ele>322</ele>
        <time>2021-11-13T14:26:39.992Z</time>
      </trkpt>
      <trkpt lat="44.38453" lon="5.22219">
        <ele>322</ele>
        <time>2021-11-13T14:26:40.993Z</time>
      </trkpt>
      <trkpt lat="44.3845" lon="5.22219">
        <ele>323</ele>
        <time>2021-11-13T14:26:41.993Z</time>
      </trkpt>
      <trkpt lat="44.38446" lon="5.2222">
        <ele>323</ele>
        <time>2021-11-13T14:26:42.993Z</time>
      </trkpt>
      <trkpt lat="44.38443" lon="5.22222">
        <ele>324</ele>
        <time>2021-11-13T14:26:43.993Z</time>
      </trkpt>
      <trkpt lat="44.38439" lon="5.22223">
        <ele>325</ele>
        <time>2021-11-13T14:26:44.993Z</time>
      </trkpt>
      <trkpt lat="44.38435" lon="5.22224">
        <ele>325</ele>
        <time>2021-11-13T14:26:45.993Z</time>
      </trkpt>
      <trkpt lat="44.38431" lon="5.22225">
        <ele>325</ele>
        <time>2021-11-13T14:26:46.993Z</time>
      </trkpt>
      <trkpt lat="44.38427" lon="5.22226">
        <ele>326</ele>
        <time>2021-11-13T14:26:47.992Z</time>
      </trkpt>
      <trkpt lat="44.38423" lon="5.22227">
        <ele>326</ele>
        <time>2021-11-13T14:26:48.993Z</time>
      </trkpt>
      <trkpt lat="44.38418" lon="5.22227">
        <ele>327</ele>
        <time>2021-11-13T14:26:49.993Z</time>
      </trkpt>
      <trkpt lat="44.38414" lon="5.22227">
        <ele>327</ele>
        <time>2021-11-13T14:26:50.993Z</time>
      </trkpt>
      <trkpt lat="44.3841" lon="5.22226">
        <ele>328</ele>
        <time>2021-11-13T14:26:51.993Z</time>
      </trkpt>
      <trkpt lat="44.38406" lon="5.22226">
        <ele>328</ele>
        <time>2021-11-13T14:26:52.993Z</time>
      </trkpt>
      <trkpt lat="44.38402" lon="5.22225">
        <ele>328</ele>
        <time>2021-11-13T14:26:53.993Z</time>
      </trkpt>
      <trkpt lat="44.38398" lon="5.22223">
        <ele>328</ele>
        <time>2021-11-13T14:26:54.993Z</time>
      </trkpt>
      <trkpt lat="44.38394" lon="5.22221">
        <ele>328</ele>
        <time>2021-11-13T14:26:55.993Z</time>
      </trkpt>
      <trkpt lat="44.3839" lon="5.22219">
        <ele>327</ele>
        <time>2021-11-13T14:26:56.993Z</time>
      </trkpt>
      <trkpt lat="44.38386" lon="5.22217">
        <ele>327</ele>
        <time>2021-11-13T14:26:57.993Z</time>
      </trkpt>
      <trkpt lat="44.38382" lon="5.22215">
        <ele>327</ele>
        <time>2021-11-13T14:26:58.993Z</time>
      </trkpt>
      <trkpt lat="44.38378" lon="5.22212">
        <ele>327</ele>
        <time>2021-11-13T14:26:59.992Z</time>
      </trkpt>
      <trkpt lat="44.38374" lon="5.22209">
        <ele>326</ele>
        <time>2021-11-13T14:27:00.993Z</time>
      </trkpt>
      <trkpt lat="44.3837" lon="5.22206">
        <ele>326</ele>
        <time>2021-11-13T14:27:01.992Z</time>
      </trkpt>
      <trkpt lat="44.38367" lon="5.22203">
        <ele>326</ele>
        <time>2021-11-13T14:27:02.992Z</time>
      </trkpt>
      <trkpt lat="44.38363" lon="5.222">
        <ele>326</ele>
        <time>2021-11-13T14:27:03.993Z</time>
      </trkpt>
      <trkpt lat="44.38359" lon="5.22197">
        <ele>326</ele>
        <time>2021-11-13T14:27:04.993Z</time>
      </trkpt>
      <trkpt lat="44.38355" lon="5.22193">
        <ele>326</ele>
        <time>2021-11-13T14:27:05.993Z</time>
      </trkpt>
      <trkpt lat="44.38352" lon="5.2219">
        <ele>326</ele>
        <time>2021-11-13T14:27:06.993Z</time>
      </trkpt>
      <trkpt lat="44.38348" lon="5.22187">
        <ele>326</ele>
        <time>2021-11-13T14:27:07.993Z</time>
      </trkpt>
      <trkpt lat="44.38345" lon="5.22183">
        <ele>326</ele>
        <time>2021-11-13T14:27:08.993Z</time>
      </trkpt>
      <trkpt lat="44.38341" lon="5.2218">
        <ele>326</ele>
        <time>2021-11-13T14:27:09.992Z</time>
      </trkpt>
      <trkpt lat="44.38338" lon="5.22176">
        <ele>326</ele>
        <time>2021-11-13T14:27:10.992Z</time>
      </trkpt>
      <trkpt lat="44.38335" lon="5.22172">
        <ele>326</ele>
        <time>2021-11-13T14:27:11.993Z</time>
      </trkpt>
      <trkpt lat="44.38332" lon="5.22168">
        <ele>326</ele>
        <time>2021-11-13T14:27:12.993Z</time>
      </trkpt>
      <trkpt lat="44.3833" lon="5.22163">
        <ele>326</ele>
        <time>2021-11-13T14:27:13.992Z</time>
      </trkpt>
      <trkpt lat="44.38329" lon="5.22158">
        <ele>326</ele>
        <time>2021-11-13T14:27:14.993Z</time>
      </trkpt>
      <trkpt lat="44.38327" lon="5.22153">
        <ele>326</ele>
        <time>2021-11-13T14:27:15.993Z</time>
      </trkpt>
      <trkpt lat="44.38326" lon="5.22148">
        <ele>326</ele>
        <time>2021-11-13T14:27:16.993Z</time>
      </trkpt>
      <trkpt lat="44.38325" lon="5.22143">
        <ele>327</ele>
        <time>2021-11-13T14:27:17.993Z</time>
      </trkpt>
      <trkpt lat="44.38324" lon="5.22138">
        <ele>328</ele>
        <time>2021-11-13T14:27:18.993Z</time>
      </trkpt>
      <trkpt lat="44.38323" lon="5.22133">
        <ele>328</ele>
        <time>2021-11-13T14:27:19.993Z</time>
      </trkpt>
      <trkpt lat="44.38322" lon="5.22129">
        <ele>329</ele>
        <time>2021-11-13T14:27:20.992Z</time>
      </trkpt>
      <trkpt lat="44.38322" lon="5.22124">
        <ele>329</ele>
        <time>2021-11-13T14:27:21.993Z</time>
      </trkpt>
      <trkpt lat="44.38321" lon="5.22121">
        <ele>330</ele>
        <time>2021-11-13T14:27:22.993Z</time>
      </trkpt>
      <trkpt lat="44.38321" lon="5.22117">
        <ele>330</ele>
        <time>2021-11-13T14:27:23.992Z</time>
      </trkpt>
      <trkpt lat="44.3832" lon="5.22113">
        <ele>331</ele>
        <time>2021-11-13T14:27:24.992Z</time>
      </trkpt>
      <trkpt lat="44.38321" lon="5.2211">
        <ele>332</ele>
        <time>2021-11-13T14:27:25.993Z</time>
      </trkpt>
      <trkpt lat="44.38321" lon="5.22107">
        <ele>332</ele>
        <time>2021-11-13T14:27:26.993Z</time>
      </trkpt>
      <trkpt lat="44.38321" lon="5.22105">
        <ele>332</ele>
        <time>2021-11-13T14:27:27.993Z</time>
      </trkpt>
      <trkpt lat="44.3832" lon="5.22103">
        <ele>332</ele>
        <time>2021-11-13T14:27:28.993Z</time>
      </trkpt>
      <trkpt lat="44.38319" lon="5.22102">
        <ele>332</ele>
        <time>2021-11-13T14:27:29.992Z</time>
      </trkpt>
      <trkpt lat="44.38317" lon="5.22101">
        <ele>332</ele>
        <time>2021-11-13T14:27:30.992Z</time>
      </trkpt>
      <trkpt lat="44.38315" lon="5.22099">
        <ele>332</ele>
        <time>2021-11-13T14:27:31.993Z</time>
      </trkpt>
      <trkpt lat="44.38312" lon="5.22098">
        <ele>332</ele>
        <time>2021-11-13T14:27:32.993Z</time>
      </trkpt>
      <trkpt lat="44.3831" lon="5.22098">
        <ele>332</ele>
        <time>2021-11-13T14:27:33.993Z</time>
      </trkpt>
      <trkpt lat="44.38308" lon="5.22097">
        <ele>332</ele>
        <time>2021-11-13T14:27:34.992Z</time>
      </trkpt>
      <trkpt lat="44.38305" lon="5.22096">
        <ele>331</ele>
        <time>2021-11-13T14:27:35.993Z</time>
      </trkpt>
      <trkpt lat="44.38303" lon="5.22096">
        <ele>331</ele>
        <time>2021-11-13T14:27:36.993Z</time>
      </trkpt>
      <trkpt lat="44.38301" lon="5.22095">
        <ele>331</ele>
        <time>2021-11-13T14:27:37.993Z</time>
      </trkpt>
      <trkpt lat="44.383" lon="5.22094">
        <ele>330</ele>
        <time>2021-11-13T14:27:38.992Z</time>
      </trkpt>
      <trkpt lat="44.38298" lon="5.22093">
        <ele>330</ele>
        <time>2021-11-13T14:27:39.993Z</time>
      </trkpt>
      <trkpt lat="44.38296" lon="5.22092">
        <ele>331</ele>
        <time>2021-11-13T14:27:40.993Z</time>
      </trkpt>
      <trkpt lat="44.38294" lon="5.22091">
        <ele>330</ele>
        <time>2021-11-13T14:27:41.993Z</time>
      </trkpt>
      <trkpt lat="44.38292" lon="5.22091">
        <ele>330</ele>
        <time>2021-11-13T14:27:42.993Z</time>
      </trkpt>
      <trkpt lat="44.3829" lon="5.22091">
        <ele>330</ele>
        <time>2021-11-13T14:27:43.993Z</time>
      </trkpt>
      <trkpt lat="44.38288" lon="5.22091">
        <ele>329</ele>
        <time>2021-11-13T14:27:44.993Z</time>
      </trkpt>
      <trkpt lat="44.38286" lon="5.2209">
        <ele>328</ele>
        <time>2021-11-13T14:27:45.992Z</time>
      </trkpt>
      <trkpt lat="44.38284" lon="5.2209">
        <ele>328</ele>
        <time>2021-11-13T14:27:46.993Z</time>
      </trkpt>
      <trkpt lat="44.38282" lon="5.2209">
        <ele>328</ele>
        <time>2021-11-13T14:27:47.992Z</time>
      </trkpt>
      <trkpt lat="44.3828" lon="5.22089">
        <ele>327</ele>
        <time>2021-11-13T14:27:48.992Z</time>
      </trkpt>
      <trkpt lat="44.38278" lon="5.22089">
        <ele>326</ele>
        <time>2021-11-13T14:27:49.993Z</time>
      </trkpt>
      <trkpt lat="44.38276" lon="5.22089">
        <ele>325</ele>
        <time>2021-11-13T14:27:50.993Z</time>
      </trkpt>
      <trkpt lat="44.38274" lon="5.22088">
        <ele>325</ele>
        <time>2021-11-13T14:27:51.993Z</time>
      </trkpt>
      <trkpt lat="44.38271" lon="5.22087">
        <ele>325</ele>
        <time>2021-11-13T14:27:52.993Z</time>
      </trkpt>
      <trkpt lat="44.38269" lon="5.22087">
        <ele>326</ele>
        <time>2021-11-13T14:27:53.993Z</time>
      </trkpt>
      <trkpt lat="44.38267" lon="5.22086">
        <ele>326</ele>
        <time>2021-11-13T14:27:54.993Z</time>
      </trkpt>
      <trkpt lat="44.38264" lon="5.22085">
        <ele>327</ele>
        <time>2021-11-13T14:27:55.993Z</time>
      </trkpt>
      <trkpt lat="44.38261" lon="5.22084">
        <ele>327</ele>
        <time>2021-11-13T14:27:56.993Z</time>
      </trkpt>
      <trkpt lat="44.38259" lon="5.22083">
        <ele>328</ele>
        <time>2021-11-13T14:27:57.993Z</time>
      </trkpt>
      <trkpt lat="44.38256" lon="5.22083">
        <ele>328</ele>
        <time>2021-11-13T14:27:58.992Z</time>
      </trkpt>
      <trkpt lat="44.38252" lon="5.22082">
        <ele>328</ele>
        <time>2021-11-13T14:27:59.992Z</time>
      </trkpt>
      <trkpt lat="44.38249" lon="5.22081">
        <ele>329</ele>
        <time>2021-11-13T14:28:00.992Z</time>
      </trkpt>
      <trkpt lat="44.38246" lon="5.2208">
        <ele>329</ele>
        <time>2021-11-13T14:28:01.993Z</time>
      </trkpt>
      <trkpt lat="44.38244" lon="5.22079">
        <ele>330</ele>
        <time>2021-11-13T14:28:02.993Z</time>
      </trkpt>
      <trkpt lat="44.38242" lon="5.22078">
        <ele>330</ele>
        <time>2021-11-13T14:28:03.993Z</time>
      </trkpt>
      <trkpt lat="44.38241" lon="5.22078">
        <ele>331</ele>
        <time>2021-11-13T14:28:04.993Z</time>
      </trkpt>
      <trkpt lat="44.38241" lon="5.22078">
        <ele>331</ele>
        <time>2021-11-13T14:28:05.993Z</time>
      </trkpt>
      <trkpt lat="44.38241" lon="5.22078">
        <ele>331</ele>
        <time>2021-11-13T14:28:06.993Z</time>
      </trkpt>
      <trkpt lat="44.38241" lon="5.22078">
        <ele>331</ele>
        <time>2021-11-13T14:28:07.993Z</time>
      </trkpt>
      <trkpt lat="44.3824" lon="5.22078">
        <ele>331</ele>
        <time>2021-11-13T14:28:08.993Z</time>
      </trkpt>
      <trkpt lat="44.3824" lon="5.22084">
        <ele>331</ele>
        <time>2021-11-13T14:28:09.993Z</time>
      </trkpt>
      <trkpt lat="44.38241" lon="5.22083">
        <ele>332</ele>
        <time>2021-11-13T14:28:10.993Z</time>
      </trkpt>
      <trkpt lat="44.38241" lon="5.22082">
        <ele>332</ele>
        <time>2021-11-13T14:28:11.993Z</time>
      </trkpt>
      <trkpt lat="44.38242" lon="5.22082">
        <ele>332</ele>
        <time>2021-11-13T14:28:12.993Z</time>
      </trkpt>
      <trkpt lat="44.38242" lon="5.22081">
        <ele>333</ele>
        <time>2021-11-13T14:28:13.993Z</time>
      </trkpt>
      <trkpt lat="44.38242" lon="5.22081">
        <ele>333</ele>
        <time>2021-11-13T14:28:14.993Z</time>
      </trkpt>
      <trkpt lat="44.38236" lon="5.22078">
        <ele>335</ele>
        <time>2021-11-13T14:28:15.993Z</time>
      </trkpt>
      <trkpt lat="44.38232" lon="5.22078">
        <ele>335</ele>
        <time>2021-11-13T14:28:16.994Z</time>
      </trkpt>
      <trkpt lat="44.38228" lon="5.22077">
        <ele>335</ele>
        <time>2021-11-13T14:28:17.993Z</time>
      </trkpt>
      <trkpt lat="44.38223" lon="5.22077">
        <ele>335</ele>
        <time>2021-11-13T14:28:18.993Z</time>
      </trkpt>
      <trkpt lat="44.38219" lon="5.22077">
        <ele>335</ele>
        <time>2021-11-13T14:28:19.994Z</time>
      </trkpt>
      <trkpt lat="44.38216" lon="5.22077">
        <ele>335</ele>
        <time>2021-11-13T14:28:20.993Z</time>
      </trkpt>
      <trkpt lat="44.38212" lon="5.22079">
        <ele>335</ele>
        <time>2021-11-13T14:28:21.993Z</time>
      </trkpt>
      <trkpt lat="44.38209" lon="5.22082">
        <ele>334</ele>
        <time>2021-11-13T14:28:22.994Z</time>
      </trkpt>
      <trkpt lat="44.38206" lon="5.22085">
        <ele>334</ele>
        <time>2021-11-13T14:28:23.994Z</time>
      </trkpt>
      <trkpt lat="44.38204" lon="5.2209">
        <ele>334</ele>
        <time>2021-11-13T14:28:24.993Z</time>
      </trkpt>
      <trkpt lat="44.38203" lon="5.22095">
        <ele>334</ele>
        <time>2021-11-13T14:28:25.993Z</time>
      </trkpt>
      <trkpt lat="44.38202" lon="5.22101">
        <ele>334</ele>
        <time>2021-11-13T14:28:26.993Z</time>
      </trkpt>
      <trkpt lat="44.38202" lon="5.22106">
        <ele>333</ele>
        <time>2021-11-13T14:28:27.994Z</time>
      </trkpt>
      <trkpt lat="44.38202" lon="5.22112">
        <ele>333</ele>
        <time>2021-11-13T14:28:28.994Z</time>
      </trkpt>
      <trkpt lat="44.38201" lon="5.22117">
        <ele>333</ele>
        <time>2021-11-13T14:28:29.993Z</time>
      </trkpt>
      <trkpt lat="44.38199" lon="5.22121">
        <ele>333</ele>
        <time>2021-11-13T14:28:30.994Z</time>
      </trkpt>
      <trkpt lat="44.38197" lon="5.22125">
        <ele>333</ele>
        <time>2021-11-13T14:28:31.994Z</time>
      </trkpt>
      <trkpt lat="44.38195" lon="5.22128">
        <ele>334</ele>
        <time>2021-11-13T14:28:32.994Z</time>
      </trkpt>
      <trkpt lat="44.38193" lon="5.22131">
        <ele>334</ele>
        <time>2021-11-13T14:28:33.994Z</time>
      </trkpt>
      <trkpt lat="44.3819" lon="5.22134">
        <ele>334</ele>
        <time>2021-11-13T14:28:34.994Z</time>
      </trkpt>
      <trkpt lat="44.38188" lon="5.22137">
        <ele>335</ele>
        <time>2021-11-13T14:28:35.994Z</time>
      </trkpt>
      <trkpt lat="44.38185" lon="5.22139">
        <ele>335</ele>
        <time>2021-11-13T14:28:36.993Z</time>
      </trkpt>
      <trkpt lat="44.38183" lon="5.22141">
        <ele>336</ele>
        <time>2021-11-13T14:28:37.994Z</time>
      </trkpt>
      <trkpt lat="44.3818" lon="5.22144">
        <ele>336</ele>
        <time>2021-11-13T14:28:38.993Z</time>
      </trkpt>
      <trkpt lat="44.38177" lon="5.22146">
        <ele>335</ele>
        <time>2021-11-13T14:28:39.993Z</time>
      </trkpt>
      <trkpt lat="44.38173" lon="5.22149">
        <ele>335</ele>
        <time>2021-11-13T14:28:40.994Z</time>
      </trkpt>
      <trkpt lat="44.3817" lon="5.22152">
        <ele>335</ele>
        <time>2021-11-13T14:28:41.993Z</time>
      </trkpt>
      <trkpt lat="44.38167" lon="5.22154">
        <ele>335</ele>
        <time>2021-11-13T14:28:42.994Z</time>
      </trkpt>
      <trkpt lat="44.38164" lon="5.22155">
        <ele>335</ele>
        <time>2021-11-13T14:28:43.994Z</time>
      </trkpt>
      <trkpt lat="44.38162" lon="5.22156">
        <ele>335</ele>
        <time>2021-11-13T14:28:44.993Z</time>
      </trkpt>
      <trkpt lat="44.3816" lon="5.22157">
        <ele>334</ele>
        <time>2021-11-13T14:28:45.994Z</time>
      </trkpt>
      <trkpt lat="44.38159" lon="5.22158">
        <ele>334</ele>
        <time>2021-11-13T14:28:46.994Z</time>
      </trkpt>
      <trkpt lat="44.38158" lon="5.22159">
        <ele>334</ele>
        <time>2021-11-13T14:28:47.994Z</time>
      </trkpt>
      <trkpt lat="44.38158" lon="5.2216">
        <ele>334</ele>
        <time>2021-11-13T14:28:48.994Z</time>
      </trkpt>
      <trkpt lat="44.38157" lon="5.22161">
        <ele>334</ele>
        <time>2021-11-13T14:28:49.994Z</time>
      </trkpt>
      <trkpt lat="44.38157" lon="5.22163">
        <ele>335</ele>
        <time>2021-11-13T14:28:50.994Z</time>
      </trkpt>
      <trkpt lat="44.38158" lon="5.22165">
        <ele>335</ele>
        <time>2021-11-13T14:28:51.994Z</time>
      </trkpt>
      <trkpt lat="44.3816" lon="5.22165">
        <ele>335</ele>
        <time>2021-11-13T14:28:52.994Z</time>
      </trkpt>
      <trkpt lat="44.38161" lon="5.22166">
        <ele>334</ele>
        <time>2021-11-13T14:28:53.994Z</time>
      </trkpt>
      <trkpt lat="44.38162" lon="5.22166">
        <ele>334</ele>
        <time>2021-11-13T14:28:54.994Z</time>
      </trkpt>
      <trkpt lat="44.38163" lon="5.22167">
        <ele>333</ele>
        <time>2021-11-13T14:28:55.994Z</time>
      </trkpt>
      <trkpt lat="44.38164" lon="5.22167">
        <ele>333</ele>
        <time>2021-11-13T14:28:56.994Z</time>
      </trkpt>
      <trkpt lat="44.38166" lon="5.22168">
        <ele>333</ele>
        <time>2021-11-13T14:28:57.993Z</time>
      </trkpt>
      <trkpt lat="44.38168" lon="5.22169">
        <ele>332</ele>
        <time>2021-11-13T14:28:58.994Z</time>
      </trkpt>
      <trkpt lat="44.38169" lon="5.2217">
        <ele>332</ele>
        <time>2021-11-13T14:28:59.993Z</time>
      </trkpt>
      <trkpt lat="44.38171" lon="5.2217">
        <ele>332</ele>
        <time>2021-11-13T14:29:00.994Z</time>
      </trkpt>
      <trkpt lat="44.38172" lon="5.22169">
        <ele>332</ele>
        <time>2021-11-13T14:29:01.993Z</time>
      </trkpt>
      <trkpt lat="44.38173" lon="5.22169">
        <ele>332</ele>
        <time>2021-11-13T14:29:02.994Z</time>
      </trkpt>
      <trkpt lat="44.38175" lon="5.22169">
        <ele>332</ele>
        <time>2021-11-13T14:29:03.993Z</time>
      </trkpt>
      <trkpt lat="44.38176" lon="5.22168">
        <ele>332</ele>
        <time>2021-11-13T14:29:04.993Z</time>
      </trkpt>
      <trkpt lat="44.38178" lon="5.22169">
        <ele>332</ele>
        <time>2021-11-13T14:29:05.994Z</time>
      </trkpt>
      <trkpt lat="44.3818" lon="5.2217">
        <ele>332</ele>
        <time>2021-11-13T14:29:06.994Z</time>
      </trkpt>
      <trkpt lat="44.38181" lon="5.22171">
        <ele>331</ele>
        <time>2021-11-13T14:29:07.993Z</time>
      </trkpt>
      <trkpt lat="44.38183" lon="5.22172">
        <ele>331</ele>
        <time>2021-11-13T14:29:08.993Z</time>
      </trkpt>
      <trkpt lat="44.38185" lon="5.22174">
        <ele>331</ele>
        <time>2021-11-13T14:29:09.994Z</time>
      </trkpt>
      <trkpt lat="44.38187" lon="5.22175">
        <ele>331</ele>
        <time>2021-11-13T14:29:10.993Z</time>
      </trkpt>
      <trkpt lat="44.38189" lon="5.22177">
        <ele>331</ele>
        <time>2021-11-13T14:29:11.994Z</time>
      </trkpt>
      <trkpt lat="44.38191" lon="5.2218">
        <ele>331</ele>
        <time>2021-11-13T14:29:12.994Z</time>
      </trkpt>
      <trkpt lat="44.38193" lon="5.22183">
        <ele>332</ele>
        <time>2021-11-13T14:29:13.994Z</time>
      </trkpt>
      <trkpt lat="44.38195" lon="5.22186">
        <ele>332</ele>
        <time>2021-11-13T14:29:14.993Z</time>
      </trkpt>
      <trkpt lat="44.38197" lon="5.22189">
        <ele>332</ele>
        <time>2021-11-13T14:29:15.994Z</time>
      </trkpt>
      <trkpt lat="44.38199" lon="5.22192">
        <ele>332</ele>
        <time>2021-11-13T14:29:16.994Z</time>
      </trkpt>
      <trkpt lat="44.38201" lon="5.22195">
        <ele>331</ele>
        <time>2021-11-13T14:29:17.993Z</time>
      </trkpt>
      <trkpt lat="44.38202" lon="5.22199">
        <ele>331</ele>
        <time>2021-11-13T14:29:18.994Z</time>
      </trkpt>
      <trkpt lat="44.38203" lon="5.22201">
        <ele>331</ele>
        <time>2021-11-13T14:29:19.993Z</time>
      </trkpt>
      <trkpt lat="44.38204" lon="5.22204">
        <ele>331</ele>
        <time>2021-11-13T14:29:20.993Z</time>
      </trkpt>
      <trkpt lat="44.38205" lon="5.22207">
        <ele>331</ele>
        <time>2021-11-13T14:29:21.994Z</time>
      </trkpt>
      <trkpt lat="44.38206" lon="5.2221">
        <ele>331</ele>
        <time>2021-11-13T14:29:22.994Z</time>
      </trkpt>
      <trkpt lat="44.38207" lon="5.22214">
        <ele>330</ele>
        <time>2021-11-13T14:29:23.994Z</time>
      </trkpt>
      <trkpt lat="44.38208" lon="5.22219">
        <ele>329</ele>
        <time>2021-11-13T14:29:24.994Z</time>
      </trkpt>
      <trkpt lat="44.3821" lon="5.22223">
        <ele>329</ele>
        <time>2021-11-13T14:29:25.994Z</time>
      </trkpt>
      <trkpt lat="44.38211" lon="5.22227">
        <ele>329</ele>
        <time>2021-11-13T14:29:26.994Z</time>
      </trkpt>
      <trkpt lat="44.38212" lon="5.22232">
        <ele>329</ele>
        <time>2021-11-13T14:29:27.993Z</time>
      </trkpt>
      <trkpt lat="44.38213" lon="5.22236">
        <ele>329</ele>
        <time>2021-11-13T14:29:28.994Z</time>
      </trkpt>
      <trkpt lat="44.38213" lon="5.22241">
        <ele>330</ele>
        <time>2021-11-13T14:29:29.994Z</time>
      </trkpt>
      <trkpt lat="44.38214" lon="5.22246">
        <ele>330</ele>
        <time>2021-11-13T14:29:30.993Z</time>
      </trkpt>
      <trkpt lat="44.38215" lon="5.22251">
        <ele>330</ele>
        <time>2021-11-13T14:29:31.994Z</time>
      </trkpt>
      <trkpt lat="44.38216" lon="5.22256">
        <ele>329</ele>
        <time>2021-11-13T14:29:32.993Z</time>
      </trkpt>
      <trkpt lat="44.38217" lon="5.22261">
        <ele>329</ele>
        <time>2021-11-13T14:29:33.994Z</time>
      </trkpt>
      <trkpt lat="44.38218" lon="5.22266">
        <ele>330</ele>
        <time>2021-11-13T14:29:34.993Z</time>
      </trkpt>
      <trkpt lat="44.38219" lon="5.22272">
        <ele>330</ele>
        <time>2021-11-13T14:29:35.994Z</time>
      </trkpt>
      <trkpt lat="44.38219" lon="5.22276">
        <ele>331</ele>
        <time>2021-11-13T14:29:36.994Z</time>
      </trkpt>
      <trkpt lat="44.38221" lon="5.22282">
        <ele>331</ele>
        <time>2021-11-13T14:29:37.994Z</time>
      </trkpt>
      <trkpt lat="44.38222" lon="5.22288">
        <ele>331</ele>
        <time>2021-11-13T14:29:38.994Z</time>
      </trkpt>
      <trkpt lat="44.38224" lon="5.22295">
        <ele>331</ele>
        <time>2021-11-13T14:29:39.994Z</time>
      </trkpt>
      <trkpt lat="44.38225" lon="5.22302">
        <ele>331</ele>
        <time>2021-11-13T14:29:40.994Z</time>
      </trkpt>
      <trkpt lat="44.38226" lon="5.2231">
        <ele>331</ele>
        <time>2021-11-13T14:29:41.993Z</time>
      </trkpt>
      <trkpt lat="44.38228" lon="5.22318">
        <ele>331</ele>
        <time>2021-11-13T14:29:42.994Z</time>
      </trkpt>
      <trkpt lat="44.3823" lon="5.22325">
        <ele>331</ele>
        <time>2021-11-13T14:29:43.994Z</time>
      </trkpt>
      <trkpt lat="44.38232" lon="5.22332">
        <ele>331</ele>
        <time>2021-11-13T14:29:44.994Z</time>
      </trkpt>
      <trkpt lat="44.38233" lon="5.22338">
        <ele>331</ele>
        <time>2021-11-13T14:29:45.994Z</time>
      </trkpt>
      <trkpt lat="44.38234" lon="5.22346">
        <ele>331</ele>
        <time>2021-11-13T14:29:46.993Z</time>
      </trkpt>
      <trkpt lat="44.38235" lon="5.22353">
        <ele>331</ele>
        <time>2021-11-13T14:29:47.994Z</time>
      </trkpt>
      <trkpt lat="44.38237" lon="5.2236">
        <ele>331</ele>
        <time>2021-11-13T14:29:48.994Z</time>
      </trkpt>
      <trkpt lat="44.38237" lon="5.22366">
        <ele>331</ele>
        <time>2021-11-13T14:29:49.994Z</time>
      </trkpt>
      <trkpt lat="44.38239" lon="5.22372">
        <ele>331</ele>
        <time>2021-11-13T14:29:50.994Z</time>
      </trkpt>
      <trkpt lat="44.3824" lon="5.22379">
        <ele>331</ele>
        <time>2021-11-13T14:29:51.994Z</time>
      </trkpt>
      <trkpt lat="44.38241" lon="5.22386">
        <ele>331</ele>
        <time>2021-11-13T14:29:52.993Z</time>
      </trkpt>
      <trkpt lat="44.38242" lon="5.22393">
        <ele>330</ele>
        <time>2021-11-13T14:29:53.993Z</time>
      </trkpt>
      <trkpt lat="44.38244" lon="5.224">
        <ele>330</ele>
        <time>2021-11-13T14:29:54.993Z</time>
      </trkpt>
      <trkpt lat="44.38245" lon="5.22406">
        <ele>330</ele>
        <time>2021-11-13T14:29:55.993Z</time>
      </trkpt>
      <trkpt lat="44.38246" lon="5.22413">
        <ele>330</ele>
        <time>2021-11-13T14:29:56.994Z</time>
      </trkpt>
      <trkpt lat="44.38246" lon="5.2242">
        <ele>330</ele>
        <time>2021-11-13T14:29:57.994Z</time>
      </trkpt>
      <trkpt lat="44.38247" lon="5.22426">
        <ele>329</ele>
        <time>2021-11-13T14:29:58.994Z</time>
      </trkpt>
      <trkpt lat="44.38248" lon="5.22433">
        <ele>329</ele>
        <time>2021-11-13T14:29:59.994Z</time>
      </trkpt>
      <trkpt lat="44.3825" lon="5.22441">
        <ele>329</ele>
        <time>2021-11-13T14:30:00.993Z</time>
      </trkpt>
      <trkpt lat="44.38251" lon="5.22446">
        <ele>329</ele>
        <time>2021-11-13T14:30:01.994Z</time>
      </trkpt>
      <trkpt lat="44.38253" lon="5.22452">
        <ele>329</ele>
        <time>2021-11-13T14:30:02.994Z</time>
      </trkpt>
      <trkpt lat="44.38255" lon="5.22459">
        <ele>328</ele>
        <time>2021-11-13T14:30:03.993Z</time>
      </trkpt>
      <trkpt lat="44.38256" lon="5.22464">
        <ele>328</ele>
        <time>2021-11-13T14:30:04.994Z</time>
      </trkpt>
      <trkpt lat="44.38257" lon="5.2247">
        <ele>328</ele>
        <time>2021-11-13T14:30:05.994Z</time>
      </trkpt>
      <trkpt lat="44.38258" lon="5.22477">
        <ele>328</ele>
        <time>2021-11-13T14:30:06.994Z</time>
      </trkpt>
      <trkpt lat="44.3826" lon="5.22484">
        <ele>328</ele>
        <time>2021-11-13T14:30:07.994Z</time>
      </trkpt>
      <trkpt lat="44.38261" lon="5.22489">
        <ele>328</ele>
        <time>2021-11-13T14:30:08.993Z</time>
      </trkpt>
      <trkpt lat="44.38263" lon="5.22494">
        <ele>328</ele>
        <time>2021-11-13T14:30:09.994Z</time>
      </trkpt>
      <trkpt lat="44.38265" lon="5.225">
        <ele>328</ele>
        <time>2021-11-13T14:30:10.993Z</time>
      </trkpt>
      <trkpt lat="44.38266" lon="5.22506">
        <ele>329</ele>
        <time>2021-11-13T14:30:11.993Z</time>
      </trkpt>
      <trkpt lat="44.38268" lon="5.22512">
        <ele>328</ele>
        <time>2021-11-13T14:30:12.993Z</time>
      </trkpt>
      <trkpt lat="44.3827" lon="5.2252">
        <ele>328</ele>
        <time>2021-11-13T14:30:13.994Z</time>
      </trkpt>
      <trkpt lat="44.38271" lon="5.22525">
        <ele>328</ele>
        <time>2021-11-13T14:30:14.993Z</time>
      </trkpt>
      <trkpt lat="44.38272" lon="5.22531">
        <ele>327</ele>
        <time>2021-11-13T14:30:15.994Z</time>
      </trkpt>
      <trkpt lat="44.38273" lon="5.22538">
        <ele>327</ele>
        <time>2021-11-13T14:30:16.994Z</time>
      </trkpt>
      <trkpt lat="44.38274" lon="5.22544">
        <ele>327</ele>
        <time>2021-11-13T14:30:17.994Z</time>
      </trkpt>
      <trkpt lat="44.38274" lon="5.2255">
        <ele>327</ele>
        <time>2021-11-13T14:30:18.994Z</time>
      </trkpt>
      <trkpt lat="44.38275" lon="5.22557">
        <ele>327</ele>
        <time>2021-11-13T14:30:19.994Z</time>
      </trkpt>
      <trkpt lat="44.38275" lon="5.22564">
        <ele>327</ele>
        <time>2021-11-13T14:30:20.993Z</time>
      </trkpt>
      <trkpt lat="44.38275" lon="5.2257">
        <ele>327</ele>
        <time>2021-11-13T14:30:21.994Z</time>
      </trkpt>
      <trkpt lat="44.38276" lon="5.22576">
        <ele>327</ele>
        <time>2021-11-13T14:30:22.993Z</time>
      </trkpt>
      <trkpt lat="44.38277" lon="5.22583">
        <ele>327</ele>
        <time>2021-11-13T14:30:23.994Z</time>
      </trkpt>
      <trkpt lat="44.38277" lon="5.22589">
        <ele>327</ele>
        <time>2021-11-13T14:30:24.994Z</time>
      </trkpt>
      <trkpt lat="44.38278" lon="5.22595">
        <ele>328</ele>
        <time>2021-11-13T14:30:25.994Z</time>
      </trkpt>
      <trkpt lat="44.38278" lon="5.22601">
        <ele>328</ele>
        <time>2021-11-13T14:30:26.994Z</time>
      </trkpt>
      <trkpt lat="44.38279" lon="5.22607">
        <ele>329</ele>
        <time>2021-11-13T14:30:27.993Z</time>
      </trkpt>
      <trkpt lat="44.38279" lon="5.22613">
        <ele>329</ele>
        <time>2021-11-13T14:30:28.993Z</time>
      </trkpt>
      <trkpt lat="44.3828" lon="5.22617">
        <ele>330</ele>
        <time>2021-11-13T14:30:29.994Z</time>
      </trkpt>
      <trkpt lat="44.3828" lon="5.22623">
        <ele>330</ele>
        <time>2021-11-13T14:30:30.994Z</time>
      </trkpt>
      <trkpt lat="44.38281" lon="5.22628">
        <ele>330</ele>
        <time>2021-11-13T14:30:31.994Z</time>
      </trkpt>
      <trkpt lat="44.38281" lon="5.22634">
        <ele>331</ele>
        <time>2021-11-13T14:30:32.994Z</time>
      </trkpt>
      <trkpt lat="44.38281" lon="5.22638">
        <ele>331</ele>
        <time>2021-11-13T14:30:33.993Z</time>
      </trkpt>
      <trkpt lat="44.38282" lon="5.22643">
        <ele>331</ele>
        <time>2021-11-13T14:30:34.993Z</time>
      </trkpt>
      <trkpt lat="44.38282" lon="5.22648">
        <ele>331</ele>
        <time>2021-11-13T14:30:35.993Z</time>
      </trkpt>
      <trkpt lat="44.38282" lon="5.22653">
        <ele>331</ele>
        <time>2021-11-13T14:30:36.993Z</time>
      </trkpt>
      <trkpt lat="44.38283" lon="5.22659">
        <ele>331</ele>
        <time>2021-11-13T14:30:37.994Z</time>
      </trkpt>
      <trkpt lat="44.38283" lon="5.22663">
        <ele>330</ele>
        <time>2021-11-13T14:30:38.994Z</time>
      </trkpt>
      <trkpt lat="44.38284" lon="5.22668">
        <ele>330</ele>
        <time>2021-11-13T14:30:39.994Z</time>
      </trkpt>
      <trkpt lat="44.38284" lon="5.22673">
        <ele>330</ele>
        <time>2021-11-13T14:30:40.994Z</time>
      </trkpt>
      <trkpt lat="44.38285" lon="5.22678">
        <ele>330</ele>
        <time>2021-11-13T14:30:41.994Z</time>
      </trkpt>
      <trkpt lat="44.38285" lon="5.22683">
        <ele>330</ele>
        <time>2021-11-13T14:30:42.993Z</time>
      </trkpt>
      <trkpt lat="44.38286" lon="5.22687">
        <ele>330</ele>
        <time>2021-11-13T14:30:43.993Z</time>
      </trkpt>
      <trkpt lat="44.38286" lon="5.22692">
        <ele>330</ele>
        <time>2021-11-13T14:30:44.993Z</time>
      </trkpt>
      <trkpt lat="44.38286" lon="5.22697">
        <ele>330</ele>
        <time>2021-11-13T14:30:45.994Z</time>
      </trkpt>
      <trkpt lat="44.38287" lon="5.22703">
        <ele>329</ele>
        <time>2021-11-13T14:30:46.994Z</time>
      </trkpt>
      <trkpt lat="44.38287" lon="5.22708">
        <ele>329</ele>
        <time>2021-11-13T14:30:47.993Z</time>
      </trkpt>
      <trkpt lat="44.38287" lon="5.22713">
        <ele>329</ele>
        <time>2021-11-13T14:30:48.994Z</time>
      </trkpt>
      <trkpt lat="44.38287" lon="5.22719">
        <ele>330</ele>
        <time>2021-11-13T14:30:49.994Z</time>
      </trkpt>
      <trkpt lat="44.38287" lon="5.22724">
        <ele>330</ele>
        <time>2021-11-13T14:30:50.993Z</time>
      </trkpt>
      <trkpt lat="44.38288" lon="5.2273">
        <ele>330</ele>
        <time>2021-11-13T14:30:51.994Z</time>
      </trkpt>
      <trkpt lat="44.38288" lon="5.22736">
        <ele>330</ele>
        <time>2021-11-13T14:30:52.994Z</time>
      </trkpt>
      <trkpt lat="44.38288" lon="5.22742">
        <ele>330</ele>
        <time>2021-11-13T14:30:53.994Z</time>
      </trkpt>
      <trkpt lat="44.38288" lon="5.22747">
        <ele>331</ele>
        <time>2021-11-13T14:30:54.994Z</time>
      </trkpt>
      <trkpt lat="44.38288" lon="5.22753">
        <ele>331</ele>
        <time>2021-11-13T14:30:55.994Z</time>
      </trkpt>
      <trkpt lat="44.38289" lon="5.22758">
        <ele>330</ele>
        <time>2021-11-13T14:30:56.994Z</time>
      </trkpt>
      <trkpt lat="44.38288" lon="5.22763">
        <ele>330</ele>
        <time>2021-11-13T14:30:57.993Z</time>
      </trkpt>
      <trkpt lat="44.38288" lon="5.22768">
        <ele>329</ele>
        <time>2021-11-13T14:30:58.994Z</time>
      </trkpt>
      <trkpt lat="44.38288" lon="5.22773">
        <ele>329</ele>
        <time>2021-11-13T14:30:59.994Z</time>
      </trkpt>
      <trkpt lat="44.38288" lon="5.22778">
        <ele>329</ele>
        <time>2021-11-13T14:31:00.994Z</time>
      </trkpt>
      <trkpt lat="44.38288" lon="5.22783">
        <ele>328</ele>
        <time>2021-11-13T14:31:01.994Z</time>
      </trkpt>
      <trkpt lat="44.38288" lon="5.22789">
        <ele>328</ele>
        <time>2021-11-13T14:31:02.993Z</time>
      </trkpt>
      <trkpt lat="44.38288" lon="5.22794">
        <ele>328</ele>
        <time>2021-11-13T14:31:03.993Z</time>
      </trkpt>
      <trkpt lat="44.38288" lon="5.228">
        <ele>328</ele>
        <time>2021-11-13T14:31:04.994Z</time>
      </trkpt>
      <trkpt lat="44.38287" lon="5.22806">
        <ele>328</ele>
        <time>2021-11-13T14:31:05.993Z</time>
      </trkpt>
      <trkpt lat="44.38287" lon="5.22811">
        <ele>329</ele>
        <time>2021-11-13T14:31:06.993Z</time>
      </trkpt>
      <trkpt lat="44.38287" lon="5.22818">
        <ele>329</ele>
        <time>2021-11-13T14:31:07.993Z</time>
      </trkpt>
      <trkpt lat="44.38287" lon="5.22824">
        <ele>329</ele>
        <time>2021-11-13T14:31:08.994Z</time>
      </trkpt>
      <trkpt lat="44.38286" lon="5.22831">
        <ele>330</ele>
        <time>2021-11-13T14:31:09.993Z</time>
      </trkpt>
      <trkpt lat="44.38286" lon="5.22837">
        <ele>330</ele>
        <time>2021-11-13T14:31:10.994Z</time>
      </trkpt>
      <trkpt lat="44.38286" lon="5.22843">
        <ele>331</ele>
        <time>2021-11-13T14:31:11.993Z</time>
      </trkpt>
      <trkpt lat="44.38286" lon="5.2285">
        <ele>331</ele>
        <time>2021-11-13T14:31:12.994Z</time>
      </trkpt>
      <trkpt lat="44.38286" lon="5.22856">
        <ele>332</ele>
        <time>2021-11-13T14:31:13.993Z</time>
      </trkpt>
      <trkpt lat="44.38286" lon="5.22862">
        <ele>332</ele>
        <time>2021-11-13T14:31:14.994Z</time>
      </trkpt>
      <trkpt lat="44.38286" lon="5.22868">
        <ele>332</ele>
        <time>2021-11-13T14:31:15.993Z</time>
      </trkpt>
      <trkpt lat="44.38286" lon="5.22873">
        <ele>332</ele>
        <time>2021-11-13T14:31:16.994Z</time>
      </trkpt>
      <trkpt lat="44.38286" lon="5.22879">
        <ele>332</ele>
        <time>2021-11-13T14:31:17.994Z</time>
      </trkpt>
      <trkpt lat="44.38287" lon="5.22884">
        <ele>332</ele>
        <time>2021-11-13T14:31:18.993Z</time>
      </trkpt>
      <trkpt lat="44.38287" lon="5.2289">
        <ele>332</ele>
        <time>2021-11-13T14:31:19.993Z</time>
      </trkpt>
      <trkpt lat="44.38287" lon="5.22895">
        <ele>333</ele>
        <time>2021-11-13T14:31:20.993Z</time>
      </trkpt>
      <trkpt lat="44.38287" lon="5.229">
        <ele>333</ele>
        <time>2021-11-13T14:31:21.994Z</time>
      </trkpt>
      <trkpt lat="44.38287" lon="5.22905">
        <ele>333</ele>
        <time>2021-11-13T14:31:22.993Z</time>
      </trkpt>
      <trkpt lat="44.38288" lon="5.2291">
        <ele>333</ele>
        <time>2021-11-13T14:31:23.994Z</time>
      </trkpt>
      <trkpt lat="44.38288" lon="5.22916">
        <ele>333</ele>
        <time>2021-11-13T14:31:24.993Z</time>
      </trkpt>
      <trkpt lat="44.38288" lon="5.22921">
        <ele>334</ele>
        <time>2021-11-13T14:31:25.993Z</time>
      </trkpt>
      <trkpt lat="44.38288" lon="5.22926">
        <ele>334</ele>
        <time>2021-11-13T14:31:26.994Z</time>
      </trkpt>
      <trkpt lat="44.38289" lon="5.22931">
        <ele>333</ele>
        <time>2021-11-13T14:31:27.993Z</time>
      </trkpt>
      <trkpt lat="44.38289" lon="5.22937">
        <ele>333</ele>
        <time>2021-11-13T14:31:28.994Z</time>
      </trkpt>
      <trkpt lat="44.38289" lon="5.22943">
        <ele>333</ele>
        <time>2021-11-13T14:31:29.994Z</time>
      </trkpt>
      <trkpt lat="44.38289" lon="5.22949">
        <ele>333</ele>
        <time>2021-11-13T14:31:30.994Z</time>
      </trkpt>
      <trkpt lat="44.38289" lon="5.22955">
        <ele>333</ele>
        <time>2021-11-13T14:31:31.994Z</time>
      </trkpt>
      <trkpt lat="44.38289" lon="5.22961">
        <ele>332</ele>
        <time>2021-11-13T14:31:32.994Z</time>
      </trkpt>
      <trkpt lat="44.3829" lon="5.22967">
        <ele>332</ele>
        <time>2021-11-13T14:31:33.993Z</time>
      </trkpt>
      <trkpt lat="44.3829" lon="5.22973">
        <ele>333</ele>
        <time>2021-11-13T14:31:34.994Z</time>
      </trkpt>
      <trkpt lat="44.38291" lon="5.2298">
        <ele>333</ele>
        <time>2021-11-13T14:31:35.994Z</time>
      </trkpt>
      <trkpt lat="44.38291" lon="5.22985">
        <ele>332</ele>
        <time>2021-11-13T14:31:36.994Z</time>
      </trkpt>
      <trkpt lat="44.38292" lon="5.22992">
        <ele>332</ele>
        <time>2021-11-13T14:31:37.994Z</time>
      </trkpt>
      <trkpt lat="44.38292" lon="5.22998">
        <ele>332</ele>
        <time>2021-11-13T14:31:38.994Z</time>
      </trkpt>
      <trkpt lat="44.38293" lon="5.23004">
        <ele>333</ele>
        <time>2021-11-13T14:31:39.994Z</time>
      </trkpt>
      <trkpt lat="44.38294" lon="5.2301">
        <ele>333</ele>
        <time>2021-11-13T14:31:40.993Z</time>
      </trkpt>
      <trkpt lat="44.38295" lon="5.23017">
        <ele>333</ele>
        <time>2021-11-13T14:31:41.994Z</time>
      </trkpt>
      <trkpt lat="44.38296" lon="5.23022">
        <ele>333</ele>
        <time>2021-11-13T14:31:42.994Z</time>
      </trkpt>
      <trkpt lat="44.38297" lon="5.23028">
        <ele>333</ele>
        <time>2021-11-13T14:31:43.994Z</time>
      </trkpt>
      <trkpt lat="44.38298" lon="5.23034">
        <ele>333</ele>
        <time>2021-11-13T14:31:44.994Z</time>
      </trkpt>
      <trkpt lat="44.383" lon="5.2304">
        <ele>334</ele>
        <time>2021-11-13T14:31:45.993Z</time>
      </trkpt>
      <trkpt lat="44.38301" lon="5.23045">
        <ele>334</ele>
        <time>2021-11-13T14:31:46.994Z</time>
      </trkpt>
      <trkpt lat="44.38303" lon="5.23051">
        <ele>334</ele>
        <time>2021-11-13T14:31:47.993Z</time>
      </trkpt>
      <trkpt lat="44.38305" lon="5.23056">
        <ele>334</ele>
        <time>2021-11-13T14:31:48.994Z</time>
      </trkpt>
      <trkpt lat="44.38306" lon="5.23061">
        <ele>334</ele>
        <time>2021-11-13T14:31:49.994Z</time>
      </trkpt>
      <trkpt lat="44.38308" lon="5.23066">
        <ele>334</ele>
        <time>2021-11-13T14:31:50.994Z</time>
      </trkpt>
      <trkpt lat="44.3831" lon="5.2307">
        <ele>334</ele>
        <time>2021-11-13T14:31:51.994Z</time>
      </trkpt>
      <trkpt lat="44.38312" lon="5.23075">
        <ele>334</ele>
        <time>2021-11-13T14:31:52.994Z</time>
      </trkpt>
      <trkpt lat="44.38315" lon="5.2308">
        <ele>334</ele>
        <time>2021-11-13T14:31:53.994Z</time>
      </trkpt>
      <trkpt lat="44.38317" lon="5.23086">
        <ele>333</ele>
        <time>2021-11-13T14:31:54.994Z</time>
      </trkpt>
      <trkpt lat="44.3832" lon="5.23091">
        <ele>333</ele>
        <time>2021-11-13T14:31:55.994Z</time>
      </trkpt>
      <trkpt lat="44.38323" lon="5.23096">
        <ele>333</ele>
        <time>2021-11-13T14:31:56.994Z</time>
      </trkpt>
      <trkpt lat="44.38325" lon="5.23102">
        <ele>332</ele>
        <time>2021-11-13T14:31:57.994Z</time>
      </trkpt>
      <trkpt lat="44.38328" lon="5.23107">
        <ele>332</ele>
        <time>2021-11-13T14:31:58.994Z</time>
      </trkpt>
      <trkpt lat="44.3833" lon="5.23112">
        <ele>332</ele>
        <time>2021-11-13T14:31:59.994Z</time>
      </trkpt>
      <trkpt lat="44.38333" lon="5.23118">
        <ele>331</ele>
        <time>2021-11-13T14:32:00.993Z</time>
      </trkpt>
      <trkpt lat="44.38335" lon="5.23123">
        <ele>331</ele>
        <time>2021-11-13T14:32:01.994Z</time>
      </trkpt>
      <trkpt lat="44.38338" lon="5.23129">
        <ele>331</ele>
        <time>2021-11-13T14:32:02.994Z</time>
      </trkpt>
      <trkpt lat="44.3834" lon="5.23134">
        <ele>330</ele>
        <time>2021-11-13T14:32:03.994Z</time>
      </trkpt>
      <trkpt lat="44.38343" lon="5.2314">
        <ele>330</ele>
        <time>2021-11-13T14:32:04.994Z</time>
      </trkpt>
      <trkpt lat="44.38346" lon="5.23145">
        <ele>330</ele>
        <time>2021-11-13T14:32:05.994Z</time>
      </trkpt>
      <trkpt lat="44.38348" lon="5.23151">
        <ele>330</ele>
        <time>2021-11-13T14:32:06.994Z</time>
      </trkpt>
      <trkpt lat="44.38351" lon="5.23156">
        <ele>330</ele>
        <time>2021-11-13T14:32:07.994Z</time>
      </trkpt>
      <trkpt lat="44.38353" lon="5.23162">
        <ele>330</ele>
        <time>2021-11-13T14:32:08.993Z</time>
      </trkpt>
      <trkpt lat="44.38356" lon="5.23167">
        <ele>331</ele>
        <time>2021-11-13T14:32:09.994Z</time>
      </trkpt>
      <trkpt lat="44.38358" lon="5.23172">
        <ele>331</ele>
        <time>2021-11-13T14:32:10.994Z</time>
      </trkpt>
      <trkpt lat="44.38361" lon="5.23178">
        <ele>330</ele>
        <time>2021-11-13T14:32:11.993Z</time>
      </trkpt>
      <trkpt lat="44.38363" lon="5.23183">
        <ele>330</ele>
        <time>2021-11-13T14:32:12.993Z</time>
      </trkpt>
      <trkpt lat="44.38365" lon="5.23189">
        <ele>330</ele>
        <time>2021-11-13T14:32:13.994Z</time>
      </trkpt>
      <trkpt lat="44.38368" lon="5.23194">
        <ele>330</ele>
        <time>2021-11-13T14:32:14.993Z</time>
      </trkpt>
      <trkpt lat="44.3837" lon="5.232">
        <ele>330</ele>
        <time>2021-11-13T14:32:15.994Z</time>
      </trkpt>
      <trkpt lat="44.38372" lon="5.23205">
        <ele>330</ele>
        <time>2021-11-13T14:32:16.994Z</time>
      </trkpt>
      <trkpt lat="44.38375" lon="5.23211">
        <ele>330</ele>
        <time>2021-11-13T14:32:17.994Z</time>
      </trkpt>
      <trkpt lat="44.38377" lon="5.23216">
        <ele>330</ele>
        <time>2021-11-13T14:32:18.993Z</time>
      </trkpt>
      <trkpt lat="44.38379" lon="5.23222">
        <ele>329</ele>
        <time>2021-11-13T14:32:19.994Z</time>
      </trkpt>
      <trkpt lat="44.38381" lon="5.23227">
        <ele>329</ele>
        <time>2021-11-13T14:32:20.993Z</time>
      </trkpt>
      <trkpt lat="44.38383" lon="5.23232">
        <ele>329</ele>
        <time>2021-11-13T14:32:21.994Z</time>
      </trkpt>
      <trkpt lat="44.38385" lon="5.23237">
        <ele>329</ele>
        <time>2021-11-13T14:32:22.994Z</time>
      </trkpt>
      <trkpt lat="44.38387" lon="5.23242">
        <ele>329</ele>
        <time>2021-11-13T14:32:23.994Z</time>
      </trkpt>
      <trkpt lat="44.38389" lon="5.23247">
        <ele>330</ele>
        <time>2021-11-13T14:32:24.994Z</time>
      </trkpt>
      <trkpt lat="44.38391" lon="5.23251">
        <ele>330</ele>
        <time>2021-11-13T14:32:25.994Z</time>
      </trkpt>
      <trkpt lat="44.38393" lon="5.23256">
        <ele>330</ele>
        <time>2021-11-13T14:32:26.994Z</time>
      </trkpt>
      <trkpt lat="44.38395" lon="5.23261">
        <ele>330</ele>
        <time>2021-11-13T14:32:27.994Z</time>
      </trkpt>
      <trkpt lat="44.38398" lon="5.23266">
        <ele>331</ele>
        <time>2021-11-13T14:32:28.994Z</time>
      </trkpt>
      <trkpt lat="44.384" lon="5.23271">
        <ele>331</ele>
        <time>2021-11-13T14:32:29.994Z</time>
      </trkpt>
      <trkpt lat="44.38402" lon="5.23275">
        <ele>330</ele>
        <time>2021-11-13T14:32:30.993Z</time>
      </trkpt>
      <trkpt lat="44.38405" lon="5.2328">
        <ele>330</ele>
        <time>2021-11-13T14:32:31.994Z</time>
      </trkpt>
      <trkpt lat="44.38407" lon="5.23284">
        <ele>329</ele>
        <time>2021-11-13T14:32:32.994Z</time>
      </trkpt>
      <trkpt lat="44.38409" lon="5.23289">
        <ele>330</ele>
        <time>2021-11-13T14:32:33.993Z</time>
      </trkpt>
      <trkpt lat="44.38411" lon="5.23294">
        <ele>330</ele>
        <time>2021-11-13T14:32:34.994Z</time>
      </trkpt>
      <trkpt lat="44.38413" lon="5.23298">
        <ele>330</ele>
        <time>2021-11-13T14:32:35.994Z</time>
      </trkpt>
      <trkpt lat="44.38415" lon="5.23303">
        <ele>330</ele>
        <time>2021-11-13T14:32:36.993Z</time>
      </trkpt>
      <trkpt lat="44.38417" lon="5.23307">
        <ele>331</ele>
        <time>2021-11-13T14:32:37.994Z</time>
      </trkpt>
      <trkpt lat="44.3842" lon="5.23311">
        <ele>331</ele>
        <time>2021-11-13T14:32:38.994Z</time>
      </trkpt>
      <trkpt lat="44.38422" lon="5.23314">
        <ele>331</ele>
        <time>2021-11-13T14:32:39.994Z</time>
      </trkpt>
      <trkpt lat="44.38423" lon="5.23318">
        <ele>332</ele>
        <time>2021-11-13T14:32:40.994Z</time>
      </trkpt>
      <trkpt lat="44.38426" lon="5.23321">
        <ele>332</ele>
        <time>2021-11-13T14:32:41.993Z</time>
      </trkpt>
      <trkpt lat="44.38428" lon="5.23323">
        <ele>332</ele>
        <time>2021-11-13T14:32:42.994Z</time>
      </trkpt>
      <trkpt lat="44.3843" lon="5.23326">
        <ele>332</ele>
        <time>2021-11-13T14:32:43.993Z</time>
      </trkpt>
      <trkpt lat="44.38432" lon="5.23329">
        <ele>332</ele>
        <time>2021-11-13T14:32:44.994Z</time>
      </trkpt>
      <trkpt lat="44.38434" lon="5.23331">
        <ele>332</ele>
        <time>2021-11-13T14:32:45.994Z</time>
      </trkpt>
      <trkpt lat="44.38436" lon="5.23334">
        <ele>333</ele>
        <time>2021-11-13T14:32:46.994Z</time>
      </trkpt>
      <trkpt lat="44.38439" lon="5.23336">
        <ele>333</ele>
        <time>2021-11-13T14:32:47.993Z</time>
      </trkpt>
      <trkpt lat="44.38441" lon="5.23339">
        <ele>334</ele>
        <time>2021-11-13T14:32:48.994Z</time>
      </trkpt>
      <trkpt lat="44.38444" lon="5.23342">
        <ele>334</ele>
        <time>2021-11-13T14:32:49.994Z</time>
      </trkpt>
      <trkpt lat="44.38446" lon="5.23345">
        <ele>334</ele>
        <time>2021-11-13T14:32:50.994Z</time>
      </trkpt>
      <trkpt lat="44.38449" lon="5.23348">
        <ele>334</ele>
        <time>2021-11-13T14:32:51.994Z</time>
      </trkpt>
      <trkpt lat="44.38452" lon="5.23352">
        <ele>334</ele>
        <time>2021-11-13T14:32:52.994Z</time>
      </trkpt>
      <trkpt lat="44.38455" lon="5.23355">
        <ele>334</ele>
        <time>2021-11-13T14:32:53.994Z</time>
      </trkpt>
      <trkpt lat="44.38458" lon="5.23358">
        <ele>333</ele>
        <time>2021-11-13T14:32:54.993Z</time>
      </trkpt>
      <trkpt lat="44.38461" lon="5.23362">
        <ele>333</ele>
        <time>2021-11-13T14:32:55.994Z</time>
      </trkpt>
      <trkpt lat="44.38464" lon="5.23365">
        <ele>334</ele>
        <time>2021-11-13T14:32:56.994Z</time>
      </trkpt>
      <trkpt lat="44.38467" lon="5.23369">
        <ele>334</ele>
        <time>2021-11-13T14:32:57.994Z</time>
      </trkpt>
      <trkpt lat="44.3847" lon="5.23372">
        <ele>334</ele>
        <time>2021-11-13T14:32:58.993Z</time>
      </trkpt>
      <trkpt lat="44.38473" lon="5.23376">
        <ele>335</ele>
        <time>2021-11-13T14:32:59.993Z</time>
      </trkpt>
      <trkpt lat="44.38476" lon="5.23379">
        <ele>335</ele>
        <time>2021-11-13T14:33:00.994Z</time>
      </trkpt>
      <trkpt lat="44.38478" lon="5.23382">
        <ele>335</ele>
        <time>2021-11-13T14:33:01.994Z</time>
      </trkpt>
      <trkpt lat="44.38481" lon="5.23386">
        <ele>335</ele>
        <time>2021-11-13T14:33:02.994Z</time>
      </trkpt>
      <trkpt lat="44.38483" lon="5.2339">
        <ele>334</ele>
        <time>2021-11-13T14:33:03.994Z</time>
      </trkpt>
      <trkpt lat="44.38485" lon="5.23393">
        <ele>334</ele>
        <time>2021-11-13T14:33:04.994Z</time>
      </trkpt>
      <trkpt lat="44.38488" lon="5.23396">
        <ele>334</ele>
        <time>2021-11-13T14:33:05.993Z</time>
      </trkpt>
      <trkpt lat="44.3849" lon="5.234">
        <ele>334</ele>
        <time>2021-11-13T14:33:06.994Z</time>
      </trkpt>
      <trkpt lat="44.38492" lon="5.23403">
        <ele>335</ele>
        <time>2021-11-13T14:33:07.994Z</time>
      </trkpt>
      <trkpt lat="44.38494" lon="5.23406">
        <ele>335</ele>
        <time>2021-11-13T14:33:08.993Z</time>
      </trkpt>
      <trkpt lat="44.38497" lon="5.23409">
        <ele>336</ele>
        <time>2021-11-13T14:33:09.994Z</time>
      </trkpt>
      <trkpt lat="44.38499" lon="5.23412">
        <ele>336</ele>
        <time>2021-11-13T14:33:10.994Z</time>
      </trkpt>
      <trkpt lat="44.38501" lon="5.23415">
        <ele>335</ele>
        <time>2021-11-13T14:33:11.993Z</time>
      </trkpt>
      <trkpt lat="44.38504" lon="5.23417">
        <ele>335</ele>
        <time>2021-11-13T14:33:12.994Z</time>
      </trkpt>
      <trkpt lat="44.38506" lon="5.2342">
        <ele>335</ele>
        <time>2021-11-13T14:33:13.994Z</time>
      </trkpt>
      <trkpt lat="44.38509" lon="5.23422">
        <ele>334</ele>
        <time>2021-11-13T14:33:14.993Z</time>
      </trkpt>
      <trkpt lat="44.38511" lon="5.23424">
        <ele>334</ele>
        <time>2021-11-13T14:33:15.993Z</time>
      </trkpt>
      <trkpt lat="44.38514" lon="5.23427">
        <ele>333</ele>
        <time>2021-11-13T14:33:16.993Z</time>
      </trkpt>
      <trkpt lat="44.38517" lon="5.23429">
        <ele>333</ele>
        <time>2021-11-13T14:33:17.994Z</time>
      </trkpt>
      <trkpt lat="44.3852" lon="5.23431">
        <ele>332</ele>
        <time>2021-11-13T14:33:18.993Z</time>
      </trkpt>
      <trkpt lat="44.38522" lon="5.23434">
        <ele>331</ele>
        <time>2021-11-13T14:33:19.993Z</time>
      </trkpt>
      <trkpt lat="44.38525" lon="5.23436">
        <ele>331</ele>
        <time>2021-11-13T14:33:20.994Z</time>
      </trkpt>
      <trkpt lat="44.38528" lon="5.23439">
        <ele>331</ele>
        <time>2021-11-13T14:33:21.994Z</time>
      </trkpt>
      <trkpt lat="44.3853" lon="5.23442">
        <ele>330</ele>
        <time>2021-11-13T14:33:22.994Z</time>
      </trkpt>
      <trkpt lat="44.38533" lon="5.23445">
        <ele>331</ele>
        <time>2021-11-13T14:33:23.993Z</time>
      </trkpt>
      <trkpt lat="44.38535" lon="5.23448">
        <ele>331</ele>
        <time>2021-11-13T14:33:24.994Z</time>
      </trkpt>
      <trkpt lat="44.38537" lon="5.23451">
        <ele>331</ele>
        <time>2021-11-13T14:33:25.994Z</time>
      </trkpt>
      <trkpt lat="44.38538" lon="5.23454">
        <ele>331</ele>
        <time>2021-11-13T14:33:26.993Z</time>
      </trkpt>
      <trkpt lat="44.38539" lon="5.23457">
        <ele>331</ele>
        <time>2021-11-13T14:33:27.993Z</time>
      </trkpt>
      <trkpt lat="44.38541" lon="5.2346">
        <ele>331</ele>
        <time>2021-11-13T14:33:28.993Z</time>
      </trkpt>
      <trkpt lat="44.38542" lon="5.23463">
        <ele>331</ele>
        <time>2021-11-13T14:33:29.994Z</time>
      </trkpt>
      <trkpt lat="44.38543" lon="5.23467">
        <ele>332</ele>
        <time>2021-11-13T14:33:30.993Z</time>
      </trkpt>
      <trkpt lat="44.38544" lon="5.2347">
        <ele>332</ele>
        <time>2021-11-13T14:33:31.993Z</time>
      </trkpt>
      <trkpt lat="44.38545" lon="5.23473">
        <ele>332</ele>
        <time>2021-11-13T14:33:32.994Z</time>
      </trkpt>
      <trkpt lat="44.38547" lon="5.23477">
        <ele>333</ele>
        <time>2021-11-13T14:33:33.994Z</time>
      </trkpt>
      <trkpt lat="44.38549" lon="5.23481">
        <ele>333</ele>
        <time>2021-11-13T14:33:34.994Z</time>
      </trkpt>
      <trkpt lat="44.38552" lon="5.23484">
        <ele>334</ele>
        <time>2021-11-13T14:33:35.994Z</time>
      </trkpt>
      <trkpt lat="44.38555" lon="5.23486">
        <ele>334</ele>
        <time>2021-11-13T14:33:36.993Z</time>
      </trkpt>
      <trkpt lat="44.38559" lon="5.23486">
        <ele>334</ele>
        <time>2021-11-13T14:33:37.993Z</time>
      </trkpt>
      <trkpt lat="44.38564" lon="5.23485">
        <ele>334</ele>
        <time>2021-11-13T14:33:38.994Z</time>
      </trkpt>
      <trkpt lat="44.38568" lon="5.23482">
        <ele>334</ele>
        <time>2021-11-13T14:33:39.994Z</time>
      </trkpt>
      <trkpt lat="44.38573" lon="5.23478">
        <ele>334</ele>
        <time>2021-11-13T14:33:40.994Z</time>
      </trkpt>
      <trkpt lat="44.38579" lon="5.23475">
        <ele>334</ele>
        <time>2021-11-13T14:33:41.993Z</time>
      </trkpt>
      <trkpt lat="44.38584" lon="5.23472">
        <ele>333</ele>
        <time>2021-11-13T14:33:42.994Z</time>
      </trkpt>
      <trkpt lat="44.3859" lon="5.23469">
        <ele>333</ele>
        <time>2021-11-13T14:33:43.994Z</time>
      </trkpt>
      <trkpt lat="44.38596" lon="5.23467">
        <ele>333</ele>
        <time>2021-11-13T14:33:44.993Z</time>
      </trkpt>
      <trkpt lat="44.38602" lon="5.23467">
        <ele>333</ele>
        <time>2021-11-13T14:33:45.994Z</time>
      </trkpt>
      <trkpt lat="44.38607" lon="5.23467">
        <ele>332</ele>
        <time>2021-11-13T14:33:46.994Z</time>
      </trkpt>
      <trkpt lat="44.38611" lon="5.23467">
        <ele>332</ele>
        <time>2021-11-13T14:33:47.994Z</time>
      </trkpt>
      <trkpt lat="44.38615" lon="5.23467">
        <ele>331</ele>
        <time>2021-11-13T14:33:48.994Z</time>
      </trkpt>
      <trkpt lat="44.38618" lon="5.23467">
        <ele>331</ele>
        <time>2021-11-13T14:33:49.994Z</time>
      </trkpt>
      <trkpt lat="44.3862" lon="5.23468">
        <ele>331</ele>
        <time>2021-11-13T14:33:50.994Z</time>
      </trkpt>
      <trkpt lat="44.38621" lon="5.23468">
        <ele>330</ele>
        <time>2021-11-13T14:33:51.994Z</time>
      </trkpt>
      <trkpt lat="44.38623" lon="5.23468">
        <ele>330</ele>
        <time>2021-11-13T14:33:52.994Z</time>
      </trkpt>
      <trkpt lat="44.38624" lon="5.23468">
        <ele>330</ele>
        <time>2021-11-13T14:33:53.993Z</time>
      </trkpt>
      <trkpt lat="44.38625" lon="5.23469">
        <ele>330</ele>
        <time>2021-11-13T14:33:54.994Z</time>
      </trkpt>
      <trkpt lat="44.38626" lon="5.23469">
        <ele>330</ele>
        <time>2021-11-13T14:33:55.994Z</time>
      </trkpt>
      <trkpt lat="44.38628" lon="5.23469">
        <ele>329</ele>
        <time>2021-11-13T14:33:56.994Z</time>
      </trkpt>
      <trkpt lat="44.38629" lon="5.23469">
        <ele>330</ele>
        <time>2021-11-13T14:33:57.994Z</time>
      </trkpt>
      <trkpt lat="44.38629" lon="5.2347">
        <ele>330</ele>
        <time>2021-11-13T14:33:58.994Z</time>
      </trkpt>
      <trkpt lat="44.3863" lon="5.2347">
        <ele>330</ele>
        <time>2021-11-13T14:33:59.994Z</time>
      </trkpt>
      <trkpt lat="44.3863" lon="5.2347">
        <ele>329</ele>
        <time>2021-11-13T14:34:00.994Z</time>
      </trkpt>
      <trkpt lat="44.3863" lon="5.23468">
        <ele>328</ele>
        <time>2021-11-13T14:34:01.995Z</time>
      </trkpt>
      <trkpt lat="44.3863" lon="5.23467">
        <ele>328</ele>
        <time>2021-11-13T14:34:02.995Z</time>
      </trkpt>
      <trkpt lat="44.38629" lon="5.23466">
        <ele>329</ele>
        <time>2021-11-13T14:34:03.994Z</time>
      </trkpt>
      <trkpt lat="44.38627" lon="5.23465">
        <ele>329</ele>
        <time>2021-11-13T14:34:04.995Z</time>
      </trkpt>
      <trkpt lat="44.38625" lon="5.23464">
        <ele>329</ele>
        <time>2021-11-13T14:34:05.995Z</time>
      </trkpt>
      <trkpt lat="44.38623" lon="5.23464">
        <ele>329</ele>
        <time>2021-11-13T14:34:06.994Z</time>
      </trkpt>
      <trkpt lat="44.38621" lon="5.23463">
        <ele>329</ele>
        <time>2021-11-13T14:34:07.995Z</time>
      </trkpt>
      <trkpt lat="44.38619" lon="5.23464">
        <ele>329</ele>
        <time>2021-11-13T14:34:08.995Z</time>
      </trkpt>
      <trkpt lat="44.38618" lon="5.23465">
        <ele>329</ele>
        <time>2021-11-13T14:34:09.995Z</time>
      </trkpt>
      <trkpt lat="44.38618" lon="5.23466">
        <ele>329</ele>
        <time>2021-11-13T14:34:10.994Z</time>
      </trkpt>
      <trkpt lat="44.38619" lon="5.23467">
        <ele>329</ele>
        <time>2021-11-13T14:34:11.995Z</time>
      </trkpt>
      <trkpt lat="44.38619" lon="5.23468">
        <ele>330</ele>
        <time>2021-11-13T14:34:12.994Z</time>
      </trkpt>
      <trkpt lat="44.38619" lon="5.23468">
        <ele>330</ele>
        <time>2021-11-13T14:34:13.995Z</time>
      </trkpt>
      <trkpt lat="44.38619" lon="5.23468">
        <ele>330</ele>
        <time>2021-11-13T14:34:14.995Z</time>
      </trkpt>
      <trkpt lat="44.38616" lon="5.23469">
        <ele>324</ele>
        <time>2021-11-13T14:34:15.995Z</time>
      </trkpt>
      <trkpt lat="44.38614" lon="5.23471">
        <ele>324</ele>
        <time>2021-11-13T14:34:16.996Z</time>
      </trkpt>
      <trkpt lat="44.38613" lon="5.23474">
        <ele>324</ele>
        <time>2021-11-13T14:34:17.995Z</time>
      </trkpt>
      <trkpt lat="44.38613" lon="5.23477">
        <ele>325</ele>
        <time>2021-11-13T14:34:18.995Z</time>
      </trkpt>
      <trkpt lat="44.38612" lon="5.23479">
        <ele>325</ele>
        <time>2021-11-13T14:34:19.996Z</time>
      </trkpt>
      <trkpt lat="44.38612" lon="5.23479">
        <ele>325</ele>
        <time>2021-11-13T14:34:20.996Z</time>
      </trkpt>
      <trkpt lat="44.38612" lon="5.23479">
        <ele>325</ele>
        <time>2021-11-13T14:34:21.996Z</time>
      </trkpt>
      <trkpt lat="44.38611" lon="5.2348">
        <ele>326</ele>
        <time>2021-11-13T14:34:22.995Z</time>
      </trkpt>
      <trkpt lat="44.3861" lon="5.23481">
        <ele>328</ele>
        <time>2021-11-13T14:34:23.997Z</time>
      </trkpt>
      <trkpt lat="44.38609" lon="5.23479">
        <ele>329</ele>
        <time>2021-11-13T14:34:24.997Z</time>
      </trkpt>
      <trkpt lat="44.38608" lon="5.23477">
        <ele>329</ele>
        <time>2021-11-13T14:34:25.996Z</time>
      </trkpt>
      <trkpt lat="44.38608" lon="5.23475">
        <ele>330</ele>
        <time>2021-11-13T14:34:26.997Z</time>
      </trkpt>
      <trkpt lat="44.38608" lon="5.23472">
        <ele>330</ele>
        <time>2021-11-13T14:34:27.997Z</time>
      </trkpt>
      <trkpt lat="44.38608" lon="5.23468">
        <ele>330</ele>
        <time>2021-11-13T14:34:28.996Z</time>
      </trkpt>
      <trkpt lat="44.38608" lon="5.23465">
        <ele>331</ele>
        <time>2021-11-13T14:34:29.997Z</time>
      </trkpt>
      <trkpt lat="44.38609" lon="5.23461">
        <ele>332</ele>
        <time>2021-11-13T14:34:30.996Z</time>
      </trkpt>
      <trkpt lat="44.38609" lon="5.23457">
        <ele>332</ele>
        <time>2021-11-13T14:34:31.997Z</time>
      </trkpt>
      <trkpt lat="44.3861" lon="5.23452">
        <ele>332</ele>
        <time>2021-11-13T14:34:32.997Z</time>
      </trkpt>
      <trkpt lat="44.3861" lon="5.23448">
        <ele>332</ele>
        <time>2021-11-13T14:34:33.997Z</time>
      </trkpt>
      <trkpt lat="44.3861" lon="5.23441">
        <ele>332</ele>
        <time>2021-11-13T14:34:34.996Z</time>
      </trkpt>
      <trkpt lat="44.3861" lon="5.23438">
        <ele>332</ele>
        <time>2021-11-13T14:34:35.996Z</time>
      </trkpt>
      <trkpt lat="44.38609" lon="5.23433">
        <ele>332</ele>
        <time>2021-11-13T14:34:36.997Z</time>
      </trkpt>
      <trkpt lat="44.38608" lon="5.23429">
        <ele>333</ele>
        <time>2021-11-13T14:34:37.997Z</time>
      </trkpt>
      <trkpt lat="44.38607" lon="5.23425">
        <ele>333</ele>
        <time>2021-11-13T14:34:38.996Z</time>
      </trkpt>
      <trkpt lat="44.38607" lon="5.23423">
        <ele>333</ele>
        <time>2021-11-13T14:34:39.997Z</time>
      </trkpt>
      <trkpt lat="44.38606" lon="5.2342">
        <ele>334</ele>
        <time>2021-11-13T14:34:40.997Z</time>
      </trkpt>
      <trkpt lat="44.38606" lon="5.23419">
        <ele>334</ele>
        <time>2021-11-13T14:34:41.997Z</time>
      </trkpt>
      <trkpt lat="44.38606" lon="5.23418">
        <ele>334</ele>
        <time>2021-11-13T14:34:42.997Z</time>
      </trkpt>
      <trkpt lat="44.38606" lon="5.23418">
        <ele>333</ele>
        <time>2021-11-13T14:34:43.997Z</time>
      </trkpt>
      <trkpt lat="44.38606" lon="5.23417">
        <ele>333</ele>
        <time>2021-11-13T14:34:44.997Z</time>
      </trkpt>
      <trkpt lat="44.38606" lon="5.23417">
        <ele>332</ele>
        <time>2021-11-13T14:34:45.997Z</time>
      </trkpt>
      <trkpt lat="44.38606" lon="5.23419">
        <ele>327</ele>
        <time>2021-11-13T14:34:46.997Z</time>
      </trkpt>
      <trkpt lat="44.38608" lon="5.2342">
        <ele>326</ele>
        <time>2021-11-13T14:34:47.998Z</time>
      </trkpt>
      <trkpt lat="44.38609" lon="5.23421">
        <ele>325</ele>
        <time>2021-11-13T14:34:48.998Z</time>
      </trkpt>
      <trkpt lat="44.3861" lon="5.23423">
        <ele>326</ele>
        <time>2021-11-13T14:34:49.997Z</time>
      </trkpt>
      <trkpt lat="44.38611" lon="5.23425">
        <ele>326</ele>
        <time>2021-11-13T14:34:50.998Z</time>
      </trkpt>
      <trkpt lat="44.38612" lon="5.23427">
        <ele>326</ele>
        <time>2021-11-13T14:34:51.998Z</time>
      </trkpt>
      <trkpt lat="44.38612" lon="5.2343">
        <ele>326</ele>
        <time>2021-11-13T14:34:52.997Z</time>
      </trkpt>
      <trkpt lat="44.38611" lon="5.23432">
        <ele>327</ele>
        <time>2021-11-13T14:34:53.997Z</time>
      </trkpt>
      <trkpt lat="44.3861" lon="5.23435">
        <ele>327</ele>
        <time>2021-11-13T14:34:54.997Z</time>
      </trkpt>
      <trkpt lat="44.38609" lon="5.23438">
        <ele>328</ele>
        <time>2021-11-13T14:34:55.997Z</time>
      </trkpt>
      <trkpt lat="44.38607" lon="5.23439">
        <ele>328</ele>
        <time>2021-11-13T14:34:56.997Z</time>
      </trkpt>
      <trkpt lat="44.38606" lon="5.23441">
        <ele>327</ele>
        <time>2021-11-13T14:34:57.997Z</time>
      </trkpt>
      <trkpt lat="44.38604" lon="5.23443">
        <ele>327</ele>
        <time>2021-11-13T14:34:58.997Z</time>
      </trkpt>
      <trkpt lat="44.38603" lon="5.23445">
        <ele>327</ele>
        <time>2021-11-13T14:34:59.997Z</time>
      </trkpt>
      <trkpt lat="44.38602" lon="5.23446">
        <ele>327</ele>
        <time>2021-11-13T14:35:00.997Z</time>
      </trkpt>
      <trkpt lat="44.38602" lon="5.23447">
        <ele>328</ele>
        <time>2021-11-13T14:35:01.997Z</time>
      </trkpt>
      <trkpt lat="44.38601" lon="5.23449">
        <ele>328</ele>
        <time>2021-11-13T14:35:02.997Z</time>
      </trkpt>
      <trkpt lat="44.38601" lon="5.2345">
        <ele>328</ele>
        <time>2021-11-13T14:35:03.997Z</time>
      </trkpt>
      <trkpt lat="44.38602" lon="5.23452">
        <ele>328</ele>
        <time>2021-11-13T14:35:04.998Z</time>
      </trkpt>
      <trkpt lat="44.38602" lon="5.23455">
        <ele>328</ele>
        <time>2021-11-13T14:35:05.998Z</time>
      </trkpt>
      <trkpt lat="44.38604" lon="5.23458">
        <ele>328</ele>
        <time>2021-11-13T14:35:06.998Z</time>
      </trkpt>
      <trkpt lat="44.38605" lon="5.2346">
        <ele>328</ele>
        <time>2021-11-13T14:35:07.998Z</time>
      </trkpt>
      <trkpt lat="44.38608" lon="5.23463">
        <ele>328</ele>
        <time>2021-11-13T14:35:08.998Z</time>
      </trkpt>
      <trkpt lat="44.3861" lon="5.23466">
        <ele>328</ele>
        <time>2021-11-13T14:35:09.998Z</time>
      </trkpt>
      <trkpt lat="44.38612" lon="5.23467">
        <ele>328</ele>
        <time>2021-11-13T14:35:10.997Z</time>
      </trkpt>
      <trkpt lat="44.38614" lon="5.23469">
        <ele>328</ele>
        <time>2021-11-13T14:35:11.997Z</time>
      </trkpt>
      <trkpt lat="44.38616" lon="5.2347">
        <ele>328</ele>
        <time>2021-11-13T14:35:12.997Z</time>
      </trkpt>
      <trkpt lat="44.38617" lon="5.23471">
        <ele>328</ele>
        <time>2021-11-13T14:35:13.998Z</time>
      </trkpt>
      <trkpt lat="44.38618" lon="5.23472">
        <ele>328</ele>
        <time>2021-11-13T14:35:14.998Z</time>
      </trkpt>
      <trkpt lat="44.38619" lon="5.23473">
        <ele>327</ele>
        <time>2021-11-13T14:35:15.998Z</time>
      </trkpt>
      <trkpt lat="44.38619" lon="5.23473">
        <ele>327</ele>
        <time>2021-11-13T14:35:16.998Z</time>
      </trkpt>
      <trkpt lat="44.38619" lon="5.23473">
        <ele>326</ele>
        <time>2021-11-13T14:35:17.998Z</time>
      </trkpt>
      <trkpt lat="44.38619" lon="5.23472">
        <ele>323</ele>
        <time>2021-11-13T14:35:18.999Z</time>
      </trkpt>
      <trkpt lat="44.38619" lon="5.23472">
        <ele>323</ele>
        <time>2021-11-13T14:35:19.999Z</time>
      </trkpt>
      <trkpt lat="44.38622" lon="5.2347">
        <ele>323</ele>
        <time>2021-11-13T14:35:20.999Z</time>
      </trkpt>
      <trkpt lat="44.38624" lon="5.23469">
        <ele>322</ele>
        <time>2021-11-13T14:35:21.999Z</time>
      </trkpt>
      <trkpt lat="44.38626" lon="5.23469">
        <ele>322</ele>
        <time>2021-11-13T14:35:22.998Z</time>
      </trkpt>
      <trkpt lat="44.38629" lon="5.23469">
        <ele>322</ele>
        <time>2021-11-13T14:35:23.999Z</time>
      </trkpt>
      <trkpt lat="44.38631" lon="5.23469">
        <ele>322</ele>
        <time>2021-11-13T14:35:24.998Z</time>
      </trkpt>
      <trkpt lat="44.38634" lon="5.2347">
        <ele>323</ele>
        <time>2021-11-13T14:35:25.999Z</time>
      </trkpt>
      <trkpt lat="44.38637" lon="5.23471">
        <ele>323</ele>
        <time>2021-11-13T14:35:26.999Z</time>
      </trkpt>
      <trkpt lat="44.3864" lon="5.23471">
        <ele>323</ele>
        <time>2021-11-13T14:35:27.999Z</time>
      </trkpt>
      <trkpt lat="44.38643" lon="5.23472">
        <ele>323</ele>
        <time>2021-11-13T14:35:28.998Z</time>
      </trkpt>
      <trkpt lat="44.38647" lon="5.23473">
        <ele>323</ele>
        <time>2021-11-13T14:35:29.999Z</time>
      </trkpt>
      <trkpt lat="44.3865" lon="5.23473">
        <ele>323</ele>
        <time>2021-11-13T14:35:30.998Z</time>
      </trkpt>
      <trkpt lat="44.38654" lon="5.23474">
        <ele>323</ele>
        <time>2021-11-13T14:35:31.999Z</time>
      </trkpt>
      <trkpt lat="44.38657" lon="5.23474">
        <ele>323</ele>
        <time>2021-11-13T14:35:32.999Z</time>
      </trkpt>
      <trkpt lat="44.3866" lon="5.23475">
        <ele>323</ele>
        <time>2021-11-13T14:35:33.999Z</time>
      </trkpt>
      <trkpt lat="44.38664" lon="5.23476">
        <ele>323</ele>
        <time>2021-11-13T14:35:34.999Z</time>
      </trkpt>
      <trkpt lat="44.38667" lon="5.23476">
        <ele>324</ele>
        <time>2021-11-13T14:35:35.999Z</time>
      </trkpt>
      <trkpt lat="44.3867" lon="5.23477">
        <ele>324</ele>
        <time>2021-11-13T14:35:36.998Z</time>
      </trkpt>
      <trkpt lat="44.38673" lon="5.23478">
        <ele>324</ele>
        <time>2021-11-13T14:35:37.999Z</time>
      </trkpt>
      <trkpt lat="44.38676" lon="5.23478">
        <ele>324</ele>
        <time>2021-11-13T14:35:38.999Z</time>
      </trkpt>
      <trkpt lat="44.3868" lon="5.23479">
        <ele>324</ele>
        <time>2021-11-13T14:35:39.999Z</time>
      </trkpt>
      <trkpt lat="44.38683" lon="5.23479">
        <ele>323</ele>
        <time>2021-11-13T14:35:40.999Z</time>
      </trkpt>
      <trkpt lat="44.38686" lon="5.2348">
        <ele>323</ele>
        <time>2021-11-13T14:35:41.999Z</time>
      </trkpt>
      <trkpt lat="44.38689" lon="5.2348">
        <ele>323</ele>
        <time>2021-11-13T14:35:42.999Z</time>
      </trkpt>
      <trkpt lat="44.38692" lon="5.23481">
        <ele>323</ele>
        <time>2021-11-13T14:35:43.999Z</time>
      </trkpt>
      <trkpt lat="44.38696" lon="5.23482">
        <ele>323</ele>
        <time>2021-11-13T14:35:44.999Z</time>
      </trkpt>
      <trkpt lat="44.38699" lon="5.23483">
        <ele>323</ele>
        <time>2021-11-13T14:35:45.999Z</time>
      </trkpt>
      <trkpt lat="44.38702" lon="5.23483">
        <ele>323</ele>
        <time>2021-11-13T14:35:46.999Z</time>
      </trkpt>
      <trkpt lat="44.38705" lon="5.23484">
        <ele>322</ele>
        <time>2021-11-13T14:35:47.999Z</time>
      </trkpt>
      <trkpt lat="44.38709" lon="5.23484">
        <ele>322</ele>
        <time>2021-11-13T14:35:48.999Z</time>
      </trkpt>
      <trkpt lat="44.38712" lon="5.23485">
        <ele>323</ele>
        <time>2021-11-13T14:35:49.999Z</time>
      </trkpt>
      <trkpt lat="44.38715" lon="5.23485">
        <ele>323</ele>
        <time>2021-11-13T14:35:50.999Z</time>
      </trkpt>
      <trkpt lat="44.38718" lon="5.23485">
        <ele>323</ele>
        <time>2021-11-13T14:35:51.999Z</time>
      </trkpt>
      <trkpt lat="44.38721" lon="5.23486">
        <ele>323</ele>
        <time>2021-11-13T14:35:52.999Z</time>
      </trkpt>
      <trkpt lat="44.38724" lon="5.23486">
        <ele>324</ele>
        <time>2021-11-13T14:35:53.999Z</time>
      </trkpt>
      <trkpt lat="44.38727" lon="5.23487">
        <ele>324</ele>
        <time>2021-11-13T14:35:54.998Z</time>
      </trkpt>
      <trkpt lat="44.3873" lon="5.23487">
        <ele>325</ele>
        <time>2021-11-13T14:35:55.999Z</time>
      </trkpt>
      <trkpt lat="44.38733" lon="5.23488">
        <ele>325</ele>
        <time>2021-11-13T14:35:56.999Z</time>
      </trkpt>
      <trkpt lat="44.38736" lon="5.23489">
        <ele>325</ele>
        <time>2021-11-13T14:35:57.999Z</time>
      </trkpt>
      <trkpt lat="44.38739" lon="5.23489">
        <ele>325</ele>
        <time>2021-11-13T14:35:58.999Z</time>
      </trkpt>
      <trkpt lat="44.38742" lon="5.2349">
        <ele>326</ele>
        <time>2021-11-13T14:35:59.999Z</time>
      </trkpt>
      <trkpt lat="44.38744" lon="5.2349">
        <ele>326</ele>
        <time>2021-11-13T14:36:00.999Z</time>
      </trkpt>
      <trkpt lat="44.38748" lon="5.2349">
        <ele>326</ele>
        <time>2021-11-13T14:36:01.998Z</time>
      </trkpt>
      <trkpt lat="44.38751" lon="5.2349">
        <ele>327</ele>
        <time>2021-11-13T14:36:02.999Z</time>
      </trkpt>
      <trkpt lat="44.38754" lon="5.2349">
        <ele>327</ele>
        <time>2021-11-13T14:36:03.999Z</time>
      </trkpt>
      <trkpt lat="44.38756" lon="5.2349">
        <ele>328</ele>
        <time>2021-11-13T14:36:04.999Z</time>
      </trkpt>
      <trkpt lat="44.38759" lon="5.2349">
        <ele>329</ele>
        <time>2021-11-13T14:36:05.998Z</time>
      </trkpt>
      <trkpt lat="44.38762" lon="5.23489">
        <ele>329</ele>
        <time>2021-11-13T14:36:06.999Z</time>
      </trkpt>
      <trkpt lat="44.38765" lon="5.23487">
        <ele>330</ele>
        <time>2021-11-13T14:36:07.999Z</time>
      </trkpt>
      <trkpt lat="44.38768" lon="5.23486">
        <ele>331</ele>
        <time>2021-11-13T14:36:08.999Z</time>
      </trkpt>
      <trkpt lat="44.3877" lon="5.23484">
        <ele>332</ele>
        <time>2021-11-13T14:36:09.998Z</time>
      </trkpt>
      <trkpt lat="44.38773" lon="5.23481">
        <ele>333</ele>
        <time>2021-11-13T14:36:10.998Z</time>
      </trkpt>
      <trkpt lat="44.38775" lon="5.23478">
        <ele>334</ele>
        <time>2021-11-13T14:36:11.999Z</time>
      </trkpt>
      <trkpt lat="44.38778" lon="5.23474">
        <ele>335</ele>
        <time>2021-11-13T14:36:12.999Z</time>
      </trkpt>
      <trkpt lat="44.38779" lon="5.23471">
        <ele>336</ele>
        <time>2021-11-13T14:36:13.999Z</time>
      </trkpt>
      <trkpt lat="44.38782" lon="5.23467">
        <ele>336</ele>
        <time>2021-11-13T14:36:14.999Z</time>
      </trkpt>
      <trkpt lat="44.38783" lon="5.23465">
        <ele>336</ele>
        <time>2021-11-13T14:36:15.999Z</time>
      </trkpt>
      <trkpt lat="44.38785" lon="5.2346">
        <ele>336</ele>
        <time>2021-11-13T14:36:16.999Z</time>
      </trkpt>
      <trkpt lat="44.38786" lon="5.23457">
        <ele>336</ele>
        <time>2021-11-13T14:36:17.999Z</time>
      </trkpt>
      <trkpt lat="44.38788" lon="5.23454">
        <ele>336</ele>
        <time>2021-11-13T14:36:18.999Z</time>
      </trkpt>
      <trkpt lat="44.3879" lon="5.23452">
        <ele>336</ele>
        <time>2021-11-13T14:36:19.999Z</time>
      </trkpt>
      <trkpt lat="44.38793" lon="5.23453">
        <ele>336</ele>
        <time>2021-11-13T14:36:20.998Z</time>
      </trkpt>
      <trkpt lat="44.38794" lon="5.23456">
        <ele>336</ele>
        <time>2021-11-13T14:36:21.999Z</time>
      </trkpt>
      <trkpt lat="44.38795" lon="5.23459">
        <ele>335</ele>
        <time>2021-11-13T14:36:22.999Z</time>
      </trkpt>
      <trkpt lat="44.38794" lon="5.23464">
        <ele>335</ele>
        <time>2021-11-13T14:36:23.999Z</time>
      </trkpt>
      <trkpt lat="44.38792" lon="5.23468">
        <ele>335</ele>
        <time>2021-11-13T14:36:24.998Z</time>
      </trkpt>
      <trkpt lat="44.3879" lon="5.23472">
        <ele>334</ele>
        <time>2021-11-13T14:36:25.999Z</time>
      </trkpt>
      <trkpt lat="44.38788" lon="5.23476">
        <ele>335</ele>
        <time>2021-11-13T14:36:26.999Z</time>
      </trkpt>
      <trkpt lat="44.38786" lon="5.23479">
        <ele>335</ele>
        <time>2021-11-13T14:36:27.998Z</time>
      </trkpt>
      <trkpt lat="44.38785" lon="5.23483">
        <ele>335</ele>
        <time>2021-11-13T14:36:28.999Z</time>
      </trkpt>
      <trkpt lat="44.38784" lon="5.23486">
        <ele>335</ele>
        <time>2021-11-13T14:36:29.999Z</time>
      </trkpt>
      <trkpt lat="44.38784" lon="5.2349">
        <ele>335</ele>
        <time>2021-11-13T14:36:30.999Z</time>
      </trkpt>
      <trkpt lat="44.38783" lon="5.23493">
        <ele>335</ele>
        <time>2021-11-13T14:36:31.999Z</time>
      </trkpt>
      <trkpt lat="44.38783" lon="5.23497">
        <ele>336</ele>
        <time>2021-11-13T14:36:32.999Z</time>
      </trkpt>
      <trkpt lat="44.38782" lon="5.23501">
        <ele>336</ele>
        <time>2021-11-13T14:36:33.999Z</time>
      </trkpt>
      <trkpt lat="44.38781" lon="5.23505">
        <ele>336</ele>
        <time>2021-11-13T14:36:34.999Z</time>
      </trkpt>
      <trkpt lat="44.3878" lon="5.23508">
        <ele>336</ele>
        <time>2021-11-13T14:36:35.999Z</time>
      </trkpt>
      <trkpt lat="44.38779" lon="5.23511">
        <ele>337</ele>
        <time>2021-11-13T14:36:36.999Z</time>
      </trkpt>
      <trkpt lat="44.38777" lon="5.23516">
        <ele>337</ele>
        <time>2021-11-13T14:36:37.999Z</time>
      </trkpt>
      <trkpt lat="44.38775" lon="5.23519">
        <ele>337</ele>
        <time>2021-11-13T14:36:38.999Z</time>
      </trkpt>
      <trkpt lat="44.38773" lon="5.23524">
        <ele>338</ele>
        <time>2021-11-13T14:36:39.999Z</time>
      </trkpt>
      <trkpt lat="44.38772" lon="5.23529">
        <ele>339</ele>
        <time>2021-11-13T14:36:40.999Z</time>
      </trkpt>
      <trkpt lat="44.38771" lon="5.23534">
        <ele>339</ele>
        <time>2021-11-13T14:36:41.998Z</time>
      </trkpt>
      <trkpt lat="44.38769" lon="5.2354">
        <ele>339</ele>
        <time>2021-11-13T14:36:42.999Z</time>
      </trkpt>
      <trkpt lat="44.38767" lon="5.23545">
        <ele>340</ele>
        <time>2021-11-13T14:36:43.999Z</time>
      </trkpt>
      <trkpt lat="44.38765" lon="5.2355">
        <ele>340</ele>
        <time>2021-11-13T14:36:44.998Z</time>
      </trkpt>
      <trkpt lat="44.38764" lon="5.23553">
        <ele>340</ele>
        <time>2021-11-13T14:36:45.999Z</time>
      </trkpt>
      <trkpt lat="44.38763" lon="5.23557">
        <ele>340</ele>
        <time>2021-11-13T14:36:46.999Z</time>
      </trkpt>
      <trkpt lat="44.38761" lon="5.23561">
        <ele>339</ele>
        <time>2021-11-13T14:36:47.999Z</time>
      </trkpt>
      <trkpt lat="44.3876" lon="5.23565">
        <ele>339</ele>
        <time>2021-11-13T14:36:48.999Z</time>
      </trkpt>
      <trkpt lat="44.38758" lon="5.23569">
        <ele>338</ele>
        <time>2021-11-13T14:36:49.999Z</time>
      </trkpt>
      <trkpt lat="44.38757" lon="5.23573">
        <ele>338</ele>
        <time>2021-11-13T14:36:50.999Z</time>
      </trkpt>
      <trkpt lat="44.38755" lon="5.23577">
        <ele>338</ele>
        <time>2021-11-13T14:36:51.999Z</time>
      </trkpt>
      <trkpt lat="44.38754" lon="5.23582">
        <ele>337</ele>
        <time>2021-11-13T14:36:52.999Z</time>
      </trkpt>
      <trkpt lat="44.38753" lon="5.23586">
        <ele>337</ele>
        <time>2021-11-13T14:36:53.999Z</time>
      </trkpt>
      <trkpt lat="44.38751" lon="5.2359">
        <ele>337</ele>
        <time>2021-11-13T14:36:54.999Z</time>
      </trkpt>
      <trkpt lat="44.38749" lon="5.23595">
        <ele>337</ele>
        <time>2021-11-13T14:36:55.999Z</time>
      </trkpt>
      <trkpt lat="44.38747" lon="5.23599">
        <ele>337</ele>
        <time>2021-11-13T14:36:56.999Z</time>
      </trkpt>
      <trkpt lat="44.38746" lon="5.23603">
        <ele>338</ele>
        <time>2021-11-13T14:36:57.998Z</time>
      </trkpt>
      <trkpt lat="44.38744" lon="5.23607">
        <ele>338</ele>
        <time>2021-11-13T14:36:58.999Z</time>
      </trkpt>
      <trkpt lat="44.38742" lon="5.23611">
        <ele>338</ele>
        <time>2021-11-13T14:36:59.999Z</time>
      </trkpt>
      <trkpt lat="44.3874" lon="5.23615">
        <ele>339</ele>
        <time>2021-11-13T14:37:00.999Z</time>
      </trkpt>
      <trkpt lat="44.38738" lon="5.23618">
        <ele>339</ele>
        <time>2021-11-13T14:37:01.999Z</time>
      </trkpt>
      <trkpt lat="44.38737" lon="5.23622">
        <ele>340</ele>
        <time>2021-11-13T14:37:02.999Z</time>
      </trkpt>
      <trkpt lat="44.38735" lon="5.23625">
        <ele>341</ele>
        <time>2021-11-13T14:37:03.999Z</time>
      </trkpt>
      <trkpt lat="44.38733" lon="5.23628">
        <ele>341</ele>
        <time>2021-11-13T14:37:04.999Z</time>
      </trkpt>
      <trkpt lat="44.38731" lon="5.23633">
        <ele>341</ele>
        <time>2021-11-13T14:37:05.999Z</time>
      </trkpt>
      <trkpt lat="44.38729" lon="5.23636">
        <ele>341</ele>
        <time>2021-11-13T14:37:06.999Z</time>
      </trkpt>
      <trkpt lat="44.38726" lon="5.2364">
        <ele>341</ele>
        <time>2021-11-13T14:37:07.999Z</time>
      </trkpt>
      <trkpt lat="44.38725" lon="5.23643">
        <ele>341</ele>
        <time>2021-11-13T14:37:08.998Z</time>
      </trkpt>
      <trkpt lat="44.38722" lon="5.23647">
        <ele>342</ele>
        <time>2021-11-13T14:37:09.999Z</time>
      </trkpt>
      <trkpt lat="44.3872" lon="5.23651">
        <ele>342</ele>
        <time>2021-11-13T14:37:10.999Z</time>
      </trkpt>
      <trkpt lat="44.38718" lon="5.23654">
        <ele>342</ele>
        <time>2021-11-13T14:37:11.999Z</time>
      </trkpt>
      <trkpt lat="44.38715" lon="5.23658">
        <ele>342</ele>
        <time>2021-11-13T14:37:12.999Z</time>
      </trkpt>
      <trkpt lat="44.38713" lon="5.23662">
        <ele>342</ele>
        <time>2021-11-13T14:37:13.999Z</time>
      </trkpt>
      <trkpt lat="44.38711" lon="5.23666">
        <ele>343</ele>
        <time>2021-11-13T14:37:14.999Z</time>
      </trkpt>
      <trkpt lat="44.38709" lon="5.2367">
        <ele>343</ele>
        <time>2021-11-13T14:37:15.999Z</time>
      </trkpt>
      <trkpt lat="44.38707" lon="5.23673">
        <ele>344</ele>
        <time>2021-11-13T14:37:16.999Z</time>
      </trkpt>
      <trkpt lat="44.38705" lon="5.23677">
        <ele>344</ele>
        <time>2021-11-13T14:37:17.999Z</time>
      </trkpt>
      <trkpt lat="44.38703" lon="5.23681">
        <ele>345</ele>
        <time>2021-11-13T14:37:18.999Z</time>
      </trkpt>
      <trkpt lat="44.38702" lon="5.23685">
        <ele>345</ele>
        <time>2021-11-13T14:37:19.998Z</time>
      </trkpt>
      <trkpt lat="44.387" lon="5.23689">
        <ele>345</ele>
        <time>2021-11-13T14:37:20.998Z</time>
      </trkpt>
      <trkpt lat="44.38698" lon="5.23693">
        <ele>345</ele>
        <time>2021-11-13T14:37:21.999Z</time>
      </trkpt>
      <trkpt lat="44.38697" lon="5.23698">
        <ele>346</ele>
        <time>2021-11-13T14:37:22.999Z</time>
      </trkpt>
      <trkpt lat="44.38696" lon="5.23702">
        <ele>347</ele>
        <time>2021-11-13T14:37:23.998Z</time>
      </trkpt>
      <trkpt lat="44.38695" lon="5.23707">
        <ele>347</ele>
        <time>2021-11-13T14:37:24.998Z</time>
      </trkpt>
      <trkpt lat="44.38694" lon="5.23712">
        <ele>346</ele>
        <time>2021-11-13T14:37:25.998Z</time>
      </trkpt>
      <trkpt lat="44.38692" lon="5.23717">
        <ele>346</ele>
        <time>2021-11-13T14:37:26.998Z</time>
      </trkpt>
      <trkpt lat="44.38691" lon="5.23723">
        <ele>346</ele>
        <time>2021-11-13T14:37:27.999Z</time>
      </trkpt>
      <trkpt lat="44.3869" lon="5.23728">
        <ele>345</ele>
        <time>2021-11-13T14:37:28.999Z</time>
      </trkpt>
      <trkpt lat="44.38689" lon="5.23734">
        <ele>345</ele>
        <time>2021-11-13T14:37:29.999Z</time>
      </trkpt>
      <trkpt lat="44.38688" lon="5.23739">
        <ele>345</ele>
        <time>2021-11-13T14:37:30.999Z</time>
      </trkpt>
      <trkpt lat="44.38688" lon="5.23743">
        <ele>344</ele>
        <time>2021-11-13T14:37:31.999Z</time>
      </trkpt>
      <trkpt lat="44.38687" lon="5.23747">
        <ele>344</ele>
        <time>2021-11-13T14:37:32.999Z</time>
      </trkpt>
      <trkpt lat="44.38687" lon="5.23753">
        <ele>344</ele>
        <time>2021-11-13T14:37:33.999Z</time>
      </trkpt>
      <trkpt lat="44.38686" lon="5.23758">
        <ele>344</ele>
        <time>2021-11-13T14:37:34.999Z</time>
      </trkpt>
      <trkpt lat="44.38686" lon="5.23762">
        <ele>344</ele>
        <time>2021-11-13T14:37:35.999Z</time>
      </trkpt>
      <trkpt lat="44.38685" lon="5.23767">
        <ele>344</ele>
        <time>2021-11-13T14:37:36.999Z</time>
      </trkpt>
      <trkpt lat="44.38684" lon="5.23774">
        <ele>343</ele>
        <time>2021-11-13T14:37:37.998Z</time>
      </trkpt>
      <trkpt lat="44.38683" lon="5.2378">
        <ele>344</ele>
        <time>2021-11-13T14:37:38.999Z</time>
      </trkpt>
      <trkpt lat="44.38683" lon="5.23785">
        <ele>344</ele>
        <time>2021-11-13T14:37:39.998Z</time>
      </trkpt>
      <trkpt lat="44.38682" lon="5.23792">
        <ele>343</ele>
        <time>2021-11-13T14:37:40.998Z</time>
      </trkpt>
      <trkpt lat="44.38681" lon="5.23797">
        <ele>343</ele>
        <time>2021-11-13T14:37:41.998Z</time>
      </trkpt>
      <trkpt lat="44.38679" lon="5.23804">
        <ele>343</ele>
        <time>2021-11-13T14:37:42.998Z</time>
      </trkpt>
      <trkpt lat="44.38678" lon="5.23809">
        <ele>343</ele>
        <time>2021-11-13T14:37:43.998Z</time>
      </trkpt>
      <trkpt lat="44.38676" lon="5.23815">
        <ele>343</ele>
        <time>2021-11-13T14:37:44.999Z</time>
      </trkpt>
      <trkpt lat="44.38675" lon="5.2382">
        <ele>343</ele>
        <time>2021-11-13T14:37:45.999Z</time>
      </trkpt>
      <trkpt lat="44.38674" lon="5.23826">
        <ele>343</ele>
        <time>2021-11-13T14:37:46.998Z</time>
      </trkpt>
      <trkpt lat="44.38672" lon="5.23833">
        <ele>343</ele>
        <time>2021-11-13T14:37:47.999Z</time>
      </trkpt>
      <trkpt lat="44.38671" lon="5.23839">
        <ele>343</ele>
        <time>2021-11-13T14:37:48.999Z</time>
      </trkpt>
      <trkpt lat="44.38669" lon="5.23845">
        <ele>343</ele>
        <time>2021-11-13T14:37:49.999Z</time>
      </trkpt>
      <trkpt lat="44.38667" lon="5.23851">
        <ele>342</ele>
        <time>2021-11-13T14:37:50.999Z</time>
      </trkpt>
      <trkpt lat="44.38666" lon="5.23856">
        <ele>342</ele>
        <time>2021-11-13T14:37:51.999Z</time>
      </trkpt>
      <trkpt lat="44.38665" lon="5.23863">
        <ele>341</ele>
        <time>2021-11-13T14:37:52.999Z</time>
      </trkpt>
      <trkpt lat="44.38663" lon="5.23871">
        <ele>341</ele>
        <time>2021-11-13T14:37:53.999Z</time>
      </trkpt>
      <trkpt lat="44.38661" lon="5.23877">
        <ele>341</ele>
        <time>2021-11-13T14:37:54.998Z</time>
      </trkpt>
      <trkpt lat="44.3866" lon="5.23883">
        <ele>341</ele>
        <time>2021-11-13T14:37:55.999Z</time>
      </trkpt>
      <trkpt lat="44.38658" lon="5.2389">
        <ele>340</ele>
        <time>2021-11-13T14:37:56.999Z</time>
      </trkpt>
      <trkpt lat="44.38656" lon="5.23898">
        <ele>340</ele>
        <time>2021-11-13T14:37:57.999Z</time>
      </trkpt>
      <trkpt lat="44.38654" lon="5.23905">
        <ele>340</ele>
        <time>2021-11-13T14:37:58.999Z</time>
      </trkpt>
      <trkpt lat="44.38652" lon="5.23912">
        <ele>340</ele>
        <time>2021-11-13T14:37:59.999Z</time>
      </trkpt>
      <trkpt lat="44.38649" lon="5.23918">
        <ele>340</ele>
        <time>2021-11-13T14:38:00.998Z</time>
      </trkpt>
      <trkpt lat="44.38647" lon="5.23925">
        <ele>340</ele>
        <time>2021-11-13T14:38:01.999Z</time>
      </trkpt>
      <trkpt lat="44.38644" lon="5.23931">
        <ele>340</ele>
        <time>2021-11-13T14:38:02.999Z</time>
      </trkpt>
      <trkpt lat="44.38641" lon="5.23937">
        <ele>340</ele>
        <time>2021-11-13T14:38:03.998Z</time>
      </trkpt>
      <trkpt lat="44.38639" lon="5.23942">
        <ele>341</ele>
        <time>2021-11-13T14:38:04.998Z</time>
      </trkpt>
      <trkpt lat="44.38635" lon="5.23948">
        <ele>341</ele>
        <time>2021-11-13T14:38:05.999Z</time>
      </trkpt>
      <trkpt lat="44.38632" lon="5.23953">
        <ele>341</ele>
        <time>2021-11-13T14:38:06.999Z</time>
      </trkpt>
      <trkpt lat="44.38628" lon="5.2396">
        <ele>341</ele>
        <time>2021-11-13T14:38:07.999Z</time>
      </trkpt>
      <trkpt lat="44.38625" lon="5.23966">
        <ele>341</ele>
        <time>2021-11-13T14:38:08.998Z</time>
      </trkpt>
      <trkpt lat="44.38622" lon="5.2397">
        <ele>341</ele>
        <time>2021-11-13T14:38:09.999Z</time>
      </trkpt>
      <trkpt lat="44.38619" lon="5.23976">
        <ele>341</ele>
        <time>2021-11-13T14:38:10.999Z</time>
      </trkpt>
      <trkpt lat="44.38615" lon="5.23982">
        <ele>340</ele>
        <time>2021-11-13T14:38:11.998Z</time>
      </trkpt>
      <trkpt lat="44.38611" lon="5.23987">
        <ele>340</ele>
        <time>2021-11-13T14:38:12.998Z</time>
      </trkpt>
      <trkpt lat="44.38607" lon="5.23993">
        <ele>340</ele>
        <time>2021-11-13T14:38:13.999Z</time>
      </trkpt>
      <trkpt lat="44.38603" lon="5.23998">
        <ele>340</ele>
        <time>2021-11-13T14:38:14.999Z</time>
      </trkpt>
      <trkpt lat="44.386" lon="5.24003">
        <ele>340</ele>
        <time>2021-11-13T14:38:15.999Z</time>
      </trkpt>
      <trkpt lat="44.38596" lon="5.24008">
        <ele>340</ele>
        <time>2021-11-13T14:38:16.998Z</time>
      </trkpt>
      <trkpt lat="44.38591" lon="5.24015">
        <ele>339</ele>
        <time>2021-11-13T14:38:17.999Z</time>
      </trkpt>
      <trkpt lat="44.38589" lon="5.24019">
        <ele>339</ele>
        <time>2021-11-13T14:38:18.999Z</time>
      </trkpt>
      <trkpt lat="44.38585" lon="5.24025">
        <ele>338</ele>
        <time>2021-11-13T14:38:19.998Z</time>
      </trkpt>
      <trkpt lat="44.38581" lon="5.24032">
        <ele>338</ele>
        <time>2021-11-13T14:38:20.999Z</time>
      </trkpt>
      <trkpt lat="44.38578" lon="5.24037">
        <ele>338</ele>
        <time>2021-11-13T14:38:21.998Z</time>
      </trkpt>
      <trkpt lat="44.38574" lon="5.24044">
        <ele>338</ele>
        <time>2021-11-13T14:38:22.999Z</time>
      </trkpt>
      <trkpt lat="44.38572" lon="5.24048">
        <ele>338</ele>
        <time>2021-11-13T14:38:23.999Z</time>
      </trkpt>
      <trkpt lat="44.38568" lon="5.24053">
        <ele>339</ele>
        <time>2021-11-13T14:38:24.999Z</time>
      </trkpt>
      <trkpt lat="44.38565" lon="5.24059">
        <ele>339</ele>
        <time>2021-11-13T14:38:25.999Z</time>
      </trkpt>
      <trkpt lat="44.3856" lon="5.24066">
        <ele>339</ele>
        <time>2021-11-13T14:38:26.998Z</time>
      </trkpt>
      <trkpt lat="44.38557" lon="5.24071">
        <ele>339</ele>
        <time>2021-11-13T14:38:27.998Z</time>
      </trkpt>
      <trkpt lat="44.38553" lon="5.24077">
        <ele>339</ele>
        <time>2021-11-13T14:38:28.999Z</time>
      </trkpt>
      <trkpt lat="44.3855" lon="5.24081">
        <ele>339</ele>
        <time>2021-11-13T14:38:29.999Z</time>
      </trkpt>
      <trkpt lat="44.38546" lon="5.24087">
        <ele>340</ele>
        <time>2021-11-13T14:38:30.999Z</time>
      </trkpt>
      <trkpt lat="44.38542" lon="5.24093">
        <ele>340</ele>
        <time>2021-11-13T14:38:31.998Z</time>
      </trkpt>
      <trkpt lat="44.38538" lon="5.24098">
        <ele>339</ele>
        <time>2021-11-13T14:38:32.999Z</time>
      </trkpt>
      <trkpt lat="44.38534" lon="5.24104">
        <ele>339</ele>
        <time>2021-11-13T14:38:33.999Z</time>
      </trkpt>
      <trkpt lat="44.38531" lon="5.24108">
        <ele>339</ele>
        <time>2021-11-13T14:38:34.999Z</time>
      </trkpt>
      <trkpt lat="44.38527" lon="5.24114">
        <ele>339</ele>
        <time>2021-11-13T14:38:35.999Z</time>
      </trkpt>
      <trkpt lat="44.38523" lon="5.24119">
        <ele>339</ele>
        <time>2021-11-13T14:38:36.999Z</time>
      </trkpt>
      <trkpt lat="44.3852" lon="5.24123">
        <ele>340</ele>
        <time>2021-11-13T14:38:37.999Z</time>
      </trkpt>
      <trkpt lat="44.38515" lon="5.24128">
        <ele>340</ele>
        <time>2021-11-13T14:38:38.999Z</time>
      </trkpt>
      <trkpt lat="44.38512" lon="5.24133">
        <ele>340</ele>
        <time>2021-11-13T14:38:39.999Z</time>
      </trkpt>
      <trkpt lat="44.38507" lon="5.24139">
        <ele>341</ele>
        <time>2021-11-13T14:38:40.999Z</time>
      </trkpt>
      <trkpt lat="44.38503" lon="5.24144">
        <ele>341</ele>
        <time>2021-11-13T14:38:41.999Z</time>
      </trkpt>
      <trkpt lat="44.38498" lon="5.24149">
        <ele>341</ele>
        <time>2021-11-13T14:38:42.999Z</time>
      </trkpt>
      <trkpt lat="44.38495" lon="5.24153">
        <ele>341</ele>
        <time>2021-11-13T14:38:43.999Z</time>
      </trkpt>
      <trkpt lat="44.38491" lon="5.24158">
        <ele>342</ele>
        <time>2021-11-13T14:38:44.999Z</time>
      </trkpt>
      <trkpt lat="44.38486" lon="5.24164">
        <ele>342</ele>
        <time>2021-11-13T14:38:45.999Z</time>
      </trkpt>
      <trkpt lat="44.38482" lon="5.24169">
        <ele>342</ele>
        <time>2021-11-13T14:38:46.999Z</time>
      </trkpt>
      <trkpt lat="44.38478" lon="5.24174">
        <ele>341</ele>
        <time>2021-11-13T14:38:47.998Z</time>
      </trkpt>
      <trkpt lat="44.38475" lon="5.24178">
        <ele>341</ele>
        <time>2021-11-13T14:38:48.999Z</time>
      </trkpt>
      <trkpt lat="44.38472" lon="5.24183">
        <ele>340</ele>
        <time>2021-11-13T14:38:49.999Z</time>
      </trkpt>
      <trkpt lat="44.38468" lon="5.24188">
        <ele>340</ele>
        <time>2021-11-13T14:38:50.999Z</time>
      </trkpt>
      <trkpt lat="44.38464" lon="5.24193">
        <ele>339</ele>
        <time>2021-11-13T14:38:51.999Z</time>
      </trkpt>
      <trkpt lat="44.3846" lon="5.24198">
        <ele>339</ele>
        <time>2021-11-13T14:38:52.999Z</time>
      </trkpt>
      <trkpt lat="44.38456" lon="5.24203">
        <ele>339</ele>
        <time>2021-11-13T14:38:53.999Z</time>
      </trkpt>
      <trkpt lat="44.38452" lon="5.24208">
        <ele>339</ele>
        <time>2021-11-13T14:38:54.999Z</time>
      </trkpt>
      <trkpt lat="44.38448" lon="5.24213">
        <ele>340</ele>
        <time>2021-11-13T14:38:55.999Z</time>
      </trkpt>
      <trkpt lat="44.38443" lon="5.24219">
        <ele>340</ele>
        <time>2021-11-13T14:38:56.999Z</time>
      </trkpt>
      <trkpt lat="44.3844" lon="5.24224">
        <ele>340</ele>
        <time>2021-11-13T14:38:57.999Z</time>
      </trkpt>
      <trkpt lat="44.38437" lon="5.24228">
        <ele>340</ele>
        <time>2021-11-13T14:38:58.999Z</time>
      </trkpt>
      <trkpt lat="44.38433" lon="5.24233">
        <ele>340</ele>
        <time>2021-11-13T14:38:59.998Z</time>
      </trkpt>
      <trkpt lat="44.38429" lon="5.24238">
        <ele>340</ele>
        <time>2021-11-13T14:39:00.999Z</time>
      </trkpt>
      <trkpt lat="44.38425" lon="5.24243">
        <ele>340</ele>
        <time>2021-11-13T14:39:01.999Z</time>
      </trkpt>
      <trkpt lat="44.38421" lon="5.24246">
        <ele>341</ele>
        <time>2021-11-13T14:39:02.999Z</time>
      </trkpt>
      <trkpt lat="44.38417" lon="5.24251">
        <ele>341</ele>
        <time>2021-11-13T14:39:03.999Z</time>
      </trkpt>
      <trkpt lat="44.38412" lon="5.24256">
        <ele>342</ele>
        <time>2021-11-13T14:39:04.999Z</time>
      </trkpt>
      <trkpt lat="44.38408" lon="5.2426">
        <ele>342</ele>
        <time>2021-11-13T14:39:05.998Z</time>
      </trkpt>
      <trkpt lat="44.38405" lon="5.24263">
        <ele>343</ele>
        <time>2021-11-13T14:39:06.999Z</time>
      </trkpt>
      <trkpt lat="44.38401" lon="5.24267">
        <ele>343</ele>
        <time>2021-11-13T14:39:07.998Z</time>
      </trkpt>
      <trkpt lat="44.38396" lon="5.24272">
        <ele>344</ele>
        <time>2021-11-13T14:39:08.999Z</time>
      </trkpt>
      <trkpt lat="44.38392" lon="5.24276">
        <ele>344</ele>
        <time>2021-11-13T14:39:09.999Z</time>
      </trkpt>
      <trkpt lat="44.38388" lon="5.2428">
        <ele>344</ele>
        <time>2021-11-13T14:39:10.999Z</time>
      </trkpt>
      <trkpt lat="44.38383" lon="5.24285">
        <ele>344</ele>
        <time>2021-11-13T14:39:11.999Z</time>
      </trkpt>
      <trkpt lat="44.3838" lon="5.24288">
        <ele>345</ele>
        <time>2021-11-13T14:39:12.998Z</time>
      </trkpt>
      <trkpt lat="44.38376" lon="5.24292">
        <ele>346</ele>
        <time>2021-11-13T14:39:13.999Z</time>
      </trkpt>
      <trkpt lat="44.38372" lon="5.24297">
        <ele>346</ele>
        <time>2021-11-13T14:39:14.999Z</time>
      </trkpt>
      <trkpt lat="44.38368" lon="5.24301">
        <ele>345</ele>
        <time>2021-11-13T14:39:15.999Z</time>
      </trkpt>
      <trkpt lat="44.38364" lon="5.24306">
        <ele>345</ele>
        <time>2021-11-13T14:39:16.999Z</time>
      </trkpt>
      <trkpt lat="44.38361" lon="5.2431">
        <ele>345</ele>
        <time>2021-11-13T14:39:17.999Z</time>
      </trkpt>
      <trkpt lat="44.38357" lon="5.24315">
        <ele>345</ele>
        <time>2021-11-13T14:39:18.999Z</time>
      </trkpt>
      <trkpt lat="44.38353" lon="5.24319">
        <ele>344</ele>
        <time>2021-11-13T14:39:19.998Z</time>
      </trkpt>
      <trkpt lat="44.3835" lon="5.24324">
        <ele>344</ele>
        <time>2021-11-13T14:39:20.998Z</time>
      </trkpt>
      <trkpt lat="44.38346" lon="5.24328">
        <ele>344</ele>
        <time>2021-11-13T14:39:21.998Z</time>
      </trkpt>
      <trkpt lat="44.38342" lon="5.24332">
        <ele>344</ele>
        <time>2021-11-13T14:39:22.998Z</time>
      </trkpt>
      <trkpt lat="44.38337" lon="5.24336">
        <ele>344</ele>
        <time>2021-11-13T14:39:23.999Z</time>
      </trkpt>
      <trkpt lat="44.38332" lon="5.24339">
        <ele>345</ele>
        <time>2021-11-13T14:39:24.999Z</time>
      </trkpt>
      <trkpt lat="44.38328" lon="5.24342">
        <ele>345</ele>
        <time>2021-11-13T14:39:25.999Z</time>
      </trkpt>
      <trkpt lat="44.38324" lon="5.24344">
        <ele>346</ele>
        <time>2021-11-13T14:39:26.999Z</time>
      </trkpt>
      <trkpt lat="44.3832" lon="5.24347">
        <ele>347</ele>
        <time>2021-11-13T14:39:27.999Z</time>
      </trkpt>
      <trkpt lat="44.38315" lon="5.2435">
        <ele>348</ele>
        <time>2021-11-13T14:39:28.999Z</time>
      </trkpt>
      <trkpt lat="44.38311" lon="5.24351">
        <ele>348</ele>
        <time>2021-11-13T14:39:29.998Z</time>
      </trkpt>
      <trkpt lat="44.38307" lon="5.24353">
        <ele>349</ele>
        <time>2021-11-13T14:39:30.999Z</time>
      </trkpt>
      <trkpt lat="44.38303" lon="5.24356">
        <ele>349</ele>
        <time>2021-11-13T14:39:31.999Z</time>
      </trkpt>
      <trkpt lat="44.38298" lon="5.24357">
        <ele>348</ele>
        <time>2021-11-13T14:39:32.999Z</time>
      </trkpt>
      <trkpt lat="44.38294" lon="5.2436">
        <ele>348</ele>
        <time>2021-11-13T14:39:33.999Z</time>
      </trkpt>
      <trkpt lat="44.3829" lon="5.24362">
        <ele>348</ele>
        <time>2021-11-13T14:39:34.998Z</time>
      </trkpt>
      <trkpt lat="44.38287" lon="5.24363">
        <ele>348</ele>
        <time>2021-11-13T14:39:35.999Z</time>
      </trkpt>
      <trkpt lat="44.38283" lon="5.24365">
        <ele>348</ele>
        <time>2021-11-13T14:39:36.999Z</time>
      </trkpt>
      <trkpt lat="44.38279" lon="5.24367">
        <ele>348</ele>
        <time>2021-11-13T14:39:37.999Z</time>
      </trkpt>
      <trkpt lat="44.38274" lon="5.24369">
        <ele>348</ele>
        <time>2021-11-13T14:39:38.999Z</time>
      </trkpt>
      <trkpt lat="44.3827" lon="5.24371">
        <ele>348</ele>
        <time>2021-11-13T14:39:39.999Z</time>
      </trkpt>
      <trkpt lat="44.38267" lon="5.24373">
        <ele>349</ele>
        <time>2021-11-13T14:39:40.998Z</time>
      </trkpt>
      <trkpt lat="44.38264" lon="5.24374">
        <ele>349</ele>
        <time>2021-11-13T14:39:41.998Z</time>
      </trkpt>
      <trkpt lat="44.3826" lon="5.24376">
        <ele>349</ele>
        <time>2021-11-13T14:39:42.999Z</time>
      </trkpt>
      <trkpt lat="44.38256" lon="5.24378">
        <ele>350</ele>
        <time>2021-11-13T14:39:43.999Z</time>
      </trkpt>
      <trkpt lat="44.38252" lon="5.2438">
        <ele>350</ele>
        <time>2021-11-13T14:39:44.999Z</time>
      </trkpt>
      <trkpt lat="44.38249" lon="5.24381">
        <ele>350</ele>
        <time>2021-11-13T14:39:45.999Z</time>
      </trkpt>
      <trkpt lat="44.38245" lon="5.24383">
        <ele>350</ele>
        <time>2021-11-13T14:39:46.998Z</time>
      </trkpt>
      <trkpt lat="44.38242" lon="5.24385">
        <ele>351</ele>
        <time>2021-11-13T14:39:47.999Z</time>
      </trkpt>
      <trkpt lat="44.38238" lon="5.24387">
        <ele>351</ele>
        <time>2021-11-13T14:39:48.998Z</time>
      </trkpt>
      <trkpt lat="44.38235" lon="5.24388">
        <ele>352</ele>
        <time>2021-11-13T14:39:49.999Z</time>
      </trkpt>
      <trkpt lat="44.38231" lon="5.24389">
        <ele>352</ele>
        <time>2021-11-13T14:39:50.999Z</time>
      </trkpt>
      <trkpt lat="44.38229" lon="5.2439">
        <ele>353</ele>
        <time>2021-11-13T14:39:51.998Z</time>
      </trkpt>
      <trkpt lat="44.38225" lon="5.24392">
        <ele>353</ele>
        <time>2021-11-13T14:39:52.999Z</time>
      </trkpt>
      <trkpt lat="44.38221" lon="5.24393">
        <ele>354</ele>
        <time>2021-11-13T14:39:53.999Z</time>
      </trkpt>
      <trkpt lat="44.38218" lon="5.24394">
        <ele>355</ele>
        <time>2021-11-13T14:39:54.999Z</time>
      </trkpt>
      <trkpt lat="44.38215" lon="5.24395">
        <ele>355</ele>
        <time>2021-11-13T14:39:55.999Z</time>
      </trkpt>
      <trkpt lat="44.38212" lon="5.24396">
        <ele>356</ele>
        <time>2021-11-13T14:39:56.999Z</time>
      </trkpt>
      <trkpt lat="44.38208" lon="5.24397">
        <ele>356</ele>
        <time>2021-11-13T14:39:57.999Z</time>
      </trkpt>
      <trkpt lat="44.38205" lon="5.24398">
        <ele>356</ele>
        <time>2021-11-13T14:39:58.999Z</time>
      </trkpt>
      <trkpt lat="44.38202" lon="5.24399">
        <ele>356</ele>
        <time>2021-11-13T14:39:59.999Z</time>
      </trkpt>
      <trkpt lat="44.38199" lon="5.24399">
        <ele>356</ele>
        <time>2021-11-13T14:40:00.999Z</time>
      </trkpt>
      <trkpt lat="44.38195" lon="5.244">
        <ele>357</ele>
        <time>2021-11-13T14:40:01.999Z</time>
      </trkpt>
      <trkpt lat="44.38191" lon="5.244">
        <ele>357</ele>
        <time>2021-11-13T14:40:02.999Z</time>
      </trkpt>
      <trkpt lat="44.38188" lon="5.24401">
        <ele>357</ele>
        <time>2021-11-13T14:40:03.999Z</time>
      </trkpt>
      <trkpt lat="44.38185" lon="5.24402">
        <ele>357</ele>
        <time>2021-11-13T14:40:04.999Z</time>
      </trkpt>
      <trkpt lat="44.38182" lon="5.24403">
        <ele>357</ele>
        <time>2021-11-13T14:40:05.999Z</time>
      </trkpt>
      <trkpt lat="44.38179" lon="5.24404">
        <ele>357</ele>
        <time>2021-11-13T14:40:06.999Z</time>
      </trkpt>
      <trkpt lat="44.38174" lon="5.24405">
        <ele>357</ele>
        <time>2021-11-13T14:40:07.999Z</time>
      </trkpt>
      <trkpt lat="44.38171" lon="5.24405">
        <ele>357</ele>
        <time>2021-11-13T14:40:08.998Z</time>
      </trkpt>
      <trkpt lat="44.38169" lon="5.24406">
        <ele>357</ele>
        <time>2021-11-13T14:40:09.999Z</time>
      </trkpt>
      <trkpt lat="44.38165" lon="5.24407">
        <ele>356</ele>
        <time>2021-11-13T14:40:10.999Z</time>
      </trkpt>
      <trkpt lat="44.38161" lon="5.24407">
        <ele>356</ele>
        <time>2021-11-13T14:40:11.999Z</time>
      </trkpt>
      <trkpt lat="44.38157" lon="5.24407">
        <ele>355</ele>
        <time>2021-11-13T14:40:12.999Z</time>
      </trkpt>
      <trkpt lat="44.38153" lon="5.24408">
        <ele>355</ele>
        <time>2021-11-13T14:40:13.998Z</time>
      </trkpt>
      <trkpt lat="44.3815" lon="5.24409">
        <ele>355</ele>
        <time>2021-11-13T14:40:14.999Z</time>
      </trkpt>
      <trkpt lat="44.38147" lon="5.24409">
        <ele>354</ele>
        <time>2021-11-13T14:40:15.999Z</time>
      </trkpt>
      <trkpt lat="44.38143" lon="5.24411">
        <ele>354</ele>
        <time>2021-11-13T14:40:16.999Z</time>
      </trkpt>
      <trkpt lat="44.3814" lon="5.24412">
        <ele>354</ele>
        <time>2021-11-13T14:40:17.999Z</time>
      </trkpt>
      <trkpt lat="44.38136" lon="5.24412">
        <ele>354</ele>
        <time>2021-11-13T14:40:18.999Z</time>
      </trkpt>
      <trkpt lat="44.38133" lon="5.24413">
        <ele>354</ele>
        <time>2021-11-13T14:40:19.999Z</time>
      </trkpt>
      <trkpt lat="44.38129" lon="5.24414">
        <ele>355</ele>
        <time>2021-11-13T14:40:20.998Z</time>
      </trkpt>
      <trkpt lat="44.38126" lon="5.24415">
        <ele>355</ele>
        <time>2021-11-13T14:40:21.999Z</time>
      </trkpt>
      <trkpt lat="44.38122" lon="5.24416">
        <ele>355</ele>
        <time>2021-11-13T14:40:22.999Z</time>
      </trkpt>
      <trkpt lat="44.38118" lon="5.24417">
        <ele>356</ele>
        <time>2021-11-13T14:40:23.999Z</time>
      </trkpt>
      <trkpt lat="44.38116" lon="5.24418">
        <ele>357</ele>
        <time>2021-11-13T14:40:24.999Z</time>
      </trkpt>
      <trkpt lat="44.38112" lon="5.2442">
        <ele>358</ele>
        <time>2021-11-13T14:40:25.999Z</time>
      </trkpt>
      <trkpt lat="44.38108" lon="5.24422">
        <ele>359</ele>
        <time>2021-11-13T14:40:26.998Z</time>
      </trkpt>
      <trkpt lat="44.38105" lon="5.24424">
        <ele>359</ele>
        <time>2021-11-13T14:40:27.999Z</time>
      </trkpt>
      <trkpt lat="44.38101" lon="5.24426">
        <ele>359</ele>
        <time>2021-11-13T14:40:28.998Z</time>
      </trkpt>
      <trkpt lat="44.38099" lon="5.24428">
        <ele>359</ele>
        <time>2021-11-13T14:40:29.999Z</time>
      </trkpt>
      <trkpt lat="44.38095" lon="5.24431">
        <ele>358</ele>
        <time>2021-11-13T14:40:30.998Z</time>
      </trkpt>
      <trkpt lat="44.38092" lon="5.24434">
        <ele>357</ele>
        <time>2021-11-13T14:40:31.998Z</time>
      </trkpt>
      <trkpt lat="44.3809" lon="5.24437">
        <ele>357</ele>
        <time>2021-11-13T14:40:32.999Z</time>
      </trkpt>
      <trkpt lat="44.38087" lon="5.2444">
        <ele>356</ele>
        <time>2021-11-13T14:40:33.999Z</time>
      </trkpt>
      <trkpt lat="44.38084" lon="5.24444">
        <ele>355</ele>
        <time>2021-11-13T14:40:34.998Z</time>
      </trkpt>
      <trkpt lat="44.38082" lon="5.24448">
        <ele>354</ele>
        <time>2021-11-13T14:40:35.999Z</time>
      </trkpt>
      <trkpt lat="44.38079" lon="5.24452">
        <ele>353</ele>
        <time>2021-11-13T14:40:36.999Z</time>
      </trkpt>
      <trkpt lat="44.38077" lon="5.24455">
        <ele>353</ele>
        <time>2021-11-13T14:40:37.999Z</time>
      </trkpt>
      <trkpt lat="44.38074" lon="5.24459">
        <ele>352</ele>
        <time>2021-11-13T14:40:38.999Z</time>
      </trkpt>
      <trkpt lat="44.38071" lon="5.24464">
        <ele>351</ele>
        <time>2021-11-13T14:40:39.999Z</time>
      </trkpt>
      <trkpt lat="44.38069" lon="5.24468">
        <ele>351</ele>
        <time>2021-11-13T14:40:40.999Z</time>
      </trkpt>
      <trkpt lat="44.38066" lon="5.24473">
        <ele>350</ele>
        <time>2021-11-13T14:40:41.998Z</time>
      </trkpt>
      <trkpt lat="44.38063" lon="5.24479">
        <ele>350</ele>
        <time>2021-11-13T14:40:42.999Z</time>
      </trkpt>
      <trkpt lat="44.3806" lon="5.24483">
        <ele>350</ele>
        <time>2021-11-13T14:40:43.999Z</time>
      </trkpt>
      <trkpt lat="44.38058" lon="5.24488">
        <ele>349</ele>
        <time>2021-11-13T14:40:44.998Z</time>
      </trkpt>
      <trkpt lat="44.38055" lon="5.24492">
        <ele>349</ele>
        <time>2021-11-13T14:40:45.999Z</time>
      </trkpt>
      <trkpt lat="44.38052" lon="5.24497">
        <ele>348</ele>
        <time>2021-11-13T14:40:46.999Z</time>
      </trkpt>
      <trkpt lat="44.38049" lon="5.24501">
        <ele>348</ele>
        <time>2021-11-13T14:40:47.999Z</time>
      </trkpt>
      <trkpt lat="44.38046" lon="5.24505">
        <ele>348</ele>
        <time>2021-11-13T14:40:48.999Z</time>
      </trkpt>
      <trkpt lat="44.38043" lon="5.24509">
        <ele>348</ele>
        <time>2021-11-13T14:40:49.999Z</time>
      </trkpt>
      <trkpt lat="44.3804" lon="5.24513">
        <ele>348</ele>
        <time>2021-11-13T14:40:50.998Z</time>
      </trkpt>
      <trkpt lat="44.38036" lon="5.24516">
        <ele>348</ele>
        <time>2021-11-13T14:40:51.999Z</time>
      </trkpt>
      <trkpt lat="44.38033" lon="5.24519">
        <ele>348</ele>
        <time>2021-11-13T14:40:52.999Z</time>
      </trkpt>
      <trkpt lat="44.38029" lon="5.24522">
        <ele>348</ele>
        <time>2021-11-13T14:40:53.999Z</time>
      </trkpt>
      <trkpt lat="44.38026" lon="5.24526">
        <ele>347</ele>
        <time>2021-11-13T14:40:54.998Z</time>
      </trkpt>
      <trkpt lat="44.38022" lon="5.24529">
        <ele>347</ele>
        <time>2021-11-13T14:40:55.999Z</time>
      </trkpt>
      <trkpt lat="44.38018" lon="5.24532">
        <ele>346</ele>
        <time>2021-11-13T14:40:56.998Z</time>
      </trkpt>
      <trkpt lat="44.38015" lon="5.24535">
        <ele>346</ele>
        <time>2021-11-13T14:40:57.999Z</time>
      </trkpt>
      <trkpt lat="44.38011" lon="5.24537">
        <ele>346</ele>
        <time>2021-11-13T14:40:58.998Z</time>
      </trkpt>
      <trkpt lat="44.38007" lon="5.2454">
        <ele>346</ele>
        <time>2021-11-13T14:40:59.999Z</time>
      </trkpt>
      <trkpt lat="44.38003" lon="5.24542">
        <ele>347</ele>
        <time>2021-11-13T14:41:00.999Z</time>
      </trkpt>
      <trkpt lat="44.37999" lon="5.24545">
        <ele>348</ele>
        <time>2021-11-13T14:41:01.998Z</time>
      </trkpt>
      <trkpt lat="44.37996" lon="5.24547">
        <ele>348</ele>
        <time>2021-11-13T14:41:02.999Z</time>
      </trkpt>
      <trkpt lat="44.37992" lon="5.2455">
        <ele>348</ele>
        <time>2021-11-13T14:41:03.999Z</time>
      </trkpt>
      <trkpt lat="44.37987" lon="5.24553">
        <ele>349</ele>
        <time>2021-11-13T14:41:04.999Z</time>
      </trkpt>
      <trkpt lat="44.37983" lon="5.24555">
        <ele>349</ele>
        <time>2021-11-13T14:41:05.999Z</time>
      </trkpt>
      <trkpt lat="44.37981" lon="5.24557">
        <ele>350</ele>
        <time>2021-11-13T14:41:06.999Z</time>
      </trkpt>
      <trkpt lat="44.37977" lon="5.2456">
        <ele>350</ele>
        <time>2021-11-13T14:41:07.998Z</time>
      </trkpt>
      <trkpt lat="44.37973" lon="5.24562">
        <ele>350</ele>
        <time>2021-11-13T14:41:08.998Z</time>
      </trkpt>
      <trkpt lat="44.37969" lon="5.24564">
        <ele>350</ele>
        <time>2021-11-13T14:41:09.999Z</time>
      </trkpt>
      <trkpt lat="44.37966" lon="5.24567">
        <ele>350</ele>
        <time>2021-11-13T14:41:10.999Z</time>
      </trkpt>
      <trkpt lat="44.37961" lon="5.2457">
        <ele>350</ele>
        <time>2021-11-13T14:41:11.998Z</time>
      </trkpt>
      <trkpt lat="44.37958" lon="5.24572">
        <ele>350</ele>
        <time>2021-11-13T14:41:12.999Z</time>
      </trkpt>
      <trkpt lat="44.37954" lon="5.24574">
        <ele>350</ele>
        <time>2021-11-13T14:41:13.999Z</time>
      </trkpt>
      <trkpt lat="44.3795" lon="5.24577">
        <ele>350</ele>
        <time>2021-11-13T14:41:14.999Z</time>
      </trkpt>
      <trkpt lat="44.37946" lon="5.24579">
        <ele>351</ele>
        <time>2021-11-13T14:41:15.999Z</time>
      </trkpt>
      <trkpt lat="44.37943" lon="5.24581">
        <ele>351</ele>
        <time>2021-11-13T14:41:16.999Z</time>
      </trkpt>
      <trkpt lat="44.37939" lon="5.24583">
        <ele>351</ele>
        <time>2021-11-13T14:41:17.999Z</time>
      </trkpt>
      <trkpt lat="44.37935" lon="5.24585">
        <ele>351</ele>
        <time>2021-11-13T14:41:18.999Z</time>
      </trkpt>
      <trkpt lat="44.37931" lon="5.24587">
        <ele>351</ele>
        <time>2021-11-13T14:41:19.999Z</time>
      </trkpt>
      <trkpt lat="44.37926" lon="5.2459">
        <ele>351</ele>
        <time>2021-11-13T14:41:20.998Z</time>
      </trkpt>
      <trkpt lat="44.37923" lon="5.24592">
        <ele>351</ele>
        <time>2021-11-13T14:41:21.998Z</time>
      </trkpt>
      <trkpt lat="44.37919" lon="5.24595">
        <ele>351</ele>
        <time>2021-11-13T14:41:22.999Z</time>
      </trkpt>
      <trkpt lat="44.37916" lon="5.24597">
        <ele>351</ele>
        <time>2021-11-13T14:41:23.999Z</time>
      </trkpt>
      <trkpt lat="44.37912" lon="5.246">
        <ele>352</ele>
        <time>2021-11-13T14:41:24.998Z</time>
      </trkpt>
      <trkpt lat="44.37908" lon="5.24602">
        <ele>351</ele>
        <time>2021-11-13T14:41:25.999Z</time>
      </trkpt>
      <trkpt lat="44.37904" lon="5.24605">
        <ele>351</ele>
        <time>2021-11-13T14:41:26.999Z</time>
      </trkpt>
      <trkpt lat="44.37901" lon="5.24608">
        <ele>351</ele>
        <time>2021-11-13T14:41:27.999Z</time>
      </trkpt>
      <trkpt lat="44.37897" lon="5.24611">
        <ele>350</ele>
        <time>2021-11-13T14:41:28.999Z</time>
      </trkpt>
      <trkpt lat="44.37893" lon="5.24614">
        <ele>350</ele>
        <time>2021-11-13T14:41:29.999Z</time>
      </trkpt>
      <trkpt lat="44.3789" lon="5.24618">
        <ele>350</ele>
        <time>2021-11-13T14:41:30.999Z</time>
      </trkpt>
      <trkpt lat="44.37887" lon="5.24621">
        <ele>350</ele>
        <time>2021-11-13T14:41:31.998Z</time>
      </trkpt>
      <trkpt lat="44.37884" lon="5.24624">
        <ele>351</ele>
        <time>2021-11-13T14:41:32.998Z</time>
      </trkpt>
      <trkpt lat="44.3788" lon="5.24628">
        <ele>351</ele>
        <time>2021-11-13T14:41:33.999Z</time>
      </trkpt>
      <trkpt lat="44.37877" lon="5.24632">
        <ele>351</ele>
        <time>2021-11-13T14:41:34.999Z</time>
      </trkpt>
      <trkpt lat="44.37875" lon="5.24636">
        <ele>352</ele>
        <time>2021-11-13T14:41:35.998Z</time>
      </trkpt>
      <trkpt lat="44.37872" lon="5.2464">
        <ele>352</ele>
        <time>2021-11-13T14:41:36.999Z</time>
      </trkpt>
      <trkpt lat="44.37869" lon="5.24645">
        <ele>352</ele>
        <time>2021-11-13T14:41:37.998Z</time>
      </trkpt>
      <trkpt lat="44.37867" lon="5.24649">
        <ele>352</ele>
        <time>2021-11-13T14:41:38.999Z</time>
      </trkpt>
      <trkpt lat="44.37864" lon="5.24654">
        <ele>353</ele>
        <time>2021-11-13T14:41:39.999Z</time>
      </trkpt>
      <trkpt lat="44.37861" lon="5.24659">
        <ele>353</ele>
        <time>2021-11-13T14:41:40.999Z</time>
      </trkpt>
      <trkpt lat="44.37859" lon="5.24664">
        <ele>353</ele>
        <time>2021-11-13T14:41:41.999Z</time>
      </trkpt>
      <trkpt lat="44.37856" lon="5.24669">
        <ele>353</ele>
        <time>2021-11-13T14:41:42.998Z</time>
      </trkpt>
      <trkpt lat="44.37852" lon="5.24674">
        <ele>354</ele>
        <time>2021-11-13T14:41:43.999Z</time>
      </trkpt>
      <trkpt lat="44.37849" lon="5.24679">
        <ele>354</ele>
        <time>2021-11-13T14:41:44.998Z</time>
      </trkpt>
      <trkpt lat="44.37846" lon="5.24683">
        <ele>354</ele>
        <time>2021-11-13T14:41:45.999Z</time>
      </trkpt>
      <trkpt lat="44.37843" lon="5.24688">
        <ele>354</ele>
        <time>2021-11-13T14:41:46.998Z</time>
      </trkpt>
      <trkpt lat="44.3784" lon="5.24692">
        <ele>354</ele>
        <time>2021-11-13T14:41:47.998Z</time>
      </trkpt>
      <trkpt lat="44.37837" lon="5.24697">
        <ele>354</ele>
        <time>2021-11-13T14:41:48.999Z</time>
      </trkpt>
      <trkpt lat="44.37834" lon="5.24701">
        <ele>354</ele>
        <time>2021-11-13T14:41:49.998Z</time>
      </trkpt>
      <trkpt lat="44.37831" lon="5.24705">
        <ele>355</ele>
        <time>2021-11-13T14:41:50.999Z</time>
      </trkpt>
      <trkpt lat="44.37828" lon="5.24709">
        <ele>355</ele>
        <time>2021-11-13T14:41:51.999Z</time>
      </trkpt>
      <trkpt lat="44.37825" lon="5.24713">
        <ele>355</ele>
        <time>2021-11-13T14:41:52.998Z</time>
      </trkpt>
      <trkpt lat="44.37822" lon="5.24717">
        <ele>355</ele>
        <time>2021-11-13T14:41:53.999Z</time>
      </trkpt>
      <trkpt lat="44.37819" lon="5.24721">
        <ele>354</ele>
        <time>2021-11-13T14:41:54.998Z</time>
      </trkpt>
      <trkpt lat="44.37816" lon="5.24725">
        <ele>354</ele>
        <time>2021-11-13T14:41:55.999Z</time>
      </trkpt>
      <trkpt lat="44.37813" lon="5.24729">
        <ele>353</ele>
        <time>2021-11-13T14:41:56.999Z</time>
      </trkpt>
      <trkpt lat="44.37811" lon="5.24732">
        <ele>353</ele>
        <time>2021-11-13T14:41:57.999Z</time>
      </trkpt>
      <trkpt lat="44.37808" lon="5.24736">
        <ele>353</ele>
        <time>2021-11-13T14:41:58.999Z</time>
      </trkpt>
      <trkpt lat="44.37805" lon="5.24741">
        <ele>353</ele>
        <time>2021-11-13T14:41:59.999Z</time>
      </trkpt>
      <trkpt lat="44.37802" lon="5.24744">
        <ele>352</ele>
        <time>2021-11-13T14:42:00.998Z</time>
      </trkpt>
      <trkpt lat="44.37799" lon="5.24749">
        <ele>352</ele>
        <time>2021-11-13T14:42:01.999Z</time>
      </trkpt>
      <trkpt lat="44.37796" lon="5.24753">
        <ele>353</ele>
        <time>2021-11-13T14:42:02.999Z</time>
      </trkpt>
      <trkpt lat="44.37793" lon="5.24757">
        <ele>353</ele>
        <time>2021-11-13T14:42:03.999Z</time>
      </trkpt>
      <trkpt lat="44.37791" lon="5.24761">
        <ele>352</ele>
        <time>2021-11-13T14:42:04.999Z</time>
      </trkpt>
      <trkpt lat="44.37788" lon="5.24765">
        <ele>352</ele>
        <time>2021-11-13T14:42:05.999Z</time>
      </trkpt>
      <trkpt lat="44.37785" lon="5.24769">
        <ele>353</ele>
        <time>2021-11-13T14:42:06.998Z</time>
      </trkpt>
      <trkpt lat="44.37783" lon="5.24772">
        <ele>353</ele>
        <time>2021-11-13T14:42:07.999Z</time>
      </trkpt>
      <trkpt lat="44.3778" lon="5.24776">
        <ele>353</ele>
        <time>2021-11-13T14:42:08.998Z</time>
      </trkpt>
      <trkpt lat="44.37777" lon="5.2478">
        <ele>353</ele>
        <time>2021-11-13T14:42:09.999Z</time>
      </trkpt>
      <trkpt lat="44.37774" lon="5.24784">
        <ele>353</ele>
        <time>2021-11-13T14:42:10.998Z</time>
      </trkpt>
      <trkpt lat="44.37771" lon="5.24788">
        <ele>352</ele>
        <time>2021-11-13T14:42:11.999Z</time>
      </trkpt>
      <trkpt lat="44.37768" lon="5.24792">
        <ele>352</ele>
        <time>2021-11-13T14:42:12.999Z</time>
      </trkpt>
      <trkpt lat="44.37765" lon="5.24796">
        <ele>352</ele>
        <time>2021-11-13T14:42:13.998Z</time>
      </trkpt>
      <trkpt lat="44.37762" lon="5.248">
        <ele>352</ele>
        <time>2021-11-13T14:42:14.999Z</time>
      </trkpt>
      <trkpt lat="44.37759" lon="5.24805">
        <ele>352</ele>
        <time>2021-11-13T14:42:15.999Z</time>
      </trkpt>
      <trkpt lat="44.37756" lon="5.24809">
        <ele>352</ele>
        <time>2021-11-13T14:42:16.999Z</time>
      </trkpt>
      <trkpt lat="44.37754" lon="5.24813">
        <ele>352</ele>
        <time>2021-11-13T14:42:17.999Z</time>
      </trkpt>
      <trkpt lat="44.37751" lon="5.24816">
        <ele>352</ele>
        <time>2021-11-13T14:42:18.999Z</time>
      </trkpt>
      <trkpt lat="44.37748" lon="5.2482">
        <ele>352</ele>
        <time>2021-11-13T14:42:19.999Z</time>
      </trkpt>
      <trkpt lat="44.37745" lon="5.24824">
        <ele>353</ele>
        <time>2021-11-13T14:42:20.999Z</time>
      </trkpt>
      <trkpt lat="44.37743" lon="5.24828">
        <ele>353</ele>
        <time>2021-11-13T14:42:21.999Z</time>
      </trkpt>
      <trkpt lat="44.37739" lon="5.24833">
        <ele>353</ele>
        <time>2021-11-13T14:42:22.999Z</time>
      </trkpt>
      <trkpt lat="44.37737" lon="5.24836">
        <ele>353</ele>
        <time>2021-11-13T14:42:23.998Z</time>
      </trkpt>
      <trkpt lat="44.37735" lon="5.24839">
        <ele>353</ele>
        <time>2021-11-13T14:42:24.998Z</time>
      </trkpt>
      <trkpt lat="44.37732" lon="5.24843">
        <ele>354</ele>
        <time>2021-11-13T14:42:25.999Z</time>
      </trkpt>
      <trkpt lat="44.37729" lon="5.24847">
        <ele>354</ele>
        <time>2021-11-13T14:42:26.999Z</time>
      </trkpt>
      <trkpt lat="44.37726" lon="5.24852">
        <ele>355</ele>
        <time>2021-11-13T14:42:27.998Z</time>
      </trkpt>
      <trkpt lat="44.37723" lon="5.24856">
        <ele>356</ele>
        <time>2021-11-13T14:42:28.999Z</time>
      </trkpt>
      <trkpt lat="44.3772" lon="5.24859">
        <ele>356</ele>
        <time>2021-11-13T14:42:29.999Z</time>
      </trkpt>
      <trkpt lat="44.37718" lon="5.24862">
        <ele>357</ele>
        <time>2021-11-13T14:42:30.998Z</time>
      </trkpt>
      <trkpt lat="44.37715" lon="5.24866">
        <ele>358</ele>
        <time>2021-11-13T14:42:31.999Z</time>
      </trkpt>
      <trkpt lat="44.37712" lon="5.2487">
        <ele>358</ele>
        <time>2021-11-13T14:42:32.999Z</time>
      </trkpt>
      <trkpt lat="44.37709" lon="5.24874">
        <ele>358</ele>
        <time>2021-11-13T14:42:33.999Z</time>
      </trkpt>
      <trkpt lat="44.37706" lon="5.24877">
        <ele>359</ele>
        <time>2021-11-13T14:42:34.998Z</time>
      </trkpt>
      <trkpt lat="44.37704" lon="5.24881">
        <ele>359</ele>
        <time>2021-11-13T14:42:35.999Z</time>
      </trkpt>
      <trkpt lat="44.37701" lon="5.24885">
        <ele>359</ele>
        <time>2021-11-13T14:42:36.999Z</time>
      </trkpt>
      <trkpt lat="44.37698" lon="5.2489">
        <ele>359</ele>
        <time>2021-11-13T14:42:37.999Z</time>
      </trkpt>
      <trkpt lat="44.37696" lon="5.24893">
        <ele>359</ele>
        <time>2021-11-13T14:42:38.999Z</time>
      </trkpt>
      <trkpt lat="44.37693" lon="5.24896">
        <ele>359</ele>
        <time>2021-11-13T14:42:39.998Z</time>
      </trkpt>
      <trkpt lat="44.37691" lon="5.249">
        <ele>359</ele>
        <time>2021-11-13T14:42:40.999Z</time>
      </trkpt>
      <trkpt lat="44.37688" lon="5.24904">
        <ele>358</ele>
        <time>2021-11-13T14:42:41.999Z</time>
      </trkpt>
      <trkpt lat="44.37685" lon="5.24909">
        <ele>358</ele>
        <time>2021-11-13T14:42:42.998Z</time>
      </trkpt>
      <trkpt lat="44.37682" lon="5.24912">
        <ele>358</ele>
        <time>2021-11-13T14:42:43.999Z</time>
      </trkpt>
      <trkpt lat="44.3768" lon="5.24915">
        <ele>358</ele>
        <time>2021-11-13T14:42:44.999Z</time>
      </trkpt>
      <trkpt lat="44.37676" lon="5.2492">
        <ele>358</ele>
        <time>2021-11-13T14:42:45.999Z</time>
      </trkpt>
      <trkpt lat="44.37673" lon="5.24923">
        <ele>359</ele>
        <time>2021-11-13T14:42:46.999Z</time>
      </trkpt>
      <trkpt lat="44.37671" lon="5.24927">
        <ele>360</ele>
        <time>2021-11-13T14:42:47.999Z</time>
      </trkpt>
      <trkpt lat="44.37668" lon="5.24931">
        <ele>361</ele>
        <time>2021-11-13T14:42:48.999Z</time>
      </trkpt>
      <trkpt lat="44.37665" lon="5.24934">
        <ele>361</ele>
        <time>2021-11-13T14:42:49.999Z</time>
      </trkpt>
      <trkpt lat="44.37661" lon="5.24939">
        <ele>362</ele>
        <time>2021-11-13T14:42:50.999Z</time>
      </trkpt>
      <trkpt lat="44.37659" lon="5.24943">
        <ele>363</ele>
        <time>2021-11-13T14:42:51.999Z</time>
      </trkpt>
      <trkpt lat="44.37656" lon="5.24946">
        <ele>364</ele>
        <time>2021-11-13T14:42:52.999Z</time>
      </trkpt>
      <trkpt lat="44.37653" lon="5.2495">
        <ele>364</ele>
        <time>2021-11-13T14:42:53.999Z</time>
      </trkpt>
      <trkpt lat="44.37651" lon="5.24954">
        <ele>365</ele>
        <time>2021-11-13T14:42:54.999Z</time>
      </trkpt>
      <trkpt lat="44.37647" lon="5.24959">
        <ele>366</ele>
        <time>2021-11-13T14:42:55.999Z</time>
      </trkpt>
      <trkpt lat="44.37645" lon="5.24962">
        <ele>366</ele>
        <time>2021-11-13T14:42:56.998Z</time>
      </trkpt>
      <trkpt lat="44.37642" lon="5.24966">
        <ele>367</ele>
        <time>2021-11-13T14:42:57.999Z</time>
      </trkpt>
      <trkpt lat="44.37639" lon="5.2497">
        <ele>367</ele>
        <time>2021-11-13T14:42:58.999Z</time>
      </trkpt>
      <trkpt lat="44.37637" lon="5.24973">
        <ele>368</ele>
        <time>2021-11-13T14:42:59.998Z</time>
      </trkpt>
      <trkpt lat="44.37634" lon="5.24977">
        <ele>368</ele>
        <time>2021-11-13T14:43:00.999Z</time>
      </trkpt>
      <trkpt lat="44.3763" lon="5.24981">
        <ele>369</ele>
        <time>2021-11-13T14:43:01.999Z</time>
      </trkpt>
      <trkpt lat="44.37627" lon="5.24985">
        <ele>369</ele>
        <time>2021-11-13T14:43:02.999Z</time>
      </trkpt>
      <trkpt lat="44.37624" lon="5.24989">
        <ele>370</ele>
        <time>2021-11-13T14:43:03.999Z</time>
      </trkpt>
      <trkpt lat="44.37621" lon="5.24994">
        <ele>370</ele>
        <time>2021-11-13T14:43:04.999Z</time>
      </trkpt>
      <trkpt lat="44.37618" lon="5.24998">
        <ele>369</ele>
        <time>2021-11-13T14:43:05.998Z</time>
      </trkpt>
      <trkpt lat="44.37616" lon="5.25001">
        <ele>368</ele>
        <time>2021-11-13T14:43:06.999Z</time>
      </trkpt>
      <trkpt lat="44.37613" lon="5.25006">
        <ele>367</ele>
        <time>2021-11-13T14:43:07.999Z</time>
      </trkpt>
      <trkpt lat="44.3761" lon="5.2501">
        <ele>367</ele>
        <time>2021-11-13T14:43:08.999Z</time>
      </trkpt>
      <trkpt lat="44.37607" lon="5.25014">
        <ele>366</ele>
        <time>2021-11-13T14:43:09.998Z</time>
      </trkpt>
      <trkpt lat="44.37604" lon="5.25019">
        <ele>366</ele>
        <time>2021-11-13T14:43:10.999Z</time>
      </trkpt>
      <trkpt lat="44.37601" lon="5.25023">
        <ele>365</ele>
        <time>2021-11-13T14:43:11.999Z</time>
      </trkpt>
      <trkpt lat="44.37598" lon="5.25027">
        <ele>364</ele>
        <time>2021-11-13T14:43:12.999Z</time>
      </trkpt>
      <trkpt lat="44.37595" lon="5.25031">
        <ele>364</ele>
        <time>2021-11-13T14:43:13.999Z</time>
      </trkpt>
      <trkpt lat="44.37592" lon="5.25035">
        <ele>363</ele>
        <time>2021-11-13T14:43:14.999Z</time>
      </trkpt>
      <trkpt lat="44.37589" lon="5.25039">
        <ele>363</ele>
        <time>2021-11-13T14:43:15.998Z</time>
      </trkpt>
      <trkpt lat="44.37586" lon="5.25043">
        <ele>363</ele>
        <time>2021-11-13T14:43:16.998Z</time>
      </trkpt>
      <trkpt lat="44.37583" lon="5.25047">
        <ele>363</ele>
        <time>2021-11-13T14:43:17.998Z</time>
      </trkpt>
      <trkpt lat="44.3758" lon="5.2505">
        <ele>363</ele>
        <time>2021-11-13T14:43:18.999Z</time>
      </trkpt>
      <trkpt lat="44.37577" lon="5.25054">
        <ele>363</ele>
        <time>2021-11-13T14:43:19.999Z</time>
      </trkpt>
      <trkpt lat="44.37574" lon="5.25057">
        <ele>364</ele>
        <time>2021-11-13T14:43:20.999Z</time>
      </trkpt>
      <trkpt lat="44.37571" lon="5.2506">
        <ele>364</ele>
        <time>2021-11-13T14:43:21.999Z</time>
      </trkpt>
      <trkpt lat="44.37568" lon="5.25063">
        <ele>364</ele>
        <time>2021-11-13T14:43:22.999Z</time>
      </trkpt>
      <trkpt lat="44.37565" lon="5.25065">
        <ele>364</ele>
        <time>2021-11-13T14:43:23.999Z</time>
      </trkpt>
      <trkpt lat="44.37562" lon="5.25068">
        <ele>364</ele>
        <time>2021-11-13T14:43:24.999Z</time>
      </trkpt>
      <trkpt lat="44.37559" lon="5.25071">
        <ele>364</ele>
        <time>2021-11-13T14:43:25.998Z</time>
      </trkpt>
      <trkpt lat="44.37556" lon="5.25074">
        <ele>364</ele>
        <time>2021-11-13T14:43:26.999Z</time>
      </trkpt>
      <trkpt lat="44.37553" lon="5.25077">
        <ele>364</ele>
        <time>2021-11-13T14:43:27.999Z</time>
      </trkpt>
      <trkpt lat="44.37549" lon="5.2508">
        <ele>364</ele>
        <time>2021-11-13T14:43:28.999Z</time>
      </trkpt>
      <trkpt lat="44.37546" lon="5.25084">
        <ele>363</ele>
        <time>2021-11-13T14:43:29.999Z</time>
      </trkpt>
      <trkpt lat="44.37543" lon="5.25087">
        <ele>363</ele>
        <time>2021-11-13T14:43:30.998Z</time>
      </trkpt>
      <trkpt lat="44.37539" lon="5.2509">
        <ele>363</ele>
        <time>2021-11-13T14:43:31.999Z</time>
      </trkpt>
      <trkpt lat="44.37536" lon="5.25093">
        <ele>363</ele>
        <time>2021-11-13T14:43:32.999Z</time>
      </trkpt>
      <trkpt lat="44.37532" lon="5.25097">
        <ele>364</ele>
        <time>2021-11-13T14:43:33.999Z</time>
      </trkpt>
      <trkpt lat="44.37529" lon="5.25101">
        <ele>364</ele>
        <time>2021-11-13T14:43:34.999Z</time>
      </trkpt>
      <trkpt lat="44.37526" lon="5.25104">
        <ele>364</ele>
        <time>2021-11-13T14:43:35.999Z</time>
      </trkpt>
      <trkpt lat="44.37523" lon="5.25108">
        <ele>363</ele>
        <time>2021-11-13T14:43:36.999Z</time>
      </trkpt>
      <trkpt lat="44.3752" lon="5.25113">
        <ele>363</ele>
        <time>2021-11-13T14:43:37.999Z</time>
      </trkpt>
      <trkpt lat="44.37517" lon="5.25117">
        <ele>362</ele>
        <time>2021-11-13T14:43:38.999Z</time>
      </trkpt>
      <trkpt lat="44.37514" lon="5.25122">
        <ele>362</ele>
        <time>2021-11-13T14:43:39.998Z</time>
      </trkpt>
      <trkpt lat="44.37511" lon="5.25126">
        <ele>362</ele>
        <time>2021-11-13T14:43:40.999Z</time>
      </trkpt>
      <trkpt lat="44.37508" lon="5.25131">
        <ele>361</ele>
        <time>2021-11-13T14:43:41.999Z</time>
      </trkpt>
      <trkpt lat="44.37506" lon="5.25136">
        <ele>361</ele>
        <time>2021-11-13T14:43:42.998Z</time>
      </trkpt>
      <trkpt lat="44.37504" lon="5.25142">
        <ele>361</ele>
        <time>2021-11-13T14:43:43.999Z</time>
      </trkpt>
      <trkpt lat="44.37501" lon="5.25147">
        <ele>361</ele>
        <time>2021-11-13T14:43:44.999Z</time>
      </trkpt>
      <trkpt lat="44.37499" lon="5.25152">
        <ele>361</ele>
        <time>2021-11-13T14:43:45.998Z</time>
      </trkpt>
      <trkpt lat="44.37497" lon="5.25157">
        <ele>361</ele>
        <time>2021-11-13T14:43:46.999Z</time>
      </trkpt>
      <trkpt lat="44.37495" lon="5.25163">
        <ele>361</ele>
        <time>2021-11-13T14:43:47.998Z</time>
      </trkpt>
      <trkpt lat="44.37493" lon="5.25168">
        <ele>360</ele>
        <time>2021-11-13T14:43:48.998Z</time>
      </trkpt>
      <trkpt lat="44.37491" lon="5.25173">
        <ele>360</ele>
        <time>2021-11-13T14:43:49.999Z</time>
      </trkpt>
      <trkpt lat="44.37489" lon="5.25179">
        <ele>360</ele>
        <time>2021-11-13T14:43:50.999Z</time>
      </trkpt>
      <trkpt lat="44.37487" lon="5.25184">
        <ele>360</ele>
        <time>2021-11-13T14:43:51.999Z</time>
      </trkpt>
      <trkpt lat="44.37485" lon="5.2519">
        <ele>360</ele>
        <time>2021-11-13T14:43:52.999Z</time>
      </trkpt>
      <trkpt lat="44.37483" lon="5.25195">
        <ele>361</ele>
        <time>2021-11-13T14:43:53.999Z</time>
      </trkpt>
      <trkpt lat="44.37481" lon="5.25201">
        <ele>361</ele>
        <time>2021-11-13T14:43:54.998Z</time>
      </trkpt>
      <trkpt lat="44.3748" lon="5.25207">
        <ele>362</ele>
        <time>2021-11-13T14:43:55.999Z</time>
      </trkpt>
      <trkpt lat="44.37478" lon="5.25213">
        <ele>363</ele>
        <time>2021-11-13T14:43:56.998Z</time>
      </trkpt>
      <trkpt lat="44.37477" lon="5.25218">
        <ele>363</ele>
        <time>2021-11-13T14:43:57.999Z</time>
      </trkpt>
      <trkpt lat="44.37475" lon="5.25224">
        <ele>364</ele>
        <time>2021-11-13T14:43:58.998Z</time>
      </trkpt>
      <trkpt lat="44.37474" lon="5.2523">
        <ele>364</ele>
        <time>2021-11-13T14:43:59.998Z</time>
      </trkpt>
      <trkpt lat="44.37473" lon="5.25236">
        <ele>364</ele>
        <time>2021-11-13T14:44:00.999Z</time>
      </trkpt>
      <trkpt lat="44.37472" lon="5.25241">
        <ele>364</ele>
        <time>2021-11-13T14:44:01.999Z</time>
      </trkpt>
      <trkpt lat="44.37471" lon="5.25247">
        <ele>364</ele>
        <time>2021-11-13T14:44:02.999Z</time>
      </trkpt>
      <trkpt lat="44.37469" lon="5.25253">
        <ele>364</ele>
        <time>2021-11-13T14:44:03.998Z</time>
      </trkpt>
      <trkpt lat="44.37469" lon="5.25259">
        <ele>364</ele>
        <time>2021-11-13T14:44:04.998Z</time>
      </trkpt>
      <trkpt lat="44.37468" lon="5.25264">
        <ele>363</ele>
        <time>2021-11-13T14:44:05.999Z</time>
      </trkpt>
      <trkpt lat="44.37466" lon="5.25269">
        <ele>363</ele>
        <time>2021-11-13T14:44:06.999Z</time>
      </trkpt>
      <trkpt lat="44.37465" lon="5.25275">
        <ele>362</ele>
        <time>2021-11-13T14:44:07.999Z</time>
      </trkpt>
      <trkpt lat="44.37463" lon="5.2528">
        <ele>362</ele>
        <time>2021-11-13T14:44:08.999Z</time>
      </trkpt>
      <trkpt lat="44.37461" lon="5.25286">
        <ele>362</ele>
        <time>2021-11-13T14:44:09.999Z</time>
      </trkpt>
      <trkpt lat="44.37459" lon="5.25291">
        <ele>362</ele>
        <time>2021-11-13T14:44:10.998Z</time>
      </trkpt>
      <trkpt lat="44.37457" lon="5.25296">
        <ele>362</ele>
        <time>2021-11-13T14:44:11.999Z</time>
      </trkpt>
      <trkpt lat="44.37454" lon="5.25301">
        <ele>362</ele>
        <time>2021-11-13T14:44:12.999Z</time>
      </trkpt>
      <trkpt lat="44.37452" lon="5.25306">
        <ele>362</ele>
        <time>2021-11-13T14:44:13.998Z</time>
      </trkpt>
      <trkpt lat="44.3745" lon="5.25311">
        <ele>362</ele>
        <time>2021-11-13T14:44:14.999Z</time>
      </trkpt>
      <trkpt lat="44.37447" lon="5.25316">
        <ele>361</ele>
        <time>2021-11-13T14:44:15.999Z</time>
      </trkpt>
      <trkpt lat="44.37445" lon="5.2532">
        <ele>361</ele>
        <time>2021-11-13T14:44:16.998Z</time>
      </trkpt>
      <trkpt lat="44.37442" lon="5.25325">
        <ele>361</ele>
        <time>2021-11-13T14:44:17.999Z</time>
      </trkpt>
      <trkpt lat="44.3744" lon="5.25329">
        <ele>361</ele>
        <time>2021-11-13T14:44:18.999Z</time>
      </trkpt>
      <trkpt lat="44.37437" lon="5.25333">
        <ele>361</ele>
        <time>2021-11-13T14:44:19.999Z</time>
      </trkpt>
      <trkpt lat="44.37434" lon="5.25337">
        <ele>362</ele>
        <time>2021-11-13T14:44:20.999Z</time>
      </trkpt>
      <trkpt lat="44.37431" lon="5.25341">
        <ele>362</ele>
        <time>2021-11-13T14:44:21.998Z</time>
      </trkpt>
      <trkpt lat="44.37428" lon="5.25345">
        <ele>363</ele>
        <time>2021-11-13T14:44:22.999Z</time>
      </trkpt>
      <trkpt lat="44.37425" lon="5.25349">
        <ele>363</ele>
        <time>2021-11-13T14:44:23.999Z</time>
      </trkpt>
      <trkpt lat="44.37421" lon="5.25352">
        <ele>363</ele>
        <time>2021-11-13T14:44:24.999Z</time>
      </trkpt>
      <trkpt lat="44.37418" lon="5.25356">
        <ele>364</ele>
        <time>2021-11-13T14:44:25.999Z</time>
      </trkpt>
      <trkpt lat="44.37415" lon="5.25359">
        <ele>364</ele>
        <time>2021-11-13T14:44:26.998Z</time>
      </trkpt>
      <trkpt lat="44.37411" lon="5.25362">
        <ele>364</ele>
        <time>2021-11-13T14:44:27.999Z</time>
      </trkpt>
      <trkpt lat="44.37408" lon="5.25364">
        <ele>365</ele>
        <time>2021-11-13T14:44:28.999Z</time>
      </trkpt>
      <trkpt lat="44.37404" lon="5.25366">
        <ele>365</ele>
        <time>2021-11-13T14:44:29.998Z</time>
      </trkpt>
      <trkpt lat="44.374" lon="5.25369">
        <ele>365</ele>
        <time>2021-11-13T14:44:30.999Z</time>
      </trkpt>
      <trkpt lat="44.37397" lon="5.25371">
        <ele>365</ele>
        <time>2021-11-13T14:44:31.998Z</time>
      </trkpt>
      <trkpt lat="44.37393" lon="5.25373">
        <ele>365</ele>
        <time>2021-11-13T14:44:32.999Z</time>
      </trkpt>
      <trkpt lat="44.3739" lon="5.25374">
        <ele>365</ele>
        <time>2021-11-13T14:44:33.999Z</time>
      </trkpt>
      <trkpt lat="44.37386" lon="5.25376">
        <ele>365</ele>
        <time>2021-11-13T14:44:34.999Z</time>
      </trkpt>
      <trkpt lat="44.37382" lon="5.25378">
        <ele>365</ele>
        <time>2021-11-13T14:44:35.999Z</time>
      </trkpt>
      <trkpt lat="44.37378" lon="5.2538">
        <ele>365</ele>
        <time>2021-11-13T14:44:36.998Z</time>
      </trkpt>
      <trkpt lat="44.37375" lon="5.25382">
        <ele>365</ele>
        <time>2021-11-13T14:44:37.999Z</time>
      </trkpt>
      <trkpt lat="44.37371" lon="5.25384">
        <ele>365</ele>
        <time>2021-11-13T14:44:38.999Z</time>
      </trkpt>
      <trkpt lat="44.37367" lon="5.25385">
        <ele>365</ele>
        <time>2021-11-13T14:44:39.998Z</time>
      </trkpt>
      <trkpt lat="44.37363" lon="5.25386">
        <ele>365</ele>
        <time>2021-11-13T14:44:40.999Z</time>
      </trkpt>
      <trkpt lat="44.3736" lon="5.25388">
        <ele>365</ele>
        <time>2021-11-13T14:44:41.999Z</time>
      </trkpt>
      <trkpt lat="44.37356" lon="5.25389">
        <ele>365</ele>
        <time>2021-11-13T14:44:42.999Z</time>
      </trkpt>
      <trkpt lat="44.37352" lon="5.2539">
        <ele>365</ele>
        <time>2021-11-13T14:44:43.999Z</time>
      </trkpt>
      <trkpt lat="44.37348" lon="5.25391">
        <ele>365</ele>
        <time>2021-11-13T14:44:44.999Z</time>
      </trkpt>
      <trkpt lat="44.37344" lon="5.25392">
        <ele>365</ele>
        <time>2021-11-13T14:44:45.998Z</time>
      </trkpt>
      <trkpt lat="44.3734" lon="5.25392">
        <ele>365</ele>
        <time>2021-11-13T14:44:46.999Z</time>
      </trkpt>
      <trkpt lat="44.37337" lon="5.25393">
        <ele>365</ele>
        <time>2021-11-13T14:44:47.999Z</time>
      </trkpt>
      <trkpt lat="44.37333" lon="5.25393">
        <ele>366</ele>
        <time>2021-11-13T14:44:48.998Z</time>
      </trkpt>
      <trkpt lat="44.37329" lon="5.25393">
        <ele>366</ele>
        <time>2021-11-13T14:44:49.999Z</time>
      </trkpt>
      <trkpt lat="44.37325" lon="5.25393">
        <ele>366</ele>
        <time>2021-11-13T14:44:50.999Z</time>
      </trkpt>
      <trkpt lat="44.3732" lon="5.25393">
        <ele>366</ele>
        <time>2021-11-13T14:44:51.999Z</time>
      </trkpt>
      <trkpt lat="44.37317" lon="5.25393">
        <ele>366</ele>
        <time>2021-11-13T14:44:52.998Z</time>
      </trkpt>
      <trkpt lat="44.37313" lon="5.25392">
        <ele>366</ele>
        <time>2021-11-13T14:44:53.999Z</time>
      </trkpt>
      <trkpt lat="44.3731" lon="5.25392">
        <ele>366</ele>
        <time>2021-11-13T14:44:54.999Z</time>
      </trkpt>
      <trkpt lat="44.37306" lon="5.25392">
        <ele>366</ele>
        <time>2021-11-13T14:44:55.998Z</time>
      </trkpt>
      <trkpt lat="44.37302" lon="5.25391">
        <ele>366</ele>
        <time>2021-11-13T14:44:56.999Z</time>
      </trkpt>
      <trkpt lat="44.37298" lon="5.25391">
        <ele>366</ele>
        <time>2021-11-13T14:44:57.999Z</time>
      </trkpt>
      <trkpt lat="44.37294" lon="5.25391">
        <ele>366</ele>
        <time>2021-11-13T14:44:58.999Z</time>
      </trkpt>
      <trkpt lat="44.3729" lon="5.2539">
        <ele>367</ele>
        <time>2021-11-13T14:44:59.999Z</time>
      </trkpt>
      <trkpt lat="44.37286" lon="5.2539">
        <ele>367</ele>
        <time>2021-11-13T14:45:00.998Z</time>
      </trkpt>
      <trkpt lat="44.37282" lon="5.25389">
        <ele>367</ele>
        <time>2021-11-13T14:45:01.998Z</time>
      </trkpt>
      <trkpt lat="44.37278" lon="5.25388">
        <ele>368</ele>
        <time>2021-11-13T14:45:02.998Z</time>
      </trkpt>
      <trkpt lat="44.37275" lon="5.25388">
        <ele>368</ele>
        <time>2021-11-13T14:45:03.998Z</time>
      </trkpt>
      <trkpt lat="44.37271" lon="5.25387">
        <ele>368</ele>
        <time>2021-11-13T14:45:04.999Z</time>
      </trkpt>
      <trkpt lat="44.37267" lon="5.25387">
        <ele>368</ele>
        <time>2021-11-13T14:45:05.999Z</time>
      </trkpt>
      <trkpt lat="44.37263" lon="5.25387">
        <ele>369</ele>
        <time>2021-11-13T14:45:06.999Z</time>
      </trkpt>
      <trkpt lat="44.37259" lon="5.25387">
        <ele>369</ele>
        <time>2021-11-13T14:45:07.998Z</time>
      </trkpt>
      <trkpt lat="44.37255" lon="5.25387">
        <ele>370</ele>
        <time>2021-11-13T14:45:08.999Z</time>
      </trkpt>
      <trkpt lat="44.37251" lon="5.25388">
        <ele>370</ele>
        <time>2021-11-13T14:45:09.999Z</time>
      </trkpt>
      <trkpt lat="44.37248" lon="5.25389">
        <ele>370</ele>
        <time>2021-11-13T14:45:10.999Z</time>
      </trkpt>
      <trkpt lat="44.37244" lon="5.2539">
        <ele>370</ele>
        <time>2021-11-13T14:45:11.999Z</time>
      </trkpt>
      <trkpt lat="44.37241" lon="5.25391">
        <ele>370</ele>
        <time>2021-11-13T14:45:12.999Z</time>
      </trkpt>
      <trkpt lat="44.37238" lon="5.25392">
        <ele>370</ele>
        <time>2021-11-13T14:45:13.999Z</time>
      </trkpt>
      <trkpt lat="44.37234" lon="5.25394">
        <ele>369</ele>
        <time>2021-11-13T14:45:14.999Z</time>
      </trkpt>
      <trkpt lat="44.37231" lon="5.25397">
        <ele>369</ele>
        <time>2021-11-13T14:45:15.999Z</time>
      </trkpt>
      <trkpt lat="44.37227" lon="5.254">
        <ele>369</ele>
        <time>2021-11-13T14:45:16.999Z</time>
      </trkpt>
      <trkpt lat="44.37224" lon="5.25403">
        <ele>369</ele>
        <time>2021-11-13T14:45:17.999Z</time>
      </trkpt>
      <trkpt lat="44.37221" lon="5.25407">
        <ele>370</ele>
        <time>2021-11-13T14:45:18.999Z</time>
      </trkpt>
      <trkpt lat="44.37218" lon="5.2541">
        <ele>370</ele>
        <time>2021-11-13T14:45:19.999Z</time>
      </trkpt>
      <trkpt lat="44.37216" lon="5.25415">
        <ele>370</ele>
        <time>2021-11-13T14:45:20.998Z</time>
      </trkpt>
      <trkpt lat="44.37214" lon="5.25419">
        <ele>370</ele>
        <time>2021-11-13T14:45:21.998Z</time>
      </trkpt>
      <trkpt lat="44.37211" lon="5.25423">
        <ele>369</ele>
        <time>2021-11-13T14:45:22.998Z</time>
      </trkpt>
      <trkpt lat="44.37209" lon="5.25428">
        <ele>369</ele>
        <time>2021-11-13T14:45:23.998Z</time>
      </trkpt>
      <trkpt lat="44.37207" lon="5.25432">
        <ele>369</ele>
        <time>2021-11-13T14:45:24.998Z</time>
      </trkpt>
      <trkpt lat="44.37205" lon="5.25437">
        <ele>369</ele>
        <time>2021-11-13T14:45:25.999Z</time>
      </trkpt>
      <trkpt lat="44.37203" lon="5.25442">
        <ele>369</ele>
        <time>2021-11-13T14:45:26.999Z</time>
      </trkpt>
      <trkpt lat="44.372" lon="5.25447">
        <ele>370</ele>
        <time>2021-11-13T14:45:27.999Z</time>
      </trkpt>
      <trkpt lat="44.37198" lon="5.25452">
        <ele>370</ele>
        <time>2021-11-13T14:45:28.999Z</time>
      </trkpt>
      <trkpt lat="44.37196" lon="5.25457">
        <ele>370</ele>
        <time>2021-11-13T14:45:29.999Z</time>
      </trkpt>
      <trkpt lat="44.37194" lon="5.25461">
        <ele>370</ele>
        <time>2021-11-13T14:45:30.998Z</time>
      </trkpt>
      <trkpt lat="44.37192" lon="5.25466">
        <ele>370</ele>
        <time>2021-11-13T14:45:31.998Z</time>
      </trkpt>
      <trkpt lat="44.3719" lon="5.2547">
        <ele>369</ele>
        <time>2021-11-13T14:45:32.998Z</time>
      </trkpt>
      <trkpt lat="44.37188" lon="5.25475">
        <ele>369</ele>
        <time>2021-11-13T14:45:33.998Z</time>
      </trkpt>
      <trkpt lat="44.37186" lon="5.25479">
        <ele>369</ele>
        <time>2021-11-13T14:45:34.998Z</time>
      </trkpt>
      <trkpt lat="44.37184" lon="5.25484">
        <ele>369</ele>
        <time>2021-11-13T14:45:35.998Z</time>
      </trkpt>
      <trkpt lat="44.37182" lon="5.25489">
        <ele>370</ele>
        <time>2021-11-13T14:45:36.998Z</time>
      </trkpt>
      <trkpt lat="44.3718" lon="5.25493">
        <ele>370</ele>
        <time>2021-11-13T14:45:37.999Z</time>
      </trkpt>
      <trkpt lat="44.37178" lon="5.25497">
        <ele>369</ele>
        <time>2021-11-13T14:45:38.999Z</time>
      </trkpt>
      <trkpt lat="44.37176" lon="5.25502">
        <ele>369</ele>
        <time>2021-11-13T14:45:39.999Z</time>
      </trkpt>
      <trkpt lat="44.37174" lon="5.25506">
        <ele>368</ele>
        <time>2021-11-13T14:45:40.999Z</time>
      </trkpt>
      <trkpt lat="44.37171" lon="5.25511">
        <ele>368</ele>
        <time>2021-11-13T14:45:41.998Z</time>
      </trkpt>
      <trkpt lat="44.37169" lon="5.25515">
        <ele>368</ele>
        <time>2021-11-13T14:45:42.999Z</time>
      </trkpt>
      <trkpt lat="44.37167" lon="5.2552">
        <ele>368</ele>
        <time>2021-11-13T14:45:43.999Z</time>
      </trkpt>
      <trkpt lat="44.37165" lon="5.25524">
        <ele>368</ele>
        <time>2021-11-13T14:45:44.998Z</time>
      </trkpt>
      <trkpt lat="44.37163" lon="5.25529">
        <ele>368</ele>
        <time>2021-11-13T14:45:45.999Z</time>
      </trkpt>
      <trkpt lat="44.37161" lon="5.25533">
        <ele>368</ele>
        <time>2021-11-13T14:45:46.999Z</time>
      </trkpt>
      <trkpt lat="44.37158" lon="5.25538">
        <ele>368</ele>
        <time>2021-11-13T14:45:47.999Z</time>
      </trkpt>
      <trkpt lat="44.37156" lon="5.25543">
        <ele>368</ele>
        <time>2021-11-13T14:45:48.999Z</time>
      </trkpt>
      <trkpt lat="44.37154" lon="5.25548">
        <ele>368</ele>
        <time>2021-11-13T14:45:49.999Z</time>
      </trkpt>
      <trkpt lat="44.37151" lon="5.25554">
        <ele>368</ele>
        <time>2021-11-13T14:45:50.999Z</time>
      </trkpt>
      <trkpt lat="44.37149" lon="5.25559">
        <ele>368</ele>
        <time>2021-11-13T14:45:51.999Z</time>
      </trkpt>
      <trkpt lat="44.37146" lon="5.25564">
        <ele>369</ele>
        <time>2021-11-13T14:45:52.999Z</time>
      </trkpt>
      <trkpt lat="44.37144" lon="5.25569">
        <ele>370</ele>
        <time>2021-11-13T14:45:53.999Z</time>
      </trkpt>
      <trkpt lat="44.37141" lon="5.25575">
        <ele>370</ele>
        <time>2021-11-13T14:45:54.998Z</time>
      </trkpt>
      <trkpt lat="44.37139" lon="5.2558">
        <ele>370</ele>
        <time>2021-11-13T14:45:55.998Z</time>
      </trkpt>
      <trkpt lat="44.37136" lon="5.25585">
        <ele>370</ele>
        <time>2021-11-13T14:45:56.999Z</time>
      </trkpt>
      <trkpt lat="44.37134" lon="5.25591">
        <ele>369</ele>
        <time>2021-11-13T14:45:57.999Z</time>
      </trkpt>
      <trkpt lat="44.37131" lon="5.25596">
        <ele>369</ele>
        <time>2021-11-13T14:45:58.999Z</time>
      </trkpt>
      <trkpt lat="44.37129" lon="5.25601">
        <ele>369</ele>
        <time>2021-11-13T14:45:59.998Z</time>
      </trkpt>
      <trkpt lat="44.37126" lon="5.25607">
        <ele>369</ele>
        <time>2021-11-13T14:46:00.999Z</time>
      </trkpt>
      <trkpt lat="44.37123" lon="5.25612">
        <ele>369</ele>
        <time>2021-11-13T14:46:01.999Z</time>
      </trkpt>
      <trkpt lat="44.37121" lon="5.25618">
        <ele>370</ele>
        <time>2021-11-13T14:46:02.998Z</time>
      </trkpt>
      <trkpt lat="44.37118" lon="5.25623">
        <ele>370</ele>
        <time>2021-11-13T14:46:03.999Z</time>
      </trkpt>
      <trkpt lat="44.37116" lon="5.25628">
        <ele>370</ele>
        <time>2021-11-13T14:46:04.998Z</time>
      </trkpt>
      <trkpt lat="44.37113" lon="5.25633">
        <ele>370</ele>
        <time>2021-11-13T14:46:05.998Z</time>
      </trkpt>
      <trkpt lat="44.37111" lon="5.25639">
        <ele>370</ele>
        <time>2021-11-13T14:46:06.998Z</time>
      </trkpt>
      <trkpt lat="44.37108" lon="5.25644">
        <ele>371</ele>
        <time>2021-11-13T14:46:07.999Z</time>
      </trkpt>
      <trkpt lat="44.37106" lon="5.25649">
        <ele>371</ele>
        <time>2021-11-13T14:46:08.999Z</time>
      </trkpt>
      <trkpt lat="44.37104" lon="5.25655">
        <ele>371</ele>
        <time>2021-11-13T14:46:09.999Z</time>
      </trkpt>
      <trkpt lat="44.37101" lon="5.25659">
        <ele>371</ele>
        <time>2021-11-13T14:46:10.999Z</time>
      </trkpt>
      <trkpt lat="44.37099" lon="5.25664">
        <ele>372</ele>
        <time>2021-11-13T14:46:11.999Z</time>
      </trkpt>
      <trkpt lat="44.37096" lon="5.25669">
        <ele>371</ele>
        <time>2021-11-13T14:46:12.999Z</time>
      </trkpt>
      <trkpt lat="44.37094" lon="5.25675">
        <ele>371</ele>
        <time>2021-11-13T14:46:13.999Z</time>
      </trkpt>
      <trkpt lat="44.37092" lon="5.2568">
        <ele>370</ele>
        <time>2021-11-13T14:46:14.999Z</time>
      </trkpt>
      <trkpt lat="44.3709" lon="5.25685">
        <ele>370</ele>
        <time>2021-11-13T14:46:15.998Z</time>
      </trkpt>
      <trkpt lat="44.37088" lon="5.2569">
        <ele>370</ele>
        <time>2021-11-13T14:46:16.998Z</time>
      </trkpt>
      <trkpt lat="44.37086" lon="5.25696">
        <ele>370</ele>
        <time>2021-11-13T14:46:17.999Z</time>
      </trkpt>
      <trkpt lat="44.37084" lon="5.25701">
        <ele>370</ele>
        <time>2021-11-13T14:46:18.999Z</time>
      </trkpt>
      <trkpt lat="44.37081" lon="5.25706">
        <ele>370</ele>
        <time>2021-11-13T14:46:19.999Z</time>
      </trkpt>
      <trkpt lat="44.37079" lon="5.25712">
        <ele>370</ele>
        <time>2021-11-13T14:46:20.999Z</time>
      </trkpt>
      <trkpt lat="44.37077" lon="5.25717">
        <ele>370</ele>
        <time>2021-11-13T14:46:21.998Z</time>
      </trkpt>
      <trkpt lat="44.37075" lon="5.25722">
        <ele>371</ele>
        <time>2021-11-13T14:46:22.999Z</time>
      </trkpt>
      <trkpt lat="44.37074" lon="5.25728">
        <ele>371</ele>
        <time>2021-11-13T14:46:23.998Z</time>
      </trkpt>
      <trkpt lat="44.37072" lon="5.25733">
        <ele>371</ele>
        <time>2021-11-13T14:46:24.999Z</time>
      </trkpt>
      <trkpt lat="44.3707" lon="5.25739">
        <ele>371</ele>
        <time>2021-11-13T14:46:25.999Z</time>
      </trkpt>
      <trkpt lat="44.37068" lon="5.25744">
        <ele>372</ele>
        <time>2021-11-13T14:46:26.999Z</time>
      </trkpt>
      <trkpt lat="44.37066" lon="5.2575">
        <ele>372</ele>
        <time>2021-11-13T14:46:27.999Z</time>
      </trkpt>
      <trkpt lat="44.37064" lon="5.25756">
        <ele>372</ele>
        <time>2021-11-13T14:46:28.999Z</time>
      </trkpt>
      <trkpt lat="44.37062" lon="5.25761">
        <ele>372</ele>
        <time>2021-11-13T14:46:29.999Z</time>
      </trkpt>
      <trkpt lat="44.3706" lon="5.25767">
        <ele>372</ele>
        <time>2021-11-13T14:46:30.999Z</time>
      </trkpt>
      <trkpt lat="44.37059" lon="5.25773">
        <ele>373</ele>
        <time>2021-11-13T14:46:31.998Z</time>
      </trkpt>
      <trkpt lat="44.37057" lon="5.25778">
        <ele>373</ele>
        <time>2021-11-13T14:46:32.999Z</time>
      </trkpt>
      <trkpt lat="44.37055" lon="5.25784">
        <ele>374</ele>
        <time>2021-11-13T14:46:33.999Z</time>
      </trkpt>
      <trkpt lat="44.37053" lon="5.2579">
        <ele>374</ele>
        <time>2021-11-13T14:46:34.998Z</time>
      </trkpt>
      <trkpt lat="44.37052" lon="5.25796">
        <ele>374</ele>
        <time>2021-11-13T14:46:35.999Z</time>
      </trkpt>
      <trkpt lat="44.3705" lon="5.25801">
        <ele>374</ele>
        <time>2021-11-13T14:46:36.999Z</time>
      </trkpt>
      <trkpt lat="44.37048" lon="5.25807">
        <ele>374</ele>
        <time>2021-11-13T14:46:37.999Z</time>
      </trkpt>
      <trkpt lat="44.37046" lon="5.25813">
        <ele>374</ele>
        <time>2021-11-13T14:46:38.999Z</time>
      </trkpt>
      <trkpt lat="44.37045" lon="5.25818">
        <ele>374</ele>
        <time>2021-11-13T14:46:39.998Z</time>
      </trkpt>
      <trkpt lat="44.37043" lon="5.25824">
        <ele>374</ele>
        <time>2021-11-13T14:46:40.999Z</time>
      </trkpt>
      <trkpt lat="44.37041" lon="5.2583">
        <ele>374</ele>
        <time>2021-11-13T14:46:41.999Z</time>
      </trkpt>
      <trkpt lat="44.37039" lon="5.25836">
        <ele>374</ele>
        <time>2021-11-13T14:46:42.999Z</time>
      </trkpt>
      <trkpt lat="44.37038" lon="5.25842">
        <ele>374</ele>
        <time>2021-11-13T14:46:43.999Z</time>
      </trkpt>
      <trkpt lat="44.37036" lon="5.25847">
        <ele>374</ele>
        <time>2021-11-13T14:46:44.998Z</time>
      </trkpt>
      <trkpt lat="44.37034" lon="5.25854">
        <ele>374</ele>
        <time>2021-11-13T14:46:45.998Z</time>
      </trkpt>
      <trkpt lat="44.37032" lon="5.25859">
        <ele>374</ele>
        <time>2021-11-13T14:46:46.998Z</time>
      </trkpt>
      <trkpt lat="44.37031" lon="5.25865">
        <ele>374</ele>
        <time>2021-11-13T14:46:47.999Z</time>
      </trkpt>
      <trkpt lat="44.37029" lon="5.25871">
        <ele>375</ele>
        <time>2021-11-13T14:46:48.998Z</time>
      </trkpt>
      <trkpt lat="44.37027" lon="5.25876">
        <ele>375</ele>
        <time>2021-11-13T14:46:49.998Z</time>
      </trkpt>
      <trkpt lat="44.37025" lon="5.25882">
        <ele>375</ele>
        <time>2021-11-13T14:46:50.999Z</time>
      </trkpt>
      <trkpt lat="44.37024" lon="5.25888">
        <ele>375</ele>
        <time>2021-11-13T14:46:51.999Z</time>
      </trkpt>
      <trkpt lat="44.37022" lon="5.25893">
        <ele>375</ele>
        <time>2021-11-13T14:46:52.999Z</time>
      </trkpt>
      <trkpt lat="44.3702" lon="5.25899">
        <ele>375</ele>
        <time>2021-11-13T14:46:53.999Z</time>
      </trkpt>
      <trkpt lat="44.37017" lon="5.25904">
        <ele>375</ele>
        <time>2021-11-13T14:46:54.998Z</time>
      </trkpt>
      <trkpt lat="44.37015" lon="5.25909">
        <ele>376</ele>
        <time>2021-11-13T14:46:55.998Z</time>
      </trkpt>
      <trkpt lat="44.37013" lon="5.25914">
        <ele>376</ele>
        <time>2021-11-13T14:46:56.998Z</time>
      </trkpt>
      <trkpt lat="44.3701" lon="5.25918">
        <ele>376</ele>
        <time>2021-11-13T14:46:57.999Z</time>
      </trkpt>
      <trkpt lat="44.37008" lon="5.25922">
        <ele>375</ele>
        <time>2021-11-13T14:46:58.999Z</time>
      </trkpt>
      <trkpt lat="44.37005" lon="5.25928">
        <ele>375</ele>
        <time>2021-11-13T14:46:59.998Z</time>
      </trkpt>
      <trkpt lat="44.37003" lon="5.25931">
        <ele>374</ele>
        <time>2021-11-13T14:47:00.999Z</time>
      </trkpt>
      <trkpt lat="44.37001" lon="5.25936">
        <ele>374</ele>
        <time>2021-11-13T14:47:01.999Z</time>
      </trkpt>
      <trkpt lat="44.36998" lon="5.25941">
        <ele>373</ele>
        <time>2021-11-13T14:47:02.998Z</time>
      </trkpt>
      <trkpt lat="44.36995" lon="5.25947">
        <ele>373</ele>
        <time>2021-11-13T14:47:03.998Z</time>
      </trkpt>
      <trkpt lat="44.36992" lon="5.25952">
        <ele>373</ele>
        <time>2021-11-13T14:47:04.998Z</time>
      </trkpt>
      <trkpt lat="44.3699" lon="5.25957">
        <ele>373</ele>
        <time>2021-11-13T14:47:05.999Z</time>
      </trkpt>
      <trkpt lat="44.36987" lon="5.25962">
        <ele>373</ele>
        <time>2021-11-13T14:47:06.998Z</time>
      </trkpt>
      <trkpt lat="44.36985" lon="5.25967">
        <ele>372</ele>
        <time>2021-11-13T14:47:07.999Z</time>
      </trkpt>
      <trkpt lat="44.36982" lon="5.25973">
        <ele>372</ele>
        <time>2021-11-13T14:47:08.998Z</time>
      </trkpt>
      <trkpt lat="44.3698" lon="5.25978">
        <ele>372</ele>
        <time>2021-11-13T14:47:09.999Z</time>
      </trkpt>
      <trkpt lat="44.36977" lon="5.25984">
        <ele>371</ele>
        <time>2021-11-13T14:47:10.998Z</time>
      </trkpt>
      <trkpt lat="44.36974" lon="5.2599">
        <ele>372</ele>
        <time>2021-11-13T14:47:11.998Z</time>
      </trkpt>
      <trkpt lat="44.36971" lon="5.25996">
        <ele>372</ele>
        <time>2021-11-13T14:47:12.999Z</time>
      </trkpt>
      <trkpt lat="44.36968" lon="5.26001">
        <ele>372</ele>
        <time>2021-11-13T14:47:13.999Z</time>
      </trkpt>
      <trkpt lat="44.36965" lon="5.26007">
        <ele>372</ele>
        <time>2021-11-13T14:47:14.998Z</time>
      </trkpt>
      <trkpt lat="44.36962" lon="5.26013">
        <ele>372</ele>
        <time>2021-11-13T14:47:15.998Z</time>
      </trkpt>
      <trkpt lat="44.36958" lon="5.26018">
        <ele>372</ele>
        <time>2021-11-13T14:47:16.998Z</time>
      </trkpt>
      <trkpt lat="44.36955" lon="5.26023">
        <ele>372</ele>
        <time>2021-11-13T14:47:17.999Z</time>
      </trkpt>
      <trkpt lat="44.36952" lon="5.26028">
        <ele>372</ele>
        <time>2021-11-13T14:47:18.999Z</time>
      </trkpt>
      <trkpt lat="44.36948" lon="5.26034">
        <ele>372</ele>
        <time>2021-11-13T14:47:19.999Z</time>
      </trkpt>
      <trkpt lat="44.36945" lon="5.26039">
        <ele>373</ele>
        <time>2021-11-13T14:47:20.998Z</time>
      </trkpt>
      <trkpt lat="44.36941" lon="5.26044">
        <ele>373</ele>
        <time>2021-11-13T14:47:21.999Z</time>
      </trkpt>
      <trkpt lat="44.36937" lon="5.26048">
        <ele>373</ele>
        <time>2021-11-13T14:47:22.999Z</time>
      </trkpt>
      <trkpt lat="44.36934" lon="5.26053">
        <ele>373</ele>
        <time>2021-11-13T14:47:23.999Z</time>
      </trkpt>
      <trkpt lat="44.3693" lon="5.26057">
        <ele>373</ele>
        <time>2021-11-13T14:47:24.999Z</time>
      </trkpt>
      <trkpt lat="44.36925" lon="5.26062">
        <ele>373</ele>
        <time>2021-11-13T14:47:25.998Z</time>
      </trkpt>
      <trkpt lat="44.36922" lon="5.26066">
        <ele>373</ele>
        <time>2021-11-13T14:47:26.999Z</time>
      </trkpt>
      <trkpt lat="44.36918" lon="5.26071">
        <ele>373</ele>
        <time>2021-11-13T14:47:27.999Z</time>
      </trkpt>
      <trkpt lat="44.36914" lon="5.26075">
        <ele>373</ele>
        <time>2021-11-13T14:47:28.999Z</time>
      </trkpt>
      <trkpt lat="44.3691" lon="5.2608">
        <ele>373</ele>
        <time>2021-11-13T14:47:29.998Z</time>
      </trkpt>
      <trkpt lat="44.36906" lon="5.26084">
        <ele>372</ele>
        <time>2021-11-13T14:47:30.999Z</time>
      </trkpt>
      <trkpt lat="44.36901" lon="5.26089">
        <ele>373</ele>
        <time>2021-11-13T14:47:31.998Z</time>
      </trkpt>
      <trkpt lat="44.36897" lon="5.26093">
        <ele>374</ele>
        <time>2021-11-13T14:47:32.999Z</time>
      </trkpt>
      <trkpt lat="44.36893" lon="5.26097">
        <ele>374</ele>
        <time>2021-11-13T14:47:33.998Z</time>
      </trkpt>
      <trkpt lat="44.36889" lon="5.26101">
        <ele>374</ele>
        <time>2021-11-13T14:47:34.999Z</time>
      </trkpt>
      <trkpt lat="44.36886" lon="5.26105">
        <ele>374</ele>
        <time>2021-11-13T14:47:35.999Z</time>
      </trkpt>
      <trkpt lat="44.36882" lon="5.26109">
        <ele>374</ele>
        <time>2021-11-13T14:47:36.999Z</time>
      </trkpt>
      <trkpt lat="44.36878" lon="5.26113">
        <ele>375</ele>
        <time>2021-11-13T14:47:37.999Z</time>
      </trkpt>
      <trkpt lat="44.36874" lon="5.26116">
        <ele>375</ele>
        <time>2021-11-13T14:47:38.998Z</time>
      </trkpt>
      <trkpt lat="44.36871" lon="5.2612">
        <ele>376</ele>
        <time>2021-11-13T14:47:39.998Z</time>
      </trkpt>
      <trkpt lat="44.36867" lon="5.26124">
        <ele>376</ele>
        <time>2021-11-13T14:47:40.999Z</time>
      </trkpt>
      <trkpt lat="44.36864" lon="5.26128">
        <ele>375</ele>
        <time>2021-11-13T14:47:41.999Z</time>
      </trkpt>
      <trkpt lat="44.36861" lon="5.26132">
        <ele>376</ele>
        <time>2021-11-13T14:47:42.999Z</time>
      </trkpt>
      <trkpt lat="44.36857" lon="5.26135">
        <ele>376</ele>
        <time>2021-11-13T14:47:43.999Z</time>
      </trkpt>
      <trkpt lat="44.36854" lon="5.26139">
        <ele>376</ele>
        <time>2021-11-13T14:47:44.998Z</time>
      </trkpt>
      <trkpt lat="44.36851" lon="5.26143">
        <ele>376</ele>
        <time>2021-11-13T14:47:45.998Z</time>
      </trkpt>
      <trkpt lat="44.36847" lon="5.26146">
        <ele>376</ele>
        <time>2021-11-13T14:47:46.999Z</time>
      </trkpt>
      <trkpt lat="44.36844" lon="5.2615">
        <ele>376</ele>
        <time>2021-11-13T14:47:47.999Z</time>
      </trkpt>
      <trkpt lat="44.36841" lon="5.26153">
        <ele>375</ele>
        <time>2021-11-13T14:47:48.999Z</time>
      </trkpt>
      <trkpt lat="44.36838" lon="5.26157">
        <ele>376</ele>
        <time>2021-11-13T14:47:49.998Z</time>
      </trkpt>
      <trkpt lat="44.36835" lon="5.2616">
        <ele>376</ele>
        <time>2021-11-13T14:47:50.998Z</time>
      </trkpt>
      <trkpt lat="44.36832" lon="5.26164">
        <ele>376</ele>
        <time>2021-11-13T14:47:51.999Z</time>
      </trkpt>
      <trkpt lat="44.36828" lon="5.26167">
        <ele>376</ele>
        <time>2021-11-13T14:47:52.999Z</time>
      </trkpt>
      <trkpt lat="44.36826" lon="5.26171">
        <ele>376</ele>
        <time>2021-11-13T14:47:53.998Z</time>
      </trkpt>
      <trkpt lat="44.36823" lon="5.26174">
        <ele>376</ele>
        <time>2021-11-13T14:47:54.998Z</time>
      </trkpt>
      <trkpt lat="44.36819" lon="5.26178">
        <ele>376</ele>
        <time>2021-11-13T14:47:55.998Z</time>
      </trkpt>
      <trkpt lat="44.36816" lon="5.26182">
        <ele>376</ele>
        <time>2021-11-13T14:47:56.999Z</time>
      </trkpt>
      <trkpt lat="44.36813" lon="5.26185">
        <ele>376</ele>
        <time>2021-11-13T14:47:57.998Z</time>
      </trkpt>
      <trkpt lat="44.3681" lon="5.26189">
        <ele>376</ele>
        <time>2021-11-13T14:47:58.999Z</time>
      </trkpt>
      <trkpt lat="44.36807" lon="5.26192">
        <ele>376</ele>
        <time>2021-11-13T14:47:59.998Z</time>
      </trkpt>
      <trkpt lat="44.36803" lon="5.26196">
        <ele>376</ele>
        <time>2021-11-13T14:48:00.998Z</time>
      </trkpt>
      <trkpt lat="44.368" lon="5.262">
        <ele>375</ele>
        <time>2021-11-13T14:48:01.999Z</time>
      </trkpt>
      <trkpt lat="44.36797" lon="5.26203">
        <ele>375</ele>
        <time>2021-11-13T14:48:02.998Z</time>
      </trkpt>
      <trkpt lat="44.36793" lon="5.26207">
        <ele>376</ele>
        <time>2021-11-13T14:48:03.999Z</time>
      </trkpt>
      <trkpt lat="44.3679" lon="5.2621">
        <ele>376</ele>
        <time>2021-11-13T14:48:04.998Z</time>
      </trkpt>
      <trkpt lat="44.36786" lon="5.26214">
        <ele>376</ele>
        <time>2021-11-13T14:48:05.998Z</time>
      </trkpt>
      <trkpt lat="44.36783" lon="5.26217">
        <ele>377</ele>
        <time>2021-11-13T14:48:06.998Z</time>
      </trkpt>
      <trkpt lat="44.36779" lon="5.26221">
        <ele>377</ele>
        <time>2021-11-13T14:48:07.998Z</time>
      </trkpt>
      <trkpt lat="44.36776" lon="5.26225">
        <ele>377</ele>
        <time>2021-11-13T14:48:08.999Z</time>
      </trkpt>
      <trkpt lat="44.36773" lon="5.26228">
        <ele>377</ele>
        <time>2021-11-13T14:48:09.998Z</time>
      </trkpt>
      <trkpt lat="44.3677" lon="5.26232">
        <ele>377</ele>
        <time>2021-11-13T14:48:10.998Z</time>
      </trkpt>
      <trkpt lat="44.36767" lon="5.26235">
        <ele>377</ele>
        <time>2021-11-13T14:48:11.998Z</time>
      </trkpt>
      <trkpt lat="44.36764" lon="5.26239">
        <ele>376</ele>
        <time>2021-11-13T14:48:12.998Z</time>
      </trkpt>
      <trkpt lat="44.3676" lon="5.26242">
        <ele>376</ele>
        <time>2021-11-13T14:48:13.998Z</time>
      </trkpt>
      <trkpt lat="44.36757" lon="5.26246">
        <ele>376</ele>
        <time>2021-11-13T14:48:14.998Z</time>
      </trkpt>
      <trkpt lat="44.36754" lon="5.2625">
        <ele>376</ele>
        <time>2021-11-13T14:48:15.998Z</time>
      </trkpt>
      <trkpt lat="44.36751" lon="5.26254">
        <ele>376</ele>
        <time>2021-11-13T14:48:16.999Z</time>
      </trkpt>
      <trkpt lat="44.36748" lon="5.26258">
        <ele>376</ele>
        <time>2021-11-13T14:48:17.999Z</time>
      </trkpt>
      <trkpt lat="44.36745" lon="5.26262">
        <ele>376</ele>
        <time>2021-11-13T14:48:18.999Z</time>
      </trkpt>
      <trkpt lat="44.36742" lon="5.26266">
        <ele>376</ele>
        <time>2021-11-13T14:48:19.998Z</time>
      </trkpt>
      <trkpt lat="44.36739" lon="5.2627">
        <ele>376</ele>
        <time>2021-11-13T14:48:20.999Z</time>
      </trkpt>
      <trkpt lat="44.36736" lon="5.26274">
        <ele>376</ele>
        <time>2021-11-13T14:48:21.998Z</time>
      </trkpt>
      <trkpt lat="44.36733" lon="5.26278">
        <ele>376</ele>
        <time>2021-11-13T14:48:22.999Z</time>
      </trkpt>
      <trkpt lat="44.3673" lon="5.26282">
        <ele>376</ele>
        <time>2021-11-13T14:48:23.998Z</time>
      </trkpt>
      <trkpt lat="44.36727" lon="5.26286">
        <ele>377</ele>
        <time>2021-11-13T14:48:24.998Z</time>
      </trkpt>
      <trkpt lat="44.36724" lon="5.2629">
        <ele>377</ele>
        <time>2021-11-13T14:48:25.999Z</time>
      </trkpt>
      <trkpt lat="44.3672" lon="5.26294">
        <ele>377</ele>
        <time>2021-11-13T14:48:26.999Z</time>
      </trkpt>
      <trkpt lat="44.36716" lon="5.26297">
        <ele>377</ele>
        <time>2021-11-13T14:48:27.999Z</time>
      </trkpt>
      <trkpt lat="44.36712" lon="5.26301">
        <ele>378</ele>
        <time>2021-11-13T14:48:28.998Z</time>
      </trkpt>
      <trkpt lat="44.36708" lon="5.26304">
        <ele>378</ele>
        <time>2021-11-13T14:48:29.998Z</time>
      </trkpt>
      <trkpt lat="44.36703" lon="5.26308">
        <ele>378</ele>
        <time>2021-11-13T14:48:30.998Z</time>
      </trkpt>
      <trkpt lat="44.367" lon="5.2631">
        <ele>378</ele>
        <time>2021-11-13T14:48:31.999Z</time>
      </trkpt>
      <trkpt lat="44.36695" lon="5.26312">
        <ele>379</ele>
        <time>2021-11-13T14:48:32.998Z</time>
      </trkpt>
      <trkpt lat="44.3669" lon="5.26315">
        <ele>379</ele>
        <time>2021-11-13T14:48:33.998Z</time>
      </trkpt>
      <trkpt lat="44.36685" lon="5.26317">
        <ele>379</ele>
        <time>2021-11-13T14:48:34.998Z</time>
      </trkpt>
      <trkpt lat="44.36681" lon="5.26318">
        <ele>379</ele>
        <time>2021-11-13T14:48:35.998Z</time>
      </trkpt>
      <trkpt lat="44.36677" lon="5.26319">
        <ele>380</ele>
        <time>2021-11-13T14:48:36.998Z</time>
      </trkpt>
      <trkpt lat="44.36673" lon="5.26319">
        <ele>380</ele>
        <time>2021-11-13T14:48:37.998Z</time>
      </trkpt>
      <trkpt lat="44.36668" lon="5.2632">
        <ele>380</ele>
        <time>2021-11-13T14:48:38.999Z</time>
      </trkpt>
      <trkpt lat="44.36663" lon="5.2632">
        <ele>380</ele>
        <time>2021-11-13T14:48:39.998Z</time>
      </trkpt>
      <trkpt lat="44.3666" lon="5.2632">
        <ele>381</ele>
        <time>2021-11-13T14:48:40.998Z</time>
      </trkpt>
      <trkpt lat="44.36655" lon="5.2632">
        <ele>381</ele>
        <time>2021-11-13T14:48:41.999Z</time>
      </trkpt>
      <trkpt lat="44.3665" lon="5.2632">
        <ele>381</ele>
        <time>2021-11-13T14:48:42.999Z</time>
      </trkpt>
      <trkpt lat="44.36647" lon="5.2632">
        <ele>381</ele>
        <time>2021-11-13T14:48:43.999Z</time>
      </trkpt>
      <trkpt lat="44.36643" lon="5.2632">
        <ele>381</ele>
        <time>2021-11-13T14:48:44.999Z</time>
      </trkpt>
      <trkpt lat="44.36639" lon="5.2632">
        <ele>380</ele>
        <time>2021-11-13T14:48:45.999Z</time>
      </trkpt>
      <trkpt lat="44.36634" lon="5.26319">
        <ele>379</ele>
        <time>2021-11-13T14:48:46.998Z</time>
      </trkpt>
      <trkpt lat="44.3663" lon="5.26319">
        <ele>379</ele>
        <time>2021-11-13T14:48:47.999Z</time>
      </trkpt>
      <trkpt lat="44.36625" lon="5.26319">
        <ele>379</ele>
        <time>2021-11-13T14:48:48.999Z</time>
      </trkpt>
      <trkpt lat="44.36622" lon="5.26319">
        <ele>378</ele>
        <time>2021-11-13T14:48:49.999Z</time>
      </trkpt>
      <trkpt lat="44.36617" lon="5.26319">
        <ele>378</ele>
        <time>2021-11-13T14:48:50.998Z</time>
      </trkpt>
      <trkpt lat="44.36612" lon="5.2632">
        <ele>378</ele>
        <time>2021-11-13T14:48:51.999Z</time>
      </trkpt>
      <trkpt lat="44.36609" lon="5.2632">
        <ele>378</ele>
        <time>2021-11-13T14:48:52.998Z</time>
      </trkpt>
      <trkpt lat="44.36604" lon="5.26321">
        <ele>378</ele>
        <time>2021-11-13T14:48:53.999Z</time>
      </trkpt>
      <trkpt lat="44.366" lon="5.26322">
        <ele>378</ele>
        <time>2021-11-13T14:48:54.998Z</time>
      </trkpt>
      <trkpt lat="44.36596" lon="5.26323">
        <ele>378</ele>
        <time>2021-11-13T14:48:55.999Z</time>
      </trkpt>
      <trkpt lat="44.36591" lon="5.26324">
        <ele>378</ele>
        <time>2021-11-13T14:48:56.999Z</time>
      </trkpt>
      <trkpt lat="44.36587" lon="5.26325">
        <ele>378</ele>
        <time>2021-11-13T14:48:57.999Z</time>
      </trkpt>
      <trkpt lat="44.36583" lon="5.26327">
        <ele>378</ele>
        <time>2021-11-13T14:48:58.998Z</time>
      </trkpt>
      <trkpt lat="44.36579" lon="5.26328">
        <ele>378</ele>
        <time>2021-11-13T14:48:59.999Z</time>
      </trkpt>
      <trkpt lat="44.36575" lon="5.2633">
        <ele>379</ele>
        <time>2021-11-13T14:49:00.999Z</time>
      </trkpt>
      <trkpt lat="44.3657" lon="5.26333">
        <ele>379</ele>
        <time>2021-11-13T14:49:01.999Z</time>
      </trkpt>
      <trkpt lat="44.36566" lon="5.26336">
        <ele>379</ele>
        <time>2021-11-13T14:49:02.999Z</time>
      </trkpt>
      <trkpt lat="44.36562" lon="5.26338">
        <ele>380</ele>
        <time>2021-11-13T14:49:03.999Z</time>
      </trkpt>
      <trkpt lat="44.36558" lon="5.26342">
        <ele>380</ele>
        <time>2021-11-13T14:49:04.999Z</time>
      </trkpt>
      <trkpt lat="44.36555" lon="5.26345">
        <ele>380</ele>
        <time>2021-11-13T14:49:05.999Z</time>
      </trkpt>
      <trkpt lat="44.36551" lon="5.26348">
        <ele>380</ele>
        <time>2021-11-13T14:49:06.999Z</time>
      </trkpt>
      <trkpt lat="44.36547" lon="5.26353">
        <ele>380</ele>
        <time>2021-11-13T14:49:07.998Z</time>
      </trkpt>
      <trkpt lat="44.36544" lon="5.26355">
        <ele>380</ele>
        <time>2021-11-13T14:49:08.998Z</time>
      </trkpt>
      <trkpt lat="44.36541" lon="5.26359">
        <ele>380</ele>
        <time>2021-11-13T14:49:09.999Z</time>
      </trkpt>
      <trkpt lat="44.36537" lon="5.26364">
        <ele>380</ele>
        <time>2021-11-13T14:49:10.999Z</time>
      </trkpt>
      <trkpt lat="44.36534" lon="5.26367">
        <ele>380</ele>
        <time>2021-11-13T14:49:11.998Z</time>
      </trkpt>
      <trkpt lat="44.36531" lon="5.26371">
        <ele>380</ele>
        <time>2021-11-13T14:49:12.999Z</time>
      </trkpt>
      <trkpt lat="44.36528" lon="5.26375">
        <ele>380</ele>
        <time>2021-11-13T14:49:13.998Z</time>
      </trkpt>
      <trkpt lat="44.36524" lon="5.26379">
        <ele>381</ele>
        <time>2021-11-13T14:49:14.999Z</time>
      </trkpt>
      <trkpt lat="44.36521" lon="5.26383">
        <ele>381</ele>
        <time>2021-11-13T14:49:15.999Z</time>
      </trkpt>
      <trkpt lat="44.36517" lon="5.26387">
        <ele>382</ele>
        <time>2021-11-13T14:49:16.998Z</time>
      </trkpt>
      <trkpt lat="44.36514" lon="5.2639">
        <ele>382</ele>
        <time>2021-11-13T14:49:17.999Z</time>
      </trkpt>
      <trkpt lat="44.3651" lon="5.26394">
        <ele>383</ele>
        <time>2021-11-13T14:49:18.999Z</time>
      </trkpt>
      <trkpt lat="44.36506" lon="5.26397">
        <ele>384</ele>
        <time>2021-11-13T14:49:19.999Z</time>
      </trkpt>
      <trkpt lat="44.36503" lon="5.264">
        <ele>384</ele>
        <time>2021-11-13T14:49:20.999Z</time>
      </trkpt>
      <trkpt lat="44.36499" lon="5.26402">
        <ele>384</ele>
        <time>2021-11-13T14:49:21.999Z</time>
      </trkpt>
      <trkpt lat="44.36496" lon="5.26404">
        <ele>384</ele>
        <time>2021-11-13T14:49:22.999Z</time>
      </trkpt>
      <trkpt lat="44.36492" lon="5.26406">
        <ele>385</ele>
        <time>2021-11-13T14:49:23.999Z</time>
      </trkpt>
      <trkpt lat="44.36489" lon="5.26408">
        <ele>384</ele>
        <time>2021-11-13T14:49:24.999Z</time>
      </trkpt>
      <trkpt lat="44.36485" lon="5.26409">
        <ele>384</ele>
        <time>2021-11-13T14:49:25.999Z</time>
      </trkpt>
      <trkpt lat="44.36481" lon="5.2641">
        <ele>384</ele>
        <time>2021-11-13T14:49:26.999Z</time>
      </trkpt>
      <trkpt lat="44.36478" lon="5.26412">
        <ele>384</ele>
        <time>2021-11-13T14:49:27.999Z</time>
      </trkpt>
      <trkpt lat="44.36474" lon="5.26413">
        <ele>384</ele>
        <time>2021-11-13T14:49:28.999Z</time>
      </trkpt>
      <trkpt lat="44.36471" lon="5.26414">
        <ele>384</ele>
        <time>2021-11-13T14:49:29.998Z</time>
      </trkpt>
      <trkpt lat="44.36467" lon="5.26415">
        <ele>384</ele>
        <time>2021-11-13T14:49:30.999Z</time>
      </trkpt>
      <trkpt lat="44.36463" lon="5.26417">
        <ele>385</ele>
        <time>2021-11-13T14:49:31.999Z</time>
      </trkpt>
      <trkpt lat="44.36459" lon="5.26419">
        <ele>385</ele>
        <time>2021-11-13T14:49:32.999Z</time>
      </trkpt>
      <trkpt lat="44.36456" lon="5.26422">
        <ele>385</ele>
        <time>2021-11-13T14:49:33.999Z</time>
      </trkpt>
      <trkpt lat="44.36452" lon="5.26425">
        <ele>385</ele>
        <time>2021-11-13T14:49:34.999Z</time>
      </trkpt>
      <trkpt lat="44.36449" lon="5.26428">
        <ele>385</ele>
        <time>2021-11-13T14:49:35.998Z</time>
      </trkpt>
      <trkpt lat="44.36446" lon="5.26431">
        <ele>386</ele>
        <time>2021-11-13T14:49:36.999Z</time>
      </trkpt>
      <trkpt lat="44.36442" lon="5.26435">
        <ele>387</ele>
        <time>2021-11-13T14:49:37.998Z</time>
      </trkpt>
      <trkpt lat="44.36439" lon="5.26438">
        <ele>387</ele>
        <time>2021-11-13T14:49:38.999Z</time>
      </trkpt>
      <trkpt lat="44.36435" lon="5.26442">
        <ele>387</ele>
        <time>2021-11-13T14:49:39.999Z</time>
      </trkpt>
      <trkpt lat="44.36432" lon="5.26445">
        <ele>387</ele>
        <time>2021-11-13T14:49:40.999Z</time>
      </trkpt>
      <trkpt lat="44.36429" lon="5.26449">
        <ele>386</ele>
        <time>2021-11-13T14:49:41.999Z</time>
      </trkpt>
      <trkpt lat="44.36426" lon="5.26453">
        <ele>386</ele>
        <time>2021-11-13T14:49:42.999Z</time>
      </trkpt>
      <trkpt lat="44.36423" lon="5.26457">
        <ele>386</ele>
        <time>2021-11-13T14:49:43.999Z</time>
      </trkpt>
      <trkpt lat="44.3642" lon="5.26461">
        <ele>386</ele>
        <time>2021-11-13T14:49:44.998Z</time>
      </trkpt>
      <trkpt lat="44.36417" lon="5.26465">
        <ele>386</ele>
        <time>2021-11-13T14:49:45.998Z</time>
      </trkpt>
      <trkpt lat="44.36415" lon="5.2647">
        <ele>386</ele>
        <time>2021-11-13T14:49:46.999Z</time>
      </trkpt>
      <trkpt lat="44.36412" lon="5.26474">
        <ele>385</ele>
        <time>2021-11-13T14:49:47.998Z</time>
      </trkpt>
      <trkpt lat="44.36409" lon="5.26479">
        <ele>385</ele>
        <time>2021-11-13T14:49:48.998Z</time>
      </trkpt>
      <trkpt lat="44.36407" lon="5.26483">
        <ele>385</ele>
        <time>2021-11-13T14:49:49.999Z</time>
      </trkpt>
      <trkpt lat="44.36404" lon="5.26489">
        <ele>385</ele>
        <time>2021-11-13T14:49:50.999Z</time>
      </trkpt>
      <trkpt lat="44.36402" lon="5.26493">
        <ele>385</ele>
        <time>2021-11-13T14:49:51.998Z</time>
      </trkpt>
      <trkpt lat="44.364" lon="5.26498">
        <ele>385</ele>
        <time>2021-11-13T14:49:52.999Z</time>
      </trkpt>
      <trkpt lat="44.36398" lon="5.26503">
        <ele>385</ele>
        <time>2021-11-13T14:49:53.999Z</time>
      </trkpt>
      <trkpt lat="44.36396" lon="5.26508">
        <ele>385</ele>
        <time>2021-11-13T14:49:54.999Z</time>
      </trkpt>
      <trkpt lat="44.36395" lon="5.26513">
        <ele>385</ele>
        <time>2021-11-13T14:49:55.999Z</time>
      </trkpt>
      <trkpt lat="44.36394" lon="5.26519">
        <ele>385</ele>
        <time>2021-11-13T14:49:56.999Z</time>
      </trkpt>
      <trkpt lat="44.36392" lon="5.26524">
        <ele>385</ele>
        <time>2021-11-13T14:49:57.999Z</time>
      </trkpt>
      <trkpt lat="44.3639" lon="5.2653">
        <ele>385</ele>
        <time>2021-11-13T14:49:58.999Z</time>
      </trkpt>
      <trkpt lat="44.36388" lon="5.26537">
        <ele>385</ele>
        <time>2021-11-13T14:49:59.999Z</time>
      </trkpt>
      <trkpt lat="44.36386" lon="5.26541">
        <ele>385</ele>
        <time>2021-11-13T14:50:00.999Z</time>
      </trkpt>
      <trkpt lat="44.36384" lon="5.26546">
        <ele>385</ele>
        <time>2021-11-13T14:50:01.999Z</time>
      </trkpt>
      <trkpt lat="44.36382" lon="5.26551">
        <ele>385</ele>
        <time>2021-11-13T14:50:02.999Z</time>
      </trkpt>
      <trkpt lat="44.36379" lon="5.26556">
        <ele>385</ele>
        <time>2021-11-13T14:50:03.998Z</time>
      </trkpt>
      <trkpt lat="44.36377" lon="5.26562">
        <ele>385</ele>
        <time>2021-11-13T14:50:04.999Z</time>
      </trkpt>
      <trkpt lat="44.36374" lon="5.26566">
        <ele>385</ele>
        <time>2021-11-13T14:50:05.999Z</time>
      </trkpt>
      <trkpt lat="44.36371" lon="5.26571">
        <ele>385</ele>
        <time>2021-11-13T14:50:06.999Z</time>
      </trkpt>
      <trkpt lat="44.36369" lon="5.26575">
        <ele>385</ele>
        <time>2021-11-13T14:50:07.998Z</time>
      </trkpt>
      <trkpt lat="44.36366" lon="5.26581">
        <ele>385</ele>
        <time>2021-11-13T14:50:08.999Z</time>
      </trkpt>
      <trkpt lat="44.36364" lon="5.26584">
        <ele>386</ele>
        <time>2021-11-13T14:50:09.999Z</time>
      </trkpt>
      <trkpt lat="44.36361" lon="5.26589">
        <ele>387</ele>
        <time>2021-11-13T14:50:10.999Z</time>
      </trkpt>
      <trkpt lat="44.36358" lon="5.26593">
        <ele>387</ele>
        <time>2021-11-13T14:50:11.998Z</time>
      </trkpt>
      <trkpt lat="44.36354" lon="5.26598">
        <ele>387</ele>
        <time>2021-11-13T14:50:12.999Z</time>
      </trkpt>
      <trkpt lat="44.36352" lon="5.26602">
        <ele>387</ele>
        <time>2021-11-13T14:50:13.999Z</time>
      </trkpt>
      <trkpt lat="44.36349" lon="5.26606">
        <ele>388</ele>
        <time>2021-11-13T14:50:14.999Z</time>
      </trkpt>
      <trkpt lat="44.36346" lon="5.2661">
        <ele>388</ele>
        <time>2021-11-13T14:50:15.999Z</time>
      </trkpt>
      <trkpt lat="44.36343" lon="5.26615">
        <ele>388</ele>
        <time>2021-11-13T14:50:16.998Z</time>
      </trkpt>
      <trkpt lat="44.3634" lon="5.26619">
        <ele>389</ele>
        <time>2021-11-13T14:50:17.998Z</time>
      </trkpt>
      <trkpt lat="44.36337" lon="5.26624">
        <ele>389</ele>
        <time>2021-11-13T14:50:18.999Z</time>
      </trkpt>
      <trkpt lat="44.36335" lon="5.26628">
        <ele>389</ele>
        <time>2021-11-13T14:50:19.999Z</time>
      </trkpt>
      <trkpt lat="44.36332" lon="5.26632">
        <ele>389</ele>
        <time>2021-11-13T14:50:20.999Z</time>
      </trkpt>
      <trkpt lat="44.36329" lon="5.26637">
        <ele>390</ele>
        <time>2021-11-13T14:50:21.999Z</time>
      </trkpt>
      <trkpt lat="44.36326" lon="5.26641">
        <ele>390</ele>
        <time>2021-11-13T14:50:22.999Z</time>
      </trkpt>
      <trkpt lat="44.36323" lon="5.26645">
        <ele>389</ele>
        <time>2021-11-13T14:50:23.999Z</time>
      </trkpt>
      <trkpt lat="44.3632" lon="5.26649">
        <ele>389</ele>
        <time>2021-11-13T14:50:24.998Z</time>
      </trkpt>
      <trkpt lat="44.36317" lon="5.26653">
        <ele>389</ele>
        <time>2021-11-13T14:50:25.999Z</time>
      </trkpt>
      <trkpt lat="44.36314" lon="5.26657">
        <ele>388</ele>
        <time>2021-11-13T14:50:26.998Z</time>
      </trkpt>
      <trkpt lat="44.3631" lon="5.2666">
        <ele>388</ele>
        <time>2021-11-13T14:50:27.999Z</time>
      </trkpt>
      <trkpt lat="44.36307" lon="5.26663">
        <ele>388</ele>
        <time>2021-11-13T14:50:28.999Z</time>
      </trkpt>
      <trkpt lat="44.36304" lon="5.26667">
        <ele>388</ele>
        <time>2021-11-13T14:50:29.998Z</time>
      </trkpt>
      <trkpt lat="44.363" lon="5.26671">
        <ele>388</ele>
        <time>2021-11-13T14:50:30.999Z</time>
      </trkpt>
      <trkpt lat="44.36297" lon="5.26674">
        <ele>388</ele>
        <time>2021-11-13T14:50:31.998Z</time>
      </trkpt>
      <trkpt lat="44.36294" lon="5.26677">
        <ele>388</ele>
        <time>2021-11-13T14:50:32.999Z</time>
      </trkpt>
      <trkpt lat="44.3629" lon="5.26681">
        <ele>389</ele>
        <time>2021-11-13T14:50:33.998Z</time>
      </trkpt>
      <trkpt lat="44.36287" lon="5.26684">
        <ele>390</ele>
        <time>2021-11-13T14:50:34.999Z</time>
      </trkpt>
      <trkpt lat="44.36283" lon="5.26688">
        <ele>390</ele>
        <time>2021-11-13T14:50:35.999Z</time>
      </trkpt>
      <trkpt lat="44.3628" lon="5.26691">
        <ele>391</ele>
        <time>2021-11-13T14:50:36.999Z</time>
      </trkpt>
      <trkpt lat="44.36276" lon="5.26695">
        <ele>391</ele>
        <time>2021-11-13T14:50:37.999Z</time>
      </trkpt>
      <trkpt lat="44.36274" lon="5.26697">
        <ele>391</ele>
        <time>2021-11-13T14:50:38.999Z</time>
      </trkpt>
      <trkpt lat="44.3627" lon="5.26701">
        <ele>392</ele>
        <time>2021-11-13T14:50:39.999Z</time>
      </trkpt>
      <trkpt lat="44.36267" lon="5.26704">
        <ele>392</ele>
        <time>2021-11-13T14:50:40.999Z</time>
      </trkpt>
      <trkpt lat="44.36263" lon="5.26708">
        <ele>393</ele>
        <time>2021-11-13T14:50:41.999Z</time>
      </trkpt>
      <trkpt lat="44.36259" lon="5.26712">
        <ele>393</ele>
        <time>2021-11-13T14:50:42.998Z</time>
      </trkpt>
      <trkpt lat="44.36257" lon="5.26715">
        <ele>394</ele>
        <time>2021-11-13T14:50:43.998Z</time>
      </trkpt>
      <trkpt lat="44.36254" lon="5.26718">
        <ele>394</ele>
        <time>2021-11-13T14:50:44.998Z</time>
      </trkpt>
      <trkpt lat="44.36251" lon="5.26721">
        <ele>394</ele>
        <time>2021-11-13T14:50:45.999Z</time>
      </trkpt>
      <trkpt lat="44.36247" lon="5.26725">
        <ele>394</ele>
        <time>2021-11-13T14:50:46.998Z</time>
      </trkpt>
      <trkpt lat="44.36243" lon="5.26729">
        <ele>394</ele>
        <time>2021-11-13T14:50:47.999Z</time>
      </trkpt>
      <trkpt lat="44.3624" lon="5.26732">
        <ele>394</ele>
        <time>2021-11-13T14:50:48.999Z</time>
      </trkpt>
      <trkpt lat="44.36236" lon="5.26736">
        <ele>394</ele>
        <time>2021-11-13T14:50:49.999Z</time>
      </trkpt>
      <trkpt lat="44.36233" lon="5.26739">
        <ele>394</ele>
        <time>2021-11-13T14:50:50.999Z</time>
      </trkpt>
      <trkpt lat="44.36229" lon="5.26742">
        <ele>394</ele>
        <time>2021-11-13T14:50:51.999Z</time>
      </trkpt>
      <trkpt lat="44.36226" lon="5.26745">
        <ele>394</ele>
        <time>2021-11-13T14:50:52.998Z</time>
      </trkpt>
      <trkpt lat="44.36223" lon="5.26748">
        <ele>394</ele>
        <time>2021-11-13T14:50:53.998Z</time>
      </trkpt>
      <trkpt lat="44.36218" lon="5.26752">
        <ele>394</ele>
        <time>2021-11-13T14:50:54.998Z</time>
      </trkpt>
      <trkpt lat="44.36215" lon="5.26755">
        <ele>394</ele>
        <time>2021-11-13T14:50:55.998Z</time>
      </trkpt>
      <trkpt lat="44.36211" lon="5.26758">
        <ele>394</ele>
        <time>2021-11-13T14:50:56.999Z</time>
      </trkpt>
      <trkpt lat="44.36208" lon="5.26761">
        <ele>393</ele>
        <time>2021-11-13T14:50:57.999Z</time>
      </trkpt>
      <trkpt lat="44.36205" lon="5.26763">
        <ele>393</ele>
        <time>2021-11-13T14:50:58.998Z</time>
      </trkpt>
      <trkpt lat="44.362" lon="5.26767">
        <ele>393</ele>
        <time>2021-11-13T14:50:59.999Z</time>
      </trkpt>
      <trkpt lat="44.36197" lon="5.2677">
        <ele>393</ele>
        <time>2021-11-13T14:51:00.999Z</time>
      </trkpt>
      <trkpt lat="44.36193" lon="5.26773">
        <ele>393</ele>
        <time>2021-11-13T14:51:01.998Z</time>
      </trkpt>
      <trkpt lat="44.3619" lon="5.26775">
        <ele>394</ele>
        <time>2021-11-13T14:51:02.999Z</time>
      </trkpt>
      <trkpt lat="44.36185" lon="5.26778">
        <ele>394</ele>
        <time>2021-11-13T14:51:03.999Z</time>
      </trkpt>
      <trkpt lat="44.36182" lon="5.26781">
        <ele>394</ele>
        <time>2021-11-13T14:51:04.998Z</time>
      </trkpt>
      <trkpt lat="44.36179" lon="5.26783">
        <ele>394</ele>
        <time>2021-11-13T14:51:05.999Z</time>
      </trkpt>
      <trkpt lat="44.36175" lon="5.26786">
        <ele>394</ele>
        <time>2021-11-13T14:51:06.999Z</time>
      </trkpt>
      <trkpt lat="44.36171" lon="5.26788">
        <ele>395</ele>
        <time>2021-11-13T14:51:07.999Z</time>
      </trkpt>
      <trkpt lat="44.36167" lon="5.26791">
        <ele>394</ele>
        <time>2021-11-13T14:51:08.999Z</time>
      </trkpt>
      <trkpt lat="44.36163" lon="5.26794">
        <ele>394</ele>
        <time>2021-11-13T14:51:09.998Z</time>
      </trkpt>
      <trkpt lat="44.36159" lon="5.26797">
        <ele>394</ele>
        <time>2021-11-13T14:51:10.999Z</time>
      </trkpt>
      <trkpt lat="44.36156" lon="5.26799">
        <ele>394</ele>
        <time>2021-11-13T14:51:11.998Z</time>
      </trkpt>
      <trkpt lat="44.36152" lon="5.26802">
        <ele>394</ele>
        <time>2021-11-13T14:51:12.999Z</time>
      </trkpt>
      <trkpt lat="44.36147" lon="5.26805">
        <ele>394</ele>
        <time>2021-11-13T14:51:13.999Z</time>
      </trkpt>
      <trkpt lat="44.36144" lon="5.26806">
        <ele>393</ele>
        <time>2021-11-13T14:51:14.999Z</time>
      </trkpt>
      <trkpt lat="44.3614" lon="5.26808">
        <ele>392</ele>
        <time>2021-11-13T14:51:15.999Z</time>
      </trkpt>
      <trkpt lat="44.36136" lon="5.26809">
        <ele>392</ele>
        <time>2021-11-13T14:51:16.998Z</time>
      </trkpt>
      <trkpt lat="44.36131" lon="5.26812">
        <ele>392</ele>
        <time>2021-11-13T14:51:17.998Z</time>
      </trkpt>
      <trkpt lat="44.36128" lon="5.26813">
        <ele>392</ele>
        <time>2021-11-13T14:51:18.999Z</time>
      </trkpt>
      <trkpt lat="44.36123" lon="5.26814">
        <ele>392</ele>
        <time>2021-11-13T14:51:19.999Z</time>
      </trkpt>
      <trkpt lat="44.36119" lon="5.26815">
        <ele>392</ele>
        <time>2021-11-13T14:51:20.999Z</time>
      </trkpt>
      <trkpt lat="44.36115" lon="5.26816">
        <ele>392</ele>
        <time>2021-11-13T14:51:21.999Z</time>
      </trkpt>
      <trkpt lat="44.36111" lon="5.26817">
        <ele>392</ele>
        <time>2021-11-13T14:51:22.998Z</time>
      </trkpt>
      <trkpt lat="44.36107" lon="5.26819">
        <ele>391</ele>
        <time>2021-11-13T14:51:23.999Z</time>
      </trkpt>
      <trkpt lat="44.36104" lon="5.26819">
        <ele>391</ele>
        <time>2021-11-13T14:51:24.999Z</time>
      </trkpt>
      <trkpt lat="44.361" lon="5.2682">
        <ele>391</ele>
        <time>2021-11-13T14:51:25.999Z</time>
      </trkpt>
      <trkpt lat="44.36096" lon="5.26821">
        <ele>390</ele>
        <time>2021-11-13T14:51:26.999Z</time>
      </trkpt>
      <trkpt lat="44.36092" lon="5.26822">
        <ele>390</ele>
        <time>2021-11-13T14:51:27.999Z</time>
      </trkpt>
      <trkpt lat="44.36088" lon="5.26823">
        <ele>390</ele>
        <time>2021-11-13T14:51:28.999Z</time>
      </trkpt>
      <trkpt lat="44.36084" lon="5.26823">
        <ele>390</ele>
        <time>2021-11-13T14:51:29.998Z</time>
      </trkpt>
      <trkpt lat="44.3608" lon="5.26824">
        <ele>390</ele>
        <time>2021-11-13T14:51:30.999Z</time>
      </trkpt>
      <trkpt lat="44.36076" lon="5.26824">
        <ele>390</ele>
        <time>2021-11-13T14:51:31.998Z</time>
      </trkpt>
      <trkpt lat="44.36072" lon="5.26825">
        <ele>390</ele>
        <time>2021-11-13T14:51:32.999Z</time>
      </trkpt>
      <trkpt lat="44.36067" lon="5.26825">
        <ele>390</ele>
        <time>2021-11-13T14:51:33.999Z</time>
      </trkpt>
      <trkpt lat="44.36063" lon="5.26826">
        <ele>390</ele>
        <time>2021-11-13T14:51:34.999Z</time>
      </trkpt>
      <trkpt lat="44.36059" lon="5.26826">
        <ele>390</ele>
        <time>2021-11-13T14:51:35.999Z</time>
      </trkpt>
      <trkpt lat="44.36055" lon="5.26827">
        <ele>390</ele>
        <time>2021-11-13T14:51:36.999Z</time>
      </trkpt>
      <trkpt lat="44.36051" lon="5.26827">
        <ele>390</ele>
        <time>2021-11-13T14:51:37.998Z</time>
      </trkpt>
      <trkpt lat="44.36047" lon="5.26827">
        <ele>390</ele>
        <time>2021-11-13T14:51:38.999Z</time>
      </trkpt>
      <trkpt lat="44.36043" lon="5.26828">
        <ele>389</ele>
        <time>2021-11-13T14:51:39.999Z</time>
      </trkpt>
      <trkpt lat="44.36039" lon="5.26827">
        <ele>389</ele>
        <time>2021-11-13T14:51:40.999Z</time>
      </trkpt>
      <trkpt lat="44.36035" lon="5.26828">
        <ele>389</ele>
        <time>2021-11-13T14:51:41.999Z</time>
      </trkpt>
      <trkpt lat="44.3603" lon="5.26828">
        <ele>389</ele>
        <time>2021-11-13T14:51:42.998Z</time>
      </trkpt>
      <trkpt lat="44.36027" lon="5.26827">
        <ele>389</ele>
        <time>2021-11-13T14:51:43.999Z</time>
      </trkpt>
      <trkpt lat="44.36023" lon="5.26828">
        <ele>389</ele>
        <time>2021-11-13T14:51:44.999Z</time>
      </trkpt>
      <trkpt lat="44.36018" lon="5.26828">
        <ele>390</ele>
        <time>2021-11-13T14:51:45.998Z</time>
      </trkpt>
      <trkpt lat="44.36014" lon="5.26828">
        <ele>390</ele>
        <time>2021-11-13T14:51:46.998Z</time>
      </trkpt>
      <trkpt lat="44.3601" lon="5.26828">
        <ele>390</ele>
        <time>2021-11-13T14:51:47.999Z</time>
      </trkpt>
      <trkpt lat="44.36005" lon="5.26829">
        <ele>391</ele>
        <time>2021-11-13T14:51:48.999Z</time>
      </trkpt>
      <trkpt lat="44.36" lon="5.26829">
        <ele>391</ele>
        <time>2021-11-13T14:51:49.999Z</time>
      </trkpt>
      <trkpt lat="44.35996" lon="5.26829">
        <ele>392</ele>
        <time>2021-11-13T14:51:50.999Z</time>
      </trkpt>
      <trkpt lat="44.35991" lon="5.2683">
        <ele>392</ele>
        <time>2021-11-13T14:51:51.998Z</time>
      </trkpt>
      <trkpt lat="44.35986" lon="5.26829">
        <ele>391</ele>
        <time>2021-11-13T14:51:52.999Z</time>
      </trkpt>
      <trkpt lat="44.35982" lon="5.2683">
        <ele>391</ele>
        <time>2021-11-13T14:51:53.999Z</time>
      </trkpt>
      <trkpt lat="44.35978" lon="5.2683">
        <ele>391</ele>
        <time>2021-11-13T14:51:54.999Z</time>
      </trkpt>
      <trkpt lat="44.35974" lon="5.2683">
        <ele>391</ele>
        <time>2021-11-13T14:51:55.999Z</time>
      </trkpt>
      <trkpt lat="44.35968" lon="5.2683">
        <ele>392</ele>
        <time>2021-11-13T14:51:56.999Z</time>
      </trkpt>
      <trkpt lat="44.35963" lon="5.2683">
        <ele>392</ele>
        <time>2021-11-13T14:51:57.999Z</time>
      </trkpt>
      <trkpt lat="44.35959" lon="5.26829">
        <ele>392</ele>
        <time>2021-11-13T14:51:58.999Z</time>
      </trkpt>
      <trkpt lat="44.35955" lon="5.26829">
        <ele>393</ele>
        <time>2021-11-13T14:51:59.999Z</time>
      </trkpt>
      <trkpt lat="44.3595" lon="5.26829">
        <ele>393</ele>
        <time>2021-11-13T14:52:00.999Z</time>
      </trkpt>
      <trkpt lat="44.35945" lon="5.26828">
        <ele>393</ele>
        <time>2021-11-13T14:52:01.999Z</time>
      </trkpt>
      <trkpt lat="44.35939" lon="5.26828">
        <ele>392</ele>
        <time>2021-11-13T14:52:02.999Z</time>
      </trkpt>
      <trkpt lat="44.35935" lon="5.26828">
        <ele>392</ele>
        <time>2021-11-13T14:52:03.998Z</time>
      </trkpt>
      <trkpt lat="44.3593" lon="5.26827">
        <ele>392</ele>
        <time>2021-11-13T14:52:04.999Z</time>
      </trkpt>
      <trkpt lat="44.35924" lon="5.26826">
        <ele>392</ele>
        <time>2021-11-13T14:52:05.999Z</time>
      </trkpt>
      <trkpt lat="44.35919" lon="5.26826">
        <ele>392</ele>
        <time>2021-11-13T14:52:06.999Z</time>
      </trkpt>
      <trkpt lat="44.35914" lon="5.26825">
        <ele>391</ele>
        <time>2021-11-13T14:52:07.999Z</time>
      </trkpt>
      <trkpt lat="44.3591" lon="5.26824">
        <ele>391</ele>
        <time>2021-11-13T14:52:08.999Z</time>
      </trkpt>
      <trkpt lat="44.35904" lon="5.26824">
        <ele>391</ele>
        <time>2021-11-13T14:52:09.999Z</time>
      </trkpt>
      <trkpt lat="44.35899" lon="5.26823">
        <ele>392</ele>
        <time>2021-11-13T14:52:10.999Z</time>
      </trkpt>
      <trkpt lat="44.35893" lon="5.26823">
        <ele>392</ele>
        <time>2021-11-13T14:52:11.998Z</time>
      </trkpt>
      <trkpt lat="44.35889" lon="5.26822">
        <ele>392</ele>
        <time>2021-11-13T14:52:12.998Z</time>
      </trkpt>
      <trkpt lat="44.35884" lon="5.26822">
        <ele>392</ele>
        <time>2021-11-13T14:52:13.998Z</time>
      </trkpt>
      <trkpt lat="44.35878" lon="5.26822">
        <ele>393</ele>
        <time>2021-11-13T14:52:14.998Z</time>
      </trkpt>
      <trkpt lat="44.35872" lon="5.26822">
        <ele>393</ele>
        <time>2021-11-13T14:52:15.999Z</time>
      </trkpt>
      <trkpt lat="44.35867" lon="5.26823">
        <ele>393</ele>
        <time>2021-11-13T14:52:16.999Z</time>
      </trkpt>
      <trkpt lat="44.35862" lon="5.26824">
        <ele>393</ele>
        <time>2021-11-13T14:52:17.998Z</time>
      </trkpt>
      <trkpt lat="44.35858" lon="5.26826">
        <ele>393</ele>
        <time>2021-11-13T14:52:18.999Z</time>
      </trkpt>
      <trkpt lat="44.35852" lon="5.26829">
        <ele>394</ele>
        <time>2021-11-13T14:52:19.999Z</time>
      </trkpt>
      <trkpt lat="44.35847" lon="5.26832">
        <ele>393</ele>
        <time>2021-11-13T14:52:20.999Z</time>
      </trkpt>
      <trkpt lat="44.35843" lon="5.26835">
        <ele>393</ele>
        <time>2021-11-13T14:52:21.999Z</time>
      </trkpt>
      <trkpt lat="44.35838" lon="5.26839">
        <ele>392</ele>
        <time>2021-11-13T14:52:22.999Z</time>
      </trkpt>
      <trkpt lat="44.35835" lon="5.26843">
        <ele>392</ele>
        <time>2021-11-13T14:52:23.999Z</time>
      </trkpt>
      <trkpt lat="44.3583" lon="5.26849">
        <ele>392</ele>
        <time>2021-11-13T14:52:24.998Z</time>
      </trkpt>
      <trkpt lat="44.35827" lon="5.26854">
        <ele>391</ele>
        <time>2021-11-13T14:52:25.999Z</time>
      </trkpt>
      <trkpt lat="44.35823" lon="5.26861">
        <ele>391</ele>
        <time>2021-11-13T14:52:26.999Z</time>
      </trkpt>
      <trkpt lat="44.35819" lon="5.26868">
        <ele>391</ele>
        <time>2021-11-13T14:52:27.999Z</time>
      </trkpt>
      <trkpt lat="44.35816" lon="5.26875">
        <ele>391</ele>
        <time>2021-11-13T14:52:28.999Z</time>
      </trkpt>
      <trkpt lat="44.35813" lon="5.26883">
        <ele>391</ele>
        <time>2021-11-13T14:52:29.999Z</time>
      </trkpt>
      <trkpt lat="44.35809" lon="5.26892">
        <ele>391</ele>
        <time>2021-11-13T14:52:30.998Z</time>
      </trkpt>
      <trkpt lat="44.35806" lon="5.269">
        <ele>391</ele>
        <time>2021-11-13T14:52:31.998Z</time>
      </trkpt>
      <trkpt lat="44.35802" lon="5.26908">
        <ele>391</ele>
        <time>2021-11-13T14:52:32.998Z</time>
      </trkpt>
      <trkpt lat="44.35799" lon="5.26916">
        <ele>391</ele>
        <time>2021-11-13T14:52:33.998Z</time>
      </trkpt>
      <trkpt lat="44.35795" lon="5.26924">
        <ele>391</ele>
        <time>2021-11-13T14:52:34.999Z</time>
      </trkpt>
      <trkpt lat="44.35791" lon="5.26934">
        <ele>392</ele>
        <time>2021-11-13T14:52:35.999Z</time>
      </trkpt>
      <trkpt lat="44.35788" lon="5.2694">
        <ele>392</ele>
        <time>2021-11-13T14:52:36.999Z</time>
      </trkpt>
      <trkpt lat="44.35785" lon="5.26947">
        <ele>392</ele>
        <time>2021-11-13T14:52:37.998Z</time>
      </trkpt>
      <trkpt lat="44.35782" lon="5.26955">
        <ele>392</ele>
        <time>2021-11-13T14:52:38.999Z</time>
      </trkpt>
      <trkpt lat="44.35778" lon="5.26964">
        <ele>392</ele>
        <time>2021-11-13T14:52:39.999Z</time>
      </trkpt>
      <trkpt lat="44.35775" lon="5.26971">
        <ele>392</ele>
        <time>2021-11-13T14:52:40.999Z</time>
      </trkpt>
      <trkpt lat="44.35772" lon="5.26978">
        <ele>392</ele>
        <time>2021-11-13T14:52:41.998Z</time>
      </trkpt>
      <trkpt lat="44.35769" lon="5.26983">
        <ele>392</ele>
        <time>2021-11-13T14:52:42.999Z</time>
      </trkpt>
      <trkpt lat="44.35766" lon="5.2699">
        <ele>392</ele>
        <time>2021-11-13T14:52:43.999Z</time>
      </trkpt>
      <trkpt lat="44.35764" lon="5.26997">
        <ele>392</ele>
        <time>2021-11-13T14:52:44.999Z</time>
      </trkpt>
      <trkpt lat="44.35761" lon="5.27004">
        <ele>392</ele>
        <time>2021-11-13T14:52:45.999Z</time>
      </trkpt>
      <trkpt lat="44.35758" lon="5.27011">
        <ele>392</ele>
        <time>2021-11-13T14:52:46.999Z</time>
      </trkpt>
      <trkpt lat="44.35755" lon="5.27018">
        <ele>392</ele>
        <time>2021-11-13T14:52:47.999Z</time>
      </trkpt>
      <trkpt lat="44.35751" lon="5.27025">
        <ele>392</ele>
        <time>2021-11-13T14:52:48.999Z</time>
      </trkpt>
      <trkpt lat="44.35747" lon="5.27034">
        <ele>392</ele>
        <time>2021-11-13T14:52:49.999Z</time>
      </trkpt>
      <trkpt lat="44.35744" lon="5.2704">
        <ele>392</ele>
        <time>2021-11-13T14:52:50.999Z</time>
      </trkpt>
      <trkpt lat="44.35741" lon="5.27046">
        <ele>392</ele>
        <time>2021-11-13T14:52:51.999Z</time>
      </trkpt>
      <trkpt lat="44.35738" lon="5.27053">
        <ele>392</ele>
        <time>2021-11-13T14:52:52.999Z</time>
      </trkpt>
      <trkpt lat="44.35733" lon="5.2706">
        <ele>392</ele>
        <time>2021-11-13T14:52:53.999Z</time>
      </trkpt>
      <trkpt lat="44.3573" lon="5.27066">
        <ele>392</ele>
        <time>2021-11-13T14:52:54.999Z</time>
      </trkpt>
      <trkpt lat="44.35726" lon="5.27072">
        <ele>393</ele>
        <time>2021-11-13T14:52:55.999Z</time>
      </trkpt>
      <trkpt lat="44.35722" lon="5.27078">
        <ele>393</ele>
        <time>2021-11-13T14:52:56.998Z</time>
      </trkpt>
      <trkpt lat="44.35719" lon="5.27085">
        <ele>394</ele>
        <time>2021-11-13T14:52:57.999Z</time>
      </trkpt>
      <trkpt lat="44.35714" lon="5.27092">
        <ele>394</ele>
        <time>2021-11-13T14:52:58.998Z</time>
      </trkpt>
      <trkpt lat="44.3571" lon="5.27098">
        <ele>394</ele>
        <time>2021-11-13T14:52:59.998Z</time>
      </trkpt>
      <trkpt lat="44.35706" lon="5.27105">
        <ele>393</ele>
        <time>2021-11-13T14:53:00.999Z</time>
      </trkpt>
      <trkpt lat="44.35704" lon="5.27109">
        <ele>393</ele>
        <time>2021-11-13T14:53:01.999Z</time>
      </trkpt>
      <trkpt lat="44.357" lon="5.27116">
        <ele>393</ele>
        <time>2021-11-13T14:53:02.999Z</time>
      </trkpt>
      <trkpt lat="44.35696" lon="5.27123">
        <ele>393</ele>
        <time>2021-11-13T14:53:03.998Z</time>
      </trkpt>
      <trkpt lat="44.35692" lon="5.2713">
        <ele>393</ele>
        <time>2021-11-13T14:53:04.999Z</time>
      </trkpt>
      <trkpt lat="44.35689" lon="5.27135">
        <ele>393</ele>
        <time>2021-11-13T14:53:05.999Z</time>
      </trkpt>
      <trkpt lat="44.35686" lon="5.27141">
        <ele>393</ele>
        <time>2021-11-13T14:53:06.999Z</time>
      </trkpt>
      <trkpt lat="44.35683" lon="5.27148">
        <ele>393</ele>
        <time>2021-11-13T14:53:07.999Z</time>
      </trkpt>
      <trkpt lat="44.3568" lon="5.27154">
        <ele>393</ele>
        <time>2021-11-13T14:53:08.999Z</time>
      </trkpt>
      <trkpt lat="44.35677" lon="5.27161">
        <ele>393</ele>
        <time>2021-11-13T14:53:09.998Z</time>
      </trkpt>
      <trkpt lat="44.35674" lon="5.27167">
        <ele>393</ele>
        <time>2021-11-13T14:53:10.999Z</time>
      </trkpt>
      <trkpt lat="44.35672" lon="5.27174">
        <ele>393</ele>
        <time>2021-11-13T14:53:11.998Z</time>
      </trkpt>
      <trkpt lat="44.3567" lon="5.27181">
        <ele>393</ele>
        <time>2021-11-13T14:53:12.999Z</time>
      </trkpt>
      <trkpt lat="44.35667" lon="5.27188">
        <ele>392</ele>
        <time>2021-11-13T14:53:13.998Z</time>
      </trkpt>
      <trkpt lat="44.35665" lon="5.27195">
        <ele>392</ele>
        <time>2021-11-13T14:53:14.999Z</time>
      </trkpt>
      <trkpt lat="44.35663" lon="5.27203">
        <ele>392</ele>
        <time>2021-11-13T14:53:15.999Z</time>
      </trkpt>
      <trkpt lat="44.35661" lon="5.2721">
        <ele>391</ele>
        <time>2021-11-13T14:53:16.999Z</time>
      </trkpt>
      <trkpt lat="44.35659" lon="5.27218">
        <ele>391</ele>
        <time>2021-11-13T14:53:17.999Z</time>
      </trkpt>
      <trkpt lat="44.35657" lon="5.27226">
        <ele>390</ele>
        <time>2021-11-13T14:53:18.999Z</time>
      </trkpt>
      <trkpt lat="44.35655" lon="5.27234">
        <ele>390</ele>
        <time>2021-11-13T14:53:19.999Z</time>
      </trkpt>
      <trkpt lat="44.35652" lon="5.27242">
        <ele>390</ele>
        <time>2021-11-13T14:53:20.998Z</time>
      </trkpt>
      <trkpt lat="44.35649" lon="5.2725">
        <ele>390</ele>
        <time>2021-11-13T14:53:21.999Z</time>
      </trkpt>
      <trkpt lat="44.35646" lon="5.27257">
        <ele>390</ele>
        <time>2021-11-13T14:53:22.999Z</time>
      </trkpt>
      <trkpt lat="44.35642" lon="5.27264">
        <ele>390</ele>
        <time>2021-11-13T14:53:23.998Z</time>
      </trkpt>
      <trkpt lat="44.35638" lon="5.27271">
        <ele>390</ele>
        <time>2021-11-13T14:53:24.999Z</time>
      </trkpt>
      <trkpt lat="44.35634" lon="5.27277">
        <ele>390</ele>
        <time>2021-11-13T14:53:25.999Z</time>
      </trkpt>
      <trkpt lat="44.3563" lon="5.27283">
        <ele>390</ele>
        <time>2021-11-13T14:53:26.998Z</time>
      </trkpt>
      <trkpt lat="44.35625" lon="5.2729">
        <ele>390</ele>
        <time>2021-11-13T14:53:27.998Z</time>
      </trkpt>
      <trkpt lat="44.3562" lon="5.27295">
        <ele>390</ele>
        <time>2021-11-13T14:53:28.999Z</time>
      </trkpt>
      <trkpt lat="44.35616" lon="5.27302">
        <ele>391</ele>
        <time>2021-11-13T14:53:29.999Z</time>
      </trkpt>
      <trkpt lat="44.35611" lon="5.27307">
        <ele>390</ele>
        <time>2021-11-13T14:53:30.999Z</time>
      </trkpt>
      <trkpt lat="44.35605" lon="5.27314">
        <ele>390</ele>
        <time>2021-11-13T14:53:31.999Z</time>
      </trkpt>
      <trkpt lat="44.35602" lon="5.27319">
        <ele>390</ele>
        <time>2021-11-13T14:53:32.999Z</time>
      </trkpt>
      <trkpt lat="44.35597" lon="5.27325">
        <ele>390</ele>
        <time>2021-11-13T14:53:33.999Z</time>
      </trkpt>
      <trkpt lat="44.35593" lon="5.27331">
        <ele>390</ele>
        <time>2021-11-13T14:53:34.999Z</time>
      </trkpt>
      <trkpt lat="44.35588" lon="5.27337">
        <ele>391</ele>
        <time>2021-11-13T14:53:35.999Z</time>
      </trkpt>
      <trkpt lat="44.35583" lon="5.27344">
        <ele>391</ele>
        <time>2021-11-13T14:53:36.999Z</time>
      </trkpt>
      <trkpt lat="44.35578" lon="5.2735">
        <ele>391</ele>
        <time>2021-11-13T14:53:37.998Z</time>
      </trkpt>
      <trkpt lat="44.35574" lon="5.27356">
        <ele>392</ele>
        <time>2021-11-13T14:53:38.999Z</time>
      </trkpt>
      <trkpt lat="44.3557" lon="5.27362">
        <ele>392</ele>
        <time>2021-11-13T14:53:39.999Z</time>
      </trkpt>
      <trkpt lat="44.35566" lon="5.27367">
        <ele>393</ele>
        <time>2021-11-13T14:53:40.998Z</time>
      </trkpt>
      <trkpt lat="44.35561" lon="5.27373">
        <ele>393</ele>
        <time>2021-11-13T14:53:41.999Z</time>
      </trkpt>
      <trkpt lat="44.35557" lon="5.27379">
        <ele>393</ele>
        <time>2021-11-13T14:53:42.999Z</time>
      </trkpt>
      <trkpt lat="44.35553" lon="5.27385">
        <ele>393</ele>
        <time>2021-11-13T14:53:43.999Z</time>
      </trkpt>
      <trkpt lat="44.35548" lon="5.27391">
        <ele>393</ele>
        <time>2021-11-13T14:53:44.998Z</time>
      </trkpt>
      <trkpt lat="44.35544" lon="5.27397">
        <ele>393</ele>
        <time>2021-11-13T14:53:45.999Z</time>
      </trkpt>
      <trkpt lat="44.35538" lon="5.27405">
        <ele>393</ele>
        <time>2021-11-13T14:53:46.999Z</time>
      </trkpt>
      <trkpt lat="44.35535" lon="5.27409">
        <ele>393</ele>
        <time>2021-11-13T14:53:47.999Z</time>
      </trkpt>
      <trkpt lat="44.35531" lon="5.27415">
        <ele>393</ele>
        <time>2021-11-13T14:53:48.999Z</time>
      </trkpt>
      <trkpt lat="44.35526" lon="5.27421">
        <ele>393</ele>
        <time>2021-11-13T14:53:49.998Z</time>
      </trkpt>
      <trkpt lat="44.35522" lon="5.27427">
        <ele>393</ele>
        <time>2021-11-13T14:53:50.998Z</time>
      </trkpt>
      <trkpt lat="44.35517" lon="5.27433">
        <ele>393</ele>
        <time>2021-11-13T14:53:51.998Z</time>
      </trkpt>
      <trkpt lat="44.35512" lon="5.27439">
        <ele>394</ele>
        <time>2021-11-13T14:53:52.999Z</time>
      </trkpt>
      <trkpt lat="44.35508" lon="5.27445">
        <ele>394</ele>
        <time>2021-11-13T14:53:53.999Z</time>
      </trkpt>
      <trkpt lat="44.35504" lon="5.2745">
        <ele>394</ele>
        <time>2021-11-13T14:53:54.998Z</time>
      </trkpt>
      <trkpt lat="44.35499" lon="5.27457">
        <ele>395</ele>
        <time>2021-11-13T14:53:55.999Z</time>
      </trkpt>
      <trkpt lat="44.35494" lon="5.27464">
        <ele>395</ele>
        <time>2021-11-13T14:53:56.999Z</time>
      </trkpt>
      <trkpt lat="44.35489" lon="5.2747">
        <ele>395</ele>
        <time>2021-11-13T14:53:57.999Z</time>
      </trkpt>
      <trkpt lat="44.35484" lon="5.27476">
        <ele>395</ele>
        <time>2021-11-13T14:53:58.999Z</time>
      </trkpt>
      <trkpt lat="44.35479" lon="5.27482">
        <ele>395</ele>
        <time>2021-11-13T14:53:59.999Z</time>
      </trkpt>
      <trkpt lat="44.35474" lon="5.27489">
        <ele>394</ele>
        <time>2021-11-13T14:54:00.999Z</time>
      </trkpt>
      <trkpt lat="44.35469" lon="5.27496">
        <ele>394</ele>
        <time>2021-11-13T14:54:01.998Z</time>
      </trkpt>
      <trkpt lat="44.35465" lon="5.27502">
        <ele>394</ele>
        <time>2021-11-13T14:54:02.998Z</time>
      </trkpt>
      <trkpt lat="44.3546" lon="5.27509">
        <ele>394</ele>
        <time>2021-11-13T14:54:03.998Z</time>
      </trkpt>
      <trkpt lat="44.35456" lon="5.27515">
        <ele>394</ele>
        <time>2021-11-13T14:54:04.999Z</time>
      </trkpt>
      <trkpt lat="44.35449" lon="5.27523">
        <ele>394</ele>
        <time>2021-11-13T14:54:05.998Z</time>
      </trkpt>
      <trkpt lat="44.35444" lon="5.27529">
        <ele>394</ele>
        <time>2021-11-13T14:54:06.999Z</time>
      </trkpt>
      <trkpt lat="44.35439" lon="5.27536">
        <ele>394</ele>
        <time>2021-11-13T14:54:07.999Z</time>
      </trkpt>
      <trkpt lat="44.35434" lon="5.27541">
        <ele>393</ele>
        <time>2021-11-13T14:54:08.998Z</time>
      </trkpt>
      <trkpt lat="44.35428" lon="5.27549">
        <ele>393</ele>
        <time>2021-11-13T14:54:09.999Z</time>
      </trkpt>
      <trkpt lat="44.35422" lon="5.27555">
        <ele>393</ele>
        <time>2021-11-13T14:54:10.999Z</time>
      </trkpt>
      <trkpt lat="44.35416" lon="5.27562">
        <ele>394</ele>
        <time>2021-11-13T14:54:11.999Z</time>
      </trkpt>
      <trkpt lat="44.35411" lon="5.27567">
        <ele>394</ele>
        <time>2021-11-13T14:54:12.999Z</time>
      </trkpt>
      <trkpt lat="44.35405" lon="5.27573">
        <ele>395</ele>
        <time>2021-11-13T14:54:13.999Z</time>
      </trkpt>
      <trkpt lat="44.35397" lon="5.2758">
        <ele>395</ele>
        <time>2021-11-13T14:54:14.999Z</time>
      </trkpt>
      <trkpt lat="44.35391" lon="5.27585">
        <ele>395</ele>
        <time>2021-11-13T14:54:15.999Z</time>
      </trkpt>
      <trkpt lat="44.35385" lon="5.27591">
        <ele>396</ele>
        <time>2021-11-13T14:54:16.999Z</time>
      </trkpt>
      <trkpt lat="44.35379" lon="5.27596">
        <ele>395</ele>
        <time>2021-11-13T14:54:17.999Z</time>
      </trkpt>
      <trkpt lat="44.35373" lon="5.27602">
        <ele>395</ele>
        <time>2021-11-13T14:54:18.999Z</time>
      </trkpt>
      <trkpt lat="44.35368" lon="5.27607">
        <ele>395</ele>
        <time>2021-11-13T14:54:19.999Z</time>
      </trkpt>
      <trkpt lat="44.35363" lon="5.27612">
        <ele>396</ele>
        <time>2021-11-13T14:54:20.998Z</time>
      </trkpt>
      <trkpt lat="44.35358" lon="5.27616">
        <ele>396</ele>
        <time>2021-11-13T14:54:21.999Z</time>
      </trkpt>
      <trkpt lat="44.35353" lon="5.27621">
        <ele>396</ele>
        <time>2021-11-13T14:54:22.999Z</time>
      </trkpt>
      <trkpt lat="44.35347" lon="5.27627">
        <ele>396</ele>
        <time>2021-11-13T14:54:23.998Z</time>
      </trkpt>
      <trkpt lat="44.35341" lon="5.27632">
        <ele>397</ele>
        <time>2021-11-13T14:54:24.999Z</time>
      </trkpt>
      <trkpt lat="44.35335" lon="5.27637">
        <ele>397</ele>
        <time>2021-11-13T14:54:25.998Z</time>
      </trkpt>
      <trkpt lat="44.3533" lon="5.27642">
        <ele>397</ele>
        <time>2021-11-13T14:54:26.999Z</time>
      </trkpt>
      <trkpt lat="44.35325" lon="5.27646">
        <ele>397</ele>
        <time>2021-11-13T14:54:27.999Z</time>
      </trkpt>
      <trkpt lat="44.35318" lon="5.27652">
        <ele>398</ele>
        <time>2021-11-13T14:54:28.999Z</time>
      </trkpt>
      <trkpt lat="44.35313" lon="5.27658">
        <ele>398</ele>
        <time>2021-11-13T14:54:29.999Z</time>
      </trkpt>
      <trkpt lat="44.35307" lon="5.27663">
        <ele>399</ele>
        <time>2021-11-13T14:54:30.999Z</time>
      </trkpt>
      <trkpt lat="44.35302" lon="5.27667">
        <ele>400</ele>
        <time>2021-11-13T14:54:31.999Z</time>
      </trkpt>
      <trkpt lat="44.35297" lon="5.27672">
        <ele>400</ele>
        <time>2021-11-13T14:54:32.999Z</time>
      </trkpt>
      <trkpt lat="44.35291" lon="5.27678">
        <ele>400</ele>
        <time>2021-11-13T14:54:33.999Z</time>
      </trkpt>
      <trkpt lat="44.35285" lon="5.27683">
        <ele>401</ele>
        <time>2021-11-13T14:54:34.998Z</time>
      </trkpt>
      <trkpt lat="44.35279" lon="5.27688">
        <ele>401</ele>
        <time>2021-11-13T14:54:35.998Z</time>
      </trkpt>
      <trkpt lat="44.35275" lon="5.27692">
        <ele>401</ele>
        <time>2021-11-13T14:54:36.998Z</time>
      </trkpt>
      <trkpt lat="44.35268" lon="5.27699">
        <ele>401</ele>
        <time>2021-11-13T14:54:37.998Z</time>
      </trkpt>
      <trkpt lat="44.35262" lon="5.27704">
        <ele>402</ele>
        <time>2021-11-13T14:54:38.999Z</time>
      </trkpt>
      <trkpt lat="44.35256" lon="5.27709">
        <ele>401</ele>
        <time>2021-11-13T14:54:39.998Z</time>
      </trkpt>
      <trkpt lat="44.35251" lon="5.27715">
        <ele>400</ele>
        <time>2021-11-13T14:54:40.999Z</time>
      </trkpt>
      <trkpt lat="44.35247" lon="5.2772">
        <ele>399</ele>
        <time>2021-11-13T14:54:41.998Z</time>
      </trkpt>
      <trkpt lat="44.35241" lon="5.27728">
        <ele>398</ele>
        <time>2021-11-13T14:54:42.998Z</time>
      </trkpt>
      <trkpt lat="44.35236" lon="5.27734">
        <ele>397</ele>
        <time>2021-11-13T14:54:43.999Z</time>
      </trkpt>
      <trkpt lat="44.35231" lon="5.27741">
        <ele>396</ele>
        <time>2021-11-13T14:54:44.999Z</time>
      </trkpt>
      <trkpt lat="44.35227" lon="5.27748">
        <ele>396</ele>
        <time>2021-11-13T14:54:45.999Z</time>
      </trkpt>
      <trkpt lat="44.35222" lon="5.27755">
        <ele>395</ele>
        <time>2021-11-13T14:54:46.999Z</time>
      </trkpt>
      <trkpt lat="44.35218" lon="5.27762">
        <ele>395</ele>
        <time>2021-11-13T14:54:47.999Z</time>
      </trkpt>
      <trkpt lat="44.35214" lon="5.2777">
        <ele>395</ele>
        <time>2021-11-13T14:54:48.999Z</time>
      </trkpt>
      <trkpt lat="44.35211" lon="5.27777">
        <ele>395</ele>
        <time>2021-11-13T14:54:49.999Z</time>
      </trkpt>
      <trkpt lat="44.35207" lon="5.27784">
        <ele>395</ele>
        <time>2021-11-13T14:54:50.998Z</time>
      </trkpt>
      <trkpt lat="44.35203" lon="5.27791">
        <ele>395</ele>
        <time>2021-11-13T14:54:51.999Z</time>
      </trkpt>
      <trkpt lat="44.35199" lon="5.27798">
        <ele>395</ele>
        <time>2021-11-13T14:54:52.999Z</time>
      </trkpt>
      <trkpt lat="44.35195" lon="5.27805">
        <ele>395</ele>
        <time>2021-11-13T14:54:53.999Z</time>
      </trkpt>
      <trkpt lat="44.35192" lon="5.27812">
        <ele>395</ele>
        <time>2021-11-13T14:54:54.999Z</time>
      </trkpt>
      <trkpt lat="44.35188" lon="5.27819">
        <ele>394</ele>
        <time>2021-11-13T14:54:55.998Z</time>
      </trkpt>
      <trkpt lat="44.35185" lon="5.27826">
        <ele>394</ele>
        <time>2021-11-13T14:54:56.999Z</time>
      </trkpt>
      <trkpt lat="44.35181" lon="5.27833">
        <ele>394</ele>
        <time>2021-11-13T14:54:57.999Z</time>
      </trkpt>
      <trkpt lat="44.35177" lon="5.27839">
        <ele>394</ele>
        <time>2021-11-13T14:54:58.999Z</time>
      </trkpt>
      <trkpt lat="44.35173" lon="5.27846">
        <ele>394</ele>
        <time>2021-11-13T14:54:59.999Z</time>
      </trkpt>
      <trkpt lat="44.3517" lon="5.27853">
        <ele>395</ele>
        <time>2021-11-13T14:55:00.999Z</time>
      </trkpt>
      <trkpt lat="44.35166" lon="5.2786">
        <ele>395</ele>
        <time>2021-11-13T14:55:01.998Z</time>
      </trkpt>
      <trkpt lat="44.35163" lon="5.27866">
        <ele>395</ele>
        <time>2021-11-13T14:55:02.998Z</time>
      </trkpt>
      <trkpt lat="44.35159" lon="5.27873">
        <ele>395</ele>
        <time>2021-11-13T14:55:03.999Z</time>
      </trkpt>
      <trkpt lat="44.35156" lon="5.2788">
        <ele>395</ele>
        <time>2021-11-13T14:55:04.999Z</time>
      </trkpt>
      <trkpt lat="44.35152" lon="5.27886">
        <ele>395</ele>
        <time>2021-11-13T14:55:05.999Z</time>
      </trkpt>
      <trkpt lat="44.35149" lon="5.27892">
        <ele>396</ele>
        <time>2021-11-13T14:55:06.999Z</time>
      </trkpt>
      <trkpt lat="44.35145" lon="5.27898">
        <ele>396</ele>
        <time>2021-11-13T14:55:07.998Z</time>
      </trkpt>
      <trkpt lat="44.3514" lon="5.27904">
        <ele>396</ele>
        <time>2021-11-13T14:55:08.999Z</time>
      </trkpt>
      <trkpt lat="44.35136" lon="5.2791">
        <ele>396</ele>
        <time>2021-11-13T14:55:09.999Z</time>
      </trkpt>
      <trkpt lat="44.35131" lon="5.27914">
        <ele>397</ele>
        <time>2021-11-13T14:55:10.999Z</time>
      </trkpt>
      <trkpt lat="44.35126" lon="5.27918">
        <ele>397</ele>
        <time>2021-11-13T14:55:11.999Z</time>
      </trkpt>
      <trkpt lat="44.35122" lon="5.27922">
        <ele>397</ele>
        <time>2021-11-13T14:55:12.998Z</time>
      </trkpt>
      <trkpt lat="44.35117" lon="5.27925">
        <ele>397</ele>
        <time>2021-11-13T14:55:13.999Z</time>
      </trkpt>
      <trkpt lat="44.35111" lon="5.2793">
        <ele>397</ele>
        <time>2021-11-13T14:55:14.999Z</time>
      </trkpt>
      <trkpt lat="44.35106" lon="5.27933">
        <ele>398</ele>
        <time>2021-11-13T14:55:15.999Z</time>
      </trkpt>
      <trkpt lat="44.35101" lon="5.27937">
        <ele>397</ele>
        <time>2021-11-13T14:55:16.999Z</time>
      </trkpt>
      <trkpt lat="44.35096" lon="5.27941">
        <ele>397</ele>
        <time>2021-11-13T14:55:17.998Z</time>
      </trkpt>
      <trkpt lat="44.3509" lon="5.27945">
        <ele>397</ele>
        <time>2021-11-13T14:55:18.999Z</time>
      </trkpt>
      <trkpt lat="44.35085" lon="5.27948">
        <ele>397</ele>
        <time>2021-11-13T14:55:19.999Z</time>
      </trkpt>
      <trkpt lat="44.35079" lon="5.27952">
        <ele>397</ele>
        <time>2021-11-13T14:55:20.999Z</time>
      </trkpt>
      <trkpt lat="44.35074" lon="5.27956">
        <ele>397</ele>
        <time>2021-11-13T14:55:21.999Z</time>
      </trkpt>
      <trkpt lat="44.35068" lon="5.27959">
        <ele>397</ele>
        <time>2021-11-13T14:55:22.998Z</time>
      </trkpt>
      <trkpt lat="44.35063" lon="5.27963">
        <ele>397</ele>
        <time>2021-11-13T14:55:23.999Z</time>
      </trkpt>
      <trkpt lat="44.35057" lon="5.27966">
        <ele>398</ele>
        <time>2021-11-13T14:55:24.999Z</time>
      </trkpt>
      <trkpt lat="44.35052" lon="5.27969">
        <ele>398</ele>
        <time>2021-11-13T14:55:25.999Z</time>
      </trkpt>
      <trkpt lat="44.35046" lon="5.27972">
        <ele>398</ele>
        <time>2021-11-13T14:55:26.999Z</time>
      </trkpt>
      <trkpt lat="44.35041" lon="5.27975">
        <ele>398</ele>
        <time>2021-11-13T14:55:27.998Z</time>
      </trkpt>
      <trkpt lat="44.35036" lon="5.27978">
        <ele>397</ele>
        <time>2021-11-13T14:55:28.998Z</time>
      </trkpt>
      <trkpt lat="44.3503" lon="5.2798">
        <ele>397</ele>
        <time>2021-11-13T14:55:29.998Z</time>
      </trkpt>
      <trkpt lat="44.35025" lon="5.27983">
        <ele>397</ele>
        <time>2021-11-13T14:55:30.998Z</time>
      </trkpt>
      <trkpt lat="44.3502" lon="5.27985">
        <ele>397</ele>
        <time>2021-11-13T14:55:31.999Z</time>
      </trkpt>
      <trkpt lat="44.35014" lon="5.27989">
        <ele>397</ele>
        <time>2021-11-13T14:55:32.999Z</time>
      </trkpt>
      <trkpt lat="44.35009" lon="5.27992">
        <ele>397</ele>
        <time>2021-11-13T14:55:33.998Z</time>
      </trkpt>
      <trkpt lat="44.35004" lon="5.27994">
        <ele>397</ele>
        <time>2021-11-13T14:55:34.999Z</time>
      </trkpt>
      <trkpt lat="44.34999" lon="5.27996">
        <ele>397</ele>
        <time>2021-11-13T14:55:35.999Z</time>
      </trkpt>
      <trkpt lat="44.34996" lon="5.27998">
        <ele>398</ele>
        <time>2021-11-13T14:55:36.999Z</time>
      </trkpt>
      <trkpt lat="44.3499" lon="5.28001">
        <ele>398</ele>
        <time>2021-11-13T14:55:37.999Z</time>
      </trkpt>
      <trkpt lat="44.34986" lon="5.28003">
        <ele>398</ele>
        <time>2021-11-13T14:55:38.999Z</time>
      </trkpt>
      <trkpt lat="44.34981" lon="5.28004">
        <ele>398</ele>
        <time>2021-11-13T14:55:39.999Z</time>
      </trkpt>
      <trkpt lat="44.34977" lon="5.28006">
        <ele>398</ele>
        <time>2021-11-13T14:55:40.998Z</time>
      </trkpt>
      <trkpt lat="44.34972" lon="5.28009">
        <ele>398</ele>
        <time>2021-11-13T14:55:41.999Z</time>
      </trkpt>
      <trkpt lat="44.34968" lon="5.28011">
        <ele>398</ele>
        <time>2021-11-13T14:55:42.999Z</time>
      </trkpt>
      <trkpt lat="44.34963" lon="5.28013">
        <ele>398</ele>
        <time>2021-11-13T14:55:43.999Z</time>
      </trkpt>
      <trkpt lat="44.34959" lon="5.28015">
        <ele>398</ele>
        <time>2021-11-13T14:55:44.999Z</time>
      </trkpt>
      <trkpt lat="44.34955" lon="5.28018">
        <ele>398</ele>
        <time>2021-11-13T14:55:45.999Z</time>
      </trkpt>
      <trkpt lat="44.34951" lon="5.2802">
        <ele>398</ele>
        <time>2021-11-13T14:55:46.999Z</time>
      </trkpt>
      <trkpt lat="44.34947" lon="5.28023">
        <ele>398</ele>
        <time>2021-11-13T14:55:47.998Z</time>
      </trkpt>
      <trkpt lat="44.34942" lon="5.28025">
        <ele>398</ele>
        <time>2021-11-13T14:55:48.999Z</time>
      </trkpt>
      <trkpt lat="44.34939" lon="5.28028">
        <ele>399</ele>
        <time>2021-11-13T14:55:49.998Z</time>
      </trkpt>
      <trkpt lat="44.34935" lon="5.2803">
        <ele>399</ele>
        <time>2021-11-13T14:55:50.999Z</time>
      </trkpt>
      <trkpt lat="44.34931" lon="5.28033">
        <ele>399</ele>
        <time>2021-11-13T14:55:51.998Z</time>
      </trkpt>
      <trkpt lat="44.34927" lon="5.28036">
        <ele>399</ele>
        <time>2021-11-13T14:55:52.999Z</time>
      </trkpt>
      <trkpt lat="44.34923" lon="5.2804">
        <ele>399</ele>
        <time>2021-11-13T14:55:53.999Z</time>
      </trkpt>
      <trkpt lat="44.34919" lon="5.28043">
        <ele>399</ele>
        <time>2021-11-13T14:55:54.999Z</time>
      </trkpt>
      <trkpt lat="44.34915" lon="5.28046">
        <ele>399</ele>
        <time>2021-11-13T14:55:55.998Z</time>
      </trkpt>
      <trkpt lat="44.34911" lon="5.28049">
        <ele>399</ele>
        <time>2021-11-13T14:55:56.999Z</time>
      </trkpt>
      <trkpt lat="44.34907" lon="5.28052">
        <ele>400</ele>
        <time>2021-11-13T14:55:57.999Z</time>
      </trkpt>
      <trkpt lat="44.34903" lon="5.28056">
        <ele>400</ele>
        <time>2021-11-13T14:55:58.999Z</time>
      </trkpt>
      <trkpt lat="44.34899" lon="5.28059">
        <ele>400</ele>
        <time>2021-11-13T14:55:59.998Z</time>
      </trkpt>
      <trkpt lat="44.34894" lon="5.28062">
        <ele>400</ele>
        <time>2021-11-13T14:56:00.998Z</time>
      </trkpt>
      <trkpt lat="44.34891" lon="5.28066">
        <ele>400</ele>
        <time>2021-11-13T14:56:01.998Z</time>
      </trkpt>
      <trkpt lat="44.34887" lon="5.28068">
        <ele>400</ele>
        <time>2021-11-13T14:56:02.998Z</time>
      </trkpt>
      <trkpt lat="44.34883" lon="5.28071">
        <ele>400</ele>
        <time>2021-11-13T14:56:03.999Z</time>
      </trkpt>
      <trkpt lat="44.34879" lon="5.28075">
        <ele>399</ele>
        <time>2021-11-13T14:56:04.998Z</time>
      </trkpt>
      <trkpt lat="44.34875" lon="5.28078">
        <ele>399</ele>
        <time>2021-11-13T14:56:05.999Z</time>
      </trkpt>
      <trkpt lat="44.34871" lon="5.28082">
        <ele>400</ele>
        <time>2021-11-13T14:56:06.998Z</time>
      </trkpt>
      <trkpt lat="44.34867" lon="5.28085">
        <ele>400</ele>
        <time>2021-11-13T14:56:07.999Z</time>
      </trkpt>
      <trkpt lat="44.34863" lon="5.28089">
        <ele>400</ele>
        <time>2021-11-13T14:56:08.998Z</time>
      </trkpt>
      <trkpt lat="44.3486" lon="5.28092">
        <ele>400</ele>
        <time>2021-11-13T14:56:09.998Z</time>
      </trkpt>
      <trkpt lat="44.34855" lon="5.28097">
        <ele>400</ele>
        <time>2021-11-13T14:56:10.999Z</time>
      </trkpt>
      <trkpt lat="44.34852" lon="5.28102">
        <ele>400</ele>
        <time>2021-11-13T14:56:11.999Z</time>
      </trkpt>
      <trkpt lat="44.34848" lon="5.28106">
        <ele>400</ele>
        <time>2021-11-13T14:56:12.999Z</time>
      </trkpt>
      <trkpt lat="44.34845" lon="5.28111">
        <ele>400</ele>
        <time>2021-11-13T14:56:13.999Z</time>
      </trkpt>
      <trkpt lat="44.34841" lon="5.28117">
        <ele>401</ele>
        <time>2021-11-13T14:56:14.999Z</time>
      </trkpt>
      <trkpt lat="44.34838" lon="5.28123">
        <ele>401</ele>
        <time>2021-11-13T14:56:15.998Z</time>
      </trkpt>
      <trkpt lat="44.34835" lon="5.28128">
        <ele>401</ele>
        <time>2021-11-13T14:56:16.999Z</time>
      </trkpt>
      <trkpt lat="44.34833" lon="5.28133">
        <ele>401</ele>
        <time>2021-11-13T14:56:17.998Z</time>
      </trkpt>
      <trkpt lat="44.3483" lon="5.28139">
        <ele>401</ele>
        <time>2021-11-13T14:56:18.999Z</time>
      </trkpt>
      <trkpt lat="44.34827" lon="5.28146">
        <ele>401</ele>
        <time>2021-11-13T14:56:19.999Z</time>
      </trkpt>
      <trkpt lat="44.34825" lon="5.28153">
        <ele>401</ele>
        <time>2021-11-13T14:56:20.999Z</time>
      </trkpt>
      <trkpt lat="44.34823" lon="5.2816">
        <ele>402</ele>
        <time>2021-11-13T14:56:21.998Z</time>
      </trkpt>
      <trkpt lat="44.34821" lon="5.28166">
        <ele>401</ele>
        <time>2021-11-13T14:56:22.999Z</time>
      </trkpt>
      <trkpt lat="44.34819" lon="5.28173">
        <ele>401</ele>
        <time>2021-11-13T14:56:23.999Z</time>
      </trkpt>
      <trkpt lat="44.34818" lon="5.2818">
        <ele>401</ele>
        <time>2021-11-13T14:56:24.999Z</time>
      </trkpt>
      <trkpt lat="44.34816" lon="5.28187">
        <ele>401</ele>
        <time>2021-11-13T14:56:25.999Z</time>
      </trkpt>
      <trkpt lat="44.34815" lon="5.28194">
        <ele>401</ele>
        <time>2021-11-13T14:56:26.999Z</time>
      </trkpt>
      <trkpt lat="44.34814" lon="5.28201">
        <ele>401</ele>
        <time>2021-11-13T14:56:27.998Z</time>
      </trkpt>
      <trkpt lat="44.34813" lon="5.28208">
        <ele>401</ele>
        <time>2021-11-13T14:56:28.999Z</time>
      </trkpt>
      <trkpt lat="44.34811" lon="5.28215">
        <ele>401</ele>
        <time>2021-11-13T14:56:29.999Z</time>
      </trkpt>
      <trkpt lat="44.3481" lon="5.28222">
        <ele>401</ele>
        <time>2021-11-13T14:56:30.999Z</time>
      </trkpt>
      <trkpt lat="44.34809" lon="5.28228">
        <ele>401</ele>
        <time>2021-11-13T14:56:31.999Z</time>
      </trkpt>
      <trkpt lat="44.34807" lon="5.28235">
        <ele>401</ele>
        <time>2021-11-13T14:56:32.998Z</time>
      </trkpt>
      <trkpt lat="44.34805" lon="5.28244">
        <ele>400</ele>
        <time>2021-11-13T14:56:33.999Z</time>
      </trkpt>
      <trkpt lat="44.34803" lon="5.2825">
        <ele>400</ele>
        <time>2021-11-13T14:56:34.999Z</time>
      </trkpt>
      <trkpt lat="44.34801" lon="5.28257">
        <ele>400</ele>
        <time>2021-11-13T14:56:35.999Z</time>
      </trkpt>
      <trkpt lat="44.34798" lon="5.28262">
        <ele>400</ele>
        <time>2021-11-13T14:56:36.998Z</time>
      </trkpt>
      <trkpt lat="44.34795" lon="5.28269">
        <ele>400</ele>
        <time>2021-11-13T14:56:37.999Z</time>
      </trkpt>
      <trkpt lat="44.34791" lon="5.28276">
        <ele>400</ele>
        <time>2021-11-13T14:56:38.999Z</time>
      </trkpt>
      <trkpt lat="44.34787" lon="5.28281">
        <ele>400</ele>
        <time>2021-11-13T14:56:39.999Z</time>
      </trkpt>
      <trkpt lat="44.34784" lon="5.28285">
        <ele>400</ele>
        <time>2021-11-13T14:56:40.998Z</time>
      </trkpt>
      <trkpt lat="44.34779" lon="5.28291">
        <ele>400</ele>
        <time>2021-11-13T14:56:41.999Z</time>
      </trkpt>
      <trkpt lat="44.34776" lon="5.28295">
        <ele>401</ele>
        <time>2021-11-13T14:56:42.999Z</time>
      </trkpt>
      <trkpt lat="44.34771" lon="5.28299">
        <ele>401</ele>
        <time>2021-11-13T14:56:43.999Z</time>
      </trkpt>
      <trkpt lat="44.34766" lon="5.28302">
        <ele>401</ele>
        <time>2021-11-13T14:56:44.998Z</time>
      </trkpt>
      <trkpt lat="44.34762" lon="5.28304">
        <ele>400</ele>
        <time>2021-11-13T14:56:45.999Z</time>
      </trkpt>
      <trkpt lat="44.34758" lon="5.28306">
        <ele>400</ele>
        <time>2021-11-13T14:56:46.998Z</time>
      </trkpt>
      <trkpt lat="44.34753" lon="5.28309">
        <ele>400</ele>
        <time>2021-11-13T14:56:47.999Z</time>
      </trkpt>
      <trkpt lat="44.34748" lon="5.2831">
        <ele>399</ele>
        <time>2021-11-13T14:56:48.998Z</time>
      </trkpt>
      <trkpt lat="44.34743" lon="5.28311">
        <ele>399</ele>
        <time>2021-11-13T14:56:49.998Z</time>
      </trkpt>
      <trkpt lat="44.34738" lon="5.28312">
        <ele>399</ele>
        <time>2021-11-13T14:56:50.999Z</time>
      </trkpt>
      <trkpt lat="44.34733" lon="5.28312">
        <ele>399</ele>
        <time>2021-11-13T14:56:51.998Z</time>
      </trkpt>
      <trkpt lat="44.34729" lon="5.28312">
        <ele>399</ele>
        <time>2021-11-13T14:56:52.999Z</time>
      </trkpt>
      <trkpt lat="44.34724" lon="5.28313">
        <ele>399</ele>
        <time>2021-11-13T14:56:53.999Z</time>
      </trkpt>
      <trkpt lat="44.34718" lon="5.28313">
        <ele>399</ele>
        <time>2021-11-13T14:56:54.998Z</time>
      </trkpt>
      <trkpt lat="44.34714" lon="5.28312">
        <ele>399</ele>
        <time>2021-11-13T14:56:55.999Z</time>
      </trkpt>
      <trkpt lat="44.34709" lon="5.28311">
        <ele>399</ele>
        <time>2021-11-13T14:56:56.998Z</time>
      </trkpt>
      <trkpt lat="44.34704" lon="5.2831">
        <ele>399</ele>
        <time>2021-11-13T14:56:57.999Z</time>
      </trkpt>
      <trkpt lat="44.34699" lon="5.2831">
        <ele>399</ele>
        <time>2021-11-13T14:56:58.999Z</time>
      </trkpt>
      <trkpt lat="44.34694" lon="5.28308">
        <ele>399</ele>
        <time>2021-11-13T14:56:59.998Z</time>
      </trkpt>
      <trkpt lat="44.3469" lon="5.28308">
        <ele>399</ele>
        <time>2021-11-13T14:57:00.998Z</time>
      </trkpt>
      <trkpt lat="44.34684" lon="5.28306">
        <ele>400</ele>
        <time>2021-11-13T14:57:01.998Z</time>
      </trkpt>
      <trkpt lat="44.34679" lon="5.28305">
        <ele>401</ele>
        <time>2021-11-13T14:57:02.998Z</time>
      </trkpt>
      <trkpt lat="44.34674" lon="5.28304">
        <ele>401</ele>
        <time>2021-11-13T14:57:03.999Z</time>
      </trkpt>
      <trkpt lat="44.3467" lon="5.28304">
        <ele>402</ele>
        <time>2021-11-13T14:57:04.999Z</time>
      </trkpt>
      <trkpt lat="44.34665" lon="5.28303">
        <ele>402</ele>
        <time>2021-11-13T14:57:05.998Z</time>
      </trkpt>
      <trkpt lat="44.34659" lon="5.28302">
        <ele>403</ele>
        <time>2021-11-13T14:57:06.999Z</time>
      </trkpt>
      <trkpt lat="44.34653" lon="5.28301">
        <ele>403</ele>
        <time>2021-11-13T14:57:07.999Z</time>
      </trkpt>
      <trkpt lat="44.3465" lon="5.283">
        <ele>403</ele>
        <time>2021-11-13T14:57:08.999Z</time>
      </trkpt>
      <trkpt lat="44.34644" lon="5.28299">
        <ele>403</ele>
        <time>2021-11-13T14:57:09.999Z</time>
      </trkpt>
      <trkpt lat="44.34638" lon="5.28298">
        <ele>403</ele>
        <time>2021-11-13T14:57:10.999Z</time>
      </trkpt>
      <trkpt lat="44.34633" lon="5.28297">
        <ele>403</ele>
        <time>2021-11-13T14:57:11.998Z</time>
      </trkpt>
      <trkpt lat="44.34627" lon="5.28296">
        <ele>404</ele>
        <time>2021-11-13T14:57:12.999Z</time>
      </trkpt>
      <trkpt lat="44.34623" lon="5.28295">
        <ele>405</ele>
        <time>2021-11-13T14:57:13.999Z</time>
      </trkpt>
      <trkpt lat="44.34618" lon="5.28294">
        <ele>405</ele>
        <time>2021-11-13T14:57:14.998Z</time>
      </trkpt>
      <trkpt lat="44.34612" lon="5.28292">
        <ele>406</ele>
        <time>2021-11-13T14:57:15.998Z</time>
      </trkpt>
      <trkpt lat="44.34608" lon="5.2829">
        <ele>406</ele>
        <time>2021-11-13T14:57:16.999Z</time>
      </trkpt>
      <trkpt lat="44.34603" lon="5.28289">
        <ele>405</ele>
        <time>2021-11-13T14:57:17.999Z</time>
      </trkpt>
      <trkpt lat="44.34599" lon="5.28288">
        <ele>405</ele>
        <time>2021-11-13T14:57:18.999Z</time>
      </trkpt>
      <trkpt lat="44.34595" lon="5.28287">
        <ele>404</ele>
        <time>2021-11-13T14:57:19.998Z</time>
      </trkpt>
      <trkpt lat="44.34589" lon="5.28286">
        <ele>404</ele>
        <time>2021-11-13T14:57:20.999Z</time>
      </trkpt>
      <trkpt lat="44.34585" lon="5.28285">
        <ele>404</ele>
        <time>2021-11-13T14:57:21.999Z</time>
      </trkpt>
      <trkpt lat="44.3458" lon="5.28283">
        <ele>404</ele>
        <time>2021-11-13T14:57:22.999Z</time>
      </trkpt>
      <trkpt lat="44.34576" lon="5.28283">
        <ele>404</ele>
        <time>2021-11-13T14:57:23.999Z</time>
      </trkpt>
      <trkpt lat="44.34571" lon="5.28282">
        <ele>404</ele>
        <time>2021-11-13T14:57:24.998Z</time>
      </trkpt>
      <trkpt lat="44.34567" lon="5.28281">
        <ele>404</ele>
        <time>2021-11-13T14:57:25.999Z</time>
      </trkpt>
      <trkpt lat="44.34561" lon="5.28281">
        <ele>403</ele>
        <time>2021-11-13T14:57:26.999Z</time>
      </trkpt>
      <trkpt lat="44.34558" lon="5.28281">
        <ele>403</ele>
        <time>2021-11-13T14:57:27.998Z</time>
      </trkpt>
      <trkpt lat="44.34552" lon="5.28281">
        <ele>403</ele>
        <time>2021-11-13T14:57:28.999Z</time>
      </trkpt>
      <trkpt lat="44.34548" lon="5.28282">
        <ele>403</ele>
        <time>2021-11-13T14:57:29.999Z</time>
      </trkpt>
      <trkpt lat="44.34543" lon="5.28283">
        <ele>404</ele>
        <time>2021-11-13T14:57:30.999Z</time>
      </trkpt>
      <trkpt lat="44.34539" lon="5.28284">
        <ele>403</ele>
        <time>2021-11-13T14:57:31.999Z</time>
      </trkpt>
      <trkpt lat="44.34534" lon="5.28285">
        <ele>403</ele>
        <time>2021-11-13T14:57:32.999Z</time>
      </trkpt>
      <trkpt lat="44.3453" lon="5.28286">
        <ele>404</ele>
        <time>2021-11-13T14:57:33.999Z</time>
      </trkpt>
      <trkpt lat="44.34526" lon="5.28287">
        <ele>404</ele>
        <time>2021-11-13T14:57:34.999Z</time>
      </trkpt>
      <trkpt lat="44.34522" lon="5.28288">
        <ele>403</ele>
        <time>2021-11-13T14:57:35.999Z</time>
      </trkpt>
      <trkpt lat="44.34519" lon="5.28289">
        <ele>403</ele>
        <time>2021-11-13T14:57:36.999Z</time>
      </trkpt>
      <trkpt lat="44.34514" lon="5.28291">
        <ele>403</ele>
        <time>2021-11-13T14:57:37.999Z</time>
      </trkpt>
      <trkpt lat="44.34511" lon="5.28293">
        <ele>403</ele>
        <time>2021-11-13T14:57:38.998Z</time>
      </trkpt>
      <trkpt lat="44.34507" lon="5.28295">
        <ele>403</ele>
        <time>2021-11-13T14:57:39.998Z</time>
      </trkpt>
      <trkpt lat="44.34502" lon="5.28297">
        <ele>403</ele>
        <time>2021-11-13T14:57:40.999Z</time>
      </trkpt>
      <trkpt lat="44.34498" lon="5.28298">
        <ele>403</ele>
        <time>2021-11-13T14:57:41.999Z</time>
      </trkpt>
      <trkpt lat="44.34495" lon="5.283">
        <ele>403</ele>
        <time>2021-11-13T14:57:42.999Z</time>
      </trkpt>
      <trkpt lat="44.34491" lon="5.28301">
        <ele>403</ele>
        <time>2021-11-13T14:57:43.999Z</time>
      </trkpt>
      <trkpt lat="44.34488" lon="5.28303">
        <ele>403</ele>
        <time>2021-11-13T14:57:44.998Z</time>
      </trkpt>
      <trkpt lat="44.34484" lon="5.28306">
        <ele>404</ele>
        <time>2021-11-13T14:57:45.999Z</time>
      </trkpt>
      <trkpt lat="44.34481" lon="5.28308">
        <ele>404</ele>
        <time>2021-11-13T14:57:46.999Z</time>
      </trkpt>
      <trkpt lat="44.34478" lon="5.28312">
        <ele>404</ele>
        <time>2021-11-13T14:57:47.999Z</time>
      </trkpt>
      <trkpt lat="44.34475" lon="5.28316">
        <ele>405</ele>
        <time>2021-11-13T14:57:48.999Z</time>
      </trkpt>
      <trkpt lat="44.34473" lon="5.2832">
        <ele>405</ele>
        <time>2021-11-13T14:57:49.999Z</time>
      </trkpt>
      <trkpt lat="44.3447" lon="5.28324">
        <ele>406</ele>
        <time>2021-11-13T14:57:50.999Z</time>
      </trkpt>
      <trkpt lat="44.34467" lon="5.28328">
        <ele>406</ele>
        <time>2021-11-13T14:57:51.998Z</time>
      </trkpt>
      <trkpt lat="44.34465" lon="5.28333">
        <ele>406</ele>
        <time>2021-11-13T14:57:52.999Z</time>
      </trkpt>
      <trkpt lat="44.34463" lon="5.28337">
        <ele>407</ele>
        <time>2021-11-13T14:57:53.999Z</time>
      </trkpt>
      <trkpt lat="44.3446" lon="5.28342">
        <ele>407</ele>
        <time>2021-11-13T14:57:54.998Z</time>
      </trkpt>
      <trkpt lat="44.34458" lon="5.28347">
        <ele>407</ele>
        <time>2021-11-13T14:57:55.998Z</time>
      </trkpt>
      <trkpt lat="44.34456" lon="5.28352">
        <ele>407</ele>
        <time>2021-11-13T14:57:56.999Z</time>
      </trkpt>
      <trkpt lat="44.34454" lon="5.28357">
        <ele>408</ele>
        <time>2021-11-13T14:57:57.999Z</time>
      </trkpt>
      <trkpt lat="44.34452" lon="5.28363">
        <ele>408</ele>
        <time>2021-11-13T14:57:58.999Z</time>
      </trkpt>
      <trkpt lat="44.3445" lon="5.28368">
        <ele>408</ele>
        <time>2021-11-13T14:57:59.999Z</time>
      </trkpt>
      <trkpt lat="44.34449" lon="5.28373">
        <ele>408</ele>
        <time>2021-11-13T14:58:00.999Z</time>
      </trkpt>
      <trkpt lat="44.34449" lon="5.28379">
        <ele>408</ele>
        <time>2021-11-13T14:58:01.999Z</time>
      </trkpt>
      <trkpt lat="44.34448" lon="5.28384">
        <ele>408</ele>
        <time>2021-11-13T14:58:02.999Z</time>
      </trkpt>
      <trkpt lat="44.34447" lon="5.28389">
        <ele>408</ele>
        <time>2021-11-13T14:58:03.999Z</time>
      </trkpt>
      <trkpt lat="44.34446" lon="5.28394">
        <ele>407</ele>
        <time>2021-11-13T14:58:04.999Z</time>
      </trkpt>
      <trkpt lat="44.34444" lon="5.28397">
        <ele>407</ele>
        <time>2021-11-13T14:58:05.999Z</time>
      </trkpt>
      <trkpt lat="44.3444" lon="5.28399">
        <ele>407</ele>
        <time>2021-11-13T14:58:06.998Z</time>
      </trkpt>
      <trkpt lat="44.34437" lon="5.28399">
        <ele>407</ele>
        <time>2021-11-13T14:58:07.999Z</time>
      </trkpt>
      <trkpt lat="44.34433" lon="5.28398">
        <ele>406</ele>
        <time>2021-11-13T14:58:08.999Z</time>
      </trkpt>
      <trkpt lat="44.34428" lon="5.28396">
        <ele>406</ele>
        <time>2021-11-13T14:58:09.998Z</time>
      </trkpt>
      <trkpt lat="44.34423" lon="5.28394">
        <ele>405</ele>
        <time>2021-11-13T14:58:10.999Z</time>
      </trkpt>
      <trkpt lat="44.34418" lon="5.28393">
        <ele>404</ele>
        <time>2021-11-13T14:58:11.999Z</time>
      </trkpt>
      <trkpt lat="44.34413" lon="5.28392">
        <ele>404</ele>
        <time>2021-11-13T14:58:12.999Z</time>
      </trkpt>
      <trkpt lat="44.34408" lon="5.28391">
        <ele>403</ele>
        <time>2021-11-13T14:58:13.999Z</time>
      </trkpt>
      <trkpt lat="44.34404" lon="5.2839">
        <ele>403</ele>
        <time>2021-11-13T14:58:14.999Z</time>
      </trkpt>
      <trkpt lat="44.34401" lon="5.28388">
        <ele>403</ele>
        <time>2021-11-13T14:58:15.999Z</time>
      </trkpt>
      <trkpt lat="44.34399" lon="5.28388">
        <ele>403</ele>
        <time>2021-11-13T14:58:16.998Z</time>
      </trkpt>
      <trkpt lat="44.34396" lon="5.28387">
        <ele>403</ele>
        <time>2021-11-13T14:58:17.998Z</time>
      </trkpt>
      <trkpt lat="44.34392" lon="5.28386">
        <ele>403</ele>
        <time>2021-11-13T14:58:18.999Z</time>
      </trkpt>
      <trkpt lat="44.34389" lon="5.28385">
        <ele>403</ele>
        <time>2021-11-13T14:58:19.998Z</time>
      </trkpt>
      <trkpt lat="44.34385" lon="5.28384">
        <ele>403</ele>
        <time>2021-11-13T14:58:20.999Z</time>
      </trkpt>
      <trkpt lat="44.34382" lon="5.28382">
        <ele>403</ele>
        <time>2021-11-13T14:58:21.998Z</time>
      </trkpt>
      <trkpt lat="44.34379" lon="5.2838">
        <ele>403</ele>
        <time>2021-11-13T14:58:22.999Z</time>
      </trkpt>
      <trkpt lat="44.34376" lon="5.28379">
        <ele>404</ele>
        <time>2021-11-13T14:58:23.998Z</time>
      </trkpt>
      <trkpt lat="44.34373" lon="5.28378">
        <ele>404</ele>
        <time>2021-11-13T14:58:24.999Z</time>
      </trkpt>
      <trkpt lat="44.34369" lon="5.28376">
        <ele>405</ele>
        <time>2021-11-13T14:58:25.999Z</time>
      </trkpt>
      <trkpt lat="44.34365" lon="5.28375">
        <ele>406</ele>
        <time>2021-11-13T14:58:26.999Z</time>
      </trkpt>
      <trkpt lat="44.34361" lon="5.28373">
        <ele>406</ele>
        <time>2021-11-13T14:58:27.999Z</time>
      </trkpt>
      <trkpt lat="44.34358" lon="5.28372">
        <ele>407</ele>
        <time>2021-11-13T14:58:28.998Z</time>
      </trkpt>
      <trkpt lat="44.34355" lon="5.2837">
        <ele>408</ele>
        <time>2021-11-13T14:58:29.998Z</time>
      </trkpt>
      <trkpt lat="44.34352" lon="5.28367">
        <ele>408</ele>
        <time>2021-11-13T14:58:30.999Z</time>
      </trkpt>
      <trkpt lat="44.34349" lon="5.28366">
        <ele>409</ele>
        <time>2021-11-13T14:58:31.999Z</time>
      </trkpt>
      <trkpt lat="44.34345" lon="5.28364">
        <ele>410</ele>
        <time>2021-11-13T14:58:32.999Z</time>
      </trkpt>
      <trkpt lat="44.34342" lon="5.28363">
        <ele>410</ele>
        <time>2021-11-13T14:58:33.999Z</time>
      </trkpt>
      <trkpt lat="44.34338" lon="5.28362">
        <ele>410</ele>
        <time>2021-11-13T14:58:39.136Z</time>
      </trkpt>
      <trkpt lat="44.34334" lon="5.2836">
        <ele>411</ele>
        <time>2021-11-13T14:58:40.136Z</time>
      </trkpt>
      <trkpt lat="44.3433" lon="5.28358">
        <ele>411</ele>
        <time>2021-11-13T14:58:41.135Z</time>
      </trkpt>
      <trkpt lat="44.34326" lon="5.28356">
        <ele>411</ele>
        <time>2021-11-13T14:59:34.288Z</time>
      </trkpt>
      <trkpt lat="44.34322" lon="5.28355">
        <ele>412</ele>
        <time>2021-11-13T14:59:35.288Z</time>
      </trkpt>
      <trkpt lat="44.34319" lon="5.28353">
        <ele>412</ele>
        <time>2021-11-13T14:59:36.288Z</time>
      </trkpt>
      <trkpt lat="44.34315" lon="5.28351">
        <ele>412</ele>
        <time>2021-11-13T14:59:37.288Z</time>
      </trkpt>
      <trkpt lat="44.34311" lon="5.2835">
        <ele>412</ele>
        <time>2021-11-13T14:59:38.288Z</time>
      </trkpt>
      <trkpt lat="44.34308" lon="5.28349">
        <ele>411</ele>
        <time>2021-11-13T14:59:39.287Z</time>
      </trkpt>
      <trkpt lat="44.34304" lon="5.28348">
        <ele>411</ele>
        <time>2021-11-13T14:59:40.288Z</time>
      </trkpt>
      <trkpt lat="44.34298" lon="5.28347">
        <ele>411</ele>
        <time>2021-11-13T14:59:41.288Z</time>
      </trkpt>
      <trkpt lat="44.34293" lon="5.28346">
        <ele>411</ele>
        <time>2021-11-13T14:59:42.288Z</time>
      </trkpt>
      <trkpt lat="44.34289" lon="5.28344">
        <ele>411</ele>
        <time>2021-11-13T14:59:43.288Z</time>
      </trkpt>
      <trkpt lat="44.34284" lon="5.28343">
        <ele>411</ele>
        <time>2021-11-13T14:59:44.288Z</time>
      </trkpt>
      <trkpt lat="44.3428" lon="5.2834">
        <ele>411</ele>
        <time>2021-11-13T14:59:45.288Z</time>
      </trkpt>
      <trkpt lat="44.34276" lon="5.28338">
        <ele>411</ele>
        <time>2021-11-13T14:59:46.287Z</time>
      </trkpt>
      <trkpt lat="44.34271" lon="5.28336">
        <ele>411</ele>
        <time>2021-11-13T14:59:47.288Z</time>
      </trkpt>
      <trkpt lat="44.34268" lon="5.28334">
        <ele>411</ele>
        <time>2021-11-13T14:59:48.288Z</time>
      </trkpt>
      <trkpt lat="44.34264" lon="5.28333">
        <ele>411</ele>
        <time>2021-11-13T14:59:49.288Z</time>
      </trkpt>
      <trkpt lat="44.3426" lon="5.28332">
        <ele>411</ele>
        <time>2021-11-13T14:59:50.288Z</time>
      </trkpt>
      <trkpt lat="44.34257" lon="5.28331">
        <ele>411</ele>
        <time>2021-11-13T14:59:51.288Z</time>
      </trkpt>
      <trkpt lat="44.34253" lon="5.2833">
        <ele>411</ele>
        <time>2021-11-13T14:59:52.288Z</time>
      </trkpt>
      <trkpt lat="44.3425" lon="5.28329">
        <ele>411</ele>
        <time>2021-11-13T14:59:53.288Z</time>
      </trkpt>
      <trkpt lat="44.34247" lon="5.28327">
        <ele>411</ele>
        <time>2021-11-13T14:59:54.288Z</time>
      </trkpt>
      <trkpt lat="44.34244" lon="5.28326">
        <ele>411</ele>
        <time>2021-11-13T14:59:55.288Z</time>
      </trkpt>
      <trkpt lat="44.34241" lon="5.28325">
        <ele>412</ele>
        <time>2021-11-13T14:59:56.288Z</time>
      </trkpt>
      <trkpt lat="44.34238" lon="5.28324">
        <ele>412</ele>
        <time>2021-11-13T14:59:57.288Z</time>
      </trkpt>
      <trkpt lat="44.34235" lon="5.28323">
        <ele>412</ele>
        <time>2021-11-13T14:59:58.288Z</time>
      </trkpt>
      <trkpt lat="44.34231" lon="5.28322">
        <ele>413</ele>
        <time>2021-11-13T14:59:59.288Z</time>
      </trkpt>
      <trkpt lat="44.34227" lon="5.28322">
        <ele>413</ele>
        <time>2021-11-13T15:00:00.287Z</time>
      </trkpt>
      <trkpt lat="44.34223" lon="5.2832">
        <ele>414</ele>
        <time>2021-11-13T15:00:01.288Z</time>
      </trkpt>
      <trkpt lat="44.34219" lon="5.28318">
        <ele>414</ele>
        <time>2021-11-13T15:00:02.288Z</time>
      </trkpt>
      <trkpt lat="44.34215" lon="5.28317">
        <ele>414</ele>
        <time>2021-11-13T15:00:03.288Z</time>
      </trkpt>
      <trkpt lat="44.34212" lon="5.28316">
        <ele>415</ele>
        <time>2021-11-13T15:00:04.288Z</time>
      </trkpt>
      <trkpt lat="44.34208" lon="5.28315">
        <ele>415</ele>
        <time>2021-11-13T15:00:05.287Z</time>
      </trkpt>
      <trkpt lat="44.34205" lon="5.28314">
        <ele>415</ele>
        <time>2021-11-13T15:00:06.288Z</time>
      </trkpt>
      <trkpt lat="44.34202" lon="5.28313">
        <ele>415</ele>
        <time>2021-11-13T15:00:07.287Z</time>
      </trkpt>
      <trkpt lat="44.34199" lon="5.28312">
        <ele>415</ele>
        <time>2021-11-13T15:00:08.288Z</time>
      </trkpt>
      <trkpt lat="44.34195" lon="5.28311">
        <ele>415</ele>
        <time>2021-11-13T15:00:09.287Z</time>
      </trkpt>
      <trkpt lat="44.34192" lon="5.2831">
        <ele>414</ele>
        <time>2021-11-13T15:00:10.288Z</time>
      </trkpt>
      <trkpt lat="44.34188" lon="5.28309">
        <ele>414</ele>
        <time>2021-11-13T15:00:11.288Z</time>
      </trkpt>
      <trkpt lat="44.34184" lon="5.28308">
        <ele>414</ele>
        <time>2021-11-13T15:00:12.288Z</time>
      </trkpt>
      <trkpt lat="44.34181" lon="5.28306">
        <ele>414</ele>
        <time>2021-11-13T15:00:13.288Z</time>
      </trkpt>
      <trkpt lat="44.34178" lon="5.28305">
        <ele>413</ele>
        <time>2021-11-13T15:00:14.287Z</time>
      </trkpt>
      <trkpt lat="44.34175" lon="5.28303">
        <ele>413</ele>
        <time>2021-11-13T15:00:15.287Z</time>
      </trkpt>
      <trkpt lat="44.34171" lon="5.28301">
        <ele>412</ele>
        <time>2021-11-13T15:00:16.288Z</time>
      </trkpt>
      <trkpt lat="44.34167" lon="5.28299">
        <ele>412</ele>
        <time>2021-11-13T15:00:17.288Z</time>
      </trkpt>
      <trkpt lat="44.34163" lon="5.28297">
        <ele>411</ele>
        <time>2021-11-13T15:00:18.288Z</time>
      </trkpt>
      <trkpt lat="44.34159" lon="5.28295">
        <ele>411</ele>
        <time>2021-11-13T15:00:19.288Z</time>
      </trkpt>
      <trkpt lat="44.34155" lon="5.28293">
        <ele>410</ele>
        <time>2021-11-13T15:00:20.287Z</time>
      </trkpt>
      <trkpt lat="44.34151" lon="5.2829">
        <ele>410</ele>
        <time>2021-11-13T15:00:21.288Z</time>
      </trkpt>
      <trkpt lat="44.34148" lon="5.28286">
        <ele>409</ele>
        <time>2021-11-13T15:00:22.287Z</time>
      </trkpt>
      <trkpt lat="44.34145" lon="5.28282">
        <ele>409</ele>
        <time>2021-11-13T15:00:23.288Z</time>
      </trkpt>
      <trkpt lat="44.34143" lon="5.28276">
        <ele>409</ele>
        <time>2021-11-13T15:00:24.287Z</time>
      </trkpt>
      <trkpt lat="44.34142" lon="5.28271">
        <ele>409</ele>
        <time>2021-11-13T15:00:25.287Z</time>
      </trkpt>
      <trkpt lat="44.34142" lon="5.28264">
        <ele>409</ele>
        <time>2021-11-13T15:00:26.288Z</time>
      </trkpt>
      <trkpt lat="44.34143" lon="5.28258">
        <ele>409</ele>
        <time>2021-11-13T15:00:27.287Z</time>
      </trkpt>
      <trkpt lat="44.34144" lon="5.28252">
        <ele>409</ele>
        <time>2021-11-13T15:00:28.287Z</time>
      </trkpt>
      <trkpt lat="44.34146" lon="5.28247">
        <ele>409</ele>
        <time>2021-11-13T15:00:29.288Z</time>
      </trkpt>
      <trkpt lat="44.34147" lon="5.28243">
        <ele>409</ele>
        <time>2021-11-13T15:00:30.288Z</time>
      </trkpt>
      <trkpt lat="44.34149" lon="5.28238">
        <ele>410</ele>
        <time>2021-11-13T15:00:31.287Z</time>
      </trkpt>
      <trkpt lat="44.34151" lon="5.28234">
        <ele>410</ele>
        <time>2021-11-13T15:00:32.288Z</time>
      </trkpt>
      <trkpt lat="44.34152" lon="5.2823">
        <ele>410</ele>
        <time>2021-11-13T15:00:33.288Z</time>
      </trkpt>
      <trkpt lat="44.34154" lon="5.28226">
        <ele>411</ele>
        <time>2021-11-13T15:00:34.288Z</time>
      </trkpt>
      <trkpt lat="44.34155" lon="5.28223">
        <ele>411</ele>
        <time>2021-11-13T15:00:35.288Z</time>
      </trkpt>
      <trkpt lat="44.34157" lon="5.28219">
        <ele>412</ele>
        <time>2021-11-13T15:00:36.287Z</time>
      </trkpt>
      <trkpt lat="44.34159" lon="5.28216">
        <ele>412</ele>
        <time>2021-11-13T15:00:37.288Z</time>
      </trkpt>
      <trkpt lat="44.3416" lon="5.28213">
        <ele>412</ele>
        <time>2021-11-13T15:00:38.288Z</time>
      </trkpt>
      <trkpt lat="44.3416" lon="5.2821">
        <ele>413</ele>
        <time>2021-11-13T15:00:39.288Z</time>
      </trkpt>
      <trkpt lat="44.3416" lon="5.28206">
        <ele>413</ele>
        <time>2021-11-13T15:00:40.287Z</time>
      </trkpt>
      <trkpt lat="44.3416" lon="5.28203">
        <ele>413</ele>
        <time>2021-11-13T15:00:41.288Z</time>
      </trkpt>
      <trkpt lat="44.34159" lon="5.28199">
        <ele>413</ele>
        <time>2021-11-13T15:00:42.288Z</time>
      </trkpt>
      <trkpt lat="44.34158" lon="5.28196">
        <ele>413</ele>
        <time>2021-11-13T15:00:43.288Z</time>
      </trkpt>
      <trkpt lat="44.34156" lon="5.28193">
        <ele>413</ele>
        <time>2021-11-13T15:00:44.288Z</time>
      </trkpt>
      <trkpt lat="44.34154" lon="5.2819">
        <ele>413</ele>
        <time>2021-11-13T15:00:45.287Z</time>
      </trkpt>
      <trkpt lat="44.34152" lon="5.28187">
        <ele>414</ele>
        <time>2021-11-13T15:00:46.288Z</time>
      </trkpt>
      <trkpt lat="44.3415" lon="5.28184">
        <ele>414</ele>
        <time>2021-11-13T15:00:47.287Z</time>
      </trkpt>
      <trkpt lat="44.34148" lon="5.28181">
        <ele>415</ele>
        <time>2021-11-13T15:00:48.288Z</time>
      </trkpt>
      <trkpt lat="44.34146" lon="5.28178">
        <ele>416</ele>
        <time>2021-11-13T15:00:49.287Z</time>
      </trkpt>
      <trkpt lat="44.34143" lon="5.28175">
        <ele>416</ele>
        <time>2021-11-13T15:00:50.287Z</time>
      </trkpt>
      <trkpt lat="44.34141" lon="5.28172">
        <ele>416</ele>
        <time>2021-11-13T15:00:51.287Z</time>
      </trkpt>
      <trkpt lat="44.34139" lon="5.28169">
        <ele>416</ele>
        <time>2021-11-13T15:00:52.288Z</time>
      </trkpt>
      <trkpt lat="44.34136" lon="5.28166">
        <ele>416</ele>
        <time>2021-11-13T15:00:53.288Z</time>
      </trkpt>
      <trkpt lat="44.34134" lon="5.28163">
        <ele>416</ele>
        <time>2021-11-13T15:00:54.288Z</time>
      </trkpt>
      <trkpt lat="44.34131" lon="5.28159">
        <ele>417</ele>
        <time>2021-11-13T15:00:55.288Z</time>
      </trkpt>
      <trkpt lat="44.34129" lon="5.28156">
        <ele>417</ele>
        <time>2021-11-13T15:00:56.288Z</time>
      </trkpt>
      <trkpt lat="44.34126" lon="5.28152">
        <ele>417</ele>
        <time>2021-11-13T15:00:57.288Z</time>
      </trkpt>
      <trkpt lat="44.34124" lon="5.28148">
        <ele>417</ele>
        <time>2021-11-13T15:00:58.288Z</time>
      </trkpt>
      <trkpt lat="44.34122" lon="5.28145">
        <ele>417</ele>
        <time>2021-11-13T15:00:59.287Z</time>
      </trkpt>
      <trkpt lat="44.3412" lon="5.28141">
        <ele>417</ele>
        <time>2021-11-13T15:01:00.288Z</time>
      </trkpt>
      <trkpt lat="44.34118" lon="5.28138">
        <ele>417</ele>
        <time>2021-11-13T15:01:01.288Z</time>
      </trkpt>
      <trkpt lat="44.34115" lon="5.28135">
        <ele>417</ele>
        <time>2021-11-13T15:01:02.288Z</time>
      </trkpt>
      <trkpt lat="44.34113" lon="5.28131">
        <ele>417</ele>
        <time>2021-11-13T15:01:03.288Z</time>
      </trkpt>
      <trkpt lat="44.34111" lon="5.28127">
        <ele>417</ele>
        <time>2021-11-13T15:01:04.287Z</time>
      </trkpt>
      <trkpt lat="44.3411" lon="5.28124">
        <ele>416</ele>
        <time>2021-11-13T15:01:05.288Z</time>
      </trkpt>
      <trkpt lat="44.34108" lon="5.28121">
        <ele>416</ele>
        <time>2021-11-13T15:01:06.288Z</time>
      </trkpt>
      <trkpt lat="44.34106" lon="5.28117">
        <ele>416</ele>
        <time>2021-11-13T15:01:07.287Z</time>
      </trkpt>
      <trkpt lat="44.34104" lon="5.28114">
        <ele>416</ele>
        <time>2021-11-13T15:01:08.288Z</time>
      </trkpt>
      <trkpt lat="44.34103" lon="5.2811">
        <ele>416</ele>
        <time>2021-11-13T15:01:09.288Z</time>
      </trkpt>
      <trkpt lat="44.34102" lon="5.28107">
        <ele>415</ele>
        <time>2021-11-13T15:01:10.288Z</time>
      </trkpt>
      <trkpt lat="44.34102" lon="5.28103">
        <ele>415</ele>
        <time>2021-11-13T15:01:11.287Z</time>
      </trkpt>
      <trkpt lat="44.34101" lon="5.28099">
        <ele>415</ele>
        <time>2021-11-13T15:01:12.287Z</time>
      </trkpt>
      <trkpt lat="44.34101" lon="5.28095">
        <ele>414</ele>
        <time>2021-11-13T15:01:13.288Z</time>
      </trkpt>
      <trkpt lat="44.341" lon="5.28091">
        <ele>414</ele>
        <time>2021-11-13T15:01:14.287Z</time>
      </trkpt>
      <trkpt lat="44.341" lon="5.28087">
        <ele>415</ele>
        <time>2021-11-13T15:01:15.287Z</time>
      </trkpt>
      <trkpt lat="44.34099" lon="5.28083">
        <ele>415</ele>
        <time>2021-11-13T15:01:16.288Z</time>
      </trkpt>
      <trkpt lat="44.34099" lon="5.28078">
        <ele>415</ele>
        <time>2021-11-13T15:01:17.288Z</time>
      </trkpt>
      <trkpt lat="44.34099" lon="5.28074">
        <ele>415</ele>
        <time>2021-11-13T15:01:18.288Z</time>
      </trkpt>
      <trkpt lat="44.34098" lon="5.28069">
        <ele>415</ele>
        <time>2021-11-13T15:01:19.288Z</time>
      </trkpt>
      <trkpt lat="44.34098" lon="5.28064">
        <ele>415</ele>
        <time>2021-11-13T15:01:20.288Z</time>
      </trkpt>
      <trkpt lat="44.34097" lon="5.2806">
        <ele>415</ele>
        <time>2021-11-13T15:01:21.288Z</time>
      </trkpt>
      <trkpt lat="44.34097" lon="5.28055">
        <ele>415</ele>
        <time>2021-11-13T15:01:22.288Z</time>
      </trkpt>
      <trkpt lat="44.34096" lon="5.2805">
        <ele>415</ele>
        <time>2021-11-13T15:01:23.288Z</time>
      </trkpt>
      <trkpt lat="44.34096" lon="5.28045">
        <ele>415</ele>
        <time>2021-11-13T15:01:24.288Z</time>
      </trkpt>
      <trkpt lat="44.34096" lon="5.2804">
        <ele>415</ele>
        <time>2021-11-13T15:01:25.288Z</time>
      </trkpt>
      <trkpt lat="44.34095" lon="5.28035">
        <ele>415</ele>
        <time>2021-11-13T15:01:26.288Z</time>
      </trkpt>
      <trkpt lat="44.34095" lon="5.2803">
        <ele>414</ele>
        <time>2021-11-13T15:01:27.288Z</time>
      </trkpt>
      <trkpt lat="44.34095" lon="5.28025">
        <ele>414</ele>
        <time>2021-11-13T15:01:28.287Z</time>
      </trkpt>
      <trkpt lat="44.34094" lon="5.2802">
        <ele>413</ele>
        <time>2021-11-13T15:01:29.288Z</time>
      </trkpt>
      <trkpt lat="44.34094" lon="5.28015">
        <ele>413</ele>
        <time>2021-11-13T15:01:30.288Z</time>
      </trkpt>
      <trkpt lat="44.34093" lon="5.2801">
        <ele>413</ele>
        <time>2021-11-13T15:01:31.288Z</time>
      </trkpt>
      <trkpt lat="44.34093" lon="5.28004">
        <ele>414</ele>
        <time>2021-11-13T15:01:32.288Z</time>
      </trkpt>
      <trkpt lat="44.34093" lon="5.27999">
        <ele>414</ele>
        <time>2021-11-13T15:01:33.288Z</time>
      </trkpt>
      <trkpt lat="44.34093" lon="5.27995">
        <ele>414</ele>
        <time>2021-11-13T15:01:34.288Z</time>
      </trkpt>
      <trkpt lat="44.34093" lon="5.2799">
        <ele>414</ele>
        <time>2021-11-13T15:01:35.288Z</time>
      </trkpt>
      <trkpt lat="44.34092" lon="5.27985">
        <ele>414</ele>
        <time>2021-11-13T15:01:36.288Z</time>
      </trkpt>
      <trkpt lat="44.34092" lon="5.2798">
        <ele>414</ele>
        <time>2021-11-13T15:01:37.287Z</time>
      </trkpt>
      <trkpt lat="44.34092" lon="5.27975">
        <ele>414</ele>
        <time>2021-11-13T15:01:38.288Z</time>
      </trkpt>
      <trkpt lat="44.34092" lon="5.2797">
        <ele>414</ele>
        <time>2021-11-13T15:01:39.287Z</time>
      </trkpt>
      <trkpt lat="44.34092" lon="5.27966">
        <ele>414</ele>
        <time>2021-11-13T15:01:40.288Z</time>
      </trkpt>
      <trkpt lat="44.34092" lon="5.27961">
        <ele>415</ele>
        <time>2021-11-13T15:01:41.287Z</time>
      </trkpt>
      <trkpt lat="44.34092" lon="5.27956">
        <ele>415</ele>
        <time>2021-11-13T15:01:42.287Z</time>
      </trkpt>
      <trkpt lat="44.34093" lon="5.27951">
        <ele>415</ele>
        <time>2021-11-13T15:01:43.288Z</time>
      </trkpt>
      <trkpt lat="44.34093" lon="5.27946">
        <ele>415</ele>
        <time>2021-11-13T15:01:44.288Z</time>
      </trkpt>
      <trkpt lat="44.34093" lon="5.27942">
        <ele>415</ele>
        <time>2021-11-13T15:01:45.287Z</time>
      </trkpt>
      <trkpt lat="44.34093" lon="5.27937">
        <ele>415</ele>
        <time>2021-11-13T15:01:46.288Z</time>
      </trkpt>
      <trkpt lat="44.34093" lon="5.27933">
        <ele>415</ele>
        <time>2021-11-13T15:01:47.287Z</time>
      </trkpt>
      <trkpt lat="44.34092" lon="5.27929">
        <ele>416</ele>
        <time>2021-11-13T15:01:48.288Z</time>
      </trkpt>
      <trkpt lat="44.34091" lon="5.27924">
        <ele>416</ele>
        <time>2021-11-13T15:01:49.288Z</time>
      </trkpt>
      <trkpt lat="44.3409" lon="5.2792">
        <ele>417</ele>
        <time>2021-11-13T15:01:50.288Z</time>
      </trkpt>
      <trkpt lat="44.34089" lon="5.27916">
        <ele>417</ele>
        <time>2021-11-13T15:01:51.287Z</time>
      </trkpt>
      <trkpt lat="44.34088" lon="5.27912">
        <ele>417</ele>
        <time>2021-11-13T15:01:52.287Z</time>
      </trkpt>
      <trkpt lat="44.34087" lon="5.27908">
        <ele>417</ele>
        <time>2021-11-13T15:01:53.287Z</time>
      </trkpt>
      <trkpt lat="44.34085" lon="5.27904">
        <ele>417</ele>
        <time>2021-11-13T15:01:54.288Z</time>
      </trkpt>
      <trkpt lat="44.34084" lon="5.27899">
        <ele>416</ele>
        <time>2021-11-13T15:01:55.287Z</time>
      </trkpt>
      <trkpt lat="44.34082" lon="5.27895">
        <ele>416</ele>
        <time>2021-11-13T15:01:56.287Z</time>
      </trkpt>
      <trkpt lat="44.3408" lon="5.2789">
        <ele>416</ele>
        <time>2021-11-13T15:01:57.287Z</time>
      </trkpt>
      <trkpt lat="44.34078" lon="5.27886">
        <ele>416</ele>
        <time>2021-11-13T15:01:58.288Z</time>
      </trkpt>
      <trkpt lat="44.34077" lon="5.27881">
        <ele>416</ele>
        <time>2021-11-13T15:01:59.288Z</time>
      </trkpt>
      <trkpt lat="44.34075" lon="5.27876">
        <ele>417</ele>
        <time>2021-11-13T15:02:00.288Z</time>
      </trkpt>
      <trkpt lat="44.34073" lon="5.27871">
        <ele>417</ele>
        <time>2021-11-13T15:02:01.288Z</time>
      </trkpt>
      <trkpt lat="44.34071" lon="5.27867">
        <ele>417</ele>
        <time>2021-11-13T15:02:28.430Z</time>
      </trkpt>
      <trkpt lat="44.34069" lon="5.27863">
        <ele>416</ele>
        <time>2021-11-13T15:02:29.429Z</time>
      </trkpt>
      <trkpt lat="44.34067" lon="5.27858">
        <ele>416</ele>
        <time>2021-11-13T15:02:30.430Z</time>
      </trkpt>
      <trkpt lat="44.34064" lon="5.27853">
        <ele>416</ele>
        <time>2021-11-13T15:02:31.429Z</time>
      </trkpt>
      <trkpt lat="44.34062" lon="5.2785">
        <ele>416</ele>
        <time>2021-11-13T15:02:32.430Z</time>
      </trkpt>
      <trkpt lat="44.3406" lon="5.27845">
        <ele>417</ele>
        <time>2021-11-13T15:02:33.429Z</time>
      </trkpt>
      <trkpt lat="44.34058" lon="5.27841">
        <ele>417</ele>
        <time>2021-11-13T15:02:34.430Z</time>
      </trkpt>
      <trkpt lat="44.34055" lon="5.27837">
        <ele>417</ele>
        <time>2021-11-13T15:02:35.430Z</time>
      </trkpt>
      <trkpt lat="44.34053" lon="5.27833">
        <ele>418</ele>
        <time>2021-11-13T15:02:36.430Z</time>
      </trkpt>
      <trkpt lat="44.34051" lon="5.27829">
        <ele>418</ele>
        <time>2021-11-13T15:02:37.430Z</time>
      </trkpt>
      <trkpt lat="44.34049" lon="5.27825">
        <ele>418</ele>
        <time>2021-11-13T15:02:38.430Z</time>
      </trkpt>
      <trkpt lat="44.34047" lon="5.27821">
        <ele>418</ele>
        <time>2021-11-13T15:02:39.430Z</time>
      </trkpt>
      <trkpt lat="44.34045" lon="5.27817">
        <ele>418</ele>
        <time>2021-11-13T15:02:40.429Z</time>
      </trkpt>
      <trkpt lat="44.34043" lon="5.27813">
        <ele>418</ele>
        <time>2021-11-13T15:02:41.430Z</time>
      </trkpt>
      <trkpt lat="44.3404" lon="5.27808">
        <ele>418</ele>
        <time>2021-11-13T15:02:42.429Z</time>
      </trkpt>
      <trkpt lat="44.34038" lon="5.27805">
        <ele>418</ele>
        <time>2021-11-13T15:02:43.430Z</time>
      </trkpt>
      <trkpt lat="44.34036" lon="5.27801">
        <ele>418</ele>
        <time>2021-11-13T15:02:44.429Z</time>
      </trkpt>
      <trkpt lat="44.34034" lon="5.27796">
        <ele>418</ele>
        <time>2021-11-13T15:02:45.430Z</time>
      </trkpt>
      <trkpt lat="44.34032" lon="5.27792">
        <ele>418</ele>
        <time>2021-11-13T15:02:46.429Z</time>
      </trkpt>
      <trkpt lat="44.3403" lon="5.27787">
        <ele>418</ele>
        <time>2021-11-13T15:02:47.430Z</time>
      </trkpt>
      <trkpt lat="44.34028" lon="5.27783">
        <ele>417</ele>
        <time>2021-11-13T15:02:48.429Z</time>
      </trkpt>
      <trkpt lat="44.34027" lon="5.27778">
        <ele>417</ele>
        <time>2021-11-13T15:02:49.429Z</time>
      </trkpt>
      <trkpt lat="44.34025" lon="5.27774">
        <ele>416</ele>
        <time>2021-11-13T15:02:50.430Z</time>
      </trkpt>
      <trkpt lat="44.34023" lon="5.27769">
        <ele>416</ele>
        <time>2021-11-13T15:02:51.430Z</time>
      </trkpt>
      <trkpt lat="44.34021" lon="5.27764">
        <ele>417</ele>
        <time>2021-11-13T15:02:52.429Z</time>
      </trkpt>
      <trkpt lat="44.34019" lon="5.27759">
        <ele>417</ele>
        <time>2021-11-13T15:02:53.429Z</time>
      </trkpt>
      <trkpt lat="44.34018" lon="5.27755">
        <ele>417</ele>
        <time>2021-11-13T15:02:54.430Z</time>
      </trkpt>
      <trkpt lat="44.34016" lon="5.27751">
        <ele>418</ele>
        <time>2021-11-13T15:02:55.429Z</time>
      </trkpt>
      <trkpt lat="44.34014" lon="5.27746">
        <ele>418</ele>
        <time>2021-11-13T15:02:56.430Z</time>
      </trkpt>
      <trkpt lat="44.34012" lon="5.27741">
        <ele>418</ele>
        <time>2021-11-13T15:02:57.430Z</time>
      </trkpt>
      <trkpt lat="44.3401" lon="5.27737">
        <ele>418</ele>
        <time>2021-11-13T15:02:58.430Z</time>
      </trkpt>
      <trkpt lat="44.34008" lon="5.27733">
        <ele>418</ele>
        <time>2021-11-13T15:02:59.430Z</time>
      </trkpt>
      <trkpt lat="44.34007" lon="5.27728">
        <ele>418</ele>
        <time>2021-11-13T15:03:00.430Z</time>
      </trkpt>
      <trkpt lat="44.34004" lon="5.27723">
        <ele>418</ele>
        <time>2021-11-13T15:03:01.430Z</time>
      </trkpt>
      <trkpt lat="44.34003" lon="5.27719">
        <ele>418</ele>
        <time>2021-11-13T15:03:02.430Z</time>
      </trkpt>
      <trkpt lat="44.34001" lon="5.27715">
        <ele>418</ele>
        <time>2021-11-13T15:03:03.430Z</time>
      </trkpt>
      <trkpt lat="44.33999" lon="5.2771">
        <ele>418</ele>
        <time>2021-11-13T15:03:04.430Z</time>
      </trkpt>
      <trkpt lat="44.33997" lon="5.27706">
        <ele>418</ele>
        <time>2021-11-13T15:03:05.430Z</time>
      </trkpt>
      <trkpt lat="44.33995" lon="5.27701">
        <ele>418</ele>
        <time>2021-11-13T15:03:06.430Z</time>
      </trkpt>
      <trkpt lat="44.33994" lon="5.27697">
        <ele>418</ele>
        <time>2021-11-13T15:03:07.430Z</time>
      </trkpt>
      <trkpt lat="44.33992" lon="5.27693">
        <ele>418</ele>
        <time>2021-11-13T15:03:08.430Z</time>
      </trkpt>
      <trkpt lat="44.3399" lon="5.27688">
        <ele>419</ele>
        <time>2021-11-13T15:03:09.430Z</time>
      </trkpt>
      <trkpt lat="44.33988" lon="5.27684">
        <ele>420</ele>
        <time>2021-11-13T15:03:10.430Z</time>
      </trkpt>
      <trkpt lat="44.33986" lon="5.27679">
        <ele>420</ele>
        <time>2021-11-13T15:03:11.429Z</time>
      </trkpt>
      <trkpt lat="44.33985" lon="5.27675">
        <ele>420</ele>
        <time>2021-11-13T15:03:12.430Z</time>
      </trkpt>
      <trkpt lat="44.33984" lon="5.27671">
        <ele>420</ele>
        <time>2021-11-13T15:03:13.429Z</time>
      </trkpt>
      <trkpt lat="44.33983" lon="5.27667">
        <ele>420</ele>
        <time>2021-11-13T15:03:14.430Z</time>
      </trkpt>
      <trkpt lat="44.33982" lon="5.27663">
        <ele>420</ele>
        <time>2021-11-13T15:03:15.430Z</time>
      </trkpt>
      <trkpt lat="44.33982" lon="5.27659">
        <ele>421</ele>
        <time>2021-11-13T15:03:16.429Z</time>
      </trkpt>
      <trkpt lat="44.33981" lon="5.27655">
        <ele>421</ele>
        <time>2021-11-13T15:03:17.429Z</time>
      </trkpt>
      <trkpt lat="44.33981" lon="5.27651">
        <ele>421</ele>
        <time>2021-11-13T15:03:18.429Z</time>
      </trkpt>
      <trkpt lat="44.33982" lon="5.27646">
        <ele>421</ele>
        <time>2021-11-13T15:03:19.429Z</time>
      </trkpt>
      <trkpt lat="44.33983" lon="5.27642">
        <ele>421</ele>
        <time>2021-11-13T15:03:20.429Z</time>
      </trkpt>
      <trkpt lat="44.33983" lon="5.27638">
        <ele>420</ele>
        <time>2021-11-13T15:03:21.430Z</time>
      </trkpt>
      <trkpt lat="44.33984" lon="5.27635">
        <ele>420</ele>
        <time>2021-11-13T15:03:22.430Z</time>
      </trkpt>
      <trkpt lat="44.33985" lon="5.27631">
        <ele>419</ele>
        <time>2021-11-13T15:03:23.430Z</time>
      </trkpt>
      <trkpt lat="44.33986" lon="5.27627">
        <ele>418</ele>
        <time>2021-11-13T15:03:24.429Z</time>
      </trkpt>
      <trkpt lat="44.33987" lon="5.27624">
        <ele>418</ele>
        <time>2021-11-13T15:03:25.430Z</time>
      </trkpt>
      <trkpt lat="44.33988" lon="5.2762">
        <ele>417</ele>
        <time>2021-11-13T15:03:26.429Z</time>
      </trkpt>
      <trkpt lat="44.33989" lon="5.27616">
        <ele>417</ele>
        <time>2021-11-13T15:03:27.429Z</time>
      </trkpt>
      <trkpt lat="44.3399" lon="5.27612">
        <ele>417</ele>
        <time>2021-11-13T15:03:28.430Z</time>
      </trkpt>
      <trkpt lat="44.33991" lon="5.27608">
        <ele>417</ele>
        <time>2021-11-13T15:03:29.430Z</time>
      </trkpt>
      <trkpt lat="44.33992" lon="5.27604">
        <ele>417</ele>
        <time>2021-11-13T15:03:30.430Z</time>
      </trkpt>
      <trkpt lat="44.33993" lon="5.276">
        <ele>417</ele>
        <time>2021-11-13T15:03:31.430Z</time>
      </trkpt>
      <trkpt lat="44.33994" lon="5.27596">
        <ele>418</ele>
        <time>2021-11-13T15:03:32.430Z</time>
      </trkpt>
      <trkpt lat="44.33995" lon="5.27593">
        <ele>418</ele>
        <time>2021-11-13T15:03:33.430Z</time>
      </trkpt>
      <trkpt lat="44.33995" lon="5.27589">
        <ele>418</ele>
        <time>2021-11-13T15:03:34.430Z</time>
      </trkpt>
      <trkpt lat="44.33996" lon="5.27585">
        <ele>418</ele>
        <time>2021-11-13T15:03:35.430Z</time>
      </trkpt>
      <trkpt lat="44.33997" lon="5.27581">
        <ele>419</ele>
        <time>2021-11-13T15:03:36.429Z</time>
      </trkpt>
      <trkpt lat="44.33998" lon="5.27576">
        <ele>419</ele>
        <time>2021-11-13T15:03:37.430Z</time>
      </trkpt>
      <trkpt lat="44.33998" lon="5.27573">
        <ele>419</ele>
        <time>2021-11-13T15:03:38.430Z</time>
      </trkpt>
      <trkpt lat="44.33998" lon="5.27568">
        <ele>419</ele>
        <time>2021-11-13T15:03:39.429Z</time>
      </trkpt>
      <trkpt lat="44.33998" lon="5.27564">
        <ele>419</ele>
        <time>2021-11-13T15:03:40.429Z</time>
      </trkpt>
      <trkpt lat="44.33998" lon="5.2756">
        <ele>420</ele>
        <time>2021-11-13T15:03:41.430Z</time>
      </trkpt>
      <trkpt lat="44.33998" lon="5.27557">
        <ele>419</ele>
        <time>2021-11-13T15:03:42.430Z</time>
      </trkpt>
      <trkpt lat="44.33997" lon="5.27553">
        <ele>419</ele>
        <time>2021-11-13T15:03:43.429Z</time>
      </trkpt>
      <trkpt lat="44.33996" lon="5.27549">
        <ele>419</ele>
        <time>2021-11-13T15:03:44.430Z</time>
      </trkpt>
      <trkpt lat="44.33996" lon="5.27545">
        <ele>419</ele>
        <time>2021-11-13T15:03:45.430Z</time>
      </trkpt>
      <trkpt lat="44.33995" lon="5.27541">
        <ele>419</ele>
        <time>2021-11-13T15:03:46.430Z</time>
      </trkpt>
      <trkpt lat="44.33994" lon="5.27537">
        <ele>419</ele>
        <time>2021-11-13T15:03:47.430Z</time>
      </trkpt>
      <trkpt lat="44.33992" lon="5.27533">
        <ele>419</ele>
        <time>2021-11-13T15:03:48.429Z</time>
      </trkpt>
      <trkpt lat="44.33991" lon="5.27528">
        <ele>419</ele>
        <time>2021-11-13T15:03:49.429Z</time>
      </trkpt>
      <trkpt lat="44.3399" lon="5.27524">
        <ele>419</ele>
        <time>2021-11-13T15:03:50.430Z</time>
      </trkpt>
      <trkpt lat="44.33988" lon="5.27519">
        <ele>419</ele>
        <time>2021-11-13T15:03:51.430Z</time>
      </trkpt>
      <trkpt lat="44.33987" lon="5.27515">
        <ele>419</ele>
        <time>2021-11-13T15:03:52.430Z</time>
      </trkpt>
      <trkpt lat="44.33986" lon="5.2751">
        <ele>419</ele>
        <time>2021-11-13T15:03:53.430Z</time>
      </trkpt>
      <trkpt lat="44.33985" lon="5.27506">
        <ele>419</ele>
        <time>2021-11-13T15:03:54.430Z</time>
      </trkpt>
      <trkpt lat="44.33984" lon="5.27501">
        <ele>419</ele>
        <time>2021-11-13T15:03:55.429Z</time>
      </trkpt>
      <trkpt lat="44.33983" lon="5.27496">
        <ele>419</ele>
        <time>2021-11-13T15:03:56.430Z</time>
      </trkpt>
      <trkpt lat="44.33983" lon="5.27491">
        <ele>419</ele>
        <time>2021-11-13T15:03:57.430Z</time>
      </trkpt>
      <trkpt lat="44.33984" lon="5.27486">
        <ele>419</ele>
        <time>2021-11-13T15:03:58.429Z</time>
      </trkpt>
      <trkpt lat="44.33984" lon="5.27482">
        <ele>419</ele>
        <time>2021-11-13T15:03:59.430Z</time>
      </trkpt>
      <trkpt lat="44.33985" lon="5.27477">
        <ele>420</ele>
        <time>2021-11-13T15:04:00.430Z</time>
      </trkpt>
      <trkpt lat="44.33986" lon="5.27472">
        <ele>420</ele>
        <time>2021-11-13T15:04:01.430Z</time>
      </trkpt>
      <trkpt lat="44.33988" lon="5.27467">
        <ele>421</ele>
        <time>2021-11-13T15:04:02.429Z</time>
      </trkpt>
      <trkpt lat="44.3399" lon="5.27462">
        <ele>421</ele>
        <time>2021-11-13T15:04:03.429Z</time>
      </trkpt>
      <trkpt lat="44.33993" lon="5.27458">
        <ele>421</ele>
        <time>2021-11-13T15:04:04.429Z</time>
      </trkpt>
      <trkpt lat="44.33995" lon="5.27455">
        <ele>421</ele>
        <time>2021-11-13T15:04:05.430Z</time>
      </trkpt>
      <trkpt lat="44.33997" lon="5.27451">
        <ele>421</ele>
        <time>2021-11-13T15:04:06.429Z</time>
      </trkpt>
      <trkpt lat="44.33999" lon="5.27447">
        <ele>422</ele>
        <time>2021-11-13T15:04:07.429Z</time>
      </trkpt>
      <trkpt lat="44.34" lon="5.27444">
        <ele>422</ele>
        <time>2021-11-13T15:04:08.430Z</time>
      </trkpt>
      <trkpt lat="44.34001" lon="5.2744">
        <ele>422</ele>
        <time>2021-11-13T15:04:09.429Z</time>
      </trkpt>
      <trkpt lat="44.34" lon="5.27436">
        <ele>422</ele>
        <time>2021-11-13T15:04:10.430Z</time>
      </trkpt>
      <trkpt lat="44.34" lon="5.27433">
        <ele>422</ele>
        <time>2021-11-13T15:04:11.429Z</time>
      </trkpt>
      <trkpt lat="44.33999" lon="5.27429">
        <ele>422</ele>
        <time>2021-11-13T15:04:12.430Z</time>
      </trkpt>
      <trkpt lat="44.33997" lon="5.27426">
        <ele>422</ele>
        <time>2021-11-13T15:04:13.430Z</time>
      </trkpt>
      <trkpt lat="44.33996" lon="5.27423">
        <ele>422</ele>
        <time>2021-11-13T15:04:14.430Z</time>
      </trkpt>
      <trkpt lat="44.33994" lon="5.27421">
        <ele>422</ele>
        <time>2021-11-13T15:04:15.429Z</time>
      </trkpt>
      <trkpt lat="44.33992" lon="5.27418">
        <ele>423</ele>
        <time>2021-11-13T15:04:16.430Z</time>
      </trkpt>
      <trkpt lat="44.3399" lon="5.27415">
        <ele>423</ele>
        <time>2021-11-13T15:04:17.430Z</time>
      </trkpt>
      <trkpt lat="44.33988" lon="5.27412">
        <ele>423</ele>
        <time>2021-11-13T15:04:18.429Z</time>
      </trkpt>
      <trkpt lat="44.33986" lon="5.27409">
        <ele>423</ele>
        <time>2021-11-13T15:04:19.429Z</time>
      </trkpt>
      <trkpt lat="44.33985" lon="5.27406">
        <ele>422</ele>
        <time>2021-11-13T15:04:20.430Z</time>
      </trkpt>
      <trkpt lat="44.33983" lon="5.27403">
        <ele>422</ele>
        <time>2021-11-13T15:04:21.430Z</time>
      </trkpt>
      <trkpt lat="44.3398" lon="5.27399">
        <ele>423</ele>
        <time>2021-11-13T15:04:22.430Z</time>
      </trkpt>
      <trkpt lat="44.33978" lon="5.27395">
        <ele>423</ele>
        <time>2021-11-13T15:04:23.430Z</time>
      </trkpt>
      <trkpt lat="44.33976" lon="5.27391">
        <ele>423</ele>
        <time>2021-11-13T15:04:24.430Z</time>
      </trkpt>
      <trkpt lat="44.33974" lon="5.27388">
        <ele>424</ele>
        <time>2021-11-13T15:04:25.430Z</time>
      </trkpt>
      <trkpt lat="44.33972" lon="5.27384">
        <ele>425</ele>
        <time>2021-11-13T15:04:26.430Z</time>
      </trkpt>
      <trkpt lat="44.3397" lon="5.2738">
        <ele>425</ele>
        <time>2021-11-13T15:04:27.430Z</time>
      </trkpt>
      <trkpt lat="44.33968" lon="5.27376">
        <ele>426</ele>
        <time>2021-11-13T15:04:28.430Z</time>
      </trkpt>
      <trkpt lat="44.33965" lon="5.27371">
        <ele>425</ele>
        <time>2021-11-13T15:04:29.430Z</time>
      </trkpt>
      <trkpt lat="44.33963" lon="5.27367">
        <ele>425</ele>
        <time>2021-11-13T15:04:30.430Z</time>
      </trkpt>
      <trkpt lat="44.33962" lon="5.27363">
        <ele>425</ele>
        <time>2021-11-13T15:04:31.430Z</time>
      </trkpt>
      <trkpt lat="44.3396" lon="5.27358">
        <ele>424</ele>
        <time>2021-11-13T15:04:32.429Z</time>
      </trkpt>
      <trkpt lat="44.33958" lon="5.27354">
        <ele>423</ele>
        <time>2021-11-13T15:04:33.430Z</time>
      </trkpt>
      <trkpt lat="44.33957" lon="5.27349">
        <ele>423</ele>
        <time>2021-11-13T15:04:34.430Z</time>
      </trkpt>
      <trkpt lat="44.33956" lon="5.27345">
        <ele>423</ele>
        <time>2021-11-13T15:04:35.430Z</time>
      </trkpt>
      <trkpt lat="44.33955" lon="5.27339">
        <ele>423</ele>
        <time>2021-11-13T15:04:36.430Z</time>
      </trkpt>
      <trkpt lat="44.33955" lon="5.27334">
        <ele>423</ele>
        <time>2021-11-13T15:04:37.430Z</time>
      </trkpt>
      <trkpt lat="44.33954" lon="5.27329">
        <ele>423</ele>
        <time>2021-11-13T15:04:38.430Z</time>
      </trkpt>
      <trkpt lat="44.33954" lon="5.27325">
        <ele>424</ele>
        <time>2021-11-13T15:04:39.430Z</time>
      </trkpt>
      <trkpt lat="44.33954" lon="5.2732">
        <ele>425</ele>
        <time>2021-11-13T15:04:40.430Z</time>
      </trkpt>
      <trkpt lat="44.33954" lon="5.27316">
        <ele>425</ele>
        <time>2021-11-13T15:04:41.429Z</time>
      </trkpt>
      <trkpt lat="44.33954" lon="5.27311">
        <ele>426</ele>
        <time>2021-11-13T15:04:42.430Z</time>
      </trkpt>
      <trkpt lat="44.33954" lon="5.27307">
        <ele>426</ele>
        <time>2021-11-13T15:04:43.430Z</time>
      </trkpt>
      <trkpt lat="44.33955" lon="5.27303">
        <ele>426</ele>
        <time>2021-11-13T15:04:44.429Z</time>
      </trkpt>
      <trkpt lat="44.33955" lon="5.273">
        <ele>426</ele>
        <time>2021-11-13T15:04:45.430Z</time>
      </trkpt>
      <trkpt lat="44.33955" lon="5.27296">
        <ele>426</ele>
        <time>2021-11-13T15:04:46.430Z</time>
      </trkpt>
      <trkpt lat="44.33955" lon="5.27293">
        <ele>427</ele>
        <time>2021-11-13T15:04:47.429Z</time>
      </trkpt>
      <trkpt lat="44.33955" lon="5.2729">
        <ele>427</ele>
        <time>2021-11-13T15:04:48.430Z</time>
      </trkpt>
      <trkpt lat="44.33955" lon="5.27286">
        <ele>427</ele>
        <time>2021-11-13T15:04:49.430Z</time>
      </trkpt>
      <trkpt lat="44.33955" lon="5.27283">
        <ele>426</ele>
        <time>2021-11-13T15:04:50.429Z</time>
      </trkpt>
      <trkpt lat="44.33955" lon="5.27279">
        <ele>426</ele>
        <time>2021-11-13T15:04:51.430Z</time>
      </trkpt>
      <trkpt lat="44.33955" lon="5.27276">
        <ele>426</ele>
        <time>2021-11-13T15:04:52.430Z</time>
      </trkpt>
      <trkpt lat="44.33955" lon="5.27272">
        <ele>426</ele>
        <time>2021-11-13T15:04:53.429Z</time>
      </trkpt>
      <trkpt lat="44.33955" lon="5.27268">
        <ele>426</ele>
        <time>2021-11-13T15:04:54.430Z</time>
      </trkpt>
      <trkpt lat="44.33955" lon="5.27265">
        <ele>426</ele>
        <time>2021-11-13T15:04:55.430Z</time>
      </trkpt>
      <trkpt lat="44.33955" lon="5.27261">
        <ele>426</ele>
        <time>2021-11-13T15:04:56.430Z</time>
      </trkpt>
      <trkpt lat="44.33955" lon="5.27257">
        <ele>427</ele>
        <time>2021-11-13T15:04:57.430Z</time>
      </trkpt>
      <trkpt lat="44.33954" lon="5.27254">
        <ele>427</ele>
        <time>2021-11-13T15:04:58.429Z</time>
      </trkpt>
      <trkpt lat="44.33954" lon="5.2725">
        <ele>426</ele>
        <time>2021-11-13T15:04:59.430Z</time>
      </trkpt>
      <trkpt lat="44.33953" lon="5.27246">
        <ele>426</ele>
        <time>2021-11-13T15:05:00.430Z</time>
      </trkpt>
      <trkpt lat="44.33952" lon="5.27243">
        <ele>426</ele>
        <time>2021-11-13T15:05:01.430Z</time>
      </trkpt>
      <trkpt lat="44.33951" lon="5.27239">
        <ele>427</ele>
        <time>2021-11-13T15:05:02.430Z</time>
      </trkpt>
      <trkpt lat="44.33951" lon="5.27235">
        <ele>427</ele>
        <time>2021-11-13T15:05:03.430Z</time>
      </trkpt>
      <trkpt lat="44.3395" lon="5.27231">
        <ele>428</ele>
        <time>2021-11-13T15:05:04.430Z</time>
      </trkpt>
      <trkpt lat="44.33949" lon="5.27227">
        <ele>428</ele>
        <time>2021-11-13T15:05:05.430Z</time>
      </trkpt>
      <trkpt lat="44.33948" lon="5.27224">
        <ele>428</ele>
        <time>2021-11-13T15:05:06.430Z</time>
      </trkpt>
      <trkpt lat="44.33947" lon="5.2722">
        <ele>428</ele>
        <time>2021-11-13T15:05:07.429Z</time>
      </trkpt>
      <trkpt lat="44.33947" lon="5.27217">
        <ele>428</ele>
        <time>2021-11-13T15:05:08.430Z</time>
      </trkpt>
      <trkpt lat="44.33946" lon="5.27213">
        <ele>428</ele>
        <time>2021-11-13T15:05:09.430Z</time>
      </trkpt>
      <trkpt lat="44.33945" lon="5.2721">
        <ele>428</ele>
        <time>2021-11-13T15:05:10.430Z</time>
      </trkpt>
      <trkpt lat="44.33944" lon="5.27206">
        <ele>429</ele>
        <time>2021-11-13T15:05:11.430Z</time>
      </trkpt>
      <trkpt lat="44.33943" lon="5.27203">
        <ele>430</ele>
        <time>2021-11-13T15:05:12.430Z</time>
      </trkpt>
      <trkpt lat="44.33942" lon="5.27199">
        <ele>431</ele>
        <time>2021-11-13T15:05:13.430Z</time>
      </trkpt>
      <trkpt lat="44.33941" lon="5.27196">
        <ele>431</ele>
        <time>2021-11-13T15:05:14.430Z</time>
      </trkpt>
      <trkpt lat="44.33941" lon="5.27193">
        <ele>431</ele>
        <time>2021-11-13T15:05:15.429Z</time>
      </trkpt>
      <trkpt lat="44.3394" lon="5.2719">
        <ele>432</ele>
        <time>2021-11-13T15:05:16.430Z</time>
      </trkpt>
      <trkpt lat="44.33939" lon="5.27187">
        <ele>432</ele>
        <time>2021-11-13T15:05:17.430Z</time>
      </trkpt>
      <trkpt lat="44.33938" lon="5.27183">
        <ele>432</ele>
        <time>2021-11-13T15:05:18.430Z</time>
      </trkpt>
      <trkpt lat="44.33938" lon="5.2718">
        <ele>433</ele>
        <time>2021-11-13T15:05:19.430Z</time>
      </trkpt>
      <trkpt lat="44.33937" lon="5.27177">
        <ele>433</ele>
        <time>2021-11-13T15:05:20.430Z</time>
      </trkpt>
      <trkpt lat="44.33937" lon="5.27173">
        <ele>433</ele>
        <time>2021-11-13T15:05:21.430Z</time>
      </trkpt>
      <trkpt lat="44.33936" lon="5.2717">
        <ele>433</ele>
        <time>2021-11-13T15:05:22.430Z</time>
      </trkpt>
      <trkpt lat="44.33936" lon="5.27166">
        <ele>433</ele>
        <time>2021-11-13T15:05:23.430Z</time>
      </trkpt>
      <trkpt lat="44.33935" lon="5.27162">
        <ele>433</ele>
        <time>2021-11-13T15:05:24.429Z</time>
      </trkpt>
      <trkpt lat="44.33935" lon="5.27157">
        <ele>434</ele>
        <time>2021-11-13T15:05:25.430Z</time>
      </trkpt>
      <trkpt lat="44.33935" lon="5.27154">
        <ele>434</ele>
        <time>2021-11-13T15:05:26.429Z</time>
      </trkpt>
      <trkpt lat="44.33935" lon="5.27151">
        <ele>434</ele>
        <time>2021-11-13T15:05:27.430Z</time>
      </trkpt>
      <trkpt lat="44.33935" lon="5.27148">
        <ele>434</ele>
        <time>2021-11-13T15:05:28.430Z</time>
      </trkpt>
      <trkpt lat="44.33935" lon="5.27144">
        <ele>434</ele>
        <time>2021-11-13T15:05:29.430Z</time>
      </trkpt>
      <trkpt lat="44.33934" lon="5.27141">
        <ele>434</ele>
        <time>2021-11-13T15:05:30.430Z</time>
      </trkpt>
      <trkpt lat="44.33934" lon="5.27138">
        <ele>435</ele>
        <time>2021-11-13T15:05:31.430Z</time>
      </trkpt>
      <trkpt lat="44.33933" lon="5.27135">
        <ele>435</ele>
        <time>2021-11-13T15:05:32.430Z</time>
      </trkpt>
      <trkpt lat="44.33932" lon="5.27132">
        <ele>436</ele>
        <time>2021-11-13T15:05:33.430Z</time>
      </trkpt>
      <trkpt lat="44.33931" lon="5.2713">
        <ele>436</ele>
        <time>2021-11-13T15:05:34.430Z</time>
      </trkpt>
      <trkpt lat="44.3393" lon="5.27127">
        <ele>437</ele>
        <time>2021-11-13T15:05:35.429Z</time>
      </trkpt>
      <trkpt lat="44.33929" lon="5.27125">
        <ele>437</ele>
        <time>2021-11-13T15:05:36.429Z</time>
      </trkpt>
      <trkpt lat="44.33928" lon="5.27122">
        <ele>438</ele>
        <time>2021-11-13T15:05:37.430Z</time>
      </trkpt>
      <trkpt lat="44.33927" lon="5.2712">
        <ele>439</ele>
        <time>2021-11-13T15:05:38.430Z</time>
      </trkpt>
      <trkpt lat="44.33925" lon="5.27117">
        <ele>439</ele>
        <time>2021-11-13T15:05:39.430Z</time>
      </trkpt>
      <trkpt lat="44.33924" lon="5.27115">
        <ele>440</ele>
        <time>2021-11-13T15:05:40.430Z</time>
      </trkpt>
      <trkpt lat="44.33922" lon="5.27113">
        <ele>440</ele>
        <time>2021-11-13T15:05:41.429Z</time>
      </trkpt>
      <trkpt lat="44.33921" lon="5.27111">
        <ele>440</ele>
        <time>2021-11-13T15:05:42.430Z</time>
      </trkpt>
      <trkpt lat="44.33919" lon="5.27109">
        <ele>440</ele>
        <time>2021-11-13T15:05:43.430Z</time>
      </trkpt>
      <trkpt lat="44.33917" lon="5.27108">
        <ele>441</ele>
        <time>2021-11-13T15:05:44.430Z</time>
      </trkpt>
      <trkpt lat="44.33916" lon="5.27106">
        <ele>441</ele>
        <time>2021-11-13T15:05:45.430Z</time>
      </trkpt>
      <trkpt lat="44.33914" lon="5.27104">
        <ele>441</ele>
        <time>2021-11-13T15:05:46.430Z</time>
      </trkpt>
      <trkpt lat="44.33912" lon="5.27103">
        <ele>441</ele>
        <time>2021-11-13T15:05:47.430Z</time>
      </trkpt>
      <trkpt lat="44.3391" lon="5.27102">
        <ele>441</ele>
        <time>2021-11-13T15:05:48.430Z</time>
      </trkpt>
      <trkpt lat="44.33908" lon="5.27101">
        <ele>442</ele>
        <time>2021-11-13T15:05:49.430Z</time>
      </trkpt>
      <trkpt lat="44.33907" lon="5.271">
        <ele>442</ele>
        <time>2021-11-13T15:05:50.429Z</time>
      </trkpt>
      <trkpt lat="44.33905" lon="5.27098">
        <ele>442</ele>
        <time>2021-11-13T15:05:51.430Z</time>
      </trkpt>
      <trkpt lat="44.33903" lon="5.27097">
        <ele>443</ele>
        <time>2021-11-13T15:05:52.430Z</time>
      </trkpt>
      <trkpt lat="44.33902" lon="5.27095">
        <ele>443</ele>
        <time>2021-11-13T15:05:53.430Z</time>
      </trkpt>
      <trkpt lat="44.339" lon="5.27094">
        <ele>443</ele>
        <time>2021-11-13T15:05:54.430Z</time>
      </trkpt>
      <trkpt lat="44.33898" lon="5.27093">
        <ele>443</ele>
        <time>2021-11-13T15:05:55.430Z</time>
      </trkpt>
      <trkpt lat="44.33896" lon="5.27092">
        <ele>443</ele>
        <time>2021-11-13T15:05:56.430Z</time>
      </trkpt>
      <trkpt lat="44.33894" lon="5.27091">
        <ele>443</ele>
        <time>2021-11-13T15:05:57.430Z</time>
      </trkpt>
      <trkpt lat="44.33893" lon="5.2709">
        <ele>443</ele>
        <time>2021-11-13T15:05:58.430Z</time>
      </trkpt>
      <trkpt lat="44.33891" lon="5.27089">
        <ele>443</ele>
        <time>2021-11-13T15:05:59.430Z</time>
      </trkpt>
      <trkpt lat="44.33889" lon="5.27088">
        <ele>443</ele>
        <time>2021-11-13T15:06:00.429Z</time>
      </trkpt>
      <trkpt lat="44.33887" lon="5.27087">
        <ele>443</ele>
        <time>2021-11-13T15:06:01.430Z</time>
      </trkpt>
      <trkpt lat="44.33885" lon="5.27085">
        <ele>443</ele>
        <time>2021-11-13T15:06:02.430Z</time>
      </trkpt>
      <trkpt lat="44.33884" lon="5.27084">
        <ele>443</ele>
        <time>2021-11-13T15:06:03.430Z</time>
      </trkpt>
      <trkpt lat="44.33882" lon="5.27082">
        <ele>443</ele>
        <time>2021-11-13T15:06:04.430Z</time>
      </trkpt>
      <trkpt lat="44.33881" lon="5.2708">
        <ele>443</ele>
        <time>2021-11-13T15:06:05.430Z</time>
      </trkpt>
      <trkpt lat="44.3388" lon="5.27079">
        <ele>443</ele>
        <time>2021-11-13T15:06:06.429Z</time>
      </trkpt>
      <trkpt lat="44.33878" lon="5.27077">
        <ele>444</ele>
        <time>2021-11-13T15:06:07.430Z</time>
      </trkpt>
      <trkpt lat="44.33875" lon="5.27076">
        <ele>444</ele>
        <time>2021-11-13T15:06:08.429Z</time>
      </trkpt>
      <trkpt lat="44.33873" lon="5.27074">
        <ele>445</ele>
        <time>2021-11-13T15:06:09.429Z</time>
      </trkpt>
      <trkpt lat="44.33872" lon="5.27072">
        <ele>445</ele>
        <time>2021-11-13T15:06:10.430Z</time>
      </trkpt>
      <trkpt lat="44.3387" lon="5.27071">
        <ele>446</ele>
        <time>2021-11-13T15:06:11.430Z</time>
      </trkpt>
      <trkpt lat="44.33868" lon="5.27069">
        <ele>446</ele>
        <time>2021-11-13T15:06:12.430Z</time>
      </trkpt>
      <trkpt lat="44.33866" lon="5.27067">
        <ele>447</ele>
        <time>2021-11-13T15:06:13.430Z</time>
      </trkpt>
      <trkpt lat="44.33864" lon="5.27065">
        <ele>447</ele>
        <time>2021-11-13T15:06:14.429Z</time>
      </trkpt>
      <trkpt lat="44.33862" lon="5.27063">
        <ele>448</ele>
        <time>2021-11-13T15:06:15.430Z</time>
      </trkpt>
      <trkpt lat="44.3386" lon="5.27061">
        <ele>448</ele>
        <time>2021-11-13T15:06:16.430Z</time>
      </trkpt>
      <trkpt lat="44.33858" lon="5.27059">
        <ele>449</ele>
        <time>2021-11-13T15:06:17.429Z</time>
      </trkpt>
      <trkpt lat="44.33857" lon="5.27056">
        <ele>450</ele>
        <time>2021-11-13T15:06:18.430Z</time>
      </trkpt>
      <trkpt lat="44.33855" lon="5.27055">
        <ele>450</ele>
        <time>2021-11-13T15:06:19.430Z</time>
      </trkpt>
      <trkpt lat="44.33853" lon="5.27053">
        <ele>451</ele>
        <time>2021-11-13T15:06:20.430Z</time>
      </trkpt>
      <trkpt lat="44.33851" lon="5.2705">
        <ele>451</ele>
        <time>2021-11-13T15:06:21.430Z</time>
      </trkpt>
      <trkpt lat="44.3385" lon="5.27048">
        <ele>452</ele>
        <time>2021-11-13T15:06:22.430Z</time>
      </trkpt>
      <trkpt lat="44.33848" lon="5.27046">
        <ele>452</ele>
        <time>2021-11-13T15:06:23.430Z</time>
      </trkpt>
      <trkpt lat="44.33846" lon="5.27044">
        <ele>451</ele>
        <time>2021-11-13T15:06:24.430Z</time>
      </trkpt>
      <trkpt lat="44.33845" lon="5.27041">
        <ele>451</ele>
        <time>2021-11-13T15:06:25.430Z</time>
      </trkpt>
      <trkpt lat="44.33843" lon="5.27039">
        <ele>451</ele>
        <time>2021-11-13T15:06:26.430Z</time>
      </trkpt>
      <trkpt lat="44.33841" lon="5.27037">
        <ele>450</ele>
        <time>2021-11-13T15:06:27.430Z</time>
      </trkpt>
      <trkpt lat="44.3384" lon="5.27034">
        <ele>451</ele>
        <time>2021-11-13T15:06:28.430Z</time>
      </trkpt>
      <trkpt lat="44.33838" lon="5.27032">
        <ele>451</ele>
        <time>2021-11-13T15:06:29.429Z</time>
      </trkpt>
      <trkpt lat="44.33837" lon="5.2703">
        <ele>451</ele>
        <time>2021-11-13T15:06:30.430Z</time>
      </trkpt>
      <trkpt lat="44.33835" lon="5.27027">
        <ele>451</ele>
        <time>2021-11-13T15:06:31.430Z</time>
      </trkpt>
      <trkpt lat="44.33834" lon="5.27024">
        <ele>452</ele>
        <time>2021-11-13T15:06:32.430Z</time>
      </trkpt>
      <trkpt lat="44.33833" lon="5.27021">
        <ele>452</ele>
        <time>2021-11-13T15:06:33.430Z</time>
      </trkpt>
      <trkpt lat="44.33832" lon="5.27018">
        <ele>453</ele>
        <time>2021-11-13T15:06:34.430Z</time>
      </trkpt>
      <trkpt lat="44.33831" lon="5.27016">
        <ele>454</ele>
        <time>2021-11-13T15:06:35.430Z</time>
      </trkpt>
      <trkpt lat="44.3383" lon="5.27013">
        <ele>455</ele>
        <time>2021-11-13T15:06:36.430Z</time>
      </trkpt>
      <trkpt lat="44.33829" lon="5.27011">
        <ele>456</ele>
        <time>2021-11-13T15:06:37.430Z</time>
      </trkpt>
      <trkpt lat="44.33828" lon="5.27008">
        <ele>456</ele>
        <time>2021-11-13T15:06:38.430Z</time>
      </trkpt>
      <trkpt lat="44.33827" lon="5.27005">
        <ele>457</ele>
        <time>2021-11-13T15:06:39.430Z</time>
      </trkpt>
      <trkpt lat="44.33826" lon="5.27002">
        <ele>457</ele>
        <time>2021-11-13T15:06:40.430Z</time>
      </trkpt>
      <trkpt lat="44.33825" lon="5.27">
        <ele>457</ele>
        <time>2021-11-13T15:06:41.430Z</time>
      </trkpt>
      <trkpt lat="44.33824" lon="5.26997">
        <ele>457</ele>
        <time>2021-11-13T15:06:42.430Z</time>
      </trkpt>
      <trkpt lat="44.33823" lon="5.26994">
        <ele>457</ele>
        <time>2021-11-13T15:06:43.430Z</time>
      </trkpt>
      <trkpt lat="44.33822" lon="5.26991">
        <ele>457</ele>
        <time>2021-11-13T15:06:44.429Z</time>
      </trkpt>
      <trkpt lat="44.33822" lon="5.26989">
        <ele>458</ele>
        <time>2021-11-13T15:06:45.429Z</time>
      </trkpt>
      <trkpt lat="44.33821" lon="5.26986">
        <ele>458</ele>
        <time>2021-11-13T15:06:46.430Z</time>
      </trkpt>
      <trkpt lat="44.3382" lon="5.26984">
        <ele>459</ele>
        <time>2021-11-13T15:06:47.429Z</time>
      </trkpt>
      <trkpt lat="44.33819" lon="5.26981">
        <ele>459</ele>
        <time>2021-11-13T15:06:48.429Z</time>
      </trkpt>
      <trkpt lat="44.33818" lon="5.26979">
        <ele>459</ele>
        <time>2021-11-13T15:06:49.430Z</time>
      </trkpt>
      <trkpt lat="44.33817" lon="5.26976">
        <ele>460</ele>
        <time>2021-11-13T15:06:50.430Z</time>
      </trkpt>
      <trkpt lat="44.33816" lon="5.26973">
        <ele>460</ele>
        <time>2021-11-13T15:06:51.429Z</time>
      </trkpt>
      <trkpt lat="44.33815" lon="5.26971">
        <ele>460</ele>
        <time>2021-11-13T15:06:52.430Z</time>
      </trkpt>
      <trkpt lat="44.33814" lon="5.26968">
        <ele>460</ele>
        <time>2021-11-13T15:06:53.429Z</time>
      </trkpt>
      <trkpt lat="44.33813" lon="5.26965">
        <ele>460</ele>
        <time>2021-11-13T15:06:54.430Z</time>
      </trkpt>
      <trkpt lat="44.33812" lon="5.26962">
        <ele>460</ele>
        <time>2021-11-13T15:06:55.430Z</time>
      </trkpt>
      <trkpt lat="44.33811" lon="5.26959">
        <ele>459</ele>
        <time>2021-11-13T15:06:56.430Z</time>
      </trkpt>
      <trkpt lat="44.3381" lon="5.26956">
        <ele>459</ele>
        <time>2021-11-13T15:06:57.430Z</time>
      </trkpt>
      <trkpt lat="44.3381" lon="5.26953">
        <ele>459</ele>
        <time>2021-11-13T15:06:58.430Z</time>
      </trkpt>
      <trkpt lat="44.33809" lon="5.26949">
        <ele>459</ele>
        <time>2021-11-13T15:06:59.430Z</time>
      </trkpt>
      <trkpt lat="44.33808" lon="5.26946">
        <ele>459</ele>
        <time>2021-11-13T15:07:00.430Z</time>
      </trkpt>
      <trkpt lat="44.33807" lon="5.26943">
        <ele>460</ele>
        <time>2021-11-13T15:07:01.430Z</time>
      </trkpt>
      <trkpt lat="44.33806" lon="5.2694">
        <ele>460</ele>
        <time>2021-11-13T15:07:02.430Z</time>
      </trkpt>
      <trkpt lat="44.33805" lon="5.26937">
        <ele>460</ele>
        <time>2021-11-13T15:07:03.429Z</time>
      </trkpt>
      <trkpt lat="44.33805" lon="5.26934">
        <ele>460</ele>
        <time>2021-11-13T15:07:04.429Z</time>
      </trkpt>
      <trkpt lat="44.33804" lon="5.2693">
        <ele>460</ele>
        <time>2021-11-13T15:07:05.429Z</time>
      </trkpt>
      <trkpt lat="44.33803" lon="5.26928">
        <ele>460</ele>
        <time>2021-11-13T15:07:06.430Z</time>
      </trkpt>
      <trkpt lat="44.33802" lon="5.26925">
        <ele>461</ele>
        <time>2021-11-13T15:07:07.430Z</time>
      </trkpt>
      <trkpt lat="44.33801" lon="5.26922">
        <ele>461</ele>
        <time>2021-11-13T15:07:08.430Z</time>
      </trkpt>
      <trkpt lat="44.338" lon="5.26919">
        <ele>462</ele>
        <time>2021-11-13T15:07:09.430Z</time>
      </trkpt>
      <trkpt lat="44.33799" lon="5.26916">
        <ele>462</ele>
        <time>2021-11-13T15:07:10.430Z</time>
      </trkpt>
      <trkpt lat="44.33798" lon="5.26913">
        <ele>462</ele>
        <time>2021-11-13T15:07:11.430Z</time>
      </trkpt>
      <trkpt lat="44.33797" lon="5.2691">
        <ele>462</ele>
        <time>2021-11-13T15:07:12.430Z</time>
      </trkpt>
      <trkpt lat="44.33796" lon="5.26908">
        <ele>463</ele>
        <time>2021-11-13T15:07:13.430Z</time>
      </trkpt>
      <trkpt lat="44.33795" lon="5.26905">
        <ele>462</ele>
        <time>2021-11-13T15:07:14.430Z</time>
      </trkpt>
      <trkpt lat="44.33794" lon="5.26902">
        <ele>462</ele>
        <time>2021-11-13T15:07:15.430Z</time>
      </trkpt>
      <trkpt lat="44.33794" lon="5.26898">
        <ele>462</ele>
        <time>2021-11-13T15:07:16.430Z</time>
      </trkpt>
      <trkpt lat="44.33793" lon="5.26895">
        <ele>462</ele>
        <time>2021-11-13T15:07:17.430Z</time>
      </trkpt>
      <trkpt lat="44.33793" lon="5.26892">
        <ele>462</ele>
        <time>2021-11-13T15:07:18.430Z</time>
      </trkpt>
      <trkpt lat="44.33793" lon="5.26889">
        <ele>462</ele>
        <time>2021-11-13T15:07:19.429Z</time>
      </trkpt>
      <trkpt lat="44.33792" lon="5.26886">
        <ele>462</ele>
        <time>2021-11-13T15:07:20.429Z</time>
      </trkpt>
      <trkpt lat="44.33791" lon="5.26883">
        <ele>462</ele>
        <time>2021-11-13T15:07:21.430Z</time>
      </trkpt>
      <trkpt lat="44.3379" lon="5.2688">
        <ele>463</ele>
        <time>2021-11-13T15:07:22.430Z</time>
      </trkpt>
      <trkpt lat="44.3379" lon="5.26877">
        <ele>464</ele>
        <time>2021-11-13T15:07:23.430Z</time>
      </trkpt>
      <trkpt lat="44.33789" lon="5.26873">
        <ele>464</ele>
        <time>2021-11-13T15:07:24.430Z</time>
      </trkpt>
      <trkpt lat="44.33788" lon="5.26871">
        <ele>465</ele>
        <time>2021-11-13T15:07:25.430Z</time>
      </trkpt>
      <trkpt lat="44.33787" lon="5.26867">
        <ele>465</ele>
        <time>2021-11-13T15:07:26.430Z</time>
      </trkpt>
      <trkpt lat="44.33786" lon="5.26864">
        <ele>464</ele>
        <time>2021-11-13T15:07:27.430Z</time>
      </trkpt>
      <trkpt lat="44.33785" lon="5.26861">
        <ele>464</ele>
        <time>2021-11-13T15:07:28.430Z</time>
      </trkpt>
      <trkpt lat="44.33785" lon="5.26858">
        <ele>463</ele>
        <time>2021-11-13T15:07:29.430Z</time>
      </trkpt>
      <trkpt lat="44.33784" lon="5.26855">
        <ele>463</ele>
        <time>2021-11-13T15:07:30.429Z</time>
      </trkpt>
      <trkpt lat="44.33783" lon="5.26852">
        <ele>462</ele>
        <time>2021-11-13T15:07:31.430Z</time>
      </trkpt>
      <trkpt lat="44.33782" lon="5.26849">
        <ele>462</ele>
        <time>2021-11-13T15:07:32.430Z</time>
      </trkpt>
      <trkpt lat="44.33782" lon="5.26846">
        <ele>462</ele>
        <time>2021-11-13T15:07:33.430Z</time>
      </trkpt>
      <trkpt lat="44.33781" lon="5.26843">
        <ele>462</ele>
        <time>2021-11-13T15:07:34.429Z</time>
      </trkpt>
      <trkpt lat="44.33781" lon="5.26839">
        <ele>463</ele>
        <time>2021-11-13T15:07:35.429Z</time>
      </trkpt>
      <trkpt lat="44.3378" lon="5.26835">
        <ele>463</ele>
        <time>2021-11-13T15:07:36.430Z</time>
      </trkpt>
      <trkpt lat="44.33779" lon="5.26832">
        <ele>463</ele>
        <time>2021-11-13T15:07:37.430Z</time>
      </trkpt>
      <trkpt lat="44.33779" lon="5.26828">
        <ele>464</ele>
        <time>2021-11-13T15:07:38.430Z</time>
      </trkpt>
      <trkpt lat="44.33779" lon="5.26825">
        <ele>464</ele>
        <time>2021-11-13T15:07:39.430Z</time>
      </trkpt>
      <trkpt lat="44.33778" lon="5.26821">
        <ele>465</ele>
        <time>2021-11-13T15:07:40.430Z</time>
      </trkpt>
      <trkpt lat="44.33778" lon="5.26818">
        <ele>465</ele>
        <time>2021-11-13T15:07:41.430Z</time>
      </trkpt>
      <trkpt lat="44.33777" lon="5.26814">
        <ele>466</ele>
        <time>2021-11-13T15:07:42.430Z</time>
      </trkpt>
      <trkpt lat="44.33777" lon="5.2681">
        <ele>466</ele>
        <time>2021-11-13T15:07:43.430Z</time>
      </trkpt>
      <trkpt lat="44.33777" lon="5.26807">
        <ele>466</ele>
        <time>2021-11-13T15:07:44.429Z</time>
      </trkpt>
      <trkpt lat="44.33776" lon="5.26804">
        <ele>466</ele>
        <time>2021-11-13T15:07:45.430Z</time>
      </trkpt>
      <trkpt lat="44.33776" lon="5.268">
        <ele>467</ele>
        <time>2021-11-13T15:07:46.430Z</time>
      </trkpt>
      <trkpt lat="44.33776" lon="5.26797">
        <ele>467</ele>
        <time>2021-11-13T15:07:47.430Z</time>
      </trkpt>
      <trkpt lat="44.33775" lon="5.26794">
        <ele>467</ele>
        <time>2021-11-13T15:07:48.429Z</time>
      </trkpt>
      <trkpt lat="44.33775" lon="5.26791">
        <ele>467</ele>
        <time>2021-11-13T15:07:49.430Z</time>
      </trkpt>
      <trkpt lat="44.33774" lon="5.26787">
        <ele>467</ele>
        <time>2021-11-13T15:07:50.429Z</time>
      </trkpt>
      <trkpt lat="44.33773" lon="5.26783">
        <ele>467</ele>
        <time>2021-11-13T15:07:51.430Z</time>
      </trkpt>
      <trkpt lat="44.33772" lon="5.2678">
        <ele>467</ele>
        <time>2021-11-13T15:07:52.429Z</time>
      </trkpt>
      <trkpt lat="44.33771" lon="5.26776">
        <ele>467</ele>
        <time>2021-11-13T15:07:53.430Z</time>
      </trkpt>
      <trkpt lat="44.3377" lon="5.26773">
        <ele>467</ele>
        <time>2021-11-13T15:07:54.430Z</time>
      </trkpt>
      <trkpt lat="44.33769" lon="5.26769">
        <ele>467</ele>
        <time>2021-11-13T15:07:55.429Z</time>
      </trkpt>
      <trkpt lat="44.33768" lon="5.26766">
        <ele>468</ele>
        <time>2021-11-13T15:07:56.429Z</time>
      </trkpt>
      <trkpt lat="44.33766" lon="5.26762">
        <ele>468</ele>
        <time>2021-11-13T15:07:57.430Z</time>
      </trkpt>
      <trkpt lat="44.33765" lon="5.26759">
        <ele>468</ele>
        <time>2021-11-13T15:07:58.429Z</time>
      </trkpt>
      <trkpt lat="44.33763" lon="5.26755">
        <ele>469</ele>
        <time>2021-11-13T15:07:59.430Z</time>
      </trkpt>
      <trkpt lat="44.33762" lon="5.26753">
        <ele>469</ele>
        <time>2021-11-13T15:08:00.430Z</time>
      </trkpt>
      <trkpt lat="44.33761" lon="5.2675">
        <ele>468</ele>
        <time>2021-11-13T15:08:01.430Z</time>
      </trkpt>
      <trkpt lat="44.33759" lon="5.26748">
        <ele>468</ele>
        <time>2021-11-13T15:08:02.430Z</time>
      </trkpt>
      <trkpt lat="44.33758" lon="5.26745">
        <ele>468</ele>
        <time>2021-11-13T15:08:03.430Z</time>
      </trkpt>
      <trkpt lat="44.33756" lon="5.26743">
        <ele>467</ele>
        <time>2021-11-13T15:08:04.429Z</time>
      </trkpt>
      <trkpt lat="44.33755" lon="5.2674">
        <ele>467</ele>
        <time>2021-11-13T15:08:05.430Z</time>
      </trkpt>
      <trkpt lat="44.33754" lon="5.26737">
        <ele>466</ele>
        <time>2021-11-13T15:08:06.429Z</time>
      </trkpt>
      <trkpt lat="44.33753" lon="5.26734">
        <ele>466</ele>
        <time>2021-11-13T15:08:07.429Z</time>
      </trkpt>
      <trkpt lat="44.33751" lon="5.26732">
        <ele>466</ele>
        <time>2021-11-13T15:08:08.430Z</time>
      </trkpt>
      <trkpt lat="44.3375" lon="5.26729">
        <ele>466</ele>
        <time>2021-11-13T15:08:09.430Z</time>
      </trkpt>
      <trkpt lat="44.33748" lon="5.26727">
        <ele>466</ele>
        <time>2021-11-13T15:08:10.429Z</time>
      </trkpt>
      <trkpt lat="44.33746" lon="5.26724">
        <ele>466</ele>
        <time>2021-11-13T15:08:11.430Z</time>
      </trkpt>
      <trkpt lat="44.33745" lon="5.26722">
        <ele>466</ele>
        <time>2021-11-13T15:08:12.430Z</time>
      </trkpt>
      <trkpt lat="44.33743" lon="5.26719">
        <ele>467</ele>
        <time>2021-11-13T15:08:13.429Z</time>
      </trkpt>
      <trkpt lat="44.33742" lon="5.26716">
        <ele>467</ele>
        <time>2021-11-13T15:08:14.430Z</time>
      </trkpt>
      <trkpt lat="44.3374" lon="5.26713">
        <ele>467</ele>
        <time>2021-11-13T15:08:15.430Z</time>
      </trkpt>
      <trkpt lat="44.33739" lon="5.2671">
        <ele>468</ele>
        <time>2021-11-13T15:08:16.429Z</time>
      </trkpt>
      <trkpt lat="44.33738" lon="5.26707">
        <ele>468</ele>
        <time>2021-11-13T15:08:17.430Z</time>
      </trkpt>
      <trkpt lat="44.33736" lon="5.26704">
        <ele>468</ele>
        <time>2021-11-13T15:08:18.430Z</time>
      </trkpt>
      <trkpt lat="44.33735" lon="5.26702">
        <ele>468</ele>
        <time>2021-11-13T15:08:19.430Z</time>
      </trkpt>
      <trkpt lat="44.33734" lon="5.26699">
        <ele>468</ele>
        <time>2021-11-13T15:08:20.429Z</time>
      </trkpt>
      <trkpt lat="44.33733" lon="5.26696">
        <ele>469</ele>
        <time>2021-11-13T15:08:21.430Z</time>
      </trkpt>
      <trkpt lat="44.33732" lon="5.26693">
        <ele>468</ele>
        <time>2021-11-13T15:08:22.430Z</time>
      </trkpt>
      <trkpt lat="44.33731" lon="5.2669">
        <ele>468</ele>
        <time>2021-11-13T15:08:23.430Z</time>
      </trkpt>
      <trkpt lat="44.3373" lon="5.26687">
        <ele>468</ele>
        <time>2021-11-13T15:08:24.430Z</time>
      </trkpt>
      <trkpt lat="44.3373" lon="5.26684">
        <ele>468</ele>
        <time>2021-11-13T15:08:25.430Z</time>
      </trkpt>
      <trkpt lat="44.3373" lon="5.26681">
        <ele>468</ele>
        <time>2021-11-13T15:08:26.430Z</time>
      </trkpt>
      <trkpt lat="44.3373" lon="5.26678">
        <ele>469</ele>
        <time>2021-11-13T15:08:27.430Z</time>
      </trkpt>
      <trkpt lat="44.33731" lon="5.26675">
        <ele>469</ele>
        <time>2021-11-13T15:08:28.430Z</time>
      </trkpt>
      <trkpt lat="44.33732" lon="5.26673">
        <ele>469</ele>
        <time>2021-11-13T15:08:29.430Z</time>
      </trkpt>
      <trkpt lat="44.33733" lon="5.2667">
        <ele>469</ele>
        <time>2021-11-13T15:08:30.430Z</time>
      </trkpt>
      <trkpt lat="44.33735" lon="5.26668">
        <ele>470</ele>
        <time>2021-11-13T15:08:31.430Z</time>
      </trkpt>
      <trkpt lat="44.33736" lon="5.26665">
        <ele>470</ele>
        <time>2021-11-13T15:08:32.429Z</time>
      </trkpt>
      <trkpt lat="44.33738" lon="5.26663">
        <ele>470</ele>
        <time>2021-11-13T15:08:33.430Z</time>
      </trkpt>
      <trkpt lat="44.33739" lon="5.26662">
        <ele>470</ele>
        <time>2021-11-13T15:08:34.430Z</time>
      </trkpt>
      <trkpt lat="44.33741" lon="5.2666">
        <ele>470</ele>
        <time>2021-11-13T15:08:35.430Z</time>
      </trkpt>
      <trkpt lat="44.33743" lon="5.26659">
        <ele>471</ele>
        <time>2021-11-13T15:08:36.429Z</time>
      </trkpt>
      <trkpt lat="44.33744" lon="5.26658">
        <ele>471</ele>
        <time>2021-11-13T15:08:37.430Z</time>
      </trkpt>
      <trkpt lat="44.33746" lon="5.26657">
        <ele>471</ele>
        <time>2021-11-13T15:08:38.430Z</time>
      </trkpt>
      <trkpt lat="44.33747" lon="5.26656">
        <ele>472</ele>
        <time>2021-11-13T15:08:39.429Z</time>
      </trkpt>
      <trkpt lat="44.33749" lon="5.26655">
        <ele>472</ele>
        <time>2021-11-13T15:08:40.429Z</time>
      </trkpt>
      <trkpt lat="44.33751" lon="5.26653">
        <ele>472</ele>
        <time>2021-11-13T15:08:41.430Z</time>
      </trkpt>
      <trkpt lat="44.33753" lon="5.26652">
        <ele>472</ele>
        <time>2021-11-13T15:08:42.429Z</time>
      </trkpt>
      <trkpt lat="44.33754" lon="5.2665">
        <ele>472</ele>
        <time>2021-11-13T15:08:43.430Z</time>
      </trkpt>
      <trkpt lat="44.33756" lon="5.26648">
        <ele>472</ele>
        <time>2021-11-13T15:08:44.430Z</time>
      </trkpt>
      <trkpt lat="44.33758" lon="5.26647">
        <ele>471</ele>
        <time>2021-11-13T15:08:45.430Z</time>
      </trkpt>
      <trkpt lat="44.3376" lon="5.26645">
        <ele>471</ele>
        <time>2021-11-13T15:08:46.429Z</time>
      </trkpt>
      <trkpt lat="44.33762" lon="5.26643">
        <ele>470</ele>
        <time>2021-11-13T15:08:47.429Z</time>
      </trkpt>
      <trkpt lat="44.33763" lon="5.26641">
        <ele>470</ele>
        <time>2021-11-13T15:08:48.429Z</time>
      </trkpt>
      <trkpt lat="44.33765" lon="5.26639">
        <ele>470</ele>
        <time>2021-11-13T15:08:49.429Z</time>
      </trkpt>
      <trkpt lat="44.33767" lon="5.26638">
        <ele>470</ele>
        <time>2021-11-13T15:08:50.429Z</time>
      </trkpt>
      <trkpt lat="44.3377" lon="5.26636">
        <ele>470</ele>
        <time>2021-11-13T15:08:51.429Z</time>
      </trkpt>
      <trkpt lat="44.33772" lon="5.26634">
        <ele>470</ele>
        <time>2021-11-13T15:08:52.430Z</time>
      </trkpt>
      <trkpt lat="44.33774" lon="5.26633">
        <ele>470</ele>
        <time>2021-11-13T15:08:53.430Z</time>
      </trkpt>
      <trkpt lat="44.33776" lon="5.26631">
        <ele>470</ele>
        <time>2021-11-13T15:08:54.430Z</time>
      </trkpt>
      <trkpt lat="44.33778" lon="5.26629">
        <ele>470</ele>
        <time>2021-11-13T15:08:55.429Z</time>
      </trkpt>
      <trkpt lat="44.3378" lon="5.26627">
        <ele>470</ele>
        <time>2021-11-13T15:08:56.430Z</time>
      </trkpt>
      <trkpt lat="44.33782" lon="5.26625">
        <ele>470</ele>
        <time>2021-11-13T15:08:57.430Z</time>
      </trkpt>
      <trkpt lat="44.33784" lon="5.26624">
        <ele>471</ele>
        <time>2021-11-13T15:08:58.430Z</time>
      </trkpt>
      <trkpt lat="44.33786" lon="5.26622">
        <ele>471</ele>
        <time>2021-11-13T15:08:59.430Z</time>
      </trkpt>
      <trkpt lat="44.33788" lon="5.2662">
        <ele>471</ele>
        <time>2021-11-13T15:09:00.430Z</time>
      </trkpt>
      <trkpt lat="44.3379" lon="5.26618">
        <ele>471</ele>
        <time>2021-11-13T15:09:01.430Z</time>
      </trkpt>
      <trkpt lat="44.33792" lon="5.26616">
        <ele>471</ele>
        <time>2021-11-13T15:09:02.430Z</time>
      </trkpt>
      <trkpt lat="44.33794" lon="5.26613">
        <ele>472</ele>
        <time>2021-11-13T15:09:03.430Z</time>
      </trkpt>
      <trkpt lat="44.33795" lon="5.2661">
        <ele>472</ele>
        <time>2021-11-13T15:09:04.430Z</time>
      </trkpt>
      <trkpt lat="44.33797" lon="5.26607">
        <ele>473</ele>
        <time>2021-11-13T15:09:05.429Z</time>
      </trkpt>
      <trkpt lat="44.33799" lon="5.26604">
        <ele>473</ele>
        <time>2021-11-13T15:09:06.429Z</time>
      </trkpt>
      <trkpt lat="44.338" lon="5.26601">
        <ele>473</ele>
        <time>2021-11-13T15:09:07.430Z</time>
      </trkpt>
      <trkpt lat="44.33802" lon="5.26597">
        <ele>473</ele>
        <time>2021-11-13T15:09:08.430Z</time>
      </trkpt>
      <trkpt lat="44.33803" lon="5.26594">
        <ele>473</ele>
        <time>2021-11-13T15:09:09.430Z</time>
      </trkpt>
      <trkpt lat="44.33805" lon="5.2659">
        <ele>473</ele>
        <time>2021-11-13T15:09:10.430Z</time>
      </trkpt>
      <trkpt lat="44.33806" lon="5.26586">
        <ele>473</ele>
        <time>2021-11-13T15:09:11.430Z</time>
      </trkpt>
      <trkpt lat="44.33808" lon="5.26583">
        <ele>473</ele>
        <time>2021-11-13T15:09:12.430Z</time>
      </trkpt>
      <trkpt lat="44.33809" lon="5.26579">
        <ele>473</ele>
        <time>2021-11-13T15:09:13.430Z</time>
      </trkpt>
      <trkpt lat="44.33811" lon="5.26576">
        <ele>473</ele>
        <time>2021-11-13T15:09:14.429Z</time>
      </trkpt>
      <trkpt lat="44.33812" lon="5.26572">
        <ele>473</ele>
        <time>2021-11-13T15:09:15.430Z</time>
      </trkpt>
      <trkpt lat="44.33814" lon="5.26569">
        <ele>473</ele>
        <time>2021-11-13T15:09:16.430Z</time>
      </trkpt>
      <trkpt lat="44.33815" lon="5.26565">
        <ele>473</ele>
        <time>2021-11-13T15:09:17.429Z</time>
      </trkpt>
      <trkpt lat="44.33817" lon="5.26562">
        <ele>473</ele>
        <time>2021-11-13T15:09:18.430Z</time>
      </trkpt>
      <trkpt lat="44.33819" lon="5.26559">
        <ele>473</ele>
        <time>2021-11-13T15:09:19.429Z</time>
      </trkpt>
      <trkpt lat="44.33821" lon="5.26557">
        <ele>472</ele>
        <time>2021-11-13T15:09:20.430Z</time>
      </trkpt>
      <trkpt lat="44.33823" lon="5.26555">
        <ele>473</ele>
        <time>2021-11-13T15:09:21.430Z</time>
      </trkpt>
      <trkpt lat="44.33826" lon="5.26553">
        <ele>473</ele>
        <time>2021-11-13T15:09:22.429Z</time>
      </trkpt>
      <trkpt lat="44.33829" lon="5.26552">
        <ele>473</ele>
        <time>2021-11-13T15:09:23.429Z</time>
      </trkpt>
      <trkpt lat="44.33832" lon="5.26552">
        <ele>473</ele>
        <time>2021-11-13T15:09:24.429Z</time>
      </trkpt>
      <trkpt lat="44.33834" lon="5.26552">
        <ele>474</ele>
        <time>2021-11-13T15:09:25.429Z</time>
      </trkpt>
      <trkpt lat="44.33837" lon="5.26552">
        <ele>474</ele>
        <time>2021-11-13T15:09:26.430Z</time>
      </trkpt>
      <trkpt lat="44.3384" lon="5.26552">
        <ele>474</ele>
        <time>2021-11-13T15:09:27.429Z</time>
      </trkpt>
      <trkpt lat="44.33843" lon="5.26553">
        <ele>474</ele>
        <time>2021-11-13T15:09:28.429Z</time>
      </trkpt>
      <trkpt lat="44.33846" lon="5.26553">
        <ele>474</ele>
        <time>2021-11-13T15:09:29.430Z</time>
      </trkpt>
      <trkpt lat="44.33849" lon="5.26554">
        <ele>474</ele>
        <time>2021-11-13T15:09:30.430Z</time>
      </trkpt>
      <trkpt lat="44.33852" lon="5.26556">
        <ele>474</ele>
        <time>2021-11-13T15:09:31.430Z</time>
      </trkpt>
      <trkpt lat="44.33855" lon="5.26557">
        <ele>474</ele>
        <time>2021-11-13T15:09:32.430Z</time>
      </trkpt>
      <trkpt lat="44.33857" lon="5.26559">
        <ele>474</ele>
        <time>2021-11-13T15:09:33.429Z</time>
      </trkpt>
      <trkpt lat="44.3386" lon="5.26561">
        <ele>475</ele>
        <time>2021-11-13T15:09:34.430Z</time>
      </trkpt>
      <trkpt lat="44.33862" lon="5.26564">
        <ele>475</ele>
        <time>2021-11-13T15:09:35.430Z</time>
      </trkpt>
      <trkpt lat="44.33865" lon="5.26566">
        <ele>474</ele>
        <time>2021-11-13T15:09:36.430Z</time>
      </trkpt>
      <trkpt lat="44.33868" lon="5.26568">
        <ele>474</ele>
        <time>2021-11-13T15:09:37.430Z</time>
      </trkpt>
      <trkpt lat="44.3387" lon="5.2657">
        <ele>474</ele>
        <time>2021-11-13T15:09:38.430Z</time>
      </trkpt>
      <trkpt lat="44.33872" lon="5.26573">
        <ele>474</ele>
        <time>2021-11-13T15:09:39.430Z</time>
      </trkpt>
      <trkpt lat="44.33875" lon="5.26575">
        <ele>474</ele>
        <time>2021-11-13T15:09:40.430Z</time>
      </trkpt>
      <trkpt lat="44.33877" lon="5.26578">
        <ele>474</ele>
        <time>2021-11-13T15:09:41.430Z</time>
      </trkpt>
      <trkpt lat="44.3388" lon="5.2658">
        <ele>474</ele>
        <time>2021-11-13T15:09:42.430Z</time>
      </trkpt>
      <trkpt lat="44.33882" lon="5.26582">
        <ele>474</ele>
        <time>2021-11-13T15:09:43.430Z</time>
      </trkpt>
      <trkpt lat="44.33885" lon="5.26584">
        <ele>475</ele>
        <time>2021-11-13T15:09:44.430Z</time>
      </trkpt>
      <trkpt lat="44.33887" lon="5.26585">
        <ele>475</ele>
        <time>2021-11-13T15:09:45.430Z</time>
      </trkpt>
      <trkpt lat="44.3389" lon="5.26587">
        <ele>475</ele>
        <time>2021-11-13T15:09:46.429Z</time>
      </trkpt>
      <trkpt lat="44.33892" lon="5.26589">
        <ele>475</ele>
        <time>2021-11-13T15:09:47.430Z</time>
      </trkpt>
      <trkpt lat="44.33895" lon="5.26591">
        <ele>475</ele>
        <time>2021-11-13T15:09:48.429Z</time>
      </trkpt>
      <trkpt lat="44.33897" lon="5.26593">
        <ele>476</ele>
        <time>2021-11-13T15:09:49.430Z</time>
      </trkpt>
      <trkpt lat="44.339" lon="5.26594">
        <ele>476</ele>
        <time>2021-11-13T15:09:50.430Z</time>
      </trkpt>
      <trkpt lat="44.33902" lon="5.26596">
        <ele>477</ele>
        <time>2021-11-13T15:09:51.430Z</time>
      </trkpt>
      <trkpt lat="44.33905" lon="5.26597">
        <ele>477</ele>
        <time>2021-11-13T15:09:52.430Z</time>
      </trkpt>
      <trkpt lat="44.33908" lon="5.26599">
        <ele>477</ele>
        <time>2021-11-13T15:09:53.429Z</time>
      </trkpt>
      <trkpt lat="44.3391" lon="5.266">
        <ele>477</ele>
        <time>2021-11-13T15:09:54.430Z</time>
      </trkpt>
      <trkpt lat="44.33913" lon="5.26602">
        <ele>477</ele>
        <time>2021-11-13T15:09:55.430Z</time>
      </trkpt>
      <trkpt lat="44.33915" lon="5.26603">
        <ele>477</ele>
        <time>2021-11-13T15:09:56.430Z</time>
      </trkpt>
      <trkpt lat="44.33917" lon="5.26605">
        <ele>477</ele>
        <time>2021-11-13T15:09:57.430Z</time>
      </trkpt>
      <trkpt lat="44.33919" lon="5.26607">
        <ele>477</ele>
        <time>2021-11-13T15:09:58.429Z</time>
      </trkpt>
      <trkpt lat="44.33922" lon="5.26608">
        <ele>477</ele>
        <time>2021-11-13T15:09:59.430Z</time>
      </trkpt>
      <trkpt lat="44.33925" lon="5.2661">
        <ele>477</ele>
        <time>2021-11-13T15:10:00.430Z</time>
      </trkpt>
      <trkpt lat="44.33927" lon="5.26611">
        <ele>477</ele>
        <time>2021-11-13T15:10:01.429Z</time>
      </trkpt>
      <trkpt lat="44.33929" lon="5.26612">
        <ele>477</ele>
        <time>2021-11-13T15:10:02.430Z</time>
      </trkpt>
      <trkpt lat="44.33932" lon="5.26614">
        <ele>477</ele>
        <time>2021-11-13T15:10:03.429Z</time>
      </trkpt>
      <trkpt lat="44.33934" lon="5.26615">
        <ele>477</ele>
        <time>2021-11-13T15:10:04.429Z</time>
      </trkpt>
      <trkpt lat="44.33936" lon="5.26617">
        <ele>477</ele>
        <time>2021-11-13T15:10:05.429Z</time>
      </trkpt>
      <trkpt lat="44.33938" lon="5.26618">
        <ele>478</ele>
        <time>2021-11-13T15:10:06.430Z</time>
      </trkpt>
      <trkpt lat="44.3394" lon="5.26619">
        <ele>478</ele>
        <time>2021-11-13T15:10:07.430Z</time>
      </trkpt>
      <trkpt lat="44.33942" lon="5.26621">
        <ele>478</ele>
        <time>2021-11-13T15:10:08.430Z</time>
      </trkpt>
      <trkpt lat="44.33944" lon="5.26623">
        <ele>478</ele>
        <time>2021-11-13T15:10:09.429Z</time>
      </trkpt>
      <trkpt lat="44.33947" lon="5.26624">
        <ele>479</ele>
        <time>2021-11-13T15:10:10.430Z</time>
      </trkpt>
      <trkpt lat="44.33949" lon="5.26626">
        <ele>479</ele>
        <time>2021-11-13T15:10:11.430Z</time>
      </trkpt>
      <trkpt lat="44.33951" lon="5.26627">
        <ele>479</ele>
        <time>2021-11-13T15:10:12.429Z</time>
      </trkpt>
      <trkpt lat="44.33953" lon="5.26628">
        <ele>479</ele>
        <time>2021-11-13T15:10:13.430Z</time>
      </trkpt>
      <trkpt lat="44.33955" lon="5.26629">
        <ele>479</ele>
        <time>2021-11-13T15:10:14.429Z</time>
      </trkpt>
      <trkpt lat="44.33957" lon="5.2663">
        <ele>479</ele>
        <time>2021-11-13T15:10:15.430Z</time>
      </trkpt>
      <trkpt lat="44.3396" lon="5.26631">
        <ele>479</ele>
        <time>2021-11-13T15:10:16.430Z</time>
      </trkpt>
      <trkpt lat="44.33962" lon="5.26632">
        <ele>480</ele>
        <time>2021-11-13T15:10:17.429Z</time>
      </trkpt>
      <trkpt lat="44.33964" lon="5.26634">
        <ele>480</ele>
        <time>2021-11-13T15:10:18.430Z</time>
      </trkpt>
      <trkpt lat="44.33966" lon="5.26635">
        <ele>480</ele>
        <time>2021-11-13T15:10:19.430Z</time>
      </trkpt>
      <trkpt lat="44.33968" lon="5.26636">
        <ele>480</ele>
        <time>2021-11-13T15:10:20.430Z</time>
      </trkpt>
      <trkpt lat="44.3397" lon="5.26637">
        <ele>480</ele>
        <time>2021-11-13T15:10:21.429Z</time>
      </trkpt>
      <trkpt lat="44.33972" lon="5.26638">
        <ele>480</ele>
        <time>2021-11-13T15:10:22.430Z</time>
      </trkpt>
      <trkpt lat="44.33974" lon="5.26639">
        <ele>481</ele>
        <time>2021-11-13T15:10:23.429Z</time>
      </trkpt>
      <trkpt lat="44.33977" lon="5.2664">
        <ele>481</ele>
        <time>2021-11-13T15:10:24.430Z</time>
      </trkpt>
      <trkpt lat="44.33979" lon="5.26641">
        <ele>481</ele>
        <time>2021-11-13T15:10:25.430Z</time>
      </trkpt>
      <trkpt lat="44.33981" lon="5.26642">
        <ele>481</ele>
        <time>2021-11-13T15:10:26.429Z</time>
      </trkpt>
      <trkpt lat="44.33983" lon="5.26642">
        <ele>481</ele>
        <time>2021-11-13T15:10:27.430Z</time>
      </trkpt>
      <trkpt lat="44.33984" lon="5.26643">
        <ele>482</ele>
        <time>2021-11-13T15:10:28.429Z</time>
      </trkpt>
      <trkpt lat="44.33986" lon="5.26644">
        <ele>482</ele>
        <time>2021-11-13T15:10:29.429Z</time>
      </trkpt>
      <trkpt lat="44.33987" lon="5.26644">
        <ele>483</ele>
        <time>2021-11-13T15:10:30.430Z</time>
      </trkpt>
      <trkpt lat="44.33988" lon="5.26645">
        <ele>482</ele>
        <time>2021-11-13T15:10:31.429Z</time>
      </trkpt>
      <trkpt lat="44.33988" lon="5.26645">
        <ele>483</ele>
        <time>2021-11-13T15:10:32.430Z</time>
      </trkpt>
      <trkpt lat="44.33988" lon="5.26645">
        <ele>483</ele>
        <time>2021-11-13T15:10:33.430Z</time>
      </trkpt>
      <trkpt lat="44.3399" lon="5.26641">
        <ele>484</ele>
        <time>2021-11-13T15:10:34.430Z</time>
      </trkpt>
      <trkpt lat="44.33991" lon="5.26638">
        <ele>485</ele>
        <time>2021-11-13T15:10:35.430Z</time>
      </trkpt>
      <trkpt lat="44.33992" lon="5.26635">
        <ele>485</ele>
        <time>2021-11-13T15:10:36.430Z</time>
      </trkpt>
      <trkpt lat="44.33993" lon="5.26633">
        <ele>486</ele>
        <time>2021-11-13T15:10:37.429Z</time>
      </trkpt>
      <trkpt lat="44.33994" lon="5.2663">
        <ele>487</ele>
        <time>2021-11-13T15:10:38.430Z</time>
      </trkpt>
      <trkpt lat="44.33995" lon="5.26628">
        <ele>487</ele>
        <time>2021-11-13T15:10:39.430Z</time>
      </trkpt>
      <trkpt lat="44.33996" lon="5.26626">
        <ele>488</ele>
        <time>2021-11-13T15:10:40.430Z</time>
      </trkpt>
      <trkpt lat="44.33997" lon="5.26624">
        <ele>488</ele>
        <time>2021-11-13T15:10:41.430Z</time>
      </trkpt>
      <trkpt lat="44.33997" lon="5.26621">
        <ele>488</ele>
        <time>2021-11-13T15:10:42.430Z</time>
      </trkpt>
      <trkpt lat="44.33998" lon="5.26619">
        <ele>488</ele>
        <time>2021-11-13T15:10:43.430Z</time>
      </trkpt>
      <trkpt lat="44.33998" lon="5.26617">
        <ele>489</ele>
        <time>2021-11-13T15:10:44.430Z</time>
      </trkpt>
      <trkpt lat="44.33999" lon="5.26615">
        <ele>489</ele>
        <time>2021-11-13T15:10:45.430Z</time>
      </trkpt>
      <trkpt lat="44.33999" lon="5.26613">
        <ele>489</ele>
        <time>2021-11-13T15:10:46.430Z</time>
      </trkpt>
      <trkpt lat="44.33999" lon="5.26612">
        <ele>490</ele>
        <time>2021-11-13T15:10:47.430Z</time>
      </trkpt>
      <trkpt lat="44.33999" lon="5.26612">
        <ele>490</ele>
        <time>2021-11-13T15:10:48.430Z</time>
      </trkpt>
      <trkpt lat="44.33999" lon="5.26612">
        <ele>490</ele>
        <time>2021-11-13T15:10:49.430Z</time>
      </trkpt>
      <trkpt lat="44.33999" lon="5.26612">
        <ele>490</ele>
        <time>2021-11-13T15:10:50.430Z</time>
      </trkpt>
      <trkpt lat="44.33994" lon="5.26622">
        <ele>493</ele>
        <time>2021-11-13T15:10:51.430Z</time>
      </trkpt>
      <trkpt lat="44.33993" lon="5.26626">
        <ele>493</ele>
        <time>2021-11-13T15:10:52.430Z</time>
      </trkpt>
      <trkpt lat="44.33992" lon="5.26629">
        <ele>493</ele>
        <time>2021-11-13T15:10:53.430Z</time>
      </trkpt>
      <trkpt lat="44.33991" lon="5.26632">
        <ele>493</ele>
        <time>2021-11-13T15:10:54.429Z</time>
      </trkpt>
      <trkpt lat="44.33989" lon="5.26634">
        <ele>492</ele>
        <time>2021-11-13T15:10:55.430Z</time>
      </trkpt>
      <trkpt lat="44.33987" lon="5.26636">
        <ele>492</ele>
        <time>2021-11-13T15:10:56.429Z</time>
      </trkpt>
      <trkpt lat="44.33986" lon="5.26638">
        <ele>491</ele>
        <time>2021-11-13T15:10:57.429Z</time>
      </trkpt>
      <trkpt lat="44.33984" lon="5.2664">
        <ele>491</ele>
        <time>2021-11-13T15:10:58.430Z</time>
      </trkpt>
      <trkpt lat="44.33982" lon="5.26642">
        <ele>490</ele>
        <time>2021-11-13T15:10:59.430Z</time>
      </trkpt>
      <trkpt lat="44.3398" lon="5.26643">
        <ele>490</ele>
        <time>2021-11-13T15:11:00.430Z</time>
      </trkpt>
      <trkpt lat="44.33979" lon="5.26645">
        <ele>490</ele>
        <time>2021-11-13T15:11:01.430Z</time>
      </trkpt>
      <trkpt lat="44.33976" lon="5.26646">
        <ele>490</ele>
        <time>2021-11-13T15:11:02.430Z</time>
      </trkpt>
      <trkpt lat="44.33974" lon="5.26647">
        <ele>489</ele>
        <time>2021-11-13T15:11:03.430Z</time>
      </trkpt>
      <trkpt lat="44.33972" lon="5.26647">
        <ele>489</ele>
        <time>2021-11-13T15:11:04.430Z</time>
      </trkpt>
      <trkpt lat="44.3397" lon="5.26647">
        <ele>489</ele>
        <time>2021-11-13T15:11:05.430Z</time>
      </trkpt>
      <trkpt lat="44.33968" lon="5.26646">
        <ele>489</ele>
        <time>2021-11-13T15:11:06.430Z</time>
      </trkpt>
      <trkpt lat="44.33966" lon="5.26645">
        <ele>489</ele>
        <time>2021-11-13T15:11:07.430Z</time>
      </trkpt>
      <trkpt lat="44.33964" lon="5.26643">
        <ele>488</ele>
        <time>2021-11-13T15:11:08.430Z</time>
      </trkpt>
      <trkpt lat="44.33961" lon="5.26641">
        <ele>488</ele>
        <time>2021-11-13T15:11:09.430Z</time>
      </trkpt>
      <trkpt lat="44.33958" lon="5.26639">
        <ele>488</ele>
        <time>2021-11-13T15:11:10.430Z</time>
      </trkpt>
      <trkpt lat="44.33953" lon="5.26637">
        <ele>487</ele>
        <time>2021-11-13T15:11:11.430Z</time>
      </trkpt>
      <trkpt lat="44.33949" lon="5.26634">
        <ele>487</ele>
        <time>2021-11-13T15:11:12.429Z</time>
      </trkpt>
      <trkpt lat="44.33944" lon="5.26631">
        <ele>486</ele>
        <time>2021-11-13T15:11:13.430Z</time>
      </trkpt>
      <trkpt lat="44.33938" lon="5.26627">
        <ele>486</ele>
        <time>2021-11-13T15:11:14.430Z</time>
      </trkpt>
      <trkpt lat="44.33932" lon="5.26623">
        <ele>485</ele>
        <time>2021-11-13T15:11:15.430Z</time>
      </trkpt>
      <trkpt lat="44.33926" lon="5.26619">
        <ele>485</ele>
        <time>2021-11-13T15:11:16.430Z</time>
      </trkpt>
      <trkpt lat="44.3392" lon="5.26615">
        <ele>484</ele>
        <time>2021-11-13T15:11:17.430Z</time>
      </trkpt>
      <trkpt lat="44.33913" lon="5.2661">
        <ele>483</ele>
        <time>2021-11-13T15:11:18.430Z</time>
      </trkpt>
      <trkpt lat="44.33906" lon="5.26606">
        <ele>483</ele>
        <time>2021-11-13T15:11:19.430Z</time>
      </trkpt>
      <trkpt lat="44.33898" lon="5.26601">
        <ele>482</ele>
        <time>2021-11-13T15:11:20.430Z</time>
      </trkpt>
      <trkpt lat="44.33891" lon="5.26596">
        <ele>481</ele>
        <time>2021-11-13T15:11:21.430Z</time>
      </trkpt>
      <trkpt lat="44.33884" lon="5.26592">
        <ele>481</ele>
        <time>2021-11-13T15:11:22.430Z</time>
      </trkpt>
      <trkpt lat="44.33877" lon="5.26587">
        <ele>480</ele>
        <time>2021-11-13T15:11:23.429Z</time>
      </trkpt>
      <trkpt lat="44.3387" lon="5.26582">
        <ele>480</ele>
        <time>2021-11-13T15:11:24.429Z</time>
      </trkpt>
      <trkpt lat="44.33864" lon="5.26576">
        <ele>480</ele>
        <time>2021-11-13T15:11:25.430Z</time>
      </trkpt>
      <trkpt lat="44.33858" lon="5.26571">
        <ele>479</ele>
        <time>2021-11-13T15:11:26.429Z</time>
      </trkpt>
      <trkpt lat="44.33853" lon="5.26566">
        <ele>478</ele>
        <time>2021-11-13T15:11:27.429Z</time>
      </trkpt>
      <trkpt lat="44.33848" lon="5.26562">
        <ele>478</ele>
        <time>2021-11-13T15:11:28.430Z</time>
      </trkpt>
      <trkpt lat="44.33842" lon="5.26559">
        <ele>478</ele>
        <time>2021-11-13T15:11:29.430Z</time>
      </trkpt>
      <trkpt lat="44.33837" lon="5.26557">
        <ele>478</ele>
        <time>2021-11-13T15:11:30.430Z</time>
      </trkpt>
      <trkpt lat="44.33832" lon="5.26556">
        <ele>477</ele>
        <time>2021-11-13T15:11:31.430Z</time>
      </trkpt>
      <trkpt lat="44.33826" lon="5.26556">
        <ele>477</ele>
        <time>2021-11-13T15:11:32.429Z</time>
      </trkpt>
      <trkpt lat="44.33821" lon="5.26557">
        <ele>476</ele>
        <time>2021-11-13T15:11:33.429Z</time>
      </trkpt>
      <trkpt lat="44.33816" lon="5.26559">
        <ele>476</ele>
        <time>2021-11-13T15:11:34.429Z</time>
      </trkpt>
      <trkpt lat="44.33811" lon="5.26564">
        <ele>476</ele>
        <time>2021-11-13T15:11:35.430Z</time>
      </trkpt>
      <trkpt lat="44.33808" lon="5.26569">
        <ele>476</ele>
        <time>2021-11-13T15:11:36.430Z</time>
      </trkpt>
      <trkpt lat="44.33804" lon="5.26575">
        <ele>476</ele>
        <time>2021-11-13T15:11:37.430Z</time>
      </trkpt>
      <trkpt lat="44.33801" lon="5.26582">
        <ele>475</ele>
        <time>2021-11-13T15:11:38.430Z</time>
      </trkpt>
      <trkpt lat="44.33798" lon="5.2659">
        <ele>475</ele>
        <time>2021-11-13T15:11:39.429Z</time>
      </trkpt>
      <trkpt lat="44.33795" lon="5.26597">
        <ele>475</ele>
        <time>2021-11-13T15:11:40.430Z</time>
      </trkpt>
      <trkpt lat="44.33792" lon="5.26604">
        <ele>475</ele>
        <time>2021-11-13T15:11:41.430Z</time>
      </trkpt>
      <trkpt lat="44.33789" lon="5.2661">
        <ele>474</ele>
        <time>2021-11-13T15:11:42.430Z</time>
      </trkpt>
      <trkpt lat="44.33786" lon="5.26617">
        <ele>474</ele>
        <time>2021-11-13T15:11:43.429Z</time>
      </trkpt>
      <trkpt lat="44.33782" lon="5.26623">
        <ele>473</ele>
        <time>2021-11-13T15:11:44.430Z</time>
      </trkpt>
      <trkpt lat="44.33778" lon="5.26628">
        <ele>473</ele>
        <time>2021-11-13T15:11:45.430Z</time>
      </trkpt>
      <trkpt lat="44.33773" lon="5.26633">
        <ele>473</ele>
        <time>2021-11-13T15:11:46.430Z</time>
      </trkpt>
      <trkpt lat="44.33768" lon="5.26637">
        <ele>473</ele>
        <time>2021-11-13T15:11:47.430Z</time>
      </trkpt>
      <trkpt lat="44.33763" lon="5.26641">
        <ele>472</ele>
        <time>2021-11-13T15:11:48.429Z</time>
      </trkpt>
      <trkpt lat="44.33758" lon="5.26645">
        <ele>472</ele>
        <time>2021-11-13T15:11:49.429Z</time>
      </trkpt>
      <trkpt lat="44.33754" lon="5.2665">
        <ele>472</ele>
        <time>2021-11-13T15:11:50.430Z</time>
      </trkpt>
      <trkpt lat="44.33749" lon="5.26655">
        <ele>471</ele>
        <time>2021-11-13T15:11:51.430Z</time>
      </trkpt>
      <trkpt lat="44.33744" lon="5.2666">
        <ele>472</ele>
        <time>2021-11-13T15:11:52.430Z</time>
      </trkpt>
      <trkpt lat="44.33739" lon="5.26664">
        <ele>472</ele>
        <time>2021-11-13T15:11:53.429Z</time>
      </trkpt>
      <trkpt lat="44.33735" lon="5.26668">
        <ele>472</ele>
        <time>2021-11-13T15:11:54.429Z</time>
      </trkpt>
      <trkpt lat="44.33731" lon="5.26673">
        <ele>472</ele>
        <time>2021-11-13T15:11:55.430Z</time>
      </trkpt>
      <trkpt lat="44.33728" lon="5.26678">
        <ele>472</ele>
        <time>2021-11-13T15:11:56.430Z</time>
      </trkpt>
      <trkpt lat="44.33727" lon="5.26684">
        <ele>471</ele>
        <time>2021-11-13T15:11:57.430Z</time>
      </trkpt>
      <trkpt lat="44.33727" lon="5.26692">
        <ele>471</ele>
        <time>2021-11-13T15:11:58.430Z</time>
      </trkpt>
      <trkpt lat="44.3373" lon="5.267">
        <ele>471</ele>
        <time>2021-11-13T15:11:59.429Z</time>
      </trkpt>
      <trkpt lat="44.33733" lon="5.26708">
        <ele>471</ele>
        <time>2021-11-13T15:12:00.430Z</time>
      </trkpt>
      <trkpt lat="44.33737" lon="5.26717">
        <ele>471</ele>
        <time>2021-11-13T15:12:01.430Z</time>
      </trkpt>
      <trkpt lat="44.33742" lon="5.26728">
        <ele>470</ele>
        <time>2021-11-13T15:12:02.430Z</time>
      </trkpt>
      <trkpt lat="44.33748" lon="5.26737">
        <ele>470</ele>
        <time>2021-11-13T15:12:03.429Z</time>
      </trkpt>
      <trkpt lat="44.33754" lon="5.26747">
        <ele>470</ele>
        <time>2021-11-13T15:12:04.430Z</time>
      </trkpt>
      <trkpt lat="44.3376" lon="5.26756">
        <ele>469</ele>
        <time>2021-11-13T15:12:05.430Z</time>
      </trkpt>
      <trkpt lat="44.33764" lon="5.26765">
        <ele>468</ele>
        <time>2021-11-13T15:12:06.430Z</time>
      </trkpt>
      <trkpt lat="44.33768" lon="5.26774">
        <ele>468</ele>
        <time>2021-11-13T15:12:07.430Z</time>
      </trkpt>
      <trkpt lat="44.33771" lon="5.26785">
        <ele>467</ele>
        <time>2021-11-13T15:12:08.430Z</time>
      </trkpt>
      <trkpt lat="44.33774" lon="5.26796">
        <ele>467</ele>
        <time>2021-11-13T15:12:09.430Z</time>
      </trkpt>
      <trkpt lat="44.33776" lon="5.26807">
        <ele>467</ele>
        <time>2021-11-13T15:12:10.429Z</time>
      </trkpt>
      <trkpt lat="44.33778" lon="5.26817">
        <ele>467</ele>
        <time>2021-11-13T15:12:11.429Z</time>
      </trkpt>
      <trkpt lat="44.33779" lon="5.26828">
        <ele>467</ele>
        <time>2021-11-13T15:12:12.430Z</time>
      </trkpt>
      <trkpt lat="44.33781" lon="5.26838">
        <ele>467</ele>
        <time>2021-11-13T15:12:13.430Z</time>
      </trkpt>
      <trkpt lat="44.33783" lon="5.26848">
        <ele>467</ele>
        <time>2021-11-13T15:12:14.430Z</time>
      </trkpt>
      <trkpt lat="44.33785" lon="5.26861">
        <ele>467</ele>
        <time>2021-11-13T15:12:15.429Z</time>
      </trkpt>
      <trkpt lat="44.33788" lon="5.26869">
        <ele>467</ele>
        <time>2021-11-13T15:12:16.430Z</time>
      </trkpt>
      <trkpt lat="44.33791" lon="5.26879">
        <ele>467</ele>
        <time>2021-11-13T15:12:17.430Z</time>
      </trkpt>
      <trkpt lat="44.33795" lon="5.2689">
        <ele>466</ele>
        <time>2021-11-13T15:12:18.430Z</time>
      </trkpt>
      <trkpt lat="44.33798" lon="5.269">
        <ele>466</ele>
        <time>2021-11-13T15:12:19.430Z</time>
      </trkpt>
      <trkpt lat="44.33801" lon="5.26911">
        <ele>466</ele>
        <time>2021-11-13T15:12:20.430Z</time>
      </trkpt>
      <trkpt lat="44.33804" lon="5.26923">
        <ele>465</ele>
        <time>2021-11-13T15:12:21.430Z</time>
      </trkpt>
      <trkpt lat="44.33807" lon="5.26934">
        <ele>465</ele>
        <time>2021-11-13T15:12:22.430Z</time>
      </trkpt>
      <trkpt lat="44.33811" lon="5.26946">
        <ele>464</ele>
        <time>2021-11-13T15:12:23.430Z</time>
      </trkpt>
      <trkpt lat="44.33815" lon="5.2696">
        <ele>464</ele>
        <time>2021-11-13T15:12:24.430Z</time>
      </trkpt>
      <trkpt lat="44.33819" lon="5.26971">
        <ele>463</ele>
        <time>2021-11-13T15:12:25.430Z</time>
      </trkpt>
      <trkpt lat="44.33823" lon="5.26983">
        <ele>462</ele>
        <time>2021-11-13T15:12:26.430Z</time>
      </trkpt>
      <trkpt lat="44.33826" lon="5.26995">
        <ele>462</ele>
        <time>2021-11-13T15:12:27.430Z</time>
      </trkpt>
      <trkpt lat="44.33831" lon="5.27008">
        <ele>461</ele>
        <time>2021-11-13T15:12:28.429Z</time>
      </trkpt>
      <trkpt lat="44.33836" lon="5.2702">
        <ele>461</ele>
        <time>2021-11-13T15:12:29.429Z</time>
      </trkpt>
      <trkpt lat="44.33842" lon="5.27032">
        <ele>460</ele>
        <time>2021-11-13T15:12:30.430Z</time>
      </trkpt>
      <trkpt lat="44.33848" lon="5.27043">
        <ele>460</ele>
        <time>2021-11-13T15:12:31.430Z</time>
      </trkpt>
      <trkpt lat="44.33856" lon="5.27054">
        <ele>459</ele>
        <time>2021-11-13T15:12:32.430Z</time>
      </trkpt>
      <trkpt lat="44.33865" lon="5.27064">
        <ele>458</ele>
        <time>2021-11-13T15:12:33.430Z</time>
      </trkpt>
      <trkpt lat="44.33874" lon="5.27074">
        <ele>457</ele>
        <time>2021-11-13T15:12:34.430Z</time>
      </trkpt>
      <trkpt lat="44.33883" lon="5.27082">
        <ele>456</ele>
        <time>2021-11-13T15:12:35.430Z</time>
      </trkpt>
      <trkpt lat="44.33892" lon="5.27091">
        <ele>456</ele>
        <time>2021-11-13T15:12:36.430Z</time>
      </trkpt>
      <trkpt lat="44.33901" lon="5.27098">
        <ele>454</ele>
        <time>2021-11-13T15:12:37.430Z</time>
      </trkpt>
      <trkpt lat="44.3391" lon="5.27105">
        <ele>454</ele>
        <time>2021-11-13T15:12:38.430Z</time>
      </trkpt>
      <trkpt lat="44.33917" lon="5.27112">
        <ele>453</ele>
        <time>2021-11-13T15:12:39.429Z</time>
      </trkpt>
      <trkpt lat="44.33924" lon="5.27119">
        <ele>452</ele>
        <time>2021-11-13T15:12:40.430Z</time>
      </trkpt>
      <trkpt lat="44.3393" lon="5.27126">
        <ele>451</ele>
        <time>2021-11-13T15:12:41.430Z</time>
      </trkpt>
      <trkpt lat="44.33934" lon="5.27134">
        <ele>450</ele>
        <time>2021-11-13T15:12:42.430Z</time>
      </trkpt>
      <trkpt lat="44.33938" lon="5.27143">
        <ele>449</ele>
        <time>2021-11-13T15:12:43.430Z</time>
      </trkpt>
      <trkpt lat="44.3394" lon="5.27153">
        <ele>448</ele>
        <time>2021-11-13T15:12:44.430Z</time>
      </trkpt>
      <trkpt lat="44.33942" lon="5.27165">
        <ele>447</ele>
        <time>2021-11-13T15:12:45.430Z</time>
      </trkpt>
      <trkpt lat="44.33943" lon="5.27176">
        <ele>446</ele>
        <time>2021-11-13T15:12:46.430Z</time>
      </trkpt>
      <trkpt lat="44.33943" lon="5.27186">
        <ele>445</ele>
        <time>2021-11-13T15:12:47.430Z</time>
      </trkpt>
      <trkpt lat="44.33944" lon="5.27194">
        <ele>444</ele>
        <time>2021-11-13T15:12:48.430Z</time>
      </trkpt>
      <trkpt lat="44.33945" lon="5.27201">
        <ele>443</ele>
        <time>2021-11-13T15:12:49.430Z</time>
      </trkpt>
      <trkpt lat="44.33947" lon="5.27207">
        <ele>442</ele>
        <time>2021-11-13T15:12:50.429Z</time>
      </trkpt>
      <trkpt lat="44.33948" lon="5.27211">
        <ele>441</ele>
        <time>2021-11-13T15:12:51.430Z</time>
      </trkpt>
      <trkpt lat="44.33949" lon="5.27213">
        <ele>440</ele>
        <time>2021-11-13T15:12:52.429Z</time>
      </trkpt>
      <trkpt lat="44.33949" lon="5.27214">
        <ele>439</ele>
        <time>2021-11-13T15:12:53.430Z</time>
      </trkpt>
      <trkpt lat="44.33949" lon="5.27215">
        <ele>438</ele>
        <time>2021-11-13T15:12:54.429Z</time>
      </trkpt>
      <trkpt lat="44.33949" lon="5.27215">
        <ele>437</ele>
        <time>2021-11-13T15:13:22.532Z</time>
      </trkpt>
      <trkpt lat="44.33948" lon="5.27218">
        <ele>436</ele>
        <time>2021-11-13T15:13:23.532Z</time>
      </trkpt>
      <trkpt lat="44.3395" lon="5.27224">
        <ele>436</ele>
        <time>2021-11-13T15:13:24.532Z</time>
      </trkpt>
      <trkpt lat="44.33952" lon="5.27232">
        <ele>436</ele>
        <time>2021-11-13T15:13:25.532Z</time>
      </trkpt>
      <trkpt lat="44.33954" lon="5.27241">
        <ele>436</ele>
        <time>2021-11-13T15:13:26.532Z</time>
      </trkpt>
      <trkpt lat="44.33956" lon="5.27252">
        <ele>435</ele>
        <time>2021-11-13T15:13:27.532Z</time>
      </trkpt>
      <trkpt lat="44.33957" lon="5.27262">
        <ele>435</ele>
        <time>2021-11-13T15:13:28.532Z</time>
      </trkpt>
      <trkpt lat="44.33958" lon="5.27274">
        <ele>434</ele>
        <time>2021-11-13T15:13:29.532Z</time>
      </trkpt>
      <trkpt lat="44.33958" lon="5.27285">
        <ele>434</ele>
        <time>2021-11-13T15:13:30.532Z</time>
      </trkpt>
      <trkpt lat="44.33958" lon="5.27297">
        <ele>433</ele>
        <time>2021-11-13T15:13:31.532Z</time>
      </trkpt>
      <trkpt lat="44.33958" lon="5.27309">
        <ele>433</ele>
        <time>2021-11-13T15:13:32.531Z</time>
      </trkpt>
      <trkpt lat="44.33958" lon="5.27322">
        <ele>432</ele>
        <time>2021-11-13T15:13:33.531Z</time>
      </trkpt>
      <trkpt lat="44.33959" lon="5.27336">
        <ele>432</ele>
        <time>2021-11-13T15:13:34.531Z</time>
      </trkpt>
      <trkpt lat="44.33961" lon="5.27349">
        <ele>432</ele>
        <time>2021-11-13T15:13:35.532Z</time>
      </trkpt>
      <trkpt lat="44.33964" lon="5.27362">
        <ele>432</ele>
        <time>2021-11-13T15:13:36.532Z</time>
      </trkpt>
      <trkpt lat="44.33968" lon="5.27373">
        <ele>431</ele>
        <time>2021-11-13T15:13:37.532Z</time>
      </trkpt>
      <trkpt lat="44.33973" lon="5.27385">
        <ele>431</ele>
        <time>2021-11-13T15:13:38.531Z</time>
      </trkpt>
      <trkpt lat="44.33978" lon="5.27395">
        <ele>430</ele>
        <time>2021-11-13T15:13:39.532Z</time>
      </trkpt>
      <trkpt lat="44.33984" lon="5.27406">
        <ele>429</ele>
        <time>2021-11-13T15:13:40.532Z</time>
      </trkpt>
      <trkpt lat="44.33989" lon="5.27416">
        <ele>428</ele>
        <time>2021-11-13T15:13:41.532Z</time>
      </trkpt>
      <trkpt lat="44.33994" lon="5.27426">
        <ele>427</ele>
        <time>2021-11-13T15:13:42.532Z</time>
      </trkpt>
      <trkpt lat="44.33998" lon="5.27436">
        <ele>427</ele>
        <time>2021-11-13T15:13:43.532Z</time>
      </trkpt>
      <trkpt lat="44.34" lon="5.27445">
        <ele>426</ele>
        <time>2021-11-13T15:13:44.532Z</time>
      </trkpt>
      <trkpt lat="44.34" lon="5.27453">
        <ele>426</ele>
        <time>2021-11-13T15:13:45.531Z</time>
      </trkpt>
      <trkpt lat="44.33999" lon="5.2746">
        <ele>426</ele>
        <time>2021-11-13T15:13:46.532Z</time>
      </trkpt>
      <trkpt lat="44.33996" lon="5.27466">
        <ele>425</ele>
        <time>2021-11-13T15:13:47.532Z</time>
      </trkpt>
      <trkpt lat="44.33993" lon="5.27472">
        <ele>425</ele>
        <time>2021-11-13T15:13:48.532Z</time>
      </trkpt>
      <trkpt lat="44.3399" lon="5.27479">
        <ele>424</ele>
        <time>2021-11-13T15:13:49.532Z</time>
      </trkpt>
      <trkpt lat="44.33987" lon="5.27486">
        <ele>424</ele>
        <time>2021-11-13T15:13:50.532Z</time>
      </trkpt>
      <trkpt lat="44.33986" lon="5.27494">
        <ele>424</ele>
        <time>2021-11-13T15:13:51.531Z</time>
      </trkpt>
      <trkpt lat="44.33986" lon="5.27501">
        <ele>423</ele>
        <time>2021-11-13T15:13:52.531Z</time>
      </trkpt>
      <trkpt lat="44.33987" lon="5.27509">
        <ele>423</ele>
        <time>2021-11-13T15:13:53.532Z</time>
      </trkpt>
      <trkpt lat="44.33987" lon="5.27517">
        <ele>423</ele>
        <time>2021-11-13T15:13:54.532Z</time>
      </trkpt>
      <trkpt lat="44.33988" lon="5.27524">
        <ele>423</ele>
        <time>2021-11-13T15:13:55.532Z</time>
      </trkpt>
      <trkpt lat="44.3399" lon="5.27531">
        <ele>423</ele>
        <time>2021-11-13T15:13:56.532Z</time>
      </trkpt>
      <trkpt lat="44.33992" lon="5.27538">
        <ele>423</ele>
        <time>2021-11-13T15:13:57.532Z</time>
      </trkpt>
      <trkpt lat="44.33994" lon="5.27545">
        <ele>423</ele>
        <time>2021-11-13T15:13:58.532Z</time>
      </trkpt>
      <trkpt lat="44.33996" lon="5.27551">
        <ele>423</ele>
        <time>2021-11-13T15:13:59.532Z</time>
      </trkpt>
      <trkpt lat="44.33997" lon="5.27558">
        <ele>424</ele>
        <time>2021-11-13T15:14:00.531Z</time>
      </trkpt>
      <trkpt lat="44.33999" lon="5.27564">
        <ele>424</ele>
        <time>2021-11-13T15:14:01.531Z</time>
      </trkpt>
      <trkpt lat="44.34" lon="5.27569">
        <ele>424</ele>
        <time>2021-11-13T15:14:02.531Z</time>
      </trkpt>
      <trkpt lat="44.34" lon="5.27573">
        <ele>425</ele>
        <time>2021-11-13T15:14:03.532Z</time>
      </trkpt>
      <trkpt lat="44.34001" lon="5.27576">
        <ele>425</ele>
        <time>2021-11-13T15:14:04.532Z</time>
      </trkpt>
      <trkpt lat="44.34" lon="5.27576">
        <ele>425</ele>
        <time>2021-11-13T15:14:05.532Z</time>
      </trkpt>
      <trkpt lat="44.34001" lon="5.27577">
        <ele>425</ele>
        <time>2021-11-13T15:14:06.532Z</time>
      </trkpt>
      <trkpt lat="44.34001" lon="5.27576">
        <ele>426</ele>
        <time>2021-11-13T15:14:07.532Z</time>
      </trkpt>
      <trkpt lat="44.33998" lon="5.27582">
        <ele>426</ele>
        <time>2021-11-13T15:14:08.532Z</time>
      </trkpt>
      <trkpt lat="44.33998" lon="5.27589">
        <ele>426</ele>
        <time>2021-11-13T15:14:09.533Z</time>
      </trkpt>
      <trkpt lat="44.33996" lon="5.27596">
        <ele>426</ele>
        <time>2021-11-13T15:14:10.533Z</time>
      </trkpt>
      <trkpt lat="44.33994" lon="5.27604">
        <ele>426</ele>
        <time>2021-11-13T15:14:11.532Z</time>
      </trkpt>
      <trkpt lat="44.33992" lon="5.27612">
        <ele>426</ele>
        <time>2021-11-13T15:14:12.532Z</time>
      </trkpt>
      <trkpt lat="44.3399" lon="5.27621">
        <ele>426</ele>
        <time>2021-11-13T15:14:13.533Z</time>
      </trkpt>
      <trkpt lat="44.33989" lon="5.2763">
        <ele>425</ele>
        <time>2021-11-13T15:14:14.533Z</time>
      </trkpt>
      <trkpt lat="44.33987" lon="5.27639">
        <ele>425</ele>
        <time>2021-11-13T15:14:15.532Z</time>
      </trkpt>
      <trkpt lat="44.33986" lon="5.27648">
        <ele>424</ele>
        <time>2021-11-13T15:14:16.533Z</time>
      </trkpt>
      <trkpt lat="44.33985" lon="5.27657">
        <ele>424</ele>
        <time>2021-11-13T15:14:17.533Z</time>
      </trkpt>
      <trkpt lat="44.33985" lon="5.27666">
        <ele>424</ele>
        <time>2021-11-13T15:14:18.533Z</time>
      </trkpt>
      <trkpt lat="44.33986" lon="5.27675">
        <ele>423</ele>
        <time>2021-11-13T15:14:19.532Z</time>
      </trkpt>
      <trkpt lat="44.33988" lon="5.27684">
        <ele>423</ele>
        <time>2021-11-13T15:14:20.533Z</time>
      </trkpt>
      <trkpt lat="44.33991" lon="5.27692">
        <ele>423</ele>
        <time>2021-11-13T15:14:21.533Z</time>
      </trkpt>
      <trkpt lat="44.33994" lon="5.27701">
        <ele>423</ele>
        <time>2021-11-13T15:14:22.533Z</time>
      </trkpt>
      <trkpt lat="44.33997" lon="5.27709">
        <ele>423</ele>
        <time>2021-11-13T15:14:23.532Z</time>
      </trkpt>
      <trkpt lat="44.34" lon="5.27715">
        <ele>423</ele>
        <time>2021-11-13T15:14:24.533Z</time>
      </trkpt>
      <trkpt lat="44.34004" lon="5.27725">
        <ele>423</ele>
        <time>2021-11-13T15:14:25.533Z</time>
      </trkpt>
      <trkpt lat="44.34007" lon="5.27733">
        <ele>423</ele>
        <time>2021-11-13T15:14:26.533Z</time>
      </trkpt>
      <trkpt lat="44.34011" lon="5.27741">
        <ele>422</ele>
        <time>2021-11-13T15:14:27.533Z</time>
      </trkpt>
      <trkpt lat="44.34014" lon="5.27749">
        <ele>422</ele>
        <time>2021-11-13T15:14:28.533Z</time>
      </trkpt>
      <trkpt lat="44.34018" lon="5.27757">
        <ele>421</ele>
        <time>2021-11-13T15:14:29.533Z</time>
      </trkpt>
      <trkpt lat="44.3402" lon="5.27766">
        <ele>421</ele>
        <time>2021-11-13T15:14:30.533Z</time>
      </trkpt>
      <trkpt lat="44.34024" lon="5.27774">
        <ele>421</ele>
        <time>2021-11-13T15:14:31.532Z</time>
      </trkpt>
      <trkpt lat="44.34027" lon="5.27783">
        <ele>421</ele>
        <time>2021-11-13T15:14:32.533Z</time>
      </trkpt>
      <trkpt lat="44.34031" lon="5.27792">
        <ele>420</ele>
        <time>2021-11-13T15:14:33.532Z</time>
      </trkpt>
      <trkpt lat="44.34034" lon="5.278">
        <ele>420</ele>
        <time>2021-11-13T15:14:34.533Z</time>
      </trkpt>
      <trkpt lat="44.34038" lon="5.27808">
        <ele>420</ele>
        <time>2021-11-13T15:14:35.533Z</time>
      </trkpt>
      <trkpt lat="44.34042" lon="5.27816">
        <ele>420</ele>
        <time>2021-11-13T15:14:36.532Z</time>
      </trkpt>
      <trkpt lat="44.34046" lon="5.27823">
        <ele>420</ele>
        <time>2021-11-13T15:14:37.532Z</time>
      </trkpt>
      <trkpt lat="44.3405" lon="5.27831">
        <ele>420</ele>
        <time>2021-11-13T15:14:38.533Z</time>
      </trkpt>
      <trkpt lat="44.34055" lon="5.27839">
        <ele>421</ele>
        <time>2021-11-13T15:14:39.533Z</time>
      </trkpt>
      <trkpt lat="44.34059" lon="5.27846">
        <ele>421</ele>
        <time>2021-11-13T15:14:40.532Z</time>
      </trkpt>
      <trkpt lat="44.34063" lon="5.27854">
        <ele>421</ele>
        <time>2021-11-13T15:14:41.533Z</time>
      </trkpt>
      <trkpt lat="44.34068" lon="5.27863">
        <ele>421</ele>
        <time>2021-11-13T15:14:42.533Z</time>
      </trkpt>
      <trkpt lat="44.34072" lon="5.27871">
        <ele>421</ele>
        <time>2021-11-13T15:14:43.533Z</time>
      </trkpt>
      <trkpt lat="44.34075" lon="5.27879">
        <ele>421</ele>
        <time>2021-11-13T15:14:44.533Z</time>
      </trkpt>
      <trkpt lat="44.34079" lon="5.27888">
        <ele>421</ele>
        <time>2021-11-13T15:14:45.533Z</time>
      </trkpt>
      <trkpt lat="44.34082" lon="5.27897">
        <ele>420</ele>
        <time>2021-11-13T15:14:46.533Z</time>
      </trkpt>
      <trkpt lat="44.34086" lon="5.27906">
        <ele>420</ele>
        <time>2021-11-13T15:14:47.533Z</time>
      </trkpt>
      <trkpt lat="44.34089" lon="5.27916">
        <ele>420</ele>
        <time>2021-11-13T15:14:48.533Z</time>
      </trkpt>
      <trkpt lat="44.34092" lon="5.27925">
        <ele>420</ele>
        <time>2021-11-13T15:14:49.533Z</time>
      </trkpt>
      <trkpt lat="44.34093" lon="5.27933">
        <ele>419</ele>
        <time>2021-11-13T15:14:50.533Z</time>
      </trkpt>
      <trkpt lat="44.34095" lon="5.27945">
        <ele>419</ele>
        <time>2021-11-13T15:14:51.532Z</time>
      </trkpt>
      <trkpt lat="44.34096" lon="5.27955">
        <ele>419</ele>
        <time>2021-11-13T15:14:52.533Z</time>
      </trkpt>
      <trkpt lat="44.34096" lon="5.27965">
        <ele>418</ele>
        <time>2021-11-13T15:14:53.533Z</time>
      </trkpt>
      <trkpt lat="44.34096" lon="5.27975">
        <ele>418</ele>
        <time>2021-11-13T15:14:54.533Z</time>
      </trkpt>
      <trkpt lat="44.34096" lon="5.27985">
        <ele>418</ele>
        <time>2021-11-13T15:14:55.533Z</time>
      </trkpt>
      <trkpt lat="44.34096" lon="5.27995">
        <ele>418</ele>
        <time>2021-11-13T15:14:56.533Z</time>
      </trkpt>
      <trkpt lat="44.34096" lon="5.28005">
        <ele>418</ele>
        <time>2021-11-13T15:14:57.533Z</time>
      </trkpt>
      <trkpt lat="44.34096" lon="5.28015">
        <ele>418</ele>
        <time>2021-11-13T15:14:58.533Z</time>
      </trkpt>
      <trkpt lat="44.34096" lon="5.28025">
        <ele>418</ele>
        <time>2021-11-13T15:14:59.533Z</time>
      </trkpt>
      <trkpt lat="44.34096" lon="5.28034">
        <ele>417</ele>
        <time>2021-11-13T15:15:00.533Z</time>
      </trkpt>
      <trkpt lat="44.34097" lon="5.28044">
        <ele>417</ele>
        <time>2021-11-13T15:15:01.532Z</time>
      </trkpt>
      <trkpt lat="44.34098" lon="5.28054">
        <ele>417</ele>
        <time>2021-11-13T15:15:02.533Z</time>
      </trkpt>
      <trkpt lat="44.34099" lon="5.28063">
        <ele>417</ele>
        <time>2021-11-13T15:15:03.532Z</time>
      </trkpt>
      <trkpt lat="44.341" lon="5.28072">
        <ele>417</ele>
        <time>2021-11-13T15:15:04.532Z</time>
      </trkpt>
      <trkpt lat="44.341" lon="5.28079">
        <ele>416</ele>
        <time>2021-11-13T15:15:05.532Z</time>
      </trkpt>
      <trkpt lat="44.341" lon="5.28085">
        <ele>416</ele>
        <time>2021-11-13T15:15:06.533Z</time>
      </trkpt>
      <trkpt lat="44.34099" lon="5.28089">
        <ele>416</ele>
        <time>2021-11-13T15:15:07.533Z</time>
      </trkpt>
      <trkpt lat="44.34099" lon="5.28093">
        <ele>416</ele>
        <time>2021-11-13T15:15:08.533Z</time>
      </trkpt>
      <trkpt lat="44.34098" lon="5.28097">
        <ele>416</ele>
        <time>2021-11-13T15:15:09.532Z</time>
      </trkpt>
      <trkpt lat="44.34098" lon="5.28102">
        <ele>416</ele>
        <time>2021-11-13T15:15:10.533Z</time>
      </trkpt>
      <trkpt lat="44.34099" lon="5.28106">
        <ele>416</ele>
        <time>2021-11-13T15:15:11.533Z</time>
      </trkpt>
      <trkpt lat="44.34101" lon="5.2811">
        <ele>416</ele>
        <time>2021-11-13T15:15:12.532Z</time>
      </trkpt>
      <trkpt lat="44.34105" lon="5.28115">
        <ele>415</ele>
        <time>2021-11-13T15:15:13.533Z</time>
      </trkpt>
      <trkpt lat="44.34108" lon="5.28119">
        <ele>415</ele>
        <time>2021-11-13T15:15:14.533Z</time>
      </trkpt>
      <trkpt lat="44.34111" lon="5.28124">
        <ele>415</ele>
        <time>2021-11-13T15:15:15.532Z</time>
      </trkpt>
      <trkpt lat="44.34114" lon="5.2813">
        <ele>415</ele>
        <time>2021-11-13T15:15:16.533Z</time>
      </trkpt>
      <trkpt lat="44.34117" lon="5.28136">
        <ele>415</ele>
        <time>2021-11-13T15:15:17.533Z</time>
      </trkpt>
      <trkpt lat="44.34121" lon="5.28142">
        <ele>415</ele>
        <time>2021-11-13T15:15:18.533Z</time>
      </trkpt>
      <trkpt lat="44.34125" lon="5.28148">
        <ele>415</ele>
        <time>2021-11-13T15:15:19.533Z</time>
      </trkpt>
      <trkpt lat="44.34129" lon="5.28154">
        <ele>415</ele>
        <time>2021-11-13T15:15:20.533Z</time>
      </trkpt>
      <trkpt lat="44.34132" lon="5.2816">
        <ele>414</ele>
        <time>2021-11-13T15:15:21.533Z</time>
      </trkpt>
      <trkpt lat="44.34136" lon="5.28165">
        <ele>414</ele>
        <time>2021-11-13T15:15:22.532Z</time>
      </trkpt>
      <trkpt lat="44.3414" lon="5.28171">
        <ele>413</ele>
        <time>2021-11-13T15:15:23.533Z</time>
      </trkpt>
      <trkpt lat="44.34144" lon="5.28176">
        <ele>413</ele>
        <time>2021-11-13T15:15:24.533Z</time>
      </trkpt>
      <trkpt lat="44.34147" lon="5.28182">
        <ele>413</ele>
        <time>2021-11-13T15:15:25.533Z</time>
      </trkpt>
      <trkpt lat="44.34151" lon="5.28187">
        <ele>413</ele>
        <time>2021-11-13T15:15:26.533Z</time>
      </trkpt>
      <trkpt lat="44.34155" lon="5.28192">
        <ele>413</ele>
        <time>2021-11-13T15:15:27.533Z</time>
      </trkpt>
      <trkpt lat="44.34159" lon="5.28196">
        <ele>413</ele>
        <time>2021-11-13T15:15:28.533Z</time>
      </trkpt>
      <trkpt lat="44.34164" lon="5.28199">
        <ele>413</ele>
        <time>2021-11-13T15:15:29.532Z</time>
      </trkpt>
      <trkpt lat="44.34168" lon="5.28203">
        <ele>413</ele>
        <time>2021-11-13T15:15:30.533Z</time>
      </trkpt>
      <trkpt lat="44.34173" lon="5.28205">
        <ele>413</ele>
        <time>2021-11-13T15:15:31.532Z</time>
      </trkpt>
      <trkpt lat="44.34178" lon="5.28206">
        <ele>413</ele>
        <time>2021-11-13T15:15:32.532Z</time>
      </trkpt>
      <trkpt lat="44.34181" lon="5.28207">
        <ele>413</ele>
        <time>2021-11-13T15:15:33.532Z</time>
      </trkpt>
      <trkpt lat="44.34186" lon="5.28207">
        <ele>414</ele>
        <time>2021-11-13T15:15:34.533Z</time>
      </trkpt>
      <trkpt lat="44.34191" lon="5.28206">
        <ele>414</ele>
        <time>2021-11-13T15:15:35.533Z</time>
      </trkpt>
      <trkpt lat="44.34195" lon="5.28206">
        <ele>414</ele>
        <time>2021-11-13T15:15:36.533Z</time>
      </trkpt>
      <trkpt lat="44.34198" lon="5.28206">
        <ele>414</ele>
        <time>2021-11-13T15:15:37.533Z</time>
      </trkpt>
      <trkpt lat="44.34202" lon="5.28205">
        <ele>414</ele>
        <time>2021-11-13T15:15:38.532Z</time>
      </trkpt>
      <trkpt lat="44.34205" lon="5.28204">
        <ele>414</ele>
        <time>2021-11-13T15:15:39.533Z</time>
      </trkpt>
      <trkpt lat="44.34208" lon="5.28203">
        <ele>414</ele>
        <time>2021-11-13T15:15:40.532Z</time>
      </trkpt>
      <trkpt lat="44.3421" lon="5.28203">
        <ele>414</ele>
        <time>2021-11-13T15:15:41.533Z</time>
      </trkpt>
      <trkpt lat="44.34214" lon="5.28202">
        <ele>414</ele>
        <time>2021-11-13T15:15:42.533Z</time>
      </trkpt>
      <trkpt lat="44.34217" lon="5.28202">
        <ele>414</ele>
        <time>2021-11-13T15:15:43.533Z</time>
      </trkpt>
      <trkpt lat="44.34221" lon="5.28201">
        <ele>414</ele>
        <time>2021-11-13T15:15:44.532Z</time>
      </trkpt>
      <trkpt lat="44.34224" lon="5.28201">
        <ele>414</ele>
        <time>2021-11-13T15:15:45.533Z</time>
      </trkpt>
      <trkpt lat="44.34228" lon="5.282">
        <ele>414</ele>
        <time>2021-11-13T15:15:46.533Z</time>
      </trkpt>
      <trkpt lat="44.34232" lon="5.282">
        <ele>415</ele>
        <time>2021-11-13T15:15:47.533Z</time>
      </trkpt>
      <trkpt lat="44.34235" lon="5.28199">
        <ele>415</ele>
        <time>2021-11-13T15:15:48.533Z</time>
      </trkpt>
      <trkpt lat="44.34239" lon="5.28198">
        <ele>415</ele>
        <time>2021-11-13T15:15:49.533Z</time>
      </trkpt>
      <trkpt lat="44.34242" lon="5.28197">
        <ele>415</ele>
        <time>2021-11-13T15:15:50.533Z</time>
      </trkpt>
      <trkpt lat="44.34245" lon="5.28196">
        <ele>415</ele>
        <time>2021-11-13T15:15:51.533Z</time>
      </trkpt>
      <trkpt lat="44.34249" lon="5.28196">
        <ele>415</ele>
        <time>2021-11-13T15:15:52.533Z</time>
      </trkpt>
      <trkpt lat="44.34252" lon="5.28195">
        <ele>415</ele>
        <time>2021-11-13T15:15:53.533Z</time>
      </trkpt>
      <trkpt lat="44.34255" lon="5.28195">
        <ele>415</ele>
        <time>2021-11-13T15:15:54.533Z</time>
      </trkpt>
      <trkpt lat="44.34259" lon="5.28194">
        <ele>414</ele>
        <time>2021-11-13T15:15:55.533Z</time>
      </trkpt>
      <trkpt lat="44.34263" lon="5.28194">
        <ele>414</ele>
        <time>2021-11-13T15:15:56.533Z</time>
      </trkpt>
      <trkpt lat="44.34268" lon="5.28194">
        <ele>414</ele>
        <time>2021-11-13T15:15:57.533Z</time>
      </trkpt>
      <trkpt lat="44.34272" lon="5.28195">
        <ele>414</ele>
        <time>2021-11-13T15:15:58.532Z</time>
      </trkpt>
      <trkpt lat="44.34275" lon="5.28196">
        <ele>414</ele>
        <time>2021-11-13T15:15:59.533Z</time>
      </trkpt>
      <trkpt lat="44.34279" lon="5.28197">
        <ele>414</ele>
        <time>2021-11-13T15:16:00.532Z</time>
      </trkpt>
      <trkpt lat="44.34283" lon="5.28198">
        <ele>414</ele>
        <time>2021-11-13T15:16:01.533Z</time>
      </trkpt>
      <trkpt lat="44.34286" lon="5.282">
        <ele>415</ele>
        <time>2021-11-13T15:16:02.533Z</time>
      </trkpt>
      <trkpt lat="44.34289" lon="5.28202">
        <ele>415</ele>
        <time>2021-11-13T15:16:03.533Z</time>
      </trkpt>
      <trkpt lat="44.34293" lon="5.28204">
        <ele>415</ele>
        <time>2021-11-13T15:16:04.533Z</time>
      </trkpt>
      <trkpt lat="44.34297" lon="5.28207">
        <ele>415</ele>
        <time>2021-11-13T15:16:05.533Z</time>
      </trkpt>
      <trkpt lat="44.34301" lon="5.2821">
        <ele>415</ele>
        <time>2021-11-13T15:16:06.533Z</time>
      </trkpt>
      <trkpt lat="44.34305" lon="5.28212">
        <ele>415</ele>
        <time>2021-11-13T15:16:07.533Z</time>
      </trkpt>
      <trkpt lat="44.3431" lon="5.28215">
        <ele>415</ele>
        <time>2021-11-13T15:16:08.533Z</time>
      </trkpt>
      <trkpt lat="44.34314" lon="5.28217">
        <ele>415</ele>
        <time>2021-11-13T15:16:09.533Z</time>
      </trkpt>
      <trkpt lat="44.34319" lon="5.2822">
        <ele>415</ele>
        <time>2021-11-13T15:16:10.532Z</time>
      </trkpt>
      <trkpt lat="44.34323" lon="5.28222">
        <ele>415</ele>
        <time>2021-11-13T15:16:11.532Z</time>
      </trkpt>
      <trkpt lat="44.34329" lon="5.28225">
        <ele>415</ele>
        <time>2021-11-13T15:16:12.533Z</time>
      </trkpt>
      <trkpt lat="44.34334" lon="5.28227">
        <ele>415</ele>
        <time>2021-11-13T15:16:13.533Z</time>
      </trkpt>
      <trkpt lat="44.34339" lon="5.2823">
        <ele>415</ele>
        <time>2021-11-13T15:16:14.532Z</time>
      </trkpt>
      <trkpt lat="44.34344" lon="5.28232">
        <ele>414</ele>
        <time>2021-11-13T15:16:15.533Z</time>
      </trkpt>
      <trkpt lat="44.3435" lon="5.28234">
        <ele>414</ele>
        <time>2021-11-13T15:16:16.533Z</time>
      </trkpt>
      <trkpt lat="44.34354" lon="5.28235">
        <ele>414</ele>
        <time>2021-11-13T15:16:17.532Z</time>
      </trkpt>
      <trkpt lat="44.34362" lon="5.28237">
        <ele>414</ele>
        <time>2021-11-13T15:16:18.532Z</time>
      </trkpt>
      <trkpt lat="44.34368" lon="5.28237">
        <ele>414</ele>
        <time>2021-11-13T15:16:19.532Z</time>
      </trkpt>
      <trkpt lat="44.34374" lon="5.28238">
        <ele>414</ele>
        <time>2021-11-13T15:16:20.532Z</time>
      </trkpt>
      <trkpt lat="44.3438" lon="5.28238">
        <ele>414</ele>
        <time>2021-11-13T15:16:21.533Z</time>
      </trkpt>
      <trkpt lat="44.34386" lon="5.28237">
        <ele>414</ele>
        <time>2021-11-13T15:16:22.532Z</time>
      </trkpt>
      <trkpt lat="44.34392" lon="5.28237">
        <ele>413</ele>
        <time>2021-11-13T15:16:23.533Z</time>
      </trkpt>
      <trkpt lat="44.34398" lon="5.28236">
        <ele>413</ele>
        <time>2021-11-13T15:16:24.533Z</time>
      </trkpt>
      <trkpt lat="44.34404" lon="5.28235">
        <ele>412</ele>
        <time>2021-11-13T15:16:25.532Z</time>
      </trkpt>
      <trkpt lat="44.3441" lon="5.28235">
        <ele>411</ele>
        <time>2021-11-13T15:16:26.533Z</time>
      </trkpt>
      <trkpt lat="44.34415" lon="5.28234">
        <ele>411</ele>
        <time>2021-11-13T15:16:27.533Z</time>
      </trkpt>
      <trkpt lat="44.34421" lon="5.28233">
        <ele>411</ele>
        <time>2021-11-13T15:16:28.533Z</time>
      </trkpt>
      <trkpt lat="44.34425" lon="5.28232">
        <ele>411</ele>
        <time>2021-11-13T15:16:29.532Z</time>
      </trkpt>
      <trkpt lat="44.34429" lon="5.28233">
        <ele>411</ele>
        <time>2021-11-13T15:16:30.532Z</time>
      </trkpt>
      <trkpt lat="44.34432" lon="5.28234">
        <ele>411</ele>
        <time>2021-11-13T15:16:31.533Z</time>
      </trkpt>
      <trkpt lat="44.34435" lon="5.28236">
        <ele>410</ele>
        <time>2021-11-13T15:16:32.532Z</time>
      </trkpt>
      <trkpt lat="44.34438" lon="5.2824">
        <ele>410</ele>
        <time>2021-11-13T15:16:33.533Z</time>
      </trkpt>
      <trkpt lat="44.34441" lon="5.28244">
        <ele>409</ele>
        <time>2021-11-13T15:16:34.533Z</time>
      </trkpt>
      <trkpt lat="44.34445" lon="5.2825">
        <ele>408</ele>
        <time>2021-11-13T15:16:35.533Z</time>
      </trkpt>
      <trkpt lat="44.34448" lon="5.28256">
        <ele>407</ele>
        <time>2021-11-13T15:16:36.532Z</time>
      </trkpt>
      <trkpt lat="44.34451" lon="5.28261">
        <ele>407</ele>
        <time>2021-11-13T15:16:37.532Z</time>
      </trkpt>
      <trkpt lat="44.34455" lon="5.28266">
        <ele>406</ele>
        <time>2021-11-13T15:16:38.532Z</time>
      </trkpt>
      <trkpt lat="44.34459" lon="5.28271">
        <ele>406</ele>
        <time>2021-11-13T15:16:39.533Z</time>
      </trkpt>
      <trkpt lat="44.34463" lon="5.28275">
        <ele>405</ele>
        <time>2021-11-13T15:16:40.532Z</time>
      </trkpt>
      <trkpt lat="44.34466" lon="5.28279">
        <ele>405</ele>
        <time>2021-11-13T15:16:41.532Z</time>
      </trkpt>
      <trkpt lat="44.3447" lon="5.28284">
        <ele>405</ele>
        <time>2021-11-13T15:16:42.533Z</time>
      </trkpt>
      <trkpt lat="44.34473" lon="5.2829">
        <ele>404</ele>
        <time>2021-11-13T15:16:43.533Z</time>
      </trkpt>
      <trkpt lat="44.34475" lon="5.28294">
        <ele>404</ele>
        <time>2021-11-13T15:16:44.532Z</time>
      </trkpt>
      <trkpt lat="44.34477" lon="5.28298">
        <ele>404</ele>
        <time>2021-11-13T15:16:45.533Z</time>
      </trkpt>
      <trkpt lat="44.34479" lon="5.28302">
        <ele>404</ele>
        <time>2021-11-13T15:16:46.533Z</time>
      </trkpt>
      <trkpt lat="44.3448" lon="5.28305">
        <ele>404</ele>
        <time>2021-11-13T15:16:47.533Z</time>
      </trkpt>
      <trkpt lat="44.34481" lon="5.28308">
        <ele>403</ele>
        <time>2021-11-13T15:16:48.532Z</time>
      </trkpt>
      <trkpt lat="44.34482" lon="5.2831">
        <ele>403</ele>
        <time>2021-11-13T15:16:49.532Z</time>
      </trkpt>
      <trkpt lat="44.34483" lon="5.28312">
        <ele>403</ele>
        <time>2021-11-13T15:16:50.533Z</time>
      </trkpt>
      <trkpt lat="44.34485" lon="5.28313">
        <ele>403</ele>
        <time>2021-11-13T15:16:51.533Z</time>
      </trkpt>
      <trkpt lat="44.34487" lon="5.28313">
        <ele>403</ele>
        <time>2021-11-13T15:16:52.533Z</time>
      </trkpt>
      <trkpt lat="44.3449" lon="5.28312">
        <ele>403</ele>
        <time>2021-11-13T15:16:53.533Z</time>
      </trkpt>
      <trkpt lat="44.34493" lon="5.28311">
        <ele>403</ele>
        <time>2021-11-13T15:16:54.532Z</time>
      </trkpt>
      <trkpt lat="44.34497" lon="5.28309">
        <ele>404</ele>
        <time>2021-11-13T15:16:55.532Z</time>
      </trkpt>
      <trkpt lat="44.34501" lon="5.28306">
        <ele>404</ele>
        <time>2021-11-13T15:16:56.533Z</time>
      </trkpt>
      <trkpt lat="44.34506" lon="5.28304">
        <ele>405</ele>
        <time>2021-11-13T15:16:57.533Z</time>
      </trkpt>
      <trkpt lat="44.3451" lon="5.28302">
        <ele>405</ele>
        <time>2021-11-13T15:16:58.533Z</time>
      </trkpt>
      <trkpt lat="44.34515" lon="5.283">
        <ele>406</ele>
        <time>2021-11-13T15:16:59.533Z</time>
      </trkpt>
      <trkpt lat="44.34519" lon="5.28298">
        <ele>406</ele>
        <time>2021-11-13T15:17:00.532Z</time>
      </trkpt>
      <trkpt lat="44.34523" lon="5.28297">
        <ele>406</ele>
        <time>2021-11-13T15:17:01.533Z</time>
      </trkpt>
      <trkpt lat="44.34529" lon="5.28294">
        <ele>407</ele>
        <time>2021-11-13T15:17:02.532Z</time>
      </trkpt>
      <trkpt lat="44.34533" lon="5.28293">
        <ele>407</ele>
        <time>2021-11-13T15:17:03.533Z</time>
      </trkpt>
      <trkpt lat="44.34538" lon="5.28291">
        <ele>407</ele>
        <time>2021-11-13T15:17:04.532Z</time>
      </trkpt>
      <trkpt lat="44.34543" lon="5.28289">
        <ele>407</ele>
        <time>2021-11-13T15:17:05.533Z</time>
      </trkpt>
      <trkpt lat="44.34548" lon="5.28287">
        <ele>408</ele>
        <time>2021-11-13T15:17:06.533Z</time>
      </trkpt>
      <trkpt lat="44.34552" lon="5.28285">
        <ele>408</ele>
        <time>2021-11-13T15:17:07.533Z</time>
      </trkpt>
      <trkpt lat="44.34558" lon="5.28284">
        <ele>408</ele>
        <time>2021-11-13T15:17:08.532Z</time>
      </trkpt>
      <trkpt lat="44.34563" lon="5.28283">
        <ele>408</ele>
        <time>2021-11-13T15:17:09.532Z</time>
      </trkpt>
      <trkpt lat="44.34569" lon="5.28283">
        <ele>408</ele>
        <time>2021-11-13T15:17:10.533Z</time>
      </trkpt>
      <trkpt lat="44.34574" lon="5.28283">
        <ele>408</ele>
        <time>2021-11-13T15:17:11.533Z</time>
      </trkpt>
      <trkpt lat="44.34579" lon="5.28284">
        <ele>408</ele>
        <time>2021-11-13T15:17:12.533Z</time>
      </trkpt>
      <trkpt lat="44.34585" lon="5.28284">
        <ele>408</ele>
        <time>2021-11-13T15:17:13.533Z</time>
      </trkpt>
      <trkpt lat="44.34589" lon="5.28285">
        <ele>408</ele>
        <time>2021-11-13T15:17:14.533Z</time>
      </trkpt>
      <trkpt lat="44.34595" lon="5.28287">
        <ele>408</ele>
        <time>2021-11-13T15:17:15.532Z</time>
      </trkpt>
      <trkpt lat="44.34602" lon="5.28288">
        <ele>408</ele>
        <time>2021-11-13T15:17:16.532Z</time>
      </trkpt>
      <trkpt lat="44.34608" lon="5.2829">
        <ele>407</ele>
        <time>2021-11-13T15:17:17.533Z</time>
      </trkpt>
      <trkpt lat="44.34614" lon="5.28291">
        <ele>407</ele>
        <time>2021-11-13T15:17:18.533Z</time>
      </trkpt>
      <trkpt lat="44.34621" lon="5.28293">
        <ele>406</ele>
        <time>2021-11-13T15:17:19.532Z</time>
      </trkpt>
      <trkpt lat="44.34627" lon="5.28294">
        <ele>406</ele>
        <time>2021-11-13T15:17:20.532Z</time>
      </trkpt>
      <trkpt lat="44.34634" lon="5.28296">
        <ele>405</ele>
        <time>2021-11-13T15:17:21.533Z</time>
      </trkpt>
      <trkpt lat="44.34641" lon="5.28297">
        <ele>405</ele>
        <time>2021-11-13T15:17:22.533Z</time>
      </trkpt>
      <trkpt lat="44.34647" lon="5.283">
        <ele>405</ele>
        <time>2021-11-13T15:17:23.533Z</time>
      </trkpt>
      <trkpt lat="44.34655" lon="5.28302">
        <ele>404</ele>
        <time>2021-11-13T15:17:24.532Z</time>
      </trkpt>
      <trkpt lat="44.34662" lon="5.28303">
        <ele>404</ele>
        <time>2021-11-13T15:17:25.532Z</time>
      </trkpt>
      <trkpt lat="44.34669" lon="5.28304">
        <ele>403</ele>
        <time>2021-11-13T15:17:26.533Z</time>
      </trkpt>
      <trkpt lat="44.34676" lon="5.28305">
        <ele>402</ele>
        <time>2021-11-13T15:17:27.533Z</time>
      </trkpt>
      <trkpt lat="44.34682" lon="5.28307">
        <ele>402</ele>
        <time>2021-11-13T15:17:28.533Z</time>
      </trkpt>
      <trkpt lat="44.34688" lon="5.28308">
        <ele>402</ele>
        <time>2021-11-13T15:17:29.533Z</time>
      </trkpt>
      <trkpt lat="44.34695" lon="5.28309">
        <ele>401</ele>
        <time>2021-11-13T15:17:30.533Z</time>
      </trkpt>
      <trkpt lat="44.34701" lon="5.28311">
        <ele>401</ele>
        <time>2021-11-13T15:17:31.533Z</time>
      </trkpt>
      <trkpt lat="44.34707" lon="5.28312">
        <ele>401</ele>
        <time>2021-11-13T15:17:32.533Z</time>
      </trkpt>
      <trkpt lat="44.34712" lon="5.28313">
        <ele>401</ele>
        <time>2021-11-13T15:17:33.533Z</time>
      </trkpt>
      <trkpt lat="44.3472" lon="5.28314">
        <ele>401</ele>
        <time>2021-11-13T15:17:34.532Z</time>
      </trkpt>
      <trkpt lat="44.34726" lon="5.28314">
        <ele>401</ele>
        <time>2021-11-13T15:17:35.533Z</time>
      </trkpt>
      <trkpt lat="44.34731" lon="5.28314">
        <ele>401</ele>
        <time>2021-11-13T15:17:36.532Z</time>
      </trkpt>
      <trkpt lat="44.34738" lon="5.28313">
        <ele>401</ele>
        <time>2021-11-13T15:17:37.533Z</time>
      </trkpt>
      <trkpt lat="44.34744" lon="5.28313">
        <ele>400</ele>
        <time>2021-11-13T15:17:38.533Z</time>
      </trkpt>
      <trkpt lat="44.34751" lon="5.28311">
        <ele>400</ele>
        <time>2021-11-13T15:17:39.533Z</time>
      </trkpt>
      <trkpt lat="44.34758" lon="5.28309">
        <ele>400</ele>
        <time>2021-11-13T15:17:40.533Z</time>
      </trkpt>
      <trkpt lat="44.34763" lon="5.28308">
        <ele>400</ele>
        <time>2021-11-13T15:17:41.533Z</time>
      </trkpt>
      <trkpt lat="44.34768" lon="5.28306">
        <ele>400</ele>
        <time>2021-11-13T15:17:42.533Z</time>
      </trkpt>
      <trkpt lat="44.34775" lon="5.28302">
        <ele>400</ele>
        <time>2021-11-13T15:17:43.533Z</time>
      </trkpt>
      <trkpt lat="44.34781" lon="5.28298">
        <ele>400</ele>
        <time>2021-11-13T15:17:44.533Z</time>
      </trkpt>
      <trkpt lat="44.34786" lon="5.28294">
        <ele>401</ele>
        <time>2021-11-13T15:17:45.533Z</time>
      </trkpt>
      <trkpt lat="44.34792" lon="5.28288">
        <ele>401</ele>
        <time>2021-11-13T15:17:46.533Z</time>
      </trkpt>
      <trkpt lat="44.34798" lon="5.28281">
        <ele>401</ele>
        <time>2021-11-13T15:17:47.533Z</time>
      </trkpt>
      <trkpt lat="44.34801" lon="5.28274">
        <ele>401</ele>
        <time>2021-11-13T15:17:48.533Z</time>
      </trkpt>
      <trkpt lat="44.34805" lon="5.28266">
        <ele>401</ele>
        <time>2021-11-13T15:17:49.533Z</time>
      </trkpt>
      <trkpt lat="44.34809" lon="5.28257">
        <ele>401</ele>
        <time>2021-11-13T15:17:50.533Z</time>
      </trkpt>
      <trkpt lat="44.34812" lon="5.2825">
        <ele>402</ele>
        <time>2021-11-13T15:17:51.533Z</time>
      </trkpt>
      <trkpt lat="44.34815" lon="5.28239">
        <ele>402</ele>
        <time>2021-11-13T15:17:52.533Z</time>
      </trkpt>
      <trkpt lat="44.34816" lon="5.28231">
        <ele>402</ele>
        <time>2021-11-13T15:17:53.533Z</time>
      </trkpt>
      <trkpt lat="44.34817" lon="5.28224">
        <ele>402</ele>
        <time>2021-11-13T15:17:54.533Z</time>
      </trkpt>
      <trkpt lat="44.34819" lon="5.28215">
        <ele>402</ele>
        <time>2021-11-13T15:17:55.533Z</time>
      </trkpt>
      <trkpt lat="44.34821" lon="5.28207">
        <ele>402</ele>
        <time>2021-11-13T15:17:56.533Z</time>
      </trkpt>
      <trkpt lat="44.34823" lon="5.28196">
        <ele>402</ele>
        <time>2021-11-13T15:17:57.533Z</time>
      </trkpt>
      <trkpt lat="44.34824" lon="5.28187">
        <ele>403</ele>
        <time>2021-11-13T15:17:58.533Z</time>
      </trkpt>
      <trkpt lat="44.34826" lon="5.28179">
        <ele>403</ele>
        <time>2021-11-13T15:17:59.533Z</time>
      </trkpt>
      <trkpt lat="44.34828" lon="5.28172">
        <ele>403</ele>
        <time>2021-11-13T15:18:00.532Z</time>
      </trkpt>
      <trkpt lat="44.3483" lon="5.28162">
        <ele>403</ele>
        <time>2021-11-13T15:18:01.533Z</time>
      </trkpt>
      <trkpt lat="44.34832" lon="5.28154">
        <ele>403</ele>
        <time>2021-11-13T15:18:02.533Z</time>
      </trkpt>
      <trkpt lat="44.34835" lon="5.28145">
        <ele>402</ele>
        <time>2021-11-13T15:18:03.533Z</time>
      </trkpt>
      <trkpt lat="44.34838" lon="5.28138">
        <ele>402</ele>
        <time>2021-11-13T15:18:04.533Z</time>
      </trkpt>
      <trkpt lat="44.34841" lon="5.2813">
        <ele>401</ele>
        <time>2021-11-13T15:18:05.533Z</time>
      </trkpt>
      <trkpt lat="44.34845" lon="5.28121">
        <ele>401</ele>
        <time>2021-11-13T15:18:06.533Z</time>
      </trkpt>
      <trkpt lat="44.34848" lon="5.28113">
        <ele>402</ele>
        <time>2021-11-13T15:18:07.533Z</time>
      </trkpt>
      <trkpt lat="44.34852" lon="5.28106">
        <ele>402</ele>
        <time>2021-11-13T15:18:08.532Z</time>
      </trkpt>
      <trkpt lat="44.34856" lon="5.281">
        <ele>402</ele>
        <time>2021-11-13T15:18:09.533Z</time>
      </trkpt>
      <trkpt lat="44.3486" lon="5.28094">
        <ele>402</ele>
        <time>2021-11-13T15:18:10.533Z</time>
      </trkpt>
      <trkpt lat="44.34865" lon="5.28088">
        <ele>402</ele>
        <time>2021-11-13T15:18:11.533Z</time>
      </trkpt>
      <trkpt lat="44.3487" lon="5.28082">
        <ele>402</ele>
        <time>2021-11-13T15:18:12.533Z</time>
      </trkpt>
      <trkpt lat="44.34875" lon="5.28077">
        <ele>402</ele>
        <time>2021-11-13T15:18:13.533Z</time>
      </trkpt>
      <trkpt lat="44.3488" lon="5.28072">
        <ele>402</ele>
        <time>2021-11-13T15:18:14.533Z</time>
      </trkpt>
      <trkpt lat="44.34886" lon="5.28067">
        <ele>402</ele>
        <time>2021-11-13T15:18:15.533Z</time>
      </trkpt>
      <trkpt lat="44.34891" lon="5.28062">
        <ele>402</ele>
        <time>2021-11-13T15:18:16.533Z</time>
      </trkpt>
      <trkpt lat="44.34897" lon="5.28058">
        <ele>402</ele>
        <time>2021-11-13T15:18:17.533Z</time>
      </trkpt>
      <trkpt lat="44.34902" lon="5.28054">
        <ele>401</ele>
        <time>2021-11-13T15:18:18.533Z</time>
      </trkpt>
      <trkpt lat="44.34908" lon="5.28049">
        <ele>401</ele>
        <time>2021-11-13T15:18:19.532Z</time>
      </trkpt>
      <trkpt lat="44.34915" lon="5.28044">
        <ele>401</ele>
        <time>2021-11-13T15:18:20.533Z</time>
      </trkpt>
      <trkpt lat="44.34919" lon="5.28041">
        <ele>401</ele>
        <time>2021-11-13T15:18:21.533Z</time>
      </trkpt>
      <trkpt lat="44.34924" lon="5.28037">
        <ele>400</ele>
        <time>2021-11-13T15:18:22.532Z</time>
      </trkpt>
      <trkpt lat="44.3493" lon="5.28033">
        <ele>400</ele>
        <time>2021-11-13T15:18:23.532Z</time>
      </trkpt>
      <trkpt lat="44.34937" lon="5.28027">
        <ele>400</ele>
        <time>2021-11-13T15:18:24.533Z</time>
      </trkpt>
      <trkpt lat="44.34941" lon="5.28024">
        <ele>400</ele>
        <time>2021-11-13T15:18:25.533Z</time>
      </trkpt>
      <trkpt lat="44.34947" lon="5.2802">
        <ele>400</ele>
        <time>2021-11-13T15:18:26.533Z</time>
      </trkpt>
      <trkpt lat="44.34953" lon="5.28016">
        <ele>400</ele>
        <time>2021-11-13T15:18:27.533Z</time>
      </trkpt>
      <trkpt lat="44.34958" lon="5.28013">
        <ele>400</ele>
        <time>2021-11-13T15:18:28.533Z</time>
      </trkpt>
      <trkpt lat="44.34964" lon="5.28009">
        <ele>399</ele>
        <time>2021-11-13T15:18:29.533Z</time>
      </trkpt>
      <trkpt lat="44.3497" lon="5.28006">
        <ele>399</ele>
        <time>2021-11-13T15:18:30.533Z</time>
      </trkpt>
      <trkpt lat="44.34976" lon="5.28003">
        <ele>399</ele>
        <time>2021-11-13T15:18:31.533Z</time>
      </trkpt>
      <trkpt lat="44.34983" lon="5.28">
        <ele>399</ele>
        <time>2021-11-13T15:18:32.533Z</time>
      </trkpt>
      <trkpt lat="44.34989" lon="5.27997">
        <ele>398</ele>
        <time>2021-11-13T15:18:33.533Z</time>
      </trkpt>
      <trkpt lat="44.34995" lon="5.27994">
        <ele>398</ele>
        <time>2021-11-13T15:18:34.533Z</time>
      </trkpt>
      <trkpt lat="44.35002" lon="5.27991">
        <ele>397</ele>
        <time>2021-11-13T15:18:35.533Z</time>
      </trkpt>
      <trkpt lat="44.3501" lon="5.27988">
        <ele>397</ele>
        <time>2021-11-13T15:18:36.533Z</time>
      </trkpt>
      <trkpt lat="44.35015" lon="5.27986">
        <ele>396</ele>
        <time>2021-11-13T15:18:37.532Z</time>
      </trkpt>
      <trkpt lat="44.35022" lon="5.27983">
        <ele>396</ele>
        <time>2021-11-13T15:18:38.532Z</time>
      </trkpt>
      <trkpt lat="44.35029" lon="5.2798">
        <ele>396</ele>
        <time>2021-11-13T15:18:39.533Z</time>
      </trkpt>
      <trkpt lat="44.35035" lon="5.27976">
        <ele>396</ele>
        <time>2021-11-13T15:18:40.533Z</time>
      </trkpt>
      <trkpt lat="44.35042" lon="5.27972">
        <ele>396</ele>
        <time>2021-11-13T15:18:41.533Z</time>
      </trkpt>
      <trkpt lat="44.35048" lon="5.27969">
        <ele>396</ele>
        <time>2021-11-13T15:18:42.532Z</time>
      </trkpt>
      <trkpt lat="44.35054" lon="5.27966">
        <ele>395</ele>
        <time>2021-11-13T15:18:43.533Z</time>
      </trkpt>
      <trkpt lat="44.35061" lon="5.27961">
        <ele>396</ele>
        <time>2021-11-13T15:18:44.533Z</time>
      </trkpt>
      <trkpt lat="44.35068" lon="5.27958">
        <ele>396</ele>
        <time>2021-11-13T15:18:45.533Z</time>
      </trkpt>
      <trkpt lat="44.35073" lon="5.27955">
        <ele>395</ele>
        <time>2021-11-13T15:18:46.533Z</time>
      </trkpt>
      <trkpt lat="44.35079" lon="5.27952">
        <ele>395</ele>
        <time>2021-11-13T15:18:47.533Z</time>
      </trkpt>
      <trkpt lat="44.35085" lon="5.27948">
        <ele>395</ele>
        <time>2021-11-13T15:18:48.533Z</time>
      </trkpt>
      <trkpt lat="44.3509" lon="5.27945">
        <ele>395</ele>
        <time>2021-11-13T15:18:49.533Z</time>
      </trkpt>
      <trkpt lat="44.35095" lon="5.27941">
        <ele>395</ele>
        <time>2021-11-13T15:18:50.533Z</time>
      </trkpt>
      <trkpt lat="44.351" lon="5.27938">
        <ele>395</ele>
        <time>2021-11-13T15:18:51.533Z</time>
      </trkpt>
      <trkpt lat="44.35105" lon="5.27934">
        <ele>395</ele>
        <time>2021-11-13T15:18:52.533Z</time>
      </trkpt>
      <trkpt lat="44.3511" lon="5.2793">
        <ele>395</ele>
        <time>2021-11-13T15:18:53.533Z</time>
      </trkpt>
      <trkpt lat="44.35113" lon="5.27928">
        <ele>396</ele>
        <time>2021-11-13T15:18:54.532Z</time>
      </trkpt>
      <trkpt lat="44.35117" lon="5.27925">
        <ele>396</ele>
        <time>2021-11-13T15:18:55.533Z</time>
      </trkpt>
      <trkpt lat="44.35121" lon="5.27922">
        <ele>396</ele>
        <time>2021-11-13T15:18:56.533Z</time>
      </trkpt>
      <trkpt lat="44.35125" lon="5.27918">
        <ele>396</ele>
        <time>2021-11-13T15:18:57.533Z</time>
      </trkpt>
      <trkpt lat="44.3513" lon="5.27914">
        <ele>396</ele>
        <time>2021-11-13T15:18:58.533Z</time>
      </trkpt>
      <trkpt lat="44.35134" lon="5.27911">
        <ele>397</ele>
        <time>2021-11-13T15:18:59.533Z</time>
      </trkpt>
      <trkpt lat="44.35138" lon="5.27908">
        <ele>397</ele>
        <time>2021-11-13T15:19:00.533Z</time>
      </trkpt>
      <trkpt lat="44.35142" lon="5.27904">
        <ele>396</ele>
        <time>2021-11-13T15:19:01.533Z</time>
      </trkpt>
      <trkpt lat="44.35146" lon="5.279">
        <ele>396</ele>
        <time>2021-11-13T15:19:02.533Z</time>
      </trkpt>
      <trkpt lat="44.35151" lon="5.27895">
        <ele>396</ele>
        <time>2021-11-13T15:19:03.533Z</time>
      </trkpt>
      <trkpt lat="44.35156" lon="5.27888">
        <ele>396</ele>
        <time>2021-11-13T15:19:04.532Z</time>
      </trkpt>
      <trkpt lat="44.35159" lon="5.27882">
        <ele>396</ele>
        <time>2021-11-13T15:19:05.532Z</time>
      </trkpt>
      <trkpt lat="44.35162" lon="5.27877">
        <ele>396</ele>
        <time>2021-11-13T15:19:06.533Z</time>
      </trkpt>
      <trkpt lat="44.35166" lon="5.27871">
        <ele>396</ele>
        <time>2021-11-13T15:19:07.533Z</time>
      </trkpt>
      <trkpt lat="44.3517" lon="5.27865">
        <ele>396</ele>
        <time>2021-11-13T15:19:08.533Z</time>
      </trkpt>
      <trkpt lat="44.35173" lon="5.27858">
        <ele>396</ele>
        <time>2021-11-13T15:19:09.532Z</time>
      </trkpt>
      <trkpt lat="44.35176" lon="5.27852">
        <ele>396</ele>
        <time>2021-11-13T15:19:10.533Z</time>
      </trkpt>
      <trkpt lat="44.3518" lon="5.27846">
        <ele>396</ele>
        <time>2021-11-13T15:19:11.533Z</time>
      </trkpt>
      <trkpt lat="44.35183" lon="5.2784">
        <ele>396</ele>
        <time>2021-11-13T15:19:12.533Z</time>
      </trkpt>
      <trkpt lat="44.35186" lon="5.27833">
        <ele>396</ele>
        <time>2021-11-13T15:19:13.532Z</time>
      </trkpt>
      <trkpt lat="44.3519" lon="5.27827">
        <ele>396</ele>
        <time>2021-11-13T15:19:14.533Z</time>
      </trkpt>
      <trkpt lat="44.35193" lon="5.2782">
        <ele>396</ele>
        <time>2021-11-13T15:19:15.533Z</time>
      </trkpt>
      <trkpt lat="44.35197" lon="5.27814">
        <ele>395</ele>
        <time>2021-11-13T15:19:16.533Z</time>
      </trkpt>
      <trkpt lat="44.35201" lon="5.27807">
        <ele>395</ele>
        <time>2021-11-13T15:19:17.533Z</time>
      </trkpt>
      <trkpt lat="44.35205" lon="5.278">
        <ele>395</ele>
        <time>2021-11-13T15:19:18.532Z</time>
      </trkpt>
      <trkpt lat="44.35209" lon="5.27792">
        <ele>395</ele>
        <time>2021-11-13T15:19:19.533Z</time>
      </trkpt>
      <trkpt lat="44.35212" lon="5.27785">
        <ele>395</ele>
        <time>2021-11-13T15:19:20.533Z</time>
      </trkpt>
      <trkpt lat="44.35216" lon="5.27777">
        <ele>395</ele>
        <time>2021-11-13T15:19:21.533Z</time>
      </trkpt>
      <trkpt lat="44.35219" lon="5.2777">
        <ele>395</ele>
        <time>2021-11-13T15:19:22.533Z</time>
      </trkpt>
      <trkpt lat="44.35223" lon="5.27763">
        <ele>395</ele>
        <time>2021-11-13T15:19:23.532Z</time>
      </trkpt>
      <trkpt lat="44.35227" lon="5.27756">
        <ele>395</ele>
        <time>2021-11-13T15:19:24.533Z</time>
      </trkpt>
      <trkpt lat="44.35231" lon="5.27749">
        <ele>395</ele>
        <time>2021-11-13T15:19:25.533Z</time>
      </trkpt>
      <trkpt lat="44.35234" lon="5.27743">
        <ele>395</ele>
        <time>2021-11-13T15:19:26.533Z</time>
      </trkpt>
      <trkpt lat="44.35238" lon="5.27736">
        <ele>395</ele>
        <time>2021-11-13T15:19:27.532Z</time>
      </trkpt>
      <trkpt lat="44.35242" lon="5.27729">
        <ele>395</ele>
        <time>2021-11-13T15:19:28.533Z</time>
      </trkpt>
      <trkpt lat="44.35246" lon="5.27723">
        <ele>395</ele>
        <time>2021-11-13T15:19:29.532Z</time>
      </trkpt>
      <trkpt lat="44.35251" lon="5.27716">
        <ele>394</ele>
        <time>2021-11-13T15:19:30.532Z</time>
      </trkpt>
      <trkpt lat="44.35255" lon="5.2771">
        <ele>394</ele>
        <time>2021-11-13T15:19:31.533Z</time>
      </trkpt>
      <trkpt lat="44.3526" lon="5.27704">
        <ele>395</ele>
        <time>2021-11-13T15:19:32.533Z</time>
      </trkpt>
      <trkpt lat="44.35265" lon="5.27699">
        <ele>395</ele>
        <time>2021-11-13T15:19:33.532Z</time>
      </trkpt>
      <trkpt lat="44.3527" lon="5.27693">
        <ele>395</ele>
        <time>2021-11-13T15:19:34.532Z</time>
      </trkpt>
      <trkpt lat="44.35275" lon="5.27689">
        <ele>395</ele>
        <time>2021-11-13T15:19:35.533Z</time>
      </trkpt>
      <trkpt lat="44.3528" lon="5.27684">
        <ele>395</ele>
        <time>2021-11-13T15:19:36.533Z</time>
      </trkpt>
      <trkpt lat="44.35285" lon="5.27679">
        <ele>394</ele>
        <time>2021-11-13T15:19:37.533Z</time>
      </trkpt>
      <trkpt lat="44.35289" lon="5.27675">
        <ele>394</ele>
        <time>2021-11-13T15:19:38.532Z</time>
      </trkpt>
      <trkpt lat="44.35295" lon="5.27671">
        <ele>393</ele>
        <time>2021-11-13T15:19:39.533Z</time>
      </trkpt>
      <trkpt lat="44.353" lon="5.27666">
        <ele>393</ele>
        <time>2021-11-13T15:19:40.533Z</time>
      </trkpt>
      <trkpt lat="44.35304" lon="5.27662">
        <ele>393</ele>
        <time>2021-11-13T15:19:41.533Z</time>
      </trkpt>
      <trkpt lat="44.35309" lon="5.27657">
        <ele>394</ele>
        <time>2021-11-13T15:19:42.532Z</time>
      </trkpt>
      <trkpt lat="44.35314" lon="5.27653">
        <ele>394</ele>
        <time>2021-11-13T15:19:43.533Z</time>
      </trkpt>
      <trkpt lat="44.35318" lon="5.27649">
        <ele>394</ele>
        <time>2021-11-13T15:19:44.533Z</time>
      </trkpt>
      <trkpt lat="44.35323" lon="5.27644">
        <ele>394</ele>
        <time>2021-11-13T15:19:45.532Z</time>
      </trkpt>
      <trkpt lat="44.35328" lon="5.2764">
        <ele>394</ele>
        <time>2021-11-13T15:19:46.533Z</time>
      </trkpt>
      <trkpt lat="44.35333" lon="5.27635">
        <ele>394</ele>
        <time>2021-11-13T15:19:47.533Z</time>
      </trkpt>
      <trkpt lat="44.35338" lon="5.27631">
        <ele>394</ele>
        <time>2021-11-13T15:19:48.533Z</time>
      </trkpt>
      <trkpt lat="44.35343" lon="5.27627">
        <ele>394</ele>
        <time>2021-11-13T15:19:49.532Z</time>
      </trkpt>
      <trkpt lat="44.35347" lon="5.27622">
        <ele>394</ele>
        <time>2021-11-13T15:19:50.532Z</time>
      </trkpt>
      <trkpt lat="44.35352" lon="5.27618">
        <ele>393</ele>
        <time>2021-11-13T15:19:51.533Z</time>
      </trkpt>
      <trkpt lat="44.35357" lon="5.27614">
        <ele>393</ele>
        <time>2021-11-13T15:19:52.533Z</time>
      </trkpt>
      <trkpt lat="44.35361" lon="5.2761">
        <ele>393</ele>
        <time>2021-11-13T15:19:53.533Z</time>
      </trkpt>
      <trkpt lat="44.35366" lon="5.27606">
        <ele>393</ele>
        <time>2021-11-13T15:19:54.532Z</time>
      </trkpt>
      <trkpt lat="44.3537" lon="5.27601">
        <ele>393</ele>
        <time>2021-11-13T15:19:55.533Z</time>
      </trkpt>
      <trkpt lat="44.35375" lon="5.27597">
        <ele>393</ele>
        <time>2021-11-13T15:19:56.533Z</time>
      </trkpt>
      <trkpt lat="44.3538" lon="5.27593">
        <ele>393</ele>
        <time>2021-11-13T15:19:57.532Z</time>
      </trkpt>
      <trkpt lat="44.35385" lon="5.27589">
        <ele>393</ele>
        <time>2021-11-13T15:19:58.532Z</time>
      </trkpt>
      <trkpt lat="44.3539" lon="5.27585">
        <ele>393</ele>
        <time>2021-11-13T15:19:59.533Z</time>
      </trkpt>
      <trkpt lat="44.35395" lon="5.2758">
        <ele>393</ele>
        <time>2021-11-13T15:20:00.533Z</time>
      </trkpt>
      <trkpt lat="44.354" lon="5.27576">
        <ele>394</ele>
        <time>2021-11-13T15:20:01.532Z</time>
      </trkpt>
      <trkpt lat="44.35405" lon="5.27572">
        <ele>393</ele>
        <time>2021-11-13T15:20:02.532Z</time>
      </trkpt>
      <trkpt lat="44.3541" lon="5.27567">
        <ele>393</ele>
        <time>2021-11-13T15:20:03.533Z</time>
      </trkpt>
      <trkpt lat="44.35415" lon="5.27562">
        <ele>393</ele>
        <time>2021-11-13T15:20:04.532Z</time>
      </trkpt>
      <trkpt lat="44.3542" lon="5.27557">
        <ele>393</ele>
        <time>2021-11-13T15:20:05.532Z</time>
      </trkpt>
      <trkpt lat="44.35425" lon="5.27552">
        <ele>393</ele>
        <time>2021-11-13T15:20:06.532Z</time>
      </trkpt>
      <trkpt lat="44.3543" lon="5.27548">
        <ele>393</ele>
        <time>2021-11-13T15:20:07.532Z</time>
      </trkpt>
      <trkpt lat="44.35434" lon="5.27543">
        <ele>393</ele>
        <time>2021-11-13T15:20:08.533Z</time>
      </trkpt>
      <trkpt lat="44.35438" lon="5.27539">
        <ele>393</ele>
        <time>2021-11-13T15:20:09.533Z</time>
      </trkpt>
      <trkpt lat="44.35442" lon="5.27534">
        <ele>393</ele>
        <time>2021-11-13T15:20:10.532Z</time>
      </trkpt>
      <trkpt lat="44.35446" lon="5.27529">
        <ele>393</ele>
        <time>2021-11-13T15:20:11.532Z</time>
      </trkpt>
      <trkpt lat="44.3545" lon="5.27524">
        <ele>393</ele>
        <time>2021-11-13T15:20:12.532Z</time>
      </trkpt>
      <trkpt lat="44.35454" lon="5.2752">
        <ele>393</ele>
        <time>2021-11-13T15:20:13.533Z</time>
      </trkpt>
      <trkpt lat="44.35457" lon="5.27515">
        <ele>394</ele>
        <time>2021-11-13T15:20:14.532Z</time>
      </trkpt>
      <trkpt lat="44.35461" lon="5.2751">
        <ele>394</ele>
        <time>2021-11-13T15:20:15.532Z</time>
      </trkpt>
      <trkpt lat="44.35464" lon="5.27505">
        <ele>395</ele>
        <time>2021-11-13T15:20:16.533Z</time>
      </trkpt>
      <trkpt lat="44.35467" lon="5.27501">
        <ele>395</ele>
        <time>2021-11-13T15:20:17.533Z</time>
      </trkpt>
      <trkpt lat="44.3547" lon="5.27496">
        <ele>395</ele>
        <time>2021-11-13T15:20:18.533Z</time>
      </trkpt>
      <trkpt lat="44.35473" lon="5.27491">
        <ele>395</ele>
        <time>2021-11-13T15:20:19.533Z</time>
      </trkpt>
      <trkpt lat="44.35476" lon="5.27487">
        <ele>395</ele>
        <time>2021-11-13T15:20:20.532Z</time>
      </trkpt>
      <trkpt lat="44.35479" lon="5.27482">
        <ele>395</ele>
        <time>2021-11-13T15:20:21.533Z</time>
      </trkpt>
      <trkpt lat="44.35483" lon="5.27478">
        <ele>395</ele>
        <time>2021-11-13T15:20:22.533Z</time>
      </trkpt>
      <trkpt lat="44.35486" lon="5.27473">
        <ele>395</ele>
        <time>2021-11-13T15:20:23.533Z</time>
      </trkpt>
      <trkpt lat="44.3549" lon="5.27469">
        <ele>395</ele>
        <time>2021-11-13T15:20:24.532Z</time>
      </trkpt>
      <trkpt lat="44.35494" lon="5.27465">
        <ele>395</ele>
        <time>2021-11-13T15:20:25.533Z</time>
      </trkpt>
      <trkpt lat="44.35497" lon="5.2746">
        <ele>395</ele>
        <time>2021-11-13T15:20:26.533Z</time>
      </trkpt>
      <trkpt lat="44.355" lon="5.27455">
        <ele>395</ele>
        <time>2021-11-13T15:20:27.532Z</time>
      </trkpt>
      <trkpt lat="44.35504" lon="5.27451">
        <ele>395</ele>
        <time>2021-11-13T15:20:28.533Z</time>
      </trkpt>
      <trkpt lat="44.35507" lon="5.27447">
        <ele>395</ele>
        <time>2021-11-13T15:20:29.533Z</time>
      </trkpt>
      <trkpt lat="44.35511" lon="5.27442">
        <ele>395</ele>
        <time>2021-11-13T15:20:30.533Z</time>
      </trkpt>
      <trkpt lat="44.35514" lon="5.27437">
        <ele>395</ele>
        <time>2021-11-13T15:20:31.533Z</time>
      </trkpt>
      <trkpt lat="44.35518" lon="5.27433">
        <ele>395</ele>
        <time>2021-11-13T15:20:32.533Z</time>
      </trkpt>
      <trkpt lat="44.35521" lon="5.27429">
        <ele>395</ele>
        <time>2021-11-13T15:20:33.533Z</time>
      </trkpt>
      <trkpt lat="44.35525" lon="5.27424">
        <ele>395</ele>
        <time>2021-11-13T15:20:34.532Z</time>
      </trkpt>
      <trkpt lat="44.35528" lon="5.2742">
        <ele>395</ele>
        <time>2021-11-13T15:20:35.533Z</time>
      </trkpt>
      <trkpt lat="44.35532" lon="5.27415">
        <ele>395</ele>
        <time>2021-11-13T15:20:36.532Z</time>
      </trkpt>
      <trkpt lat="44.35535" lon="5.2741">
        <ele>395</ele>
        <time>2021-11-13T15:20:37.532Z</time>
      </trkpt>
      <trkpt lat="44.35539" lon="5.27405">
        <ele>395</ele>
        <time>2021-11-13T15:20:38.532Z</time>
      </trkpt>
      <trkpt lat="44.35543" lon="5.274">
        <ele>395</ele>
        <time>2021-11-13T15:20:39.533Z</time>
      </trkpt>
      <trkpt lat="44.35547" lon="5.27395">
        <ele>395</ele>
        <time>2021-11-13T15:20:40.532Z</time>
      </trkpt>
      <trkpt lat="44.35551" lon="5.2739">
        <ele>395</ele>
        <time>2021-11-13T15:20:41.533Z</time>
      </trkpt>
      <trkpt lat="44.35555" lon="5.27385">
        <ele>395</ele>
        <time>2021-11-13T15:20:42.533Z</time>
      </trkpt>
      <trkpt lat="44.35559" lon="5.27379">
        <ele>395</ele>
        <time>2021-11-13T15:20:43.532Z</time>
      </trkpt>
      <trkpt lat="44.35563" lon="5.27374">
        <ele>394</ele>
        <time>2021-11-13T15:20:44.533Z</time>
      </trkpt>
      <trkpt lat="44.35567" lon="5.27368">
        <ele>394</ele>
        <time>2021-11-13T15:20:45.532Z</time>
      </trkpt>
      <trkpt lat="44.35571" lon="5.27362">
        <ele>394</ele>
        <time>2021-11-13T15:20:46.533Z</time>
      </trkpt>
      <trkpt lat="44.35575" lon="5.27357">
        <ele>394</ele>
        <time>2021-11-13T15:20:47.533Z</time>
      </trkpt>
      <trkpt lat="44.35579" lon="5.27351">
        <ele>393</ele>
        <time>2021-11-13T15:20:48.532Z</time>
      </trkpt>
      <trkpt lat="44.35584" lon="5.27345">
        <ele>393</ele>
        <time>2021-11-13T15:20:49.533Z</time>
      </trkpt>
      <trkpt lat="44.35588" lon="5.2734">
        <ele>393</ele>
        <time>2021-11-13T15:20:50.533Z</time>
      </trkpt>
      <trkpt lat="44.35592" lon="5.27334">
        <ele>393</ele>
        <time>2021-11-13T15:20:51.533Z</time>
      </trkpt>
      <trkpt lat="44.35597" lon="5.27328">
        <ele>393</ele>
        <time>2021-11-13T15:20:52.532Z</time>
      </trkpt>
      <trkpt lat="44.35601" lon="5.27322">
        <ele>393</ele>
        <time>2021-11-13T15:20:53.532Z</time>
      </trkpt>
      <trkpt lat="44.35605" lon="5.27317">
        <ele>392</ele>
        <time>2021-11-13T15:20:54.532Z</time>
      </trkpt>
      <trkpt lat="44.3561" lon="5.27311">
        <ele>392</ele>
        <time>2021-11-13T15:20:55.533Z</time>
      </trkpt>
      <trkpt lat="44.35614" lon="5.27306">
        <ele>392</ele>
        <time>2021-11-13T15:20:56.533Z</time>
      </trkpt>
      <trkpt lat="44.35618" lon="5.273">
        <ele>392</ele>
        <time>2021-11-13T15:20:57.533Z</time>
      </trkpt>
      <trkpt lat="44.35622" lon="5.27294">
        <ele>393</ele>
        <time>2021-11-13T15:20:58.533Z</time>
      </trkpt>
      <trkpt lat="44.35626" lon="5.27289">
        <ele>392</ele>
        <time>2021-11-13T15:20:59.533Z</time>
      </trkpt>
      <trkpt lat="44.3563" lon="5.27283">
        <ele>392</ele>
        <time>2021-11-13T15:21:00.533Z</time>
      </trkpt>
      <trkpt lat="44.35634" lon="5.27278">
        <ele>392</ele>
        <time>2021-11-13T15:21:01.533Z</time>
      </trkpt>
      <trkpt lat="44.35638" lon="5.27273">
        <ele>391</ele>
        <time>2021-11-13T15:21:02.533Z</time>
      </trkpt>
      <trkpt lat="44.35642" lon="5.27268">
        <ele>391</ele>
        <time>2021-11-13T15:21:03.533Z</time>
      </trkpt>
      <trkpt lat="44.35646" lon="5.27263">
        <ele>391</ele>
        <time>2021-11-13T15:21:04.533Z</time>
      </trkpt>
      <trkpt lat="44.35649" lon="5.27257">
        <ele>391</ele>
        <time>2021-11-13T15:21:05.532Z</time>
      </trkpt>
      <trkpt lat="44.35653" lon="5.27251">
        <ele>391</ele>
        <time>2021-11-13T15:21:06.533Z</time>
      </trkpt>
      <trkpt lat="44.35656" lon="5.27245">
        <ele>391</ele>
        <time>2021-11-13T15:21:07.533Z</time>
      </trkpt>
      <trkpt lat="44.35659" lon="5.27239">
        <ele>391</ele>
        <time>2021-11-13T15:21:08.532Z</time>
      </trkpt>
      <trkpt lat="44.35661" lon="5.27233">
        <ele>391</ele>
        <time>2021-11-13T15:21:09.532Z</time>
      </trkpt>
      <trkpt lat="44.35663" lon="5.27227">
        <ele>392</ele>
        <time>2021-11-13T15:21:10.533Z</time>
      </trkpt>
      <trkpt lat="44.35666" lon="5.2722">
        <ele>392</ele>
        <time>2021-11-13T15:21:11.533Z</time>
      </trkpt>
      <trkpt lat="44.35668" lon="5.27214">
        <ele>393</ele>
        <time>2021-11-13T15:21:12.533Z</time>
      </trkpt>
      <trkpt lat="44.3567" lon="5.27207">
        <ele>393</ele>
        <time>2021-11-13T15:21:13.532Z</time>
      </trkpt>
      <trkpt lat="44.35671" lon="5.27201">
        <ele>393</ele>
        <time>2021-11-13T15:21:14.533Z</time>
      </trkpt>
      <trkpt lat="44.35673" lon="5.27195">
        <ele>393</ele>
        <time>2021-11-13T15:21:15.532Z</time>
      </trkpt>
      <trkpt lat="44.35675" lon="5.27188">
        <ele>393</ele>
        <time>2021-11-13T15:21:16.533Z</time>
      </trkpt>
      <trkpt lat="44.35677" lon="5.27182">
        <ele>393</ele>
        <time>2021-11-13T15:21:17.533Z</time>
      </trkpt>
      <trkpt lat="44.35679" lon="5.27176">
        <ele>393</ele>
        <time>2021-11-13T15:21:18.533Z</time>
      </trkpt>
      <trkpt lat="44.35681" lon="5.2717">
        <ele>393</ele>
        <time>2021-11-13T15:21:19.533Z</time>
      </trkpt>
      <trkpt lat="44.35683" lon="5.27163">
        <ele>393</ele>
        <time>2021-11-13T15:21:20.533Z</time>
      </trkpt>
      <trkpt lat="44.35686" lon="5.27157">
        <ele>393</ele>
        <time>2021-11-13T15:21:21.533Z</time>
      </trkpt>
      <trkpt lat="44.35688" lon="5.2715">
        <ele>393</ele>
        <time>2021-11-13T15:21:22.533Z</time>
      </trkpt>
      <trkpt lat="44.35691" lon="5.27144">
        <ele>394</ele>
        <time>2021-11-13T15:21:23.533Z</time>
      </trkpt>
      <trkpt lat="44.35693" lon="5.27137">
        <ele>394</ele>
        <time>2021-11-13T15:21:24.532Z</time>
      </trkpt>
      <trkpt lat="44.35696" lon="5.27131">
        <ele>394</ele>
        <time>2021-11-13T15:21:25.533Z</time>
      </trkpt>
      <trkpt lat="44.357" lon="5.27124">
        <ele>394</ele>
        <time>2021-11-13T15:21:26.533Z</time>
      </trkpt>
      <trkpt lat="44.35703" lon="5.27117">
        <ele>394</ele>
        <time>2021-11-13T15:21:27.532Z</time>
      </trkpt>
      <trkpt lat="44.35707" lon="5.27111">
        <ele>394</ele>
        <time>2021-11-13T15:21:28.533Z</time>
      </trkpt>
      <trkpt lat="44.3571" lon="5.27104">
        <ele>394</ele>
        <time>2021-11-13T15:21:29.532Z</time>
      </trkpt>
      <trkpt lat="44.35714" lon="5.27098">
        <ele>394</ele>
        <time>2021-11-13T15:21:30.533Z</time>
      </trkpt>
      <trkpt lat="44.35717" lon="5.27092">
        <ele>393</ele>
        <time>2021-11-13T15:21:31.533Z</time>
      </trkpt>
      <trkpt lat="44.35721" lon="5.27085">
        <ele>393</ele>
        <time>2021-11-13T15:21:32.533Z</time>
      </trkpt>
      <trkpt lat="44.35725" lon="5.27079">
        <ele>393</ele>
        <time>2021-11-13T15:21:33.533Z</time>
      </trkpt>
      <trkpt lat="44.35729" lon="5.27073">
        <ele>393</ele>
        <time>2021-11-13T15:21:34.533Z</time>
      </trkpt>
      <trkpt lat="44.35732" lon="5.27067">
        <ele>393</ele>
        <time>2021-11-13T15:21:35.532Z</time>
      </trkpt>
      <trkpt lat="44.35736" lon="5.27061">
        <ele>392</ele>
        <time>2021-11-13T15:21:36.532Z</time>
      </trkpt>
      <trkpt lat="44.3574" lon="5.27055">
        <ele>392</ele>
        <time>2021-11-13T15:21:37.533Z</time>
      </trkpt>
      <trkpt lat="44.35743" lon="5.27049">
        <ele>392</ele>
        <time>2021-11-13T15:21:38.532Z</time>
      </trkpt>
      <trkpt lat="44.35746" lon="5.27043">
        <ele>392</ele>
        <time>2021-11-13T15:21:39.533Z</time>
      </trkpt>
      <trkpt lat="44.3575" lon="5.27037">
        <ele>392</ele>
        <time>2021-11-13T15:21:40.532Z</time>
      </trkpt>
      <trkpt lat="44.35753" lon="5.27031">
        <ele>391</ele>
        <time>2021-11-13T15:21:41.533Z</time>
      </trkpt>
      <trkpt lat="44.35756" lon="5.27025">
        <ele>391</ele>
        <time>2021-11-13T15:21:42.532Z</time>
      </trkpt>
      <trkpt lat="44.35759" lon="5.27019">
        <ele>392</ele>
        <time>2021-11-13T15:21:43.533Z</time>
      </trkpt>
      <trkpt lat="44.35762" lon="5.27013">
        <ele>392</ele>
        <time>2021-11-13T15:21:44.532Z</time>
      </trkpt>
      <trkpt lat="44.35765" lon="5.27006">
        <ele>392</ele>
        <time>2021-11-13T15:21:45.532Z</time>
      </trkpt>
      <trkpt lat="44.35768" lon="5.27">
        <ele>392</ele>
        <time>2021-11-13T15:21:46.532Z</time>
      </trkpt>
      <trkpt lat="44.35771" lon="5.26993">
        <ele>392</ele>
        <time>2021-11-13T15:21:47.532Z</time>
      </trkpt>
      <trkpt lat="44.35774" lon="5.26987">
        <ele>392</ele>
        <time>2021-11-13T15:21:48.532Z</time>
      </trkpt>
      <trkpt lat="44.35777" lon="5.26981">
        <ele>392</ele>
        <time>2021-11-13T15:21:49.532Z</time>
      </trkpt>
      <trkpt lat="44.35779" lon="5.26974">
        <ele>392</ele>
        <time>2021-11-13T15:21:50.533Z</time>
      </trkpt>
      <trkpt lat="44.35782" lon="5.26968">
        <ele>392</ele>
        <time>2021-11-13T15:21:51.533Z</time>
      </trkpt>
      <trkpt lat="44.35785" lon="5.26961">
        <ele>392</ele>
        <time>2021-11-13T15:21:52.532Z</time>
      </trkpt>
      <trkpt lat="44.35788" lon="5.26955">
        <ele>392</ele>
        <time>2021-11-13T15:21:53.532Z</time>
      </trkpt>
      <trkpt lat="44.35791" lon="5.26948">
        <ele>392</ele>
        <time>2021-11-13T15:21:54.533Z</time>
      </trkpt>
      <trkpt lat="44.35794" lon="5.26941">
        <ele>392</ele>
        <time>2021-11-13T15:21:55.533Z</time>
      </trkpt>
      <trkpt lat="44.35797" lon="5.26935">
        <ele>392</ele>
        <time>2021-11-13T15:21:56.533Z</time>
      </trkpt>
      <trkpt lat="44.35799" lon="5.26928">
        <ele>392</ele>
        <time>2021-11-13T15:21:57.532Z</time>
      </trkpt>
      <trkpt lat="44.35802" lon="5.26921">
        <ele>392</ele>
        <time>2021-11-13T15:21:58.532Z</time>
      </trkpt>
      <trkpt lat="44.35805" lon="5.26915">
        <ele>391</ele>
        <time>2021-11-13T15:21:59.533Z</time>
      </trkpt>
      <trkpt lat="44.35808" lon="5.26908">
        <ele>391</ele>
        <time>2021-11-13T15:22:00.533Z</time>
      </trkpt>
      <trkpt lat="44.35811" lon="5.26902">
        <ele>391</ele>
        <time>2021-11-13T15:22:01.533Z</time>
      </trkpt>
      <trkpt lat="44.35814" lon="5.26895">
        <ele>391</ele>
        <time>2021-11-13T15:22:02.532Z</time>
      </trkpt>
      <trkpt lat="44.35817" lon="5.26889">
        <ele>390</ele>
        <time>2021-11-13T15:22:03.533Z</time>
      </trkpt>
      <trkpt lat="44.3582" lon="5.26882">
        <ele>390</ele>
        <time>2021-11-13T15:22:04.533Z</time>
      </trkpt>
      <trkpt lat="44.35823" lon="5.26876">
        <ele>390</ele>
        <time>2021-11-13T15:22:05.532Z</time>
      </trkpt>
      <trkpt lat="44.35826" lon="5.26869">
        <ele>390</ele>
        <time>2021-11-13T15:22:06.532Z</time>
      </trkpt>
      <trkpt lat="44.35829" lon="5.26863">
        <ele>390</ele>
        <time>2021-11-13T15:22:07.532Z</time>
      </trkpt>
      <trkpt lat="44.35832" lon="5.26857">
        <ele>390</ele>
        <time>2021-11-13T15:22:08.532Z</time>
      </trkpt>
      <trkpt lat="44.35835" lon="5.26851">
        <ele>390</ele>
        <time>2021-11-13T15:22:09.532Z</time>
      </trkpt>
      <trkpt lat="44.35839" lon="5.26846">
        <ele>390</ele>
        <time>2021-11-13T15:22:10.533Z</time>
      </trkpt>
      <trkpt lat="44.35842" lon="5.26841">
        <ele>391</ele>
        <time>2021-11-13T15:22:11.532Z</time>
      </trkpt>
      <trkpt lat="44.35846" lon="5.26836">
        <ele>391</ele>
        <time>2021-11-13T15:22:12.533Z</time>
      </trkpt>
      <trkpt lat="44.3585" lon="5.26833">
        <ele>391</ele>
        <time>2021-11-13T15:22:13.532Z</time>
      </trkpt>
      <trkpt lat="44.35854" lon="5.2683">
        <ele>391</ele>
        <time>2021-11-13T15:22:14.533Z</time>
      </trkpt>
      <trkpt lat="44.35858" lon="5.26827">
        <ele>391</ele>
        <time>2021-11-13T15:22:15.533Z</time>
      </trkpt>
      <trkpt lat="44.35863" lon="5.26825">
        <ele>391</ele>
        <time>2021-11-13T15:22:16.532Z</time>
      </trkpt>
      <trkpt lat="44.35867" lon="5.26823">
        <ele>391</ele>
        <time>2021-11-13T15:22:17.532Z</time>
      </trkpt>
      <trkpt lat="44.35871" lon="5.26821">
        <ele>391</ele>
        <time>2021-11-13T15:22:18.533Z</time>
      </trkpt>
      <trkpt lat="44.35875" lon="5.2682">
        <ele>392</ele>
        <time>2021-11-13T15:22:19.532Z</time>
      </trkpt>
      <trkpt lat="44.3588" lon="5.2682">
        <ele>392</ele>
        <time>2021-11-13T15:22:20.533Z</time>
      </trkpt>
      <trkpt lat="44.35884" lon="5.26819">
        <ele>392</ele>
        <time>2021-11-13T15:22:21.533Z</time>
      </trkpt>
      <trkpt lat="44.35888" lon="5.26819">
        <ele>392</ele>
        <time>2021-11-13T15:22:22.532Z</time>
      </trkpt>
      <trkpt lat="44.35892" lon="5.26819">
        <ele>392</ele>
        <time>2021-11-13T15:22:23.532Z</time>
      </trkpt>
      <trkpt lat="44.35896" lon="5.2682">
        <ele>392</ele>
        <time>2021-11-13T15:22:24.532Z</time>
      </trkpt>
      <trkpt lat="44.359" lon="5.2682">
        <ele>392</ele>
        <time>2021-11-13T15:22:25.533Z</time>
      </trkpt>
      <trkpt lat="44.35905" lon="5.26821">
        <ele>391</ele>
        <time>2021-11-13T15:22:26.532Z</time>
      </trkpt>
      <trkpt lat="44.35909" lon="5.26822">
        <ele>392</ele>
        <time>2021-11-13T15:22:27.532Z</time>
      </trkpt>
      <trkpt lat="44.35913" lon="5.26822">
        <ele>392</ele>
        <time>2021-11-13T15:22:28.533Z</time>
      </trkpt>
      <trkpt lat="44.35917" lon="5.26823">
        <ele>392</ele>
        <time>2021-11-13T15:22:29.533Z</time>
      </trkpt>
      <trkpt lat="44.35921" lon="5.26824">
        <ele>392</ele>
        <time>2021-11-13T15:22:30.532Z</time>
      </trkpt>
      <trkpt lat="44.35925" lon="5.26824">
        <ele>392</ele>
        <time>2021-11-13T15:22:31.532Z</time>
      </trkpt>
      <trkpt lat="44.3593" lon="5.26825">
        <ele>392</ele>
        <time>2021-11-13T15:22:32.532Z</time>
      </trkpt>
      <trkpt lat="44.35934" lon="5.26826">
        <ele>392</ele>
        <time>2021-11-13T15:22:33.532Z</time>
      </trkpt>
      <trkpt lat="44.35938" lon="5.26826">
        <ele>393</ele>
        <time>2021-11-13T15:22:34.532Z</time>
      </trkpt>
      <trkpt lat="44.35942" lon="5.26826">
        <ele>393</ele>
        <time>2021-11-13T15:22:35.533Z</time>
      </trkpt>
      <trkpt lat="44.35946" lon="5.26826">
        <ele>394</ele>
        <time>2021-11-13T15:22:36.532Z</time>
      </trkpt>
      <trkpt lat="44.35951" lon="5.26826">
        <ele>394</ele>
        <time>2021-11-13T15:22:37.532Z</time>
      </trkpt>
      <trkpt lat="44.35955" lon="5.26827">
        <ele>394</ele>
        <time>2021-11-13T15:22:38.532Z</time>
      </trkpt>
      <trkpt lat="44.35959" lon="5.26827">
        <ele>394</ele>
        <time>2021-11-13T15:22:39.532Z</time>
      </trkpt>
      <trkpt lat="44.35964" lon="5.26828">
        <ele>394</ele>
        <time>2021-11-13T15:22:40.533Z</time>
      </trkpt>
      <trkpt lat="44.35968" lon="5.26828">
        <ele>394</ele>
        <time>2021-11-13T15:22:41.532Z</time>
      </trkpt>
      <trkpt lat="44.35973" lon="5.26828">
        <ele>395</ele>
        <time>2021-11-13T15:22:42.532Z</time>
      </trkpt>
      <trkpt lat="44.35976" lon="5.26828">
        <ele>395</ele>
        <time>2021-11-13T15:22:43.532Z</time>
      </trkpt>
      <trkpt lat="44.3598" lon="5.26828">
        <ele>395</ele>
        <time>2021-11-13T15:22:44.533Z</time>
      </trkpt>
      <trkpt lat="44.35985" lon="5.26828">
        <ele>395</ele>
        <time>2021-11-13T15:22:45.533Z</time>
      </trkpt>
      <trkpt lat="44.3599" lon="5.26828">
        <ele>395</ele>
        <time>2021-11-13T15:22:46.533Z</time>
      </trkpt>
      <trkpt lat="44.35993" lon="5.26828">
        <ele>395</ele>
        <time>2021-11-13T15:22:47.533Z</time>
      </trkpt>
      <trkpt lat="44.35997" lon="5.26828">
        <ele>394</ele>
        <time>2021-11-13T15:22:48.533Z</time>
      </trkpt>
      <trkpt lat="44.36001" lon="5.26828">
        <ele>394</ele>
        <time>2021-11-13T15:22:49.533Z</time>
      </trkpt>
      <trkpt lat="44.36006" lon="5.26828">
        <ele>394</ele>
        <time>2021-11-13T15:22:50.532Z</time>
      </trkpt>
      <trkpt lat="44.36011" lon="5.26828">
        <ele>394</ele>
        <time>2021-11-13T15:22:51.532Z</time>
      </trkpt>
      <trkpt lat="44.36015" lon="5.26828">
        <ele>394</ele>
        <time>2021-11-13T15:22:52.533Z</time>
      </trkpt>
      <trkpt lat="44.36019" lon="5.26828">
        <ele>394</ele>
        <time>2021-11-13T15:22:53.533Z</time>
      </trkpt>
      <trkpt lat="44.36024" lon="5.26828">
        <ele>394</ele>
        <time>2021-11-13T15:22:54.533Z</time>
      </trkpt>
      <trkpt lat="44.36028" lon="5.26828">
        <ele>394</ele>
        <time>2021-11-13T15:22:55.532Z</time>
      </trkpt>
      <trkpt lat="44.36033" lon="5.26827">
        <ele>394</ele>
        <time>2021-11-13T15:22:56.532Z</time>
      </trkpt>
      <trkpt lat="44.36037" lon="5.26827">
        <ele>394</ele>
        <time>2021-11-13T15:22:57.533Z</time>
      </trkpt>
      <trkpt lat="44.36041" lon="5.26827">
        <ele>394</ele>
        <time>2021-11-13T15:22:58.533Z</time>
      </trkpt>
      <trkpt lat="44.36047" lon="5.26827">
        <ele>394</ele>
        <time>2021-11-13T15:22:59.533Z</time>
      </trkpt>
      <trkpt lat="44.36051" lon="5.26826">
        <ele>394</ele>
        <time>2021-11-13T15:23:00.532Z</time>
      </trkpt>
      <trkpt lat="44.36056" lon="5.26826">
        <ele>394</ele>
        <time>2021-11-13T15:23:01.533Z</time>
      </trkpt>
      <trkpt lat="44.3606" lon="5.26825">
        <ele>394</ele>
        <time>2021-11-13T15:23:02.532Z</time>
      </trkpt>
      <trkpt lat="44.36065" lon="5.26825">
        <ele>394</ele>
        <time>2021-11-13T15:23:03.533Z</time>
      </trkpt>
      <trkpt lat="44.36071" lon="5.26824">
        <ele>394</ele>
        <time>2021-11-13T15:23:04.533Z</time>
      </trkpt>
      <trkpt lat="44.36076" lon="5.26824">
        <ele>394</ele>
        <time>2021-11-13T15:23:05.533Z</time>
      </trkpt>
      <trkpt lat="44.36081" lon="5.26823">
        <ele>393</ele>
        <time>2021-11-13T15:23:06.533Z</time>
      </trkpt>
      <trkpt lat="44.36087" lon="5.26823">
        <ele>393</ele>
        <time>2021-11-13T15:23:07.533Z</time>
      </trkpt>
      <trkpt lat="44.36092" lon="5.26822">
        <ele>393</ele>
        <time>2021-11-13T15:23:08.533Z</time>
      </trkpt>
      <trkpt lat="44.36097" lon="5.2682">
        <ele>393</ele>
        <time>2021-11-13T15:23:09.533Z</time>
      </trkpt>
      <trkpt lat="44.36103" lon="5.26819">
        <ele>393</ele>
        <time>2021-11-13T15:23:10.533Z</time>
      </trkpt>
      <trkpt lat="44.36108" lon="5.26818">
        <ele>393</ele>
        <time>2021-11-13T15:23:11.532Z</time>
      </trkpt>
      <trkpt lat="44.36113" lon="5.26817">
        <ele>393</ele>
        <time>2021-11-13T15:23:12.533Z</time>
      </trkpt>
      <trkpt lat="44.36119" lon="5.26815">
        <ele>392</ele>
        <time>2021-11-13T15:23:13.533Z</time>
      </trkpt>
      <trkpt lat="44.36125" lon="5.26813">
        <ele>392</ele>
        <time>2021-11-13T15:23:14.533Z</time>
      </trkpt>
      <trkpt lat="44.3613" lon="5.26811">
        <ele>392</ele>
        <time>2021-11-13T15:23:15.532Z</time>
      </trkpt>
      <trkpt lat="44.36135" lon="5.26809">
        <ele>392</ele>
        <time>2021-11-13T15:23:16.533Z</time>
      </trkpt>
      <trkpt lat="44.3614" lon="5.26807">
        <ele>392</ele>
        <time>2021-11-13T15:23:17.533Z</time>
      </trkpt>
      <trkpt lat="44.36147" lon="5.26804">
        <ele>392</ele>
        <time>2021-11-13T15:23:18.533Z</time>
      </trkpt>
      <trkpt lat="44.36151" lon="5.26802">
        <ele>392</ele>
        <time>2021-11-13T15:23:19.533Z</time>
      </trkpt>
      <trkpt lat="44.36156" lon="5.26799">
        <ele>391</ele>
        <time>2021-11-13T15:23:20.532Z</time>
      </trkpt>
      <trkpt lat="44.36162" lon="5.26796">
        <ele>391</ele>
        <time>2021-11-13T15:23:21.532Z</time>
      </trkpt>
      <trkpt lat="44.36168" lon="5.26792">
        <ele>392</ele>
        <time>2021-11-13T15:23:22.533Z</time>
      </trkpt>
      <trkpt lat="44.36174" lon="5.26789">
        <ele>391</ele>
        <time>2021-11-13T15:23:23.533Z</time>
      </trkpt>
      <trkpt lat="44.36179" lon="5.26785">
        <ele>391</ele>
        <time>2021-11-13T15:23:24.533Z</time>
      </trkpt>
      <trkpt lat="44.36183" lon="5.26782">
        <ele>391</ele>
        <time>2021-11-13T15:23:25.533Z</time>
      </trkpt>
      <trkpt lat="44.36188" lon="5.26778">
        <ele>391</ele>
        <time>2021-11-13T15:23:26.533Z</time>
      </trkpt>
      <trkpt lat="44.36194" lon="5.26774">
        <ele>391</ele>
        <time>2021-11-13T15:23:27.533Z</time>
      </trkpt>
      <trkpt lat="44.36199" lon="5.26771">
        <ele>390</ele>
        <time>2021-11-13T15:23:28.533Z</time>
      </trkpt>
      <trkpt lat="44.36205" lon="5.26766">
        <ele>391</ele>
        <time>2021-11-13T15:23:29.533Z</time>
      </trkpt>
      <trkpt lat="44.36209" lon="5.26763">
        <ele>391</ele>
        <time>2021-11-13T15:23:30.533Z</time>
      </trkpt>
      <trkpt lat="44.36214" lon="5.26758">
        <ele>391</ele>
        <time>2021-11-13T15:23:31.533Z</time>
      </trkpt>
      <trkpt lat="44.3622" lon="5.26753">
        <ele>391</ele>
        <time>2021-11-13T15:23:32.533Z</time>
      </trkpt>
      <trkpt lat="44.36224" lon="5.2675">
        <ele>390</ele>
        <time>2021-11-13T15:23:33.533Z</time>
      </trkpt>
      <trkpt lat="44.3623" lon="5.26745">
        <ele>390</ele>
        <time>2021-11-13T15:23:34.533Z</time>
      </trkpt>
      <trkpt lat="44.36234" lon="5.26741">
        <ele>389</ele>
        <time>2021-11-13T15:23:35.533Z</time>
      </trkpt>
      <trkpt lat="44.36239" lon="5.26737">
        <ele>389</ele>
        <time>2021-11-13T15:23:36.532Z</time>
      </trkpt>
      <trkpt lat="44.36245" lon="5.26731">
        <ele>389</ele>
        <time>2021-11-13T15:23:37.533Z</time>
      </trkpt>
      <trkpt lat="44.3625" lon="5.26726">
        <ele>389</ele>
        <time>2021-11-13T15:23:38.533Z</time>
      </trkpt>
      <trkpt lat="44.36255" lon="5.26721">
        <ele>389</ele>
        <time>2021-11-13T15:23:39.533Z</time>
      </trkpt>
      <trkpt lat="44.36259" lon="5.26717">
        <ele>389</ele>
        <time>2021-11-13T15:23:40.533Z</time>
      </trkpt>
      <trkpt lat="44.36264" lon="5.26712">
        <ele>389</ele>
        <time>2021-11-13T15:23:41.532Z</time>
      </trkpt>
      <trkpt lat="44.36269" lon="5.26707">
        <ele>390</ele>
        <time>2021-11-13T15:23:42.533Z</time>
      </trkpt>
      <trkpt lat="44.36275" lon="5.267">
        <ele>390</ele>
        <time>2021-11-13T15:23:43.533Z</time>
      </trkpt>
      <trkpt lat="44.36279" lon="5.26696">
        <ele>390</ele>
        <time>2021-11-13T15:23:44.533Z</time>
      </trkpt>
      <trkpt lat="44.36284" lon="5.26691">
        <ele>390</ele>
        <time>2021-11-13T15:23:45.532Z</time>
      </trkpt>
      <trkpt lat="44.3629" lon="5.26685">
        <ele>389</ele>
        <time>2021-11-13T15:23:46.533Z</time>
      </trkpt>
      <trkpt lat="44.36294" lon="5.26681">
        <ele>389</ele>
        <time>2021-11-13T15:23:47.533Z</time>
      </trkpt>
      <trkpt lat="44.363" lon="5.26675">
        <ele>389</ele>
        <time>2021-11-13T15:23:48.532Z</time>
      </trkpt>
      <trkpt lat="44.36303" lon="5.2667">
        <ele>390</ele>
        <time>2021-11-13T15:23:49.533Z</time>
      </trkpt>
      <trkpt lat="44.36309" lon="5.26664">
        <ele>389</ele>
        <time>2021-11-13T15:23:50.532Z</time>
      </trkpt>
      <trkpt lat="44.36313" lon="5.2666">
        <ele>389</ele>
        <time>2021-11-13T15:23:51.533Z</time>
      </trkpt>
      <trkpt lat="44.36319" lon="5.26654">
        <ele>389</ele>
        <time>2021-11-13T15:23:52.533Z</time>
      </trkpt>
      <trkpt lat="44.36324" lon="5.26648">
        <ele>389</ele>
        <time>2021-11-13T15:23:53.533Z</time>
      </trkpt>
      <trkpt lat="44.36327" lon="5.26644">
        <ele>389</ele>
        <time>2021-11-13T15:23:54.533Z</time>
      </trkpt>
      <trkpt lat="44.36332" lon="5.26637">
        <ele>389</ele>
        <time>2021-11-13T15:23:55.533Z</time>
      </trkpt>
      <trkpt lat="44.36337" lon="5.26631">
        <ele>389</ele>
        <time>2021-11-13T15:23:56.532Z</time>
      </trkpt>
      <trkpt lat="44.36341" lon="5.26625">
        <ele>389</ele>
        <time>2021-11-13T15:23:57.533Z</time>
      </trkpt>
      <trkpt lat="44.36345" lon="5.26619">
        <ele>388</ele>
        <time>2021-11-13T15:23:58.533Z</time>
      </trkpt>
      <trkpt lat="44.36349" lon="5.26613">
        <ele>388</ele>
        <time>2021-11-13T15:23:59.533Z</time>
      </trkpt>
      <trkpt lat="44.36353" lon="5.26606">
        <ele>388</ele>
        <time>2021-11-13T15:24:00.533Z</time>
      </trkpt>
      <trkpt lat="44.36357" lon="5.266">
        <ele>387</ele>
        <time>2021-11-13T15:24:01.532Z</time>
      </trkpt>
      <trkpt lat="44.36361" lon="5.26594">
        <ele>387</ele>
        <time>2021-11-13T15:24:02.532Z</time>
      </trkpt>
      <trkpt lat="44.36364" lon="5.26589">
        <ele>387</ele>
        <time>2021-11-13T15:24:03.533Z</time>
      </trkpt>
      <trkpt lat="44.36368" lon="5.26583">
        <ele>387</ele>
        <time>2021-11-13T15:24:04.533Z</time>
      </trkpt>
      <trkpt lat="44.36372" lon="5.26577">
        <ele>387</ele>
        <time>2021-11-13T15:24:05.532Z</time>
      </trkpt>
      <trkpt lat="44.36377" lon="5.26569">
        <ele>387</ele>
        <time>2021-11-13T15:24:06.532Z</time>
      </trkpt>
      <trkpt lat="44.36381" lon="5.26562">
        <ele>387</ele>
        <time>2021-11-13T15:24:07.533Z</time>
      </trkpt>
      <trkpt lat="44.36384" lon="5.26557">
        <ele>388</ele>
        <time>2021-11-13T15:24:08.533Z</time>
      </trkpt>
      <trkpt lat="44.36388" lon="5.2655">
        <ele>388</ele>
        <time>2021-11-13T15:24:09.533Z</time>
      </trkpt>
      <trkpt lat="44.36392" lon="5.26541">
        <ele>388</ele>
        <time>2021-11-13T15:24:10.532Z</time>
      </trkpt>
      <trkpt lat="44.36394" lon="5.26535">
        <ele>388</ele>
        <time>2021-11-13T15:24:11.532Z</time>
      </trkpt>
      <trkpt lat="44.36397" lon="5.26528">
        <ele>388</ele>
        <time>2021-11-13T15:24:12.533Z</time>
      </trkpt>
      <trkpt lat="44.36399" lon="5.2652">
        <ele>388</ele>
        <time>2021-11-13T15:24:13.533Z</time>
      </trkpt>
      <trkpt lat="44.36402" lon="5.26511">
        <ele>388</ele>
        <time>2021-11-13T15:24:14.533Z</time>
      </trkpt>
      <trkpt lat="44.36405" lon="5.26503">
        <ele>388</ele>
        <time>2021-11-13T15:24:15.532Z</time>
      </trkpt>
      <trkpt lat="44.36407" lon="5.26497">
        <ele>388</ele>
        <time>2021-11-13T15:24:16.533Z</time>
      </trkpt>
      <trkpt lat="44.3641" lon="5.26489">
        <ele>388</ele>
        <time>2021-11-13T15:24:17.533Z</time>
      </trkpt>
      <trkpt lat="44.36413" lon="5.26481">
        <ele>387</ele>
        <time>2021-11-13T15:24:18.533Z</time>
      </trkpt>
      <trkpt lat="44.36417" lon="5.26472">
        <ele>387</ele>
        <time>2021-11-13T15:24:19.533Z</time>
      </trkpt>
      <trkpt lat="44.36421" lon="5.26465">
        <ele>387</ele>
        <time>2021-11-13T15:24:20.533Z</time>
      </trkpt>
      <trkpt lat="44.36424" lon="5.2646">
        <ele>387</ele>
        <time>2021-11-13T15:24:21.532Z</time>
      </trkpt>
      <trkpt lat="44.36428" lon="5.26454">
        <ele>387</ele>
        <time>2021-11-13T15:24:22.533Z</time>
      </trkpt>
      <trkpt lat="44.36433" lon="5.26448">
        <ele>386</ele>
        <time>2021-11-13T15:24:23.533Z</time>
      </trkpt>
      <trkpt lat="44.36438" lon="5.26442">
        <ele>386</ele>
        <time>2021-11-13T15:24:24.533Z</time>
      </trkpt>
      <trkpt lat="44.36442" lon="5.26436">
        <ele>386</ele>
        <time>2021-11-13T15:24:25.533Z</time>
      </trkpt>
      <trkpt lat="44.36447" lon="5.26431">
        <ele>386</ele>
        <time>2021-11-13T15:24:26.532Z</time>
      </trkpt>
      <trkpt lat="44.36452" lon="5.26427">
        <ele>385</ele>
        <time>2021-11-13T15:24:27.533Z</time>
      </trkpt>
      <trkpt lat="44.36458" lon="5.26422">
        <ele>385</ele>
        <time>2021-11-13T15:24:28.533Z</time>
      </trkpt>
      <trkpt lat="44.36463" lon="5.26418">
        <ele>385</ele>
        <time>2021-11-13T15:24:29.532Z</time>
      </trkpt>
      <trkpt lat="44.36468" lon="5.26414">
        <ele>384</ele>
        <time>2021-11-13T15:24:30.532Z</time>
      </trkpt>
      <trkpt lat="44.36474" lon="5.26411">
        <ele>384</ele>
        <time>2021-11-13T15:24:31.532Z</time>
      </trkpt>
      <trkpt lat="44.36481" lon="5.26409">
        <ele>384</ele>
        <time>2021-11-13T15:24:32.533Z</time>
      </trkpt>
      <trkpt lat="44.36487" lon="5.26406">
        <ele>384</ele>
        <time>2021-11-13T15:24:33.533Z</time>
      </trkpt>
      <trkpt lat="44.36493" lon="5.26404">
        <ele>384</ele>
        <time>2021-11-13T15:24:34.533Z</time>
      </trkpt>
      <trkpt lat="44.365" lon="5.26402">
        <ele>384</ele>
        <time>2021-11-13T15:24:35.533Z</time>
      </trkpt>
      <trkpt lat="44.36506" lon="5.26398">
        <ele>384</ele>
        <time>2021-11-13T15:24:36.533Z</time>
      </trkpt>
      <trkpt lat="44.36512" lon="5.26395">
        <ele>384</ele>
        <time>2021-11-13T15:24:37.532Z</time>
      </trkpt>
      <trkpt lat="44.36518" lon="5.26391">
        <ele>384</ele>
        <time>2021-11-13T15:24:38.533Z</time>
      </trkpt>
      <trkpt lat="44.36524" lon="5.26386">
        <ele>383</ele>
        <time>2021-11-13T15:24:39.533Z</time>
      </trkpt>
      <trkpt lat="44.36529" lon="5.2638">
        <ele>383</ele>
        <time>2021-11-13T15:24:40.533Z</time>
      </trkpt>
      <trkpt lat="44.36535" lon="5.26375">
        <ele>383</ele>
        <time>2021-11-13T15:24:41.533Z</time>
      </trkpt>
      <trkpt lat="44.3654" lon="5.26369">
        <ele>383</ele>
        <time>2021-11-13T15:24:42.533Z</time>
      </trkpt>
      <trkpt lat="44.36545" lon="5.26363">
        <ele>383</ele>
        <time>2021-11-13T15:24:43.533Z</time>
      </trkpt>
      <trkpt lat="44.3655" lon="5.26357">
        <ele>383</ele>
        <time>2021-11-13T15:24:44.533Z</time>
      </trkpt>
      <trkpt lat="44.36556" lon="5.26352">
        <ele>382</ele>
        <time>2021-11-13T15:24:45.533Z</time>
      </trkpt>
      <trkpt lat="44.36561" lon="5.26346">
        <ele>382</ele>
        <time>2021-11-13T15:24:46.533Z</time>
      </trkpt>
      <trkpt lat="44.36567" lon="5.26341">
        <ele>383</ele>
        <time>2021-11-13T15:24:47.533Z</time>
      </trkpt>
      <trkpt lat="44.36572" lon="5.26337">
        <ele>383</ele>
        <time>2021-11-13T15:24:48.533Z</time>
      </trkpt>
      <trkpt lat="44.36578" lon="5.26333">
        <ele>383</ele>
        <time>2021-11-13T15:24:49.532Z</time>
      </trkpt>
      <trkpt lat="44.36584" lon="5.26329">
        <ele>383</ele>
        <time>2021-11-13T15:24:50.533Z</time>
      </trkpt>
      <trkpt lat="44.3659" lon="5.26326">
        <ele>383</ele>
        <time>2021-11-13T15:24:51.533Z</time>
      </trkpt>
      <trkpt lat="44.36596" lon="5.26324">
        <ele>384</ele>
        <time>2021-11-13T15:24:52.533Z</time>
      </trkpt>
      <trkpt lat="44.36602" lon="5.26322">
        <ele>384</ele>
        <time>2021-11-13T15:24:53.533Z</time>
      </trkpt>
      <trkpt lat="44.36608" lon="5.2632">
        <ele>384</ele>
        <time>2021-11-13T15:24:54.532Z</time>
      </trkpt>
      <trkpt lat="44.36614" lon="5.26319">
        <ele>384</ele>
        <time>2021-11-13T15:24:55.533Z</time>
      </trkpt>
      <trkpt lat="44.3662" lon="5.26318">
        <ele>384</ele>
        <time>2021-11-13T15:24:56.532Z</time>
      </trkpt>
      <trkpt lat="44.36626" lon="5.26317">
        <ele>383</ele>
        <time>2021-11-13T15:24:57.533Z</time>
      </trkpt>
      <trkpt lat="44.36632" lon="5.26317">
        <ele>383</ele>
        <time>2021-11-13T15:24:58.533Z</time>
      </trkpt>
      <trkpt lat="44.36638" lon="5.26317">
        <ele>382</ele>
        <time>2021-11-13T15:24:59.533Z</time>
      </trkpt>
      <trkpt lat="44.36645" lon="5.26317">
        <ele>382</ele>
        <time>2021-11-13T15:25:00.533Z</time>
      </trkpt>
      <trkpt lat="44.36651" lon="5.26317">
        <ele>381</ele>
        <time>2021-11-13T15:25:01.533Z</time>
      </trkpt>
      <trkpt lat="44.36657" lon="5.26318">
        <ele>381</ele>
        <time>2021-11-13T15:25:02.533Z</time>
      </trkpt>
      <trkpt lat="44.36663" lon="5.26318">
        <ele>381</ele>
        <time>2021-11-13T15:25:03.533Z</time>
      </trkpt>
      <trkpt lat="44.36669" lon="5.26318">
        <ele>381</ele>
        <time>2021-11-13T15:25:04.533Z</time>
      </trkpt>
      <trkpt lat="44.36675" lon="5.26318">
        <ele>381</ele>
        <time>2021-11-13T15:25:05.533Z</time>
      </trkpt>
      <trkpt lat="44.36681" lon="5.26317">
        <ele>381</ele>
        <time>2021-11-13T15:25:06.533Z</time>
      </trkpt>
      <trkpt lat="44.36687" lon="5.26316">
        <ele>381</ele>
        <time>2021-11-13T15:25:07.533Z</time>
      </trkpt>
      <trkpt lat="44.36693" lon="5.26315">
        <ele>381</ele>
        <time>2021-11-13T15:25:08.533Z</time>
      </trkpt>
      <trkpt lat="44.36699" lon="5.26313">
        <ele>381</ele>
        <time>2021-11-13T15:25:09.533Z</time>
      </trkpt>
      <trkpt lat="44.36705" lon="5.26311">
        <ele>381</ele>
        <time>2021-11-13T15:25:10.533Z</time>
      </trkpt>
      <trkpt lat="44.3671" lon="5.26308">
        <ele>381</ele>
        <time>2021-11-13T15:25:11.533Z</time>
      </trkpt>
      <trkpt lat="44.36716" lon="5.26304">
        <ele>381</ele>
        <time>2021-11-13T15:25:12.533Z</time>
      </trkpt>
      <trkpt lat="44.36721" lon="5.263">
        <ele>381</ele>
        <time>2021-11-13T15:25:13.533Z</time>
      </trkpt>
      <trkpt lat="44.36725" lon="5.26296">
        <ele>381</ele>
        <time>2021-11-13T15:25:14.532Z</time>
      </trkpt>
      <trkpt lat="44.3673" lon="5.26291">
        <ele>381</ele>
        <time>2021-11-13T15:25:15.533Z</time>
      </trkpt>
      <trkpt lat="44.36735" lon="5.26285">
        <ele>381</ele>
        <time>2021-11-13T15:25:16.533Z</time>
      </trkpt>
      <trkpt lat="44.36739" lon="5.2628">
        <ele>381</ele>
        <time>2021-11-13T15:25:17.533Z</time>
      </trkpt>
      <trkpt lat="44.36743" lon="5.26274">
        <ele>380</ele>
        <time>2021-11-13T15:25:18.533Z</time>
      </trkpt>
      <trkpt lat="44.36747" lon="5.26269">
        <ele>380</ele>
        <time>2021-11-13T15:25:19.533Z</time>
      </trkpt>
      <trkpt lat="44.36751" lon="5.26263">
        <ele>380</ele>
        <time>2021-11-13T15:25:20.533Z</time>
      </trkpt>
      <trkpt lat="44.36755" lon="5.26257">
        <ele>380</ele>
        <time>2021-11-13T15:25:21.533Z</time>
      </trkpt>
      <trkpt lat="44.36759" lon="5.26251">
        <ele>380</ele>
        <time>2021-11-13T15:25:22.533Z</time>
      </trkpt>
      <trkpt lat="44.36764" lon="5.26245">
        <ele>380</ele>
        <time>2021-11-13T15:25:23.533Z</time>
      </trkpt>
      <trkpt lat="44.36768" lon="5.2624">
        <ele>380</ele>
        <time>2021-11-13T15:25:24.533Z</time>
      </trkpt>
      <trkpt lat="44.36773" lon="5.26234">
        <ele>380</ele>
        <time>2021-11-13T15:25:25.533Z</time>
      </trkpt>
      <trkpt lat="44.36777" lon="5.26228">
        <ele>380</ele>
        <time>2021-11-13T15:25:26.533Z</time>
      </trkpt>
      <trkpt lat="44.36782" lon="5.26223">
        <ele>379</ele>
        <time>2021-11-13T15:25:27.533Z</time>
      </trkpt>
      <trkpt lat="44.36787" lon="5.26218">
        <ele>379</ele>
        <time>2021-11-13T15:25:28.533Z</time>
      </trkpt>
      <trkpt lat="44.36792" lon="5.26212">
        <ele>379</ele>
        <time>2021-11-13T15:25:29.533Z</time>
      </trkpt>
      <trkpt lat="44.36797" lon="5.26207">
        <ele>378</ele>
        <time>2021-11-13T15:25:30.533Z</time>
      </trkpt>
      <trkpt lat="44.36802" lon="5.26201">
        <ele>379</ele>
        <time>2021-11-13T15:25:31.533Z</time>
      </trkpt>
      <trkpt lat="44.36806" lon="5.26196">
        <ele>379</ele>
        <time>2021-11-13T15:25:32.532Z</time>
      </trkpt>
      <trkpt lat="44.36811" lon="5.2619">
        <ele>379</ele>
        <time>2021-11-13T15:25:33.533Z</time>
      </trkpt>
      <trkpt lat="44.36816" lon="5.26184">
        <ele>379</ele>
        <time>2021-11-13T15:25:34.532Z</time>
      </trkpt>
      <trkpt lat="44.36821" lon="5.26179">
        <ele>378</ele>
        <time>2021-11-13T15:25:35.532Z</time>
      </trkpt>
      <trkpt lat="44.36826" lon="5.26173">
        <ele>378</ele>
        <time>2021-11-13T15:25:36.532Z</time>
      </trkpt>
      <trkpt lat="44.36831" lon="5.26167">
        <ele>379</ele>
        <time>2021-11-13T15:25:37.533Z</time>
      </trkpt>
      <trkpt lat="44.36836" lon="5.26161">
        <ele>379</ele>
        <time>2021-11-13T15:25:38.533Z</time>
      </trkpt>
      <trkpt lat="44.36841" lon="5.26156">
        <ele>379</ele>
        <time>2021-11-13T15:25:39.533Z</time>
      </trkpt>
      <trkpt lat="44.36846" lon="5.2615">
        <ele>379</ele>
        <time>2021-11-13T15:25:40.533Z</time>
      </trkpt>
      <trkpt lat="44.36851" lon="5.26144">
        <ele>379</ele>
        <time>2021-11-13T15:25:41.533Z</time>
      </trkpt>
      <trkpt lat="44.36857" lon="5.26137">
        <ele>378</ele>
        <time>2021-11-13T15:25:42.532Z</time>
      </trkpt>
      <trkpt lat="44.36862" lon="5.26132">
        <ele>378</ele>
        <time>2021-11-13T15:25:43.533Z</time>
      </trkpt>
      <trkpt lat="44.36866" lon="5.26127">
        <ele>378</ele>
        <time>2021-11-13T15:25:44.532Z</time>
      </trkpt>
      <trkpt lat="44.3687" lon="5.26121">
        <ele>378</ele>
        <time>2021-11-13T15:25:45.533Z</time>
      </trkpt>
      <trkpt lat="44.36876" lon="5.26115">
        <ele>378</ele>
        <time>2021-11-13T15:25:46.532Z</time>
      </trkpt>
      <trkpt lat="44.3688" lon="5.2611">
        <ele>378</ele>
        <time>2021-11-13T15:25:47.533Z</time>
      </trkpt>
      <trkpt lat="44.36885" lon="5.26104">
        <ele>378</ele>
        <time>2021-11-13T15:25:48.533Z</time>
      </trkpt>
      <trkpt lat="44.3689" lon="5.26099">
        <ele>378</ele>
        <time>2021-11-13T15:25:49.533Z</time>
      </trkpt>
      <trkpt lat="44.36896" lon="5.26093">
        <ele>378</ele>
        <time>2021-11-13T15:25:50.532Z</time>
      </trkpt>
      <trkpt lat="44.36901" lon="5.26087">
        <ele>377</ele>
        <time>2021-11-13T15:25:51.532Z</time>
      </trkpt>
      <trkpt lat="44.36906" lon="5.26082">
        <ele>377</ele>
        <time>2021-11-13T15:25:52.532Z</time>
      </trkpt>
      <trkpt lat="44.36911" lon="5.26076">
        <ele>377</ele>
        <time>2021-11-13T15:25:53.533Z</time>
      </trkpt>
      <trkpt lat="44.36916" lon="5.26071">
        <ele>376</ele>
        <time>2021-11-13T15:25:54.532Z</time>
      </trkpt>
      <trkpt lat="44.36921" lon="5.26065">
        <ele>376</ele>
        <time>2021-11-13T15:25:55.532Z</time>
      </trkpt>
      <trkpt lat="44.36927" lon="5.26058">
        <ele>375</ele>
        <time>2021-11-13T15:25:56.532Z</time>
      </trkpt>
      <trkpt lat="44.36932" lon="5.26054">
        <ele>375</ele>
        <time>2021-11-13T15:25:57.533Z</time>
      </trkpt>
      <trkpt lat="44.36937" lon="5.26048">
        <ele>374</ele>
        <time>2021-11-13T15:25:58.533Z</time>
      </trkpt>
      <trkpt lat="44.36941" lon="5.26043">
        <ele>374</ele>
        <time>2021-11-13T15:25:59.532Z</time>
      </trkpt>
      <trkpt lat="44.36946" lon="5.26037">
        <ele>375</ele>
        <time>2021-11-13T15:26:00.533Z</time>
      </trkpt>
      <trkpt lat="44.3695" lon="5.26031">
        <ele>375</ele>
        <time>2021-11-13T15:26:01.533Z</time>
      </trkpt>
      <trkpt lat="44.36956" lon="5.26024">
        <ele>375</ele>
        <time>2021-11-13T15:26:02.533Z</time>
      </trkpt>
      <trkpt lat="44.36959" lon="5.26019">
        <ele>375</ele>
        <time>2021-11-13T15:26:03.533Z</time>
      </trkpt>
      <trkpt lat="44.36963" lon="5.26012">
        <ele>376</ele>
        <time>2021-11-13T15:26:04.533Z</time>
      </trkpt>
      <trkpt lat="44.36967" lon="5.26006">
        <ele>376</ele>
        <time>2021-11-13T15:26:05.533Z</time>
      </trkpt>
      <trkpt lat="44.36971" lon="5.26">
        <ele>376</ele>
        <time>2021-11-13T15:26:06.533Z</time>
      </trkpt>
      <trkpt lat="44.36974" lon="5.25993">
        <ele>376</ele>
        <time>2021-11-13T15:26:07.533Z</time>
      </trkpt>
      <trkpt lat="44.36978" lon="5.25986">
        <ele>375</ele>
        <time>2021-11-13T15:26:08.533Z</time>
      </trkpt>
      <trkpt lat="44.36981" lon="5.25979">
        <ele>375</ele>
        <time>2021-11-13T15:26:09.533Z</time>
      </trkpt>
      <trkpt lat="44.36984" lon="5.25973">
        <ele>375</ele>
        <time>2021-11-13T15:26:10.533Z</time>
      </trkpt>
      <trkpt lat="44.36988" lon="5.25966">
        <ele>375</ele>
        <time>2021-11-13T15:26:11.533Z</time>
      </trkpt>
      <trkpt lat="44.36991" lon="5.25959">
        <ele>375</ele>
        <time>2021-11-13T15:26:12.532Z</time>
      </trkpt>
      <trkpt lat="44.36994" lon="5.25952">
        <ele>375</ele>
        <time>2021-11-13T15:26:13.533Z</time>
      </trkpt>
      <trkpt lat="44.36997" lon="5.25945">
        <ele>375</ele>
        <time>2021-11-13T15:26:14.533Z</time>
      </trkpt>
      <trkpt lat="44.37001" lon="5.25938">
        <ele>375</ele>
        <time>2021-11-13T15:26:15.533Z</time>
      </trkpt>
      <trkpt lat="44.37004" lon="5.25931">
        <ele>374</ele>
        <time>2021-11-13T15:26:16.533Z</time>
      </trkpt>
      <trkpt lat="44.37008" lon="5.25925">
        <ele>374</ele>
        <time>2021-11-13T15:26:17.533Z</time>
      </trkpt>
      <trkpt lat="44.37011" lon="5.25918">
        <ele>374</ele>
        <time>2021-11-13T15:26:18.533Z</time>
      </trkpt>
      <trkpt lat="44.37014" lon="5.25912">
        <ele>374</ele>
        <time>2021-11-13T15:26:19.533Z</time>
      </trkpt>
      <trkpt lat="44.37018" lon="5.25905">
        <ele>374</ele>
        <time>2021-11-13T15:26:20.533Z</time>
      </trkpt>
      <trkpt lat="44.37021" lon="5.25899">
        <ele>374</ele>
        <time>2021-11-13T15:26:21.533Z</time>
      </trkpt>
      <trkpt lat="44.37024" lon="5.25892">
        <ele>374</ele>
        <time>2021-11-13T15:26:22.533Z</time>
      </trkpt>
      <trkpt lat="44.37026" lon="5.25885">
        <ele>374</ele>
        <time>2021-11-13T15:26:23.533Z</time>
      </trkpt>
      <trkpt lat="44.37029" lon="5.25878">
        <ele>374</ele>
        <time>2021-11-13T15:26:24.533Z</time>
      </trkpt>
      <trkpt lat="44.37031" lon="5.25871">
        <ele>374</ele>
        <time>2021-11-13T15:26:25.533Z</time>
      </trkpt>
      <trkpt lat="44.37033" lon="5.25864">
        <ele>374</ele>
        <time>2021-11-13T15:26:26.532Z</time>
      </trkpt>
      <trkpt lat="44.37035" lon="5.25857">
        <ele>375</ele>
        <time>2021-11-13T15:26:27.533Z</time>
      </trkpt>
      <trkpt lat="44.37038" lon="5.25849">
        <ele>375</ele>
        <time>2021-11-13T15:26:28.532Z</time>
      </trkpt>
      <trkpt lat="44.3704" lon="5.25842">
        <ele>375</ele>
        <time>2021-11-13T15:26:29.533Z</time>
      </trkpt>
      <trkpt lat="44.37042" lon="5.25835">
        <ele>375</ele>
        <time>2021-11-13T15:26:30.533Z</time>
      </trkpt>
      <trkpt lat="44.37044" lon="5.25828">
        <ele>375</ele>
        <time>2021-11-13T15:26:31.533Z</time>
      </trkpt>
      <trkpt lat="44.37046" lon="5.2582">
        <ele>375</ele>
        <time>2021-11-13T15:26:32.533Z</time>
      </trkpt>
      <trkpt lat="44.37049" lon="5.25813">
        <ele>375</ele>
        <time>2021-11-13T15:26:33.533Z</time>
      </trkpt>
      <trkpt lat="44.37051" lon="5.25806">
        <ele>375</ele>
        <time>2021-11-13T15:26:34.533Z</time>
      </trkpt>
      <trkpt lat="44.37053" lon="5.25799">
        <ele>375</ele>
        <time>2021-11-13T15:26:35.533Z</time>
      </trkpt>
      <trkpt lat="44.37056" lon="5.25792">
        <ele>374</ele>
        <time>2021-11-13T15:26:36.533Z</time>
      </trkpt>
      <trkpt lat="44.37058" lon="5.25785">
        <ele>374</ele>
        <time>2021-11-13T15:26:37.533Z</time>
      </trkpt>
      <trkpt lat="44.3706" lon="5.25777">
        <ele>374</ele>
        <time>2021-11-13T15:26:38.533Z</time>
      </trkpt>
      <trkpt lat="44.37063" lon="5.2577">
        <ele>373</ele>
        <time>2021-11-13T15:26:39.533Z</time>
      </trkpt>
      <trkpt lat="44.37065" lon="5.25763">
        <ele>374</ele>
        <time>2021-11-13T15:26:40.533Z</time>
      </trkpt>
      <trkpt lat="44.37068" lon="5.25756">
        <ele>374</ele>
        <time>2021-11-13T15:26:41.533Z</time>
      </trkpt>
      <trkpt lat="44.3707" lon="5.25748">
        <ele>374</ele>
        <time>2021-11-13T15:26:42.533Z</time>
      </trkpt>
      <trkpt lat="44.37072" lon="5.25741">
        <ele>374</ele>
        <time>2021-11-13T15:26:43.533Z</time>
      </trkpt>
      <trkpt lat="44.37075" lon="5.25734">
        <ele>374</ele>
        <time>2021-11-13T15:26:44.533Z</time>
      </trkpt>
      <trkpt lat="44.37077" lon="5.25727">
        <ele>374</ele>
        <time>2021-11-13T15:26:45.533Z</time>
      </trkpt>
      <trkpt lat="44.3708" lon="5.25719">
        <ele>374</ele>
        <time>2021-11-13T15:26:46.533Z</time>
      </trkpt>
      <trkpt lat="44.37082" lon="5.25712">
        <ele>375</ele>
        <time>2021-11-13T15:26:47.533Z</time>
      </trkpt>
      <trkpt lat="44.37085" lon="5.25704">
        <ele>375</ele>
        <time>2021-11-13T15:26:48.532Z</time>
      </trkpt>
      <trkpt lat="44.37087" lon="5.25697">
        <ele>375</ele>
        <time>2021-11-13T15:26:49.533Z</time>
      </trkpt>
      <trkpt lat="44.3709" lon="5.2569">
        <ele>375</ele>
        <time>2021-11-13T15:26:50.533Z</time>
      </trkpt>
      <trkpt lat="44.37093" lon="5.25683">
        <ele>374</ele>
        <time>2021-11-13T15:26:51.533Z</time>
      </trkpt>
      <trkpt lat="44.37096" lon="5.25676">
        <ele>374</ele>
        <time>2021-11-13T15:26:52.533Z</time>
      </trkpt>
      <trkpt lat="44.37099" lon="5.25669">
        <ele>373</ele>
        <time>2021-11-13T15:26:53.533Z</time>
      </trkpt>
      <trkpt lat="44.37102" lon="5.25662">
        <ele>373</ele>
        <time>2021-11-13T15:26:54.533Z</time>
      </trkpt>
      <trkpt lat="44.37105" lon="5.25655">
        <ele>374</ele>
        <time>2021-11-13T15:26:55.533Z</time>
      </trkpt>
      <trkpt lat="44.37108" lon="5.25648">
        <ele>374</ele>
        <time>2021-11-13T15:26:56.533Z</time>
      </trkpt>
      <trkpt lat="44.37111" lon="5.25641">
        <ele>374</ele>
        <time>2021-11-13T15:26:57.533Z</time>
      </trkpt>
      <trkpt lat="44.37114" lon="5.25634">
        <ele>375</ele>
        <time>2021-11-13T15:26:58.532Z</time>
      </trkpt>
      <trkpt lat="44.37117" lon="5.25627">
        <ele>375</ele>
        <time>2021-11-13T15:26:59.533Z</time>
      </trkpt>
      <trkpt lat="44.37121" lon="5.2562">
        <ele>376</ele>
        <time>2021-11-13T15:27:00.533Z</time>
      </trkpt>
      <trkpt lat="44.37124" lon="5.25614">
        <ele>376</ele>
        <time>2021-11-13T15:27:01.533Z</time>
      </trkpt>
      <trkpt lat="44.37127" lon="5.25607">
        <ele>376</ele>
        <time>2021-11-13T15:27:02.533Z</time>
      </trkpt>
      <trkpt lat="44.3713" lon="5.256">
        <ele>376</ele>
        <time>2021-11-13T15:27:03.533Z</time>
      </trkpt>
      <trkpt lat="44.37133" lon="5.25593">
        <ele>377</ele>
        <time>2021-11-13T15:27:04.532Z</time>
      </trkpt>
      <trkpt lat="44.37136" lon="5.25586">
        <ele>377</ele>
        <time>2021-11-13T15:27:05.533Z</time>
      </trkpt>
      <trkpt lat="44.3714" lon="5.25579">
        <ele>376</ele>
        <time>2021-11-13T15:27:06.533Z</time>
      </trkpt>
      <trkpt lat="44.37143" lon="5.25573">
        <ele>376</ele>
        <time>2021-11-13T15:27:07.533Z</time>
      </trkpt>
      <trkpt lat="44.37146" lon="5.25566">
        <ele>376</ele>
        <time>2021-11-13T15:27:08.533Z</time>
      </trkpt>
      <trkpt lat="44.37149" lon="5.25559">
        <ele>376</ele>
        <time>2021-11-13T15:27:09.533Z</time>
      </trkpt>
      <trkpt lat="44.37153" lon="5.25553">
        <ele>376</ele>
        <time>2021-11-13T15:27:10.533Z</time>
      </trkpt>
      <trkpt lat="44.37156" lon="5.25546">
        <ele>376</ele>
        <time>2021-11-13T15:27:11.533Z</time>
      </trkpt>
      <trkpt lat="44.37159" lon="5.25539">
        <ele>375</ele>
        <time>2021-11-13T15:27:12.532Z</time>
      </trkpt>
      <trkpt lat="44.37162" lon="5.25533">
        <ele>375</ele>
        <time>2021-11-13T15:27:13.533Z</time>
      </trkpt>
      <trkpt lat="44.37165" lon="5.25526">
        <ele>375</ele>
        <time>2021-11-13T15:27:14.533Z</time>
      </trkpt>
      <trkpt lat="44.37168" lon="5.2552">
        <ele>374</ele>
        <time>2021-11-13T15:27:15.533Z</time>
      </trkpt>
      <trkpt lat="44.37171" lon="5.25514">
        <ele>374</ele>
        <time>2021-11-13T15:27:16.532Z</time>
      </trkpt>
      <trkpt lat="44.37174" lon="5.25507">
        <ele>374</ele>
        <time>2021-11-13T15:27:17.532Z</time>
      </trkpt>
      <trkpt lat="44.37177" lon="5.25501">
        <ele>374</ele>
        <time>2021-11-13T15:27:18.533Z</time>
      </trkpt>
      <trkpt lat="44.3718" lon="5.25495">
        <ele>374</ele>
        <time>2021-11-13T15:27:38.554Z</time>
      </trkpt>
      <trkpt lat="44.37183" lon="5.25489">
        <ele>373</ele>
        <time>2021-11-13T15:27:39.554Z</time>
      </trkpt>
      <trkpt lat="44.37186" lon="5.25483">
        <ele>373</ele>
        <time>2021-11-13T15:27:40.553Z</time>
      </trkpt>
      <trkpt lat="44.3719" lon="5.25477">
        <ele>372</ele>
        <time>2021-11-13T15:27:41.554Z</time>
      </trkpt>
      <trkpt lat="44.37193" lon="5.2547">
        <ele>372</ele>
        <time>2021-11-13T15:27:42.554Z</time>
      </trkpt>
      <trkpt lat="44.37196" lon="5.25463">
        <ele>371</ele>
        <time>2021-11-13T15:27:43.554Z</time>
      </trkpt>
      <trkpt lat="44.37199" lon="5.25456">
        <ele>371</ele>
        <time>2021-11-13T15:27:44.553Z</time>
      </trkpt>
      <trkpt lat="44.37203" lon="5.25449">
        <ele>371</ele>
        <time>2021-11-13T15:27:45.554Z</time>
      </trkpt>
      <trkpt lat="44.37205" lon="5.25442">
        <ele>370</ele>
        <time>2021-11-13T15:27:46.554Z</time>
      </trkpt>
      <trkpt lat="44.37208" lon="5.25435">
        <ele>370</ele>
        <time>2021-11-13T15:27:47.554Z</time>
      </trkpt>
      <trkpt lat="44.37212" lon="5.25428">
        <ele>370</ele>
        <time>2021-11-13T15:27:48.554Z</time>
      </trkpt>
      <trkpt lat="44.37215" lon="5.25421">
        <ele>371</ele>
        <time>2021-11-13T15:27:49.554Z</time>
      </trkpt>
      <trkpt lat="44.37219" lon="5.25414">
        <ele>371</ele>
        <time>2021-11-13T15:27:50.553Z</time>
      </trkpt>
      <trkpt lat="44.37223" lon="5.25408">
        <ele>371</ele>
        <time>2021-11-13T15:27:51.554Z</time>
      </trkpt>
      <trkpt lat="44.37227" lon="5.25401">
        <ele>371</ele>
        <time>2021-11-13T15:27:52.554Z</time>
      </trkpt>
      <trkpt lat="44.37232" lon="5.25396">
        <ele>371</ele>
        <time>2021-11-13T15:27:53.554Z</time>
      </trkpt>
      <trkpt lat="44.37236" lon="5.25391">
        <ele>371</ele>
        <time>2021-11-13T15:27:54.554Z</time>
      </trkpt>
      <trkpt lat="44.37242" lon="5.25387">
        <ele>371</ele>
        <time>2021-11-13T15:27:55.554Z</time>
      </trkpt>
      <trkpt lat="44.37247" lon="5.25384">
        <ele>371</ele>
        <time>2021-11-13T15:27:56.554Z</time>
      </trkpt>
      <trkpt lat="44.37253" lon="5.25382">
        <ele>371</ele>
        <time>2021-11-13T15:27:57.553Z</time>
      </trkpt>
      <trkpt lat="44.3726" lon="5.2538">
        <ele>371</ele>
        <time>2021-11-13T15:27:58.554Z</time>
      </trkpt>
      <trkpt lat="44.37266" lon="5.2538">
        <ele>370</ele>
        <time>2021-11-13T15:27:59.554Z</time>
      </trkpt>
      <trkpt lat="44.37272" lon="5.2538">
        <ele>370</ele>
        <time>2021-11-13T15:28:00.554Z</time>
      </trkpt>
      <trkpt lat="44.37279" lon="5.25381">
        <ele>369</ele>
        <time>2021-11-13T15:28:01.554Z</time>
      </trkpt>
      <trkpt lat="44.37285" lon="5.25382">
        <ele>369</ele>
        <time>2021-11-13T15:28:02.554Z</time>
      </trkpt>
      <trkpt lat="44.37292" lon="5.25383">
        <ele>368</ele>
        <time>2021-11-13T15:28:03.554Z</time>
      </trkpt>
      <trkpt lat="44.37298" lon="5.25384">
        <ele>368</ele>
        <time>2021-11-13T15:28:04.553Z</time>
      </trkpt>
      <trkpt lat="44.37305" lon="5.25385">
        <ele>367</ele>
        <time>2021-11-13T15:28:05.554Z</time>
      </trkpt>
      <trkpt lat="44.37312" lon="5.25386">
        <ele>367</ele>
        <time>2021-11-13T15:28:06.553Z</time>
      </trkpt>
      <trkpt lat="44.37318" lon="5.25386">
        <ele>366</ele>
        <time>2021-11-13T15:28:07.553Z</time>
      </trkpt>
      <trkpt lat="44.37325" lon="5.25387">
        <ele>366</ele>
        <time>2021-11-13T15:28:08.554Z</time>
      </trkpt>
      <trkpt lat="44.37332" lon="5.25387">
        <ele>366</ele>
        <time>2021-11-13T15:28:09.553Z</time>
      </trkpt>
      <trkpt lat="44.37338" lon="5.25387">
        <ele>367</ele>
        <time>2021-11-13T15:28:10.554Z</time>
      </trkpt>
      <trkpt lat="44.37345" lon="5.25387">
        <ele>367</ele>
        <time>2021-11-13T15:28:11.553Z</time>
      </trkpt>
      <trkpt lat="44.37351" lon="5.25386">
        <ele>367</ele>
        <time>2021-11-13T15:28:12.554Z</time>
      </trkpt>
      <trkpt lat="44.37357" lon="5.25384">
        <ele>367</ele>
        <time>2021-11-13T15:28:13.554Z</time>
      </trkpt>
      <trkpt lat="44.37363" lon="5.25383">
        <ele>367</ele>
        <time>2021-11-13T15:28:14.554Z</time>
      </trkpt>
      <trkpt lat="44.3737" lon="5.25381">
        <ele>367</ele>
        <time>2021-11-13T15:28:15.554Z</time>
      </trkpt>
      <trkpt lat="44.37376" lon="5.25379">
        <ele>367</ele>
        <time>2021-11-13T15:28:16.554Z</time>
      </trkpt>
      <trkpt lat="44.37382" lon="5.25376">
        <ele>367</ele>
        <time>2021-11-13T15:28:17.553Z</time>
      </trkpt>
      <trkpt lat="44.37389" lon="5.25373">
        <ele>367</ele>
        <time>2021-11-13T15:28:18.554Z</time>
      </trkpt>
      <trkpt lat="44.37395" lon="5.2537">
        <ele>366</ele>
        <time>2021-11-13T15:28:19.554Z</time>
      </trkpt>
      <trkpt lat="44.37402" lon="5.25366">
        <ele>366</ele>
        <time>2021-11-13T15:28:20.554Z</time>
      </trkpt>
      <trkpt lat="44.37409" lon="5.25362">
        <ele>366</ele>
        <time>2021-11-13T15:28:21.553Z</time>
      </trkpt>
      <trkpt lat="44.37415" lon="5.25358">
        <ele>365</ele>
        <time>2021-11-13T15:28:22.554Z</time>
      </trkpt>
      <trkpt lat="44.3742" lon="5.25355">
        <ele>365</ele>
        <time>2021-11-13T15:28:23.554Z</time>
      </trkpt>
      <trkpt lat="44.37426" lon="5.25349">
        <ele>365</ele>
        <time>2021-11-13T15:28:24.554Z</time>
      </trkpt>
      <trkpt lat="44.37432" lon="5.25344">
        <ele>364</ele>
        <time>2021-11-13T15:28:25.554Z</time>
      </trkpt>
      <trkpt lat="44.37437" lon="5.25338">
        <ele>364</ele>
        <time>2021-11-13T15:28:26.554Z</time>
      </trkpt>
      <trkpt lat="44.37441" lon="5.25332">
        <ele>363</ele>
        <time>2021-11-13T15:28:27.554Z</time>
      </trkpt>
      <trkpt lat="44.37445" lon="5.25326">
        <ele>363</ele>
        <time>2021-11-13T15:28:28.554Z</time>
      </trkpt>
      <trkpt lat="44.37451" lon="5.25317">
        <ele>363</ele>
        <time>2021-11-13T15:28:29.554Z</time>
      </trkpt>
      <trkpt lat="44.37454" lon="5.25311">
        <ele>363</ele>
        <time>2021-11-13T15:28:30.554Z</time>
      </trkpt>
      <trkpt lat="44.37458" lon="5.25303">
        <ele>363</ele>
        <time>2021-11-13T15:28:31.554Z</time>
      </trkpt>
      <trkpt lat="44.37461" lon="5.25295">
        <ele>363</ele>
        <time>2021-11-13T15:28:32.554Z</time>
      </trkpt>
      <trkpt lat="44.37465" lon="5.25287">
        <ele>363</ele>
        <time>2021-11-13T15:28:33.554Z</time>
      </trkpt>
      <trkpt lat="44.37468" lon="5.25278">
        <ele>362</ele>
        <time>2021-11-13T15:28:34.553Z</time>
      </trkpt>
      <trkpt lat="44.37472" lon="5.2527">
        <ele>362</ele>
        <time>2021-11-13T15:28:35.554Z</time>
      </trkpt>
      <trkpt lat="44.37474" lon="5.25261">
        <ele>362</ele>
        <time>2021-11-13T15:28:36.554Z</time>
      </trkpt>
      <trkpt lat="44.37477" lon="5.25252">
        <ele>362</ele>
        <time>2021-11-13T15:28:45.712Z</time>
      </trkpt>
      <trkpt lat="44.37479" lon="5.25243">
        <ele>362</ele>
        <time>2021-11-13T15:29:05.582Z</time>
      </trkpt>
      <trkpt lat="44.37482" lon="5.25232">
        <ele>361</ele>
        <time>2021-11-13T15:29:06.582Z</time>
      </trkpt>
      <trkpt lat="44.37484" lon="5.25223">
        <ele>361</ele>
        <time>2021-11-13T15:29:07.582Z</time>
      </trkpt>
      <trkpt lat="44.37486" lon="5.25215">
        <ele>361</ele>
        <time>2021-11-13T15:29:08.582Z</time>
      </trkpt>
      <trkpt lat="44.37488" lon="5.25205">
        <ele>362</ele>
        <time>2021-11-13T15:29:09.582Z</time>
      </trkpt>
      <trkpt lat="44.3749" lon="5.25196">
        <ele>362</ele>
        <time>2021-11-13T15:29:10.582Z</time>
      </trkpt>
      <trkpt lat="44.37493" lon="5.25187">
        <ele>362</ele>
        <time>2021-11-13T15:29:11.581Z</time>
      </trkpt>
      <trkpt lat="44.37495" lon="5.25179">
        <ele>362</ele>
        <time>2021-11-13T15:29:12.581Z</time>
      </trkpt>
      <trkpt lat="44.37498" lon="5.25171">
        <ele>362</ele>
        <time>2021-11-13T15:29:13.582Z</time>
      </trkpt>
      <trkpt lat="44.37501" lon="5.25162">
        <ele>362</ele>
        <time>2021-11-13T15:29:14.582Z</time>
      </trkpt>
      <trkpt lat="44.37503" lon="5.25155">
        <ele>362</ele>
        <time>2021-11-13T15:29:15.582Z</time>
      </trkpt>
      <trkpt lat="44.37507" lon="5.25146">
        <ele>362</ele>
        <time>2021-11-13T15:29:16.582Z</time>
      </trkpt>
      <trkpt lat="44.3751" lon="5.25139">
        <ele>362</ele>
        <time>2021-11-13T15:29:17.582Z</time>
      </trkpt>
      <trkpt lat="44.37513" lon="5.25131">
        <ele>362</ele>
        <time>2021-11-13T15:29:18.582Z</time>
      </trkpt>
      <trkpt lat="44.37517" lon="5.25123">
        <ele>362</ele>
        <time>2021-11-13T15:29:19.582Z</time>
      </trkpt>
      <trkpt lat="44.37521" lon="5.25116">
        <ele>362</ele>
        <time>2021-11-13T15:29:20.582Z</time>
      </trkpt>
      <trkpt lat="44.37526" lon="5.25109">
        <ele>361</ele>
        <time>2021-11-13T15:29:21.582Z</time>
      </trkpt>
      <trkpt lat="44.3753" lon="5.25103">
        <ele>361</ele>
        <time>2021-11-13T15:29:22.582Z</time>
      </trkpt>
      <trkpt lat="44.37535" lon="5.25097">
        <ele>361</ele>
        <time>2021-11-13T15:29:23.582Z</time>
      </trkpt>
      <trkpt lat="44.3754" lon="5.25091">
        <ele>361</ele>
        <time>2021-11-13T15:29:24.581Z</time>
      </trkpt>
      <trkpt lat="44.37545" lon="5.25086">
        <ele>361</ele>
        <time>2021-11-13T15:29:25.582Z</time>
      </trkpt>
      <trkpt lat="44.3755" lon="5.2508">
        <ele>361</ele>
        <time>2021-11-13T15:29:26.581Z</time>
      </trkpt>
      <trkpt lat="44.37555" lon="5.25075">
        <ele>360</ele>
        <time>2021-11-13T15:29:27.582Z</time>
      </trkpt>
      <trkpt lat="44.3756" lon="5.2507">
        <ele>360</ele>
        <time>2021-11-13T15:29:28.582Z</time>
      </trkpt>
      <trkpt lat="44.37565" lon="5.25065">
        <ele>360</ele>
        <time>2021-11-13T15:29:29.582Z</time>
      </trkpt>
      <trkpt lat="44.37571" lon="5.2506">
        <ele>360</ele>
        <time>2021-11-13T15:29:30.582Z</time>
      </trkpt>
      <trkpt lat="44.37576" lon="5.25055">
        <ele>361</ele>
        <time>2021-11-13T15:29:31.582Z</time>
      </trkpt>
      <trkpt lat="44.37581" lon="5.2505">
        <ele>361</ele>
        <time>2021-11-13T15:29:32.582Z</time>
      </trkpt>
      <trkpt lat="44.37587" lon="5.25045">
        <ele>360</ele>
        <time>2021-11-13T15:29:33.582Z</time>
      </trkpt>
      <trkpt lat="44.37592" lon="5.25039">
        <ele>360</ele>
        <time>2021-11-13T15:29:34.581Z</time>
      </trkpt>
      <trkpt lat="44.37597" lon="5.25033">
        <ele>360</ele>
        <time>2021-11-13T15:29:35.582Z</time>
      </trkpt>
      <trkpt lat="44.37602" lon="5.25027">
        <ele>360</ele>
        <time>2021-11-13T15:29:36.582Z</time>
      </trkpt>
      <trkpt lat="44.37606" lon="5.2502">
        <ele>360</ele>
        <time>2021-11-13T15:29:37.582Z</time>
      </trkpt>
      <trkpt lat="44.37611" lon="5.25014">
        <ele>360</ele>
        <time>2021-11-13T15:29:38.582Z</time>
      </trkpt>
      <trkpt lat="44.37616" lon="5.25008">
        <ele>359</ele>
        <time>2021-11-13T15:29:39.582Z</time>
      </trkpt>
      <trkpt lat="44.3762" lon="5.25001">
        <ele>359</ele>
        <time>2021-11-13T15:29:40.582Z</time>
      </trkpt>
      <trkpt lat="44.37625" lon="5.24994">
        <ele>359</ele>
        <time>2021-11-13T15:29:41.582Z</time>
      </trkpt>
      <trkpt lat="44.37629" lon="5.24988">
        <ele>359</ele>
        <time>2021-11-13T15:29:42.582Z</time>
      </trkpt>
      <trkpt lat="44.37634" lon="5.24981">
        <ele>359</ele>
        <time>2021-11-13T15:29:43.582Z</time>
      </trkpt>
      <trkpt lat="44.37639" lon="5.24975">
        <ele>359</ele>
        <time>2021-11-13T15:29:44.581Z</time>
      </trkpt>
      <trkpt lat="44.37643" lon="5.24968">
        <ele>359</ele>
        <time>2021-11-13T15:29:45.582Z</time>
      </trkpt>
      <trkpt lat="44.37648" lon="5.24961">
        <ele>359</ele>
        <time>2021-11-13T15:29:46.581Z</time>
      </trkpt>
      <trkpt lat="44.37653" lon="5.24955">
        <ele>359</ele>
        <time>2021-11-13T15:29:47.582Z</time>
      </trkpt>
      <trkpt lat="44.37658" lon="5.24948">
        <ele>359</ele>
        <time>2021-11-13T15:29:48.582Z</time>
      </trkpt>
      <trkpt lat="44.37662" lon="5.24942">
        <ele>359</ele>
        <time>2021-11-13T15:29:49.582Z</time>
      </trkpt>
      <trkpt lat="44.37667" lon="5.24935">
        <ele>359</ele>
        <time>2021-11-13T15:29:50.581Z</time>
      </trkpt>
      <trkpt lat="44.37672" lon="5.24929">
        <ele>359</ele>
        <time>2021-11-13T15:29:51.582Z</time>
      </trkpt>
      <trkpt lat="44.37676" lon="5.24922">
        <ele>359</ele>
        <time>2021-11-13T15:29:52.581Z</time>
      </trkpt>
      <trkpt lat="44.37681" lon="5.24916">
        <ele>359</ele>
        <time>2021-11-13T15:29:53.582Z</time>
      </trkpt>
      <trkpt lat="44.37686" lon="5.2491">
        <ele>359</ele>
        <time>2021-11-13T15:29:54.582Z</time>
      </trkpt>
      <trkpt lat="44.37691" lon="5.24903">
        <ele>359</ele>
        <time>2021-11-13T15:29:55.582Z</time>
      </trkpt>
      <trkpt lat="44.37696" lon="5.24896">
        <ele>358</ele>
        <time>2021-11-13T15:29:56.582Z</time>
      </trkpt>
      <trkpt lat="44.37701" lon="5.2489">
        <ele>358</ele>
        <time>2021-11-13T15:29:57.581Z</time>
      </trkpt>
      <trkpt lat="44.37706" lon="5.24883">
        <ele>358</ele>
        <time>2021-11-13T15:29:58.582Z</time>
      </trkpt>
      <trkpt lat="44.3771" lon="5.24876">
        <ele>358</ele>
        <time>2021-11-13T15:29:59.582Z</time>
      </trkpt>
      <trkpt lat="44.37715" lon="5.2487">
        <ele>358</ele>
        <time>2021-11-13T15:30:00.582Z</time>
      </trkpt>
      <trkpt lat="44.3772" lon="5.24863">
        <ele>358</ele>
        <time>2021-11-13T15:30:01.581Z</time>
      </trkpt>
      <trkpt lat="44.37725" lon="5.24856">
        <ele>358</ele>
        <time>2021-11-13T15:30:02.581Z</time>
      </trkpt>
      <trkpt lat="44.3773" lon="5.24849">
        <ele>358</ele>
        <time>2021-11-13T15:30:03.582Z</time>
      </trkpt>
      <trkpt lat="44.37734" lon="5.24842">
        <ele>357</ele>
        <time>2021-11-13T15:30:04.582Z</time>
      </trkpt>
      <trkpt lat="44.37739" lon="5.24835">
        <ele>357</ele>
        <time>2021-11-13T15:30:05.582Z</time>
      </trkpt>
      <trkpt lat="44.37744" lon="5.24829">
        <ele>357</ele>
        <time>2021-11-13T15:30:06.582Z</time>
      </trkpt>
      <trkpt lat="44.37749" lon="5.24822">
        <ele>357</ele>
        <time>2021-11-13T15:30:07.582Z</time>
      </trkpt>
      <trkpt lat="44.37753" lon="5.24815">
        <ele>357</ele>
        <time>2021-11-13T15:30:08.582Z</time>
      </trkpt>
      <trkpt lat="44.37758" lon="5.24808">
        <ele>356</ele>
        <time>2021-11-13T15:30:09.582Z</time>
      </trkpt>
      <trkpt lat="44.37763" lon="5.24802">
        <ele>356</ele>
        <time>2021-11-13T15:30:10.581Z</time>
      </trkpt>
      <trkpt lat="44.37767" lon="5.24795">
        <ele>356</ele>
        <time>2021-11-13T15:30:11.582Z</time>
      </trkpt>
      <trkpt lat="44.37772" lon="5.24788">
        <ele>356</ele>
        <time>2021-11-13T15:30:12.582Z</time>
      </trkpt>
      <trkpt lat="44.37777" lon="5.24782">
        <ele>355</ele>
        <time>2021-11-13T15:30:13.582Z</time>
      </trkpt>
      <trkpt lat="44.37782" lon="5.24775">
        <ele>355</ele>
        <time>2021-11-13T15:30:14.582Z</time>
      </trkpt>
      <trkpt lat="44.37787" lon="5.24769">
        <ele>355</ele>
        <time>2021-11-13T15:30:15.582Z</time>
      </trkpt>
      <trkpt lat="44.37792" lon="5.24762">
        <ele>355</ele>
        <time>2021-11-13T15:30:16.582Z</time>
      </trkpt>
      <trkpt lat="44.37796" lon="5.24755">
        <ele>354</ele>
        <time>2021-11-13T15:30:17.582Z</time>
      </trkpt>
      <trkpt lat="44.37801" lon="5.24749">
        <ele>354</ele>
        <time>2021-11-13T15:30:18.582Z</time>
      </trkpt>
      <trkpt lat="44.37806" lon="5.24742">
        <ele>355</ele>
        <time>2021-11-13T15:30:19.582Z</time>
      </trkpt>
      <trkpt lat="44.37811" lon="5.24735">
        <ele>355</ele>
        <time>2021-11-13T15:30:20.581Z</time>
      </trkpt>
      <trkpt lat="44.37816" lon="5.24728">
        <ele>355</ele>
        <time>2021-11-13T15:30:21.582Z</time>
      </trkpt>
      <trkpt lat="44.37821" lon="5.24722">
        <ele>355</ele>
        <time>2021-11-13T15:30:22.582Z</time>
      </trkpt>
      <trkpt lat="44.37825" lon="5.24715">
        <ele>355</ele>
        <time>2021-11-13T15:30:23.582Z</time>
      </trkpt>
      <trkpt lat="44.3783" lon="5.24709">
        <ele>355</ele>
        <time>2021-11-13T15:30:24.582Z</time>
      </trkpt>
      <trkpt lat="44.37835" lon="5.24703">
        <ele>354</ele>
        <time>2021-11-13T15:30:25.581Z</time>
      </trkpt>
      <trkpt lat="44.3784" lon="5.24697">
        <ele>354</ele>
        <time>2021-11-13T15:30:26.582Z</time>
      </trkpt>
      <trkpt lat="44.37844" lon="5.24691">
        <ele>353</ele>
        <time>2021-11-13T15:30:27.582Z</time>
      </trkpt>
      <trkpt lat="44.37849" lon="5.24684">
        <ele>353</ele>
        <time>2021-11-13T15:30:28.581Z</time>
      </trkpt>
      <trkpt lat="44.37853" lon="5.24678">
        <ele>353</ele>
        <time>2021-11-13T15:30:29.581Z</time>
      </trkpt>
      <trkpt lat="44.37858" lon="5.24671">
        <ele>352</ele>
        <time>2021-11-13T15:30:30.582Z</time>
      </trkpt>
      <trkpt lat="44.37862" lon="5.24665">
        <ele>352</ele>
        <time>2021-11-13T15:30:31.582Z</time>
      </trkpt>
      <trkpt lat="44.37866" lon="5.24658">
        <ele>352</ele>
        <time>2021-11-13T15:30:32.581Z</time>
      </trkpt>
      <trkpt lat="44.3787" lon="5.24651">
        <ele>352</ele>
        <time>2021-11-13T15:30:33.581Z</time>
      </trkpt>
      <trkpt lat="44.37874" lon="5.24645">
        <ele>351</ele>
        <time>2021-11-13T15:30:34.582Z</time>
      </trkpt>
      <trkpt lat="44.37878" lon="5.24638">
        <ele>351</ele>
        <time>2021-11-13T15:30:35.582Z</time>
      </trkpt>
      <trkpt lat="44.37882" lon="5.24631">
        <ele>351</ele>
        <time>2021-11-13T15:30:36.582Z</time>
      </trkpt>
      <trkpt lat="44.37887" lon="5.24625">
        <ele>351</ele>
        <time>2021-11-13T15:30:37.582Z</time>
      </trkpt>
      <trkpt lat="44.37892" lon="5.24619">
        <ele>351</ele>
        <time>2021-11-13T15:30:38.582Z</time>
      </trkpt>
      <trkpt lat="44.37897" lon="5.24613">
        <ele>351</ele>
        <time>2021-11-13T15:30:39.582Z</time>
      </trkpt>
      <trkpt lat="44.37902" lon="5.24608">
        <ele>351</ele>
        <time>2021-11-13T15:30:40.582Z</time>
      </trkpt>
      <trkpt lat="44.37908" lon="5.24603">
        <ele>351</ele>
        <time>2021-11-13T15:30:41.581Z</time>
      </trkpt>
      <trkpt lat="44.37914" lon="5.24598">
        <ele>351</ele>
        <time>2021-11-13T15:30:42.582Z</time>
      </trkpt>
      <trkpt lat="44.37919" lon="5.24594">
        <ele>351</ele>
        <time>2021-11-13T15:30:43.582Z</time>
      </trkpt>
      <trkpt lat="44.37925" lon="5.2459">
        <ele>351</ele>
        <time>2021-11-13T15:30:44.582Z</time>
      </trkpt>
      <trkpt lat="44.37931" lon="5.24586">
        <ele>350</ele>
        <time>2021-11-13T15:30:51.676Z</time>
      </trkpt>
      <trkpt lat="44.37936" lon="5.24583">
        <ele>350</ele>
        <time>2021-11-13T15:30:52.675Z</time>
      </trkpt>
      <trkpt lat="44.37942" lon="5.2458">
        <ele>349</ele>
        <time>2021-11-13T15:30:53.676Z</time>
      </trkpt>
      <trkpt lat="44.37948" lon="5.24577">
        <ele>348</ele>
        <time>2021-11-13T15:30:54.676Z</time>
      </trkpt>
      <trkpt lat="44.37954" lon="5.24573">
        <ele>349</ele>
        <time>2021-11-13T15:30:55.676Z</time>
      </trkpt>
      <trkpt lat="44.3796" lon="5.2457">
        <ele>349</ele>
        <time>2021-11-13T15:30:56.676Z</time>
      </trkpt>
      <trkpt lat="44.37967" lon="5.24566">
        <ele>349</ele>
        <time>2021-11-13T15:32:22.824Z</time>
      </trkpt>
      <trkpt lat="44.37973" lon="5.24563">
        <ele>349</ele>
        <time>2021-11-13T15:32:23.823Z</time>
      </trkpt>
      <trkpt lat="44.37978" lon="5.24559">
        <ele>348</ele>
        <time>2021-11-13T15:32:24.824Z</time>
      </trkpt>
      <trkpt lat="44.37984" lon="5.24555">
        <ele>348</ele>
        <time>2021-11-13T15:32:25.824Z</time>
      </trkpt>
      <trkpt lat="44.3799" lon="5.24551">
        <ele>348</ele>
        <time>2021-11-13T15:32:26.824Z</time>
      </trkpt>
      <trkpt lat="44.37995" lon="5.24548">
        <ele>348</ele>
        <time>2021-11-13T15:32:27.823Z</time>
      </trkpt>
      <trkpt lat="44.38001" lon="5.24544">
        <ele>348</ele>
        <time>2021-11-13T15:32:28.823Z</time>
      </trkpt>
      <trkpt lat="44.38007" lon="5.2454">
        <ele>348</ele>
        <time>2021-11-13T15:32:29.824Z</time>
      </trkpt>
      <trkpt lat="44.38013" lon="5.24536">
        <ele>348</ele>
        <time>2021-11-13T15:32:30.824Z</time>
      </trkpt>
      <trkpt lat="44.38019" lon="5.24532">
        <ele>348</ele>
        <time>2021-11-13T15:32:31.824Z</time>
      </trkpt>
      <trkpt lat="44.38025" lon="5.24528">
        <ele>348</ele>
        <time>2021-11-13T15:32:32.823Z</time>
      </trkpt>
      <trkpt lat="44.3803" lon="5.24524">
        <ele>348</ele>
        <time>2021-11-13T15:32:33.824Z</time>
      </trkpt>
      <trkpt lat="44.38036" lon="5.2452">
        <ele>348</ele>
        <time>2021-11-13T15:32:34.824Z</time>
      </trkpt>
      <trkpt lat="44.38041" lon="5.24515">
        <ele>348</ele>
        <time>2021-11-13T15:32:35.824Z</time>
      </trkpt>
      <trkpt lat="44.38046" lon="5.2451">
        <ele>348</ele>
        <time>2021-11-13T15:32:36.824Z</time>
      </trkpt>
      <trkpt lat="44.38051" lon="5.24505">
        <ele>348</ele>
        <time>2021-11-13T15:32:37.824Z</time>
      </trkpt>
      <trkpt lat="44.38056" lon="5.24499">
        <ele>348</ele>
        <time>2021-11-13T15:32:38.823Z</time>
      </trkpt>
      <trkpt lat="44.38061" lon="5.24493">
        <ele>348</ele>
        <time>2021-11-13T15:32:39.823Z</time>
      </trkpt>
      <trkpt lat="44.38065" lon="5.24486">
        <ele>348</ele>
        <time>2021-11-13T15:32:40.823Z</time>
      </trkpt>
      <trkpt lat="44.38069" lon="5.24479">
        <ele>348</ele>
        <time>2021-11-13T15:32:41.824Z</time>
      </trkpt>
      <trkpt lat="44.38073" lon="5.24472">
        <ele>348</ele>
        <time>2021-11-13T15:32:42.824Z</time>
      </trkpt>
      <trkpt lat="44.38078" lon="5.24464">
        <ele>348</ele>
        <time>2021-11-13T15:32:43.823Z</time>
      </trkpt>
      <trkpt lat="44.38081" lon="5.24458">
        <ele>348</ele>
        <time>2021-11-13T15:32:44.824Z</time>
      </trkpt>
      <trkpt lat="44.38085" lon="5.24451">
        <ele>348</ele>
        <time>2021-11-13T15:32:45.824Z</time>
      </trkpt>
      <trkpt lat="44.38089" lon="5.24444">
        <ele>348</ele>
        <time>2021-11-13T15:32:46.823Z</time>
      </trkpt>
      <trkpt lat="44.38094" lon="5.24438">
        <ele>348</ele>
        <time>2021-11-13T15:32:47.823Z</time>
      </trkpt>
      <trkpt lat="44.38099" lon="5.24431">
        <ele>348</ele>
        <time>2021-11-13T15:32:48.823Z</time>
      </trkpt>
      <trkpt lat="44.38104" lon="5.24426">
        <ele>348</ele>
        <time>2021-11-13T15:32:49.823Z</time>
      </trkpt>
      <trkpt lat="44.38109" lon="5.24421">
        <ele>347</ele>
        <time>2021-11-13T15:32:50.824Z</time>
      </trkpt>
      <trkpt lat="44.38115" lon="5.24417">
        <ele>346</ele>
        <time>2021-11-13T15:32:51.823Z</time>
      </trkpt>
      <trkpt lat="44.38121" lon="5.24414">
        <ele>346</ele>
        <time>2021-11-13T15:32:52.824Z</time>
      </trkpt>
      <trkpt lat="44.38127" lon="5.24411">
        <ele>346</ele>
        <time>2021-11-13T15:32:53.824Z</time>
      </trkpt>
      <trkpt lat="44.38133" lon="5.24409">
        <ele>345</ele>
        <time>2021-11-13T15:32:54.824Z</time>
      </trkpt>
      <trkpt lat="44.3814" lon="5.24407">
        <ele>346</ele>
        <time>2021-11-13T15:32:55.824Z</time>
      </trkpt>
      <trkpt lat="44.38146" lon="5.24405">
        <ele>346</ele>
        <time>2021-11-13T15:32:56.824Z</time>
      </trkpt>
      <trkpt lat="44.38153" lon="5.24404">
        <ele>346</ele>
        <time>2021-11-13T15:32:57.824Z</time>
      </trkpt>
      <trkpt lat="44.3816" lon="5.24403">
        <ele>346</ele>
        <time>2021-11-13T15:32:58.824Z</time>
      </trkpt>
      <trkpt lat="44.38166" lon="5.24402">
        <ele>346</ele>
        <time>2021-11-13T15:32:59.824Z</time>
      </trkpt>
      <trkpt lat="44.38173" lon="5.244">
        <ele>346</ele>
        <time>2021-11-13T15:33:00.824Z</time>
      </trkpt>
      <trkpt lat="44.38179" lon="5.24399">
        <ele>347</ele>
        <time>2021-11-13T15:33:01.824Z</time>
      </trkpt>
      <trkpt lat="44.38185" lon="5.24398">
        <ele>347</ele>
        <time>2021-11-13T15:33:02.823Z</time>
      </trkpt>
      <trkpt lat="44.38192" lon="5.24397">
        <ele>347</ele>
        <time>2021-11-13T15:33:03.824Z</time>
      </trkpt>
      <trkpt lat="44.38198" lon="5.24396">
        <ele>346</ele>
        <time>2021-11-13T15:33:04.824Z</time>
      </trkpt>
      <trkpt lat="44.38205" lon="5.24395">
        <ele>346</ele>
        <time>2021-11-13T15:33:05.824Z</time>
      </trkpt>
      <trkpt lat="44.38211" lon="5.24393">
        <ele>346</ele>
        <time>2021-11-13T15:33:06.824Z</time>
      </trkpt>
      <trkpt lat="44.38218" lon="5.24392">
        <ele>346</ele>
        <time>2021-11-13T15:33:07.824Z</time>
      </trkpt>
      <trkpt lat="44.38225" lon="5.2439">
        <ele>346</ele>
        <time>2021-11-13T15:33:08.824Z</time>
      </trkpt>
      <trkpt lat="44.38231" lon="5.24387">
        <ele>346</ele>
        <time>2021-11-13T15:33:09.824Z</time>
      </trkpt>
      <trkpt lat="44.38238" lon="5.24385">
        <ele>346</ele>
        <time>2021-11-13T15:33:10.824Z</time>
      </trkpt>
      <trkpt lat="44.38244" lon="5.24382">
        <ele>346</ele>
        <time>2021-11-13T15:33:11.824Z</time>
      </trkpt>
      <trkpt lat="44.38251" lon="5.24379">
        <ele>346</ele>
        <time>2021-11-13T15:33:12.824Z</time>
      </trkpt>
      <trkpt lat="44.38257" lon="5.24377">
        <ele>346</ele>
        <time>2021-11-13T15:33:13.824Z</time>
      </trkpt>
      <trkpt lat="44.38264" lon="5.24374">
        <ele>346</ele>
        <time>2021-11-13T15:33:14.824Z</time>
      </trkpt>
      <trkpt lat="44.3827" lon="5.24371">
        <ele>346</ele>
        <time>2021-11-13T15:33:15.824Z</time>
      </trkpt>
      <trkpt lat="44.38277" lon="5.24368">
        <ele>346</ele>
        <time>2021-11-13T15:33:16.824Z</time>
      </trkpt>
      <trkpt lat="44.38283" lon="5.24364">
        <ele>346</ele>
        <time>2021-11-13T15:33:17.824Z</time>
      </trkpt>
      <trkpt lat="44.3829" lon="5.24361">
        <ele>346</ele>
        <time>2021-11-13T15:33:18.824Z</time>
      </trkpt>
      <trkpt lat="44.38296" lon="5.24358">
        <ele>346</ele>
        <time>2021-11-13T15:33:19.824Z</time>
      </trkpt>
      <trkpt lat="44.38303" lon="5.24355">
        <ele>346</ele>
        <time>2021-11-13T15:33:20.824Z</time>
      </trkpt>
      <trkpt lat="44.38309" lon="5.24352">
        <ele>346</ele>
        <time>2021-11-13T15:33:21.824Z</time>
      </trkpt>
      <trkpt lat="44.38316" lon="5.24349">
        <ele>346</ele>
        <time>2021-11-13T15:33:22.824Z</time>
      </trkpt>
      <trkpt lat="44.38323" lon="5.24345">
        <ele>345</ele>
        <time>2021-11-13T15:33:23.823Z</time>
      </trkpt>
      <trkpt lat="44.38329" lon="5.24341">
        <ele>346</ele>
        <time>2021-11-13T15:33:24.824Z</time>
      </trkpt>
      <trkpt lat="44.38336" lon="5.24337">
        <ele>346</ele>
        <time>2021-11-13T15:33:25.824Z</time>
      </trkpt>
      <trkpt lat="44.38342" lon="5.24333">
        <ele>346</ele>
        <time>2021-11-13T15:33:26.824Z</time>
      </trkpt>
      <trkpt lat="44.38348" lon="5.24329">
        <ele>346</ele>
        <time>2021-11-13T15:33:27.824Z</time>
      </trkpt>
      <trkpt lat="44.38354" lon="5.24324">
        <ele>346</ele>
        <time>2021-11-13T15:33:28.824Z</time>
      </trkpt>
      <trkpt lat="44.38359" lon="5.24318">
        <ele>346</ele>
        <time>2021-11-13T15:33:29.824Z</time>
      </trkpt>
      <trkpt lat="44.38364" lon="5.24312">
        <ele>346</ele>
        <time>2021-11-13T15:33:30.824Z</time>
      </trkpt>
      <trkpt lat="44.38369" lon="5.24306">
        <ele>346</ele>
        <time>2021-11-13T15:33:31.824Z</time>
      </trkpt>
      <trkpt lat="44.38374" lon="5.24301">
        <ele>346</ele>
        <time>2021-11-13T15:33:32.824Z</time>
      </trkpt>
      <trkpt lat="44.38379" lon="5.24295">
        <ele>346</ele>
        <time>2021-11-13T15:33:33.823Z</time>
      </trkpt>
      <trkpt lat="44.38384" lon="5.24289">
        <ele>346</ele>
        <time>2021-11-13T15:33:34.824Z</time>
      </trkpt>
      <trkpt lat="44.38389" lon="5.24283">
        <ele>346</ele>
        <time>2021-11-13T15:33:35.824Z</time>
      </trkpt>
      <trkpt lat="44.38394" lon="5.24278">
        <ele>346</ele>
        <time>2021-11-13T15:33:36.824Z</time>
      </trkpt>
      <trkpt lat="44.38399" lon="5.24272">
        <ele>345</ele>
        <time>2021-11-13T15:33:37.824Z</time>
      </trkpt>
      <trkpt lat="44.38404" lon="5.24267">
        <ele>345</ele>
        <time>2021-11-13T15:33:38.824Z</time>
      </trkpt>
      <trkpt lat="44.38409" lon="5.24261">
        <ele>345</ele>
        <time>2021-11-13T15:33:39.824Z</time>
      </trkpt>
      <trkpt lat="44.38414" lon="5.24256">
        <ele>345</ele>
        <time>2021-11-13T15:33:40.824Z</time>
      </trkpt>
      <trkpt lat="44.38419" lon="5.2425">
        <ele>345</ele>
        <time>2021-11-13T15:33:41.823Z</time>
      </trkpt>
      <trkpt lat="44.38424" lon="5.24245">
        <ele>345</ele>
        <time>2021-11-13T15:33:42.823Z</time>
      </trkpt>
      <trkpt lat="44.38429" lon="5.24239">
        <ele>345</ele>
        <time>2021-11-13T15:33:43.824Z</time>
      </trkpt>
      <trkpt lat="44.38433" lon="5.24234">
        <ele>345</ele>
        <time>2021-11-13T15:33:44.824Z</time>
      </trkpt>
      <trkpt lat="44.38438" lon="5.24229">
        <ele>345</ele>
        <time>2021-11-13T15:33:45.824Z</time>
      </trkpt>
      <trkpt lat="44.38442" lon="5.24224">
        <ele>346</ele>
        <time>2021-11-13T15:33:46.824Z</time>
      </trkpt>
      <trkpt lat="44.38446" lon="5.24219">
        <ele>346</ele>
        <time>2021-11-13T15:33:47.823Z</time>
      </trkpt>
      <trkpt lat="44.38451" lon="5.24213">
        <ele>347</ele>
        <time>2021-11-13T15:33:48.824Z</time>
      </trkpt>
      <trkpt lat="44.38455" lon="5.24206">
        <ele>347</ele>
        <time>2021-11-13T15:33:49.824Z</time>
      </trkpt>
      <trkpt lat="44.3846" lon="5.24201">
        <ele>347</ele>
        <time>2021-11-13T15:33:50.824Z</time>
      </trkpt>
      <trkpt lat="44.38464" lon="5.24195">
        <ele>348</ele>
        <time>2021-11-13T15:33:51.824Z</time>
      </trkpt>
      <trkpt lat="44.38468" lon="5.24189">
        <ele>348</ele>
        <time>2021-11-13T15:33:52.824Z</time>
      </trkpt>
      <trkpt lat="44.38473" lon="5.24182">
        <ele>349</ele>
        <time>2021-11-13T15:33:53.823Z</time>
      </trkpt>
      <trkpt lat="44.38477" lon="5.24176">
        <ele>349</ele>
        <time>2021-11-13T15:33:54.824Z</time>
      </trkpt>
      <trkpt lat="44.38482" lon="5.24171">
        <ele>349</ele>
        <time>2021-11-13T15:33:55.824Z</time>
      </trkpt>
      <trkpt lat="44.38486" lon="5.24165">
        <ele>349</ele>
        <time>2021-11-13T15:33:56.824Z</time>
      </trkpt>
      <trkpt lat="44.38491" lon="5.2416">
        <ele>348</ele>
        <time>2021-11-13T15:33:57.824Z</time>
      </trkpt>
      <trkpt lat="44.38495" lon="5.24154">
        <ele>348</ele>
        <time>2021-11-13T15:33:58.824Z</time>
      </trkpt>
      <trkpt lat="44.385" lon="5.24148">
        <ele>348</ele>
        <time>2021-11-13T15:33:59.824Z</time>
      </trkpt>
      <trkpt lat="44.38504" lon="5.24143">
        <ele>347</ele>
        <time>2021-11-13T15:34:00.824Z</time>
      </trkpt>
      <trkpt lat="44.38508" lon="5.24138">
        <ele>347</ele>
        <time>2021-11-13T15:34:01.824Z</time>
      </trkpt>
      <trkpt lat="44.38513" lon="5.24132">
        <ele>347</ele>
        <time>2021-11-13T15:34:02.824Z</time>
      </trkpt>
      <trkpt lat="44.38517" lon="5.24126">
        <ele>346</ele>
        <time>2021-11-13T15:34:03.823Z</time>
      </trkpt>
      <trkpt lat="44.38521" lon="5.24121">
        <ele>346</ele>
        <time>2021-11-13T15:34:04.824Z</time>
      </trkpt>
      <trkpt lat="44.38525" lon="5.24115">
        <ele>345</ele>
        <time>2021-11-13T15:34:05.824Z</time>
      </trkpt>
      <trkpt lat="44.3853" lon="5.2411">
        <ele>345</ele>
        <time>2021-11-13T15:34:06.824Z</time>
      </trkpt>
      <trkpt lat="44.38534" lon="5.24105">
        <ele>344</ele>
        <time>2021-11-13T15:34:07.823Z</time>
      </trkpt>
      <trkpt lat="44.38538" lon="5.241">
        <ele>344</ele>
        <time>2021-11-13T15:34:08.824Z</time>
      </trkpt>
      <trkpt lat="44.38542" lon="5.24095">
        <ele>343</ele>
        <time>2021-11-13T15:34:09.824Z</time>
      </trkpt>
      <trkpt lat="44.38547" lon="5.24089">
        <ele>343</ele>
        <time>2021-11-13T15:34:10.824Z</time>
      </trkpt>
      <trkpt lat="44.38551" lon="5.24084">
        <ele>342</ele>
        <time>2021-11-13T15:34:11.824Z</time>
      </trkpt>
      <trkpt lat="44.38554" lon="5.24078">
        <ele>342</ele>
        <time>2021-11-13T15:34:12.824Z</time>
      </trkpt>
      <trkpt lat="44.38558" lon="5.24072">
        <ele>342</ele>
        <time>2021-11-13T15:34:13.824Z</time>
      </trkpt>
      <trkpt lat="44.38562" lon="5.24066">
        <ele>343</ele>
        <time>2021-11-13T15:34:14.823Z</time>
      </trkpt>
      <trkpt lat="44.38566" lon="5.2406">
        <ele>343</ele>
        <time>2021-11-13T15:34:15.824Z</time>
      </trkpt>
      <trkpt lat="44.3857" lon="5.24054">
        <ele>343</ele>
        <time>2021-11-13T15:34:16.824Z</time>
      </trkpt>
      <trkpt lat="44.38573" lon="5.24048">
        <ele>343</ele>
        <time>2021-11-13T15:34:17.824Z</time>
      </trkpt>
      <trkpt lat="44.38577" lon="5.24042">
        <ele>343</ele>
        <time>2021-11-13T15:34:18.824Z</time>
      </trkpt>
      <trkpt lat="44.38581" lon="5.24036">
        <ele>343</ele>
        <time>2021-11-13T15:34:19.824Z</time>
      </trkpt>
      <trkpt lat="44.38584" lon="5.2403">
        <ele>343</ele>
        <time>2021-11-13T15:34:20.824Z</time>
      </trkpt>
      <trkpt lat="44.38588" lon="5.24024">
        <ele>343</ele>
        <time>2021-11-13T15:34:21.824Z</time>
      </trkpt>
      <trkpt lat="44.38591" lon="5.24018">
        <ele>343</ele>
        <time>2021-11-13T15:34:22.824Z</time>
      </trkpt>
      <trkpt lat="44.38595" lon="5.24012">
        <ele>343</ele>
        <time>2021-11-13T15:34:23.824Z</time>
      </trkpt>
      <trkpt lat="44.38598" lon="5.24006">
        <ele>343</ele>
        <time>2021-11-13T15:34:24.824Z</time>
      </trkpt>
      <trkpt lat="44.38602" lon="5.24">
        <ele>343</ele>
        <time>2021-11-13T15:34:25.824Z</time>
      </trkpt>
      <trkpt lat="44.38606" lon="5.23995">
        <ele>344</ele>
        <time>2021-11-13T15:34:26.824Z</time>
      </trkpt>
      <trkpt lat="44.38609" lon="5.23989">
        <ele>344</ele>
        <time>2021-11-13T15:34:27.824Z</time>
      </trkpt>
      <trkpt lat="44.38613" lon="5.23983">
        <ele>344</ele>
        <time>2021-11-13T15:34:28.824Z</time>
      </trkpt>
      <trkpt lat="44.38616" lon="5.23977">
        <ele>344</ele>
        <time>2021-11-13T15:34:29.824Z</time>
      </trkpt>
      <trkpt lat="44.3862" lon="5.23971">
        <ele>344</ele>
        <time>2021-11-13T15:34:30.823Z</time>
      </trkpt>
      <trkpt lat="44.38624" lon="5.23965">
        <ele>344</ele>
        <time>2021-11-13T15:34:31.824Z</time>
      </trkpt>
      <trkpt lat="44.38628" lon="5.2396">
        <ele>344</ele>
        <time>2021-11-13T15:34:32.823Z</time>
      </trkpt>
      <trkpt lat="44.38631" lon="5.23954">
        <ele>343</ele>
        <time>2021-11-13T15:34:33.823Z</time>
      </trkpt>
      <trkpt lat="44.38635" lon="5.23948">
        <ele>343</ele>
        <time>2021-11-13T15:34:34.824Z</time>
      </trkpt>
      <trkpt lat="44.38639" lon="5.23942">
        <ele>343</ele>
        <time>2021-11-13T15:34:35.823Z</time>
      </trkpt>
      <trkpt lat="44.38642" lon="5.23936">
        <ele>343</ele>
        <time>2021-11-13T15:34:36.824Z</time>
      </trkpt>
      <trkpt lat="44.38645" lon="5.2393">
        <ele>344</ele>
        <time>2021-11-13T15:34:37.824Z</time>
      </trkpt>
      <trkpt lat="44.38649" lon="5.23924">
        <ele>344</ele>
        <time>2021-11-13T15:34:38.824Z</time>
      </trkpt>
      <trkpt lat="44.38652" lon="5.23918">
        <ele>344</ele>
        <time>2021-11-13T15:34:39.824Z</time>
      </trkpt>
      <trkpt lat="44.38655" lon="5.23912">
        <ele>344</ele>
        <time>2021-11-13T15:34:40.823Z</time>
      </trkpt>
      <trkpt lat="44.38658" lon="5.23905">
        <ele>344</ele>
        <time>2021-11-13T15:34:41.824Z</time>
      </trkpt>
      <trkpt lat="44.3866" lon="5.23899">
        <ele>344</ele>
        <time>2021-11-13T15:34:42.824Z</time>
      </trkpt>
      <trkpt lat="44.38662" lon="5.23892">
        <ele>344</ele>
        <time>2021-11-13T15:34:43.824Z</time>
      </trkpt>
      <trkpt lat="44.38664" lon="5.23886">
        <ele>344</ele>
        <time>2021-11-13T15:34:44.824Z</time>
      </trkpt>
      <trkpt lat="44.38666" lon="5.23878">
        <ele>345</ele>
        <time>2021-11-13T15:34:45.824Z</time>
      </trkpt>
      <trkpt lat="44.38667" lon="5.23871">
        <ele>345</ele>
        <time>2021-11-13T15:34:46.824Z</time>
      </trkpt>
      <trkpt lat="44.38669" lon="5.23864">
        <ele>345</ele>
        <time>2021-11-13T15:34:47.824Z</time>
      </trkpt>
      <trkpt lat="44.3867" lon="5.23857">
        <ele>345</ele>
        <time>2021-11-13T15:34:48.823Z</time>
      </trkpt>
      <trkpt lat="44.38671" lon="5.2385">
        <ele>345</ele>
        <time>2021-11-13T15:34:49.824Z</time>
      </trkpt>
      <trkpt lat="44.38673" lon="5.23843">
        <ele>345</ele>
        <time>2021-11-13T15:34:50.824Z</time>
      </trkpt>
      <trkpt lat="44.38675" lon="5.23835">
        <ele>344</ele>
        <time>2021-11-13T15:34:51.824Z</time>
      </trkpt>
      <trkpt lat="44.38676" lon="5.23828">
        <ele>344</ele>
        <time>2021-11-13T15:34:52.823Z</time>
      </trkpt>
      <trkpt lat="44.38678" lon="5.23821">
        <ele>345</ele>
        <time>2021-11-13T15:34:53.823Z</time>
      </trkpt>
      <trkpt lat="44.3868" lon="5.23814">
        <ele>345</ele>
        <time>2021-11-13T15:34:54.824Z</time>
      </trkpt>
      <trkpt lat="44.38682" lon="5.23807">
        <ele>345</ele>
        <time>2021-11-13T15:34:55.823Z</time>
      </trkpt>
      <trkpt lat="44.38684" lon="5.23799">
        <ele>345</ele>
        <time>2021-11-13T15:34:56.824Z</time>
      </trkpt>
      <trkpt lat="44.38686" lon="5.23792">
        <ele>345</ele>
        <time>2021-11-13T15:34:57.823Z</time>
      </trkpt>
      <trkpt lat="44.38687" lon="5.23785">
        <ele>346</ele>
        <time>2021-11-13T15:34:58.824Z</time>
      </trkpt>
      <trkpt lat="44.38688" lon="5.23777">
        <ele>345</ele>
        <time>2021-11-13T15:34:59.824Z</time>
      </trkpt>
      <trkpt lat="44.38689" lon="5.23769">
        <ele>345</ele>
        <time>2021-11-13T15:35:00.824Z</time>
      </trkpt>
      <trkpt lat="44.38689" lon="5.23762">
        <ele>345</ele>
        <time>2021-11-13T15:35:01.823Z</time>
      </trkpt>
      <trkpt lat="44.3869" lon="5.23754">
        <ele>345</ele>
        <time>2021-11-13T15:35:02.824Z</time>
      </trkpt>
      <trkpt lat="44.38691" lon="5.23747">
        <ele>345</ele>
        <time>2021-11-13T15:35:03.824Z</time>
      </trkpt>
      <trkpt lat="44.38692" lon="5.23739">
        <ele>345</ele>
        <time>2021-11-13T15:35:04.823Z</time>
      </trkpt>
      <trkpt lat="44.38693" lon="5.23731">
        <ele>345</ele>
        <time>2021-11-13T15:35:05.824Z</time>
      </trkpt>
      <trkpt lat="44.38693" lon="5.23722">
        <ele>345</ele>
        <time>2021-11-13T15:35:06.823Z</time>
      </trkpt>
      <trkpt lat="44.38695" lon="5.23715">
        <ele>345</ele>
        <time>2021-11-13T15:35:07.824Z</time>
      </trkpt>
      <trkpt lat="44.38696" lon="5.23707">
        <ele>345</ele>
        <time>2021-11-13T15:35:08.824Z</time>
      </trkpt>
      <trkpt lat="44.38698" lon="5.23699">
        <ele>345</ele>
        <time>2021-11-13T15:35:09.823Z</time>
      </trkpt>
      <trkpt lat="44.38699" lon="5.23691">
        <ele>345</ele>
        <time>2021-11-13T15:35:10.824Z</time>
      </trkpt>
      <trkpt lat="44.38702" lon="5.23684">
        <ele>345</ele>
        <time>2021-11-13T15:35:11.824Z</time>
      </trkpt>
      <trkpt lat="44.38704" lon="5.23676">
        <ele>344</ele>
        <time>2021-11-13T15:35:12.824Z</time>
      </trkpt>
      <trkpt lat="44.38707" lon="5.23669">
        <ele>344</ele>
        <time>2021-11-13T15:35:13.823Z</time>
      </trkpt>
      <trkpt lat="44.3871" lon="5.23662">
        <ele>344</ele>
        <time>2021-11-13T15:35:14.824Z</time>
      </trkpt>
      <trkpt lat="44.38714" lon="5.23655">
        <ele>344</ele>
        <time>2021-11-13T15:35:15.824Z</time>
      </trkpt>
      <trkpt lat="44.38717" lon="5.23648">
        <ele>344</ele>
        <time>2021-11-13T15:35:16.824Z</time>
      </trkpt>
      <trkpt lat="44.38721" lon="5.2364">
        <ele>345</ele>
        <time>2021-11-13T15:35:17.824Z</time>
      </trkpt>
      <trkpt lat="44.38725" lon="5.23633">
        <ele>345</ele>
        <time>2021-11-13T15:35:18.824Z</time>
      </trkpt>
      <trkpt lat="44.3873" lon="5.23626">
        <ele>345</ele>
        <time>2021-11-13T15:35:19.824Z</time>
      </trkpt>
      <trkpt lat="44.38734" lon="5.23619">
        <ele>345</ele>
        <time>2021-11-13T15:35:20.823Z</time>
      </trkpt>
      <trkpt lat="44.38738" lon="5.23612">
        <ele>345</ele>
        <time>2021-11-13T15:35:21.823Z</time>
      </trkpt>
      <trkpt lat="44.38742" lon="5.23605">
        <ele>345</ele>
        <time>2021-11-13T15:35:22.824Z</time>
      </trkpt>
      <trkpt lat="44.38746" lon="5.23598">
        <ele>345</ele>
        <time>2021-11-13T15:35:23.824Z</time>
      </trkpt>
      <trkpt lat="44.38749" lon="5.2359">
        <ele>345</ele>
        <time>2021-11-13T15:35:24.823Z</time>
      </trkpt>
      <trkpt lat="44.38753" lon="5.23582">
        <ele>345</ele>
        <time>2021-11-13T15:35:25.824Z</time>
      </trkpt>
      <trkpt lat="44.38756" lon="5.23574">
        <ele>346</ele>
        <time>2021-11-13T15:35:26.824Z</time>
      </trkpt>
      <trkpt lat="44.38759" lon="5.23566">
        <ele>346</ele>
        <time>2021-11-13T15:35:27.824Z</time>
      </trkpt>
      <trkpt lat="44.38763" lon="5.23557">
        <ele>346</ele>
        <time>2021-11-13T15:35:28.824Z</time>
      </trkpt>
      <trkpt lat="44.38765" lon="5.23549">
        <ele>346</ele>
        <time>2021-11-13T15:35:29.824Z</time>
      </trkpt>
      <trkpt lat="44.38768" lon="5.2354">
        <ele>346</ele>
        <time>2021-11-13T15:35:30.824Z</time>
      </trkpt>
      <trkpt lat="44.38771" lon="5.23532">
        <ele>346</ele>
        <time>2021-11-13T15:35:31.824Z</time>
      </trkpt>
      <trkpt lat="44.38773" lon="5.23524">
        <ele>346</ele>
        <time>2021-11-13T15:35:32.824Z</time>
      </trkpt>
      <trkpt lat="44.38776" lon="5.23515">
        <ele>345</ele>
        <time>2021-11-13T15:35:33.823Z</time>
      </trkpt>
      <trkpt lat="44.38779" lon="5.23507">
        <ele>344</ele>
        <time>2021-11-13T15:35:34.824Z</time>
      </trkpt>
      <trkpt lat="44.38782" lon="5.23499">
        <ele>344</ele>
        <time>2021-11-13T15:35:35.823Z</time>
      </trkpt>
      <trkpt lat="44.38784" lon="5.2349">
        <ele>343</ele>
        <time>2021-11-13T15:35:36.823Z</time>
      </trkpt>
      <trkpt lat="44.38787" lon="5.23482">
        <ele>343</ele>
        <time>2021-11-13T15:35:37.824Z</time>
      </trkpt>
      <trkpt lat="44.3879" lon="5.23473">
        <ele>343</ele>
        <time>2021-11-13T15:35:38.823Z</time>
      </trkpt>
      <trkpt lat="44.38793" lon="5.23466">
        <ele>342</ele>
        <time>2021-11-13T15:35:39.824Z</time>
      </trkpt>
      <trkpt lat="44.38796" lon="5.23458">
        <ele>342</ele>
        <time>2021-11-13T15:35:40.824Z</time>
      </trkpt>
      <trkpt lat="44.38798" lon="5.23451">
        <ele>342</ele>
        <time>2021-11-13T15:35:41.823Z</time>
      </trkpt>
      <trkpt lat="44.38798" lon="5.23445">
        <ele>341</ele>
        <time>2021-11-13T15:35:42.823Z</time>
      </trkpt>
      <trkpt lat="44.38798" lon="5.23441">
        <ele>341</ele>
        <time>2021-11-13T15:35:43.824Z</time>
      </trkpt>
      <trkpt lat="44.38796" lon="5.23439">
        <ele>340</ele>
        <time>2021-11-13T15:35:44.824Z</time>
      </trkpt>
      <trkpt lat="44.38793" lon="5.2344">
        <ele>340</ele>
        <time>2021-11-13T15:35:45.823Z</time>
      </trkpt>
      <trkpt lat="44.3879" lon="5.23443">
        <ele>339</ele>
        <time>2021-11-13T15:35:46.823Z</time>
      </trkpt>
      <trkpt lat="44.38787" lon="5.23447">
        <ele>339</ele>
        <time>2021-11-13T15:35:47.823Z</time>
      </trkpt>
      <trkpt lat="44.38784" lon="5.23455">
        <ele>338</ele>
        <time>2021-11-13T15:35:48.823Z</time>
      </trkpt>
      <trkpt lat="44.3878" lon="5.23462">
        <ele>338</ele>
        <time>2021-11-13T15:35:49.823Z</time>
      </trkpt>
      <trkpt lat="44.38775" lon="5.23469">
        <ele>337</ele>
        <time>2021-11-13T15:35:50.823Z</time>
      </trkpt>
      <trkpt lat="44.3877" lon="5.23475">
        <ele>337</ele>
        <time>2021-11-13T15:35:51.824Z</time>
      </trkpt>
      <trkpt lat="44.38763" lon="5.2348">
        <ele>337</ele>
        <time>2021-11-13T15:35:52.824Z</time>
      </trkpt>
      <trkpt lat="44.38755" lon="5.23483">
        <ele>336</ele>
        <time>2021-11-13T15:35:53.823Z</time>
      </trkpt>
      <trkpt lat="44.38746" lon="5.23484">
        <ele>335</ele>
        <time>2021-11-13T15:35:54.824Z</time>
      </trkpt>
      <trkpt lat="44.38738" lon="5.23485">
        <ele>334</ele>
        <time>2021-11-13T15:35:55.823Z</time>
      </trkpt>
      <trkpt lat="44.38729" lon="5.23484">
        <ele>334</ele>
        <time>2021-11-13T15:35:56.824Z</time>
      </trkpt>
      <trkpt lat="44.38721" lon="5.23483">
        <ele>333</ele>
        <time>2021-11-13T15:35:57.823Z</time>
      </trkpt>
      <trkpt lat="44.38712" lon="5.23481">
        <ele>333</ele>
        <time>2021-11-13T15:35:58.824Z</time>
      </trkpt>
      <trkpt lat="44.38704" lon="5.2348">
        <ele>332</ele>
        <time>2021-11-13T15:35:59.824Z</time>
      </trkpt>
      <trkpt lat="44.38696" lon="5.23478">
        <ele>332</ele>
        <time>2021-11-13T15:36:00.824Z</time>
      </trkpt>
      <trkpt lat="44.38689" lon="5.23477">
        <ele>332</ele>
        <time>2021-11-13T15:36:01.824Z</time>
      </trkpt>
      <trkpt lat="44.38681" lon="5.23476">
        <ele>331</ele>
        <time>2021-11-13T15:36:02.823Z</time>
      </trkpt>
      <trkpt lat="44.38674" lon="5.23474">
        <ele>331</ele>
        <time>2021-11-13T15:36:03.823Z</time>
      </trkpt>
      <trkpt lat="44.38666" lon="5.23473">
        <ele>331</ele>
        <time>2021-11-13T15:36:04.824Z</time>
      </trkpt>
      <trkpt lat="44.38659" lon="5.23472">
        <ele>330</ele>
        <time>2021-11-13T15:36:05.824Z</time>
      </trkpt>
      <trkpt lat="44.38653" lon="5.2347">
        <ele>329</ele>
        <time>2021-11-13T15:36:06.823Z</time>
      </trkpt>
      <trkpt lat="44.38646" lon="5.23469">
        <ele>329</ele>
        <time>2021-11-13T15:36:07.823Z</time>
      </trkpt>
      <trkpt lat="44.3864" lon="5.23467">
        <ele>329</ele>
        <time>2021-11-13T15:36:08.824Z</time>
      </trkpt>
      <trkpt lat="44.38634" lon="5.23466">
        <ele>329</ele>
        <time>2021-11-13T15:36:09.824Z</time>
      </trkpt>
      <trkpt lat="44.38629" lon="5.23465">
        <ele>329</ele>
        <time>2021-11-13T15:36:10.824Z</time>
      </trkpt>
      <trkpt lat="44.38623" lon="5.23465">
        <ele>328</ele>
        <time>2021-11-13T15:36:11.823Z</time>
      </trkpt>
      <trkpt lat="44.38618" lon="5.23464">
        <ele>328</ele>
        <time>2021-11-13T15:36:12.824Z</time>
      </trkpt>
      <trkpt lat="44.38612" lon="5.23463">
        <ele>328</ele>
        <time>2021-11-13T15:36:13.824Z</time>
      </trkpt>
      <trkpt lat="44.38607" lon="5.23462">
        <ele>327</ele>
        <time>2021-11-13T15:36:14.823Z</time>
      </trkpt>
      <trkpt lat="44.38602" lon="5.23462">
        <ele>327</ele>
        <time>2021-11-13T15:36:15.824Z</time>
      </trkpt>
      <trkpt lat="44.38596" lon="5.23462">
        <ele>327</ele>
        <time>2021-11-13T15:36:16.823Z</time>
      </trkpt>
      <trkpt lat="44.38591" lon="5.23462">
        <ele>326</ele>
        <time>2021-11-13T15:36:17.824Z</time>
      </trkpt>
      <trkpt lat="44.38587" lon="5.23463">
        <ele>326</ele>
        <time>2021-11-13T15:36:18.823Z</time>
      </trkpt>
      <trkpt lat="44.38583" lon="5.23464">
        <ele>326</ele>
        <time>2021-11-13T15:36:19.824Z</time>
      </trkpt>
      <trkpt lat="44.38579" lon="5.23466">
        <ele>326</ele>
        <time>2021-11-13T15:36:20.824Z</time>
      </trkpt>
      <trkpt lat="44.38576" lon="5.23467">
        <ele>326</ele>
        <time>2021-11-13T15:36:21.824Z</time>
      </trkpt>
      <trkpt lat="44.38573" lon="5.23469">
        <ele>326</ele>
        <time>2021-11-13T15:36:22.824Z</time>
      </trkpt>
      <trkpt lat="44.3857" lon="5.2347">
        <ele>326</ele>
        <time>2021-11-13T15:36:23.823Z</time>
      </trkpt>
      <trkpt lat="44.38568" lon="5.23472">
        <ele>326</ele>
        <time>2021-11-13T15:36:24.823Z</time>
      </trkpt>
      <trkpt lat="44.38566" lon="5.23474">
        <ele>326</ele>
        <time>2021-11-13T15:36:25.824Z</time>
      </trkpt>
      <trkpt lat="44.38564" lon="5.23475">
        <ele>326</ele>
        <time>2021-11-13T15:36:26.824Z</time>
      </trkpt>
      <trkpt lat="44.38562" lon="5.23477">
        <ele>326</ele>
        <time>2021-11-13T15:36:27.824Z</time>
      </trkpt>
      <trkpt lat="44.3856" lon="5.23478">
        <ele>326</ele>
        <time>2021-11-13T15:36:28.824Z</time>
      </trkpt>
      <trkpt lat="44.38558" lon="5.2348">
        <ele>326</ele>
        <time>2021-11-13T15:36:29.824Z</time>
      </trkpt>
      <trkpt lat="44.38555" lon="5.23481">
        <ele>327</ele>
        <time>2021-11-13T15:36:30.824Z</time>
      </trkpt>
      <trkpt lat="44.38553" lon="5.23481">
        <ele>327</ele>
        <time>2021-11-13T15:36:31.824Z</time>
      </trkpt>
      <trkpt lat="44.38552" lon="5.23481">
        <ele>327</ele>
        <time>2021-11-13T15:36:32.823Z</time>
      </trkpt>
      <trkpt lat="44.3855" lon="5.2348">
        <ele>328</ele>
        <time>2021-11-13T15:36:33.824Z</time>
      </trkpt>
      <trkpt lat="44.38548" lon="5.23479">
        <ele>328</ele>
        <time>2021-11-13T15:36:34.824Z</time>
      </trkpt>
      <trkpt lat="44.38547" lon="5.23477">
        <ele>328</ele>
        <time>2021-11-13T15:36:35.824Z</time>
      </trkpt>
      <trkpt lat="44.38545" lon="5.23475">
        <ele>328</ele>
        <time>2021-11-13T15:36:36.824Z</time>
      </trkpt>
      <trkpt lat="44.38544" lon="5.23473">
        <ele>329</ele>
        <time>2021-11-13T15:36:37.824Z</time>
      </trkpt>
      <trkpt lat="44.38543" lon="5.23471">
        <ele>329</ele>
        <time>2021-11-13T15:36:38.823Z</time>
      </trkpt>
      <trkpt lat="44.38542" lon="5.23469">
        <ele>329</ele>
        <time>2021-11-13T15:36:39.823Z</time>
      </trkpt>
      <trkpt lat="44.38541" lon="5.23466">
        <ele>329</ele>
        <time>2021-11-13T15:36:40.823Z</time>
      </trkpt>
      <trkpt lat="44.38539" lon="5.23463">
        <ele>329</ele>
        <time>2021-11-13T15:36:41.824Z</time>
      </trkpt>
      <trkpt lat="44.38538" lon="5.2346">
        <ele>329</ele>
        <time>2021-11-13T15:36:42.823Z</time>
      </trkpt>
      <trkpt lat="44.38538" lon="5.23457">
        <ele>330</ele>
        <time>2021-11-13T15:36:43.823Z</time>
      </trkpt>
      <trkpt lat="44.38537" lon="5.23454">
        <ele>329</ele>
        <time>2021-11-13T15:36:44.824Z</time>
      </trkpt>
      <trkpt lat="44.38536" lon="5.23451">
        <ele>330</ele>
        <time>2021-11-13T15:36:45.824Z</time>
      </trkpt>
      <trkpt lat="44.38535" lon="5.23447">
        <ele>330</ele>
        <time>2021-11-13T15:36:46.824Z</time>
      </trkpt>
      <trkpt lat="44.38534" lon="5.23444">
        <ele>331</ele>
        <time>2021-11-13T15:36:47.823Z</time>
      </trkpt>
      <trkpt lat="44.38532" lon="5.23442">
        <ele>331</ele>
        <time>2021-11-13T15:36:48.823Z</time>
      </trkpt>
      <trkpt lat="44.38531" lon="5.2344">
        <ele>331</ele>
        <time>2021-11-13T15:36:49.824Z</time>
      </trkpt>
      <trkpt lat="44.38529" lon="5.23438">
        <ele>331</ele>
        <time>2021-11-13T15:36:50.824Z</time>
      </trkpt>
      <trkpt lat="44.38527" lon="5.23436">
        <ele>332</ele>
        <time>2021-11-13T15:36:51.823Z</time>
      </trkpt>
      <trkpt lat="44.38525" lon="5.23434">
        <ele>332</ele>
        <time>2021-11-13T15:36:52.823Z</time>
      </trkpt>
      <trkpt lat="44.38523" lon="5.23433">
        <ele>332</ele>
        <time>2021-11-13T15:36:53.823Z</time>
      </trkpt>
      <trkpt lat="44.38521" lon="5.23431">
        <ele>333</ele>
        <time>2021-11-13T15:36:54.824Z</time>
      </trkpt>
      <trkpt lat="44.38519" lon="5.2343">
        <ele>333</ele>
        <time>2021-11-13T15:36:55.824Z</time>
      </trkpt>
      <trkpt lat="44.38517" lon="5.23428">
        <ele>333</ele>
        <time>2021-11-13T15:36:56.824Z</time>
      </trkpt>
      <trkpt lat="44.38515" lon="5.23426">
        <ele>333</ele>
        <time>2021-11-13T15:36:57.824Z</time>
      </trkpt>
      <trkpt lat="44.38513" lon="5.23424">
        <ele>333</ele>
        <time>2021-11-13T15:36:58.824Z</time>
      </trkpt>
      <trkpt lat="44.38511" lon="5.23421">
        <ele>334</ele>
        <time>2021-11-13T15:36:59.824Z</time>
      </trkpt>
      <trkpt lat="44.38509" lon="5.2342">
        <ele>334</ele>
        <time>2021-11-13T15:37:00.824Z</time>
      </trkpt>
      <trkpt lat="44.38507" lon="5.23418">
        <ele>334</ele>
        <time>2021-11-13T15:37:01.824Z</time>
      </trkpt>
      <trkpt lat="44.38505" lon="5.23417">
        <ele>334</ele>
        <time>2021-11-13T15:37:02.824Z</time>
      </trkpt>
      <trkpt lat="44.38504" lon="5.23416">
        <ele>334</ele>
        <time>2021-11-13T15:37:03.824Z</time>
      </trkpt>
      <trkpt lat="44.38502" lon="5.23414">
        <ele>333</ele>
        <time>2021-11-13T15:37:04.824Z</time>
      </trkpt>
      <trkpt lat="44.385" lon="5.23412">
        <ele>333</ele>
        <time>2021-11-13T15:37:05.824Z</time>
      </trkpt>
      <trkpt lat="44.38498" lon="5.2341">
        <ele>333</ele>
        <time>2021-11-13T15:37:06.824Z</time>
      </trkpt>
      <trkpt lat="44.38496" lon="5.23408">
        <ele>333</ele>
        <time>2021-11-13T15:37:07.824Z</time>
      </trkpt>
      <trkpt lat="44.38494" lon="5.23406">
        <ele>333</ele>
        <time>2021-11-13T15:37:08.824Z</time>
      </trkpt>
      <trkpt lat="44.38493" lon="5.23404">
        <ele>333</ele>
        <time>2021-11-13T15:37:09.824Z</time>
      </trkpt>
      <trkpt lat="44.38491" lon="5.23401">
        <ele>334</ele>
        <time>2021-11-13T15:37:10.824Z</time>
      </trkpt>
      <trkpt lat="44.38489" lon="5.23399">
        <ele>334</ele>
        <time>2021-11-13T15:37:11.824Z</time>
      </trkpt>
      <trkpt lat="44.38488" lon="5.23396">
        <ele>334</ele>
        <time>2021-11-13T15:37:12.824Z</time>
      </trkpt>
      <trkpt lat="44.38486" lon="5.23393">
        <ele>334</ele>
        <time>2021-11-13T15:37:13.823Z</time>
      </trkpt>
      <trkpt lat="44.38485" lon="5.2339">
        <ele>334</ele>
        <time>2021-11-13T15:37:14.824Z</time>
      </trkpt>
      <trkpt lat="44.38483" lon="5.23387">
        <ele>334</ele>
        <time>2021-11-13T15:37:15.824Z</time>
      </trkpt>
      <trkpt lat="44.38481" lon="5.23383">
        <ele>333</ele>
        <time>2021-11-13T15:37:16.824Z</time>
      </trkpt>
      <trkpt lat="44.38479" lon="5.2338">
        <ele>333</ele>
        <time>2021-11-13T15:37:17.823Z</time>
      </trkpt>
      <trkpt lat="44.38477" lon="5.23377">
        <ele>333</ele>
        <time>2021-11-13T15:37:18.824Z</time>
      </trkpt>
      <trkpt lat="44.38474" lon="5.23374">
        <ele>333</ele>
        <time>2021-11-13T15:37:19.824Z</time>
      </trkpt>
      <trkpt lat="44.38472" lon="5.23371">
        <ele>333</ele>
        <time>2021-11-13T15:37:20.824Z</time>
      </trkpt>
      <trkpt lat="44.3847" lon="5.23368">
        <ele>333</ele>
        <time>2021-11-13T15:37:21.824Z</time>
      </trkpt>
      <trkpt lat="44.38467" lon="5.23365">
        <ele>334</ele>
        <time>2021-11-13T15:37:22.824Z</time>
      </trkpt>
      <trkpt lat="44.38465" lon="5.23362">
        <ele>334</ele>
        <time>2021-11-13T15:37:23.824Z</time>
      </trkpt>
      <trkpt lat="44.38463" lon="5.23359">
        <ele>334</ele>
        <time>2021-11-13T15:37:24.824Z</time>
      </trkpt>
      <trkpt lat="44.3846" lon="5.23356">
        <ele>334</ele>
        <time>2021-11-13T15:37:25.824Z</time>
      </trkpt>
      <trkpt lat="44.38458" lon="5.23353">
        <ele>334</ele>
        <time>2021-11-13T15:37:26.824Z</time>
      </trkpt>
      <trkpt lat="44.38455" lon="5.23351">
        <ele>334</ele>
        <time>2021-11-13T15:37:27.824Z</time>
      </trkpt>
      <trkpt lat="44.38453" lon="5.23348">
        <ele>335</ele>
        <time>2021-11-13T15:37:28.823Z</time>
      </trkpt>
      <trkpt lat="44.3845" lon="5.23345">
        <ele>335</ele>
        <time>2021-11-13T15:37:29.824Z</time>
      </trkpt>
      <trkpt lat="44.38448" lon="5.23342">
        <ele>335</ele>
        <time>2021-11-13T15:37:30.824Z</time>
      </trkpt>
      <trkpt lat="44.38445" lon="5.2334">
        <ele>335</ele>
        <time>2021-11-13T15:37:31.824Z</time>
      </trkpt>
      <trkpt lat="44.38443" lon="5.23337">
        <ele>335</ele>
        <time>2021-11-13T15:37:32.824Z</time>
      </trkpt>
      <trkpt lat="44.3844" lon="5.23334">
        <ele>335</ele>
        <time>2021-11-13T15:37:33.824Z</time>
      </trkpt>
      <trkpt lat="44.38438" lon="5.23332">
        <ele>336</ele>
        <time>2021-11-13T15:37:34.824Z</time>
      </trkpt>
      <trkpt lat="44.38436" lon="5.2333">
        <ele>336</ele>
        <time>2021-11-13T15:37:35.824Z</time>
      </trkpt>
      <trkpt lat="44.38433" lon="5.23327">
        <ele>336</ele>
        <time>2021-11-13T15:37:36.824Z</time>
      </trkpt>
      <trkpt lat="44.38431" lon="5.23325">
        <ele>337</ele>
        <time>2021-11-13T15:37:37.824Z</time>
      </trkpt>
      <trkpt lat="44.38429" lon="5.23323">
        <ele>337</ele>
        <time>2021-11-13T15:37:38.824Z</time>
      </trkpt>
      <trkpt lat="44.38427" lon="5.2332">
        <ele>337</ele>
        <time>2021-11-13T15:37:39.824Z</time>
      </trkpt>
      <trkpt lat="44.38425" lon="5.23318">
        <ele>337</ele>
        <time>2021-11-13T15:37:40.823Z</time>
      </trkpt>
      <trkpt lat="44.38423" lon="5.23315">
        <ele>337</ele>
        <time>2021-11-13T15:37:41.823Z</time>
      </trkpt>
      <trkpt lat="44.38422" lon="5.23312">
        <ele>337</ele>
        <time>2021-11-13T15:37:42.824Z</time>
      </trkpt>
      <trkpt lat="44.3842" lon="5.23309">
        <ele>337</ele>
        <time>2021-11-13T15:37:43.824Z</time>
      </trkpt>
      <trkpt lat="44.38418" lon="5.23306">
        <ele>337</ele>
        <time>2021-11-13T15:37:44.824Z</time>
      </trkpt>
      <trkpt lat="44.38417" lon="5.23303">
        <ele>337</ele>
        <time>2021-11-13T15:37:45.823Z</time>
      </trkpt>
      <trkpt lat="44.38415" lon="5.233">
        <ele>336</ele>
        <time>2021-11-13T15:37:46.824Z</time>
      </trkpt>
      <trkpt lat="44.38413" lon="5.23297">
        <ele>336</ele>
        <time>2021-11-13T15:37:47.824Z</time>
      </trkpt>
      <trkpt lat="44.38411" lon="5.23293">
        <ele>336</ele>
        <time>2021-11-13T15:37:48.824Z</time>
      </trkpt>
      <trkpt lat="44.3841" lon="5.2329">
        <ele>336</ele>
        <time>2021-11-13T15:37:49.824Z</time>
      </trkpt>
      <trkpt lat="44.38408" lon="5.23286">
        <ele>336</ele>
        <time>2021-11-13T15:37:50.824Z</time>
      </trkpt>
      <trkpt lat="44.38406" lon="5.23283">
        <ele>336</ele>
        <time>2021-11-13T15:37:51.823Z</time>
      </trkpt>
      <trkpt lat="44.38404" lon="5.23279">
        <ele>336</ele>
        <time>2021-11-13T15:37:52.824Z</time>
      </trkpt>
      <trkpt lat="44.38402" lon="5.23275">
        <ele>336</ele>
        <time>2021-11-13T15:37:53.824Z</time>
      </trkpt>
      <trkpt lat="44.384" lon="5.23271">
        <ele>336</ele>
        <time>2021-11-13T15:37:54.823Z</time>
      </trkpt>
      <trkpt lat="44.38397" lon="5.23267">
        <ele>336</ele>
        <time>2021-11-13T15:37:55.824Z</time>
      </trkpt>
      <trkpt lat="44.38395" lon="5.23262">
        <ele>336</ele>
        <time>2021-11-13T15:37:56.824Z</time>
      </trkpt>
      <trkpt lat="44.38393" lon="5.23258">
        <ele>336</ele>
        <time>2021-11-13T15:37:57.824Z</time>
      </trkpt>
      <trkpt lat="44.38391" lon="5.23254">
        <ele>335</ele>
        <time>2021-11-13T15:37:58.824Z</time>
      </trkpt>
      <trkpt lat="44.38389" lon="5.23249">
        <ele>335</ele>
        <time>2021-11-13T15:37:59.824Z</time>
      </trkpt>
      <trkpt lat="44.38387" lon="5.23244">
        <ele>335</ele>
        <time>2021-11-13T15:38:00.824Z</time>
      </trkpt>
      <trkpt lat="44.38385" lon="5.23239">
        <ele>335</ele>
        <time>2021-11-13T15:38:01.824Z</time>
      </trkpt>
      <trkpt lat="44.38383" lon="5.23234">
        <ele>335</ele>
        <time>2021-11-13T15:38:02.824Z</time>
      </trkpt>
      <trkpt lat="44.3838" lon="5.23229">
        <ele>335</ele>
        <time>2021-11-13T15:38:03.823Z</time>
      </trkpt>
      <trkpt lat="44.38378" lon="5.23224">
        <ele>335</ele>
        <time>2021-11-13T15:38:04.824Z</time>
      </trkpt>
      <trkpt lat="44.38376" lon="5.23219">
        <ele>335</ele>
        <time>2021-11-13T15:38:05.823Z</time>
      </trkpt>
      <trkpt lat="44.38374" lon="5.23214">
        <ele>334</ele>
        <time>2021-11-13T15:38:06.823Z</time>
      </trkpt>
      <trkpt lat="44.38372" lon="5.23209">
        <ele>334</ele>
        <time>2021-11-13T15:38:07.824Z</time>
      </trkpt>
      <trkpt lat="44.3837" lon="5.23204">
        <ele>335</ele>
        <time>2021-11-13T15:38:11.977Z</time>
      </trkpt>
      <trkpt lat="44.38368" lon="5.23199">
        <ele>334</ele>
        <time>2021-11-13T15:38:12.977Z</time>
      </trkpt>
      <trkpt lat="44.38366" lon="5.23194">
        <ele>334</ele>
        <time>2021-11-13T15:38:13.977Z</time>
      </trkpt>
      <trkpt lat="44.38364" lon="5.23189">
        <ele>334</ele>
        <time>2021-11-13T15:38:14.977Z</time>
      </trkpt>
      <trkpt lat="44.38361" lon="5.23184">
        <ele>334</ele>
        <time>2021-11-13T15:38:15.977Z</time>
      </trkpt>
      <trkpt lat="44.38359" lon="5.23179">
        <ele>334</ele>
        <time>2021-11-13T15:38:16.977Z</time>
      </trkpt>
      <trkpt lat="44.38357" lon="5.23174">
        <ele>334</ele>
        <time>2021-11-13T15:38:17.976Z</time>
      </trkpt>
      <trkpt lat="44.38355" lon="5.23169">
        <ele>334</ele>
        <time>2021-11-13T15:38:18.977Z</time>
      </trkpt>
      <trkpt lat="44.38352" lon="5.23163">
        <ele>334</ele>
        <time>2021-11-13T15:38:19.977Z</time>
      </trkpt>
      <trkpt lat="44.3835" lon="5.23157">
        <ele>333</ele>
        <time>2021-11-13T15:38:20.977Z</time>
      </trkpt>
      <trkpt lat="44.38347" lon="5.2315">
        <ele>333</ele>
        <time>2021-11-13T15:38:21.977Z</time>
      </trkpt>
      <trkpt lat="44.38344" lon="5.23143">
        <ele>333</ele>
        <time>2021-11-13T15:38:22.977Z</time>
      </trkpt>
      <trkpt lat="44.38341" lon="5.23136">
        <ele>333</ele>
        <time>2021-11-13T15:38:23.977Z</time>
      </trkpt>
      <trkpt lat="44.38338" lon="5.23129">
        <ele>333</ele>
        <time>2021-11-13T15:38:24.977Z</time>
      </trkpt>
      <trkpt lat="44.38336" lon="5.23123">
        <ele>332</ele>
        <time>2021-11-13T15:38:42.076Z</time>
      </trkpt>
      <trkpt lat="44.38333" lon="5.23116">
        <ele>332</ele>
        <time>2021-11-13T15:38:43.076Z</time>
      </trkpt>
      <trkpt lat="44.3833" lon="5.2311">
        <ele>332</ele>
        <time>2021-11-13T15:38:44.075Z</time>
      </trkpt>
      <trkpt lat="44.38327" lon="5.23103">
        <ele>331</ele>
        <time>2021-11-13T15:38:45.076Z</time>
      </trkpt>
      <trkpt lat="44.38324" lon="5.23096">
        <ele>331</ele>
        <time>2021-11-13T15:38:46.076Z</time>
      </trkpt>
      <trkpt lat="44.3832" lon="5.2309">
        <ele>331</ele>
        <time>2021-11-13T15:38:47.075Z</time>
      </trkpt>
      <trkpt lat="44.38317" lon="5.23084">
        <ele>330</ele>
        <time>2021-11-13T15:38:48.075Z</time>
      </trkpt>
      <trkpt lat="44.38314" lon="5.23078">
        <ele>330</ele>
        <time>2021-11-13T15:38:49.076Z</time>
      </trkpt>
      <trkpt lat="44.38311" lon="5.23071">
        <ele>329</ele>
        <time>2021-11-13T15:38:53.078Z</time>
      </trkpt>
      <trkpt lat="44.38309" lon="5.23065">
        <ele>328</ele>
        <time>2021-11-13T15:38:54.078Z</time>
      </trkpt>
      <trkpt lat="44.38306" lon="5.23058">
        <ele>328</ele>
        <time>2021-11-13T15:38:55.077Z</time>
      </trkpt>
      <trkpt lat="44.38303" lon="5.23052">
        <ele>327</ele>
        <time>2021-11-13T15:38:56.077Z</time>
      </trkpt>
      <trkpt lat="44.383" lon="5.23045">
        <ele>327</ele>
        <time>2021-11-13T15:38:57.077Z</time>
      </trkpt>
      <trkpt lat="44.38298" lon="5.23038">
        <ele>327</ele>
        <time>2021-11-13T15:38:58.078Z</time>
      </trkpt>
      <trkpt lat="44.38296" lon="5.23031">
        <ele>327</ele>
        <time>2021-11-13T15:38:59.077Z</time>
      </trkpt>
      <trkpt lat="44.38294" lon="5.23023">
        <ele>327</ele>
        <time>2021-11-13T15:39:00.077Z</time>
      </trkpt>
      <trkpt lat="44.38293" lon="5.23016">
        <ele>328</ele>
        <time>2021-11-13T15:39:01.078Z</time>
      </trkpt>
      <trkpt lat="44.38292" lon="5.23008">
        <ele>328</ele>
        <time>2021-11-13T15:39:02.078Z</time>
      </trkpt>
      <trkpt lat="44.38291" lon="5.23001">
        <ele>328</ele>
        <time>2021-11-13T15:39:03.078Z</time>
      </trkpt>
      <trkpt lat="44.38289" lon="5.22993">
        <ele>329</ele>
        <time>2021-11-13T15:39:04.078Z</time>
      </trkpt>
      <trkpt lat="44.38288" lon="5.22985">
        <ele>329</ele>
        <time>2021-11-13T15:39:05.077Z</time>
      </trkpt>
      <trkpt lat="44.38288" lon="5.22978">
        <ele>330</ele>
        <time>2021-11-13T15:39:06.078Z</time>
      </trkpt>
      <trkpt lat="44.38287" lon="5.22969">
        <ele>330</ele>
        <time>2021-11-13T15:39:07.078Z</time>
      </trkpt>
      <trkpt lat="44.38286" lon="5.22962">
        <ele>330</ele>
        <time>2021-11-13T15:39:08.078Z</time>
      </trkpt>
      <trkpt lat="44.38286" lon="5.22954">
        <ele>331</ele>
        <time>2021-11-13T15:39:09.078Z</time>
      </trkpt>
      <trkpt lat="44.38286" lon="5.22946">
        <ele>331</ele>
        <time>2021-11-13T15:39:10.077Z</time>
      </trkpt>
      <trkpt lat="44.38286" lon="5.22938">
        <ele>332</ele>
        <time>2021-11-13T15:39:11.077Z</time>
      </trkpt>
      <trkpt lat="44.38285" lon="5.22931">
        <ele>332</ele>
        <time>2021-11-13T15:39:12.077Z</time>
      </trkpt>
      <trkpt lat="44.38285" lon="5.22923">
        <ele>332</ele>
        <time>2021-11-13T15:39:13.078Z</time>
      </trkpt>
      <trkpt lat="44.38285" lon="5.22915">
        <ele>332</ele>
        <time>2021-11-13T15:39:14.078Z</time>
      </trkpt>
      <trkpt lat="44.38285" lon="5.22907">
        <ele>333</ele>
        <time>2021-11-13T15:39:15.078Z</time>
      </trkpt>
      <trkpt lat="44.38285" lon="5.22899">
        <ele>333</ele>
        <time>2021-11-13T15:39:23.179Z</time>
      </trkpt>
      <trkpt lat="44.38285" lon="5.22891">
        <ele>333</ele>
        <time>2021-11-13T15:39:26.042Z</time>
      </trkpt>
      <trkpt lat="44.38284" lon="5.22884">
        <ele>333</ele>
        <time>2021-11-13T15:39:27.042Z</time>
      </trkpt>
      <trkpt lat="44.38284" lon="5.22875">
        <ele>333</ele>
        <time>2021-11-13T15:39:28.042Z</time>
      </trkpt>
      <trkpt lat="44.38284" lon="5.22867">
        <ele>332</ele>
        <time>2021-11-13T15:39:29.042Z</time>
      </trkpt>
      <trkpt lat="44.38284" lon="5.22859">
        <ele>332</ele>
        <time>2021-11-13T15:39:30.042Z</time>
      </trkpt>
      <trkpt lat="44.38284" lon="5.2285">
        <ele>332</ele>
        <time>2021-11-13T15:39:31.042Z</time>
      </trkpt>
      <trkpt lat="44.38284" lon="5.22842">
        <ele>332</ele>
        <time>2021-11-13T15:39:32.042Z</time>
      </trkpt>
      <trkpt lat="44.38284" lon="5.22832">
        <ele>332</ele>
        <time>2021-11-13T15:39:33.042Z</time>
      </trkpt>
      <trkpt lat="44.38284" lon="5.22823">
        <ele>332</ele>
        <time>2021-11-13T15:39:34.042Z</time>
      </trkpt>
      <trkpt lat="44.38285" lon="5.22814">
        <ele>333</ele>
        <time>2021-11-13T15:39:35.042Z</time>
      </trkpt>
      <trkpt lat="44.38285" lon="5.22805">
        <ele>333</ele>
        <time>2021-11-13T15:39:36.042Z</time>
      </trkpt>
      <trkpt lat="44.38285" lon="5.22796">
        <ele>333</ele>
        <time>2021-11-13T15:39:37.042Z</time>
      </trkpt>
      <trkpt lat="44.38285" lon="5.22787">
        <ele>333</ele>
        <time>2021-11-13T15:39:38.042Z</time>
      </trkpt>
      <trkpt lat="44.38286" lon="5.22777">
        <ele>333</ele>
        <time>2021-11-13T15:39:39.041Z</time>
      </trkpt>
      <trkpt lat="44.38286" lon="5.22768">
        <ele>333</ele>
        <time>2021-11-13T15:39:40.042Z</time>
      </trkpt>
      <trkpt lat="44.38286" lon="5.22759">
        <ele>333</ele>
        <time>2021-11-13T15:39:41.042Z</time>
      </trkpt>
      <trkpt lat="44.38286" lon="5.2275">
        <ele>333</ele>
        <time>2021-11-13T15:39:42.042Z</time>
      </trkpt>
      <trkpt lat="44.38286" lon="5.22741">
        <ele>333</ele>
        <time>2021-11-13T15:39:43.042Z</time>
      </trkpt>
      <trkpt lat="44.38286" lon="5.22732">
        <ele>333</ele>
        <time>2021-11-13T15:39:44.041Z</time>
      </trkpt>
      <trkpt lat="44.38286" lon="5.22724">
        <ele>332</ele>
        <time>2021-11-13T15:39:45.041Z</time>
      </trkpt>
      <trkpt lat="44.38286" lon="5.22715">
        <ele>332</ele>
        <time>2021-11-13T15:39:46.042Z</time>
      </trkpt>
      <trkpt lat="44.38286" lon="5.22706">
        <ele>332</ele>
        <time>2021-11-13T15:39:47.041Z</time>
      </trkpt>
      <trkpt lat="44.38285" lon="5.22697">
        <ele>331</ele>
        <time>2021-11-13T15:39:48.042Z</time>
      </trkpt>
      <trkpt lat="44.38285" lon="5.22689">
        <ele>331</ele>
        <time>2021-11-13T15:39:49.042Z</time>
      </trkpt>
      <trkpt lat="44.38284" lon="5.2268">
        <ele>331</ele>
        <time>2021-11-13T15:39:50.041Z</time>
      </trkpt>
      <trkpt lat="44.38284" lon="5.22671">
        <ele>331</ele>
        <time>2021-11-13T15:39:51.041Z</time>
      </trkpt>
      <trkpt lat="44.38283" lon="5.22662">
        <ele>331</ele>
        <time>2021-11-13T15:39:52.042Z</time>
      </trkpt>
      <trkpt lat="44.38282" lon="5.22654">
        <ele>331</ele>
        <time>2021-11-13T15:39:53.042Z</time>
      </trkpt>
      <trkpt lat="44.38281" lon="5.22645">
        <ele>331</ele>
        <time>2021-11-13T15:39:54.042Z</time>
      </trkpt>
      <trkpt lat="44.3828" lon="5.22637">
        <ele>331</ele>
        <time>2021-11-13T15:39:55.042Z</time>
      </trkpt>
      <trkpt lat="44.3828" lon="5.22628">
        <ele>331</ele>
        <time>2021-11-13T15:39:56.042Z</time>
      </trkpt>
      <trkpt lat="44.38279" lon="5.2262">
        <ele>332</ele>
        <time>2021-11-13T15:40:04.179Z</time>
      </trkpt>
      <trkpt lat="44.38278" lon="5.22611">
        <ele>332</ele>
        <time>2021-11-13T15:40:05.179Z</time>
      </trkpt>
      <trkpt lat="44.38277" lon="5.22603">
        <ele>332</ele>
        <time>2021-11-13T15:40:09.073Z</time>
      </trkpt>
      <trkpt lat="44.38276" lon="5.22595">
        <ele>332</ele>
        <time>2021-11-13T15:40:10.073Z</time>
      </trkpt>
      <trkpt lat="44.38276" lon="5.22586">
        <ele>332</ele>
        <time>2021-11-13T15:40:11.073Z</time>
      </trkpt>
      <trkpt lat="44.38275" lon="5.22578">
        <ele>332</ele>
        <time>2021-11-13T15:40:12.073Z</time>
      </trkpt>
      <trkpt lat="44.38274" lon="5.22569">
        <ele>332</ele>
        <time>2021-11-13T15:40:13.073Z</time>
      </trkpt>
      <trkpt lat="44.38273" lon="5.22561">
        <ele>332</ele>
        <time>2021-11-13T15:40:14.073Z</time>
      </trkpt>
      <trkpt lat="44.38273" lon="5.22552">
        <ele>332</ele>
        <time>2021-11-13T15:40:15.073Z</time>
      </trkpt>
      <trkpt lat="44.38272" lon="5.22544">
        <ele>332</ele>
        <time>2021-11-13T15:40:16.073Z</time>
      </trkpt>
      <trkpt lat="44.38272" lon="5.22536">
        <ele>331</ele>
        <time>2021-11-13T15:40:17.072Z</time>
      </trkpt>
      <trkpt lat="44.38271" lon="5.22528">
        <ele>331</ele>
        <time>2021-11-13T15:40:18.073Z</time>
      </trkpt>
      <trkpt lat="44.3827" lon="5.22521">
        <ele>330</ele>
        <time>2021-11-13T15:40:19.073Z</time>
      </trkpt>
      <trkpt lat="44.38268" lon="5.22513">
        <ele>330</ele>
        <time>2021-11-13T15:40:20.072Z</time>
      </trkpt>
      <trkpt lat="44.38267" lon="5.22507">
        <ele>330</ele>
        <time>2021-11-13T15:40:21.072Z</time>
      </trkpt>
      <trkpt lat="44.38266" lon="5.225">
        <ele>330</ele>
        <time>2021-11-13T15:40:22.073Z</time>
      </trkpt>
      <trkpt lat="44.38264" lon="5.22494">
        <ele>329</ele>
        <time>2021-11-13T15:40:23.073Z</time>
      </trkpt>
      <trkpt lat="44.38263" lon="5.22487">
        <ele>329</ele>
        <time>2021-11-13T15:40:24.072Z</time>
      </trkpt>
      <trkpt lat="44.38261" lon="5.22481">
        <ele>329</ele>
        <time>2021-11-13T15:40:25.072Z</time>
      </trkpt>
      <trkpt lat="44.38259" lon="5.22475">
        <ele>328</ele>
        <time>2021-11-13T15:40:26.072Z</time>
      </trkpt>
      <trkpt lat="44.38257" lon="5.22468">
        <ele>328</ele>
        <time>2021-11-13T15:40:27.073Z</time>
      </trkpt>
      <trkpt lat="44.38255" lon="5.22462">
        <ele>328</ele>
        <time>2021-11-13T15:40:28.073Z</time>
      </trkpt>
      <trkpt lat="44.38253" lon="5.22455">
        <ele>328</ele>
        <time>2021-11-13T15:40:29.072Z</time>
      </trkpt>
      <trkpt lat="44.38252" lon="5.22448">
        <ele>327</ele>
        <time>2021-11-13T15:40:30.073Z</time>
      </trkpt>
      <trkpt lat="44.38251" lon="5.22441">
        <ele>327</ele>
        <time>2021-11-13T15:40:31.073Z</time>
      </trkpt>
      <trkpt lat="44.38249" lon="5.22434">
        <ele>327</ele>
        <time>2021-11-13T15:40:32.073Z</time>
      </trkpt>
      <trkpt lat="44.38248" lon="5.22428">
        <ele>327</ele>
        <time>2021-11-13T15:40:33.073Z</time>
      </trkpt>
      <trkpt lat="44.38247" lon="5.22421">
        <ele>327</ele>
        <time>2021-11-13T15:40:34.073Z</time>
      </trkpt>
      <trkpt lat="44.38246" lon="5.22414">
        <ele>327</ele>
        <time>2021-11-13T15:40:35.073Z</time>
      </trkpt>
      <trkpt lat="44.38244" lon="5.22407">
        <ele>328</ele>
        <time>2021-11-13T15:40:36.073Z</time>
      </trkpt>
      <trkpt lat="44.38242" lon="5.22401">
        <ele>328</ele>
        <time>2021-11-13T15:40:37.073Z</time>
      </trkpt>
      <trkpt lat="44.38241" lon="5.22394">
        <ele>328</ele>
        <time>2021-11-13T15:40:38.072Z</time>
      </trkpt>
      <trkpt lat="44.3824" lon="5.22387">
        <ele>328</ele>
        <time>2021-11-13T15:40:39.072Z</time>
      </trkpt>
      <trkpt lat="44.38239" lon="5.22381">
        <ele>327</ele>
        <time>2021-11-13T15:40:40.072Z</time>
      </trkpt>
      <trkpt lat="44.38238" lon="5.22375">
        <ele>327</ele>
        <time>2021-11-13T15:40:41.073Z</time>
      </trkpt>
      <trkpt lat="44.38237" lon="5.22369">
        <ele>327</ele>
        <time>2021-11-13T15:40:42.073Z</time>
      </trkpt>
      <trkpt lat="44.38236" lon="5.22364">
        <ele>326</ele>
        <time>2021-11-13T15:40:43.073Z</time>
      </trkpt>
      <trkpt lat="44.38235" lon="5.22358">
        <ele>326</ele>
        <time>2021-11-13T15:40:44.073Z</time>
      </trkpt>
      <trkpt lat="44.38233" lon="5.22352">
        <ele>326</ele>
        <time>2021-11-13T15:40:45.072Z</time>
      </trkpt>
      <trkpt lat="44.38232" lon="5.22346">
        <ele>327</ele>
        <time>2021-11-13T15:40:46.073Z</time>
      </trkpt>
      <trkpt lat="44.38231" lon="5.2234">
        <ele>327</ele>
        <time>2021-11-13T15:40:47.073Z</time>
      </trkpt>
      <trkpt lat="44.3823" lon="5.22334">
        <ele>327</ele>
        <time>2021-11-13T15:40:48.073Z</time>
      </trkpt>
      <trkpt lat="44.38229" lon="5.22328">
        <ele>327</ele>
        <time>2021-11-13T15:40:49.072Z</time>
      </trkpt>
      <trkpt lat="44.38228" lon="5.22322">
        <ele>327</ele>
        <time>2021-11-13T15:40:50.072Z</time>
      </trkpt>
      <trkpt lat="44.38227" lon="5.22316">
        <ele>327</ele>
        <time>2021-11-13T15:40:51.073Z</time>
      </trkpt>
      <trkpt lat="44.38226" lon="5.22311">
        <ele>327</ele>
        <time>2021-11-13T15:40:52.073Z</time>
      </trkpt>
      <trkpt lat="44.38225" lon="5.22306">
        <ele>327</ele>
        <time>2021-11-13T15:40:53.073Z</time>
      </trkpt>
      <trkpt lat="44.38223" lon="5.22301">
        <ele>327</ele>
        <time>2021-11-13T15:40:54.073Z</time>
      </trkpt>
      <trkpt lat="44.38223" lon="5.22296">
        <ele>327</ele>
        <time>2021-11-13T15:40:55.073Z</time>
      </trkpt>
      <trkpt lat="44.38222" lon="5.22291">
        <ele>327</ele>
        <time>2021-11-13T15:40:56.073Z</time>
      </trkpt>
      <trkpt lat="44.38222" lon="5.22286">
        <ele>327</ele>
        <time>2021-11-13T15:40:57.073Z</time>
      </trkpt>
      <trkpt lat="44.38221" lon="5.22281">
        <ele>328</ele>
        <time>2021-11-13T15:40:58.073Z</time>
      </trkpt>
      <trkpt lat="44.3822" lon="5.22276">
        <ele>328</ele>
        <time>2021-11-13T15:40:59.073Z</time>
      </trkpt>
      <trkpt lat="44.38218" lon="5.22271">
        <ele>329</ele>
        <time>2021-11-13T15:41:00.072Z</time>
      </trkpt>
      <trkpt lat="44.38218" lon="5.22265">
        <ele>329</ele>
        <time>2021-11-13T15:41:01.073Z</time>
      </trkpt>
      <trkpt lat="44.38217" lon="5.2226">
        <ele>329</ele>
        <time>2021-11-13T15:41:02.073Z</time>
      </trkpt>
      <trkpt lat="44.38216" lon="5.22255">
        <ele>329</ele>
        <time>2021-11-13T15:41:03.073Z</time>
      </trkpt>
      <trkpt lat="44.38215" lon="5.22251">
        <ele>329</ele>
        <time>2021-11-13T15:41:04.072Z</time>
      </trkpt>
      <trkpt lat="44.38214" lon="5.22246">
        <ele>329</ele>
        <time>2021-11-13T15:41:05.072Z</time>
      </trkpt>
      <trkpt lat="44.38213" lon="5.2224">
        <ele>329</ele>
        <time>2021-11-13T15:41:06.073Z</time>
      </trkpt>
      <trkpt lat="44.38212" lon="5.22235">
        <ele>330</ele>
        <time>2021-11-13T15:41:07.072Z</time>
      </trkpt>
      <trkpt lat="44.38211" lon="5.22229">
        <ele>330</ele>
        <time>2021-11-13T15:41:08.073Z</time>
      </trkpt>
      <trkpt lat="44.3821" lon="5.22224">
        <ele>330</ele>
        <time>2021-11-13T15:41:09.073Z</time>
      </trkpt>
      <trkpt lat="44.38209" lon="5.22218">
        <ele>330</ele>
        <time>2021-11-13T15:41:10.073Z</time>
      </trkpt>
      <trkpt lat="44.38208" lon="5.22213">
        <ele>331</ele>
        <time>2021-11-13T15:41:11.073Z</time>
      </trkpt>
      <trkpt lat="44.38206" lon="5.22207">
        <ele>331</ele>
        <time>2021-11-13T15:41:12.073Z</time>
      </trkpt>
      <trkpt lat="44.38204" lon="5.22202">
        <ele>331</ele>
        <time>2021-11-13T15:41:13.073Z</time>
      </trkpt>
      <trkpt lat="44.38202" lon="5.22197">
        <ele>331</ele>
        <time>2021-11-13T15:41:14.073Z</time>
      </trkpt>
      <trkpt lat="44.382" lon="5.22192">
        <ele>332</ele>
        <time>2021-11-13T15:41:15.072Z</time>
      </trkpt>
      <trkpt lat="44.38198" lon="5.22187">
        <ele>332</ele>
        <time>2021-11-13T15:41:16.073Z</time>
      </trkpt>
      <trkpt lat="44.38195" lon="5.22182">
        <ele>332</ele>
        <time>2021-11-13T15:41:17.072Z</time>
      </trkpt>
      <trkpt lat="44.38192" lon="5.22178">
        <ele>331</ele>
        <time>2021-11-13T15:41:18.072Z</time>
      </trkpt>
      <trkpt lat="44.38189" lon="5.22174">
        <ele>331</ele>
        <time>2021-11-13T15:41:19.073Z</time>
      </trkpt>
      <trkpt lat="44.38185" lon="5.22171">
        <ele>331</ele>
        <time>2021-11-13T15:41:20.073Z</time>
      </trkpt>
      <trkpt lat="44.38181" lon="5.22168">
        <ele>331</ele>
        <time>2021-11-13T15:41:21.073Z</time>
      </trkpt>
      <trkpt lat="44.38177" lon="5.22166">
        <ele>330</ele>
        <time>2021-11-13T15:41:22.073Z</time>
      </trkpt>
      <trkpt lat="44.38173" lon="5.22163">
        <ele>330</ele>
        <time>2021-11-13T15:41:23.073Z</time>
      </trkpt>
      <trkpt lat="44.3817" lon="5.22159">
        <ele>330</ele>
        <time>2021-11-13T15:41:24.073Z</time>
      </trkpt>
      <trkpt lat="44.38169" lon="5.22154">
        <ele>330</ele>
        <time>2021-11-13T15:41:25.072Z</time>
      </trkpt>
      <trkpt lat="44.3817" lon="5.22148">
        <ele>330</ele>
        <time>2021-11-13T15:41:26.072Z</time>
      </trkpt>
      <trkpt lat="44.38172" lon="5.22144">
        <ele>330</ele>
        <time>2021-11-13T15:41:27.073Z</time>
      </trkpt>
      <trkpt lat="44.38175" lon="5.2214">
        <ele>330</ele>
        <time>2021-11-13T15:41:28.073Z</time>
      </trkpt>
      <trkpt lat="44.38178" lon="5.22137">
        <ele>330</ele>
        <time>2021-11-13T15:41:29.072Z</time>
      </trkpt>
      <trkpt lat="44.38181" lon="5.22135">
        <ele>330</ele>
        <time>2021-11-13T15:41:30.072Z</time>
      </trkpt>
      <trkpt lat="44.38185" lon="5.22132">
        <ele>329</ele>
        <time>2021-11-13T15:41:31.073Z</time>
      </trkpt>
      <trkpt lat="44.38189" lon="5.22128">
        <ele>329</ele>
        <time>2021-11-13T15:41:32.073Z</time>
      </trkpt>
      <trkpt lat="44.38192" lon="5.22125">
        <ele>329</ele>
        <time>2021-11-13T15:41:33.072Z</time>
      </trkpt>
      <trkpt lat="44.38196" lon="5.22121">
        <ele>328</ele>
        <time>2021-11-13T15:41:34.072Z</time>
      </trkpt>
      <trkpt lat="44.38199" lon="5.22117">
        <ele>328</ele>
        <time>2021-11-13T15:41:35.073Z</time>
      </trkpt>
      <trkpt lat="44.38201" lon="5.22112">
        <ele>327</ele>
        <time>2021-11-13T15:41:36.073Z</time>
      </trkpt>
      <trkpt lat="44.38202" lon="5.22107">
        <ele>327</ele>
        <time>2021-11-13T15:41:37.073Z</time>
      </trkpt>
      <trkpt lat="44.38203" lon="5.22101">
        <ele>327</ele>
        <time>2021-11-13T15:41:38.073Z</time>
      </trkpt>
      <trkpt lat="44.38203" lon="5.22095">
        <ele>327</ele>
        <time>2021-11-13T15:41:39.072Z</time>
      </trkpt>
      <trkpt lat="44.38204" lon="5.2209">
        <ele>327</ele>
        <time>2021-11-13T15:41:40.073Z</time>
      </trkpt>
      <trkpt lat="44.38205" lon="5.22084">
        <ele>327</ele>
        <time>2021-11-13T15:41:41.073Z</time>
      </trkpt>
      <trkpt lat="44.38207" lon="5.22079">
        <ele>327</ele>
        <time>2021-11-13T15:41:42.073Z</time>
      </trkpt>
      <trkpt lat="44.3821" lon="5.22075">
        <ele>328</ele>
        <time>2021-11-13T15:41:43.073Z</time>
      </trkpt>
      <trkpt lat="44.38214" lon="5.22073">
        <ele>328</ele>
        <time>2021-11-13T15:41:44.073Z</time>
      </trkpt>
      <trkpt lat="44.38218" lon="5.22072">
        <ele>328</ele>
        <time>2021-11-13T15:41:45.072Z</time>
      </trkpt>
      <trkpt lat="44.38223" lon="5.22072">
        <ele>327</ele>
        <time>2021-11-13T15:41:46.073Z</time>
      </trkpt>
      <trkpt lat="44.38227" lon="5.22073">
        <ele>327</ele>
        <time>2021-11-13T15:41:47.073Z</time>
      </trkpt>
      <trkpt lat="44.38232" lon="5.22074">
        <ele>327</ele>
        <time>2021-11-13T15:41:48.073Z</time>
      </trkpt>
      <trkpt lat="44.38237" lon="5.22075">
        <ele>327</ele>
        <time>2021-11-13T15:41:49.072Z</time>
      </trkpt>
      <trkpt lat="44.38242" lon="5.22075">
        <ele>327</ele>
        <time>2021-11-13T15:41:50.072Z</time>
      </trkpt>
      <trkpt lat="44.38248" lon="5.22077">
        <ele>327</ele>
        <time>2021-11-13T15:41:51.073Z</time>
      </trkpt>
      <trkpt lat="44.38254" lon="5.22078">
        <ele>327</ele>
        <time>2021-11-13T15:41:52.073Z</time>
      </trkpt>
      <trkpt lat="44.38261" lon="5.2208">
        <ele>328</ele>
        <time>2021-11-13T15:41:53.073Z</time>
      </trkpt>
      <trkpt lat="44.38266" lon="5.22081">
        <ele>328</ele>
        <time>2021-11-13T15:41:54.073Z</time>
      </trkpt>
      <trkpt lat="44.38272" lon="5.22082">
        <ele>328</ele>
        <time>2021-11-13T15:41:55.073Z</time>
      </trkpt>
      <trkpt lat="44.38278" lon="5.22084">
        <ele>328</ele>
        <time>2021-11-13T15:41:56.073Z</time>
      </trkpt>
      <trkpt lat="44.38283" lon="5.22085">
        <ele>327</ele>
        <time>2021-11-13T15:41:57.073Z</time>
      </trkpt>
      <trkpt lat="44.38289" lon="5.22087">
        <ele>327</ele>
        <time>2021-11-13T15:41:58.072Z</time>
      </trkpt>
      <trkpt lat="44.38295" lon="5.22088">
        <ele>327</ele>
        <time>2021-11-13T15:41:59.073Z</time>
      </trkpt>
      <trkpt lat="44.383" lon="5.2209">
        <ele>327</ele>
        <time>2021-11-13T15:42:00.073Z</time>
      </trkpt>
      <trkpt lat="44.38306" lon="5.22092">
        <ele>327</ele>
        <time>2021-11-13T15:42:01.073Z</time>
      </trkpt>
      <trkpt lat="44.38311" lon="5.22094">
        <ele>327</ele>
        <time>2021-11-13T15:42:02.073Z</time>
      </trkpt>
      <trkpt lat="44.38316" lon="5.22097">
        <ele>327</ele>
        <time>2021-11-13T15:42:03.073Z</time>
      </trkpt>
      <trkpt lat="44.38321" lon="5.22101">
        <ele>327</ele>
        <time>2021-11-13T15:42:04.073Z</time>
      </trkpt>
      <trkpt lat="44.38326" lon="5.22105">
        <ele>327</ele>
        <time>2021-11-13T15:42:05.073Z</time>
      </trkpt>
      <trkpt lat="44.38332" lon="5.22108">
        <ele>328</ele>
        <time>2021-11-13T15:42:06.073Z</time>
      </trkpt>
      <trkpt lat="44.38338" lon="5.2211">
        <ele>327</ele>
        <time>2021-11-13T15:42:07.073Z</time>
      </trkpt>
      <trkpt lat="44.38345" lon="5.22111">
        <ele>327</ele>
        <time>2021-11-13T15:42:08.073Z</time>
      </trkpt>
      <trkpt lat="44.38351" lon="5.22109">
        <ele>327</ele>
        <time>2021-11-13T15:42:09.072Z</time>
      </trkpt>
      <trkpt lat="44.38357" lon="5.22105">
        <ele>327</ele>
        <time>2021-11-13T15:42:10.073Z</time>
      </trkpt>
      <trkpt lat="44.38362" lon="5.221">
        <ele>327</ele>
        <time>2021-11-13T15:42:11.072Z</time>
      </trkpt>
      <trkpt lat="44.38367" lon="5.22093">
        <ele>327</ele>
        <time>2021-11-13T15:42:12.072Z</time>
      </trkpt>
      <trkpt lat="44.38371" lon="5.22085">
        <ele>327</ele>
        <time>2021-11-13T15:42:13.073Z</time>
      </trkpt>
      <trkpt lat="44.38374" lon="5.22077">
        <ele>327</ele>
        <time>2021-11-13T15:42:14.073Z</time>
      </trkpt>
      <trkpt lat="44.38377" lon="5.22068">
        <ele>327</ele>
        <time>2021-11-13T15:42:15.072Z</time>
      </trkpt>
      <trkpt lat="44.3838" lon="5.22059">
        <ele>327</ele>
        <time>2021-11-13T15:42:16.072Z</time>
      </trkpt>
      <trkpt lat="44.38383" lon="5.2205">
        <ele>326</ele>
        <time>2021-11-13T15:42:17.073Z</time>
      </trkpt>
      <trkpt lat="44.38385" lon="5.22042">
        <ele>326</ele>
        <time>2021-11-13T15:42:18.073Z</time>
      </trkpt>
      <trkpt lat="44.38388" lon="5.22033">
        <ele>326</ele>
        <time>2021-11-13T15:42:19.072Z</time>
      </trkpt>
      <trkpt lat="44.3839" lon="5.22023">
        <ele>326</ele>
        <time>2021-11-13T15:42:20.072Z</time>
      </trkpt>
      <trkpt lat="44.38391" lon="5.22014">
        <ele>326</ele>
        <time>2021-11-13T15:42:21.072Z</time>
      </trkpt>
      <trkpt lat="44.38393" lon="5.22005">
        <ele>327</ele>
        <time>2021-11-13T15:42:22.073Z</time>
      </trkpt>
      <trkpt lat="44.38395" lon="5.21997">
        <ele>327</ele>
        <time>2021-11-13T15:42:23.073Z</time>
      </trkpt>
      <trkpt lat="44.38397" lon="5.21988">
        <ele>327</ele>
        <time>2021-11-13T15:42:24.073Z</time>
      </trkpt>
      <trkpt lat="44.38398" lon="5.21979">
        <ele>327</ele>
        <time>2021-11-13T15:42:25.073Z</time>
      </trkpt>
      <trkpt lat="44.38399" lon="5.2197">
        <ele>326</ele>
        <time>2021-11-13T15:42:26.073Z</time>
      </trkpt>
      <trkpt lat="44.384" lon="5.21961">
        <ele>326</ele>
        <time>2021-11-13T15:42:27.073Z</time>
      </trkpt>
      <trkpt lat="44.38401" lon="5.21952">
        <ele>326</ele>
        <time>2021-11-13T15:42:28.073Z</time>
      </trkpt>
      <trkpt lat="44.38402" lon="5.21943">
        <ele>325</ele>
        <time>2021-11-13T15:42:29.073Z</time>
      </trkpt>
      <trkpt lat="44.38404" lon="5.21934">
        <ele>325</ele>
        <time>2021-11-13T15:42:30.073Z</time>
      </trkpt>
      <trkpt lat="44.38405" lon="5.21926">
        <ele>325</ele>
        <time>2021-11-13T15:42:31.073Z</time>
      </trkpt>
      <trkpt lat="44.38407" lon="5.21917">
        <ele>325</ele>
        <time>2021-11-13T15:42:32.072Z</time>
      </trkpt>
      <trkpt lat="44.38409" lon="5.21908">
        <ele>325</ele>
        <time>2021-11-13T15:42:33.073Z</time>
      </trkpt>
      <trkpt lat="44.38411" lon="5.21899">
        <ele>325</ele>
        <time>2021-11-13T15:42:34.072Z</time>
      </trkpt>
      <trkpt lat="44.38414" lon="5.21891">
        <ele>325</ele>
        <time>2021-11-13T15:42:35.072Z</time>
      </trkpt>
      <trkpt lat="44.38416" lon="5.21882">
        <ele>325</ele>
        <time>2021-11-13T15:42:36.073Z</time>
      </trkpt>
      <trkpt lat="44.38419" lon="5.21874">
        <ele>325</ele>
        <time>2021-11-13T15:42:37.073Z</time>
      </trkpt>
      <trkpt lat="44.38421" lon="5.21866">
        <ele>325</ele>
        <time>2021-11-13T15:42:38.073Z</time>
      </trkpt>
      <trkpt lat="44.38424" lon="5.21859">
        <ele>324</ele>
        <time>2021-11-13T15:42:39.072Z</time>
      </trkpt>
      <trkpt lat="44.38427" lon="5.21851">
        <ele>324</ele>
        <time>2021-11-13T15:42:40.073Z</time>
      </trkpt>
      <trkpt lat="44.3843" lon="5.21844">
        <ele>324</ele>
        <time>2021-11-13T15:42:41.073Z</time>
      </trkpt>
      <trkpt lat="44.38433" lon="5.21837">
        <ele>324</ele>
        <time>2021-11-13T15:42:42.073Z</time>
      </trkpt>
      <trkpt lat="44.38437" lon="5.21831">
        <ele>324</ele>
        <time>2021-11-13T15:42:43.073Z</time>
      </trkpt>
      <trkpt lat="44.38441" lon="5.21826">
        <ele>324</ele>
        <time>2021-11-13T15:42:44.072Z</time>
      </trkpt>
      <trkpt lat="44.38445" lon="5.2182">
        <ele>324</ele>
        <time>2021-11-13T15:42:45.073Z</time>
      </trkpt>
      <trkpt lat="44.3845" lon="5.21815">
        <ele>324</ele>
        <time>2021-11-13T15:42:46.073Z</time>
      </trkpt>
      <trkpt lat="44.38455" lon="5.21811">
        <ele>323</ele>
        <time>2021-11-13T15:42:47.073Z</time>
      </trkpt>
      <trkpt lat="44.3846" lon="5.21806">
        <ele>323</ele>
        <time>2021-11-13T15:42:48.073Z</time>
      </trkpt>
      <trkpt lat="44.38465" lon="5.21801">
        <ele>324</ele>
        <time>2021-11-13T15:42:49.073Z</time>
      </trkpt>
      <trkpt lat="44.3847" lon="5.21796">
        <ele>324</ele>
        <time>2021-11-13T15:42:50.073Z</time>
      </trkpt>
      <trkpt lat="44.38474" lon="5.21791">
        <ele>323</ele>
        <time>2021-11-13T15:42:51.073Z</time>
      </trkpt>
      <trkpt lat="44.38479" lon="5.21787">
        <ele>323</ele>
        <time>2021-11-13T15:42:52.073Z</time>
      </trkpt>
      <trkpt lat="44.38483" lon="5.21782">
        <ele>323</ele>
        <time>2021-11-13T15:42:53.073Z</time>
      </trkpt>
      <trkpt lat="44.38488" lon="5.21777">
        <ele>322</ele>
        <time>2021-11-13T15:42:54.073Z</time>
      </trkpt>
      <trkpt lat="44.38493" lon="5.21773">
        <ele>322</ele>
        <time>2021-11-13T15:42:55.073Z</time>
      </trkpt>
      <trkpt lat="44.38498" lon="5.21768">
        <ele>322</ele>
        <time>2021-11-13T15:42:56.073Z</time>
      </trkpt>
      <trkpt lat="44.38503" lon="5.21764">
        <ele>322</ele>
        <time>2021-11-13T15:42:57.072Z</time>
      </trkpt>
      <trkpt lat="44.38508" lon="5.21759">
        <ele>322</ele>
        <time>2021-11-13T15:42:58.073Z</time>
      </trkpt>
      <trkpt lat="44.38512" lon="5.21755">
        <ele>321</ele>
        <time>2021-11-13T15:42:59.072Z</time>
      </trkpt>
      <trkpt lat="44.38516" lon="5.2175">
        <ele>321</ele>
        <time>2021-11-13T15:43:00.072Z</time>
      </trkpt>
      <trkpt lat="44.38521" lon="5.21745">
        <ele>321</ele>
        <time>2021-11-13T15:43:01.073Z</time>
      </trkpt>
      <trkpt lat="44.38525" lon="5.2174">
        <ele>321</ele>
        <time>2021-11-13T15:43:02.073Z</time>
      </trkpt>
      <trkpt lat="44.38529" lon="5.21734">
        <ele>321</ele>
        <time>2021-11-13T15:43:03.073Z</time>
      </trkpt>
      <trkpt lat="44.38533" lon="5.21729">
        <ele>321</ele>
        <time>2021-11-13T15:43:04.072Z</time>
      </trkpt>
      <trkpt lat="44.38537" lon="5.21724">
        <ele>321</ele>
        <time>2021-11-13T15:43:05.072Z</time>
      </trkpt>
      <trkpt lat="44.38541" lon="5.21719">
        <ele>320</ele>
        <time>2021-11-13T15:43:06.073Z</time>
      </trkpt>
      <trkpt lat="44.38545" lon="5.21714">
        <ele>320</ele>
        <time>2021-11-13T15:43:07.073Z</time>
      </trkpt>
      <trkpt lat="44.3855" lon="5.2171">
        <ele>320</ele>
        <time>2021-11-13T15:43:08.073Z</time>
      </trkpt>
      <trkpt lat="44.38554" lon="5.21705">
        <ele>320</ele>
        <time>2021-11-13T15:43:09.072Z</time>
      </trkpt>
      <trkpt lat="44.38559" lon="5.21701">
        <ele>320</ele>
        <time>2021-11-13T15:43:10.073Z</time>
      </trkpt>
      <trkpt lat="44.38563" lon="5.21698">
        <ele>320</ele>
        <time>2021-11-13T15:43:11.072Z</time>
      </trkpt>
      <trkpt lat="44.38568" lon="5.21694">
        <ele>320</ele>
        <time>2021-11-13T15:43:12.073Z</time>
      </trkpt>
      <trkpt lat="44.38572" lon="5.21691">
        <ele>320</ele>
        <time>2021-11-13T15:43:13.073Z</time>
      </trkpt>
      <trkpt lat="44.38576" lon="5.21687">
        <ele>320</ele>
        <time>2021-11-13T15:43:14.073Z</time>
      </trkpt>
      <trkpt lat="44.38579" lon="5.21684">
        <ele>321</ele>
        <time>2021-11-13T15:43:15.073Z</time>
      </trkpt>
      <trkpt lat="44.38582" lon="5.21681">
        <ele>321</ele>
        <time>2021-11-13T15:43:16.072Z</time>
      </trkpt>
      <trkpt lat="44.38584" lon="5.21679">
        <ele>321</ele>
        <time>2021-11-13T15:43:17.073Z</time>
      </trkpt>
      <trkpt lat="44.38587" lon="5.21676">
        <ele>321</ele>
        <time>2021-11-13T15:43:18.073Z</time>
      </trkpt>
      <trkpt lat="44.38589" lon="5.21675">
        <ele>321</ele>
        <time>2021-11-13T15:43:19.073Z</time>
      </trkpt>
      <trkpt lat="44.38592" lon="5.21673">
        <ele>321</ele>
        <time>2021-11-13T15:43:20.073Z</time>
      </trkpt>
      <trkpt lat="44.38594" lon="5.21671">
        <ele>322</ele>
        <time>2021-11-13T15:43:21.073Z</time>
      </trkpt>
      <trkpt lat="44.38597" lon="5.21669">
        <ele>322</ele>
        <time>2021-11-13T15:43:22.073Z</time>
      </trkpt>
      <trkpt lat="44.38599" lon="5.21666">
        <ele>322</ele>
        <time>2021-11-13T15:43:23.072Z</time>
      </trkpt>
      <trkpt lat="44.38601" lon="5.21663">
        <ele>322</ele>
        <time>2021-11-13T15:43:24.072Z</time>
      </trkpt>
      <trkpt lat="44.38603" lon="5.21659">
        <ele>322</ele>
        <time>2021-11-13T15:43:25.072Z</time>
      </trkpt>
      <trkpt lat="44.38606" lon="5.21654">
        <ele>322</ele>
        <time>2021-11-13T15:43:26.073Z</time>
      </trkpt>
      <trkpt lat="44.38609" lon="5.21649">
        <ele>322</ele>
        <time>2021-11-13T15:43:27.073Z</time>
      </trkpt>
      <trkpt lat="44.38612" lon="5.21645">
        <ele>322</ele>
        <time>2021-11-13T15:43:28.072Z</time>
      </trkpt>
      <trkpt lat="44.38615" lon="5.21641">
        <ele>322</ele>
        <time>2021-11-13T15:43:29.072Z</time>
      </trkpt>
      <trkpt lat="44.38618" lon="5.21637">
        <ele>322</ele>
        <time>2021-11-13T15:43:30.072Z</time>
      </trkpt>
      <trkpt lat="44.38621" lon="5.21633">
        <ele>323</ele>
        <time>2021-11-13T15:43:31.073Z</time>
      </trkpt>
      <trkpt lat="44.38624" lon="5.2163">
        <ele>323</ele>
        <time>2021-11-13T15:43:32.073Z</time>
      </trkpt>
      <trkpt lat="44.38627" lon="5.21628">
        <ele>323</ele>
        <time>2021-11-13T15:43:33.072Z</time>
      </trkpt>
      <trkpt lat="44.38631" lon="5.21628">
        <ele>323</ele>
        <time>2021-11-13T15:43:34.072Z</time>
      </trkpt>
      <trkpt lat="44.38635" lon="5.21628">
        <ele>323</ele>
        <time>2021-11-13T15:43:35.072Z</time>
      </trkpt>
      <trkpt lat="44.38639" lon="5.21628">
        <ele>322</ele>
        <time>2021-11-13T15:43:36.073Z</time>
      </trkpt>
      <trkpt lat="44.38644" lon="5.21629">
        <ele>322</ele>
        <time>2021-11-13T15:43:37.072Z</time>
      </trkpt>
      <trkpt lat="44.38649" lon="5.21628">
        <ele>321</ele>
        <time>2021-11-13T15:43:38.073Z</time>
      </trkpt>
      <trkpt lat="44.38652" lon="5.21625">
        <ele>321</ele>
        <time>2021-11-13T15:43:39.073Z</time>
      </trkpt>
      <trkpt lat="44.38655" lon="5.21621">
        <ele>321</ele>
        <time>2021-11-13T15:43:40.073Z</time>
      </trkpt>
      <trkpt lat="44.38658" lon="5.21617">
        <ele>321</ele>
        <time>2021-11-13T15:43:41.072Z</time>
      </trkpt>
      <trkpt lat="44.3866" lon="5.21612">
        <ele>320</ele>
        <time>2021-11-13T15:43:42.072Z</time>
      </trkpt>
      <trkpt lat="44.38662" lon="5.21608">
        <ele>320</ele>
        <time>2021-11-13T15:43:43.073Z</time>
      </trkpt>
      <trkpt lat="44.38664" lon="5.21604">
        <ele>320</ele>
        <time>2021-11-13T15:43:44.073Z</time>
      </trkpt>
      <trkpt lat="44.38665" lon="5.21599">
        <ele>320</ele>
        <time>2021-11-13T15:43:45.072Z</time>
      </trkpt>
      <trkpt lat="44.38667" lon="5.21596">
        <ele>320</ele>
        <time>2021-11-13T15:43:46.073Z</time>
      </trkpt>
      <trkpt lat="44.38668" lon="5.21592">
        <ele>320</ele>
        <time>2021-11-13T15:43:47.073Z</time>
      </trkpt>
      <trkpt lat="44.38669" lon="5.21589">
        <ele>320</ele>
        <time>2021-11-13T15:43:48.072Z</time>
      </trkpt>
      <trkpt lat="44.38671" lon="5.21585">
        <ele>320</ele>
        <time>2021-11-13T15:43:49.072Z</time>
      </trkpt>
      <trkpt lat="44.38672" lon="5.21581">
        <ele>320</ele>
        <time>2021-11-13T15:43:50.072Z</time>
      </trkpt>
      <trkpt lat="44.38673" lon="5.21577">
        <ele>320</ele>
        <time>2021-11-13T15:43:51.073Z</time>
      </trkpt>
      <trkpt lat="44.38675" lon="5.21573">
        <ele>319</ele>
        <time>2021-11-13T15:43:52.073Z</time>
      </trkpt>
      <trkpt lat="44.38677" lon="5.21569">
        <ele>319</ele>
        <time>2021-11-13T15:43:53.073Z</time>
      </trkpt>
      <trkpt lat="44.38679" lon="5.21565">
        <ele>319</ele>
        <time>2021-11-13T15:43:54.072Z</time>
      </trkpt>
      <trkpt lat="44.3868" lon="5.2156">
        <ele>318</ele>
        <time>2021-11-13T15:43:55.072Z</time>
      </trkpt>
      <trkpt lat="44.38682" lon="5.21556">
        <ele>318</ele>
        <time>2021-11-13T15:43:56.073Z</time>
      </trkpt>
      <trkpt lat="44.38684" lon="5.21551">
        <ele>318</ele>
        <time>2021-11-13T15:43:57.073Z</time>
      </trkpt>
      <trkpt lat="44.38685" lon="5.21546">
        <ele>318</ele>
        <time>2021-11-13T15:43:58.073Z</time>
      </trkpt>
      <trkpt lat="44.38687" lon="5.21542">
        <ele>317</ele>
        <time>2021-11-13T15:43:59.072Z</time>
      </trkpt>
      <trkpt lat="44.38689" lon="5.21537">
        <ele>317</ele>
        <time>2021-11-13T15:44:00.072Z</time>
      </trkpt>
      <trkpt lat="44.38691" lon="5.21532">
        <ele>316</ele>
        <time>2021-11-13T15:44:01.073Z</time>
      </trkpt>
      <trkpt lat="44.38693" lon="5.21527">
        <ele>316</ele>
        <time>2021-11-13T15:44:02.073Z</time>
      </trkpt>
      <trkpt lat="44.38695" lon="5.21522">
        <ele>316</ele>
        <time>2021-11-13T15:44:03.073Z</time>
      </trkpt>
      <trkpt lat="44.38697" lon="5.21517">
        <ele>316</ele>
        <time>2021-11-13T15:44:04.073Z</time>
      </trkpt>
      <trkpt lat="44.38699" lon="5.21512">
        <ele>315</ele>
        <time>2021-11-13T15:44:05.072Z</time>
      </trkpt>
      <trkpt lat="44.387" lon="5.21507">
        <ele>315</ele>
        <time>2021-11-13T15:44:06.073Z</time>
      </trkpt>
      <trkpt lat="44.38702" lon="5.21501">
        <ele>315</ele>
        <time>2021-11-13T15:44:07.073Z</time>
      </trkpt>
      <trkpt lat="44.38704" lon="5.21496">
        <ele>315</ele>
        <time>2021-11-13T15:44:08.073Z</time>
      </trkpt>
      <trkpt lat="44.38706" lon="5.2149">
        <ele>315</ele>
        <time>2021-11-13T15:44:09.072Z</time>
      </trkpt>
      <trkpt lat="44.38708" lon="5.21484">
        <ele>315</ele>
        <time>2021-11-13T15:44:10.072Z</time>
      </trkpt>
      <trkpt lat="44.3871" lon="5.21479">
        <ele>315</ele>
        <time>2021-11-13T15:44:11.073Z</time>
      </trkpt>
      <trkpt lat="44.38712" lon="5.21473">
        <ele>315</ele>
        <time>2021-11-13T15:44:12.073Z</time>
      </trkpt>
      <trkpt lat="44.38714" lon="5.21467">
        <ele>315</ele>
        <time>2021-11-13T15:44:13.073Z</time>
      </trkpt>
      <trkpt lat="44.38716" lon="5.21461">
        <ele>315</ele>
        <time>2021-11-13T15:44:14.073Z</time>
      </trkpt>
      <trkpt lat="44.38718" lon="5.21455">
        <ele>315</ele>
        <time>2021-11-13T15:44:15.073Z</time>
      </trkpt>
      <trkpt lat="44.3872" lon="5.21449">
        <ele>315</ele>
        <time>2021-11-13T15:44:16.072Z</time>
      </trkpt>
      <trkpt lat="44.38723" lon="5.21443">
        <ele>315</ele>
        <time>2021-11-13T15:44:17.073Z</time>
      </trkpt>
      <trkpt lat="44.38725" lon="5.21436">
        <ele>315</ele>
        <time>2021-11-13T15:44:18.072Z</time>
      </trkpt>
      <trkpt lat="44.38727" lon="5.2143">
        <ele>315</ele>
        <time>2021-11-13T15:44:19.072Z</time>
      </trkpt>
      <trkpt lat="44.38729" lon="5.21423">
        <ele>315</ele>
        <time>2021-11-13T15:44:20.072Z</time>
      </trkpt>
      <trkpt lat="44.38732" lon="5.21417">
        <ele>315</ele>
        <time>2021-11-13T15:44:21.073Z</time>
      </trkpt>
      <trkpt lat="44.38734" lon="5.21411">
        <ele>315</ele>
        <time>2021-11-13T15:44:22.073Z</time>
      </trkpt>
      <trkpt lat="44.38736" lon="5.21404">
        <ele>315</ele>
        <time>2021-11-13T15:44:23.072Z</time>
      </trkpt>
      <trkpt lat="44.38738" lon="5.21398">
        <ele>315</ele>
        <time>2021-11-13T15:44:24.072Z</time>
      </trkpt>
      <trkpt lat="44.3874" lon="5.21391">
        <ele>315</ele>
        <time>2021-11-13T15:44:25.072Z</time>
      </trkpt>
      <trkpt lat="44.38742" lon="5.21385">
        <ele>315</ele>
        <time>2021-11-13T15:44:26.072Z</time>
      </trkpt>
      <trkpt lat="44.38744" lon="5.21379">
        <ele>315</ele>
        <time>2021-11-13T15:44:27.073Z</time>
      </trkpt>
      <trkpt lat="44.38747" lon="5.21372">
        <ele>315</ele>
        <time>2021-11-13T15:44:28.072Z</time>
      </trkpt>
      <trkpt lat="44.38749" lon="5.21365">
        <ele>316</ele>
        <time>2021-11-13T15:44:29.073Z</time>
      </trkpt>
      <trkpt lat="44.38751" lon="5.21359">
        <ele>316</ele>
        <time>2021-11-13T15:44:30.073Z</time>
      </trkpt>
      <trkpt lat="44.38753" lon="5.21352">
        <ele>316</ele>
        <time>2021-11-13T15:44:31.073Z</time>
      </trkpt>
      <trkpt lat="44.38755" lon="5.21346">
        <ele>316</ele>
        <time>2021-11-13T15:44:32.073Z</time>
      </trkpt>
      <trkpt lat="44.38757" lon="5.21339">
        <ele>316</ele>
        <time>2021-11-13T15:44:33.073Z</time>
      </trkpt>
      <trkpt lat="44.38759" lon="5.21333">
        <ele>316</ele>
        <time>2021-11-13T15:44:34.073Z</time>
      </trkpt>
      <trkpt lat="44.38761" lon="5.21327">
        <ele>316</ele>
        <time>2021-11-13T15:44:35.072Z</time>
      </trkpt>
      <trkpt lat="44.38763" lon="5.21321">
        <ele>316</ele>
        <time>2021-11-13T15:44:36.073Z</time>
      </trkpt>
      <trkpt lat="44.38765" lon="5.21314">
        <ele>316</ele>
        <time>2021-11-13T15:44:37.073Z</time>
      </trkpt>
      <trkpt lat="44.38768" lon="5.21308">
        <ele>315</ele>
        <time>2021-11-13T15:44:38.073Z</time>
      </trkpt>
      <trkpt lat="44.3877" lon="5.21302">
        <ele>315</ele>
        <time>2021-11-13T15:44:39.073Z</time>
      </trkpt>
      <trkpt lat="44.38772" lon="5.21295">
        <ele>315</ele>
        <time>2021-11-13T15:44:40.073Z</time>
      </trkpt>
      <trkpt lat="44.38774" lon="5.21289">
        <ele>315</ele>
        <time>2021-11-13T15:44:41.073Z</time>
      </trkpt>
      <trkpt lat="44.38776" lon="5.21282">
        <ele>315</ele>
        <time>2021-11-13T15:44:42.072Z</time>
      </trkpt>
      <trkpt lat="44.38778" lon="5.21275">
        <ele>315</ele>
        <time>2021-11-13T15:44:43.073Z</time>
      </trkpt>
      <trkpt lat="44.3878" lon="5.21268">
        <ele>315</ele>
        <time>2021-11-13T15:44:44.073Z</time>
      </trkpt>
      <trkpt lat="44.38782" lon="5.21261">
        <ele>315</ele>
        <time>2021-11-13T15:44:45.073Z</time>
      </trkpt>
      <trkpt lat="44.38784" lon="5.21255">
        <ele>315</ele>
        <time>2021-11-13T15:44:46.072Z</time>
      </trkpt>
      <trkpt lat="44.38786" lon="5.21248">
        <ele>315</ele>
        <time>2021-11-13T15:44:47.072Z</time>
      </trkpt>
      <trkpt lat="44.38788" lon="5.21241">
        <ele>315</ele>
        <time>2021-11-13T15:44:48.072Z</time>
      </trkpt>
      <trkpt lat="44.3879" lon="5.21235">
        <ele>315</ele>
        <time>2021-11-13T15:44:49.073Z</time>
      </trkpt>
      <trkpt lat="44.38792" lon="5.21228">
        <ele>315</ele>
        <time>2021-11-13T15:44:50.073Z</time>
      </trkpt>
      <trkpt lat="44.38793" lon="5.21221">
        <ele>315</ele>
        <time>2021-11-13T15:44:51.073Z</time>
      </trkpt>
      <trkpt lat="44.38795" lon="5.21214">
        <ele>315</ele>
        <time>2021-11-13T15:44:52.073Z</time>
      </trkpt>
      <trkpt lat="44.38797" lon="5.21208">
        <ele>315</ele>
        <time>2021-11-13T15:44:53.073Z</time>
      </trkpt>
      <trkpt lat="44.38798" lon="5.21201">
        <ele>314</ele>
        <time>2021-11-13T15:44:54.072Z</time>
      </trkpt>
      <trkpt lat="44.388" lon="5.21194">
        <ele>314</ele>
        <time>2021-11-13T15:44:55.072Z</time>
      </trkpt>
      <trkpt lat="44.38801" lon="5.21187">
        <ele>315</ele>
        <time>2021-11-13T15:44:56.073Z</time>
      </trkpt>
      <trkpt lat="44.38802" lon="5.2118">
        <ele>315</ele>
        <time>2021-11-13T15:44:57.073Z</time>
      </trkpt>
      <trkpt lat="44.38803" lon="5.21173">
        <ele>315</ele>
        <time>2021-11-13T15:44:58.073Z</time>
      </trkpt>
      <trkpt lat="44.38804" lon="5.21166">
        <ele>316</ele>
        <time>2021-11-13T15:44:59.073Z</time>
      </trkpt>
      <trkpt lat="44.38805" lon="5.21159">
        <ele>316</ele>
        <time>2021-11-13T15:45:00.073Z</time>
      </trkpt>
      <trkpt lat="44.38806" lon="5.21152">
        <ele>316</ele>
        <time>2021-11-13T15:45:01.073Z</time>
      </trkpt>
      <trkpt lat="44.38807" lon="5.21145">
        <ele>316</ele>
        <time>2021-11-13T15:45:02.072Z</time>
      </trkpt>
      <trkpt lat="44.38807" lon="5.21138">
        <ele>316</ele>
        <time>2021-11-13T15:45:03.073Z</time>
      </trkpt>
      <trkpt lat="44.38807" lon="5.2113">
        <ele>317</ele>
        <time>2021-11-13T15:45:04.073Z</time>
      </trkpt>
      <trkpt lat="44.38808" lon="5.21123">
        <ele>317</ele>
        <time>2021-11-13T15:45:05.073Z</time>
      </trkpt>
      <trkpt lat="44.38808" lon="5.21116">
        <ele>317</ele>
        <time>2021-11-13T15:45:06.072Z</time>
      </trkpt>
      <trkpt lat="44.38808" lon="5.21108">
        <ele>317</ele>
        <time>2021-11-13T15:45:07.073Z</time>
      </trkpt>
      <trkpt lat="44.38809" lon="5.21101">
        <ele>317</ele>
        <time>2021-11-13T15:45:08.072Z</time>
      </trkpt>
      <trkpt lat="44.38809" lon="5.21094">
        <ele>317</ele>
        <time>2021-11-13T15:45:09.073Z</time>
      </trkpt>
      <trkpt lat="44.3881" lon="5.21087">
        <ele>317</ele>
        <time>2021-11-13T15:45:10.072Z</time>
      </trkpt>
      <trkpt lat="44.3881" lon="5.2108">
        <ele>316</ele>
        <time>2021-11-13T15:45:11.073Z</time>
      </trkpt>
      <trkpt lat="44.3881" lon="5.21073">
        <ele>316</ele>
        <time>2021-11-13T15:45:12.073Z</time>
      </trkpt>
      <trkpt lat="44.38811" lon="5.21066">
        <ele>316</ele>
        <time>2021-11-13T15:45:13.073Z</time>
      </trkpt>
      <trkpt lat="44.38812" lon="5.2106">
        <ele>316</ele>
        <time>2021-11-13T15:45:14.073Z</time>
      </trkpt>
      <trkpt lat="44.38813" lon="5.21053">
        <ele>316</ele>
        <time>2021-11-13T15:45:15.072Z</time>
      </trkpt>
      <trkpt lat="44.38814" lon="5.21046">
        <ele>316</ele>
        <time>2021-11-13T15:45:16.073Z</time>
      </trkpt>
      <trkpt lat="44.38816" lon="5.2104">
        <ele>316</ele>
        <time>2021-11-13T15:45:17.072Z</time>
      </trkpt>
      <trkpt lat="44.38818" lon="5.21034">
        <ele>315</ele>
        <time>2021-11-13T15:45:18.073Z</time>
      </trkpt>
      <trkpt lat="44.3882" lon="5.21027">
        <ele>316</ele>
        <time>2021-11-13T15:45:19.073Z</time>
      </trkpt>
      <trkpt lat="44.38822" lon="5.21021">
        <ele>316</ele>
        <time>2021-11-13T15:45:20.073Z</time>
      </trkpt>
      <trkpt lat="44.38823" lon="5.21014">
        <ele>316</ele>
        <time>2021-11-13T15:45:21.073Z</time>
      </trkpt>
      <trkpt lat="44.38825" lon="5.21008">
        <ele>316</ele>
        <time>2021-11-13T15:45:22.073Z</time>
      </trkpt>
      <trkpt lat="44.38826" lon="5.21002">
        <ele>315</ele>
        <time>2021-11-13T15:45:23.073Z</time>
      </trkpt>
      <trkpt lat="44.38827" lon="5.20996">
        <ele>315</ele>
        <time>2021-11-13T15:45:24.073Z</time>
      </trkpt>
      <trkpt lat="44.38828" lon="5.20989">
        <ele>315</ele>
        <time>2021-11-13T15:45:25.073Z</time>
      </trkpt>
      <trkpt lat="44.38828" lon="5.20983">
        <ele>315</ele>
        <time>2021-11-13T15:45:26.073Z</time>
      </trkpt>
      <trkpt lat="44.38829" lon="5.20976">
        <ele>314</ele>
        <time>2021-11-13T15:45:27.073Z</time>
      </trkpt>
      <trkpt lat="44.38829" lon="5.2097">
        <ele>314</ele>
        <time>2021-11-13T15:45:28.072Z</time>
      </trkpt>
      <trkpt lat="44.38829" lon="5.20963">
        <ele>314</ele>
        <time>2021-11-13T15:45:29.073Z</time>
      </trkpt>
      <trkpt lat="44.38828" lon="5.20956">
        <ele>314</ele>
        <time>2021-11-13T15:45:30.073Z</time>
      </trkpt>
      <trkpt lat="44.38828" lon="5.20949">
        <ele>314</ele>
        <time>2021-11-13T15:45:31.073Z</time>
      </trkpt>
      <trkpt lat="44.38828" lon="5.20942">
        <ele>314</ele>
        <time>2021-11-13T15:45:32.073Z</time>
      </trkpt>
      <trkpt lat="44.38827" lon="5.20935">
        <ele>315</ele>
        <time>2021-11-13T15:45:33.072Z</time>
      </trkpt>
      <trkpt lat="44.38827" lon="5.20928">
        <ele>315</ele>
        <time>2021-11-13T15:45:34.073Z</time>
      </trkpt>
      <trkpt lat="44.38827" lon="5.2092">
        <ele>315</ele>
        <time>2021-11-13T15:45:35.073Z</time>
      </trkpt>
      <trkpt lat="44.38826" lon="5.20913">
        <ele>314</ele>
        <time>2021-11-13T15:45:36.072Z</time>
      </trkpt>
      <trkpt lat="44.38825" lon="5.20907">
        <ele>315</ele>
        <time>2021-11-13T15:45:37.073Z</time>
      </trkpt>
      <trkpt lat="44.38825" lon="5.20899">
        <ele>315</ele>
        <time>2021-11-13T15:45:38.073Z</time>
      </trkpt>
      <trkpt lat="44.38824" lon="5.20892">
        <ele>315</ele>
        <time>2021-11-13T15:45:39.072Z</time>
      </trkpt>
      <trkpt lat="44.38823" lon="5.20886">
        <ele>315</ele>
        <time>2021-11-13T15:45:40.073Z</time>
      </trkpt>
      <trkpt lat="44.38823" lon="5.20879">
        <ele>315</ele>
        <time>2021-11-13T15:45:41.073Z</time>
      </trkpt>
      <trkpt lat="44.38822" lon="5.20872">
        <ele>315</ele>
        <time>2021-11-13T15:45:42.072Z</time>
      </trkpt>
      <trkpt lat="44.3882" lon="5.20866">
        <ele>314</ele>
        <time>2021-11-13T15:45:43.073Z</time>
      </trkpt>
      <trkpt lat="44.38818" lon="5.2086">
        <ele>314</ele>
        <time>2021-11-13T15:45:44.073Z</time>
      </trkpt>
      <trkpt lat="44.38815" lon="5.20853">
        <ele>314</ele>
        <time>2021-11-13T15:45:45.072Z</time>
      </trkpt>
      <trkpt lat="44.38812" lon="5.20847">
        <ele>313</ele>
        <time>2021-11-13T15:45:46.073Z</time>
      </trkpt>
      <trkpt lat="44.38809" lon="5.2084">
        <ele>314</ele>
        <time>2021-11-13T15:45:47.072Z</time>
      </trkpt>
      <trkpt lat="44.38806" lon="5.20834">
        <ele>314</ele>
        <time>2021-11-13T15:45:48.073Z</time>
      </trkpt>
      <trkpt lat="44.38803" lon="5.20827">
        <ele>314</ele>
        <time>2021-11-13T15:45:49.073Z</time>
      </trkpt>
      <trkpt lat="44.388" lon="5.20821">
        <ele>313</ele>
        <time>2021-11-13T15:45:50.072Z</time>
      </trkpt>
      <trkpt lat="44.38798" lon="5.20814">
        <ele>312</ele>
        <time>2021-11-13T15:45:51.073Z</time>
      </trkpt>
      <trkpt lat="44.38795" lon="5.20808">
        <ele>312</ele>
        <time>2021-11-13T15:45:52.072Z</time>
      </trkpt>
      <trkpt lat="44.38792" lon="5.20801">
        <ele>312</ele>
        <time>2021-11-13T15:45:53.073Z</time>
      </trkpt>
      <trkpt lat="44.38789" lon="5.20794">
        <ele>312</ele>
        <time>2021-11-13T15:45:54.072Z</time>
      </trkpt>
      <trkpt lat="44.38786" lon="5.20788">
        <ele>312</ele>
        <time>2021-11-13T15:45:55.073Z</time>
      </trkpt>
      <trkpt lat="44.38783" lon="5.20781">
        <ele>311</ele>
        <time>2021-11-13T15:45:56.072Z</time>
      </trkpt>
      <trkpt lat="44.38781" lon="5.20775">
        <ele>311</ele>
        <time>2021-11-13T15:45:57.073Z</time>
      </trkpt>
      <trkpt lat="44.38778" lon="5.20768">
        <ele>311</ele>
        <time>2021-11-13T15:45:58.073Z</time>
      </trkpt>
      <trkpt lat="44.38776" lon="5.20761">
        <ele>310</ele>
        <time>2021-11-13T15:45:59.073Z</time>
      </trkpt>
      <trkpt lat="44.38773" lon="5.20755">
        <ele>310</ele>
        <time>2021-11-13T15:46:00.073Z</time>
      </trkpt>
      <trkpt lat="44.38771" lon="5.20749">
        <ele>310</ele>
        <time>2021-11-13T15:46:01.073Z</time>
      </trkpt>
      <trkpt lat="44.38768" lon="5.20742">
        <ele>309</ele>
        <time>2021-11-13T15:46:02.073Z</time>
      </trkpt>
      <trkpt lat="44.38765" lon="5.20736">
        <ele>309</ele>
        <time>2021-11-13T15:46:03.073Z</time>
      </trkpt>
      <trkpt lat="44.38763" lon="5.20729">
        <ele>309</ele>
        <time>2021-11-13T15:46:04.073Z</time>
      </trkpt>
      <trkpt lat="44.3876" lon="5.20723">
        <ele>309</ele>
        <time>2021-11-13T15:46:05.072Z</time>
      </trkpt>
      <trkpt lat="44.38757" lon="5.20716">
        <ele>309</ele>
        <time>2021-11-13T15:46:06.072Z</time>
      </trkpt>
      <trkpt lat="44.38755" lon="5.2071">
        <ele>309</ele>
        <time>2021-11-13T15:46:07.073Z</time>
      </trkpt>
      <trkpt lat="44.38752" lon="5.20703">
        <ele>309</ele>
        <time>2021-11-13T15:46:08.073Z</time>
      </trkpt>
      <trkpt lat="44.38749" lon="5.20697">
        <ele>309</ele>
        <time>2021-11-13T15:46:09.073Z</time>
      </trkpt>
      <trkpt lat="44.38747" lon="5.2069">
        <ele>309</ele>
        <time>2021-11-13T15:46:10.072Z</time>
      </trkpt>
      <trkpt lat="44.38744" lon="5.20684">
        <ele>309</ele>
        <time>2021-11-13T15:46:11.072Z</time>
      </trkpt>
      <trkpt lat="44.38742" lon="5.20678">
        <ele>309</ele>
        <time>2021-11-13T15:46:12.072Z</time>
      </trkpt>
      <trkpt lat="44.38739" lon="5.20671">
        <ele>309</ele>
        <time>2021-11-13T15:46:13.072Z</time>
      </trkpt>
      <trkpt lat="44.38736" lon="5.20665">
        <ele>309</ele>
        <time>2021-11-13T15:46:14.073Z</time>
      </trkpt>
      <trkpt lat="44.38733" lon="5.20658">
        <ele>309</ele>
        <time>2021-11-13T15:46:15.073Z</time>
      </trkpt>
      <trkpt lat="44.38731" lon="5.20651">
        <ele>309</ele>
        <time>2021-11-13T15:46:16.073Z</time>
      </trkpt>
      <trkpt lat="44.38728" lon="5.20645">
        <ele>309</ele>
        <time>2021-11-13T15:46:17.073Z</time>
      </trkpt>
      <trkpt lat="44.38725" lon="5.20639">
        <ele>309</ele>
        <time>2021-11-13T15:46:18.073Z</time>
      </trkpt>
      <trkpt lat="44.38722" lon="5.20632">
        <ele>309</ele>
        <time>2021-11-13T15:46:19.073Z</time>
      </trkpt>
      <trkpt lat="44.38719" lon="5.20626">
        <ele>309</ele>
        <time>2021-11-13T15:46:20.072Z</time>
      </trkpt>
      <trkpt lat="44.38715" lon="5.20621">
        <ele>309</ele>
        <time>2021-11-13T15:46:21.072Z</time>
      </trkpt>
      <trkpt lat="44.38711" lon="5.20617">
        <ele>310</ele>
        <time>2021-11-13T15:46:22.073Z</time>
      </trkpt>
      <trkpt lat="44.38706" lon="5.20613">
        <ele>310</ele>
        <time>2021-11-13T15:46:23.073Z</time>
      </trkpt>
      <trkpt lat="44.38701" lon="5.20609">
        <ele>310</ele>
        <time>2021-11-13T15:46:24.073Z</time>
      </trkpt>
      <trkpt lat="44.38697" lon="5.20606">
        <ele>310</ele>
        <time>2021-11-13T15:46:25.073Z</time>
      </trkpt>
      <trkpt lat="44.38692" lon="5.20602">
        <ele>310</ele>
        <time>2021-11-13T15:46:26.073Z</time>
      </trkpt>
      <trkpt lat="44.38687" lon="5.20599">
        <ele>310</ele>
        <time>2021-11-13T15:46:27.072Z</time>
      </trkpt>
      <trkpt lat="44.38682" lon="5.20596">
        <ele>310</ele>
        <time>2021-11-13T15:46:28.073Z</time>
      </trkpt>
      <trkpt lat="44.38678" lon="5.20592">
        <ele>310</ele>
        <time>2021-11-13T15:46:29.073Z</time>
      </trkpt>
      <trkpt lat="44.38673" lon="5.20588">
        <ele>309</ele>
        <time>2021-11-13T15:46:30.073Z</time>
      </trkpt>
      <trkpt lat="44.38669" lon="5.20584">
        <ele>309</ele>
        <time>2021-11-13T15:46:31.073Z</time>
      </trkpt>
      <trkpt lat="44.38664" lon="5.2058">
        <ele>308</ele>
        <time>2021-11-13T15:46:32.073Z</time>
      </trkpt>
      <trkpt lat="44.3866" lon="5.20577">
        <ele>308</ele>
        <time>2021-11-13T15:46:33.072Z</time>
      </trkpt>
      <trkpt lat="44.38655" lon="5.20574">
        <ele>308</ele>
        <time>2021-11-13T15:46:34.073Z</time>
      </trkpt>
      <trkpt lat="44.3865" lon="5.2057">
        <ele>308</ele>
        <time>2021-11-13T15:46:35.072Z</time>
      </trkpt>
      <trkpt lat="44.38646" lon="5.20566">
        <ele>308</ele>
        <time>2021-11-13T15:46:36.073Z</time>
      </trkpt>
      <trkpt lat="44.38641" lon="5.20563">
        <ele>308</ele>
        <time>2021-11-13T15:46:37.072Z</time>
      </trkpt>
      <trkpt lat="44.38636" lon="5.20559">
        <ele>309</ele>
        <time>2021-11-13T15:46:38.073Z</time>
      </trkpt>
      <trkpt lat="44.38631" lon="5.20556">
        <ele>309</ele>
        <time>2021-11-13T15:46:39.073Z</time>
      </trkpt>
      <trkpt lat="44.38627" lon="5.20552">
        <ele>309</ele>
        <time>2021-11-13T15:46:40.072Z</time>
      </trkpt>
      <trkpt lat="44.38622" lon="5.20548">
        <ele>309</ele>
        <time>2021-11-13T15:46:41.073Z</time>
      </trkpt>
      <trkpt lat="44.38617" lon="5.20545">
        <ele>308</ele>
        <time>2021-11-13T15:46:42.073Z</time>
      </trkpt>
      <trkpt lat="44.38612" lon="5.20541">
        <ele>308</ele>
        <time>2021-11-13T15:46:43.073Z</time>
      </trkpt>
      <trkpt lat="44.38607" lon="5.20538">
        <ele>308</ele>
        <time>2021-11-13T15:46:44.073Z</time>
      </trkpt>
      <trkpt lat="44.38603" lon="5.20535">
        <ele>308</ele>
        <time>2021-11-13T15:46:45.073Z</time>
      </trkpt>
      <trkpt lat="44.38598" lon="5.20531">
        <ele>309</ele>
        <time>2021-11-13T15:46:46.073Z</time>
      </trkpt>
      <trkpt lat="44.38593" lon="5.20527">
        <ele>309</ele>
        <time>2021-11-13T15:46:47.073Z</time>
      </trkpt>
      <trkpt lat="44.38588" lon="5.20524">
        <ele>309</ele>
        <time>2021-11-13T15:46:48.073Z</time>
      </trkpt>
      <trkpt lat="44.38583" lon="5.2052">
        <ele>309</ele>
        <time>2021-11-13T15:46:49.073Z</time>
      </trkpt>
      <trkpt lat="44.38578" lon="5.20517">
        <ele>308</ele>
        <time>2021-11-13T15:46:50.073Z</time>
      </trkpt>
      <trkpt lat="44.38573" lon="5.20514">
        <ele>308</ele>
        <time>2021-11-13T15:46:51.073Z</time>
      </trkpt>
      <trkpt lat="44.38568" lon="5.2051">
        <ele>308</ele>
        <time>2021-11-13T15:46:52.073Z</time>
      </trkpt>
      <trkpt lat="44.38563" lon="5.20507">
        <ele>307</ele>
        <time>2021-11-13T15:46:53.073Z</time>
      </trkpt>
      <trkpt lat="44.38558" lon="5.20503">
        <ele>308</ele>
        <time>2021-11-13T15:46:54.072Z</time>
      </trkpt>
      <trkpt lat="44.38553" lon="5.205">
        <ele>308</ele>
        <time>2021-11-13T15:46:55.073Z</time>
      </trkpt>
      <trkpt lat="44.38548" lon="5.20497">
        <ele>308</ele>
        <time>2021-11-13T15:46:56.073Z</time>
      </trkpt>
      <trkpt lat="44.38544" lon="5.20494">
        <ele>308</ele>
        <time>2021-11-13T15:46:57.073Z</time>
      </trkpt>
      <trkpt lat="44.38539" lon="5.20491">
        <ele>308</ele>
        <time>2021-11-13T15:46:58.073Z</time>
      </trkpt>
      <trkpt lat="44.38534" lon="5.20488">
        <ele>308</ele>
        <time>2021-11-13T15:46:59.073Z</time>
      </trkpt>
      <trkpt lat="44.38529" lon="5.20485">
        <ele>308</ele>
        <time>2021-11-13T15:47:00.073Z</time>
      </trkpt>
      <trkpt lat="44.38523" lon="5.20483">
        <ele>308</ele>
        <time>2021-11-13T15:47:01.073Z</time>
      </trkpt>
      <trkpt lat="44.38518" lon="5.20482">
        <ele>308</ele>
        <time>2021-11-13T15:47:02.072Z</time>
      </trkpt>
      <trkpt lat="44.38513" lon="5.20481">
        <ele>308</ele>
        <time>2021-11-13T15:47:03.072Z</time>
      </trkpt>
      <trkpt lat="44.38507" lon="5.20482">
        <ele>308</ele>
        <time>2021-11-13T15:47:04.072Z</time>
      </trkpt>
      <trkpt lat="44.38502" lon="5.20483">
        <ele>308</ele>
        <time>2021-11-13T15:47:05.073Z</time>
      </trkpt>
      <trkpt lat="44.38498" lon="5.20486">
        <ele>308</ele>
        <time>2021-11-13T15:47:06.073Z</time>
      </trkpt>
      <trkpt lat="44.38493" lon="5.20488">
        <ele>308</ele>
        <time>2021-11-13T15:47:07.073Z</time>
      </trkpt>
      <trkpt lat="44.38489" lon="5.20491">
        <ele>308</ele>
        <time>2021-11-13T15:47:08.072Z</time>
      </trkpt>
      <trkpt lat="44.38484" lon="5.20492">
        <ele>308</ele>
        <time>2021-11-13T15:47:09.073Z</time>
      </trkpt>
      <trkpt lat="44.38479" lon="5.20493">
        <ele>308</ele>
        <time>2021-11-13T15:47:10.072Z</time>
      </trkpt>
      <trkpt lat="44.38474" lon="5.20493">
        <ele>308</ele>
        <time>2021-11-13T15:47:11.073Z</time>
      </trkpt>
      <trkpt lat="44.3847" lon="5.20491">
        <ele>308</ele>
        <time>2021-11-13T15:47:12.073Z</time>
      </trkpt>
      <trkpt lat="44.38464" lon="5.20488">
        <ele>308</ele>
        <time>2021-11-13T15:47:13.073Z</time>
      </trkpt>
      <trkpt lat="44.3846" lon="5.20485">
        <ele>308</ele>
        <time>2021-11-13T15:47:14.073Z</time>
      </trkpt>
      <trkpt lat="44.38455" lon="5.20482">
        <ele>308</ele>
        <time>2021-11-13T15:47:15.073Z</time>
      </trkpt>
      <trkpt lat="44.3845" lon="5.20479">
        <ele>307</ele>
        <time>2021-11-13T15:47:16.073Z</time>
      </trkpt>
      <trkpt lat="44.38445" lon="5.20477">
        <ele>307</ele>
        <time>2021-11-13T15:47:17.073Z</time>
      </trkpt>
      <trkpt lat="44.38441" lon="5.20474">
        <ele>307</ele>
        <time>2021-11-13T15:47:18.073Z</time>
      </trkpt>
      <trkpt lat="44.38436" lon="5.20471">
        <ele>308</ele>
        <time>2021-11-13T15:47:19.073Z</time>
      </trkpt>
      <trkpt lat="44.38431" lon="5.20468">
        <ele>308</ele>
        <time>2021-11-13T15:47:20.073Z</time>
      </trkpt>
      <trkpt lat="44.38426" lon="5.20465">
        <ele>308</ele>
        <time>2021-11-13T15:47:21.073Z</time>
      </trkpt>
      <trkpt lat="44.38422" lon="5.20462">
        <ele>309</ele>
        <time>2021-11-13T15:47:22.073Z</time>
      </trkpt>
      <trkpt lat="44.38418" lon="5.20458">
        <ele>309</ele>
        <time>2021-11-13T15:47:23.072Z</time>
      </trkpt>
      <trkpt lat="44.38413" lon="5.20454">
        <ele>309</ele>
        <time>2021-11-13T15:47:24.073Z</time>
      </trkpt>
      <trkpt lat="44.38409" lon="5.2045">
        <ele>309</ele>
        <time>2021-11-13T15:47:25.073Z</time>
      </trkpt>
      <trkpt lat="44.38405" lon="5.20445">
        <ele>308</ele>
        <time>2021-11-13T15:47:26.072Z</time>
      </trkpt>
      <trkpt lat="44.384" lon="5.20441">
        <ele>308</ele>
        <time>2021-11-13T15:47:27.073Z</time>
      </trkpt>
      <trkpt lat="44.38396" lon="5.20437">
        <ele>308</ele>
        <time>2021-11-13T15:47:28.072Z</time>
      </trkpt>
      <trkpt lat="44.38391" lon="5.20432">
        <ele>308</ele>
        <time>2021-11-13T15:47:29.073Z</time>
      </trkpt>
      <trkpt lat="44.38387" lon="5.20429">
        <ele>308</ele>
        <time>2021-11-13T15:47:30.072Z</time>
      </trkpt>
      <trkpt lat="44.38382" lon="5.20425">
        <ele>308</ele>
        <time>2021-11-13T15:47:31.073Z</time>
      </trkpt>
      <trkpt lat="44.38377" lon="5.20422">
        <ele>307</ele>
        <time>2021-11-13T15:47:32.073Z</time>
      </trkpt>
      <trkpt lat="44.38372" lon="5.20419">
        <ele>308</ele>
        <time>2021-11-13T15:47:33.073Z</time>
      </trkpt>
      <trkpt lat="44.38368" lon="5.20417">
        <ele>308</ele>
        <time>2021-11-13T15:47:34.073Z</time>
      </trkpt>
      <trkpt lat="44.38363" lon="5.20414">
        <ele>308</ele>
        <time>2021-11-13T15:47:35.073Z</time>
      </trkpt>
      <trkpt lat="44.38358" lon="5.20411">
        <ele>308</ele>
        <time>2021-11-13T15:47:36.073Z</time>
      </trkpt>
      <trkpt lat="44.38353" lon="5.20407">
        <ele>308</ele>
        <time>2021-11-13T15:47:37.073Z</time>
      </trkpt>
      <trkpt lat="44.38349" lon="5.20404">
        <ele>308</ele>
        <time>2021-11-13T15:47:38.073Z</time>
      </trkpt>
      <trkpt lat="44.38345" lon="5.204">
        <ele>308</ele>
        <time>2021-11-13T15:47:39.073Z</time>
      </trkpt>
      <trkpt lat="44.38341" lon="5.20396">
        <ele>308</ele>
        <time>2021-11-13T15:47:40.072Z</time>
      </trkpt>
      <trkpt lat="44.38337" lon="5.20392">
        <ele>308</ele>
        <time>2021-11-13T15:47:41.073Z</time>
      </trkpt>
      <trkpt lat="44.38333" lon="5.20388">
        <ele>308</ele>
        <time>2021-11-13T15:47:42.073Z</time>
      </trkpt>
      <trkpt lat="44.38329" lon="5.20383">
        <ele>308</ele>
        <time>2021-11-13T15:47:43.073Z</time>
      </trkpt>
      <trkpt lat="44.38325" lon="5.20379">
        <ele>308</ele>
        <time>2021-11-13T15:47:44.073Z</time>
      </trkpt>
      <trkpt lat="44.38321" lon="5.20376">
        <ele>308</ele>
        <time>2021-11-13T15:47:45.072Z</time>
      </trkpt>
      <trkpt lat="44.38318" lon="5.20374">
        <ele>308</ele>
        <time>2021-11-13T15:47:46.073Z</time>
      </trkpt>
      <trkpt lat="44.38314" lon="5.20372">
        <ele>309</ele>
        <time>2021-11-13T15:47:47.072Z</time>
      </trkpt>
      <trkpt lat="44.38311" lon="5.20371">
        <ele>309</ele>
        <time>2021-11-13T15:47:48.073Z</time>
      </trkpt>
      <trkpt lat="44.38308" lon="5.20371">
        <ele>309</ele>
        <time>2021-11-13T15:47:49.073Z</time>
      </trkpt>
      <trkpt lat="44.38305" lon="5.20371">
        <ele>309</ele>
        <time>2021-11-13T15:47:50.073Z</time>
      </trkpt>
      <trkpt lat="44.38302" lon="5.20373">
        <ele>309</ele>
        <time>2021-11-13T15:47:51.072Z</time>
      </trkpt>
      <trkpt lat="44.383" lon="5.20374">
        <ele>309</ele>
        <time>2021-11-13T15:47:52.073Z</time>
      </trkpt>
      <trkpt lat="44.38298" lon="5.20376">
        <ele>310</ele>
        <time>2021-11-13T15:47:53.073Z</time>
      </trkpt>
      <trkpt lat="44.38296" lon="5.20379">
        <ele>310</ele>
        <time>2021-11-13T15:47:54.073Z</time>
      </trkpt>
      <trkpt lat="44.38294" lon="5.20381">
        <ele>310</ele>
        <time>2021-11-13T15:47:55.072Z</time>
      </trkpt>
      <trkpt lat="44.38292" lon="5.20384">
        <ele>311</ele>
        <time>2021-11-13T15:47:56.072Z</time>
      </trkpt>
      <trkpt lat="44.3829" lon="5.20387">
        <ele>311</ele>
        <time>2021-11-13T15:47:57.072Z</time>
      </trkpt>
      <trkpt lat="44.38288" lon="5.2039">
        <ele>311</ele>
        <time>2021-11-13T15:47:58.073Z</time>
      </trkpt>
      <trkpt lat="44.38285" lon="5.20393">
        <ele>312</ele>
        <time>2021-11-13T15:47:59.072Z</time>
      </trkpt>
      <trkpt lat="44.38283" lon="5.20395">
        <ele>312</ele>
        <time>2021-11-13T15:48:00.073Z</time>
      </trkpt>
      <trkpt lat="44.3828" lon="5.20398">
        <ele>312</ele>
        <time>2021-11-13T15:48:01.073Z</time>
      </trkpt>
      <trkpt lat="44.38277" lon="5.20401">
        <ele>312</ele>
        <time>2021-11-13T15:48:02.073Z</time>
      </trkpt>
      <trkpt lat="44.38274" lon="5.20403">
        <ele>313</ele>
        <time>2021-11-13T15:48:03.073Z</time>
      </trkpt>
      <trkpt lat="44.38272" lon="5.20405">
        <ele>314</ele>
        <time>2021-11-13T15:48:04.073Z</time>
      </trkpt>
      <trkpt lat="44.38269" lon="5.20408">
        <ele>314</ele>
        <time>2021-11-13T15:48:05.073Z</time>
      </trkpt>
      <trkpt lat="44.38267" lon="5.2041">
        <ele>315</ele>
        <time>2021-11-13T15:48:06.073Z</time>
      </trkpt>
      <trkpt lat="44.38264" lon="5.20411">
        <ele>315</ele>
        <time>2021-11-13T15:48:07.073Z</time>
      </trkpt>
      <trkpt lat="44.38261" lon="5.20412">
        <ele>315</ele>
        <time>2021-11-13T15:48:08.073Z</time>
      </trkpt>
      <trkpt lat="44.38259" lon="5.20412">
        <ele>315</ele>
        <time>2021-11-13T15:48:09.073Z</time>
      </trkpt>
      <trkpt lat="44.38257" lon="5.20411">
        <ele>315</ele>
        <time>2021-11-13T15:48:10.073Z</time>
      </trkpt>
      <trkpt lat="44.38256" lon="5.2041">
        <ele>315</ele>
        <time>2021-11-13T15:48:11.072Z</time>
      </trkpt>
      <trkpt lat="44.38255" lon="5.20407">
        <ele>315</ele>
        <time>2021-11-13T15:48:12.073Z</time>
      </trkpt>
      <trkpt lat="44.38255" lon="5.20404">
        <ele>316</ele>
        <time>2021-11-13T15:48:13.073Z</time>
      </trkpt>
      <trkpt lat="44.38256" lon="5.204">
        <ele>316</ele>
        <time>2021-11-13T15:48:14.072Z</time>
      </trkpt>
      <trkpt lat="44.38256" lon="5.20396">
        <ele>316</ele>
        <time>2021-11-13T15:48:15.073Z</time>
      </trkpt>
      <trkpt lat="44.38257" lon="5.20391">
        <ele>317</ele>
        <time>2021-11-13T15:48:16.073Z</time>
      </trkpt>
      <trkpt lat="44.38257" lon="5.20387">
        <ele>317</ele>
        <time>2021-11-13T15:48:17.073Z</time>
      </trkpt>
      <trkpt lat="44.38257" lon="5.20382">
        <ele>317</ele>
        <time>2021-11-13T15:48:18.072Z</time>
      </trkpt>
      <trkpt lat="44.38257" lon="5.20378">
        <ele>317</ele>
        <time>2021-11-13T15:48:19.072Z</time>
      </trkpt>
      <trkpt lat="44.38257" lon="5.20374">
        <ele>317</ele>
        <time>2021-11-13T15:48:20.073Z</time>
      </trkpt>
      <trkpt lat="44.38257" lon="5.2037">
        <ele>317</ele>
        <time>2021-11-13T15:48:21.073Z</time>
      </trkpt>
      <trkpt lat="44.38258" lon="5.20366">
        <ele>317</ele>
        <time>2021-11-13T15:48:22.073Z</time>
      </trkpt>
      <trkpt lat="44.38257" lon="5.20362">
        <ele>317</ele>
        <time>2021-11-13T15:48:23.073Z</time>
      </trkpt>
      <trkpt lat="44.38258" lon="5.20359">
        <ele>317</ele>
        <time>2021-11-13T15:48:24.072Z</time>
      </trkpt>
      <trkpt lat="44.38258" lon="5.20355">
        <ele>316</ele>
        <time>2021-11-13T15:48:25.073Z</time>
      </trkpt>
      <trkpt lat="44.38257" lon="5.20351">
        <ele>316</ele>
        <time>2021-11-13T15:48:26.073Z</time>
      </trkpt>
      <trkpt lat="44.38257" lon="5.20347">
        <ele>317</ele>
        <time>2021-11-13T15:48:27.073Z</time>
      </trkpt>
      <trkpt lat="44.38257" lon="5.20343">
        <ele>317</ele>
        <time>2021-11-13T15:48:28.072Z</time>
      </trkpt>
      <trkpt lat="44.38257" lon="5.20339">
        <ele>317</ele>
        <time>2021-11-13T15:48:29.073Z</time>
      </trkpt>
      <trkpt lat="44.38256" lon="5.20335">
        <ele>317</ele>
        <time>2021-11-13T15:48:30.072Z</time>
      </trkpt>
      <trkpt lat="44.38256" lon="5.20331">
        <ele>317</ele>
        <time>2021-11-13T15:48:31.072Z</time>
      </trkpt>
      <trkpt lat="44.38255" lon="5.20326">
        <ele>317</ele>
        <time>2021-11-13T15:48:32.073Z</time>
      </trkpt>
      <trkpt lat="44.38255" lon="5.20322">
        <ele>316</ele>
        <time>2021-11-13T15:48:33.073Z</time>
      </trkpt>
      <trkpt lat="44.38255" lon="5.20318">
        <ele>316</ele>
        <time>2021-11-13T15:48:34.072Z</time>
      </trkpt>
      <trkpt lat="44.38255" lon="5.20314">
        <ele>317</ele>
        <time>2021-11-13T15:48:35.072Z</time>
      </trkpt>
      <trkpt lat="44.38254" lon="5.20309">
        <ele>317</ele>
        <time>2021-11-13T15:48:36.073Z</time>
      </trkpt>
      <trkpt lat="44.38254" lon="5.20305">
        <ele>317</ele>
        <time>2021-11-13T15:48:37.073Z</time>
      </trkpt>
      <trkpt lat="44.38254" lon="5.20301">
        <ele>317</ele>
        <time>2021-11-13T15:48:38.072Z</time>
      </trkpt>
      <trkpt lat="44.38254" lon="5.20296">
        <ele>318</ele>
        <time>2021-11-13T15:48:39.072Z</time>
      </trkpt>
      <trkpt lat="44.38253" lon="5.20292">
        <ele>318</ele>
        <time>2021-11-13T15:48:40.073Z</time>
      </trkpt>
      <trkpt lat="44.38253" lon="5.20288">
        <ele>318</ele>
        <time>2021-11-13T15:48:41.073Z</time>
      </trkpt>
      <trkpt lat="44.38253" lon="5.20284">
        <ele>318</ele>
        <time>2021-11-13T15:48:42.073Z</time>
      </trkpt>
      <trkpt lat="44.38253" lon="5.20279">
        <ele>318</ele>
        <time>2021-11-13T15:48:43.072Z</time>
      </trkpt>
      <trkpt lat="44.38253" lon="5.20275">
        <ele>318</ele>
        <time>2021-11-13T15:48:44.073Z</time>
      </trkpt>
      <trkpt lat="44.38253" lon="5.2027">
        <ele>318</ele>
        <time>2021-11-13T15:48:45.073Z</time>
      </trkpt>
      <trkpt lat="44.38252" lon="5.20266">
        <ele>318</ele>
        <time>2021-11-13T15:48:46.073Z</time>
      </trkpt>
      <trkpt lat="44.38252" lon="5.20262">
        <ele>318</ele>
        <time>2021-11-13T15:48:47.073Z</time>
      </trkpt>
      <trkpt lat="44.38252" lon="5.20258">
        <ele>318</ele>
        <time>2021-11-13T15:48:48.073Z</time>
      </trkpt>
      <trkpt lat="44.38251" lon="5.20255">
        <ele>318</ele>
        <time>2021-11-13T15:48:49.072Z</time>
      </trkpt>
      <trkpt lat="44.38251" lon="5.20251">
        <ele>318</ele>
        <time>2021-11-13T15:48:50.073Z</time>
      </trkpt>
      <trkpt lat="44.38251" lon="5.20247">
        <ele>319</ele>
        <time>2021-11-13T15:48:51.072Z</time>
      </trkpt>
      <trkpt lat="44.38251" lon="5.20244">
        <ele>319</ele>
        <time>2021-11-13T15:48:52.073Z</time>
      </trkpt>
      <trkpt lat="44.38251" lon="5.2024">
        <ele>319</ele>
        <time>2021-11-13T15:48:53.072Z</time>
      </trkpt>
      <trkpt lat="44.3825" lon="5.20236">
        <ele>320</ele>
        <time>2021-11-13T15:48:54.073Z</time>
      </trkpt>
      <trkpt lat="44.3825" lon="5.20232">
        <ele>319</ele>
        <time>2021-11-13T15:48:55.073Z</time>
      </trkpt>
      <trkpt lat="44.3825" lon="5.20227">
        <ele>319</ele>
        <time>2021-11-13T15:48:56.072Z</time>
      </trkpt>
      <trkpt lat="44.38249" lon="5.20222">
        <ele>319</ele>
        <time>2021-11-13T15:48:57.073Z</time>
      </trkpt>
      <trkpt lat="44.38248" lon="5.20217">
        <ele>319</ele>
        <time>2021-11-13T15:48:58.072Z</time>
      </trkpt>
      <trkpt lat="44.38248" lon="5.20211">
        <ele>319</ele>
        <time>2021-11-13T15:48:59.073Z</time>
      </trkpt>
      <trkpt lat="44.38247" lon="5.20205">
        <ele>318</ele>
        <time>2021-11-13T15:49:00.072Z</time>
      </trkpt>
      <trkpt lat="44.38246" lon="5.20199">
        <ele>318</ele>
        <time>2021-11-13T15:49:01.072Z</time>
      </trkpt>
      <trkpt lat="44.38246" lon="5.20192">
        <ele>317</ele>
        <time>2021-11-13T15:49:02.073Z</time>
      </trkpt>
      <trkpt lat="44.38245" lon="5.20186">
        <ele>317</ele>
        <time>2021-11-13T15:49:03.073Z</time>
      </trkpt>
      <trkpt lat="44.38244" lon="5.20179">
        <ele>317</ele>
        <time>2021-11-13T15:49:04.072Z</time>
      </trkpt>
      <trkpt lat="44.38242" lon="5.20172">
        <ele>316</ele>
        <time>2021-11-13T15:49:05.072Z</time>
      </trkpt>
      <trkpt lat="44.3824" lon="5.20166">
        <ele>316</ele>
        <time>2021-11-13T15:49:06.073Z</time>
      </trkpt>
      <trkpt lat="44.38238" lon="5.20159">
        <ele>316</ele>
        <time>2021-11-13T15:49:07.073Z</time>
      </trkpt>
      <trkpt lat="44.38236" lon="5.20154">
        <ele>316</ele>
        <time>2021-11-13T15:49:08.073Z</time>
      </trkpt>
      <trkpt lat="44.38234" lon="5.20148">
        <ele>315</ele>
        <time>2021-11-13T15:49:09.072Z</time>
      </trkpt>
      <trkpt lat="44.38232" lon="5.20144">
        <ele>315</ele>
        <time>2021-11-13T15:49:10.072Z</time>
      </trkpt>
      <trkpt lat="44.38229" lon="5.2014">
        <ele>315</ele>
        <time>2021-11-13T15:49:11.073Z</time>
      </trkpt>
      <trkpt lat="44.38227" lon="5.20136">
        <ele>315</ele>
        <time>2021-11-13T15:49:12.073Z</time>
      </trkpt>
      <trkpt lat="44.38225" lon="5.20132">
        <ele>315</ele>
        <time>2021-11-13T15:49:13.073Z</time>
      </trkpt>
      <trkpt lat="44.38222" lon="5.20129">
        <ele>315</ele>
        <time>2021-11-13T15:49:14.072Z</time>
      </trkpt>
      <trkpt lat="44.38219" lon="5.20126">
        <ele>315</ele>
        <time>2021-11-13T15:49:15.073Z</time>
      </trkpt>
      <trkpt lat="44.38216" lon="5.20124">
        <ele>315</ele>
        <time>2021-11-13T15:49:16.073Z</time>
      </trkpt>
      <trkpt lat="44.38213" lon="5.20121">
        <ele>315</ele>
        <time>2021-11-13T15:49:17.073Z</time>
      </trkpt>
      <trkpt lat="44.38211" lon="5.20119">
        <ele>315</ele>
        <time>2021-11-13T15:49:18.073Z</time>
      </trkpt>
      <trkpt lat="44.38208" lon="5.20117">
        <ele>316</ele>
        <time>2021-11-13T15:49:19.072Z</time>
      </trkpt>
      <trkpt lat="44.38206" lon="5.20114">
        <ele>316</ele>
        <time>2021-11-13T15:49:20.072Z</time>
      </trkpt>
      <trkpt lat="44.38204" lon="5.20112">
        <ele>317</ele>
        <time>2021-11-13T15:49:21.072Z</time>
      </trkpt>
      <trkpt lat="44.38202" lon="5.2011">
        <ele>317</ele>
        <time>2021-11-13T15:49:22.073Z</time>
      </trkpt>
      <trkpt lat="44.382" lon="5.20107">
        <ele>317</ele>
        <time>2021-11-13T15:49:23.073Z</time>
      </trkpt>
      <trkpt lat="44.38198" lon="5.20104">
        <ele>317</ele>
        <time>2021-11-13T15:49:24.073Z</time>
      </trkpt>
      <trkpt lat="44.38195" lon="5.20101">
        <ele>317</ele>
        <time>2021-11-13T15:49:25.072Z</time>
      </trkpt>
      <trkpt lat="44.38194" lon="5.20097">
        <ele>318</ele>
        <time>2021-11-13T15:49:26.072Z</time>
      </trkpt>
      <trkpt lat="44.38192" lon="5.20093">
        <ele>318</ele>
        <time>2021-11-13T15:49:27.073Z</time>
      </trkpt>
      <trkpt lat="44.3819" lon="5.20089">
        <ele>319</ele>
        <time>2021-11-13T15:49:28.073Z</time>
      </trkpt>
      <trkpt lat="44.38189" lon="5.20085">
        <ele>319</ele>
        <time>2021-11-13T15:49:29.073Z</time>
      </trkpt>
      <trkpt lat="44.38187" lon="5.2008">
        <ele>319</ele>
        <time>2021-11-13T15:49:30.073Z</time>
      </trkpt>
      <trkpt lat="44.38185" lon="5.20075">
        <ele>320</ele>
        <time>2021-11-13T15:49:31.072Z</time>
      </trkpt>
      <trkpt lat="44.38183" lon="5.2007">
        <ele>320</ele>
        <time>2021-11-13T15:49:32.073Z</time>
      </trkpt>
      <trkpt lat="44.38181" lon="5.20065">
        <ele>320</ele>
        <time>2021-11-13T15:49:33.073Z</time>
      </trkpt>
      <trkpt lat="44.38179" lon="5.20059">
        <ele>320</ele>
        <time>2021-11-13T15:49:34.073Z</time>
      </trkpt>
      <trkpt lat="44.38177" lon="5.20054">
        <ele>320</ele>
        <time>2021-11-13T15:49:35.073Z</time>
      </trkpt>
      <trkpt lat="44.38176" lon="5.20049">
        <ele>320</ele>
        <time>2021-11-13T15:49:36.073Z</time>
      </trkpt>
      <trkpt lat="44.38174" lon="5.20043">
        <ele>320</ele>
        <time>2021-11-13T15:49:37.073Z</time>
      </trkpt>
      <trkpt lat="44.38172" lon="5.20037">
        <ele>320</ele>
        <time>2021-11-13T15:49:38.073Z</time>
      </trkpt>
      <trkpt lat="44.3817" lon="5.20029">
        <ele>320</ele>
        <time>2021-11-13T15:49:39.073Z</time>
      </trkpt>
      <trkpt lat="44.38168" lon="5.20024">
        <ele>319</ele>
        <time>2021-11-13T15:49:40.072Z</time>
      </trkpt>
      <trkpt lat="44.38167" lon="5.20017">
        <ele>319</ele>
        <time>2021-11-13T15:49:41.072Z</time>
      </trkpt>
      <trkpt lat="44.38165" lon="5.2001">
        <ele>319</ele>
        <time>2021-11-13T15:49:42.073Z</time>
      </trkpt>
      <trkpt lat="44.38162" lon="5.20003">
        <ele>319</ele>
        <time>2021-11-13T15:49:43.073Z</time>
      </trkpt>
      <trkpt lat="44.38161" lon="5.19995">
        <ele>319</ele>
        <time>2021-11-13T15:49:44.073Z</time>
      </trkpt>
      <trkpt lat="44.38159" lon="5.19988">
        <ele>320</ele>
        <time>2021-11-13T15:49:45.072Z</time>
      </trkpt>
      <trkpt lat="44.38157" lon="5.1998">
        <ele>320</ele>
        <time>2021-11-13T15:49:46.073Z</time>
      </trkpt>
      <trkpt lat="44.38156" lon="5.19973">
        <ele>320</ele>
        <time>2021-11-13T15:49:47.073Z</time>
      </trkpt>
      <trkpt lat="44.38154" lon="5.19966">
        <ele>320</ele>
        <time>2021-11-13T15:49:48.073Z</time>
      </trkpt>
      <trkpt lat="44.38152" lon="5.19959">
        <ele>321</ele>
        <time>2021-11-13T15:49:49.072Z</time>
      </trkpt>
      <trkpt lat="44.3815" lon="5.19952">
        <ele>321</ele>
        <time>2021-11-13T15:49:50.072Z</time>
      </trkpt>
      <trkpt lat="44.38147" lon="5.19945">
        <ele>321</ele>
        <time>2021-11-13T15:49:51.072Z</time>
      </trkpt>
      <trkpt lat="44.38145" lon="5.19939">
        <ele>321</ele>
        <time>2021-11-13T15:49:52.073Z</time>
      </trkpt>
      <trkpt lat="44.38142" lon="5.19933">
        <ele>321</ele>
        <time>2021-11-13T15:49:53.073Z</time>
      </trkpt>
      <trkpt lat="44.38139" lon="5.19929">
        <ele>321</ele>
        <time>2021-11-13T15:49:54.072Z</time>
      </trkpt>
      <trkpt lat="44.38135" lon="5.19925">
        <ele>321</ele>
        <time>2021-11-13T15:49:55.072Z</time>
      </trkpt>
      <trkpt lat="44.38131" lon="5.19922">
        <ele>322</ele>
        <time>2021-11-13T15:49:56.073Z</time>
      </trkpt>
      <trkpt lat="44.38126" lon="5.19919">
        <ele>322</ele>
        <time>2021-11-13T15:49:57.073Z</time>
      </trkpt>
      <trkpt lat="44.38122" lon="5.19917">
        <ele>321</ele>
        <time>2021-11-13T15:49:58.072Z</time>
      </trkpt>
      <trkpt lat="44.38117" lon="5.19915">
        <ele>321</ele>
        <time>2021-11-13T15:49:59.073Z</time>
      </trkpt>
      <trkpt lat="44.38113" lon="5.19914">
        <ele>321</ele>
        <time>2021-11-13T15:50:00.073Z</time>
      </trkpt>
      <trkpt lat="44.38108" lon="5.19912">
        <ele>321</ele>
        <time>2021-11-13T15:50:01.072Z</time>
      </trkpt>
      <trkpt lat="44.38104" lon="5.1991">
        <ele>320</ele>
        <time>2021-11-13T15:50:02.073Z</time>
      </trkpt>
      <trkpt lat="44.38099" lon="5.19908">
        <ele>320</ele>
        <time>2021-11-13T15:50:03.073Z</time>
      </trkpt>
      <trkpt lat="44.38094" lon="5.19907">
        <ele>320</ele>
        <time>2021-11-13T15:50:04.073Z</time>
      </trkpt>
      <trkpt lat="44.38089" lon="5.19907">
        <ele>319</ele>
        <time>2021-11-13T15:50:05.073Z</time>
      </trkpt>
      <trkpt lat="44.38084" lon="5.19907">
        <ele>319</ele>
        <time>2021-11-13T15:50:06.073Z</time>
      </trkpt>
      <trkpt lat="44.38078" lon="5.19906">
        <ele>318</ele>
        <time>2021-11-13T15:50:07.073Z</time>
      </trkpt>
      <trkpt lat="44.38074" lon="5.19906">
        <ele>317</ele>
        <time>2021-11-13T15:50:08.073Z</time>
      </trkpt>
      <trkpt lat="44.3807" lon="5.19906">
        <ele>317</ele>
        <time>2021-11-13T15:50:09.073Z</time>
      </trkpt>
      <trkpt lat="44.38064" lon="5.19905">
        <ele>317</ele>
        <time>2021-11-13T15:50:10.073Z</time>
      </trkpt>
      <trkpt lat="44.3806" lon="5.19906">
        <ele>317</ele>
        <time>2021-11-13T15:50:11.073Z</time>
      </trkpt>
      <trkpt lat="44.38056" lon="5.19906">
        <ele>317</ele>
        <time>2021-11-13T15:50:12.073Z</time>
      </trkpt>
      <trkpt lat="44.38051" lon="5.19907">
        <ele>317</ele>
        <time>2021-11-13T15:50:13.073Z</time>
      </trkpt>
      <trkpt lat="44.38045" lon="5.19908">
        <ele>317</ele>
        <time>2021-11-13T15:50:14.073Z</time>
      </trkpt>
      <trkpt lat="44.38042" lon="5.19909">
        <ele>317</ele>
        <time>2021-11-13T15:50:15.073Z</time>
      </trkpt>
      <trkpt lat="44.38036" lon="5.19909">
        <ele>317</ele>
        <time>2021-11-13T15:50:16.073Z</time>
      </trkpt>
      <trkpt lat="44.38032" lon="5.1991">
        <ele>316</ele>
        <time>2021-11-13T15:50:17.073Z</time>
      </trkpt>
      <trkpt lat="44.38027" lon="5.1991">
        <ele>316</ele>
        <time>2021-11-13T15:50:18.073Z</time>
      </trkpt>
      <trkpt lat="44.38021" lon="5.19908">
        <ele>316</ele>
        <time>2021-11-13T15:50:19.073Z</time>
      </trkpt>
      <trkpt lat="44.38016" lon="5.19906">
        <ele>316</ele>
        <time>2021-11-13T15:50:20.072Z</time>
      </trkpt>
      <trkpt lat="44.38012" lon="5.19903">
        <ele>316</ele>
        <time>2021-11-13T15:50:21.073Z</time>
      </trkpt>
      <trkpt lat="44.38008" lon="5.19898">
        <ele>316</ele>
        <time>2021-11-13T15:50:22.073Z</time>
      </trkpt>
      <trkpt lat="44.38005" lon="5.19892">
        <ele>316</ele>
        <time>2021-11-13T15:50:23.073Z</time>
      </trkpt>
      <trkpt lat="44.38002" lon="5.19885">
        <ele>317</ele>
        <time>2021-11-13T15:50:24.073Z</time>
      </trkpt>
      <trkpt lat="44.38001" lon="5.19878">
        <ele>317</ele>
        <time>2021-11-13T15:50:25.073Z</time>
      </trkpt>
      <trkpt lat="44.37999" lon="5.19871">
        <ele>317</ele>
        <time>2021-11-13T15:50:26.073Z</time>
      </trkpt>
      <trkpt lat="44.37998" lon="5.19864">
        <ele>317</ele>
        <time>2021-11-13T15:50:27.073Z</time>
      </trkpt>
      <trkpt lat="44.37996" lon="5.19855">
        <ele>317</ele>
        <time>2021-11-13T15:50:28.073Z</time>
      </trkpt>
      <trkpt lat="44.37994" lon="5.19848">
        <ele>317</ele>
        <time>2021-11-13T15:50:29.073Z</time>
      </trkpt>
      <trkpt lat="44.37992" lon="5.19843">
        <ele>317</ele>
        <time>2021-11-13T15:50:30.073Z</time>
      </trkpt>
      <trkpt lat="44.37989" lon="5.19836">
        <ele>318</ele>
        <time>2021-11-13T15:50:31.073Z</time>
      </trkpt>
      <trkpt lat="44.37986" lon="5.1983">
        <ele>318</ele>
        <time>2021-11-13T15:50:32.072Z</time>
      </trkpt>
      <trkpt lat="44.37983" lon="5.19824">
        <ele>318</ele>
        <time>2021-11-13T15:50:33.072Z</time>
      </trkpt>
      <trkpt lat="44.37979" lon="5.19817">
        <ele>318</ele>
        <time>2021-11-13T15:50:34.073Z</time>
      </trkpt>
      <trkpt lat="44.37976" lon="5.19813">
        <ele>318</ele>
        <time>2021-11-13T15:50:35.072Z</time>
      </trkpt>
      <trkpt lat="44.37973" lon="5.19807">
        <ele>318</ele>
        <time>2021-11-13T15:50:36.073Z</time>
      </trkpt>
      <trkpt lat="44.37969" lon="5.19802">
        <ele>318</ele>
        <time>2021-11-13T15:50:37.073Z</time>
      </trkpt>
      <trkpt lat="44.37965" lon="5.19797">
        <ele>318</ele>
        <time>2021-11-13T15:50:38.073Z</time>
      </trkpt>
      <trkpt lat="44.37962" lon="5.19792">
        <ele>318</ele>
        <time>2021-11-13T15:50:39.073Z</time>
      </trkpt>
      <trkpt lat="44.37958" lon="5.19786">
        <ele>318</ele>
        <time>2021-11-13T15:50:40.073Z</time>
      </trkpt>
      <trkpt lat="44.37954" lon="5.19781">
        <ele>318</ele>
        <time>2021-11-13T15:50:41.072Z</time>
      </trkpt>
      <trkpt lat="44.37949" lon="5.19776">
        <ele>318</ele>
        <time>2021-11-13T15:50:42.073Z</time>
      </trkpt>
      <trkpt lat="44.37945" lon="5.1977">
        <ele>318</ele>
        <time>2021-11-13T15:50:43.072Z</time>
      </trkpt>
      <trkpt lat="44.37941" lon="5.19764">
        <ele>319</ele>
        <time>2021-11-13T15:50:44.073Z</time>
      </trkpt>
      <trkpt lat="44.37938" lon="5.19759">
        <ele>319</ele>
        <time>2021-11-13T15:50:45.072Z</time>
      </trkpt>
      <trkpt lat="44.37934" lon="5.19754">
        <ele>319</ele>
        <time>2021-11-13T15:50:46.073Z</time>
      </trkpt>
      <trkpt lat="44.3793" lon="5.19749">
        <ele>319</ele>
        <time>2021-11-13T15:50:47.073Z</time>
      </trkpt>
      <trkpt lat="44.37927" lon="5.19744">
        <ele>319</ele>
        <time>2021-11-13T15:50:48.073Z</time>
      </trkpt>
      <trkpt lat="44.37923" lon="5.19739">
        <ele>319</ele>
        <time>2021-11-13T15:50:49.072Z</time>
      </trkpt>
      <trkpt lat="44.3792" lon="5.19734">
        <ele>320</ele>
        <time>2021-11-13T15:50:50.073Z</time>
      </trkpt>
      <trkpt lat="44.37916" lon="5.1973">
        <ele>320</ele>
        <time>2021-11-13T15:50:51.072Z</time>
      </trkpt>
      <trkpt lat="44.37913" lon="5.19724">
        <ele>320</ele>
        <time>2021-11-13T15:50:52.073Z</time>
      </trkpt>
      <trkpt lat="44.37909" lon="5.19719">
        <ele>320</ele>
        <time>2021-11-13T15:50:53.073Z</time>
      </trkpt>
      <trkpt lat="44.37905" lon="5.19713">
        <ele>319</ele>
        <time>2021-11-13T15:50:54.073Z</time>
      </trkpt>
      <trkpt lat="44.37901" lon="5.19707">
        <ele>319</ele>
        <time>2021-11-13T15:50:55.073Z</time>
      </trkpt>
      <trkpt lat="44.37896" lon="5.19701">
        <ele>319</ele>
        <time>2021-11-13T15:50:56.073Z</time>
      </trkpt>
      <trkpt lat="44.37892" lon="5.19694">
        <ele>319</ele>
        <time>2021-11-13T15:50:57.073Z</time>
      </trkpt>
      <trkpt lat="44.37888" lon="5.19687">
        <ele>318</ele>
        <time>2021-11-13T15:50:58.073Z</time>
      </trkpt>
      <trkpt lat="44.37884" lon="5.1968">
        <ele>318</ele>
        <time>2021-11-13T15:50:59.073Z</time>
      </trkpt>
      <trkpt lat="44.3788" lon="5.19672">
        <ele>318</ele>
        <time>2021-11-13T15:51:00.073Z</time>
      </trkpt>
      <trkpt lat="44.37877" lon="5.19665">
        <ele>318</ele>
        <time>2021-11-13T15:51:01.073Z</time>
      </trkpt>
      <trkpt lat="44.37873" lon="5.19658">
        <ele>318</ele>
        <time>2021-11-13T15:51:02.073Z</time>
      </trkpt>
      <trkpt lat="44.37869" lon="5.19651">
        <ele>317</ele>
        <time>2021-11-13T15:51:03.073Z</time>
      </trkpt>
      <trkpt lat="44.37865" lon="5.19643">
        <ele>317</ele>
        <time>2021-11-13T15:51:04.073Z</time>
      </trkpt>
      <trkpt lat="44.37861" lon="5.19636">
        <ele>316</ele>
        <time>2021-11-13T15:51:05.073Z</time>
      </trkpt>
      <trkpt lat="44.37858" lon="5.19629">
        <ele>316</ele>
        <time>2021-11-13T15:51:06.073Z</time>
      </trkpt>
      <trkpt lat="44.37854" lon="5.19622">
        <ele>315</ele>
        <time>2021-11-13T15:51:07.073Z</time>
      </trkpt>
      <trkpt lat="44.3785" lon="5.19614">
        <ele>315</ele>
        <time>2021-11-13T15:51:08.073Z</time>
      </trkpt>
      <trkpt lat="44.37847" lon="5.19607">
        <ele>315</ele>
        <time>2021-11-13T15:51:09.073Z</time>
      </trkpt>
      <trkpt lat="44.37844" lon="5.19599">
        <ele>314</ele>
        <time>2021-11-13T15:51:10.073Z</time>
      </trkpt>
      <trkpt lat="44.37841" lon="5.19591">
        <ele>314</ele>
        <time>2021-11-13T15:51:11.072Z</time>
      </trkpt>
      <trkpt lat="44.37838" lon="5.19581">
        <ele>314</ele>
        <time>2021-11-13T15:51:12.072Z</time>
      </trkpt>
      <trkpt lat="44.37837" lon="5.19572">
        <ele>313</ele>
        <time>2021-11-13T15:51:13.072Z</time>
      </trkpt>
      <trkpt lat="44.37835" lon="5.19563">
        <ele>313</ele>
        <time>2021-11-13T15:51:14.073Z</time>
      </trkpt>
      <trkpt lat="44.37834" lon="5.19554">
        <ele>313</ele>
        <time>2021-11-13T15:51:15.072Z</time>
      </trkpt>
      <trkpt lat="44.37833" lon="5.19545">
        <ele>312</ele>
        <time>2021-11-13T15:51:16.073Z</time>
      </trkpt>
      <trkpt lat="44.37832" lon="5.19536">
        <ele>312</ele>
        <time>2021-11-13T15:51:17.073Z</time>
      </trkpt>
      <trkpt lat="44.3783" lon="5.19528">
        <ele>312</ele>
        <time>2021-11-13T15:51:18.073Z</time>
      </trkpt>
      <trkpt lat="44.37828" lon="5.1952">
        <ele>311</ele>
        <time>2021-11-13T15:51:19.073Z</time>
      </trkpt>
      <trkpt lat="44.37826" lon="5.19512">
        <ele>311</ele>
        <time>2021-11-13T15:51:20.073Z</time>
      </trkpt>
      <trkpt lat="44.37824" lon="5.19504">
        <ele>311</ele>
        <time>2021-11-13T15:51:21.073Z</time>
      </trkpt>
      <trkpt lat="44.37823" lon="5.19496">
        <ele>310</ele>
        <time>2021-11-13T15:51:22.072Z</time>
      </trkpt>
      <trkpt lat="44.37821" lon="5.19487">
        <ele>310</ele>
        <time>2021-11-13T15:51:23.072Z</time>
      </trkpt>
      <trkpt lat="44.37819" lon="5.19479">
        <ele>310</ele>
        <time>2021-11-13T15:51:24.073Z</time>
      </trkpt>
      <trkpt lat="44.37816" lon="5.1947">
        <ele>310</ele>
        <time>2021-11-13T15:51:25.073Z</time>
      </trkpt>
      <trkpt lat="44.37814" lon="5.19461">
        <ele>310</ele>
        <time>2021-11-13T15:51:26.072Z</time>
      </trkpt>
      <trkpt lat="44.37812" lon="5.19452">
        <ele>310</ele>
        <time>2021-11-13T15:51:27.072Z</time>
      </trkpt>
      <trkpt lat="44.37809" lon="5.19443">
        <ele>310</ele>
        <time>2021-11-13T15:51:28.073Z</time>
      </trkpt>
      <trkpt lat="44.37806" lon="5.19434">
        <ele>310</ele>
        <time>2021-11-13T15:51:29.072Z</time>
      </trkpt>
      <trkpt lat="44.37804" lon="5.19424">
        <ele>310</ele>
        <time>2021-11-13T15:51:30.072Z</time>
      </trkpt>
      <trkpt lat="44.37803" lon="5.19413">
        <ele>310</ele>
        <time>2021-11-13T15:51:31.073Z</time>
      </trkpt>
      <trkpt lat="44.37803" lon="5.19406">
        <ele>310</ele>
        <time>2021-11-13T15:51:32.073Z</time>
      </trkpt>
      <trkpt lat="44.37804" lon="5.19396">
        <ele>310</ele>
        <time>2021-11-13T15:51:33.073Z</time>
      </trkpt>
      <trkpt lat="44.37804" lon="5.19387">
        <ele>309</ele>
        <time>2021-11-13T15:51:34.073Z</time>
      </trkpt>
      <trkpt lat="44.37804" lon="5.19376">
        <ele>309</ele>
        <time>2021-11-13T15:51:35.073Z</time>
      </trkpt>
      <trkpt lat="44.37804" lon="5.19366">
        <ele>308</ele>
        <time>2021-11-13T15:51:36.073Z</time>
      </trkpt>
      <trkpt lat="44.37804" lon="5.19357">
        <ele>308</ele>
        <time>2021-11-13T15:51:37.073Z</time>
      </trkpt>
      <trkpt lat="44.37804" lon="5.19347">
        <ele>307</ele>
        <time>2021-11-13T15:51:38.072Z</time>
      </trkpt>
      <trkpt lat="44.37804" lon="5.19335">
        <ele>307</ele>
        <time>2021-11-13T15:51:39.073Z</time>
      </trkpt>
      <trkpt lat="44.37804" lon="5.19325">
        <ele>306</ele>
        <time>2021-11-13T15:51:40.073Z</time>
      </trkpt>
      <trkpt lat="44.37805" lon="5.19317">
        <ele>305</ele>
        <time>2021-11-13T15:51:41.073Z</time>
      </trkpt>
      <trkpt lat="44.37806" lon="5.19308">
        <ele>305</ele>
        <time>2021-11-13T15:51:42.072Z</time>
      </trkpt>
      <trkpt lat="44.37807" lon="5.19299">
        <ele>304</ele>
        <time>2021-11-13T15:51:43.073Z</time>
      </trkpt>
      <trkpt lat="44.37807" lon="5.1929">
        <ele>303</ele>
        <time>2021-11-13T15:51:44.073Z</time>
      </trkpt>
      <trkpt lat="44.37808" lon="5.19281">
        <ele>302</ele>
        <time>2021-11-13T15:51:45.072Z</time>
      </trkpt>
      <trkpt lat="44.37808" lon="5.19271">
        <ele>301</ele>
        <time>2021-11-13T15:51:46.073Z</time>
      </trkpt>
      <trkpt lat="44.37809" lon="5.19262">
        <ele>300</ele>
        <time>2021-11-13T15:51:47.073Z</time>
      </trkpt>
      <trkpt lat="44.3781" lon="5.19254">
        <ele>300</ele>
        <time>2021-11-13T15:51:48.072Z</time>
      </trkpt>
      <trkpt lat="44.37812" lon="5.19246">
        <ele>299</ele>
        <time>2021-11-13T15:51:49.073Z</time>
      </trkpt>
      <trkpt lat="44.37814" lon="5.19238">
        <ele>299</ele>
        <time>2021-11-13T15:51:50.072Z</time>
      </trkpt>
      <trkpt lat="44.37815" lon="5.1923">
        <ele>298</ele>
        <time>2021-11-13T15:51:51.072Z</time>
      </trkpt>
      <trkpt lat="44.37816" lon="5.19222">
        <ele>298</ele>
        <time>2021-11-13T15:51:52.072Z</time>
      </trkpt>
      <trkpt lat="44.37817" lon="5.19214">
        <ele>298</ele>
        <time>2021-11-13T15:51:53.073Z</time>
      </trkpt>
      <trkpt lat="44.37819" lon="5.19206">
        <ele>298</ele>
        <time>2021-11-13T15:51:54.073Z</time>
      </trkpt>
      <trkpt lat="44.37821" lon="5.19199">
        <ele>298</ele>
        <time>2021-11-13T15:51:55.072Z</time>
      </trkpt>
      <trkpt lat="44.37823" lon="5.19193">
        <ele>299</ele>
        <time>2021-11-13T15:51:56.072Z</time>
      </trkpt>
      <trkpt lat="44.37825" lon="5.19185">
        <ele>299</ele>
        <time>2021-11-13T15:51:57.073Z</time>
      </trkpt>
      <trkpt lat="44.37828" lon="5.19177">
        <ele>300</ele>
        <time>2021-11-13T15:51:58.073Z</time>
      </trkpt>
      <trkpt lat="44.37831" lon="5.1917">
        <ele>300</ele>
        <time>2021-11-13T15:51:59.072Z</time>
      </trkpt>
      <trkpt lat="44.37834" lon="5.19163">
        <ele>301</ele>
        <time>2021-11-13T15:52:00.073Z</time>
      </trkpt>
      <trkpt lat="44.37835" lon="5.19159">
        <ele>301</ele>
        <time>2021-11-13T15:52:01.073Z</time>
      </trkpt>
      <trkpt lat="44.37837" lon="5.19153">
        <ele>302</ele>
        <time>2021-11-13T15:52:02.073Z</time>
      </trkpt>
      <trkpt lat="44.37839" lon="5.19148">
        <ele>302</ele>
        <time>2021-11-13T15:52:03.073Z</time>
      </trkpt>
      <trkpt lat="44.3784" lon="5.19142">
        <ele>303</ele>
        <time>2021-11-13T15:52:04.073Z</time>
      </trkpt>
      <trkpt lat="44.37841" lon="5.19137">
        <ele>303</ele>
        <time>2021-11-13T15:52:05.073Z</time>
      </trkpt>
      <trkpt lat="44.37841" lon="5.19132">
        <ele>303</ele>
        <time>2021-11-13T15:52:06.073Z</time>
      </trkpt>
      <trkpt lat="44.37841" lon="5.19125">
        <ele>304</ele>
        <time>2021-11-13T15:52:07.073Z</time>
      </trkpt>
      <trkpt lat="44.37841" lon="5.19118">
        <ele>304</ele>
        <time>2021-11-13T15:52:08.073Z</time>
      </trkpt>
      <trkpt lat="44.37842" lon="5.19112">
        <ele>305</ele>
        <time>2021-11-13T15:52:09.073Z</time>
      </trkpt>
      <trkpt lat="44.37842" lon="5.19106">
        <ele>305</ele>
        <time>2021-11-13T15:52:10.073Z</time>
      </trkpt>
      <trkpt lat="44.37841" lon="5.191">
        <ele>305</ele>
        <time>2021-11-13T15:52:11.072Z</time>
      </trkpt>
      <trkpt lat="44.3784" lon="5.19093">
        <ele>306</ele>
        <time>2021-11-13T15:52:12.072Z</time>
      </trkpt>
      <trkpt lat="44.37839" lon="5.19088">
        <ele>306</ele>
        <time>2021-11-13T15:52:13.072Z</time>
      </trkpt>
      <trkpt lat="44.37838" lon="5.19083">
        <ele>306</ele>
        <time>2021-11-13T15:52:14.073Z</time>
      </trkpt>
      <trkpt lat="44.37838" lon="5.1908">
        <ele>306</ele>
        <time>2021-11-13T15:52:15.072Z</time>
      </trkpt>
      <trkpt lat="44.37837" lon="5.19077">
        <ele>306</ele>
        <time>2021-11-13T15:52:16.073Z</time>
      </trkpt>
      <trkpt lat="44.37838" lon="5.19074">
        <ele>306</ele>
        <time>2021-11-13T15:52:17.073Z</time>
      </trkpt>
      <trkpt lat="44.37837" lon="5.19071">
        <ele>306</ele>
        <time>2021-11-13T15:52:18.073Z</time>
      </trkpt>
      <trkpt lat="44.37836" lon="5.19069">
        <ele>306</ele>
        <time>2021-11-13T15:52:19.073Z</time>
      </trkpt>
      <trkpt lat="44.37835" lon="5.19066">
        <ele>307</ele>
        <time>2021-11-13T15:52:20.073Z</time>
      </trkpt>
      <trkpt lat="44.37835" lon="5.19064">
        <ele>306</ele>
        <time>2021-11-13T15:52:21.072Z</time>
      </trkpt>
      <trkpt lat="44.37836" lon="5.19062">
        <ele>306</ele>
        <time>2021-11-13T15:52:22.073Z</time>
      </trkpt>
      <trkpt lat="44.37838" lon="5.1906">
        <ele>306</ele>
        <time>2021-11-13T15:52:23.073Z</time>
      </trkpt>
      <trkpt lat="44.37839" lon="5.19058">
        <ele>306</ele>
        <time>2021-11-13T15:52:24.072Z</time>
      </trkpt>
      <trkpt lat="44.37841" lon="5.19056">
        <ele>307</ele>
        <time>2021-11-13T15:52:25.073Z</time>
      </trkpt>
      <trkpt lat="44.37843" lon="5.19054">
        <ele>307</ele>
        <time>2021-11-13T15:52:26.073Z</time>
      </trkpt>
      <trkpt lat="44.37846" lon="5.19052">
        <ele>308</ele>
        <time>2021-11-13T15:52:27.073Z</time>
      </trkpt>
      <trkpt lat="44.37847" lon="5.1905">
        <ele>308</ele>
        <time>2021-11-13T15:52:28.072Z</time>
      </trkpt>
      <trkpt lat="44.37849" lon="5.19047">
        <ele>308</ele>
        <time>2021-11-13T15:52:29.072Z</time>
      </trkpt>
      <trkpt lat="44.37849" lon="5.19045">
        <ele>308</ele>
        <time>2021-11-13T15:52:30.072Z</time>
      </trkpt>
      <trkpt lat="44.37849" lon="5.19041">
        <ele>309</ele>
        <time>2021-11-13T15:52:31.073Z</time>
      </trkpt>
      <trkpt lat="44.37847" lon="5.19038">
        <ele>309</ele>
        <time>2021-11-13T15:52:32.072Z</time>
      </trkpt>
      <trkpt lat="44.37845" lon="5.19035">
        <ele>309</ele>
        <time>2021-11-13T15:52:33.073Z</time>
      </trkpt>
      <trkpt lat="44.37843" lon="5.19032">
        <ele>309</ele>
        <time>2021-11-13T15:52:34.073Z</time>
      </trkpt>
      <trkpt lat="44.37839" lon="5.19027">
        <ele>309</ele>
        <time>2021-11-13T15:52:35.072Z</time>
      </trkpt>
      <trkpt lat="44.37836" lon="5.19024">
        <ele>308</ele>
        <time>2021-11-13T15:52:36.072Z</time>
      </trkpt>
      <trkpt lat="44.37834" lon="5.1902">
        <ele>308</ele>
        <time>2021-11-13T15:52:37.073Z</time>
      </trkpt>
      <trkpt lat="44.37833" lon="5.19016">
        <ele>308</ele>
        <time>2021-11-13T15:52:38.073Z</time>
      </trkpt>
      <trkpt lat="44.37832" lon="5.19011">
        <ele>308</ele>
        <time>2021-11-13T15:52:39.073Z</time>
      </trkpt>
      <trkpt lat="44.37831" lon="5.19006">
        <ele>308</ele>
        <time>2021-11-13T15:52:40.072Z</time>
      </trkpt>
      <trkpt lat="44.37831" lon="5.19">
        <ele>308</ele>
        <time>2021-11-13T15:52:41.073Z</time>
      </trkpt>
      <trkpt lat="44.37831" lon="5.18995">
        <ele>308</ele>
        <time>2021-11-13T15:52:42.073Z</time>
      </trkpt>
      <trkpt lat="44.37831" lon="5.18989">
        <ele>308</ele>
        <time>2021-11-13T15:52:43.073Z</time>
      </trkpt>
      <trkpt lat="44.37832" lon="5.18984">
        <ele>308</ele>
        <time>2021-11-13T15:52:44.073Z</time>
      </trkpt>
      <trkpt lat="44.37832" lon="5.18979">
        <ele>308</ele>
        <time>2021-11-13T15:52:45.073Z</time>
      </trkpt>
      <trkpt lat="44.37833" lon="5.18974">
        <ele>308</ele>
        <time>2021-11-13T15:52:46.073Z</time>
      </trkpt>
      <trkpt lat="44.37834" lon="5.18969">
        <ele>308</ele>
        <time>2021-11-13T15:52:47.073Z</time>
      </trkpt>
      <trkpt lat="44.37834" lon="5.18965">
        <ele>308</ele>
        <time>2021-11-13T15:52:48.073Z</time>
      </trkpt>
      <trkpt lat="44.37835" lon="5.1896">
        <ele>308</ele>
        <time>2021-11-13T15:52:49.073Z</time>
      </trkpt>
      <trkpt lat="44.37835" lon="5.18956">
        <ele>308</ele>
        <time>2021-11-13T15:52:50.073Z</time>
      </trkpt>
      <trkpt lat="44.37834" lon="5.18951">
        <ele>308</ele>
        <time>2021-11-13T15:52:51.073Z</time>
      </trkpt>
      <trkpt lat="44.37833" lon="5.18945">
        <ele>308</ele>
        <time>2021-11-13T15:52:52.072Z</time>
      </trkpt>
      <trkpt lat="44.37832" lon="5.1894">
        <ele>308</ele>
        <time>2021-11-13T15:52:53.072Z</time>
      </trkpt>
      <trkpt lat="44.3783" lon="5.18936">
        <ele>308</ele>
        <time>2021-11-13T15:52:54.073Z</time>
      </trkpt>
      <trkpt lat="44.37829" lon="5.18931">
        <ele>308</ele>
        <time>2021-11-13T15:52:55.073Z</time>
      </trkpt>
      <trkpt lat="44.37828" lon="5.18926">
        <ele>307</ele>
        <time>2021-11-13T15:52:56.073Z</time>
      </trkpt>
      <trkpt lat="44.37826" lon="5.1892">
        <ele>307</ele>
        <time>2021-11-13T15:52:57.072Z</time>
      </trkpt>
      <trkpt lat="44.37824" lon="5.18914">
        <ele>306</ele>
        <time>2021-11-13T15:52:58.072Z</time>
      </trkpt>
      <trkpt lat="44.37822" lon="5.18908">
        <ele>306</ele>
        <time>2021-11-13T15:52:59.073Z</time>
      </trkpt>
      <trkpt lat="44.37819" lon="5.18902">
        <ele>306</ele>
        <time>2021-11-13T15:53:00.073Z</time>
      </trkpt>
      <trkpt lat="44.37818" lon="5.18896">
        <ele>305</ele>
        <time>2021-11-13T15:53:01.073Z</time>
      </trkpt>
      <trkpt lat="44.37816" lon="5.1889">
        <ele>305</ele>
        <time>2021-11-13T15:53:02.073Z</time>
      </trkpt>
      <trkpt lat="44.37814" lon="5.18883">
        <ele>305</ele>
        <time>2021-11-13T15:53:03.073Z</time>
      </trkpt>
      <trkpt lat="44.37811" lon="5.18877">
        <ele>305</ele>
        <time>2021-11-13T15:53:04.072Z</time>
      </trkpt>
      <trkpt lat="44.37809" lon="5.18872">
        <ele>304</ele>
        <time>2021-11-13T15:53:05.072Z</time>
      </trkpt>
      <trkpt lat="44.37807" lon="5.18867">
        <ele>304</ele>
        <time>2021-11-13T15:53:06.073Z</time>
      </trkpt>
      <trkpt lat="44.37805" lon="5.18861">
        <ele>303</ele>
        <time>2021-11-13T15:53:07.073Z</time>
      </trkpt>
      <trkpt lat="44.37804" lon="5.18856">
        <ele>303</ele>
        <time>2021-11-13T15:53:08.073Z</time>
      </trkpt>
      <trkpt lat="44.37802" lon="5.1885">
        <ele>302</ele>
        <time>2021-11-13T15:53:09.072Z</time>
      </trkpt>
      <trkpt lat="44.37799" lon="5.18844">
        <ele>302</ele>
        <time>2021-11-13T15:53:10.073Z</time>
      </trkpt>
      <trkpt lat="44.37797" lon="5.18839">
        <ele>301</ele>
        <time>2021-11-13T15:53:11.073Z</time>
      </trkpt>
      <trkpt lat="44.37795" lon="5.18832">
        <ele>301</ele>
        <time>2021-11-13T15:53:12.073Z</time>
      </trkpt>
      <trkpt lat="44.37792" lon="5.18826">
        <ele>301</ele>
        <time>2021-11-13T15:53:13.072Z</time>
      </trkpt>
      <trkpt lat="44.3779" lon="5.18821">
        <ele>301</ele>
        <time>2021-11-13T15:53:14.073Z</time>
      </trkpt>
      <trkpt lat="44.37787" lon="5.18816">
        <ele>301</ele>
        <time>2021-11-13T15:53:15.073Z</time>
      </trkpt>
      <trkpt lat="44.37785" lon="5.18811">
        <ele>301</ele>
        <time>2021-11-13T15:53:16.072Z</time>
      </trkpt>
      <trkpt lat="44.37783" lon="5.18806">
        <ele>301</ele>
        <time>2021-11-13T15:53:17.073Z</time>
      </trkpt>
      <trkpt lat="44.3778" lon="5.18802">
        <ele>301</ele>
        <time>2021-11-13T15:53:18.072Z</time>
      </trkpt>
      <trkpt lat="44.37779" lon="5.18796">
        <ele>301</ele>
        <time>2021-11-13T15:53:19.073Z</time>
      </trkpt>
      <trkpt lat="44.37778" lon="5.18792">
        <ele>301</ele>
        <time>2021-11-13T15:53:20.073Z</time>
      </trkpt>
      <trkpt lat="44.37776" lon="5.18787">
        <ele>301</ele>
        <time>2021-11-13T15:53:21.072Z</time>
      </trkpt>
      <trkpt lat="44.37774" lon="5.18784">
        <ele>301</ele>
        <time>2021-11-13T15:53:22.072Z</time>
      </trkpt>
      <trkpt lat="44.37772" lon="5.1878">
        <ele>301</ele>
        <time>2021-11-13T15:53:23.073Z</time>
      </trkpt>
      <trkpt lat="44.3777" lon="5.18776">
        <ele>301</ele>
        <time>2021-11-13T15:53:24.073Z</time>
      </trkpt>
      <trkpt lat="44.37768" lon="5.18773">
        <ele>302</ele>
        <time>2021-11-13T15:53:25.073Z</time>
      </trkpt>
      <trkpt lat="44.37766" lon="5.18768">
        <ele>302</ele>
        <time>2021-11-13T15:53:26.072Z</time>
      </trkpt>
      <trkpt lat="44.37764" lon="5.18764">
        <ele>302</ele>
        <time>2021-11-13T15:53:27.073Z</time>
      </trkpt>
      <trkpt lat="44.37763" lon="5.1876">
        <ele>303</ele>
        <time>2021-11-13T15:53:28.073Z</time>
      </trkpt>
      <trkpt lat="44.37763" lon="5.18756">
        <ele>303</ele>
        <time>2021-11-13T15:53:29.072Z</time>
      </trkpt>
      <trkpt lat="44.37764" lon="5.18751">
        <ele>303</ele>
        <time>2021-11-13T15:53:30.072Z</time>
      </trkpt>
      <trkpt lat="44.37766" lon="5.18746">
        <ele>303</ele>
        <time>2021-11-13T15:53:31.073Z</time>
      </trkpt>
      <trkpt lat="44.3777" lon="5.18741">
        <ele>302</ele>
        <time>2021-11-13T15:53:32.073Z</time>
      </trkpt>
      <trkpt lat="44.37773" lon="5.18736">
        <ele>302</ele>
        <time>2021-11-13T15:53:33.073Z</time>
      </trkpt>
      <trkpt lat="44.37777" lon="5.18731">
        <ele>302</ele>
        <time>2021-11-13T15:53:34.072Z</time>
      </trkpt>
      <trkpt lat="44.37781" lon="5.18725">
        <ele>302</ele>
        <time>2021-11-13T15:53:35.073Z</time>
      </trkpt>
      <trkpt lat="44.37785" lon="5.18719">
        <ele>301</ele>
        <time>2021-11-13T15:53:36.072Z</time>
      </trkpt>
      <trkpt lat="44.37789" lon="5.18714">
        <ele>301</ele>
        <time>2021-11-13T15:53:37.073Z</time>
      </trkpt>
      <trkpt lat="44.37793" lon="5.18707">
        <ele>300</ele>
        <time>2021-11-13T15:53:38.073Z</time>
      </trkpt>
      <trkpt lat="44.37795" lon="5.187">
        <ele>300</ele>
        <time>2021-11-13T15:53:39.072Z</time>
      </trkpt>
      <trkpt lat="44.37797" lon="5.18693">
        <ele>299</ele>
        <time>2021-11-13T15:53:40.073Z</time>
      </trkpt>
      <trkpt lat="44.37798" lon="5.18685">
        <ele>299</ele>
        <time>2021-11-13T15:53:41.072Z</time>
      </trkpt>
      <trkpt lat="44.37798" lon="5.18678">
        <ele>299</ele>
        <time>2021-11-13T15:53:42.072Z</time>
      </trkpt>
      <trkpt lat="44.37797" lon="5.18671">
        <ele>298</ele>
        <time>2021-11-13T15:53:43.073Z</time>
      </trkpt>
      <trkpt lat="44.37795" lon="5.18663">
        <ele>298</ele>
        <time>2021-11-13T15:53:44.073Z</time>
      </trkpt>
      <trkpt lat="44.37794" lon="5.18656">
        <ele>298</ele>
        <time>2021-11-13T15:53:45.072Z</time>
      </trkpt>
      <trkpt lat="44.37792" lon="5.1865">
        <ele>298</ele>
        <time>2021-11-13T15:53:46.072Z</time>
      </trkpt>
      <trkpt lat="44.3779" lon="5.18643">
        <ele>298</ele>
        <time>2021-11-13T15:53:47.072Z</time>
      </trkpt>
      <trkpt lat="44.37789" lon="5.18636">
        <ele>298</ele>
        <time>2021-11-13T15:53:48.072Z</time>
      </trkpt>
      <trkpt lat="44.37787" lon="5.1863">
        <ele>298</ele>
        <time>2021-11-13T15:53:49.073Z</time>
      </trkpt>
      <trkpt lat="44.37785" lon="5.18624">
        <ele>299</ele>
        <time>2021-11-13T15:53:50.073Z</time>
      </trkpt>
      <trkpt lat="44.37784" lon="5.18617">
        <ele>299</ele>
        <time>2021-11-13T15:53:51.073Z</time>
      </trkpt>
      <trkpt lat="44.37783" lon="5.18611">
        <ele>299</ele>
        <time>2021-11-13T15:53:52.073Z</time>
      </trkpt>
      <trkpt lat="44.37782" lon="5.18605">
        <ele>299</ele>
        <time>2021-11-13T15:53:53.073Z</time>
      </trkpt>
      <trkpt lat="44.37781" lon="5.18599">
        <ele>299</ele>
        <time>2021-11-13T15:53:54.073Z</time>
      </trkpt>
      <trkpt lat="44.3778" lon="5.18592">
        <ele>299</ele>
        <time>2021-11-13T15:53:55.072Z</time>
      </trkpt>
      <trkpt lat="44.37778" lon="5.18585">
        <ele>300</ele>
        <time>2021-11-13T15:53:56.073Z</time>
      </trkpt>
      <trkpt lat="44.37777" lon="5.18578">
        <ele>300</ele>
        <time>2021-11-13T15:53:57.073Z</time>
      </trkpt>
      <trkpt lat="44.37776" lon="5.18571">
        <ele>300</ele>
        <time>2021-11-13T15:53:58.073Z</time>
      </trkpt>
      <trkpt lat="44.37774" lon="5.18565">
        <ele>300</ele>
        <time>2021-11-13T15:53:59.072Z</time>
      </trkpt>
      <trkpt lat="44.37773" lon="5.18558">
        <ele>300</ele>
        <time>2021-11-13T15:54:00.073Z</time>
      </trkpt>
      <trkpt lat="44.37771" lon="5.18552">
        <ele>300</ele>
        <time>2021-11-13T15:54:01.073Z</time>
      </trkpt>
      <trkpt lat="44.37769" lon="5.18545">
        <ele>301</ele>
        <time>2021-11-13T15:54:02.072Z</time>
      </trkpt>
      <trkpt lat="44.37767" lon="5.18537">
        <ele>301</ele>
        <time>2021-11-13T15:54:03.072Z</time>
      </trkpt>
      <trkpt lat="44.37766" lon="5.18531">
        <ele>301</ele>
        <time>2021-11-13T15:54:04.073Z</time>
      </trkpt>
      <trkpt lat="44.37763" lon="5.18524">
        <ele>302</ele>
        <time>2021-11-13T15:54:05.072Z</time>
      </trkpt>
      <trkpt lat="44.37762" lon="5.18518">
        <ele>302</ele>
        <time>2021-11-13T15:54:06.072Z</time>
      </trkpt>
      <trkpt lat="44.37759" lon="5.18511">
        <ele>303</ele>
        <time>2021-11-13T15:54:07.072Z</time>
      </trkpt>
      <trkpt lat="44.37758" lon="5.18504">
        <ele>303</ele>
        <time>2021-11-13T15:54:08.073Z</time>
      </trkpt>
      <trkpt lat="44.37756" lon="5.18497">
        <ele>303</ele>
        <time>2021-11-13T15:54:09.072Z</time>
      </trkpt>
      <trkpt lat="44.37754" lon="5.1849">
        <ele>303</ele>
        <time>2021-11-13T15:54:10.072Z</time>
      </trkpt>
      <trkpt lat="44.37752" lon="5.18483">
        <ele>304</ele>
        <time>2021-11-13T15:54:11.073Z</time>
      </trkpt>
      <trkpt lat="44.37751" lon="5.18476">
        <ele>304</ele>
        <time>2021-11-13T15:54:12.073Z</time>
      </trkpt>
      <trkpt lat="44.37749" lon="5.18469">
        <ele>305</ele>
        <time>2021-11-13T15:54:13.073Z</time>
      </trkpt>
      <trkpt lat="44.37747" lon="5.18461">
        <ele>305</ele>
        <time>2021-11-13T15:54:14.072Z</time>
      </trkpt>
      <trkpt lat="44.37746" lon="5.18454">
        <ele>305</ele>
        <time>2021-11-13T15:54:15.072Z</time>
      </trkpt>
      <trkpt lat="44.37746" lon="5.18447">
        <ele>305</ele>
        <time>2021-11-13T15:54:16.073Z</time>
      </trkpt>
      <trkpt lat="44.37746" lon="5.18441">
        <ele>305</ele>
        <time>2021-11-13T15:54:17.073Z</time>
      </trkpt>
      <trkpt lat="44.37745" lon="5.18434">
        <ele>305</ele>
        <time>2021-11-13T15:54:18.073Z</time>
      </trkpt>
      <trkpt lat="44.37743" lon="5.18428">
        <ele>305</ele>
        <time>2021-11-13T15:54:19.072Z</time>
      </trkpt>
      <trkpt lat="44.37742" lon="5.18421">
        <ele>305</ele>
        <time>2021-11-13T15:54:20.072Z</time>
      </trkpt>
      <trkpt lat="44.37741" lon="5.18415">
        <ele>305</ele>
        <time>2021-11-13T15:54:21.073Z</time>
      </trkpt>
      <trkpt lat="44.37739" lon="5.18408">
        <ele>305</ele>
        <time>2021-11-13T15:54:22.073Z</time>
      </trkpt>
      <trkpt lat="44.37738" lon="5.18402">
        <ele>305</ele>
        <time>2021-11-13T15:54:23.072Z</time>
      </trkpt>
      <trkpt lat="44.37737" lon="5.18395">
        <ele>305</ele>
        <time>2021-11-13T15:54:24.072Z</time>
      </trkpt>
      <trkpt lat="44.37737" lon="5.18389">
        <ele>305</ele>
        <time>2021-11-13T15:54:25.072Z</time>
      </trkpt>
      <trkpt lat="44.37737" lon="5.18382">
        <ele>305</ele>
        <time>2021-11-13T15:54:26.072Z</time>
      </trkpt>
      <trkpt lat="44.37737" lon="5.18377">
        <ele>304</ele>
        <time>2021-11-13T15:54:27.073Z</time>
      </trkpt>
      <trkpt lat="44.37737" lon="5.18371">
        <ele>304</ele>
        <time>2021-11-13T15:54:28.072Z</time>
      </trkpt>
      <trkpt lat="44.37737" lon="5.18364">
        <ele>304</ele>
        <time>2021-11-13T15:54:29.072Z</time>
      </trkpt>
      <trkpt lat="44.37738" lon="5.18359">
        <ele>304</ele>
        <time>2021-11-13T15:54:30.072Z</time>
      </trkpt>
      <trkpt lat="44.37739" lon="5.18353">
        <ele>304</ele>
        <time>2021-11-13T15:54:31.073Z</time>
      </trkpt>
      <trkpt lat="44.3774" lon="5.18348">
        <ele>304</ele>
        <time>2021-11-13T15:54:32.073Z</time>
      </trkpt>
      <trkpt lat="44.37741" lon="5.18343">
        <ele>304</ele>
        <time>2021-11-13T15:54:33.073Z</time>
      </trkpt>
      <trkpt lat="44.37741" lon="5.18338">
        <ele>304</ele>
        <time>2021-11-13T15:54:34.072Z</time>
      </trkpt>
      <trkpt lat="44.37742" lon="5.18333">
        <ele>304</ele>
        <time>2021-11-13T15:54:35.072Z</time>
      </trkpt>
      <trkpt lat="44.37743" lon="5.1833">
        <ele>304</ele>
        <time>2021-11-13T15:54:36.072Z</time>
      </trkpt>
      <trkpt lat="44.37742" lon="5.18327">
        <ele>303</ele>
        <time>2021-11-13T15:54:37.073Z</time>
      </trkpt>
      <trkpt lat="44.37742" lon="5.18324">
        <ele>303</ele>
        <time>2021-11-13T15:54:38.072Z</time>
      </trkpt>
      <trkpt lat="44.37741" lon="5.18321">
        <ele>303</ele>
        <time>2021-11-13T15:54:39.072Z</time>
      </trkpt>
      <trkpt lat="44.37741" lon="5.18318">
        <ele>303</ele>
        <time>2021-11-13T15:54:40.073Z</time>
      </trkpt>
      <trkpt lat="44.3774" lon="5.18315">
        <ele>303</ele>
        <time>2021-11-13T15:54:41.072Z</time>
      </trkpt>
      <trkpt lat="44.3774" lon="5.18312">
        <ele>303</ele>
        <time>2021-11-13T15:54:42.072Z</time>
      </trkpt>
      <trkpt lat="44.3774" lon="5.1831">
        <ele>303</ele>
        <time>2021-11-13T15:54:43.072Z</time>
      </trkpt>
      <trkpt lat="44.37739" lon="5.18306">
        <ele>303</ele>
        <time>2021-11-13T15:54:44.072Z</time>
      </trkpt>
      <trkpt lat="44.37739" lon="5.18304">
        <ele>303</ele>
        <time>2021-11-13T15:54:45.073Z</time>
      </trkpt>
      <trkpt lat="44.37739" lon="5.18301">
        <ele>304</ele>
        <time>2021-11-13T15:54:46.073Z</time>
      </trkpt>
      <trkpt lat="44.37739" lon="5.18299">
        <ele>304</ele>
        <time>2021-11-13T15:54:47.072Z</time>
      </trkpt>
      <trkpt lat="44.3774" lon="5.18296">
        <ele>304</ele>
        <time>2021-11-13T15:54:48.072Z</time>
      </trkpt>
      <trkpt lat="44.37739" lon="5.18294">
        <ele>304</ele>
        <time>2021-11-13T15:54:49.072Z</time>
      </trkpt>
      <trkpt lat="44.37739" lon="5.18291">
        <ele>304</ele>
        <time>2021-11-13T15:54:50.073Z</time>
      </trkpt>
      <trkpt lat="44.37739" lon="5.18289">
        <ele>304</ele>
        <time>2021-11-13T15:54:51.073Z</time>
      </trkpt>
      <trkpt lat="44.37739" lon="5.18286">
        <ele>304</ele>
        <time>2021-11-13T15:54:52.072Z</time>
      </trkpt>
      <trkpt lat="44.37739" lon="5.18283">
        <ele>304</ele>
        <time>2021-11-13T15:54:53.073Z</time>
      </trkpt>
      <trkpt lat="44.37739" lon="5.1828">
        <ele>304</ele>
        <time>2021-11-13T15:54:54.072Z</time>
      </trkpt>
      <trkpt lat="44.37739" lon="5.18277">
        <ele>304</ele>
        <time>2021-11-13T15:54:55.072Z</time>
      </trkpt>
      <trkpt lat="44.37739" lon="5.18274">
        <ele>304</ele>
        <time>2021-11-13T15:54:56.072Z</time>
      </trkpt>
      <trkpt lat="44.3774" lon="5.18271">
        <ele>304</ele>
        <time>2021-11-13T15:54:57.072Z</time>
      </trkpt>
      <trkpt lat="44.37741" lon="5.18268">
        <ele>304</ele>
        <time>2021-11-13T15:54:58.072Z</time>
      </trkpt>
      <trkpt lat="44.37742" lon="5.18266">
        <ele>303</ele>
        <time>2021-11-13T15:54:59.072Z</time>
      </trkpt>
      <trkpt lat="44.37743" lon="5.18263">
        <ele>303</ele>
        <time>2021-11-13T15:55:00.072Z</time>
      </trkpt>
      <trkpt lat="44.37744" lon="5.1826">
        <ele>303</ele>
        <time>2021-11-13T15:55:01.072Z</time>
      </trkpt>
      <trkpt lat="44.37745" lon="5.18257">
        <ele>302</ele>
        <time>2021-11-13T15:55:02.073Z</time>
      </trkpt>
      <trkpt lat="44.37746" lon="5.18253">
        <ele>302</ele>
        <time>2021-11-13T15:55:03.073Z</time>
      </trkpt>
      <trkpt lat="44.37747" lon="5.1825">
        <ele>302</ele>
        <time>2021-11-13T15:55:04.072Z</time>
      </trkpt>
      <trkpt lat="44.37748" lon="5.18246">
        <ele>302</ele>
        <time>2021-11-13T15:55:05.072Z</time>
      </trkpt>
      <trkpt lat="44.37748" lon="5.18242">
        <ele>302</ele>
        <time>2021-11-13T15:55:06.072Z</time>
      </trkpt>
      <trkpt lat="44.37749" lon="5.18238">
        <ele>302</ele>
        <time>2021-11-13T15:55:07.072Z</time>
      </trkpt>
      <trkpt lat="44.3775" lon="5.18235">
        <ele>302</ele>
        <time>2021-11-13T15:55:08.073Z</time>
      </trkpt>
      <trkpt lat="44.3775" lon="5.18231">
        <ele>302</ele>
        <time>2021-11-13T15:55:09.072Z</time>
      </trkpt>
      <trkpt lat="44.37751" lon="5.18228">
        <ele>302</ele>
        <time>2021-11-13T15:55:10.072Z</time>
      </trkpt>
      <trkpt lat="44.37752" lon="5.18225">
        <ele>302</ele>
        <time>2021-11-13T15:55:11.072Z</time>
      </trkpt>
      <trkpt lat="44.37753" lon="5.18222">
        <ele>302</ele>
        <time>2021-11-13T15:55:12.072Z</time>
      </trkpt>
      <trkpt lat="44.37754" lon="5.18219">
        <ele>302</ele>
        <time>2021-11-13T15:55:13.072Z</time>
      </trkpt>
      <trkpt lat="44.37755" lon="5.18215">
        <ele>303</ele>
        <time>2021-11-13T15:55:14.073Z</time>
      </trkpt>
      <trkpt lat="44.37756" lon="5.18212">
        <ele>303</ele>
        <time>2021-11-13T15:55:15.073Z</time>
      </trkpt>
      <trkpt lat="44.37756" lon="5.18209">
        <ele>303</ele>
        <time>2021-11-13T15:55:16.073Z</time>
      </trkpt>
      <trkpt lat="44.37756" lon="5.18205">
        <ele>303</ele>
        <time>2021-11-13T15:55:17.072Z</time>
      </trkpt>
      <trkpt lat="44.37757" lon="5.18201">
        <ele>304</ele>
        <time>2021-11-13T15:55:18.072Z</time>
      </trkpt>
      <trkpt lat="44.37757" lon="5.18197">
        <ele>304</ele>
        <time>2021-11-13T15:55:19.073Z</time>
      </trkpt>
      <trkpt lat="44.37758" lon="5.18193">
        <ele>305</ele>
        <time>2021-11-13T15:55:20.072Z</time>
      </trkpt>
      <trkpt lat="44.37758" lon="5.18188">
        <ele>306</ele>
        <time>2021-11-13T15:55:21.072Z</time>
      </trkpt>
      <trkpt lat="44.37758" lon="5.18183">
        <ele>306</ele>
        <time>2021-11-13T15:55:22.072Z</time>
      </trkpt>
      <trkpt lat="44.37758" lon="5.18178">
        <ele>307</ele>
        <time>2021-11-13T15:55:23.073Z</time>
      </trkpt>
      <trkpt lat="44.37758" lon="5.18172">
        <ele>307</ele>
        <time>2021-11-13T15:55:24.072Z</time>
      </trkpt>
      <trkpt lat="44.37759" lon="5.18167">
        <ele>307</ele>
        <time>2021-11-13T15:55:25.073Z</time>
      </trkpt>
      <trkpt lat="44.3776" lon="5.18161">
        <ele>307</ele>
        <time>2021-11-13T15:55:26.072Z</time>
      </trkpt>
      <trkpt lat="44.37761" lon="5.18156">
        <ele>307</ele>
        <time>2021-11-13T15:55:27.073Z</time>
      </trkpt>
      <trkpt lat="44.37762" lon="5.1815">
        <ele>307</ele>
        <time>2021-11-13T15:55:28.073Z</time>
      </trkpt>
      <trkpt lat="44.37762" lon="5.18145">
        <ele>307</ele>
        <time>2021-11-13T15:55:29.073Z</time>
      </trkpt>
      <trkpt lat="44.37763" lon="5.18138">
        <ele>307</ele>
        <time>2021-11-13T15:55:30.072Z</time>
      </trkpt>
      <trkpt lat="44.37763" lon="5.18131">
        <ele>307</ele>
        <time>2021-11-13T15:55:31.073Z</time>
      </trkpt>
      <trkpt lat="44.37763" lon="5.18123">
        <ele>306</ele>
        <time>2021-11-13T15:55:32.072Z</time>
      </trkpt>
      <trkpt lat="44.37764" lon="5.18115">
        <ele>306</ele>
        <time>2021-11-13T15:55:33.072Z</time>
      </trkpt>
      <trkpt lat="44.37764" lon="5.18107">
        <ele>305</ele>
        <time>2021-11-13T15:55:34.072Z</time>
      </trkpt>
      <trkpt lat="44.37765" lon="5.18099">
        <ele>304</ele>
        <time>2021-11-13T15:55:35.073Z</time>
      </trkpt>
      <trkpt lat="44.37766" lon="5.18092">
        <ele>303</ele>
        <time>2021-11-13T15:55:36.072Z</time>
      </trkpt>
      <trkpt lat="44.37767" lon="5.18084">
        <ele>303</ele>
        <time>2021-11-13T15:55:37.073Z</time>
      </trkpt>
      <trkpt lat="44.37768" lon="5.18076">
        <ele>302</ele>
        <time>2021-11-13T15:55:38.072Z</time>
      </trkpt>
      <trkpt lat="44.37769" lon="5.18067">
        <ele>302</ele>
        <time>2021-11-13T15:55:39.073Z</time>
      </trkpt>
      <trkpt lat="44.37771" lon="5.1806">
        <ele>301</ele>
        <time>2021-11-13T15:55:40.072Z</time>
      </trkpt>
      <trkpt lat="44.37773" lon="5.18052">
        <ele>300</ele>
        <time>2021-11-13T15:55:41.073Z</time>
      </trkpt>
      <trkpt lat="44.37775" lon="5.18044">
        <ele>299</ele>
        <time>2021-11-13T15:55:42.072Z</time>
      </trkpt>
      <trkpt lat="44.37778" lon="5.18037">
        <ele>299</ele>
        <time>2021-11-13T15:55:43.073Z</time>
      </trkpt>
      <trkpt lat="44.3778" lon="5.1803">
        <ele>298</ele>
        <time>2021-11-13T15:55:44.073Z</time>
      </trkpt>
      <trkpt lat="44.37783" lon="5.18023">
        <ele>297</ele>
        <time>2021-11-13T15:55:45.072Z</time>
      </trkpt>
      <trkpt lat="44.37786" lon="5.18016">
        <ele>297</ele>
        <time>2021-11-13T15:55:46.072Z</time>
      </trkpt>
      <trkpt lat="44.37788" lon="5.18009">
        <ele>296</ele>
        <time>2021-11-13T15:55:47.073Z</time>
      </trkpt>
      <trkpt lat="44.37792" lon="5.18002">
        <ele>296</ele>
        <time>2021-11-13T15:55:48.072Z</time>
      </trkpt>
      <trkpt lat="44.37796" lon="5.17996">
        <ele>296</ele>
        <time>2021-11-13T15:55:49.072Z</time>
      </trkpt>
      <trkpt lat="44.378" lon="5.17991">
        <ele>295</ele>
        <time>2021-11-13T15:55:50.072Z</time>
      </trkpt>
      <trkpt lat="44.37804" lon="5.17985">
        <ele>295</ele>
        <time>2021-11-13T15:55:51.073Z</time>
      </trkpt>
      <trkpt lat="44.37809" lon="5.17979">
        <ele>296</ele>
        <time>2021-11-13T15:55:52.073Z</time>
      </trkpt>
      <trkpt lat="44.37814" lon="5.17973">
        <ele>296</ele>
        <time>2021-11-13T15:55:53.072Z</time>
      </trkpt>
      <trkpt lat="44.37819" lon="5.17968">
        <ele>295</ele>
        <time>2021-11-13T15:55:54.073Z</time>
      </trkpt>
      <trkpt lat="44.37824" lon="5.17963">
        <ele>295</ele>
        <time>2021-11-13T15:55:55.072Z</time>
      </trkpt>
      <trkpt lat="44.3783" lon="5.1796">
        <ele>295</ele>
        <time>2021-11-13T15:55:56.072Z</time>
      </trkpt>
      <trkpt lat="44.37836" lon="5.17956">
        <ele>295</ele>
        <time>2021-11-13T15:55:57.073Z</time>
      </trkpt>
      <trkpt lat="44.37842" lon="5.17953">
        <ele>295</ele>
        <time>2021-11-13T15:55:58.073Z</time>
      </trkpt>
      <trkpt lat="44.37848" lon="5.17952">
        <ele>295</ele>
        <time>2021-11-13T15:55:59.072Z</time>
      </trkpt>
      <trkpt lat="44.37855" lon="5.1795">
        <ele>294</ele>
        <time>2021-11-13T15:56:00.072Z</time>
      </trkpt>
      <trkpt lat="44.37861" lon="5.17949">
        <ele>294</ele>
        <time>2021-11-13T15:56:01.072Z</time>
      </trkpt>
      <trkpt lat="44.37867" lon="5.17948">
        <ele>294</ele>
        <time>2021-11-13T15:56:02.072Z</time>
      </trkpt>
      <trkpt lat="44.37873" lon="5.17948">
        <ele>293</ele>
        <time>2021-11-13T15:56:03.072Z</time>
      </trkpt>
      <trkpt lat="44.3788" lon="5.17949">
        <ele>294</ele>
        <time>2021-11-13T15:56:04.072Z</time>
      </trkpt>
      <trkpt lat="44.37887" lon="5.1795">
        <ele>294</ele>
        <time>2021-11-13T15:56:05.072Z</time>
      </trkpt>
      <trkpt lat="44.37893" lon="5.17951">
        <ele>294</ele>
        <time>2021-11-13T15:56:06.072Z</time>
      </trkpt>
      <trkpt lat="44.37899" lon="5.17952">
        <ele>294</ele>
        <time>2021-11-13T15:56:07.072Z</time>
      </trkpt>
      <trkpt lat="44.37905" lon="5.17954">
        <ele>294</ele>
        <time>2021-11-13T15:56:08.073Z</time>
      </trkpt>
      <trkpt lat="44.37911" lon="5.17956">
        <ele>295</ele>
        <time>2021-11-13T15:56:09.073Z</time>
      </trkpt>
      <trkpt lat="44.37916" lon="5.17958">
        <ele>294</ele>
        <time>2021-11-13T15:56:10.073Z</time>
      </trkpt>
      <trkpt lat="44.37922" lon="5.1796">
        <ele>294</ele>
        <time>2021-11-13T15:56:11.073Z</time>
      </trkpt>
      <trkpt lat="44.37928" lon="5.17962">
        <ele>294</ele>
        <time>2021-11-13T15:56:12.072Z</time>
      </trkpt>
      <trkpt lat="44.37934" lon="5.17965">
        <ele>294</ele>
        <time>2021-11-13T15:56:13.073Z</time>
      </trkpt>
      <trkpt lat="44.3794" lon="5.17969">
        <ele>294</ele>
        <time>2021-11-13T15:56:14.073Z</time>
      </trkpt>
      <trkpt lat="44.37945" lon="5.17972">
        <ele>294</ele>
        <time>2021-11-13T15:56:15.072Z</time>
      </trkpt>
      <trkpt lat="44.3795" lon="5.17976">
        <ele>294</ele>
        <time>2021-11-13T15:56:16.073Z</time>
      </trkpt>
      <trkpt lat="44.37954" lon="5.1798">
        <ele>294</ele>
        <time>2021-11-13T15:56:17.073Z</time>
      </trkpt>
      <trkpt lat="44.37958" lon="5.17984">
        <ele>294</ele>
        <time>2021-11-13T15:56:18.073Z</time>
      </trkpt>
      <trkpt lat="44.37962" lon="5.17987">
        <ele>294</ele>
        <time>2021-11-13T15:56:19.073Z</time>
      </trkpt>
      <trkpt lat="44.37966" lon="5.17991">
        <ele>294</ele>
        <time>2021-11-13T15:56:20.073Z</time>
      </trkpt>
      <trkpt lat="44.3797" lon="5.17993">
        <ele>294</ele>
        <time>2021-11-13T15:56:21.072Z</time>
      </trkpt>
      <trkpt lat="44.37975" lon="5.17995">
        <ele>295</ele>
        <time>2021-11-13T15:56:22.073Z</time>
      </trkpt>
      <trkpt lat="44.37979" lon="5.17996">
        <ele>295</ele>
        <time>2021-11-13T15:56:23.073Z</time>
      </trkpt>
      <trkpt lat="44.37984" lon="5.17996">
        <ele>295</ele>
        <time>2021-11-13T15:56:24.073Z</time>
      </trkpt>
      <trkpt lat="44.37988" lon="5.17995">
        <ele>295</ele>
        <time>2021-11-13T15:56:25.072Z</time>
      </trkpt>
      <trkpt lat="44.37992" lon="5.17994">
        <ele>295</ele>
        <time>2021-11-13T15:56:26.073Z</time>
      </trkpt>
      <trkpt lat="44.37997" lon="5.17992">
        <ele>295</ele>
        <time>2021-11-13T15:56:27.072Z</time>
      </trkpt>
      <trkpt lat="44.38001" lon="5.1799">
        <ele>295</ele>
        <time>2021-11-13T15:56:28.073Z</time>
      </trkpt>
      <trkpt lat="44.38004" lon="5.17988">
        <ele>294</ele>
        <time>2021-11-13T15:56:29.073Z</time>
      </trkpt>
      <trkpt lat="44.38008" lon="5.17985">
        <ele>294</ele>
        <time>2021-11-13T15:56:30.072Z</time>
      </trkpt>
      <trkpt lat="44.38012" lon="5.17983">
        <ele>294</ele>
        <time>2021-11-13T15:56:31.072Z</time>
      </trkpt>
      <trkpt lat="44.38015" lon="5.1798">
        <ele>294</ele>
        <time>2021-11-13T15:56:32.073Z</time>
      </trkpt>
      <trkpt lat="44.38018" lon="5.17977">
        <ele>294</ele>
        <time>2021-11-13T15:56:33.073Z</time>
      </trkpt>
      <trkpt lat="44.38022" lon="5.17975">
        <ele>294</ele>
        <time>2021-11-13T15:56:34.072Z</time>
      </trkpt>
      <trkpt lat="44.38025" lon="5.17972">
        <ele>294</ele>
        <time>2021-11-13T15:56:35.072Z</time>
      </trkpt>
      <trkpt lat="44.38028" lon="5.17969">
        <ele>294</ele>
        <time>2021-11-13T15:56:36.072Z</time>
      </trkpt>
      <trkpt lat="44.38031" lon="5.17967">
        <ele>294</ele>
        <time>2021-11-13T15:56:37.073Z</time>
      </trkpt>
      <trkpt lat="44.38034" lon="5.17965">
        <ele>294</ele>
        <time>2021-11-13T15:56:38.073Z</time>
      </trkpt>
      <trkpt lat="44.38037" lon="5.17963">
        <ele>294</ele>
        <time>2021-11-13T15:56:39.073Z</time>
      </trkpt>
      <trkpt lat="44.38039" lon="5.17961">
        <ele>294</ele>
        <time>2021-11-13T15:56:40.073Z</time>
      </trkpt>
      <trkpt lat="44.38042" lon="5.17958">
        <ele>294</ele>
        <time>2021-11-13T15:56:41.073Z</time>
      </trkpt>
      <trkpt lat="44.38044" lon="5.17956">
        <ele>294</ele>
        <time>2021-11-13T15:56:42.073Z</time>
      </trkpt>
      <trkpt lat="44.38047" lon="5.17953">
        <ele>294</ele>
        <time>2021-11-13T15:56:43.073Z</time>
      </trkpt>
      <trkpt lat="44.38049" lon="5.17951">
        <ele>293</ele>
        <time>2021-11-13T15:56:44.072Z</time>
      </trkpt>
      <trkpt lat="44.38052" lon="5.1795">
        <ele>293</ele>
        <time>2021-11-13T15:56:45.073Z</time>
      </trkpt>
      <trkpt lat="44.38054" lon="5.17948">
        <ele>293</ele>
        <time>2021-11-13T15:56:46.072Z</time>
      </trkpt>
      <trkpt lat="44.38056" lon="5.17947">
        <ele>293</ele>
        <time>2021-11-13T15:56:47.073Z</time>
      </trkpt>
      <trkpt lat="44.38058" lon="5.17945">
        <ele>293</ele>
        <time>2021-11-13T15:56:48.073Z</time>
      </trkpt>
      <trkpt lat="44.3806" lon="5.17945">
        <ele>294</ele>
        <time>2021-11-13T15:56:49.073Z</time>
      </trkpt>
      <trkpt lat="44.38062" lon="5.17944">
        <ele>294</ele>
        <time>2021-11-13T15:56:50.073Z</time>
      </trkpt>
      <trkpt lat="44.38065" lon="5.17942">
        <ele>295</ele>
        <time>2021-11-13T15:56:51.072Z</time>
      </trkpt>
      <trkpt lat="44.38066" lon="5.17941">
        <ele>295</ele>
        <time>2021-11-13T15:56:52.073Z</time>
      </trkpt>
      <trkpt lat="44.38068" lon="5.17939">
        <ele>296</ele>
        <time>2021-11-13T15:56:53.073Z</time>
      </trkpt>
      <trkpt lat="44.3807" lon="5.17937">
        <ele>296</ele>
        <time>2021-11-13T15:56:54.073Z</time>
      </trkpt>
      <trkpt lat="44.38072" lon="5.17935">
        <ele>297</ele>
        <time>2021-11-13T15:56:55.072Z</time>
      </trkpt>
      <trkpt lat="44.38075" lon="5.17933">
        <ele>297</ele>
        <time>2021-11-13T15:56:56.072Z</time>
      </trkpt>
      <trkpt lat="44.38077" lon="5.17931">
        <ele>298</ele>
        <time>2021-11-13T15:56:57.073Z</time>
      </trkpt>
      <trkpt lat="44.3808" lon="5.17928">
        <ele>299</ele>
        <time>2021-11-13T15:56:58.073Z</time>
      </trkpt>
      <trkpt lat="44.38084" lon="5.17926">
        <ele>299</ele>
        <time>2021-11-13T15:56:59.073Z</time>
      </trkpt>
      <trkpt lat="44.38087" lon="5.17923">
        <ele>299</ele>
        <time>2021-11-13T15:57:00.073Z</time>
      </trkpt>
      <trkpt lat="44.3809" lon="5.17921">
        <ele>299</ele>
        <time>2021-11-13T15:57:01.073Z</time>
      </trkpt>
      <trkpt lat="44.38094" lon="5.17918">
        <ele>298</ele>
        <time>2021-11-13T15:57:02.072Z</time>
      </trkpt>
      <trkpt lat="44.38098" lon="5.17915">
        <ele>298</ele>
        <time>2021-11-13T15:57:03.072Z</time>
      </trkpt>
      <trkpt lat="44.38102" lon="5.17911">
        <ele>298</ele>
        <time>2021-11-13T15:57:04.073Z</time>
      </trkpt>
      <trkpt lat="44.38107" lon="5.17907">
        <ele>297</ele>
        <time>2021-11-13T15:57:05.072Z</time>
      </trkpt>
      <trkpt lat="44.38112" lon="5.17902">
        <ele>297</ele>
        <time>2021-11-13T15:57:06.073Z</time>
      </trkpt>
      <trkpt lat="44.38118" lon="5.17896">
        <ele>297</ele>
        <time>2021-11-13T15:57:07.072Z</time>
      </trkpt>
      <trkpt lat="44.38123" lon="5.1789">
        <ele>297</ele>
        <time>2021-11-13T15:57:08.072Z</time>
      </trkpt>
      <trkpt lat="44.38128" lon="5.17883">
        <ele>297</ele>
        <time>2021-11-13T15:57:09.073Z</time>
      </trkpt>
      <trkpt lat="44.38133" lon="5.17876">
        <ele>296</ele>
        <time>2021-11-13T15:57:10.073Z</time>
      </trkpt>
      <trkpt lat="44.38137" lon="5.17869">
        <ele>296</ele>
        <time>2021-11-13T15:57:11.073Z</time>
      </trkpt>
      <trkpt lat="44.38141" lon="5.17861">
        <ele>295</ele>
        <time>2021-11-13T15:57:12.072Z</time>
      </trkpt>
      <trkpt lat="44.38144" lon="5.17853">
        <ele>294</ele>
        <time>2021-11-13T15:57:13.073Z</time>
      </trkpt>
      <trkpt lat="44.38147" lon="5.17844">
        <ele>294</ele>
        <time>2021-11-13T15:57:14.072Z</time>
      </trkpt>
      <trkpt lat="44.3815" lon="5.17836">
        <ele>293</ele>
        <time>2021-11-13T15:57:15.073Z</time>
      </trkpt>
      <trkpt lat="44.38153" lon="5.17829">
        <ele>293</ele>
        <time>2021-11-13T15:57:16.072Z</time>
      </trkpt>
      <trkpt lat="44.38155" lon="5.17822">
        <ele>293</ele>
        <time>2021-11-13T15:57:17.073Z</time>
      </trkpt>
      <trkpt lat="44.38157" lon="5.17816">
        <ele>292</ele>
        <time>2021-11-13T15:57:18.073Z</time>
      </trkpt>
      <trkpt lat="44.38159" lon="5.17811">
        <ele>292</ele>
        <time>2021-11-13T15:57:19.072Z</time>
      </trkpt>
      <trkpt lat="44.38161" lon="5.17806">
        <ele>291</ele>
        <time>2021-11-13T15:57:20.073Z</time>
      </trkpt>
      <trkpt lat="44.38164" lon="5.17801">
        <ele>291</ele>
        <time>2021-11-13T15:57:21.072Z</time>
      </trkpt>
      <trkpt lat="44.38166" lon="5.17796">
        <ele>291</ele>
        <time>2021-11-13T15:57:22.073Z</time>
      </trkpt>
      <trkpt lat="44.38168" lon="5.1779">
        <ele>291</ele>
        <time>2021-11-13T15:57:23.073Z</time>
      </trkpt>
      <trkpt lat="44.38171" lon="5.17785">
        <ele>290</ele>
        <time>2021-11-13T15:57:24.073Z</time>
      </trkpt>
      <trkpt lat="44.38173" lon="5.1778">
        <ele>290</ele>
        <time>2021-11-13T15:57:25.072Z</time>
      </trkpt>
      <trkpt lat="44.38176" lon="5.17776">
        <ele>290</ele>
        <time>2021-11-13T15:57:26.073Z</time>
      </trkpt>
      <trkpt lat="44.38179" lon="5.17772">
        <ele>290</ele>
        <time>2021-11-13T15:57:27.073Z</time>
      </trkpt>
      <trkpt lat="44.38182" lon="5.17768">
        <ele>290</ele>
        <time>2021-11-13T15:57:28.073Z</time>
      </trkpt>
      <trkpt lat="44.38185" lon="5.17764">
        <ele>289</ele>
        <time>2021-11-13T15:57:29.072Z</time>
      </trkpt>
      <trkpt lat="44.38188" lon="5.17761">
        <ele>289</ele>
        <time>2021-11-13T15:57:30.073Z</time>
      </trkpt>
      <trkpt lat="44.38191" lon="5.17757">
        <ele>289</ele>
        <time>2021-11-13T15:57:31.073Z</time>
      </trkpt>
      <trkpt lat="44.38193" lon="5.17754">
        <ele>289</ele>
        <time>2021-11-13T15:57:32.073Z</time>
      </trkpt>
      <trkpt lat="44.38195" lon="5.1775">
        <ele>289</ele>
        <time>2021-11-13T15:57:33.073Z</time>
      </trkpt>
      <trkpt lat="44.38197" lon="5.17748">
        <ele>289</ele>
        <time>2021-11-13T15:57:34.073Z</time>
      </trkpt>
      <trkpt lat="44.38199" lon="5.17745">
        <ele>289</ele>
        <time>2021-11-13T15:57:35.073Z</time>
      </trkpt>
      <trkpt lat="44.38201" lon="5.17742">
        <ele>289</ele>
        <time>2021-11-13T15:57:36.072Z</time>
      </trkpt>
      <trkpt lat="44.38203" lon="5.17739">
        <ele>289</ele>
        <time>2021-11-13T15:57:37.073Z</time>
      </trkpt>
      <trkpt lat="44.38204" lon="5.17736">
        <ele>290</ele>
        <time>2021-11-13T15:57:38.073Z</time>
      </trkpt>
      <trkpt lat="44.38206" lon="5.17733">
        <ele>290</ele>
        <time>2021-11-13T15:57:39.073Z</time>
      </trkpt>
      <trkpt lat="44.38207" lon="5.17731">
        <ele>290</ele>
        <time>2021-11-13T15:57:40.073Z</time>
      </trkpt>
      <trkpt lat="44.38209" lon="5.17728">
        <ele>290</ele>
        <time>2021-11-13T15:57:41.073Z</time>
      </trkpt>
      <trkpt lat="44.38211" lon="5.17725">
        <ele>290</ele>
        <time>2021-11-13T15:57:42.073Z</time>
      </trkpt>
      <trkpt lat="44.38213" lon="5.17722">
        <ele>290</ele>
        <time>2021-11-13T15:57:43.073Z</time>
      </trkpt>
      <trkpt lat="44.38215" lon="5.17719">
        <ele>291</ele>
        <time>2021-11-13T15:57:44.073Z</time>
      </trkpt>
      <trkpt lat="44.38216" lon="5.17717">
        <ele>291</ele>
        <time>2021-11-13T15:57:45.073Z</time>
      </trkpt>
      <trkpt lat="44.38218" lon="5.17714">
        <ele>292</ele>
        <time>2021-11-13T15:57:46.073Z</time>
      </trkpt>
      <trkpt lat="44.38219" lon="5.17711">
        <ele>292</ele>
        <time>2021-11-13T15:57:47.073Z</time>
      </trkpt>
      <trkpt lat="44.3822" lon="5.17708">
        <ele>293</ele>
        <time>2021-11-13T15:57:48.072Z</time>
      </trkpt>
      <trkpt lat="44.38221" lon="5.17705">
        <ele>293</ele>
        <time>2021-11-13T15:57:49.073Z</time>
      </trkpt>
      <trkpt lat="44.38223" lon="5.17703">
        <ele>292</ele>
        <time>2021-11-13T15:57:50.072Z</time>
      </trkpt>
      <trkpt lat="44.38224" lon="5.177">
        <ele>292</ele>
        <time>2021-11-13T15:57:51.073Z</time>
      </trkpt>
      <trkpt lat="44.38225" lon="5.17697">
        <ele>292</ele>
        <time>2021-11-13T15:57:52.073Z</time>
      </trkpt>
      <trkpt lat="44.38226" lon="5.17693">
        <ele>293</ele>
        <time>2021-11-13T15:57:53.073Z</time>
      </trkpt>
      <trkpt lat="44.38228" lon="5.1769">
        <ele>293</ele>
        <time>2021-11-13T15:57:54.073Z</time>
      </trkpt>
      <trkpt lat="44.3823" lon="5.17687">
        <ele>293</ele>
        <time>2021-11-13T15:57:55.072Z</time>
      </trkpt>
      <trkpt lat="44.38231" lon="5.17684">
        <ele>293</ele>
        <time>2021-11-13T15:57:56.073Z</time>
      </trkpt>
      <trkpt lat="44.38233" lon="5.1768">
        <ele>294</ele>
        <time>2021-11-13T15:57:57.072Z</time>
      </trkpt>
      <trkpt lat="44.38234" lon="5.17677">
        <ele>295</ele>
        <time>2021-11-13T15:57:58.072Z</time>
      </trkpt>
      <trkpt lat="44.38236" lon="5.17674">
        <ele>295</ele>
        <time>2021-11-13T15:57:59.072Z</time>
      </trkpt>
      <trkpt lat="44.38238" lon="5.17671">
        <ele>296</ele>
        <time>2021-11-13T15:58:00.073Z</time>
      </trkpt>
      <trkpt lat="44.38239" lon="5.17668">
        <ele>297</ele>
        <time>2021-11-13T15:58:01.073Z</time>
      </trkpt>
      <trkpt lat="44.38241" lon="5.17665">
        <ele>297</ele>
        <time>2021-11-13T15:58:02.072Z</time>
      </trkpt>
      <trkpt lat="44.38242" lon="5.17662">
        <ele>298</ele>
        <time>2021-11-13T15:58:03.073Z</time>
      </trkpt>
      <trkpt lat="44.38244" lon="5.17659">
        <ele>299</ele>
        <time>2021-11-13T15:58:04.073Z</time>
      </trkpt>
      <trkpt lat="44.38245" lon="5.17656">
        <ele>300</ele>
        <time>2021-11-13T15:58:05.073Z</time>
      </trkpt>
      <trkpt lat="44.38247" lon="5.17653">
        <ele>300</ele>
        <time>2021-11-13T15:58:06.073Z</time>
      </trkpt>
      <trkpt lat="44.38248" lon="5.17651">
        <ele>300</ele>
        <time>2021-11-13T15:58:07.073Z</time>
      </trkpt>
      <trkpt lat="44.38249" lon="5.17648">
        <ele>300</ele>
        <time>2021-11-13T15:58:08.073Z</time>
      </trkpt>
      <trkpt lat="44.3825" lon="5.17644">
        <ele>300</ele>
        <time>2021-11-13T15:58:09.073Z</time>
      </trkpt>
      <trkpt lat="44.38251" lon="5.17641">
        <ele>300</ele>
        <time>2021-11-13T15:58:10.073Z</time>
      </trkpt>
      <trkpt lat="44.38252" lon="5.17637">
        <ele>300</ele>
        <time>2021-11-13T15:58:11.073Z</time>
      </trkpt>
      <trkpt lat="44.38253" lon="5.17634">
        <ele>300</ele>
        <time>2021-11-13T15:58:12.073Z</time>
      </trkpt>
      <trkpt lat="44.38254" lon="5.1763">
        <ele>300</ele>
        <time>2021-11-13T15:58:13.073Z</time>
      </trkpt>
      <trkpt lat="44.38254" lon="5.17626">
        <ele>300</ele>
        <time>2021-11-13T15:58:14.073Z</time>
      </trkpt>
      <trkpt lat="44.38254" lon="5.17622">
        <ele>300</ele>
        <time>2021-11-13T15:58:15.073Z</time>
      </trkpt>
      <trkpt lat="44.38254" lon="5.17618">
        <ele>301</ele>
        <time>2021-11-13T15:58:16.073Z</time>
      </trkpt>
      <trkpt lat="44.38253" lon="5.17615">
        <ele>301</ele>
        <time>2021-11-13T15:58:17.072Z</time>
      </trkpt>
      <trkpt lat="44.38253" lon="5.17611">
        <ele>301</ele>
        <time>2021-11-13T15:58:18.073Z</time>
      </trkpt>
      <trkpt lat="44.38253" lon="5.17608">
        <ele>302</ele>
        <time>2021-11-13T15:58:19.073Z</time>
      </trkpt>
      <trkpt lat="44.38253" lon="5.17605">
        <ele>302</ele>
        <time>2021-11-13T15:58:20.073Z</time>
      </trkpt>
      <trkpt lat="44.38253" lon="5.17602">
        <ele>302</ele>
        <time>2021-11-13T15:58:21.072Z</time>
      </trkpt>
      <trkpt lat="44.38253" lon="5.17599">
        <ele>302</ele>
        <time>2021-11-13T15:58:22.073Z</time>
      </trkpt>
      <trkpt lat="44.38252" lon="5.17596">
        <ele>303</ele>
        <time>2021-11-13T15:58:23.072Z</time>
      </trkpt>
      <trkpt lat="44.38251" lon="5.17593">
        <ele>303</ele>
        <time>2021-11-13T15:58:24.073Z</time>
      </trkpt>
      <trkpt lat="44.38251" lon="5.17589">
        <ele>304</ele>
        <time>2021-11-13T15:58:25.073Z</time>
      </trkpt>
      <trkpt lat="44.3825" lon="5.17586">
        <ele>305</ele>
        <time>2021-11-13T15:58:26.073Z</time>
      </trkpt>
      <trkpt lat="44.3825" lon="5.17582">
        <ele>305</ele>
        <time>2021-11-13T15:58:27.073Z</time>
      </trkpt>
      <trkpt lat="44.38249" lon="5.17578">
        <ele>306</ele>
        <time>2021-11-13T15:58:28.073Z</time>
      </trkpt>
      <trkpt lat="44.3825" lon="5.17575">
        <ele>306</ele>
        <time>2021-11-13T15:58:29.072Z</time>
      </trkpt>
      <trkpt lat="44.3825" lon="5.17571">
        <ele>307</ele>
        <time>2021-11-13T15:58:30.073Z</time>
      </trkpt>
      <trkpt lat="44.38251" lon="5.17568">
        <ele>307</ele>
        <time>2021-11-13T15:58:31.072Z</time>
      </trkpt>
      <trkpt lat="44.38251" lon="5.17564">
        <ele>308</ele>
        <time>2021-11-13T15:58:32.072Z</time>
      </trkpt>
      <trkpt lat="44.3825" lon="5.17561">
        <ele>309</ele>
        <time>2021-11-13T15:58:33.073Z</time>
      </trkpt>
      <trkpt lat="44.3825" lon="5.17557">
        <ele>309</ele>
        <time>2021-11-13T15:58:34.073Z</time>
      </trkpt>
      <trkpt lat="44.3825" lon="5.17553">
        <ele>310</ele>
        <time>2021-11-13T15:58:35.073Z</time>
      </trkpt>
      <trkpt lat="44.3825" lon="5.17549">
        <ele>310</ele>
        <time>2021-11-13T15:58:36.073Z</time>
      </trkpt>
      <trkpt lat="44.38249" lon="5.17545">
        <ele>310</ele>
        <time>2021-11-13T15:58:37.073Z</time>
      </trkpt>
      <trkpt lat="44.3825" lon="5.17541">
        <ele>310</ele>
        <time>2021-11-13T15:58:38.073Z</time>
      </trkpt>
      <trkpt lat="44.3825" lon="5.17537">
        <ele>310</ele>
        <time>2021-11-13T15:58:39.073Z</time>
      </trkpt>
      <trkpt lat="44.3825" lon="5.17533">
        <ele>309</ele>
        <time>2021-11-13T15:58:40.073Z</time>
      </trkpt>
      <trkpt lat="44.38251" lon="5.1753">
        <ele>309</ele>
        <time>2021-11-13T15:58:41.073Z</time>
      </trkpt>
      <trkpt lat="44.38252" lon="5.17526">
        <ele>309</ele>
        <time>2021-11-13T15:58:42.073Z</time>
      </trkpt>
      <trkpt lat="44.38254" lon="5.17522">
        <ele>309</ele>
        <time>2021-11-13T15:58:43.073Z</time>
      </trkpt>
      <trkpt lat="44.38255" lon="5.17518">
        <ele>308</ele>
        <time>2021-11-13T15:58:44.073Z</time>
      </trkpt>
      <trkpt lat="44.38256" lon="5.17515">
        <ele>308</ele>
        <time>2021-11-13T15:58:45.073Z</time>
      </trkpt>
      <trkpt lat="44.38258" lon="5.1751">
        <ele>308</ele>
        <time>2021-11-13T15:58:46.073Z</time>
      </trkpt>
      <trkpt lat="44.3826" lon="5.17506">
        <ele>308</ele>
        <time>2021-11-13T15:58:47.072Z</time>
      </trkpt>
      <trkpt lat="44.38261" lon="5.17502">
        <ele>308</ele>
        <time>2021-11-13T15:58:48.073Z</time>
      </trkpt>
      <trkpt lat="44.38263" lon="5.17498">
        <ele>308</ele>
        <time>2021-11-13T15:58:49.072Z</time>
      </trkpt>
      <trkpt lat="44.38265" lon="5.17493">
        <ele>307</ele>
        <time>2021-11-13T15:58:50.073Z</time>
      </trkpt>
      <trkpt lat="44.38268" lon="5.17489">
        <ele>307</ele>
        <time>2021-11-13T15:58:51.072Z</time>
      </trkpt>
      <trkpt lat="44.3827" lon="5.17484">
        <ele>307</ele>
        <time>2021-11-13T15:58:52.073Z</time>
      </trkpt>
      <trkpt lat="44.38273" lon="5.17478">
        <ele>306</ele>
        <time>2021-11-13T15:58:53.073Z</time>
      </trkpt>
      <trkpt lat="44.38277" lon="5.17472">
        <ele>305</ele>
        <time>2021-11-13T15:58:54.073Z</time>
      </trkpt>
      <trkpt lat="44.3828" lon="5.17465">
        <ele>305</ele>
        <time>2021-11-13T15:58:55.073Z</time>
      </trkpt>
      <trkpt lat="44.38284" lon="5.17459">
        <ele>304</ele>
        <time>2021-11-13T15:58:56.073Z</time>
      </trkpt>
      <trkpt lat="44.38287" lon="5.17452">
        <ele>304</ele>
        <time>2021-11-13T15:58:57.073Z</time>
      </trkpt>
      <trkpt lat="44.3829" lon="5.17445">
        <ele>304</ele>
        <time>2021-11-13T15:58:58.073Z</time>
      </trkpt>
      <trkpt lat="44.38291" lon="5.17439">
        <ele>304</ele>
        <time>2021-11-13T15:58:59.073Z</time>
      </trkpt>
      <trkpt lat="44.38292" lon="5.17431">
        <ele>304</ele>
        <time>2021-11-13T15:59:00.073Z</time>
      </trkpt>
      <trkpt lat="44.38291" lon="5.17422">
        <ele>304</ele>
        <time>2021-11-13T15:59:01.072Z</time>
      </trkpt>
      <trkpt lat="44.38289" lon="5.17414">
        <ele>304</ele>
        <time>2021-11-13T15:59:02.073Z</time>
      </trkpt>
      <trkpt lat="44.38288" lon="5.17406">
        <ele>304</ele>
        <time>2021-11-13T15:59:03.072Z</time>
      </trkpt>
      <trkpt lat="44.38286" lon="5.17399">
        <ele>304</ele>
        <time>2021-11-13T15:59:04.073Z</time>
      </trkpt>
      <trkpt lat="44.38284" lon="5.17392">
        <ele>305</ele>
        <time>2021-11-13T15:59:05.073Z</time>
      </trkpt>
      <trkpt lat="44.38282" lon="5.17385">
        <ele>305</ele>
        <time>2021-11-13T15:59:06.072Z</time>
      </trkpt>
      <trkpt lat="44.38279" lon="5.17379">
        <ele>305</ele>
        <time>2021-11-13T15:59:07.073Z</time>
      </trkpt>
      <trkpt lat="44.38277" lon="5.17372">
        <ele>306</ele>
        <time>2021-11-13T15:59:08.073Z</time>
      </trkpt>
      <trkpt lat="44.38275" lon="5.17366">
        <ele>305</ele>
        <time>2021-11-13T15:59:09.073Z</time>
      </trkpt>
      <trkpt lat="44.38273" lon="5.1736">
        <ele>305</ele>
        <time>2021-11-13T15:59:10.072Z</time>
      </trkpt>
      <trkpt lat="44.3827" lon="5.17355">
        <ele>306</ele>
        <time>2021-11-13T15:59:11.073Z</time>
      </trkpt>
      <trkpt lat="44.38268" lon="5.1735">
        <ele>305</ele>
        <time>2021-11-13T15:59:12.073Z</time>
      </trkpt>
      <trkpt lat="44.38264" lon="5.17346">
        <ele>305</ele>
        <time>2021-11-13T15:59:13.073Z</time>
      </trkpt>
      <trkpt lat="44.38261" lon="5.17342">
        <ele>306</ele>
        <time>2021-11-13T15:59:14.073Z</time>
      </trkpt>
      <trkpt lat="44.38256" lon="5.17337">
        <ele>305</ele>
        <time>2021-11-13T15:59:15.073Z</time>
      </trkpt>
      <trkpt lat="44.38253" lon="5.17334">
        <ele>305</ele>
        <time>2021-11-13T15:59:16.073Z</time>
      </trkpt>
      <trkpt lat="44.38248" lon="5.17331">
        <ele>304</ele>
        <time>2021-11-13T15:59:17.073Z</time>
      </trkpt>
      <trkpt lat="44.38244" lon="5.17328">
        <ele>304</ele>
        <time>2021-11-13T15:59:18.073Z</time>
      </trkpt>
      <trkpt lat="44.38239" lon="5.17325">
        <ele>303</ele>
        <time>2021-11-13T15:59:19.073Z</time>
      </trkpt>
      <trkpt lat="44.38233" lon="5.17322">
        <ele>303</ele>
        <time>2021-11-13T15:59:20.072Z</time>
      </trkpt>
      <trkpt lat="44.38228" lon="5.17318">
        <ele>302</ele>
        <time>2021-11-13T15:59:21.073Z</time>
      </trkpt>
      <trkpt lat="44.38222" lon="5.17315">
        <ele>301</ele>
        <time>2021-11-13T15:59:22.072Z</time>
      </trkpt>
      <trkpt lat="44.38216" lon="5.17311">
        <ele>301</ele>
        <time>2021-11-13T15:59:23.073Z</time>
      </trkpt>
      <trkpt lat="44.3821" lon="5.17307">
        <ele>300</ele>
        <time>2021-11-13T15:59:24.073Z</time>
      </trkpt>
      <trkpt lat="44.38203" lon="5.17302">
        <ele>300</ele>
        <time>2021-11-13T15:59:25.073Z</time>
      </trkpt>
      <trkpt lat="44.38197" lon="5.17297">
        <ele>299</ele>
        <time>2021-11-13T15:59:26.073Z</time>
      </trkpt>
      <trkpt lat="44.38191" lon="5.17292">
        <ele>299</ele>
        <time>2021-11-13T15:59:27.073Z</time>
      </trkpt>
      <trkpt lat="44.38184" lon="5.17286">
        <ele>298</ele>
        <time>2021-11-13T15:59:28.072Z</time>
      </trkpt>
      <trkpt lat="44.38178" lon="5.17282">
        <ele>298</ele>
        <time>2021-11-13T15:59:29.073Z</time>
      </trkpt>
      <trkpt lat="44.38173" lon="5.17279">
        <ele>298</ele>
        <time>2021-11-13T15:59:30.072Z</time>
      </trkpt>
      <trkpt lat="44.38167" lon="5.17277">
        <ele>298</ele>
        <time>2021-11-13T15:59:31.073Z</time>
      </trkpt>
      <trkpt lat="44.38162" lon="5.17276">
        <ele>297</ele>
        <time>2021-11-13T15:59:32.073Z</time>
      </trkpt>
      <trkpt lat="44.38156" lon="5.17275">
        <ele>297</ele>
        <time>2021-11-13T15:59:33.073Z</time>
      </trkpt>
      <trkpt lat="44.38151" lon="5.17274">
        <ele>297</ele>
        <time>2021-11-13T15:59:34.073Z</time>
      </trkpt>
      <trkpt lat="44.38146" lon="5.17273">
        <ele>296</ele>
        <time>2021-11-13T15:59:35.073Z</time>
      </trkpt>
      <trkpt lat="44.38141" lon="5.17273">
        <ele>296</ele>
        <time>2021-11-13T15:59:36.073Z</time>
      </trkpt>
      <trkpt lat="44.38137" lon="5.17273">
        <ele>296</ele>
        <time>2021-11-13T15:59:37.073Z</time>
      </trkpt>
      <trkpt lat="44.38133" lon="5.17274">
        <ele>296</ele>
        <time>2021-11-13T15:59:38.073Z</time>
      </trkpt>
      <trkpt lat="44.38128" lon="5.17275">
        <ele>295</ele>
        <time>2021-11-13T15:59:39.072Z</time>
      </trkpt>
      <trkpt lat="44.38123" lon="5.17277">
        <ele>295</ele>
        <time>2021-11-13T15:59:40.073Z</time>
      </trkpt>
      <trkpt lat="44.38117" lon="5.17279">
        <ele>295</ele>
        <time>2021-11-13T15:59:41.073Z</time>
      </trkpt>
      <trkpt lat="44.38112" lon="5.17281">
        <ele>295</ele>
        <time>2021-11-13T15:59:42.073Z</time>
      </trkpt>
      <trkpt lat="44.38107" lon="5.17282">
        <ele>295</ele>
        <time>2021-11-13T15:59:43.073Z</time>
      </trkpt>
      <trkpt lat="44.38102" lon="5.17284">
        <ele>294</ele>
        <time>2021-11-13T15:59:44.073Z</time>
      </trkpt>
      <trkpt lat="44.38097" lon="5.17286">
        <ele>294</ele>
        <time>2021-11-13T15:59:45.073Z</time>
      </trkpt>
      <trkpt lat="44.38093" lon="5.17288">
        <ele>294</ele>
        <time>2021-11-13T15:59:46.072Z</time>
      </trkpt>
      <trkpt lat="44.38087" lon="5.17291">
        <ele>294</ele>
        <time>2021-11-13T15:59:47.073Z</time>
      </trkpt>
      <trkpt lat="44.38082" lon="5.17294">
        <ele>293</ele>
        <time>2021-11-13T15:59:48.073Z</time>
      </trkpt>
      <trkpt lat="44.38077" lon="5.17295">
        <ele>293</ele>
        <time>2021-11-13T15:59:49.073Z</time>
      </trkpt>
      <trkpt lat="44.38072" lon="5.17297">
        <ele>293</ele>
        <time>2021-11-13T15:59:50.073Z</time>
      </trkpt>
      <trkpt lat="44.38068" lon="5.17299">
        <ele>293</ele>
        <time>2021-11-13T15:59:51.073Z</time>
      </trkpt>
      <trkpt lat="44.38063" lon="5.17302">
        <ele>293</ele>
        <time>2021-11-13T15:59:52.073Z</time>
      </trkpt>
      <trkpt lat="44.38057" lon="5.17305">
        <ele>293</ele>
        <time>2021-11-13T15:59:53.073Z</time>
      </trkpt>
      <trkpt lat="44.38052" lon="5.17308">
        <ele>293</ele>
        <time>2021-11-13T15:59:54.073Z</time>
      </trkpt>
      <trkpt lat="44.38047" lon="5.17311">
        <ele>293</ele>
        <time>2021-11-13T15:59:55.073Z</time>
      </trkpt>
      <trkpt lat="44.38041" lon="5.17314">
        <ele>293</ele>
        <time>2021-11-13T15:59:56.073Z</time>
      </trkpt>
      <trkpt lat="44.38036" lon="5.17316">
        <ele>293</ele>
        <time>2021-11-13T15:59:57.073Z</time>
      </trkpt>
      <trkpt lat="44.3803" lon="5.17318">
        <ele>293</ele>
        <time>2021-11-13T15:59:58.073Z</time>
      </trkpt>
      <trkpt lat="44.38025" lon="5.1732">
        <ele>293</ele>
        <time>2021-11-13T15:59:59.073Z</time>
      </trkpt>
      <trkpt lat="44.38019" lon="5.17322">
        <ele>292</ele>
        <time>2021-11-13T16:00:00.073Z</time>
      </trkpt>
      <trkpt lat="44.38014" lon="5.17323">
        <ele>292</ele>
        <time>2021-11-13T16:00:01.073Z</time>
      </trkpt>
      <trkpt lat="44.38008" lon="5.17325">
        <ele>292</ele>
        <time>2021-11-13T16:00:02.073Z</time>
      </trkpt>
      <trkpt lat="44.38003" lon="5.17326">
        <ele>292</ele>
        <time>2021-11-13T16:00:03.073Z</time>
      </trkpt>
      <trkpt lat="44.37998" lon="5.17328">
        <ele>292</ele>
        <time>2021-11-13T16:00:04.073Z</time>
      </trkpt>
      <trkpt lat="44.37993" lon="5.17329">
        <ele>292</ele>
        <time>2021-11-13T16:00:05.073Z</time>
      </trkpt>
      <trkpt lat="44.37987" lon="5.1733">
        <ele>292</ele>
        <time>2021-11-13T16:00:06.072Z</time>
      </trkpt>
      <trkpt lat="44.37982" lon="5.17331">
        <ele>292</ele>
        <time>2021-11-13T16:00:07.073Z</time>
      </trkpt>
      <trkpt lat="44.37976" lon="5.17332">
        <ele>292</ele>
        <time>2021-11-13T16:00:08.073Z</time>
      </trkpt>
      <trkpt lat="44.37971" lon="5.17332">
        <ele>291</ele>
        <time>2021-11-13T16:00:09.073Z</time>
      </trkpt>
      <trkpt lat="44.37965" lon="5.17332">
        <ele>291</ele>
        <time>2021-11-13T16:00:10.073Z</time>
      </trkpt>
      <trkpt lat="44.37959" lon="5.17332">
        <ele>290</ele>
        <time>2021-11-13T16:00:11.072Z</time>
      </trkpt>
      <trkpt lat="44.37953" lon="5.17331">
        <ele>290</ele>
        <time>2021-11-13T16:00:12.073Z</time>
      </trkpt>
      <trkpt lat="44.37947" lon="5.1733">
        <ele>289</ele>
        <time>2021-11-13T16:00:13.073Z</time>
      </trkpt>
      <trkpt lat="44.37942" lon="5.17329">
        <ele>289</ele>
        <time>2021-11-13T16:00:14.073Z</time>
      </trkpt>
      <trkpt lat="44.37936" lon="5.17328">
        <ele>289</ele>
        <time>2021-11-13T16:00:15.073Z</time>
      </trkpt>
      <trkpt lat="44.37929" lon="5.17327">
        <ele>289</ele>
        <time>2021-11-13T16:00:16.073Z</time>
      </trkpt>
      <trkpt lat="44.37925" lon="5.17325">
        <ele>289</ele>
        <time>2021-11-13T16:00:17.073Z</time>
      </trkpt>
      <trkpt lat="44.3792" lon="5.17323">
        <ele>289</ele>
        <time>2021-11-13T16:00:18.072Z</time>
      </trkpt>
      <trkpt lat="44.37915" lon="5.1732">
        <ele>289</ele>
        <time>2021-11-13T16:00:19.073Z</time>
      </trkpt>
      <trkpt lat="44.3791" lon="5.17318">
        <ele>289</ele>
        <time>2021-11-13T16:00:20.073Z</time>
      </trkpt>
      <trkpt lat="44.37904" lon="5.17316">
        <ele>289</ele>
        <time>2021-11-13T16:00:21.073Z</time>
      </trkpt>
      <trkpt lat="44.37899" lon="5.17313">
        <ele>289</ele>
        <time>2021-11-13T16:00:22.073Z</time>
      </trkpt>
      <trkpt lat="44.37894" lon="5.17311">
        <ele>289</ele>
        <time>2021-11-13T16:00:23.073Z</time>
      </trkpt>
      <trkpt lat="44.37888" lon="5.17308">
        <ele>289</ele>
        <time>2021-11-13T16:00:24.073Z</time>
      </trkpt>
      <trkpt lat="44.37883" lon="5.17306">
        <ele>288</ele>
        <time>2021-11-13T16:00:25.073Z</time>
      </trkpt>
      <trkpt lat="44.37878" lon="5.17305">
        <ele>288</ele>
        <time>2021-11-13T16:00:26.073Z</time>
      </trkpt>
      <trkpt lat="44.37874" lon="5.17305">
        <ele>288</ele>
        <time>2021-11-13T16:00:27.073Z</time>
      </trkpt>
      <trkpt lat="44.37868" lon="5.17304">
        <ele>288</ele>
        <time>2021-11-13T16:00:28.073Z</time>
      </trkpt>
      <trkpt lat="44.37864" lon="5.17304">
        <ele>287</ele>
        <time>2021-11-13T16:00:29.073Z</time>
      </trkpt>
      <trkpt lat="44.37859" lon="5.17304">
        <ele>286</ele>
        <time>2021-11-13T16:00:30.073Z</time>
      </trkpt>
      <trkpt lat="44.37854" lon="5.17305">
        <ele>286</ele>
        <time>2021-11-13T16:00:31.073Z</time>
      </trkpt>
      <trkpt lat="44.37849" lon="5.17305">
        <ele>286</ele>
        <time>2021-11-13T16:00:32.073Z</time>
      </trkpt>
      <trkpt lat="44.37844" lon="5.17305">
        <ele>286</ele>
        <time>2021-11-13T16:00:33.073Z</time>
      </trkpt>
      <trkpt lat="44.37838" lon="5.17306">
        <ele>286</ele>
        <time>2021-11-13T16:00:34.073Z</time>
      </trkpt>
      <trkpt lat="44.37833" lon="5.17305">
        <ele>286</ele>
        <time>2021-11-13T16:00:35.073Z</time>
      </trkpt>
      <trkpt lat="44.37828" lon="5.17305">
        <ele>286</ele>
        <time>2021-11-13T16:00:36.073Z</time>
      </trkpt>
      <trkpt lat="44.37824" lon="5.17305">
        <ele>286</ele>
        <time>2021-11-13T16:00:37.073Z</time>
      </trkpt>
      <trkpt lat="44.37819" lon="5.17305">
        <ele>287</ele>
        <time>2021-11-13T16:00:38.072Z</time>
      </trkpt>
      <trkpt lat="44.37813" lon="5.17305">
        <ele>287</ele>
        <time>2021-11-13T16:00:39.073Z</time>
      </trkpt>
      <trkpt lat="44.37807" lon="5.17305">
        <ele>287</ele>
        <time>2021-11-13T16:00:40.073Z</time>
      </trkpt>
      <trkpt lat="44.37802" lon="5.17305">
        <ele>287</ele>
        <time>2021-11-13T16:00:41.073Z</time>
      </trkpt>
      <trkpt lat="44.37798" lon="5.17306">
        <ele>287</ele>
        <time>2021-11-13T16:00:42.072Z</time>
      </trkpt>
      <trkpt lat="44.37794" lon="5.17306">
        <ele>287</ele>
        <time>2021-11-13T16:00:43.073Z</time>
      </trkpt>
      <trkpt lat="44.37788" lon="5.17307">
        <ele>287</ele>
        <time>2021-11-13T16:00:44.073Z</time>
      </trkpt>
      <trkpt lat="44.37784" lon="5.17307">
        <ele>287</ele>
        <time>2021-11-13T16:00:45.073Z</time>
      </trkpt>
      <trkpt lat="44.3778" lon="5.17308">
        <ele>287</ele>
        <time>2021-11-13T16:00:46.073Z</time>
      </trkpt>
      <trkpt lat="44.37776" lon="5.17309">
        <ele>287</ele>
        <time>2021-11-13T16:00:47.072Z</time>
      </trkpt>
      <trkpt lat="44.37772" lon="5.1731">
        <ele>287</ele>
        <time>2021-11-13T16:00:48.072Z</time>
      </trkpt>
      <trkpt lat="44.37768" lon="5.17311">
        <ele>287</ele>
        <time>2021-11-13T16:00:49.072Z</time>
      </trkpt>
      <trkpt lat="44.37764" lon="5.17313">
        <ele>287</ele>
        <time>2021-11-13T16:00:50.073Z</time>
      </trkpt>
      <trkpt lat="44.37761" lon="5.17315">
        <ele>286</ele>
        <time>2021-11-13T16:00:51.072Z</time>
      </trkpt>
      <trkpt lat="44.37756" lon="5.17318">
        <ele>286</ele>
        <time>2021-11-13T16:00:52.072Z</time>
      </trkpt>
      <trkpt lat="44.3775" lon="5.1732">
        <ele>286</ele>
        <time>2021-11-13T16:00:53.072Z</time>
      </trkpt>
      <trkpt lat="44.37746" lon="5.17323">
        <ele>286</ele>
        <time>2021-11-13T16:00:54.073Z</time>
      </trkpt>
      <trkpt lat="44.37742" lon="5.17326">
        <ele>286</ele>
        <time>2021-11-13T16:00:55.073Z</time>
      </trkpt>
      <trkpt lat="44.37737" lon="5.17329">
        <ele>286</ele>
        <time>2021-11-13T16:00:56.072Z</time>
      </trkpt>
      <trkpt lat="44.37732" lon="5.17332">
        <ele>286</ele>
        <time>2021-11-13T16:00:57.073Z</time>
      </trkpt>
      <trkpt lat="44.37727" lon="5.17336">
        <ele>286</ele>
        <time>2021-11-13T16:00:58.073Z</time>
      </trkpt>
      <trkpt lat="44.37722" lon="5.1734">
        <ele>287</ele>
        <time>2021-11-13T16:00:59.073Z</time>
      </trkpt>
      <trkpt lat="44.37717" lon="5.17343">
        <ele>287</ele>
        <time>2021-11-13T16:01:00.073Z</time>
      </trkpt>
      <trkpt lat="44.37713" lon="5.17346">
        <ele>287</ele>
        <time>2021-11-13T16:01:01.072Z</time>
      </trkpt>
      <trkpt lat="44.37707" lon="5.17351">
        <ele>287</ele>
        <time>2021-11-13T16:01:02.072Z</time>
      </trkpt>
      <trkpt lat="44.37703" lon="5.17355">
        <ele>287</ele>
        <time>2021-11-13T16:01:03.073Z</time>
      </trkpt>
      <trkpt lat="44.37698" lon="5.17358">
        <ele>287</ele>
        <time>2021-11-13T16:01:04.072Z</time>
      </trkpt>
      <trkpt lat="44.37694" lon="5.17361">
        <ele>287</ele>
        <time>2021-11-13T16:01:05.072Z</time>
      </trkpt>
      <trkpt lat="44.37691" lon="5.17364">
        <ele>287</ele>
        <time>2021-11-13T16:01:06.073Z</time>
      </trkpt>
      <trkpt lat="44.37687" lon="5.17367">
        <ele>287</ele>
        <time>2021-11-13T16:01:07.073Z</time>
      </trkpt>
      <trkpt lat="44.37683" lon="5.17371">
        <ele>287</ele>
        <time>2021-11-13T16:01:08.072Z</time>
      </trkpt>
      <trkpt lat="44.37679" lon="5.17374">
        <ele>288</ele>
        <time>2021-11-13T16:01:09.073Z</time>
      </trkpt>
      <trkpt lat="44.37674" lon="5.17378">
        <ele>287</ele>
        <time>2021-11-13T16:01:10.073Z</time>
      </trkpt>
      <trkpt lat="44.3767" lon="5.17382">
        <ele>287</ele>
        <time>2021-11-13T16:01:11.072Z</time>
      </trkpt>
      <trkpt lat="44.37666" lon="5.17386">
        <ele>287</ele>
        <time>2021-11-13T16:01:12.073Z</time>
      </trkpt>
      <trkpt lat="44.37661" lon="5.17392">
        <ele>287</ele>
        <time>2021-11-13T16:01:13.073Z</time>
      </trkpt>
      <trkpt lat="44.37657" lon="5.17396">
        <ele>286</ele>
        <time>2021-11-13T16:01:14.073Z</time>
      </trkpt>
      <trkpt lat="44.37653" lon="5.17401">
        <ele>286</ele>
        <time>2021-11-13T16:01:15.073Z</time>
      </trkpt>
      <trkpt lat="44.37648" lon="5.17406">
        <ele>286</ele>
        <time>2021-11-13T16:01:16.073Z</time>
      </trkpt>
      <trkpt lat="44.37643" lon="5.1741">
        <ele>285</ele>
        <time>2021-11-13T16:01:17.073Z</time>
      </trkpt>
      <trkpt lat="44.37639" lon="5.17414">
        <ele>285</ele>
        <time>2021-11-13T16:01:18.073Z</time>
      </trkpt>
      <trkpt lat="44.37634" lon="5.17418">
        <ele>285</ele>
        <time>2021-11-13T16:01:19.073Z</time>
      </trkpt>
      <trkpt lat="44.37629" lon="5.17422">
        <ele>286</ele>
        <time>2021-11-13T16:01:20.072Z</time>
      </trkpt>
      <trkpt lat="44.37625" lon="5.17425">
        <ele>286</ele>
        <time>2021-11-13T16:01:21.073Z</time>
      </trkpt>
      <trkpt lat="44.3762" lon="5.17427">
        <ele>285</ele>
        <time>2021-11-13T16:01:22.073Z</time>
      </trkpt>
      <trkpt lat="44.37615" lon="5.17429">
        <ele>285</ele>
        <time>2021-11-13T16:01:23.073Z</time>
      </trkpt>
      <trkpt lat="44.37611" lon="5.17431">
        <ele>285</ele>
        <time>2021-11-13T16:01:24.073Z</time>
      </trkpt>
      <trkpt lat="44.37606" lon="5.17432">
        <ele>285</ele>
        <time>2021-11-13T16:01:25.073Z</time>
      </trkpt>
      <trkpt lat="44.37601" lon="5.17432">
        <ele>285</ele>
        <time>2021-11-13T16:01:26.073Z</time>
      </trkpt>
      <trkpt lat="44.37596" lon="5.17433">
        <ele>285</ele>
        <time>2021-11-13T16:01:27.073Z</time>
      </trkpt>
      <trkpt lat="44.37591" lon="5.17433">
        <ele>285</ele>
        <time>2021-11-13T16:01:28.073Z</time>
      </trkpt>
      <trkpt lat="44.37587" lon="5.17433">
        <ele>285</ele>
        <time>2021-11-13T16:01:29.072Z</time>
      </trkpt>
      <trkpt lat="44.37583" lon="5.17433">
        <ele>285</ele>
        <time>2021-11-13T16:01:30.072Z</time>
      </trkpt>
      <trkpt lat="44.3758" lon="5.17433">
        <ele>284</ele>
        <time>2021-11-13T16:01:31.073Z</time>
      </trkpt>
      <trkpt lat="44.37577" lon="5.17433">
        <ele>284</ele>
        <time>2021-11-13T16:01:32.073Z</time>
      </trkpt>
      <trkpt lat="44.37573" lon="5.17433">
        <ele>283</ele>
        <time>2021-11-13T16:01:33.073Z</time>
      </trkpt>
      <trkpt lat="44.37569" lon="5.17433">
        <ele>283</ele>
        <time>2021-11-13T16:01:34.073Z</time>
      </trkpt>
      <trkpt lat="44.37565" lon="5.17433">
        <ele>282</ele>
        <time>2021-11-13T16:01:35.072Z</time>
      </trkpt>
      <trkpt lat="44.37562" lon="5.17433">
        <ele>282</ele>
        <time>2021-11-13T16:01:36.073Z</time>
      </trkpt>
      <trkpt lat="44.37558" lon="5.17432">
        <ele>282</ele>
        <time>2021-11-13T16:01:37.073Z</time>
      </trkpt>
      <trkpt lat="44.37554" lon="5.17432">
        <ele>282</ele>
        <time>2021-11-13T16:01:38.073Z</time>
      </trkpt>
      <trkpt lat="44.37551" lon="5.17432">
        <ele>282</ele>
        <time>2021-11-13T16:01:39.073Z</time>
      </trkpt>
      <trkpt lat="44.37547" lon="5.17432">
        <ele>282</ele>
        <time>2021-11-13T16:01:40.073Z</time>
      </trkpt>
      <trkpt lat="44.37544" lon="5.17432">
        <ele>282</ele>
        <time>2021-11-13T16:01:41.073Z</time>
      </trkpt>
      <trkpt lat="44.3754" lon="5.17432">
        <ele>283</ele>
        <time>2021-11-13T16:01:42.073Z</time>
      </trkpt>
      <trkpt lat="44.37535" lon="5.17432">
        <ele>283</ele>
        <time>2021-11-13T16:01:43.073Z</time>
      </trkpt>
      <trkpt lat="44.37531" lon="5.17432">
        <ele>283</ele>
        <time>2021-11-13T16:01:44.073Z</time>
      </trkpt>
      <trkpt lat="44.37527" lon="5.17432">
        <ele>283</ele>
        <time>2021-11-13T16:01:45.072Z</time>
      </trkpt>
      <trkpt lat="44.37524" lon="5.17432">
        <ele>283</ele>
        <time>2021-11-13T16:01:46.073Z</time>
      </trkpt>
      <trkpt lat="44.3752" lon="5.17431">
        <ele>283</ele>
        <time>2021-11-13T16:01:47.073Z</time>
      </trkpt>
      <trkpt lat="44.37515" lon="5.17431">
        <ele>283</ele>
        <time>2021-11-13T16:01:48.072Z</time>
      </trkpt>
      <trkpt lat="44.3751" lon="5.17431">
        <ele>283</ele>
        <time>2021-11-13T16:01:49.072Z</time>
      </trkpt>
      <trkpt lat="44.37505" lon="5.1743">
        <ele>283</ele>
        <time>2021-11-13T16:01:50.072Z</time>
      </trkpt>
      <trkpt lat="44.375" lon="5.1743">
        <ele>283</ele>
        <time>2021-11-13T16:01:51.073Z</time>
      </trkpt>
      <trkpt lat="44.37497" lon="5.1743">
        <ele>283</ele>
        <time>2021-11-13T16:01:52.073Z</time>
      </trkpt>
      <trkpt lat="44.37492" lon="5.1743">
        <ele>284</ele>
        <time>2021-11-13T16:01:53.072Z</time>
      </trkpt>
      <trkpt lat="44.37488" lon="5.17431">
        <ele>284</ele>
        <time>2021-11-13T16:01:54.073Z</time>
      </trkpt>
      <trkpt lat="44.37485" lon="5.17432">
        <ele>284</ele>
        <time>2021-11-13T16:01:55.073Z</time>
      </trkpt>
      <trkpt lat="44.37482" lon="5.17432">
        <ele>284</ele>
        <time>2021-11-13T16:01:56.073Z</time>
      </trkpt>
      <trkpt lat="44.37479" lon="5.17433">
        <ele>285</ele>
        <time>2021-11-13T16:01:57.073Z</time>
      </trkpt>
      <trkpt lat="44.37476" lon="5.17433">
        <ele>285</ele>
        <time>2021-11-13T16:01:58.073Z</time>
      </trkpt>
      <trkpt lat="44.37473" lon="5.17434">
        <ele>286</ele>
        <time>2021-11-13T16:01:59.073Z</time>
      </trkpt>
      <trkpt lat="44.37471" lon="5.17434">
        <ele>286</ele>
        <time>2021-11-13T16:02:00.073Z</time>
      </trkpt>
      <trkpt lat="44.37468" lon="5.17434">
        <ele>287</ele>
        <time>2021-11-13T16:02:01.073Z</time>
      </trkpt>
      <trkpt lat="44.37466" lon="5.17434">
        <ele>288</ele>
        <time>2021-11-13T16:02:02.072Z</time>
      </trkpt>
      <trkpt lat="44.37464" lon="5.17434">
        <ele>289</ele>
        <time>2021-11-13T16:02:03.072Z</time>
      </trkpt>
      <trkpt lat="44.37459" lon="5.17432">
        <ele>290</ele>
        <time>2021-11-13T16:02:04.073Z</time>
      </trkpt>
      <trkpt lat="44.37456" lon="5.17431">
        <ele>291</ele>
        <time>2021-11-13T16:02:05.072Z</time>
      </trkpt>
      <trkpt lat="44.37453" lon="5.1743">
        <ele>291</ele>
        <time>2021-11-13T16:02:06.073Z</time>
      </trkpt>
      <trkpt lat="44.37452" lon="5.17429">
        <ele>292</ele>
        <time>2021-11-13T16:02:07.073Z</time>
      </trkpt>
      <trkpt lat="44.3745" lon="5.17428">
        <ele>293</ele>
        <time>2021-11-13T16:02:08.073Z</time>
      </trkpt>
      <trkpt lat="44.37448" lon="5.17426">
        <ele>294</ele>
        <time>2021-11-13T16:02:09.072Z</time>
      </trkpt>
      <trkpt lat="44.37446" lon="5.17425">
        <ele>294</ele>
        <time>2021-11-13T16:02:10.073Z</time>
      </trkpt>
      <trkpt lat="44.37444" lon="5.17424">
        <ele>295</ele>
        <time>2021-11-13T16:02:11.073Z</time>
      </trkpt>
      <trkpt lat="44.37442" lon="5.17423">
        <ele>295</ele>
        <time>2021-11-13T16:02:12.072Z</time>
      </trkpt>
      <trkpt lat="44.3744" lon="5.17421">
        <ele>295</ele>
        <time>2021-11-13T16:02:13.072Z</time>
      </trkpt>
      <trkpt lat="44.37438" lon="5.17419">
        <ele>296</ele>
        <time>2021-11-13T16:02:14.073Z</time>
      </trkpt>
      <trkpt lat="44.37437" lon="5.17418">
        <ele>296</ele>
        <time>2021-11-13T16:02:15.072Z</time>
      </trkpt>
      <trkpt lat="44.37435" lon="5.17416">
        <ele>297</ele>
        <time>2021-11-13T16:02:16.073Z</time>
      </trkpt>
      <trkpt lat="44.37432" lon="5.17413">
        <ele>297</ele>
        <time>2021-11-13T16:02:17.073Z</time>
      </trkpt>
      <trkpt lat="44.3743" lon="5.1741">
        <ele>298</ele>
        <time>2021-11-13T16:02:18.073Z</time>
      </trkpt>
      <trkpt lat="44.37428" lon="5.17407">
        <ele>298</ele>
        <time>2021-11-13T16:02:19.072Z</time>
      </trkpt>
      <trkpt lat="44.37425" lon="5.17404">
        <ele>299</ele>
        <time>2021-11-13T16:02:20.073Z</time>
      </trkpt>
      <trkpt lat="44.37423" lon="5.17402">
        <ele>299</ele>
        <time>2021-11-13T16:02:21.073Z</time>
      </trkpt>
      <trkpt lat="44.3742" lon="5.17398">
        <ele>299</ele>
        <time>2021-11-13T16:02:22.073Z</time>
      </trkpt>
      <trkpt lat="44.37417" lon="5.17394">
        <ele>298</ele>
        <time>2021-11-13T16:02:23.073Z</time>
      </trkpt>
      <trkpt lat="44.37414" lon="5.17389">
        <ele>298</ele>
        <time>2021-11-13T16:02:24.073Z</time>
      </trkpt>
      <trkpt lat="44.37411" lon="5.17383">
        <ele>297</ele>
        <time>2021-11-13T16:02:25.073Z</time>
      </trkpt>
      <trkpt lat="44.37407" lon="5.17377">
        <ele>296</ele>
        <time>2021-11-13T16:02:26.073Z</time>
      </trkpt>
      <trkpt lat="44.37404" lon="5.17371">
        <ele>296</ele>
        <time>2021-11-13T16:02:27.073Z</time>
      </trkpt>
      <trkpt lat="44.374" lon="5.17363">
        <ele>295</ele>
        <time>2021-11-13T16:02:28.073Z</time>
      </trkpt>
      <trkpt lat="44.37396" lon="5.17356">
        <ele>294</ele>
        <time>2021-11-13T16:02:29.073Z</time>
      </trkpt>
      <trkpt lat="44.37392" lon="5.17346">
        <ele>294</ele>
        <time>2021-11-13T16:02:30.073Z</time>
      </trkpt>
      <trkpt lat="44.37388" lon="5.17336">
        <ele>293</ele>
        <time>2021-11-13T16:02:31.073Z</time>
      </trkpt>
      <trkpt lat="44.37384" lon="5.17328">
        <ele>293</ele>
        <time>2021-11-13T16:02:32.073Z</time>
      </trkpt>
      <trkpt lat="44.37381" lon="5.17318">
        <ele>292</ele>
        <time>2021-11-13T16:02:33.073Z</time>
      </trkpt>
      <trkpt lat="44.37377" lon="5.17307">
        <ele>292</ele>
        <time>2021-11-13T16:02:34.072Z</time>
      </trkpt>
      <trkpt lat="44.37376" lon="5.173">
        <ele>291</ele>
        <time>2021-11-13T16:02:35.073Z</time>
      </trkpt>
      <trkpt lat="44.37375" lon="5.17291">
        <ele>291</ele>
        <time>2021-11-13T16:02:36.072Z</time>
      </trkpt>
      <trkpt lat="44.37374" lon="5.17282">
        <ele>290</ele>
        <time>2021-11-13T16:02:37.073Z</time>
      </trkpt>
      <trkpt lat="44.37374" lon="5.17273">
        <ele>290</ele>
        <time>2021-11-13T16:02:38.073Z</time>
      </trkpt>
      <trkpt lat="44.37375" lon="5.17265">
        <ele>289</ele>
        <time>2021-11-13T16:02:39.073Z</time>
      </trkpt>
      <trkpt lat="44.37375" lon="5.17255">
        <ele>288</ele>
        <time>2021-11-13T16:02:40.072Z</time>
      </trkpt>
      <trkpt lat="44.37373" lon="5.17245">
        <ele>288</ele>
        <time>2021-11-13T16:02:41.072Z</time>
      </trkpt>
      <trkpt lat="44.37371" lon="5.17234">
        <ele>287</ele>
        <time>2021-11-13T16:02:42.072Z</time>
      </trkpt>
      <trkpt lat="44.37369" lon="5.17222">
        <ele>287</ele>
        <time>2021-11-13T16:02:43.073Z</time>
      </trkpt>
      <trkpt lat="44.37366" lon="5.17213">
        <ele>286</ele>
        <time>2021-11-13T16:02:44.072Z</time>
      </trkpt>
      <trkpt lat="44.37364" lon="5.17203">
        <ele>286</ele>
        <time>2021-11-13T16:02:45.073Z</time>
      </trkpt>
      <trkpt lat="44.37362" lon="5.17194">
        <ele>286</ele>
        <time>2021-11-13T16:02:46.073Z</time>
      </trkpt>
      <trkpt lat="44.37361" lon="5.17185">
        <ele>286</ele>
        <time>2021-11-13T16:02:47.073Z</time>
      </trkpt>
      <trkpt lat="44.3736" lon="5.17176">
        <ele>285</ele>
        <time>2021-11-13T16:02:48.072Z</time>
      </trkpt>
      <trkpt lat="44.37358" lon="5.17168">
        <ele>285</ele>
        <time>2021-11-13T16:02:49.073Z</time>
      </trkpt>
      <trkpt lat="44.37357" lon="5.1716">
        <ele>285</ele>
        <time>2021-11-13T16:02:50.073Z</time>
      </trkpt>
      <trkpt lat="44.37354" lon="5.17152">
        <ele>285</ele>
        <time>2021-11-13T16:02:51.073Z</time>
      </trkpt>
      <trkpt lat="44.37352" lon="5.17145">
        <ele>285</ele>
        <time>2021-11-13T16:02:52.073Z</time>
      </trkpt>
      <trkpt lat="44.37351" lon="5.17138">
        <ele>284</ele>
        <time>2021-11-13T16:02:53.073Z</time>
      </trkpt>
      <trkpt lat="44.37352" lon="5.17133">
        <ele>284</ele>
        <time>2021-11-13T16:02:54.073Z</time>
      </trkpt>
      <trkpt lat="44.37352" lon="5.17128">
        <ele>284</ele>
        <time>2021-11-13T16:02:55.073Z</time>
      </trkpt>
      <trkpt lat="44.37354" lon="5.17122">
        <ele>284</ele>
        <time>2021-11-13T16:02:56.072Z</time>
      </trkpt>
      <trkpt lat="44.37354" lon="5.17117">
        <ele>284</ele>
        <time>2021-11-13T16:02:57.073Z</time>
      </trkpt>
      <trkpt lat="44.37352" lon="5.17111">
        <ele>284</ele>
        <time>2021-11-13T16:02:58.072Z</time>
      </trkpt>
      <trkpt lat="44.37352" lon="5.17106">
        <ele>284</ele>
        <time>2021-11-13T16:02:59.073Z</time>
      </trkpt>
      <trkpt lat="44.37351" lon="5.17101">
        <ele>284</ele>
        <time>2021-11-13T16:03:00.073Z</time>
      </trkpt>
      <trkpt lat="44.37351" lon="5.17096">
        <ele>283</ele>
        <time>2021-11-13T16:03:01.072Z</time>
      </trkpt>
      <trkpt lat="44.37351" lon="5.17091">
        <ele>283</ele>
        <time>2021-11-13T16:03:02.073Z</time>
      </trkpt>
      <trkpt lat="44.3735" lon="5.17086">
        <ele>282</ele>
        <time>2021-11-13T16:03:03.072Z</time>
      </trkpt>
      <trkpt lat="44.3735" lon="5.17081">
        <ele>282</ele>
        <time>2021-11-13T16:03:04.073Z</time>
      </trkpt>
      <trkpt lat="44.3735" lon="5.17076">
        <ele>282</ele>
        <time>2021-11-13T16:03:05.072Z</time>
      </trkpt>
      <trkpt lat="44.3735" lon="5.17071">
        <ele>281</ele>
        <time>2021-11-13T16:03:06.073Z</time>
      </trkpt>
      <trkpt lat="44.3735" lon="5.17067">
        <ele>281</ele>
        <time>2021-11-13T16:03:07.073Z</time>
      </trkpt>
      <trkpt lat="44.3735" lon="5.17062">
        <ele>281</ele>
        <time>2021-11-13T16:03:08.072Z</time>
      </trkpt>
      <trkpt lat="44.37351" lon="5.17058">
        <ele>281</ele>
        <time>2021-11-13T16:03:09.072Z</time>
      </trkpt>
      <trkpt lat="44.37352" lon="5.17055">
        <ele>280</ele>
        <time>2021-11-13T16:03:10.073Z</time>
      </trkpt>
      <trkpt lat="44.37354" lon="5.17052">
        <ele>280</ele>
        <time>2021-11-13T16:03:11.073Z</time>
      </trkpt>
      <trkpt lat="44.37356" lon="5.1705">
        <ele>281</ele>
        <time>2021-11-13T16:03:12.072Z</time>
      </trkpt>
      <trkpt lat="44.3736" lon="5.17048">
        <ele>281</ele>
        <time>2021-11-13T16:03:13.073Z</time>
      </trkpt>
      <trkpt lat="44.37363" lon="5.17047">
        <ele>281</ele>
        <time>2021-11-13T16:03:14.073Z</time>
      </trkpt>
      <trkpt lat="44.37368" lon="5.17047">
        <ele>281</ele>
        <time>2021-11-13T16:03:15.073Z</time>
      </trkpt>
      <trkpt lat="44.37371" lon="5.17046">
        <ele>281</ele>
        <time>2021-11-13T16:03:16.073Z</time>
      </trkpt>
      <trkpt lat="44.37376" lon="5.17046">
        <ele>280</ele>
        <time>2021-11-13T16:03:17.073Z</time>
      </trkpt>
      <trkpt lat="44.3738" lon="5.17046">
        <ele>280</ele>
        <time>2021-11-13T16:03:18.073Z</time>
      </trkpt>
      <trkpt lat="44.37384" lon="5.17046">
        <ele>280</ele>
        <time>2021-11-13T16:03:19.073Z</time>
      </trkpt>
      <trkpt lat="44.37388" lon="5.17048">
        <ele>279</ele>
        <time>2021-11-13T16:03:20.073Z</time>
      </trkpt>
      <trkpt lat="44.37392" lon="5.17049">
        <ele>279</ele>
        <time>2021-11-13T16:03:21.073Z</time>
      </trkpt>
      <trkpt lat="44.37396" lon="5.1705">
        <ele>279</ele>
        <time>2021-11-13T16:03:22.073Z</time>
      </trkpt>
      <trkpt lat="44.374" lon="5.17052">
        <ele>280</ele>
        <time>2021-11-13T16:03:23.073Z</time>
      </trkpt>
      <trkpt lat="44.37405" lon="5.17052">
        <ele>280</ele>
        <time>2021-11-13T16:03:24.073Z</time>
      </trkpt>
      <trkpt lat="44.37409" lon="5.17053">
        <ele>280</ele>
        <time>2021-11-13T16:03:25.073Z</time>
      </trkpt>
      <trkpt lat="44.37414" lon="5.17053">
        <ele>280</ele>
        <time>2021-11-13T16:03:26.073Z</time>
      </trkpt>
      <trkpt lat="44.37418" lon="5.17054">
        <ele>281</ele>
        <time>2021-11-13T16:03:27.073Z</time>
      </trkpt>
      <trkpt lat="44.37422" lon="5.17055">
        <ele>281</ele>
        <time>2021-11-13T16:03:28.073Z</time>
      </trkpt>
      <trkpt lat="44.37427" lon="5.17056">
        <ele>281</ele>
        <time>2021-11-13T16:03:29.073Z</time>
      </trkpt>
      <trkpt lat="44.37432" lon="5.17057">
        <ele>281</ele>
        <time>2021-11-13T16:03:30.072Z</time>
      </trkpt>
      <trkpt lat="44.37436" lon="5.17058">
        <ele>282</ele>
        <time>2021-11-13T16:03:31.073Z</time>
      </trkpt>
      <trkpt lat="44.3744" lon="5.17061">
        <ele>283</ele>
        <time>2021-11-13T16:03:32.073Z</time>
      </trkpt>
      <trkpt lat="44.37444" lon="5.17064">
        <ele>283</ele>
        <time>2021-11-13T16:03:33.073Z</time>
      </trkpt>
      <trkpt lat="44.37448" lon="5.17068">
        <ele>284</ele>
        <time>2021-11-13T16:03:34.073Z</time>
      </trkpt>
      <trkpt lat="44.3745" lon="5.17073">
        <ele>284</ele>
        <time>2021-11-13T16:03:35.072Z</time>
      </trkpt>
      <trkpt lat="44.37453" lon="5.17078">
        <ele>285</ele>
        <time>2021-11-13T16:03:36.073Z</time>
      </trkpt>
      <trkpt lat="44.37456" lon="5.17084">
        <ele>286</ele>
        <time>2021-11-13T16:03:37.072Z</time>
      </trkpt>
      <trkpt lat="44.37458" lon="5.1709">
        <ele>286</ele>
        <time>2021-11-13T16:03:38.072Z</time>
      </trkpt>
      <trkpt lat="44.37461" lon="5.17097">
        <ele>287</ele>
        <time>2021-11-13T16:03:39.073Z</time>
      </trkpt>
      <trkpt lat="44.37463" lon="5.17104">
        <ele>287</ele>
        <time>2021-11-13T16:03:40.073Z</time>
      </trkpt>
      <trkpt lat="44.37466" lon="5.17112">
        <ele>287</ele>
        <time>2021-11-13T16:03:41.073Z</time>
      </trkpt>
      <trkpt lat="44.37468" lon="5.17119">
        <ele>287</ele>
        <time>2021-11-13T16:03:42.072Z</time>
      </trkpt>
      <trkpt lat="44.37471" lon="5.17126">
        <ele>287</ele>
        <time>2021-11-13T16:03:43.073Z</time>
      </trkpt>
      <trkpt lat="44.37474" lon="5.17133">
        <ele>287</ele>
        <time>2021-11-13T16:03:44.073Z</time>
      </trkpt>
      <trkpt lat="44.37476" lon="5.1714">
        <ele>287</ele>
        <time>2021-11-13T16:03:45.073Z</time>
      </trkpt>
      <trkpt lat="44.37479" lon="5.17145">
        <ele>286</ele>
        <time>2021-11-13T16:03:46.073Z</time>
      </trkpt>
      <trkpt lat="44.37482" lon="5.1715">
        <ele>286</ele>
        <time>2021-11-13T16:03:47.073Z</time>
      </trkpt>
      <trkpt lat="44.37486" lon="5.17154">
        <ele>286</ele>
        <time>2021-11-13T16:03:48.073Z</time>
      </trkpt>
      <trkpt lat="44.37488" lon="5.17156">
        <ele>285</ele>
        <time>2021-11-13T16:03:49.073Z</time>
      </trkpt>
      <trkpt lat="44.37491" lon="5.17158">
        <ele>285</ele>
        <time>2021-11-13T16:03:50.072Z</time>
      </trkpt>
      <trkpt lat="44.37494" lon="5.17158">
        <ele>284</ele>
        <time>2021-11-13T16:03:51.073Z</time>
      </trkpt>
      <trkpt lat="44.37497" lon="5.17156">
        <ele>284</ele>
        <time>2021-11-13T16:03:52.073Z</time>
      </trkpt>
      <trkpt lat="44.37499" lon="5.17153">
        <ele>284</ele>
        <time>2021-11-13T16:03:53.073Z</time>
      </trkpt>
      <trkpt lat="44.37502" lon="5.17151">
        <ele>284</ele>
        <time>2021-11-13T16:03:54.073Z</time>
      </trkpt>
      <trkpt lat="44.37506" lon="5.17148">
        <ele>284</ele>
        <time>2021-11-13T16:03:55.073Z</time>
      </trkpt>
      <trkpt lat="44.37508" lon="5.17144">
        <ele>285</ele>
        <time>2021-11-13T16:03:56.073Z</time>
      </trkpt>
      <trkpt lat="44.37511" lon="5.1714">
        <ele>285</ele>
        <time>2021-11-13T16:03:57.073Z</time>
      </trkpt>
      <trkpt lat="44.37513" lon="5.17137">
        <ele>285</ele>
        <time>2021-11-13T16:03:58.073Z</time>
      </trkpt>
      <trkpt lat="44.37516" lon="5.17133">
        <ele>285</ele>
        <time>2021-11-13T16:03:59.073Z</time>
      </trkpt>
      <trkpt lat="44.37518" lon="5.1713">
        <ele>285</ele>
        <time>2021-11-13T16:04:00.073Z</time>
      </trkpt>
      <trkpt lat="44.37521" lon="5.17126">
        <ele>285</ele>
        <time>2021-11-13T16:04:01.072Z</time>
      </trkpt>
      <trkpt lat="44.37524" lon="5.17122">
        <ele>285</ele>
        <time>2021-11-13T16:04:02.073Z</time>
      </trkpt>
      <trkpt lat="44.37525" lon="5.17118">
        <ele>285</ele>
        <time>2021-11-13T16:04:03.073Z</time>
      </trkpt>
      <trkpt lat="44.37528" lon="5.17114">
        <ele>285</ele>
        <time>2021-11-13T16:04:04.072Z</time>
      </trkpt>
      <trkpt lat="44.37529" lon="5.1711">
        <ele>285</ele>
        <time>2021-11-13T16:04:05.072Z</time>
      </trkpt>
      <trkpt lat="44.37532" lon="5.17105">
        <ele>285</ele>
        <time>2021-11-13T16:04:06.073Z</time>
      </trkpt>
      <trkpt lat="44.37533" lon="5.171">
        <ele>284</ele>
        <time>2021-11-13T16:04:07.073Z</time>
      </trkpt>
      <trkpt lat="44.37535" lon="5.17095">
        <ele>284</ele>
        <time>2021-11-13T16:04:08.073Z</time>
      </trkpt>
      <trkpt lat="44.37537" lon="5.1709">
        <ele>284</ele>
        <time>2021-11-13T16:04:09.073Z</time>
      </trkpt>
      <trkpt lat="44.37538" lon="5.17085">
        <ele>284</ele>
        <time>2021-11-13T16:04:10.073Z</time>
      </trkpt>
      <trkpt lat="44.3754" lon="5.1708">
        <ele>283</ele>
        <time>2021-11-13T16:04:11.072Z</time>
      </trkpt>
      <trkpt lat="44.37542" lon="5.17075">
        <ele>283</ele>
        <time>2021-11-13T16:04:12.073Z</time>
      </trkpt>
      <trkpt lat="44.37544" lon="5.1707">
        <ele>283</ele>
        <time>2021-11-13T16:04:13.073Z</time>
      </trkpt>
      <trkpt lat="44.37546" lon="5.17066">
        <ele>283</ele>
        <time>2021-11-13T16:04:14.073Z</time>
      </trkpt>
      <trkpt lat="44.37547" lon="5.17061">
        <ele>282</ele>
        <time>2021-11-13T16:04:15.073Z</time>
      </trkpt>
      <trkpt lat="44.37548" lon="5.17057">
        <ele>282</ele>
        <time>2021-11-13T16:04:16.073Z</time>
      </trkpt>
      <trkpt lat="44.3755" lon="5.17053">
        <ele>282</ele>
        <time>2021-11-13T16:04:17.073Z</time>
      </trkpt>
      <trkpt lat="44.37552" lon="5.17049">
        <ele>282</ele>
        <time>2021-11-13T16:04:18.073Z</time>
      </trkpt>
      <trkpt lat="44.37555" lon="5.17047">
        <ele>282</ele>
        <time>2021-11-13T16:04:19.073Z</time>
      </trkpt>
      <trkpt lat="44.37557" lon="5.17043">
        <ele>282</ele>
        <time>2021-11-13T16:04:20.072Z</time>
      </trkpt>
      <trkpt lat="44.3756" lon="5.17041">
        <ele>282</ele>
        <time>2021-11-13T16:04:21.073Z</time>
      </trkpt>
      <trkpt lat="44.37563" lon="5.17038">
        <ele>282</ele>
        <time>2021-11-13T16:04:22.073Z</time>
      </trkpt>
      <trkpt lat="44.37566" lon="5.17036">
        <ele>282</ele>
        <time>2021-11-13T16:04:23.073Z</time>
      </trkpt>
      <trkpt lat="44.37569" lon="5.17034">
        <ele>282</ele>
        <time>2021-11-13T16:04:24.073Z</time>
      </trkpt>
      <trkpt lat="44.37571" lon="5.17032">
        <ele>283</ele>
        <time>2021-11-13T16:04:25.073Z</time>
      </trkpt>
      <trkpt lat="44.37575" lon="5.17032">
        <ele>283</ele>
        <time>2021-11-13T16:04:26.073Z</time>
      </trkpt>
      <trkpt lat="44.37578" lon="5.17033">
        <ele>283</ele>
        <time>2021-11-13T16:04:27.073Z</time>
      </trkpt>
      <trkpt lat="44.37581" lon="5.17035">
        <ele>284</ele>
        <time>2021-11-13T16:04:28.073Z</time>
      </trkpt>
      <trkpt lat="44.37583" lon="5.17038">
        <ele>284</ele>
        <time>2021-11-13T16:04:29.073Z</time>
      </trkpt>
      <trkpt lat="44.37585" lon="5.17041">
        <ele>285</ele>
        <time>2021-11-13T16:04:30.073Z</time>
      </trkpt>
      <trkpt lat="44.37586" lon="5.17045">
        <ele>286</ele>
        <time>2021-11-13T16:04:31.073Z</time>
      </trkpt>
      <trkpt lat="44.37589" lon="5.17048">
        <ele>286</ele>
        <time>2021-11-13T16:04:32.073Z</time>
      </trkpt>
      <trkpt lat="44.3759" lon="5.17052">
        <ele>287</ele>
        <time>2021-11-13T16:04:33.072Z</time>
      </trkpt>
      <trkpt lat="44.37591" lon="5.17055">
        <ele>287</ele>
        <time>2021-11-13T16:04:34.072Z</time>
      </trkpt>
      <trkpt lat="44.37592" lon="5.17058">
        <ele>287</ele>
        <time>2021-11-13T16:04:35.073Z</time>
      </trkpt>
      <trkpt lat="44.37594" lon="5.17061">
        <ele>287</ele>
        <time>2021-11-13T16:04:36.073Z</time>
      </trkpt>
      <trkpt lat="44.37595" lon="5.17065">
        <ele>287</ele>
        <time>2021-11-13T16:04:37.073Z</time>
      </trkpt>
      <trkpt lat="44.37596" lon="5.17068">
        <ele>287</ele>
        <time>2021-11-13T16:04:38.073Z</time>
      </trkpt>
      <trkpt lat="44.37597" lon="5.17071">
        <ele>288</ele>
        <time>2021-11-13T16:04:39.073Z</time>
      </trkpt>
      <trkpt lat="44.37599" lon="5.17075">
        <ele>288</ele>
        <time>2021-11-13T16:04:40.072Z</time>
      </trkpt>
      <trkpt lat="44.376" lon="5.17078">
        <ele>289</ele>
        <time>2021-11-13T16:04:41.073Z</time>
      </trkpt>
      <trkpt lat="44.37602" lon="5.1708">
        <ele>290</ele>
        <time>2021-11-13T16:04:42.073Z</time>
      </trkpt>
      <trkpt lat="44.37603" lon="5.17084">
        <ele>291</ele>
        <time>2021-11-13T16:04:43.073Z</time>
      </trkpt>
      <trkpt lat="44.37604" lon="5.17087">
        <ele>291</ele>
        <time>2021-11-13T16:04:44.073Z</time>
      </trkpt>
      <trkpt lat="44.37605" lon="5.1709">
        <ele>292</ele>
        <time>2021-11-13T16:04:45.072Z</time>
      </trkpt>
      <trkpt lat="44.37607" lon="5.17093">
        <ele>292</ele>
        <time>2021-11-13T16:04:46.073Z</time>
      </trkpt>
      <trkpt lat="44.37608" lon="5.17095">
        <ele>292</ele>
        <time>2021-11-13T16:04:47.073Z</time>
      </trkpt>
      <trkpt lat="44.37611" lon="5.17095">
        <ele>292</ele>
        <time>2021-11-13T16:04:48.073Z</time>
      </trkpt>
      <trkpt lat="44.37614" lon="5.17095">
        <ele>293</ele>
        <time>2021-11-13T16:04:49.073Z</time>
      </trkpt>
      <trkpt lat="44.37617" lon="5.17094">
        <ele>293</ele>
        <time>2021-11-13T16:04:50.073Z</time>
      </trkpt>
      <trkpt lat="44.37619" lon="5.17092">
        <ele>293</ele>
        <time>2021-11-13T16:04:51.073Z</time>
      </trkpt>
      <trkpt lat="44.37622" lon="5.1709">
        <ele>293</ele>
        <time>2021-11-13T16:04:52.072Z</time>
      </trkpt>
      <trkpt lat="44.37625" lon="5.17089">
        <ele>293</ele>
        <time>2021-11-13T16:04:53.073Z</time>
      </trkpt>
      <trkpt lat="44.37627" lon="5.17087">
        <ele>293</ele>
        <time>2021-11-13T16:04:54.072Z</time>
      </trkpt>
      <trkpt lat="44.3763" lon="5.17085">
        <ele>293</ele>
        <time>2021-11-13T16:04:55.072Z</time>
      </trkpt>
      <trkpt lat="44.37633" lon="5.17083">
        <ele>293</ele>
        <time>2021-11-13T16:04:56.072Z</time>
      </trkpt>
      <trkpt lat="44.37635" lon="5.17081">
        <ele>293</ele>
        <time>2021-11-13T16:04:57.073Z</time>
      </trkpt>
      <trkpt lat="44.37638" lon="5.17079">
        <ele>293</ele>
        <time>2021-11-13T16:04:58.073Z</time>
      </trkpt>
      <trkpt lat="44.3764" lon="5.17078">
        <ele>293</ele>
        <time>2021-11-13T16:04:59.073Z</time>
      </trkpt>
      <trkpt lat="44.37643" lon="5.17076">
        <ele>293</ele>
        <time>2021-11-13T16:05:00.073Z</time>
      </trkpt>
      <trkpt lat="44.37646" lon="5.17074">
        <ele>293</ele>
        <time>2021-11-13T16:05:01.072Z</time>
      </trkpt>
      <trkpt lat="44.37648" lon="5.17072">
        <ele>293</ele>
        <time>2021-11-13T16:05:02.073Z</time>
      </trkpt>
      <trkpt lat="44.3765" lon="5.1707">
        <ele>293</ele>
        <time>2021-11-13T16:05:03.073Z</time>
      </trkpt>
      <trkpt lat="44.37653" lon="5.17068">
        <ele>293</ele>
        <time>2021-11-13T16:05:04.073Z</time>
      </trkpt>
      <trkpt lat="44.37656" lon="5.17066">
        <ele>293</ele>
        <time>2021-11-13T16:05:05.073Z</time>
      </trkpt>
      <trkpt lat="44.37659" lon="5.17065">
        <ele>293</ele>
        <time>2021-11-13T16:05:06.073Z</time>
      </trkpt>
      <trkpt lat="44.37662" lon="5.17063">
        <ele>293</ele>
        <time>2021-11-13T16:05:07.073Z</time>
      </trkpt>
      <trkpt lat="44.37665" lon="5.17062">
        <ele>293</ele>
        <time>2021-11-13T16:05:08.072Z</time>
      </trkpt>
      <trkpt lat="44.37668" lon="5.1706">
        <ele>294</ele>
        <time>2021-11-13T16:05:09.072Z</time>
      </trkpt>
      <trkpt lat="44.3767" lon="5.17059">
        <ele>294</ele>
        <time>2021-11-13T16:05:10.073Z</time>
      </trkpt>
      <trkpt lat="44.37673" lon="5.17057">
        <ele>294</ele>
        <time>2021-11-13T16:05:11.073Z</time>
      </trkpt>
      <trkpt lat="44.37675" lon="5.17055">
        <ele>293</ele>
        <time>2021-11-13T16:05:12.072Z</time>
      </trkpt>
      <trkpt lat="44.37677" lon="5.17053">
        <ele>294</ele>
        <time>2021-11-13T16:05:13.073Z</time>
      </trkpt>
      <trkpt lat="44.3768" lon="5.17051">
        <ele>294</ele>
        <time>2021-11-13T16:05:14.072Z</time>
      </trkpt>
      <trkpt lat="44.37683" lon="5.17049">
        <ele>294</ele>
        <time>2021-11-13T16:05:15.072Z</time>
      </trkpt>
      <trkpt lat="44.37686" lon="5.17048">
        <ele>294</ele>
        <time>2021-11-13T16:05:16.072Z</time>
      </trkpt>
      <trkpt lat="44.37689" lon="5.17048">
        <ele>295</ele>
        <time>2021-11-13T16:05:17.073Z</time>
      </trkpt>
      <trkpt lat="44.37692" lon="5.17047">
        <ele>295</ele>
        <time>2021-11-13T16:05:18.073Z</time>
      </trkpt>
      <trkpt lat="44.37695" lon="5.17047">
        <ele>295</ele>
        <time>2021-11-13T16:05:19.073Z</time>
      </trkpt>
      <trkpt lat="44.37698" lon="5.17047">
        <ele>296</ele>
        <time>2021-11-13T16:05:20.072Z</time>
      </trkpt>
      <trkpt lat="44.37701" lon="5.17047">
        <ele>296</ele>
        <time>2021-11-13T16:05:21.073Z</time>
      </trkpt>
      <trkpt lat="44.37703" lon="5.17047">
        <ele>296</ele>
        <time>2021-11-13T16:05:22.073Z</time>
      </trkpt>
      <trkpt lat="44.37707" lon="5.17048">
        <ele>296</ele>
        <time>2021-11-13T16:05:23.073Z</time>
      </trkpt>
      <trkpt lat="44.3771" lon="5.17049">
        <ele>297</ele>
        <time>2021-11-13T16:05:24.072Z</time>
      </trkpt>
      <trkpt lat="44.37713" lon="5.17051">
        <ele>297</ele>
        <time>2021-11-13T16:05:25.072Z</time>
      </trkpt>
      <trkpt lat="44.37716" lon="5.17052">
        <ele>297</ele>
        <time>2021-11-13T16:05:26.073Z</time>
      </trkpt>
      <trkpt lat="44.37719" lon="5.17053">
        <ele>298</ele>
        <time>2021-11-13T16:05:27.073Z</time>
      </trkpt>
      <trkpt lat="44.37722" lon="5.17054">
        <ele>298</ele>
        <time>2021-11-13T16:05:28.073Z</time>
      </trkpt>
      <trkpt lat="44.37726" lon="5.17056">
        <ele>298</ele>
        <time>2021-11-13T16:05:29.073Z</time>
      </trkpt>
      <trkpt lat="44.37729" lon="5.17057">
        <ele>298</ele>
        <time>2021-11-13T16:05:30.072Z</time>
      </trkpt>
      <trkpt lat="44.37732" lon="5.17058">
        <ele>298</ele>
        <time>2021-11-13T16:05:31.073Z</time>
      </trkpt>
      <trkpt lat="44.37736" lon="5.17059">
        <ele>297</ele>
        <time>2021-11-13T16:05:32.073Z</time>
      </trkpt>
      <trkpt lat="44.37738" lon="5.1706">
        <ele>297</ele>
        <time>2021-11-13T16:05:33.073Z</time>
      </trkpt>
      <trkpt lat="44.37742" lon="5.1706">
        <ele>297</ele>
        <time>2021-11-13T16:05:34.072Z</time>
      </trkpt>
      <trkpt lat="44.37745" lon="5.17059">
        <ele>297</ele>
        <time>2021-11-13T16:05:35.073Z</time>
      </trkpt>
      <trkpt lat="44.37749" lon="5.17057">
        <ele>296</ele>
        <time>2021-11-13T16:05:36.072Z</time>
      </trkpt>
      <trkpt lat="44.37751" lon="5.17054">
        <ele>296</ele>
        <time>2021-11-13T16:05:37.072Z</time>
      </trkpt>
      <trkpt lat="44.37753" lon="5.1705">
        <ele>296</ele>
        <time>2021-11-13T16:05:38.073Z</time>
      </trkpt>
      <trkpt lat="44.37753" lon="5.17045">
        <ele>296</ele>
        <time>2021-11-13T16:05:39.073Z</time>
      </trkpt>
      <trkpt lat="44.37753" lon="5.17038">
        <ele>296</ele>
        <time>2021-11-13T16:05:40.072Z</time>
      </trkpt>
      <trkpt lat="44.37752" lon="5.17031">
        <ele>296</ele>
        <time>2021-11-13T16:05:41.072Z</time>
      </trkpt>
      <trkpt lat="44.37752" lon="5.17025">
        <ele>296</ele>
        <time>2021-11-13T16:05:42.072Z</time>
      </trkpt>
      <trkpt lat="44.37752" lon="5.1702">
        <ele>296</ele>
        <time>2021-11-13T16:05:43.073Z</time>
      </trkpt>
      <trkpt lat="44.37753" lon="5.17015">
        <ele>296</ele>
        <time>2021-11-13T16:05:44.073Z</time>
      </trkpt>
      <trkpt lat="44.37753" lon="5.17012">
        <ele>296</ele>
        <time>2021-11-13T16:05:45.073Z</time>
      </trkpt>
      <trkpt lat="44.37755" lon="5.17008">
        <ele>296</ele>
        <time>2021-11-13T16:05:46.072Z</time>
      </trkpt>
      <trkpt lat="44.37757" lon="5.17006">
        <ele>296</ele>
        <time>2021-11-13T16:05:47.073Z</time>
      </trkpt>
      <trkpt lat="44.37759" lon="5.17005">
        <ele>297</ele>
        <time>2021-11-13T16:05:48.073Z</time>
      </trkpt>
      <trkpt lat="44.37762" lon="5.17005">
        <ele>297</ele>
        <time>2021-11-13T16:05:49.073Z</time>
      </trkpt>
      <trkpt lat="44.37764" lon="5.17005">
        <ele>297</ele>
        <time>2021-11-13T16:05:50.072Z</time>
      </trkpt>
      <trkpt lat="44.37766" lon="5.17005">
        <ele>297</ele>
        <time>2021-11-13T16:05:51.073Z</time>
      </trkpt>
      <trkpt lat="44.37769" lon="5.17007">
        <ele>298</ele>
        <time>2021-11-13T16:05:52.073Z</time>
      </trkpt>
      <trkpt lat="44.37771" lon="5.17008">
        <ele>298</ele>
        <time>2021-11-13T16:05:53.072Z</time>
      </trkpt>
      <trkpt lat="44.37773" lon="5.17008">
        <ele>298</ele>
        <time>2021-11-13T16:05:54.073Z</time>
      </trkpt>
      <trkpt lat="44.37776" lon="5.17009">
        <ele>298</ele>
        <time>2021-11-13T16:05:55.073Z</time>
      </trkpt>
      <trkpt lat="44.37779" lon="5.17011">
        <ele>298</ele>
        <time>2021-11-13T16:05:56.073Z</time>
      </trkpt>
      <trkpt lat="44.37782" lon="5.17012">
        <ele>298</ele>
        <time>2021-11-13T16:05:57.073Z</time>
      </trkpt>
      <trkpt lat="44.37785" lon="5.17013">
        <ele>298</ele>
        <time>2021-11-13T16:05:58.073Z</time>
      </trkpt>
      <trkpt lat="44.37788" lon="5.17014">
        <ele>298</ele>
        <time>2021-11-13T16:05:59.073Z</time>
      </trkpt>
      <trkpt lat="44.3779" lon="5.17014">
        <ele>298</ele>
        <time>2021-11-13T16:06:00.073Z</time>
      </trkpt>
      <trkpt lat="44.37792" lon="5.17015">
        <ele>298</ele>
        <time>2021-11-13T16:06:01.073Z</time>
      </trkpt>
      <trkpt lat="44.37795" lon="5.17015">
        <ele>298</ele>
        <time>2021-11-13T16:06:02.073Z</time>
      </trkpt>
      <trkpt lat="44.37798" lon="5.17015">
        <ele>298</ele>
        <time>2021-11-13T16:06:03.073Z</time>
      </trkpt>
      <trkpt lat="44.378" lon="5.17015">
        <ele>298</ele>
        <time>2021-11-13T16:06:04.073Z</time>
      </trkpt>
      <trkpt lat="44.37803" lon="5.17014">
        <ele>298</ele>
        <time>2021-11-13T16:06:05.073Z</time>
      </trkpt>
      <trkpt lat="44.37805" lon="5.17013">
        <ele>299</ele>
        <time>2021-11-13T16:06:06.072Z</time>
      </trkpt>
      <trkpt lat="44.37808" lon="5.17012">
        <ele>299</ele>
        <time>2021-11-13T16:06:07.072Z</time>
      </trkpt>
      <trkpt lat="44.3781" lon="5.17011">
        <ele>299</ele>
        <time>2021-11-13T16:06:08.072Z</time>
      </trkpt>
      <trkpt lat="44.37812" lon="5.1701">
        <ele>299</ele>
        <time>2021-11-13T16:06:09.073Z</time>
      </trkpt>
      <trkpt lat="44.37814" lon="5.17008">
        <ele>299</ele>
        <time>2021-11-13T16:06:10.073Z</time>
      </trkpt>
      <trkpt lat="44.37816" lon="5.17007">
        <ele>299</ele>
        <time>2021-11-13T16:06:11.073Z</time>
      </trkpt>
      <trkpt lat="44.37819" lon="5.17005">
        <ele>299</ele>
        <time>2021-11-13T16:06:12.073Z</time>
      </trkpt>
      <trkpt lat="44.37821" lon="5.17004">
        <ele>300</ele>
        <time>2021-11-13T16:06:13.073Z</time>
      </trkpt>
      <trkpt lat="44.37822" lon="5.17002">
        <ele>300</ele>
        <time>2021-11-13T16:06:14.073Z</time>
      </trkpt>
      <trkpt lat="44.37824" lon="5.17001">
        <ele>300</ele>
        <time>2021-11-13T16:06:15.072Z</time>
      </trkpt>
      <trkpt lat="44.37826" lon="5.16999">
        <ele>300</ele>
        <time>2021-11-13T16:06:16.073Z</time>
      </trkpt>
      <trkpt lat="44.37828" lon="5.16998">
        <ele>300</ele>
        <time>2021-11-13T16:06:17.073Z</time>
      </trkpt>
      <trkpt lat="44.37829" lon="5.16997">
        <ele>300</ele>
        <time>2021-11-13T16:06:18.073Z</time>
      </trkpt>
      <trkpt lat="44.3783" lon="5.16996">
        <ele>299</ele>
        <time>2021-11-13T16:06:19.073Z</time>
      </trkpt>
      <trkpt lat="44.37831" lon="5.16996">
        <ele>299</ele>
        <time>2021-11-13T16:06:20.072Z</time>
      </trkpt>
      <trkpt lat="44.37833" lon="5.16996">
        <ele>299</ele>
        <time>2021-11-13T16:06:21.072Z</time>
      </trkpt>
      <trkpt lat="44.37834" lon="5.16995">
        <ele>300</ele>
        <time>2021-11-13T16:06:22.073Z</time>
      </trkpt>
      <trkpt lat="44.37836" lon="5.16993">
        <ele>300</ele>
        <time>2021-11-13T16:06:23.073Z</time>
      </trkpt>
      <trkpt lat="44.37836" lon="5.16991">
        <ele>300</ele>
        <time>2021-11-13T16:06:24.073Z</time>
      </trkpt>
      <trkpt lat="44.37837" lon="5.1699">
        <ele>300</ele>
        <time>2021-11-13T16:06:25.073Z</time>
      </trkpt>
      <trkpt lat="44.37838" lon="5.16988">
        <ele>300</ele>
        <time>2021-11-13T16:06:26.072Z</time>
      </trkpt>
      <trkpt lat="44.37839" lon="5.16986">
        <ele>300</ele>
        <time>2021-11-13T16:06:27.072Z</time>
      </trkpt>
      <trkpt lat="44.3784" lon="5.16983">
        <ele>300</ele>
        <time>2021-11-13T16:06:28.073Z</time>
      </trkpt>
      <trkpt lat="44.37841" lon="5.16982">
        <ele>300</ele>
        <time>2021-11-13T16:06:29.073Z</time>
      </trkpt>
      <trkpt lat="44.37843" lon="5.16979">
        <ele>300</ele>
        <time>2021-11-13T16:06:30.072Z</time>
      </trkpt>
      <trkpt lat="44.37844" lon="5.16977">
        <ele>300</ele>
        <time>2021-11-13T16:06:31.073Z</time>
      </trkpt>
      <trkpt lat="44.37846" lon="5.16975">
        <ele>300</ele>
        <time>2021-11-13T16:06:32.073Z</time>
      </trkpt>
      <trkpt lat="44.37847" lon="5.16972">
        <ele>300</ele>
        <time>2021-11-13T16:06:33.072Z</time>
      </trkpt>
      <trkpt lat="44.37849" lon="5.16971">
        <ele>300</ele>
        <time>2021-11-13T16:06:34.073Z</time>
      </trkpt>
      <trkpt lat="44.37851" lon="5.1697">
        <ele>300</ele>
        <time>2021-11-13T16:06:35.072Z</time>
      </trkpt>
      <trkpt lat="44.37853" lon="5.16968">
        <ele>301</ele>
        <time>2021-11-13T16:06:36.072Z</time>
      </trkpt>
      <trkpt lat="44.37854" lon="5.16966">
        <ele>301</ele>
        <time>2021-11-13T16:06:37.073Z</time>
      </trkpt>
      <trkpt lat="44.37856" lon="5.16965">
        <ele>301</ele>
        <time>2021-11-13T16:06:38.072Z</time>
      </trkpt>
      <trkpt lat="44.37858" lon="5.16964">
        <ele>301</ele>
        <time>2021-11-13T16:06:39.073Z</time>
      </trkpt>
      <trkpt lat="44.37859" lon="5.16963">
        <ele>301</ele>
        <time>2021-11-13T16:06:40.073Z</time>
      </trkpt>
      <trkpt lat="44.37861" lon="5.16962">
        <ele>301</ele>
        <time>2021-11-13T16:06:41.073Z</time>
      </trkpt>
      <trkpt lat="44.37863" lon="5.16961">
        <ele>301</ele>
        <time>2021-11-13T16:06:42.073Z</time>
      </trkpt>
      <trkpt lat="44.37865" lon="5.16961">
        <ele>301</ele>
        <time>2021-11-13T16:06:43.073Z</time>
      </trkpt>
      <trkpt lat="44.37867" lon="5.1696">
        <ele>301</ele>
        <time>2021-11-13T16:06:44.072Z</time>
      </trkpt>
      <trkpt lat="44.37869" lon="5.16959">
        <ele>300</ele>
        <time>2021-11-13T16:06:45.073Z</time>
      </trkpt>
      <trkpt lat="44.3787" lon="5.16958">
        <ele>300</ele>
        <time>2021-11-13T16:06:46.073Z</time>
      </trkpt>
      <trkpt lat="44.37872" lon="5.16957">
        <ele>300</ele>
        <time>2021-11-13T16:06:47.073Z</time>
      </trkpt>
      <trkpt lat="44.37875" lon="5.16957">
        <ele>300</ele>
        <time>2021-11-13T16:06:48.073Z</time>
      </trkpt>
      <trkpt lat="44.37877" lon="5.16956">
        <ele>301</ele>
        <time>2021-11-13T16:06:49.073Z</time>
      </trkpt>
      <trkpt lat="44.37879" lon="5.16956">
        <ele>301</ele>
        <time>2021-11-13T16:06:50.073Z</time>
      </trkpt>
      <trkpt lat="44.3788" lon="5.16955">
        <ele>301</ele>
        <time>2021-11-13T16:06:51.072Z</time>
      </trkpt>
      <trkpt lat="44.37882" lon="5.16954">
        <ele>301</ele>
        <time>2021-11-13T16:06:52.073Z</time>
      </trkpt>
      <trkpt lat="44.37885" lon="5.16954">
        <ele>301</ele>
        <time>2021-11-13T16:06:53.073Z</time>
      </trkpt>
      <trkpt lat="44.37887" lon="5.16953">
        <ele>301</ele>
        <time>2021-11-13T16:06:54.073Z</time>
      </trkpt>
      <trkpt lat="44.37889" lon="5.16953">
        <ele>301</ele>
        <time>2021-11-13T16:06:55.073Z</time>
      </trkpt>
      <trkpt lat="44.37891" lon="5.16952">
        <ele>302</ele>
        <time>2021-11-13T16:06:56.073Z</time>
      </trkpt>
      <trkpt lat="44.37894" lon="5.16952">
        <ele>302</ele>
        <time>2021-11-13T16:06:57.072Z</time>
      </trkpt>
      <trkpt lat="44.37896" lon="5.16951">
        <ele>302</ele>
        <time>2021-11-13T16:06:58.073Z</time>
      </trkpt>
      <trkpt lat="44.37898" lon="5.16951">
        <ele>303</ele>
        <time>2021-11-13T16:06:59.073Z</time>
      </trkpt>
      <trkpt lat="44.379" lon="5.1695">
        <ele>303</ele>
        <time>2021-11-13T16:07:00.073Z</time>
      </trkpt>
      <trkpt lat="44.37902" lon="5.1695">
        <ele>304</ele>
        <time>2021-11-13T16:07:01.073Z</time>
      </trkpt>
      <trkpt lat="44.37905" lon="5.16949">
        <ele>304</ele>
        <time>2021-11-13T16:07:02.073Z</time>
      </trkpt>
      <trkpt lat="44.37907" lon="5.16949">
        <ele>305</ele>
        <time>2021-11-13T16:07:03.073Z</time>
      </trkpt>
      <trkpt lat="44.37909" lon="5.16948">
        <ele>305</ele>
        <time>2021-11-13T16:07:04.073Z</time>
      </trkpt>
      <trkpt lat="44.37911" lon="5.16947">
        <ele>306</ele>
        <time>2021-11-13T16:07:05.073Z</time>
      </trkpt>
      <trkpt lat="44.37914" lon="5.16947">
        <ele>306</ele>
        <time>2021-11-13T16:07:06.073Z</time>
      </trkpt>
      <trkpt lat="44.37917" lon="5.16946">
        <ele>307</ele>
        <time>2021-11-13T16:07:07.073Z</time>
      </trkpt>
      <trkpt lat="44.37919" lon="5.16946">
        <ele>307</ele>
        <time>2021-11-13T16:07:08.073Z</time>
      </trkpt>
      <trkpt lat="44.37922" lon="5.16945">
        <ele>307</ele>
        <time>2021-11-13T16:07:09.073Z</time>
      </trkpt>
      <trkpt lat="44.37924" lon="5.16945">
        <ele>308</ele>
        <time>2021-11-13T16:07:10.072Z</time>
      </trkpt>
      <trkpt lat="44.37927" lon="5.16945">
        <ele>308</ele>
        <time>2021-11-13T16:07:11.073Z</time>
      </trkpt>
      <trkpt lat="44.37929" lon="5.16944">
        <ele>309</ele>
        <time>2021-11-13T16:07:12.073Z</time>
      </trkpt>
      <trkpt lat="44.37932" lon="5.16943">
        <ele>309</ele>
        <time>2021-11-13T16:07:13.073Z</time>
      </trkpt>
      <trkpt lat="44.37934" lon="5.16943">
        <ele>309</ele>
        <time>2021-11-13T16:07:14.073Z</time>
      </trkpt>
      <trkpt lat="44.37936" lon="5.16942">
        <ele>310</ele>
        <time>2021-11-13T16:07:15.073Z</time>
      </trkpt>
      <trkpt lat="44.37939" lon="5.16941">
        <ele>310</ele>
        <time>2021-11-13T16:07:16.073Z</time>
      </trkpt>
      <trkpt lat="44.37941" lon="5.1694">
        <ele>310</ele>
        <time>2021-11-13T16:07:17.073Z</time>
      </trkpt>
      <trkpt lat="44.37943" lon="5.16939">
        <ele>310</ele>
        <time>2021-11-13T16:07:18.073Z</time>
      </trkpt>
      <trkpt lat="44.37946" lon="5.16938">
        <ele>311</ele>
        <time>2021-11-13T16:07:19.073Z</time>
      </trkpt>
      <trkpt lat="44.37948" lon="5.16937">
        <ele>311</ele>
        <time>2021-11-13T16:07:20.072Z</time>
      </trkpt>
      <trkpt lat="44.3795" lon="5.16936">
        <ele>311</ele>
        <time>2021-11-13T16:07:21.073Z</time>
      </trkpt>
      <trkpt lat="44.37952" lon="5.16935">
        <ele>312</ele>
        <time>2021-11-13T16:07:22.073Z</time>
      </trkpt>
      <trkpt lat="44.37954" lon="5.16934">
        <ele>313</ele>
        <time>2021-11-13T16:07:23.072Z</time>
      </trkpt>
      <trkpt lat="44.37956" lon="5.16933">
        <ele>313</ele>
        <time>2021-11-13T16:07:24.073Z</time>
      </trkpt>
      <trkpt lat="44.37959" lon="5.16932">
        <ele>314</ele>
        <time>2021-11-13T16:07:25.073Z</time>
      </trkpt>
      <trkpt lat="44.37961" lon="5.16931">
        <ele>315</ele>
        <time>2021-11-13T16:07:26.073Z</time>
      </trkpt>
      <trkpt lat="44.37962" lon="5.1693">
        <ele>315</ele>
        <time>2021-11-13T16:07:27.073Z</time>
      </trkpt>
      <trkpt lat="44.37964" lon="5.16929">
        <ele>316</ele>
        <time>2021-11-13T16:07:28.073Z</time>
      </trkpt>
      <trkpt lat="44.37966" lon="5.16928">
        <ele>316</ele>
        <time>2021-11-13T16:07:29.072Z</time>
      </trkpt>
      <trkpt lat="44.37967" lon="5.16926">
        <ele>316</ele>
        <time>2021-11-13T16:07:30.072Z</time>
      </trkpt>
      <trkpt lat="44.37968" lon="5.16925">
        <ele>316</ele>
        <time>2021-11-13T16:07:31.073Z</time>
      </trkpt>
      <trkpt lat="44.37969" lon="5.16924">
        <ele>316</ele>
        <time>2021-11-13T16:07:32.073Z</time>
      </trkpt>
      <trkpt lat="44.37969" lon="5.16923">
        <ele>317</ele>
        <time>2021-11-13T16:07:33.073Z</time>
      </trkpt>
    </trkseg>
  </trk>
</gpx>